<?xml version='1.0' encoding='UTF-8'?><gpx version="1.1" creator="JPX - https://github.com/jenetics/jpx" xmlns="http://www.topografix.com/GPX/1/1"><trk><trkseg><trkpt lat="45.0251174" lon="11.6406101"><ele>7.000000000000001</ele><time>2026-05-01T05:55:09.394Z</time></trkpt><trkpt lat="45.0251901" lon="11.6405869"><ele>7.0</ele><time>2026-05-01T05:55:51.383Z</time></trkpt><trkpt lat="45.0252209" lon="11.6406809"><ele>7.0</ele><time>2026-05-01T05:56:14.454Z</time></trkpt><trkpt lat="45.0251045" lon="11.6406815"><ele>7.0</ele><time>2026-05-01T05:56:25.395Z</time></trkpt><trkpt lat="45.0249975" lon="11.6406736"><ele>7.000000000000001</ele><time>2026-05-01T05:56:26.408Z</time></trkpt><trkpt lat="45.0249744" lon="11.6407625"><ele>7.0</ele><time>2026-05-01T05:56:37.413Z</time></trkpt><trkpt lat="45.0250267" lon="11.6407031"><ele>7.0</ele><time>2026-05-01T05:57:13.443Z</time></trkpt><trkpt lat="45.0253354" lon="11.6405456"><ele>7.0</ele><time>2026-05-01T05:57:22.386Z</time></trkpt><trkpt lat="45.0254538" lon="11.6404915"><ele>7.0</ele><time>2026-05-01T05:57:23.414Z</time></trkpt><trkpt lat="45.0254446" lon="11.6406047"><ele>7.0</ele><time>2026-05-01T05:57:35.374Z</time></trkpt><trkpt lat="45.0252254" lon="11.6407957"><ele>7.0</ele><time>2026-05-01T05:57:36.402Z</time></trkpt><trkpt lat="45.0251554" lon="11.6408161"><ele>7.0</ele><time>2026-05-01T05:57:39.407Z</time></trkpt><trkpt lat="45.0250975" lon="11.6407806"><ele>7.0</ele><time>2026-05-01T05:57:46.414Z</time></trkpt><trkpt lat="45.0251298" lon="11.6407026"><ele>7.0</ele><time>2026-05-01T05:58:29.402Z</time></trkpt><trkpt lat="45.0252021" lon="11.6406819"><ele>7.0</ele><time>2026-05-01T05:58:36.415Z</time></trkpt><trkpt lat="45.0251451" lon="11.6406262"><ele>7.0</ele><time>2026-05-01T05:59:32.39Z</time></trkpt><trkpt lat="45.0250845" lon="11.6406786"><ele>7.0</ele><time>2026-05-01T05:59:51.414Z</time></trkpt><trkpt lat="45.0251283" lon="11.6405917"><ele>7.0</ele><time>2026-05-01T06:00:28.386Z</time></trkpt><trkpt lat="45.02517" lon="11.6405133"><ele>7.0</ele><time>2026-05-01T06:03:04.417Z</time></trkpt><trkpt lat="45.0252367" lon="11.640485"><ele>7.000000000000001</ele><time>2026-05-01T06:03:08.417Z</time></trkpt><trkpt lat="45.025295" lon="11.6404233"><ele>7.0</ele><time>2026-05-01T06:03:12.405Z</time></trkpt><trkpt lat="45.025365" lon="11.6403683"><ele>7.0</ele><time>2026-05-01T06:03:16.394Z</time></trkpt><trkpt lat="45.02542" lon="11.6403183"><ele>7.0</ele><time>2026-05-01T06:03:19.411Z</time></trkpt><trkpt lat="45.0255" lon="11.64028"><ele>7.000000000000001</ele><time>2026-05-01T06:03:22.419Z</time></trkpt><trkpt lat="45.025585" lon="11.6402567"><ele>7.0</ele><time>2026-05-01T06:03:25.414Z</time></trkpt><trkpt lat="45.025655" lon="11.6402383"><ele>7.000000000000001</ele><time>2026-05-01T06:03:27.415Z</time></trkpt><trkpt lat="45.02573" lon="11.6402367"><ele>7.0</ele><time>2026-05-01T06:03:29.414Z</time></trkpt><trkpt lat="45.0258017" lon="11.64024"><ele>7.0</ele><time>2026-05-01T06:03:31.419Z</time></trkpt><trkpt lat="45.02588" lon="11.64025"><ele>7.0</ele><time>2026-05-01T06:03:33.417Z</time></trkpt><trkpt lat="45.02596" lon="11.6402667"><ele>7.000000000000001</ele><time>2026-05-01T06:03:35.397Z</time></trkpt><trkpt lat="45.0260383" lon="11.6402867"><ele>7.0</ele><time>2026-05-01T06:03:37.413Z</time></trkpt><trkpt lat="45.0261217" lon="11.6403133"><ele>7.199999999999999</ele><time>2026-05-01T06:03:39.41Z</time></trkpt><trkpt lat="45.026205" lon="11.64034"><ele>7.3999999999999995</ele><time>2026-05-01T06:03:41.42Z</time></trkpt><trkpt lat="45.02629" lon="11.64037"><ele>7.6000000000000005</ele><time>2026-05-01T06:03:43.417Z</time></trkpt><trkpt lat="45.0263767" lon="11.64041"><ele>7.800000000000001</ele><time>2026-05-01T06:03:45.42Z</time></trkpt><trkpt lat="45.026465" lon="11.64047"><ele>8.0</ele><time>2026-05-01T06:03:47.414Z</time></trkpt><trkpt lat="45.026555" lon="11.6405283"><ele>8.0</ele><time>2026-05-01T06:03:49.422Z</time></trkpt><trkpt lat="45.0266517" lon="11.6405933"><ele>8.0</ele><time>2026-05-01T06:03:51.417Z</time></trkpt><trkpt lat="45.0267433" lon="11.640665"><ele>8.0</ele><time>2026-05-01T06:03:53.421Z</time></trkpt><trkpt lat="45.0268283" lon="11.6407517"><ele>8.0</ele><time>2026-05-01T06:03:55.396Z</time></trkpt><trkpt lat="45.0269133" lon="11.640845"><ele>8.0</ele><time>2026-05-01T06:03:57.418Z</time></trkpt><trkpt lat="45.0269933" lon="11.6409417"><ele>7.999999999999999</ele><time>2026-05-01T06:03:59.424Z</time></trkpt><trkpt lat="45.02707" lon="11.641035"><ele>8.0</ele><time>2026-05-01T06:04:01.42Z</time></trkpt><trkpt lat="45.02713" lon="11.641095"><ele>8.0</ele><time>2026-05-01T06:04:04.405Z</time></trkpt><trkpt lat="45.027205" lon="11.6411833"><ele>8.0</ele><time>2026-05-01T06:04:07.399Z</time></trkpt><trkpt lat="45.0272667" lon="11.6412783"><ele>7.999999999999999</ele><time>2026-05-01T06:04:09.405Z</time></trkpt><trkpt lat="45.0273333" lon="11.641355"><ele>8.0</ele><time>2026-05-01T06:04:11.425Z</time></trkpt><trkpt lat="45.0274167" lon="11.64143"><ele>8.200000000000001</ele><time>2026-05-01T06:04:13.42Z</time></trkpt><trkpt lat="45.0274983" lon="11.6415017"><ele>8.4</ele><time>2026-05-01T06:04:15.423Z</time></trkpt><trkpt lat="45.027575" lon="11.64158"><ele>8.600000000000001</ele><time>2026-05-01T06:04:17.392Z</time></trkpt><trkpt lat="45.0276517" lon="11.64165"><ele>8.8</ele><time>2026-05-01T06:04:19.421Z</time></trkpt><trkpt lat="45.0277217" lon="11.6417267"><ele>9.0</ele><time>2026-05-01T06:04:21.424Z</time></trkpt><trkpt lat="45.027805" lon="11.6417983"><ele>9.0</ele><time>2026-05-01T06:04:23.422Z</time></trkpt><trkpt lat="45.027895" lon="11.64184"><ele>9.0</ele><time>2026-05-01T06:04:25.412Z</time></trkpt><trkpt lat="45.0279883" lon="11.6418683"><ele>9.0</ele><time>2026-05-01T06:04:27.415Z</time></trkpt><trkpt lat="45.0280767" lon="11.6418917"><ele>9.0</ele><time>2026-05-01T06:04:29.417Z</time></trkpt><trkpt lat="45.0281683" lon="11.6419017"><ele>9.0</ele><time>2026-05-01T06:04:31.424Z</time></trkpt><trkpt lat="45.0282533" lon="11.6419183"><ele>8.6</ele><time>2026-05-01T06:04:33.421Z</time></trkpt><trkpt lat="45.028345" lon="11.6419233"><ele>8.2</ele><time>2026-05-01T06:04:35.417Z</time></trkpt><trkpt lat="45.0284417" lon="11.6419383"><ele>7.799999999999999</ele><time>2026-05-01T06:04:37.422Z</time></trkpt><trkpt lat="45.02853" lon="11.64195"><ele>7.3999999999999995</ele><time>2026-05-01T06:04:39.411Z</time></trkpt><trkpt lat="45.0286217" lon="11.6419533"><ele>7.0</ele><time>2026-05-01T06:04:41.423Z</time></trkpt><trkpt lat="45.0287183" lon="11.6419567"><ele>7.0</ele><time>2026-05-01T06:04:43.422Z</time></trkpt><trkpt lat="45.0288167" lon="11.64196"><ele>6.999999999999999</ele><time>2026-05-01T06:04:45.422Z</time></trkpt><trkpt lat="45.0289117" lon="11.6419583"><ele>6.999999999999999</ele><time>2026-05-01T06:04:47.423Z</time></trkpt><trkpt lat="45.029005" lon="11.6419567"><ele>7.0</ele><time>2026-05-01T06:04:49.417Z</time></trkpt><trkpt lat="45.0290967" lon="11.6419583"><ele>7.0</ele><time>2026-05-01T06:04:51.414Z</time></trkpt><trkpt lat="45.0291817" lon="11.6419483"><ele>7.6</ele><time>2026-05-01T06:04:53.421Z</time></trkpt><trkpt lat="45.029275" lon="11.641925"><ele>8.2</ele><time>2026-05-01T06:04:55.421Z</time></trkpt><trkpt lat="45.0293633" lon="11.6419033"><ele>8.8</ele><time>2026-05-01T06:04:57.421Z</time></trkpt><trkpt lat="45.0294567" lon="11.6418733"><ele>9.4</ele><time>2026-05-01T06:04:59.402Z</time></trkpt><trkpt lat="45.02955" lon="11.64183"><ele>10.0</ele><time>2026-05-01T06:05:01.4Z</time></trkpt><trkpt lat="45.029645" lon="11.6417667"><ele>10.0</ele><time>2026-05-01T06:05:03.414Z</time></trkpt><trkpt lat="45.029735" lon="11.641705"><ele>10.0</ele><time>2026-05-01T06:05:05.419Z</time></trkpt><trkpt lat="45.0298183" lon="11.6416383"><ele>10.0</ele><time>2026-05-01T06:05:07.42Z</time></trkpt><trkpt lat="45.029895" lon="11.6415617"><ele>10.0</ele><time>2026-05-01T06:05:09.425Z</time></trkpt><trkpt lat="45.029965" lon="11.6414783"><ele>10.0</ele><time>2026-05-01T06:05:11.424Z</time></trkpt><trkpt lat="45.0300367" lon="11.6413933"><ele>10.0</ele><time>2026-05-01T06:05:13.415Z</time></trkpt><trkpt lat="45.03011" lon="11.6413233"><ele>10.0</ele><time>2026-05-01T06:05:15.423Z</time></trkpt><trkpt lat="45.0301883" lon="11.6412733"><ele>10.0</ele><time>2026-05-01T06:05:17.424Z</time></trkpt><trkpt lat="45.0302717" lon="11.6412417"><ele>10.0</ele><time>2026-05-01T06:05:19.392Z</time></trkpt><trkpt lat="45.03035" lon="11.6412167"><ele>10.0</ele><time>2026-05-01T06:05:21.421Z</time></trkpt><trkpt lat="45.0304333" lon="11.64119"><ele>10.0</ele><time>2026-05-01T06:05:23.417Z</time></trkpt><trkpt lat="45.0305167" lon="11.64117"><ele>10.0</ele><time>2026-05-01T06:05:25.415Z</time></trkpt><trkpt lat="45.0306017" lon="11.6411683"><ele>10.0</ele><time>2026-05-01T06:05:27.416Z</time></trkpt><trkpt lat="45.030685" lon="11.6411767"><ele>10.0</ele><time>2026-05-01T06:05:29.42Z</time></trkpt><trkpt lat="45.03076" lon="11.641175"><ele>10.0</ele><time>2026-05-01T06:05:31.404Z</time></trkpt><trkpt lat="45.0308467" lon="11.6411783"><ele>10.0</ele><time>2026-05-01T06:05:33.421Z</time></trkpt><trkpt lat="45.0309317" lon="11.6411833"><ele>10.0</ele><time>2026-05-01T06:05:35.416Z</time></trkpt><trkpt lat="45.0310233" lon="11.6412067"><ele>10.0</ele><time>2026-05-01T06:05:37.427Z</time></trkpt><trkpt lat="45.0311117" lon="11.6412317"><ele>10.0</ele><time>2026-05-01T06:05:39.417Z</time></trkpt><trkpt lat="45.031195" lon="11.6412617"><ele>10.0</ele><time>2026-05-01T06:05:41.417Z</time></trkpt><trkpt lat="45.0312817" lon="11.6412783"><ele>10.0</ele><time>2026-05-01T06:05:43.392Z</time></trkpt><trkpt lat="45.0313717" lon="11.6412917"><ele>10.0</ele><time>2026-05-01T06:05:45.421Z</time></trkpt><trkpt lat="45.0314633" lon="11.6412917"><ele>10.0</ele><time>2026-05-01T06:05:47.418Z</time></trkpt><trkpt lat="45.0315533" lon="11.6413033"><ele>10.0</ele><time>2026-05-01T06:05:49.419Z</time></trkpt><trkpt lat="45.0316433" lon="11.6413133"><ele>10.0</ele><time>2026-05-01T06:05:51.421Z</time></trkpt><trkpt lat="45.0317233" lon="11.6413217"><ele>10.0</ele><time>2026-05-01T06:05:53.411Z</time></trkpt><trkpt lat="45.031815" lon="11.64134"><ele>10.0</ele><time>2026-05-01T06:05:55.414Z</time></trkpt><trkpt lat="45.031905" lon="11.6413767"><ele>10.0</ele><time>2026-05-01T06:05:57.423Z</time></trkpt><trkpt lat="45.0319917" lon="11.64141"><ele>10.0</ele><time>2026-05-01T06:05:59.419Z</time></trkpt><trkpt lat="45.032075" lon="11.6414433"><ele>10.0</ele><time>2026-05-01T06:06:01.42Z</time></trkpt><trkpt lat="45.0321683" lon="11.6414567"><ele>10.0</ele><time>2026-05-01T06:06:03.413Z</time></trkpt><trkpt lat="45.0322483" lon="11.641495"><ele>10.0</ele><time>2026-05-01T06:06:05.423Z</time></trkpt><trkpt lat="45.0323267" lon="11.641525"><ele>10.0</ele><time>2026-05-01T06:06:07.411Z</time></trkpt><trkpt lat="45.0324183" lon="11.64155"><ele>10.0</ele><time>2026-05-01T06:06:09.423Z</time></trkpt><trkpt lat="45.032505" lon="11.6415733"><ele>10.0</ele><time>2026-05-01T06:06:11.423Z</time></trkpt><trkpt lat="45.032595" lon="11.6415883"><ele>9.833333333333334</ele><time>2026-05-01T06:06:13.396Z</time></trkpt><trkpt lat="45.032685" lon="11.6415983"><ele>9.666666666666668</ele><time>2026-05-01T06:06:15.401Z</time></trkpt><trkpt lat="45.0327633" lon="11.6416083"><ele>9.5</ele><time>2026-05-01T06:06:17.391Z</time></trkpt><trkpt lat="45.03284" lon="11.6415767"><ele>9.333333333333334</ele><time>2026-05-01T06:06:19.419Z</time></trkpt><trkpt lat="45.03293" lon="11.6415433"><ele>9.166666666666666</ele><time>2026-05-01T06:06:21.407Z</time></trkpt><trkpt lat="45.033025" lon="11.6414983"><ele>9.0</ele><time>2026-05-01T06:06:23.391Z</time></trkpt><trkpt lat="45.0331183" lon="11.6414733"><ele>9.0</ele><time>2026-05-01T06:06:25.402Z</time></trkpt><trkpt lat="45.0332067" lon="11.6414767"><ele>9.0</ele><time>2026-05-01T06:06:27.405Z</time></trkpt><trkpt lat="45.0333" lon="11.6414783"><ele>9.0</ele><time>2026-05-01T06:06:29.388Z</time></trkpt><trkpt lat="45.03341" lon="11.6414967"><ele>9.0</ele><time>2026-05-01T06:06:31.409Z</time></trkpt><trkpt lat="45.033465" lon="11.6415483"><ele>9.0</ele><time>2026-05-01T06:06:32.421Z</time></trkpt><trkpt lat="45.0335133" lon="11.6416117"><ele>9.0</ele><time>2026-05-01T06:06:33.419Z</time></trkpt><trkpt lat="45.0335583" lon="11.6417667"><ele>8.833333333333334</ele><time>2026-05-01T06:06:35.423Z</time></trkpt><trkpt lat="45.033565" lon="11.641865"><ele>8.666666666666666</ele><time>2026-05-01T06:06:36.425Z</time></trkpt><trkpt lat="45.0335633" lon="11.6419617"><ele>8.5</ele><time>2026-05-01T06:06:37.414Z</time></trkpt><trkpt lat="45.0335583" lon="11.6420517"><ele>8.333333333333332</ele><time>2026-05-01T06:06:38.422Z</time></trkpt><trkpt lat="45.0335533" lon="11.6422217"><ele>8.166666666666666</ele><time>2026-05-01T06:06:40.418Z</time></trkpt><trkpt lat="45.0335417" lon="11.6423683"><ele>8.0</ele><time>2026-05-01T06:06:42.404Z</time></trkpt><trkpt lat="45.03353" lon="11.64251"><ele>7.6000000000000005</ele><time>2026-05-01T06:06:44.396Z</time></trkpt><trkpt lat="45.0335167" lon="11.6426567"><ele>7.200000000000001</ele><time>2026-05-01T06:06:46.418Z</time></trkpt><trkpt lat="45.0335067" lon="11.6427833"><ele>6.8</ele><time>2026-05-01T06:06:48.408Z</time></trkpt><trkpt lat="45.0335067" lon="11.642925"><ele>6.4</ele><time>2026-05-01T06:06:50.424Z</time></trkpt><trkpt lat="45.0335083" lon="11.6430833"><ele>6.0</ele><time>2026-05-01T06:06:52.409Z</time></trkpt><trkpt lat="45.0335083" lon="11.6432417"><ele>5.8</ele><time>2026-05-01T06:06:54.409Z</time></trkpt><trkpt lat="45.0335083" lon="11.64339"><ele>5.6</ele><time>2026-05-01T06:06:56.387Z</time></trkpt><trkpt lat="45.03351" lon="11.6435333"><ele>5.4</ele><time>2026-05-01T06:06:58.412Z</time></trkpt><trkpt lat="45.0335083" lon="11.6436717"><ele>5.2</ele><time>2026-05-01T06:07:00.429Z</time></trkpt><trkpt lat="45.0335" lon="11.643825"><ele>5.0</ele><time>2026-05-01T06:07:02.421Z</time></trkpt><trkpt lat="45.033505" lon="11.64399"><ele>4.8</ele><time>2026-05-01T06:07:04.414Z</time></trkpt><trkpt lat="45.0334817" lon="11.644135"><ele>4.6</ele><time>2026-05-01T06:07:06.423Z</time></trkpt><trkpt lat="45.0334717" lon="11.6442867"><ele>4.4</ele><time>2026-05-01T06:07:08.425Z</time></trkpt><trkpt lat="45.0334667" lon="11.64444"><ele>4.2</ele><time>2026-05-01T06:07:10.424Z</time></trkpt><trkpt lat="45.03346" lon="11.6445917"><ele>4.0</ele><time>2026-05-01T06:07:12.426Z</time></trkpt><trkpt lat="45.0334533" lon="11.6447433"><ele>4.0</ele><time>2026-05-01T06:07:14.397Z</time></trkpt><trkpt lat="45.033445" lon="11.6448967"><ele>4.0</ele><time>2026-05-01T06:07:16.421Z</time></trkpt><trkpt lat="45.033435" lon="11.6450517"><ele>4.0</ele><time>2026-05-01T06:07:18.423Z</time></trkpt><trkpt lat="45.0334233" lon="11.645205"><ele>4.0</ele><time>2026-05-01T06:07:20.418Z</time></trkpt><trkpt lat="45.0334133" lon="11.645355"><ele>4.0</ele><time>2026-05-01T06:07:22.42Z</time></trkpt><trkpt lat="45.033405" lon="11.645505"><ele>3.8000000000000003</ele><time>2026-05-01T06:07:24.419Z</time></trkpt><trkpt lat="45.0334017" lon="11.6456533"><ele>3.6000000000000005</ele><time>2026-05-01T06:07:26.424Z</time></trkpt><trkpt lat="45.033395" lon="11.6457967"><ele>3.4</ele><time>2026-05-01T06:07:28.425Z</time></trkpt><trkpt lat="45.0333917" lon="11.645945"><ele>3.2</ele><time>2026-05-01T06:07:30.403Z</time></trkpt><trkpt lat="45.0333883" lon="11.6460883"><ele>3.0</ele><time>2026-05-01T06:07:32.426Z</time></trkpt><trkpt lat="45.0333833" lon="11.6462267"><ele>3.0</ele><time>2026-05-01T06:07:34.404Z</time></trkpt><trkpt lat="45.0333767" lon="11.64638"><ele>3.0</ele><time>2026-05-01T06:07:36.417Z</time></trkpt><trkpt lat="45.0333717" lon="11.6465267"><ele>3.0</ele><time>2026-05-01T06:07:38.423Z</time></trkpt><trkpt lat="45.0333667" lon="11.6466767"><ele>3.0</ele><time>2026-05-01T06:07:40.424Z</time></trkpt><trkpt lat="45.0333633" lon="11.6468233"><ele>3.0</ele><time>2026-05-01T06:07:42.418Z</time></trkpt><trkpt lat="45.0333667" lon="11.6469583"><ele>3.4</ele><time>2026-05-01T06:07:44.421Z</time></trkpt><trkpt lat="45.033365" lon="11.647085"><ele>3.8</ele><time>2026-05-01T06:07:46.423Z</time></trkpt><trkpt lat="45.0333583" lon="11.6472167"><ele>4.2</ele><time>2026-05-01T06:07:48.427Z</time></trkpt><trkpt lat="45.0333583" lon="11.6473633"><ele>4.6</ele><time>2026-05-01T06:07:50.421Z</time></trkpt><trkpt lat="45.0333633" lon="11.6475083"><ele>5.0</ele><time>2026-05-01T06:07:52.394Z</time></trkpt><trkpt lat="45.0333817" lon="11.6476517"><ele>5.0</ele><time>2026-05-01T06:07:54.432Z</time></trkpt><trkpt lat="45.0333933" lon="11.6477833"><ele>5.0</ele><time>2026-05-01T06:07:56.425Z</time></trkpt><trkpt lat="45.033405" lon="11.6479167"><ele>5.0</ele><time>2026-05-01T06:07:58.424Z</time></trkpt><trkpt lat="45.03341" lon="11.6480933"><ele>5.0</ele><time>2026-05-01T06:08:00.425Z</time></trkpt><trkpt lat="45.033415" lon="11.648235"><ele>5.0</ele><time>2026-05-01T06:08:02.43Z</time></trkpt><trkpt lat="45.0334167" lon="11.6483767"><ele>5.2</ele><time>2026-05-01T06:08:04.427Z</time></trkpt><trkpt lat="45.0333983" lon="11.648515"><ele>5.4</ele><time>2026-05-01T06:08:06.423Z</time></trkpt><trkpt lat="45.0333817" lon="11.6486533"><ele>5.6</ele><time>2026-05-01T06:08:08.427Z</time></trkpt><trkpt lat="45.0333633" lon="11.6487967"><ele>5.8</ele><time>2026-05-01T06:08:10.416Z</time></trkpt><trkpt lat="45.0333583" lon="11.6489417"><ele>6.0</ele><time>2026-05-01T06:08:12.427Z</time></trkpt><trkpt lat="45.0333433" lon="11.6490817"><ele>5.6</ele><time>2026-05-01T06:08:14.409Z</time></trkpt><trkpt lat="45.0333317" lon="11.6492283"><ele>5.199999999999999</ele><time>2026-05-01T06:08:16.425Z</time></trkpt><trkpt lat="45.03333" lon="11.6493667"><ele>4.800000000000001</ele><time>2026-05-01T06:08:18.422Z</time></trkpt><trkpt lat="45.0333367" lon="11.6495117"><ele>4.4</ele><time>2026-05-01T06:08:20.424Z</time></trkpt><trkpt lat="45.0333467" lon="11.649655"><ele>4.0</ele><time>2026-05-01T06:08:22.417Z</time></trkpt><trkpt lat="45.0333683" lon="11.649795"><ele>4.0</ele><time>2026-05-01T06:08:24.4Z</time></trkpt><trkpt lat="45.0333933" lon="11.64992"><ele>4.0</ele><time>2026-05-01T06:08:26.426Z</time></trkpt><trkpt lat="45.0334233" lon="11.6500433"><ele>4.0</ele><time>2026-05-01T06:08:28.422Z</time></trkpt><trkpt lat="45.033465" lon="11.6501683"><ele>4.0</ele><time>2026-05-01T06:08:30.425Z</time></trkpt><trkpt lat="45.0335067" lon="11.6502883"><ele>4.0</ele><time>2026-05-01T06:08:32.423Z</time></trkpt><trkpt lat="45.033545" lon="11.6504067"><ele>3.833333333333333</ele><time>2026-05-01T06:08:34.423Z</time></trkpt><trkpt lat="45.03357" lon="11.6505183"><ele>3.6666666666666665</ele><time>2026-05-01T06:08:36.424Z</time></trkpt><trkpt lat="45.0335733" lon="11.65061"><ele>3.5</ele><time>2026-05-01T06:08:38.434Z</time></trkpt><trkpt lat="45.0335917" lon="11.6507133"><ele>3.333333333333333</ele><time>2026-05-01T06:08:41.405Z</time></trkpt><trkpt lat="45.03366" lon="11.650805"><ele>3.1666666666666665</ele><time>2026-05-01T06:08:44.42Z</time></trkpt><trkpt lat="45.033735" lon="11.6508267"><ele>3.0</ele><time>2026-05-01T06:08:46.421Z</time></trkpt><trkpt lat="45.03382" lon="11.6508333"><ele>3.0</ele><time>2026-05-01T06:08:48.404Z</time></trkpt><trkpt lat="45.0339017" lon="11.6508417"><ele>3.0</ele><time>2026-05-01T06:08:50.394Z</time></trkpt><trkpt lat="45.0339883" lon="11.6508517"><ele>3.0</ele><time>2026-05-01T06:08:52.415Z</time></trkpt><trkpt lat="45.0340783" lon="11.6508583"><ele>3.0</ele><time>2026-05-01T06:08:54.412Z</time></trkpt><trkpt lat="45.03418" lon="11.65087"><ele>3.0</ele><time>2026-05-01T06:08:56.419Z</time></trkpt><trkpt lat="45.03428" lon="11.6508733"><ele>3.2</ele><time>2026-05-01T06:08:58.393Z</time></trkpt><trkpt lat="45.03438" lon="11.6508783"><ele>3.4</ele><time>2026-05-01T06:09:00.413Z</time></trkpt><trkpt lat="45.0344783" lon="11.65088"><ele>3.6000000000000005</ele><time>2026-05-01T06:09:02.406Z</time></trkpt><trkpt lat="45.034585" lon="11.6508833"><ele>3.8000000000000003</ele><time>2026-05-01T06:09:04.406Z</time></trkpt><trkpt lat="45.0346767" lon="11.650885"><ele>4.0</ele><time>2026-05-01T06:09:06.411Z</time></trkpt><trkpt lat="45.034775" lon="11.6508833"><ele>4.0</ele><time>2026-05-01T06:09:08.42Z</time></trkpt><trkpt lat="45.0348733" lon="11.6508867"><ele>4.0</ele><time>2026-05-01T06:09:10.42Z</time></trkpt><trkpt lat="45.0349633" lon="11.650905"><ele>4.0</ele><time>2026-05-01T06:09:12.419Z</time></trkpt><trkpt lat="45.0350567" lon="11.6509167"><ele>4.0</ele><time>2026-05-01T06:09:14.393Z</time></trkpt><trkpt lat="45.03515" lon="11.6509233"><ele>4.0</ele><time>2026-05-01T06:09:16.424Z</time></trkpt><trkpt lat="45.0352433" lon="11.6509317"><ele>3.8000000000000003</ele><time>2026-05-01T06:09:18.41Z</time></trkpt><trkpt lat="45.03534" lon="11.6509333"><ele>3.6000000000000005</ele><time>2026-05-01T06:09:20.403Z</time></trkpt><trkpt lat="45.035435" lon="11.65094"><ele>3.4</ele><time>2026-05-01T06:09:22.42Z</time></trkpt><trkpt lat="45.0355317" lon="11.6509483"><ele>3.2</ele><time>2026-05-01T06:09:24.407Z</time></trkpt><trkpt lat="45.0356283" lon="11.6509567"><ele>3.0</ele><time>2026-05-01T06:09:26.427Z</time></trkpt><trkpt lat="45.0357233" lon="11.6509683"><ele>3.0</ele><time>2026-05-01T06:09:28.425Z</time></trkpt><trkpt lat="45.0358167" lon="11.6509883"><ele>3.0</ele><time>2026-05-01T06:09:30.407Z</time></trkpt><trkpt lat="45.0359117" lon="11.6510133"><ele>3.0</ele><time>2026-05-01T06:09:32.426Z</time></trkpt><trkpt lat="45.0360033" lon="11.65104"><ele>3.0</ele><time>2026-05-01T06:09:34.422Z</time></trkpt><trkpt lat="45.0360983" lon="11.65107"><ele>3.0</ele><time>2026-05-01T06:09:36.426Z</time></trkpt><trkpt lat="45.0361933" lon="11.651105"><ele>3.2</ele><time>2026-05-01T06:09:38.422Z</time></trkpt><trkpt lat="45.0362833" lon="11.6511383"><ele>3.4</ele><time>2026-05-01T06:09:40.405Z</time></trkpt><trkpt lat="45.03638" lon="11.6511767"><ele>3.6000000000000005</ele><time>2026-05-01T06:09:42.428Z</time></trkpt><trkpt lat="45.03647" lon="11.6512133"><ele>3.8000000000000003</ele><time>2026-05-01T06:09:44.413Z</time></trkpt><trkpt lat="45.036555" lon="11.6512417"><ele>4.0</ele><time>2026-05-01T06:09:46.39Z</time></trkpt><trkpt lat="45.0366417" lon="11.6512767"><ele>4.0</ele><time>2026-05-01T06:09:48.427Z</time></trkpt><trkpt lat="45.0367317" lon="11.6513183"><ele>4.0</ele><time>2026-05-01T06:09:50.404Z</time></trkpt><trkpt lat="45.0368267" lon="11.65136"><ele>4.0</ele><time>2026-05-01T06:09:52.411Z</time></trkpt><trkpt lat="45.03692" lon="11.6514017"><ele>4.0</ele><time>2026-05-01T06:09:54.423Z</time></trkpt><trkpt lat="45.0370183" lon="11.6514467"><ele>4.0</ele><time>2026-05-01T06:09:56.396Z</time></trkpt><trkpt lat="45.0371233" lon="11.6514933"><ele>4.0</ele><time>2026-05-01T06:09:58.425Z</time></trkpt><trkpt lat="45.0372317" lon="11.6515367"><ele>4.0</ele><time>2026-05-01T06:10:00.417Z</time></trkpt><trkpt lat="45.0373417" lon="11.6515767"><ele>4.0</ele><time>2026-05-01T06:10:02.422Z</time></trkpt><trkpt lat="45.037405" lon="11.6516"><ele>4.0</ele><time>2026-05-01T06:10:03.422Z</time></trkpt><trkpt lat="45.0375067" lon="11.6516533"><ele>4.0</ele><time>2026-05-01T06:10:05.401Z</time></trkpt><trkpt lat="45.0375967" lon="11.6516883"><ele>4.0</ele><time>2026-05-01T06:10:07.421Z</time></trkpt><trkpt lat="45.0377" lon="11.65173"><ele>4.0</ele><time>2026-05-01T06:10:09.422Z</time></trkpt><trkpt lat="45.0377917" lon="11.6517867"><ele>4.0</ele><time>2026-05-01T06:10:11.421Z</time></trkpt><trkpt lat="45.0378817" lon="11.6518333"><ele>4.0</ele><time>2026-05-01T06:10:13.421Z</time></trkpt><trkpt lat="45.0379633" lon="11.6518833"><ele>4.0</ele><time>2026-05-01T06:10:15.422Z</time></trkpt><trkpt lat="45.0380467" lon="11.65192"><ele>4.0</ele><time>2026-05-01T06:10:17.426Z</time></trkpt><trkpt lat="45.038125" lon="11.6519933"><ele>4.0</ele><time>2026-05-01T06:10:19.424Z</time></trkpt><trkpt lat="45.0381967" lon="11.65208"><ele>4.0</ele><time>2026-05-01T06:10:21.421Z</time></trkpt><trkpt lat="45.0382667" lon="11.65216"><ele>4.0</ele><time>2026-05-01T06:10:23.417Z</time></trkpt><trkpt lat="45.0383383" lon="11.65223"><ele>4.0</ele><time>2026-05-01T06:10:25.419Z</time></trkpt><trkpt lat="45.0384117" lon="11.6523083"><ele>3.9999999999999996</ele><time>2026-05-01T06:10:27.42Z</time></trkpt><trkpt lat="45.0384817" lon="11.6523883"><ele>4.0</ele><time>2026-05-01T06:10:29.421Z</time></trkpt><trkpt lat="45.0385483" lon="11.6524767"><ele>4.0</ele><time>2026-05-01T06:10:31.421Z</time></trkpt><trkpt lat="45.0386117" lon="11.652565"><ele>4.0</ele><time>2026-05-01T06:10:33.4Z</time></trkpt><trkpt lat="45.0386733" lon="11.65265"><ele>3.9999999999999996</ele><time>2026-05-01T06:10:35.419Z</time></trkpt><trkpt lat="45.038735" lon="11.6527433"><ele>4.0</ele><time>2026-05-01T06:10:37.417Z</time></trkpt><trkpt lat="45.0387983" lon="11.6528333"><ele>3.9999999999999996</ele><time>2026-05-01T06:10:39.427Z</time></trkpt><trkpt lat="45.0388617" lon="11.6529267"><ele>4.0</ele><time>2026-05-01T06:10:41.417Z</time></trkpt><trkpt lat="45.0389217" lon="11.65302"><ele>4.0</ele><time>2026-05-01T06:10:43.423Z</time></trkpt><trkpt lat="45.03898" lon="11.6531133"><ele>4.0</ele><time>2026-05-01T06:10:45.424Z</time></trkpt><trkpt lat="45.0390283" lon="11.6532183"><ele>3.9999999999999996</ele><time>2026-05-01T06:10:47.428Z</time></trkpt><trkpt lat="45.0390667" lon="11.6533367"><ele>4.0</ele><time>2026-05-01T06:10:49.423Z</time></trkpt><trkpt lat="45.0390983" lon="11.65346"><ele>4.0</ele><time>2026-05-01T06:10:51.426Z</time></trkpt><trkpt lat="45.0391233" lon="11.6535883"><ele>4.0</ele><time>2026-05-01T06:10:53.425Z</time></trkpt><trkpt lat="45.0391483" lon="11.6537183"><ele>4.0</ele><time>2026-05-01T06:10:55.416Z</time></trkpt><trkpt lat="45.0391667" lon="11.6538467"><ele>4.0</ele><time>2026-05-01T06:10:57.426Z</time></trkpt><trkpt lat="45.03918" lon="11.6539767"><ele>4.0</ele><time>2026-05-01T06:10:59.419Z</time></trkpt><trkpt lat="45.0391933" lon="11.6541133"><ele>4.0</ele><time>2026-05-01T06:11:01.418Z</time></trkpt><trkpt lat="45.0392083" lon="11.6542483"><ele>4.0</ele><time>2026-05-01T06:11:03.425Z</time></trkpt><trkpt lat="45.039225" lon="11.6543867"><ele>4.0</ele><time>2026-05-01T06:11:05.417Z</time></trkpt><trkpt lat="45.0392333" lon="11.6545267"><ele>4.0</ele><time>2026-05-01T06:11:07.423Z</time></trkpt><trkpt lat="45.039235" lon="11.6546583"><ele>4.0</ele><time>2026-05-01T06:11:09.422Z</time></trkpt><trkpt lat="45.0392367" lon="11.6547817"><ele>4.0</ele><time>2026-05-01T06:11:11.423Z</time></trkpt><trkpt lat="45.0392367" lon="11.6549083"><ele>4.0</ele><time>2026-05-01T06:11:13.424Z</time></trkpt><trkpt lat="45.0392417" lon="11.6550433"><ele>4.0</ele><time>2026-05-01T06:11:15.422Z</time></trkpt><trkpt lat="45.0392517" lon="11.655175"><ele>4.0</ele><time>2026-05-01T06:11:17.424Z</time></trkpt><trkpt lat="45.039265" lon="11.65531"><ele>4.0</ele><time>2026-05-01T06:11:19.392Z</time></trkpt><trkpt lat="45.0392833" lon="11.65545"><ele>3.8000000000000003</ele><time>2026-05-01T06:11:21.411Z</time></trkpt><trkpt lat="45.0392983" lon="11.6555883"><ele>3.6000000000000005</ele><time>2026-05-01T06:11:23.426Z</time></trkpt><trkpt lat="45.0393167" lon="11.6557217"><ele>3.4</ele><time>2026-05-01T06:11:25.433Z</time></trkpt><trkpt lat="45.0393367" lon="11.6558517"><ele>3.2</ele><time>2026-05-01T06:11:27.406Z</time></trkpt><trkpt lat="45.039355" lon="11.6559817"><ele>3.0</ele><time>2026-05-01T06:11:29.423Z</time></trkpt><trkpt lat="45.0393733" lon="11.6561067"><ele>3.4</ele><time>2026-05-01T06:11:31.427Z</time></trkpt><trkpt lat="45.0393917" lon="11.6562267"><ele>3.8</ele><time>2026-05-01T06:11:33.418Z</time></trkpt><trkpt lat="45.0394083" lon="11.6563517"><ele>4.2</ele><time>2026-05-01T06:11:35.422Z</time></trkpt><trkpt lat="45.0394233" lon="11.6564817"><ele>4.6</ele><time>2026-05-01T06:11:37.426Z</time></trkpt><trkpt lat="45.0394383" lon="11.6566083"><ele>5.0</ele><time>2026-05-01T06:11:39.427Z</time></trkpt><trkpt lat="45.0394567" lon="11.656735"><ele>5.0</ele><time>2026-05-01T06:11:41.423Z</time></trkpt><trkpt lat="45.039475" lon="11.6568667"><ele>5.0</ele><time>2026-05-01T06:11:43.425Z</time></trkpt><trkpt lat="45.0394933" lon="11.657"><ele>5.0</ele><time>2026-05-01T06:11:45.426Z</time></trkpt><trkpt lat="45.0395083" lon="11.6571317"><ele>5.0</ele><time>2026-05-01T06:11:47.426Z</time></trkpt><trkpt lat="45.0395233" lon="11.65726"><ele>5.0</ele><time>2026-05-01T06:11:49.421Z</time></trkpt><trkpt lat="45.039535" lon="11.657385"><ele>4.8</ele><time>2026-05-01T06:11:51.426Z</time></trkpt><trkpt lat="45.0395467" lon="11.6575167"><ele>4.6</ele><time>2026-05-01T06:11:53.427Z</time></trkpt><trkpt lat="45.03956" lon="11.6576433"><ele>4.4</ele><time>2026-05-01T06:11:55.41Z</time></trkpt><trkpt lat="45.0395733" lon="11.6577683"><ele>4.2</ele><time>2026-05-01T06:11:57.421Z</time></trkpt><trkpt lat="45.0395833" lon="11.657895"><ele>4.0</ele><time>2026-05-01T06:11:59.423Z</time></trkpt><trkpt lat="45.03959" lon="11.65803"><ele>4.0</ele><time>2026-05-01T06:12:01.42Z</time></trkpt><trkpt lat="45.0395983" lon="11.6581567"><ele>4.0</ele><time>2026-05-01T06:12:03.426Z</time></trkpt><trkpt lat="45.0396083" lon="11.6582817"><ele>4.0</ele><time>2026-05-01T06:12:05.417Z</time></trkpt><trkpt lat="45.0396167" lon="11.6584117"><ele>4.0</ele><time>2026-05-01T06:12:07.425Z</time></trkpt><trkpt lat="45.039625" lon="11.6585417"><ele>4.0</ele><time>2026-05-01T06:12:09.421Z</time></trkpt><trkpt lat="45.0396333" lon="11.65867"><ele>4.0</ele><time>2026-05-01T06:12:11.426Z</time></trkpt><trkpt lat="45.039645" lon="11.6588017"><ele>4.0</ele><time>2026-05-01T06:12:13.423Z</time></trkpt><trkpt lat="45.0396533" lon="11.6589383"><ele>4.0</ele><time>2026-05-01T06:12:15.427Z</time></trkpt><trkpt lat="45.0396617" lon="11.6590767"><ele>4.0</ele><time>2026-05-01T06:12:17.425Z</time></trkpt><trkpt lat="45.0396717" lon="11.6592067"><ele>4.0</ele><time>2026-05-01T06:12:19.418Z</time></trkpt><trkpt lat="45.0396817" lon="11.6593383"><ele>4.0</ele><time>2026-05-01T06:12:21.427Z</time></trkpt><trkpt lat="45.0396867" lon="11.6594683"><ele>4.0</ele><time>2026-05-01T06:12:23.424Z</time></trkpt><trkpt lat="45.0397017" lon="11.6596"><ele>4.0</ele><time>2026-05-01T06:12:25.422Z</time></trkpt><trkpt lat="45.0397183" lon="11.659725"><ele>4.0</ele><time>2026-05-01T06:12:27.422Z</time></trkpt><trkpt lat="45.0397417" lon="11.6598567"><ele>4.0</ele><time>2026-05-01T06:12:29.421Z</time></trkpt><trkpt lat="45.03978" lon="11.65998"><ele>4.0</ele><time>2026-05-01T06:12:31.42Z</time></trkpt><trkpt lat="45.03984" lon="11.6600917"><ele>4.0</ele><time>2026-05-01T06:12:33.424Z</time></trkpt><trkpt lat="45.0399167" lon="11.6601783"><ele>4.0</ele><time>2026-05-01T06:12:35.421Z</time></trkpt><trkpt lat="45.0400083" lon="11.66024"><ele>4.0</ele><time>2026-05-01T06:12:37.423Z</time></trkpt><trkpt lat="45.040105" lon="11.6602717"><ele>4.0</ele><time>2026-05-01T06:12:39.419Z</time></trkpt><trkpt lat="45.0402033" lon="11.660275"><ele>4.2</ele><time>2026-05-01T06:12:41.426Z</time></trkpt><trkpt lat="45.0403017" lon="11.6602783"><ele>4.4</ele><time>2026-05-01T06:12:43.419Z</time></trkpt><trkpt lat="45.0404067" lon="11.6602817"><ele>4.6</ele><time>2026-05-01T06:12:45.421Z</time></trkpt><trkpt lat="45.0405017" lon="11.6602783"><ele>4.8</ele><time>2026-05-01T06:12:47.42Z</time></trkpt><trkpt lat="45.0405983" lon="11.6602783"><ele>5.0</ele><time>2026-05-01T06:12:49.422Z</time></trkpt><trkpt lat="45.0406967" lon="11.6602817"><ele>5.0</ele><time>2026-05-01T06:12:51.423Z</time></trkpt><trkpt lat="45.0407867" lon="11.6602783"><ele>5.0</ele><time>2026-05-01T06:12:53.422Z</time></trkpt><trkpt lat="45.0408767" lon="11.6602767"><ele>5.0</ele><time>2026-05-01T06:12:55.424Z</time></trkpt><trkpt lat="45.0409683" lon="11.6602783"><ele>5.0</ele><time>2026-05-01T06:12:57.423Z</time></trkpt><trkpt lat="45.041065" lon="11.6602833"><ele>5.0</ele><time>2026-05-01T06:12:59.423Z</time></trkpt><trkpt lat="45.0411717" lon="11.6602883"><ele>5.0</ele><time>2026-05-01T06:13:01.424Z</time></trkpt><trkpt lat="45.04127" lon="11.6602917"><ele>5.0</ele><time>2026-05-01T06:13:03.418Z</time></trkpt><trkpt lat="45.0413633" lon="11.660295"><ele>5.0</ele><time>2026-05-01T06:13:05.425Z</time></trkpt><trkpt lat="45.04146" lon="11.6603"><ele>5.0</ele><time>2026-05-01T06:13:07.418Z</time></trkpt><trkpt lat="45.04156" lon="11.6603167"><ele>5.0</ele><time>2026-05-01T06:13:09.407Z</time></trkpt><trkpt lat="45.04165" lon="11.6603567"><ele>5.0</ele><time>2026-05-01T06:13:11.426Z</time></trkpt><trkpt lat="45.0417433" lon="11.66043"><ele>5.0</ele><time>2026-05-01T06:13:13.424Z</time></trkpt><trkpt lat="45.0418117" lon="11.66053"><ele>5.0</ele><time>2026-05-01T06:13:15.422Z</time></trkpt><trkpt lat="45.0418483" lon="11.6606483"><ele>5.0</ele><time>2026-05-01T06:13:17.427Z</time></trkpt><trkpt lat="45.0418617" lon="11.6607733"><ele>5.0</ele><time>2026-05-01T06:13:19.429Z</time></trkpt><trkpt lat="45.0418517" lon="11.660905"><ele>5.0</ele><time>2026-05-01T06:13:21.39Z</time></trkpt><trkpt lat="45.0418333" lon="11.661035"><ele>5.0</ele><time>2026-05-01T06:13:23.416Z</time></trkpt><trkpt lat="45.041815" lon="11.6611667"><ele>5.0</ele><time>2026-05-01T06:13:25.416Z</time></trkpt><trkpt lat="45.0417967" lon="11.6613067"><ele>5.0</ele><time>2026-05-01T06:13:27.422Z</time></trkpt><trkpt lat="45.0417833" lon="11.6614517"><ele>5.0</ele><time>2026-05-01T06:13:29.426Z</time></trkpt><trkpt lat="45.04178" lon="11.661595"><ele>5.0</ele><time>2026-05-01T06:13:31.428Z</time></trkpt><trkpt lat="45.0417867" lon="11.661735"><ele>5.0</ele><time>2026-05-01T06:13:33.426Z</time></trkpt><trkpt lat="45.0417983" lon="11.66187"><ele>5.0</ele><time>2026-05-01T06:13:35.422Z</time></trkpt><trkpt lat="45.04181" lon="11.6620067"><ele>5.0</ele><time>2026-05-01T06:13:37.423Z</time></trkpt><trkpt lat="45.041825" lon="11.6621433"><ele>5.0</ele><time>2026-05-01T06:13:39.425Z</time></trkpt><trkpt lat="45.0418367" lon="11.66228"><ele>5.0</ele><time>2026-05-01T06:13:41.416Z</time></trkpt><trkpt lat="45.041835" lon="11.6624133"><ele>5.0</ele><time>2026-05-01T06:13:43.424Z</time></trkpt><trkpt lat="45.0418267" lon="11.6625467"><ele>5.0</ele><time>2026-05-01T06:13:45.423Z</time></trkpt><trkpt lat="45.0418117" lon="11.6626783"><ele>5.0</ele><time>2026-05-01T06:13:47.418Z</time></trkpt><trkpt lat="45.0417933" lon="11.662805"><ele>5.0</ele><time>2026-05-01T06:13:49.418Z</time></trkpt><trkpt lat="45.0417733" lon="11.66293"><ele>4.8</ele><time>2026-05-01T06:13:51.424Z</time></trkpt><trkpt lat="45.0417517" lon="11.66306"><ele>4.6</ele><time>2026-05-01T06:13:53.42Z</time></trkpt><trkpt lat="45.0417317" lon="11.6631917"><ele>4.4</ele><time>2026-05-01T06:13:55.413Z</time></trkpt><trkpt lat="45.0417083" lon="11.6633267"><ele>4.2</ele><time>2026-05-01T06:13:57.42Z</time></trkpt><trkpt lat="45.0416783" lon="11.66346"><ele>4.0</ele><time>2026-05-01T06:13:59.413Z</time></trkpt><trkpt lat="45.0416383" lon="11.6635917"><ele>3.6</ele><time>2026-05-01T06:14:01.428Z</time></trkpt><trkpt lat="45.0415883" lon="11.6637217"><ele>3.2</ele><time>2026-05-01T06:14:03.421Z</time></trkpt><trkpt lat="45.0415333" lon="11.6638417"><ele>2.8000000000000003</ele><time>2026-05-01T06:14:05.423Z</time></trkpt><trkpt lat="45.0414817" lon="11.663955"><ele>2.4000000000000004</ele><time>2026-05-01T06:14:07.42Z</time></trkpt><trkpt lat="45.0414317" lon="11.664075"><ele>2.0</ele><time>2026-05-01T06:14:09.425Z</time></trkpt><trkpt lat="45.0413833" lon="11.664195"><ele>2.0</ele><time>2026-05-01T06:14:11.421Z</time></trkpt><trkpt lat="45.0413433" lon="11.6643117"><ele>2.0</ele><time>2026-05-01T06:14:13.417Z</time></trkpt><trkpt lat="45.0413117" lon="11.664435"><ele>2.0</ele><time>2026-05-01T06:14:15.419Z</time></trkpt><trkpt lat="45.0412817" lon="11.664565"><ele>2.0</ele><time>2026-05-01T06:14:17.424Z</time></trkpt><trkpt lat="45.04126" lon="11.664695"><ele>2.0</ele><time>2026-05-01T06:14:19.418Z</time></trkpt><trkpt lat="45.0412383" lon="11.6648317"><ele>2.2</ele><time>2026-05-01T06:14:21.422Z</time></trkpt><trkpt lat="45.0412167" lon="11.6649683"><ele>2.4000000000000004</ele><time>2026-05-01T06:14:23.423Z</time></trkpt><trkpt lat="45.0412067" lon="11.6651033"><ele>2.5999999999999996</ele><time>2026-05-01T06:14:25.424Z</time></trkpt><trkpt lat="45.041195" lon="11.6652417"><ele>2.8</ele><time>2026-05-01T06:14:27.422Z</time></trkpt><trkpt lat="45.0411917" lon="11.6653767"><ele>3.0</ele><time>2026-05-01T06:14:29.423Z</time></trkpt><trkpt lat="45.0411883" lon="11.66551"><ele>3.0</ele><time>2026-05-01T06:14:31.424Z</time></trkpt><trkpt lat="45.04118" lon="11.66565"><ele>3.0</ele><time>2026-05-01T06:14:33.422Z</time></trkpt><trkpt lat="45.0411733" lon="11.6657933"><ele>3.0</ele><time>2026-05-01T06:14:35.421Z</time></trkpt><trkpt lat="45.0411683" lon="11.6659333"><ele>3.0</ele><time>2026-05-01T06:14:37.422Z</time></trkpt><trkpt lat="45.0411633" lon="11.666075"><ele>3.0</ele><time>2026-05-01T06:14:39.423Z</time></trkpt><trkpt lat="45.041155" lon="11.666215"><ele>3.0</ele><time>2026-05-01T06:14:41.424Z</time></trkpt><trkpt lat="45.0411533" lon="11.6663483"><ele>3.0</ele><time>2026-05-01T06:14:43.417Z</time></trkpt><trkpt lat="45.04116" lon="11.6664883"><ele>3.0</ele><time>2026-05-01T06:14:45.423Z</time></trkpt><trkpt lat="45.04117" lon="11.6666267"><ele>3.0</ele><time>2026-05-01T06:14:47.419Z</time></trkpt><trkpt lat="45.04118" lon="11.6667633"><ele>3.0</ele><time>2026-05-01T06:14:49.427Z</time></trkpt><trkpt lat="45.041185" lon="11.6669067"><ele>3.0</ele><time>2026-05-01T06:14:51.414Z</time></trkpt><trkpt lat="45.04118" lon="11.66705"><ele>3.0</ele><time>2026-05-01T06:14:53.417Z</time></trkpt><trkpt lat="45.0411783" lon="11.667185"><ele>3.0</ele><time>2026-05-01T06:14:55.428Z</time></trkpt><trkpt lat="45.04117" lon="11.6673367"><ele>3.0</ele><time>2026-05-01T06:14:57.428Z</time></trkpt><trkpt lat="45.04116" lon="11.6674833"><ele>3.0</ele><time>2026-05-01T06:14:59.424Z</time></trkpt><trkpt lat="45.0411533" lon="11.6676267"><ele>3.0</ele><time>2026-05-01T06:15:01.419Z</time></trkpt><trkpt lat="45.041145" lon="11.667775"><ele>3.0</ele><time>2026-05-01T06:15:03.423Z</time></trkpt><trkpt lat="45.041135" lon="11.6679183"><ele>3.0</ele><time>2026-05-01T06:15:05.425Z</time></trkpt><trkpt lat="45.04113" lon="11.6680583"><ele>3.0</ele><time>2026-05-01T06:15:07.426Z</time></trkpt><trkpt lat="45.04112" lon="11.6681983"><ele>3.0</ele><time>2026-05-01T06:15:09.425Z</time></trkpt><trkpt lat="45.0411117" lon="11.6683417"><ele>3.0</ele><time>2026-05-01T06:15:11.421Z</time></trkpt><trkpt lat="45.041105" lon="11.668485"><ele>3.0</ele><time>2026-05-01T06:15:13.417Z</time></trkpt><trkpt lat="45.0411" lon="11.668635"><ele>3.0</ele><time>2026-05-01T06:15:15.429Z</time></trkpt><trkpt lat="45.041095" lon="11.6687833"><ele>3.0</ele><time>2026-05-01T06:15:17.416Z</time></trkpt><trkpt lat="45.04109" lon="11.6689283"><ele>3.0</ele><time>2026-05-01T06:15:19.425Z</time></trkpt><trkpt lat="45.0410867" lon="11.6690617"><ele>3.0</ele><time>2026-05-01T06:15:21.423Z</time></trkpt><trkpt lat="45.0410867" lon="11.66919"><ele>3.0</ele><time>2026-05-01T06:15:23.416Z</time></trkpt><trkpt lat="45.041085" lon="11.66932"><ele>3.0</ele><time>2026-05-01T06:15:25.426Z</time></trkpt><trkpt lat="45.0410867" lon="11.6694433"><ele>3.0</ele><time>2026-05-01T06:15:27.423Z</time></trkpt><trkpt lat="45.041085" lon="11.669575"><ele>3.0</ele><time>2026-05-01T06:15:29.426Z</time></trkpt><trkpt lat="45.041085" lon="11.6697117"><ele>3.0</ele><time>2026-05-01T06:15:31.413Z</time></trkpt><trkpt lat="45.041085" lon="11.66985"><ele>3.0</ele><time>2026-05-01T06:15:33.423Z</time></trkpt><trkpt lat="45.0410833" lon="11.6699933"><ele>3.0</ele><time>2026-05-01T06:15:35.423Z</time></trkpt><trkpt lat="45.041085" lon="11.6701333"><ele>3.0</ele><time>2026-05-01T06:15:37.428Z</time></trkpt><trkpt lat="45.0410883" lon="11.67027"><ele>3.0</ele><time>2026-05-01T06:15:39.423Z</time></trkpt><trkpt lat="45.0410883" lon="11.670405"><ele>3.2</ele><time>2026-05-01T06:15:41.425Z</time></trkpt><trkpt lat="45.041085" lon="11.6705333"><ele>3.4</ele><time>2026-05-01T06:15:43.421Z</time></trkpt><trkpt lat="45.04108" lon="11.6706617"><ele>3.6000000000000005</ele><time>2026-05-01T06:15:45.417Z</time></trkpt><trkpt lat="45.0410783" lon="11.67079"><ele>3.8000000000000003</ele><time>2026-05-01T06:15:47.422Z</time></trkpt><trkpt lat="45.0410783" lon="11.6709217"><ele>4.0</ele><time>2026-05-01T06:15:49.421Z</time></trkpt><trkpt lat="45.04108" lon="11.6710433"><ele>3.4000000000000004</ele><time>2026-05-01T06:15:51.421Z</time></trkpt><trkpt lat="45.0410833" lon="11.6711783"><ele>2.8000000000000003</ele><time>2026-05-01T06:15:53.426Z</time></trkpt><trkpt lat="45.0411083" lon="11.6713117"><ele>2.2</ele><time>2026-05-01T06:15:55.423Z</time></trkpt><trkpt lat="45.0411667" lon="11.67142"><ele>1.6</ele><time>2026-05-01T06:15:57.424Z</time></trkpt><trkpt lat="45.041255" lon="11.6714883"><ele>1.0</ele><time>2026-05-01T06:15:59.427Z</time></trkpt><trkpt lat="45.0413417" lon="11.6715333"><ele>1.0</ele><time>2026-05-01T06:16:01.399Z</time></trkpt><trkpt lat="45.0414283" lon="11.6715767"><ele>1.0</ele><time>2026-05-01T06:16:03.396Z</time></trkpt><trkpt lat="45.0415133" lon="11.6716133"><ele>1.0</ele><time>2026-05-01T06:16:05.424Z</time></trkpt><trkpt lat="45.041605" lon="11.6716517"><ele>1.0</ele><time>2026-05-01T06:16:07.419Z</time></trkpt><trkpt lat="45.0416983" lon="11.6716917"><ele>1.0</ele><time>2026-05-01T06:16:09.422Z</time></trkpt><trkpt lat="45.0417917" lon="11.6717317"><ele>1.4</ele><time>2026-05-01T06:16:11.418Z</time></trkpt><trkpt lat="45.0418883" lon="11.6717733"><ele>1.8</ele><time>2026-05-01T06:16:13.424Z</time></trkpt><trkpt lat="45.041985" lon="11.671815"><ele>2.1999999999999997</ele><time>2026-05-01T06:16:15.408Z</time></trkpt><trkpt lat="45.042085" lon="11.6718417"><ele>2.6</ele><time>2026-05-01T06:16:17.421Z</time></trkpt><trkpt lat="45.042175" lon="11.6718717"><ele>3.0</ele><time>2026-05-01T06:16:19.425Z</time></trkpt><trkpt lat="45.0422567" lon="11.67192"><ele>3.0</ele><time>2026-05-01T06:16:21.418Z</time></trkpt><trkpt lat="45.0423433" lon="11.671975"><ele>3.0</ele><time>2026-05-01T06:16:23.41Z</time></trkpt><trkpt lat="45.0424267" lon="11.67204"><ele>3.0</ele><time>2026-05-01T06:16:25.417Z</time></trkpt><trkpt lat="45.042495" lon="11.6721283"><ele>3.0</ele><time>2026-05-01T06:16:27.427Z</time></trkpt><trkpt lat="45.04253" lon="11.672255"><ele>3.0</ele><time>2026-05-01T06:16:29.425Z</time></trkpt><trkpt lat="45.0425283" lon="11.6723967"><ele>3.0</ele><time>2026-05-01T06:16:31.424Z</time></trkpt><trkpt lat="45.042515" lon="11.6725333"><ele>3.0</ele><time>2026-05-01T06:16:33.403Z</time></trkpt><trkpt lat="45.0425" lon="11.6726633"><ele>3.0</ele><time>2026-05-01T06:16:35.424Z</time></trkpt><trkpt lat="45.042485" lon="11.6727967"><ele>3.0</ele><time>2026-05-01T06:16:37.422Z</time></trkpt><trkpt lat="45.0424783" lon="11.6729317"><ele>3.0</ele><time>2026-05-01T06:16:39.416Z</time></trkpt><trkpt lat="45.042495" lon="11.673065"><ele>2.8</ele><time>2026-05-01T06:16:41.419Z</time></trkpt><trkpt lat="45.0425383" lon="11.6731833"><ele>2.5999999999999996</ele><time>2026-05-01T06:16:43.42Z</time></trkpt><trkpt lat="45.0426017" lon="11.673285"><ele>2.4000000000000004</ele><time>2026-05-01T06:16:45.427Z</time></trkpt><trkpt lat="45.042675" lon="11.673375"><ele>2.2</ele><time>2026-05-01T06:16:47.421Z</time></trkpt><trkpt lat="45.0427517" lon="11.6734617"><ele>2.0</ele><time>2026-05-01T06:16:49.425Z</time></trkpt><trkpt lat="45.0428333" lon="11.673545"><ele>2.0</ele><time>2026-05-01T06:16:51.424Z</time></trkpt><trkpt lat="45.0429167" lon="11.6736317"><ele>2.0</ele><time>2026-05-01T06:16:53.422Z</time></trkpt><trkpt lat="45.043" lon="11.673715"><ele>2.0</ele><time>2026-05-01T06:16:55.42Z</time></trkpt><trkpt lat="45.0430833" lon="11.6738"><ele>2.0</ele><time>2026-05-01T06:16:57.424Z</time></trkpt><trkpt lat="45.0431567" lon="11.6738967"><ele>2.0</ele><time>2026-05-01T06:16:59.421Z</time></trkpt><trkpt lat="45.043235" lon="11.6739867"><ele>2.2</ele><time>2026-05-01T06:17:01.426Z</time></trkpt><trkpt lat="45.04332" lon="11.6740733"><ele>2.4000000000000004</ele><time>2026-05-01T06:17:03.423Z</time></trkpt><trkpt lat="45.04341" lon="11.674165"><ele>2.5999999999999996</ele><time>2026-05-01T06:17:05.417Z</time></trkpt><trkpt lat="45.0434933" lon="11.6742583"><ele>2.8</ele><time>2026-05-01T06:17:07.426Z</time></trkpt><trkpt lat="45.04357" lon="11.6743467"><ele>3.0</ele><time>2026-05-01T06:17:09.394Z</time></trkpt><trkpt lat="45.0436417" lon="11.6744383"><ele>3.0</ele><time>2026-05-01T06:17:11.426Z</time></trkpt><trkpt lat="45.0437183" lon="11.674525"><ele>3.0</ele><time>2026-05-01T06:17:13.427Z</time></trkpt><trkpt lat="45.043795" lon="11.67461"><ele>3.0</ele><time>2026-05-01T06:17:15.42Z</time></trkpt><trkpt lat="45.0438717" lon="11.6746983"><ele>3.0</ele><time>2026-05-01T06:17:17.425Z</time></trkpt><trkpt lat="45.0439483" lon="11.6747833"><ele>3.0</ele><time>2026-05-01T06:17:19.411Z</time></trkpt><trkpt lat="45.044025" lon="11.6748667"><ele>3.0</ele><time>2026-05-01T06:17:21.427Z</time></trkpt><trkpt lat="45.0441" lon="11.6749567"><ele>3.0</ele><time>2026-05-01T06:17:23.423Z</time></trkpt><trkpt lat="45.0441767" lon="11.675045"><ele>3.0</ele><time>2026-05-01T06:17:25.417Z</time></trkpt><trkpt lat="45.0442483" lon="11.67513"><ele>3.0</ele><time>2026-05-01T06:17:27.421Z</time></trkpt><trkpt lat="45.0443217" lon="11.67522"><ele>3.0</ele><time>2026-05-01T06:17:29.424Z</time></trkpt><trkpt lat="45.0444" lon="11.6753083"><ele>3.2</ele><time>2026-05-01T06:17:31.424Z</time></trkpt><trkpt lat="45.044475" lon="11.6753983"><ele>3.4</ele><time>2026-05-01T06:17:33.422Z</time></trkpt><trkpt lat="45.0445517" lon="11.6754883"><ele>3.6000000000000005</ele><time>2026-05-01T06:17:35.421Z</time></trkpt><trkpt lat="45.04463" lon="11.6755817"><ele>3.8000000000000003</ele><time>2026-05-01T06:17:37.426Z</time></trkpt><trkpt lat="45.04471" lon="11.675675"><ele>4.0</ele><time>2026-05-01T06:17:39.422Z</time></trkpt><trkpt lat="45.0447917" lon="11.6757633"><ele>4.0</ele><time>2026-05-01T06:17:41.42Z</time></trkpt><trkpt lat="45.0448633" lon="11.67585"><ele>4.0</ele><time>2026-05-01T06:17:43.427Z</time></trkpt><trkpt lat="45.044935" lon="11.67594"><ele>4.0</ele><time>2026-05-01T06:17:45.417Z</time></trkpt><trkpt lat="45.0450017" lon="11.676035"><ele>4.0</ele><time>2026-05-01T06:17:47.405Z</time></trkpt><trkpt lat="45.04507" lon="11.6761283"><ele>4.0</ele><time>2026-05-01T06:17:49.422Z</time></trkpt><trkpt lat="45.0451167" lon="11.67624"><ele>4.2</ele><time>2026-05-01T06:17:51.413Z</time></trkpt><trkpt lat="45.0451367" lon="11.6763717"><ele>4.4</ele><time>2026-05-01T06:17:53.418Z</time></trkpt><trkpt lat="45.0451283" lon="11.6765033"><ele>4.6</ele><time>2026-05-01T06:17:55.425Z</time></trkpt><trkpt lat="45.0451083" lon="11.676635"><ele>4.8</ele><time>2026-05-01T06:17:57.423Z</time></trkpt><trkpt lat="45.0450817" lon="11.6767567"><ele>5.0</ele><time>2026-05-01T06:17:59.426Z</time></trkpt><trkpt lat="45.045055" lon="11.6768833"><ele>5.0</ele><time>2026-05-01T06:18:01.424Z</time></trkpt><trkpt lat="45.0450267" lon="11.6770167"><ele>5.0</ele><time>2026-05-01T06:18:03.417Z</time></trkpt><trkpt lat="45.0450083" lon="11.6771517"><ele>5.0</ele><time>2026-05-01T06:18:05.424Z</time></trkpt><trkpt lat="45.044995" lon="11.67728"><ele>5.0</ele><time>2026-05-01T06:18:07.425Z</time></trkpt><trkpt lat="45.0449867" lon="11.6774083"><ele>5.0</ele><time>2026-05-01T06:18:09.426Z</time></trkpt><trkpt lat="45.0449767" lon="11.6775417"><ele>5.0</ele><time>2026-05-01T06:18:11.425Z</time></trkpt><trkpt lat="45.0449767" lon="11.677675"><ele>5.0</ele><time>2026-05-01T06:18:13.416Z</time></trkpt><trkpt lat="45.0449867" lon="11.6778067"><ele>5.0</ele><time>2026-05-01T06:18:15.424Z</time></trkpt><trkpt lat="45.045005" lon="11.6779367"><ele>5.0</ele><time>2026-05-01T06:18:17.427Z</time></trkpt><trkpt lat="45.0450267" lon="11.6780683"><ele>5.0</ele><time>2026-05-01T06:18:19.423Z</time></trkpt><trkpt lat="45.04505" lon="11.6782"><ele>5.0</ele><time>2026-05-01T06:18:21.424Z</time></trkpt><trkpt lat="45.0450767" lon="11.6783283"><ele>5.0</ele><time>2026-05-01T06:18:23.39Z</time></trkpt><trkpt lat="45.045105" lon="11.6784567"><ele>5.0</ele><time>2026-05-01T06:18:25.424Z</time></trkpt><trkpt lat="45.0451367" lon="11.6785883"><ele>5.0</ele><time>2026-05-01T06:18:27.423Z</time></trkpt><trkpt lat="45.0451767" lon="11.67871"><ele>5.0</ele><time>2026-05-01T06:18:29.426Z</time></trkpt><trkpt lat="45.0452133" lon="11.6788317"><ele>5.0</ele><time>2026-05-01T06:18:31.425Z</time></trkpt><trkpt lat="45.045245" lon="11.6789567"><ele>5.0</ele><time>2026-05-01T06:18:33.428Z</time></trkpt><trkpt lat="45.0452783" lon="11.67908"><ele>5.0</ele><time>2026-05-01T06:18:35.415Z</time></trkpt><trkpt lat="45.0453133" lon="11.679205"><ele>5.0</ele><time>2026-05-01T06:18:37.425Z</time></trkpt><trkpt lat="45.0453417" lon="11.6793283"><ele>5.0</ele><time>2026-05-01T06:18:39.419Z</time></trkpt><trkpt lat="45.0453667" lon="11.679455"><ele>4.8</ele><time>2026-05-01T06:18:41.425Z</time></trkpt><trkpt lat="45.04539" lon="11.67958"><ele>4.6</ele><time>2026-05-01T06:18:43.425Z</time></trkpt><trkpt lat="45.04541" lon="11.6797133"><ele>4.4</ele><time>2026-05-01T06:18:45.424Z</time></trkpt><trkpt lat="45.04543" lon="11.679845"><ele>4.2</ele><time>2026-05-01T06:18:47.422Z</time></trkpt><trkpt lat="45.045445" lon="11.679975"><ele>4.0</ele><time>2026-05-01T06:18:49.416Z</time></trkpt><trkpt lat="45.0454567" lon="11.6801033"><ele>4.0</ele><time>2026-05-01T06:18:51.424Z</time></trkpt><trkpt lat="45.0454633" lon="11.6802333"><ele>4.0</ele><time>2026-05-01T06:18:53.42Z</time></trkpt><trkpt lat="45.0454883" lon="11.6803383"><ele>4.0</ele><time>2026-05-01T06:18:55.398Z</time></trkpt><trkpt lat="45.0454767" lon="11.6804883"><ele>4.0</ele><time>2026-05-01T06:18:57.417Z</time></trkpt><trkpt lat="45.0454733" lon="11.6806483"><ele>4.0</ele><time>2026-05-01T06:18:59.425Z</time></trkpt><trkpt lat="45.045455" lon="11.6807917"><ele>4.0</ele><time>2026-05-01T06:19:01.43Z</time></trkpt><trkpt lat="45.0454383" lon="11.6809317"><ele>4.0</ele><time>2026-05-01T06:19:03.423Z</time></trkpt><trkpt lat="45.0454133" lon="11.6810717"><ele>4.0</ele><time>2026-05-01T06:19:05.425Z</time></trkpt><trkpt lat="45.0453883" lon="11.6812233"><ele>4.0</ele><time>2026-05-01T06:19:07.423Z</time></trkpt><trkpt lat="45.0453683" lon="11.6813783"><ele>4.0</ele><time>2026-05-01T06:19:09.427Z</time></trkpt><trkpt lat="45.0453483" lon="11.68153"><ele>4.25</ele><time>2026-05-01T06:19:11.425Z</time></trkpt><trkpt lat="45.0453333" lon="11.681695"><ele>4.5</ele><time>2026-05-01T06:19:13.424Z</time></trkpt><trkpt lat="45.0453117" lon="11.6818517"><ele>4.75</ele><time>2026-05-01T06:19:15.416Z</time></trkpt><trkpt lat="45.0452933" lon="11.682005"><ele>5.0</ele><time>2026-05-01T06:19:17.387Z</time></trkpt><trkpt lat="45.0452667" lon="11.682165"><ele>5.0</ele><time>2026-05-01T06:19:19.4Z</time></trkpt><trkpt lat="45.0452467" lon="11.6823267"><ele>5.0</ele><time>2026-05-01T06:19:21.391Z</time></trkpt><trkpt lat="45.0452317" lon="11.6824883"><ele>5.0</ele><time>2026-05-01T06:19:23.402Z</time></trkpt><trkpt lat="45.0452283" lon="11.6826483"><ele>5.0</ele><time>2026-05-01T06:19:25.389Z</time></trkpt><trkpt lat="45.0452183" lon="11.6827983"><ele>5.0</ele><time>2026-05-01T06:19:27.393Z</time></trkpt><trkpt lat="45.045205" lon="11.6829517"><ele>5.0</ele><time>2026-05-01T06:19:29.389Z</time></trkpt><trkpt lat="45.0451983" lon="11.6831067"><ele>5.0</ele><time>2026-05-01T06:19:31.389Z</time></trkpt><trkpt lat="45.0451867" lon="11.683255"><ele>5.0</ele><time>2026-05-01T06:19:33.411Z</time></trkpt><trkpt lat="45.0451817" lon="11.68341"><ele>5.0</ele><time>2026-05-01T06:19:35.393Z</time></trkpt><trkpt lat="45.0451733" lon="11.68357"><ele>5.2</ele><time>2026-05-01T06:19:37.389Z</time></trkpt><trkpt lat="45.04517" lon="11.6837333"><ele>5.4</ele><time>2026-05-01T06:19:39.412Z</time></trkpt><trkpt lat="45.04517" lon="11.6838917"><ele>5.6</ele><time>2026-05-01T06:19:41.415Z</time></trkpt><trkpt lat="45.0451817" lon="11.6840467"><ele>5.8</ele><time>2026-05-01T06:19:43.418Z</time></trkpt><trkpt lat="45.0451983" lon="11.6841983"><ele>6.0</ele><time>2026-05-01T06:19:45.427Z</time></trkpt><trkpt lat="45.0452183" lon="11.684345"><ele>5.8</ele><time>2026-05-01T06:19:47.409Z</time></trkpt><trkpt lat="45.0452367" lon="11.6845017"><ele>5.6</ele><time>2026-05-01T06:19:49.415Z</time></trkpt><trkpt lat="45.0452567" lon="11.6846567"><ele>5.4</ele><time>2026-05-01T06:19:51.426Z</time></trkpt><trkpt lat="45.0452817" lon="11.6847983"><ele>5.2</ele><time>2026-05-01T06:19:53.425Z</time></trkpt><trkpt lat="45.0453067" lon="11.68494"><ele>5.0</ele><time>2026-05-01T06:19:55.425Z</time></trkpt><trkpt lat="45.0453483" lon="11.6850833"><ele>5.0</ele><time>2026-05-01T06:19:57.423Z</time></trkpt><trkpt lat="45.0453833" lon="11.6852283"><ele>5.0</ele><time>2026-05-01T06:19:59.392Z</time></trkpt><trkpt lat="45.0454317" lon="11.6853617"><ele>5.0</ele><time>2026-05-01T06:20:01.425Z</time></trkpt><trkpt lat="45.0454883" lon="11.6854833"><ele>5.0</ele><time>2026-05-01T06:20:03.422Z</time></trkpt><trkpt lat="45.0455383" lon="11.685605"><ele>5.0</ele><time>2026-05-01T06:20:05.427Z</time></trkpt><trkpt lat="45.0455983" lon="11.6857283"><ele>4.8</ele><time>2026-05-01T06:20:07.423Z</time></trkpt><trkpt lat="45.045665" lon="11.6858517"><ele>4.6</ele><time>2026-05-01T06:20:09.423Z</time></trkpt><trkpt lat="45.0457317" lon="11.68597"><ele>4.4</ele><time>2026-05-01T06:20:11.412Z</time></trkpt><trkpt lat="45.0458083" lon="11.686085"><ele>4.2</ele><time>2026-05-01T06:20:13.423Z</time></trkpt><trkpt lat="45.045895" lon="11.6861933"><ele>4.0</ele><time>2026-05-01T06:20:15.421Z</time></trkpt><trkpt lat="45.0459817" lon="11.6862917"><ele>4.0</ele><time>2026-05-01T06:20:17.423Z</time></trkpt><trkpt lat="45.04607" lon="11.6863733"><ele>4.0</ele><time>2026-05-01T06:20:19.416Z</time></trkpt><trkpt lat="45.0461633" lon="11.6864483"><ele>4.0</ele><time>2026-05-01T06:20:21.421Z</time></trkpt><trkpt lat="45.04625" lon="11.686515"><ele>4.0</ele><time>2026-05-01T06:20:23.418Z</time></trkpt><trkpt lat="45.0463483" lon="11.68656"><ele>4.0</ele><time>2026-05-01T06:20:25.42Z</time></trkpt><trkpt lat="45.0464467" lon="11.6866083"><ele>4.0</ele><time>2026-05-01T06:20:27.418Z</time></trkpt><trkpt lat="45.0465483" lon="11.6866517"><ele>4.0</ele><time>2026-05-01T06:20:29.418Z</time></trkpt><trkpt lat="45.0466517" lon="11.6866833"><ele>4.0</ele><time>2026-05-01T06:20:31.394Z</time></trkpt><trkpt lat="45.0467567" lon="11.6867083"><ele>4.0</ele><time>2026-05-01T06:20:33.419Z</time></trkpt><trkpt lat="45.0468583" lon="11.6867333"><ele>4.0</ele><time>2026-05-01T06:20:35.417Z</time></trkpt><trkpt lat="45.0469567" lon="11.6867567"><ele>4.2</ele><time>2026-05-01T06:20:37.42Z</time></trkpt><trkpt lat="45.04706" lon="11.6867717"><ele>4.4</ele><time>2026-05-01T06:20:39.424Z</time></trkpt><trkpt lat="45.0471583" lon="11.6867917"><ele>4.6</ele><time>2026-05-01T06:20:41.425Z</time></trkpt><trkpt lat="45.047255" lon="11.686825"><ele>4.8</ele><time>2026-05-01T06:20:43.416Z</time></trkpt><trkpt lat="45.0473483" lon="11.6868833"><ele>5.0</ele><time>2026-05-01T06:20:45.427Z</time></trkpt><trkpt lat="45.0474417" lon="11.686945"><ele>5.6</ele><time>2026-05-01T06:20:47.427Z</time></trkpt><trkpt lat="45.0475333" lon="11.6870217"><ele>6.2</ele><time>2026-05-01T06:20:49.428Z</time></trkpt><trkpt lat="45.0476183" lon="11.68711"><ele>6.800000000000001</ele><time>2026-05-01T06:20:51.422Z</time></trkpt><trkpt lat="45.047695" lon="11.6872"><ele>7.4</ele><time>2026-05-01T06:20:53.425Z</time></trkpt><trkpt lat="45.0477633" lon="11.6873067"><ele>8.0</ele><time>2026-05-01T06:20:55.423Z</time></trkpt><trkpt lat="45.0478167" lon="11.6874333"><ele>8.0</ele><time>2026-05-01T06:20:57.425Z</time></trkpt><trkpt lat="45.0478633" lon="11.6875633"><ele>8.0</ele><time>2026-05-01T06:20:59.427Z</time></trkpt><trkpt lat="45.0479083" lon="11.6876867"><ele>8.0</ele><time>2026-05-01T06:21:01.423Z</time></trkpt><trkpt lat="45.0479267" lon="11.6878283"><ele>8.0</ele><time>2026-05-01T06:21:03.404Z</time></trkpt><trkpt lat="45.0479383" lon="11.6879767"><ele>8.0</ele><time>2026-05-01T06:21:05.422Z</time></trkpt><trkpt lat="45.047935" lon="11.6881283"><ele>7.800000000000001</ele><time>2026-05-01T06:21:07.424Z</time></trkpt><trkpt lat="45.04794" lon="11.688275"><ele>7.6000000000000005</ele><time>2026-05-01T06:21:09.415Z</time></trkpt><trkpt lat="45.047945" lon="11.6884233"><ele>7.3999999999999995</ele><time>2026-05-01T06:21:11.423Z</time></trkpt><trkpt lat="45.0479467" lon="11.6885817"><ele>7.199999999999999</ele><time>2026-05-01T06:21:13.42Z</time></trkpt><trkpt lat="45.04794" lon="11.6887467"><ele>7.0</ele><time>2026-05-01T06:21:15.408Z</time></trkpt><trkpt lat="45.0479433" lon="11.6888933"><ele>7.0</ele><time>2026-05-01T06:21:17.42Z</time></trkpt><trkpt lat="45.0479367" lon="11.68904"><ele>6.999999999999999</ele><time>2026-05-01T06:21:19.422Z</time></trkpt><trkpt lat="45.0479167" lon="11.6891983"><ele>6.999999999999999</ele><time>2026-05-01T06:21:21.421Z</time></trkpt><trkpt lat="45.0479133" lon="11.6893483"><ele>7.0</ele><time>2026-05-01T06:21:23.424Z</time></trkpt><trkpt lat="45.0479083" lon="11.6895"><ele>7.0</ele><time>2026-05-01T06:21:25.422Z</time></trkpt><trkpt lat="45.0479" lon="11.68965"><ele>7.0</ele><time>2026-05-01T06:21:27.415Z</time></trkpt><trkpt lat="45.04789" lon="11.6898"><ele>7.0</ele><time>2026-05-01T06:21:29.407Z</time></trkpt><trkpt lat="45.04788" lon="11.6899567"><ele>7.0</ele><time>2026-05-01T06:21:31.423Z</time></trkpt><trkpt lat="45.0478667" lon="11.6901283"><ele>7.0</ele><time>2026-05-01T06:21:33.421Z</time></trkpt><trkpt lat="45.0478633" lon="11.69029"><ele>6.75</ele><time>2026-05-01T06:21:35.402Z</time></trkpt><trkpt lat="45.0478617" lon="11.6904483"><ele>6.5</ele><time>2026-05-01T06:21:37.423Z</time></trkpt><trkpt lat="45.0478533" lon="11.6906083"><ele>6.25</ele><time>2026-05-01T06:21:39.426Z</time></trkpt><trkpt lat="45.0478633" lon="11.69078"><ele>6.0</ele><time>2026-05-01T06:21:41.42Z</time></trkpt><trkpt lat="45.0478633" lon="11.6909467"><ele>6.0</ele><time>2026-05-01T06:21:43.416Z</time></trkpt><trkpt lat="45.0478767" lon="11.691105"><ele>6.0</ele><time>2026-05-01T06:21:45.416Z</time></trkpt><trkpt lat="45.047865" lon="11.6912633"><ele>6.0</ele><time>2026-05-01T06:21:47.418Z</time></trkpt><trkpt lat="45.0478583" lon="11.6914217"><ele>6.0</ele><time>2026-05-01T06:21:49.418Z</time></trkpt><trkpt lat="45.0478567" lon="11.6915933"><ele>6.0</ele><time>2026-05-01T06:21:51.409Z</time></trkpt><trkpt lat="45.0478583" lon="11.691755"><ele>6.0</ele><time>2026-05-01T06:21:53.42Z</time></trkpt><trkpt lat="45.047855" lon="11.69192"><ele>6.0</ele><time>2026-05-01T06:21:55.419Z</time></trkpt><trkpt lat="45.047855" lon="11.6920767"><ele>6.0</ele><time>2026-05-01T06:21:57.424Z</time></trkpt><trkpt lat="45.047855" lon="11.6922433"><ele>6.199999999999999</ele><time>2026-05-01T06:21:59.421Z</time></trkpt><trkpt lat="45.04786" lon="11.6923933"><ele>6.3999999999999995</ele><time>2026-05-01T06:22:01.422Z</time></trkpt><trkpt lat="45.0478617" lon="11.69255"><ele>6.6</ele><time>2026-05-01T06:22:03.42Z</time></trkpt><trkpt lat="45.04787" lon="11.69264"><ele>6.8</ele><time>2026-05-01T06:22:04.426Z</time></trkpt><trkpt lat="45.0478767" lon="11.6928"><ele>7.0</ele><time>2026-05-01T06:22:06.425Z</time></trkpt><trkpt lat="45.0478917" lon="11.69295"><ele>7.199999999999999</ele><time>2026-05-01T06:22:08.417Z</time></trkpt><trkpt lat="45.04791" lon="11.6931017"><ele>7.3999999999999995</ele><time>2026-05-01T06:22:10.421Z</time></trkpt><trkpt lat="45.0479467" lon="11.6932633"><ele>7.6000000000000005</ele><time>2026-05-01T06:22:12.428Z</time></trkpt><trkpt lat="45.0480017" lon="11.6933817"><ele>7.800000000000001</ele><time>2026-05-01T06:22:14.422Z</time></trkpt><trkpt lat="45.0480467" lon="11.6935167"><ele>8.0</ele><time>2026-05-01T06:22:16.423Z</time></trkpt><trkpt lat="45.0480817" lon="11.6936517"><ele>8.200000000000001</ele><time>2026-05-01T06:22:18.404Z</time></trkpt><trkpt lat="45.0481167" lon="11.6937767"><ele>8.4</ele><time>2026-05-01T06:22:20.401Z</time></trkpt><trkpt lat="45.048155" lon="11.69391"><ele>8.600000000000001</ele><time>2026-05-01T06:22:22.421Z</time></trkpt><trkpt lat="45.0481967" lon="11.6940383"><ele>8.8</ele><time>2026-05-01T06:22:24.418Z</time></trkpt><trkpt lat="45.048245" lon="11.69416"><ele>9.0</ele><time>2026-05-01T06:22:26.42Z</time></trkpt><trkpt lat="45.0482983" lon="11.6942583"><ele>9.0</ele><time>2026-05-01T06:22:28.413Z</time></trkpt><trkpt lat="45.0483567" lon="11.6943583"><ele>9.0</ele><time>2026-05-01T06:22:30.427Z</time></trkpt><trkpt lat="45.0484033" lon="11.69443"><ele>9.0</ele><time>2026-05-01T06:22:32.424Z</time></trkpt><trkpt lat="45.0484433" lon="11.6945317"><ele>9.0</ele><time>2026-05-01T06:22:34.402Z</time></trkpt><trkpt lat="45.0484783" lon="11.6946433"><ele>9.0</ele><time>2026-05-01T06:22:36.415Z</time></trkpt><trkpt lat="45.0485183" lon="11.6947267"><ele>9.0</ele><time>2026-05-01T06:22:38.421Z</time></trkpt><trkpt lat="45.0485617" lon="11.69481"><ele>9.0</ele><time>2026-05-01T06:22:40.417Z</time></trkpt><trkpt lat="45.048655" lon="11.69484"><ele>9.0</ele><time>2026-05-01T06:22:43.418Z</time></trkpt><trkpt lat="45.048735" lon="11.6948"><ele>9.0</ele><time>2026-05-01T06:22:46.412Z</time></trkpt><trkpt lat="45.048765" lon="11.6946983"><ele>9.0</ele><time>2026-05-01T06:22:49.424Z</time></trkpt><trkpt lat="45.048725" lon="11.6945983"><ele>9.0</ele><time>2026-05-01T06:22:52.42Z</time></trkpt><trkpt lat="45.0487467" lon="11.6945083"><ele>9.0</ele><time>2026-05-01T06:22:55.42Z</time></trkpt><trkpt lat="45.0488183" lon="11.6944217"><ele>9.0</ele><time>2026-05-01T06:27:35.426Z</time></trkpt><trkpt lat="45.0488917" lon="11.6944117"><ele>9.0</ele><time>2026-05-01T06:27:39.408Z</time></trkpt><trkpt lat="45.04894" lon="11.694475"><ele>9.0</ele><time>2026-05-01T06:27:41.422Z</time></trkpt><trkpt lat="45.0489967" lon="11.694565"><ele>9.0</ele><time>2026-05-01T06:27:43.411Z</time></trkpt><trkpt lat="45.0490483" lon="11.6946483"><ele>9.0</ele><time>2026-05-01T06:27:45.42Z</time></trkpt><trkpt lat="45.0491" lon="11.6947283"><ele>9.0</ele><time>2026-05-01T06:27:47.4Z</time></trkpt><trkpt lat="45.0491517" lon="11.6948083"><ele>9.0</ele><time>2026-05-01T06:27:49.414Z</time></trkpt><trkpt lat="45.049195" lon="11.69491"><ele>9.0</ele><time>2026-05-01T06:27:51.423Z</time></trkpt><trkpt lat="45.0492483" lon="11.69502"><ele>9.0</ele><time>2026-05-01T06:27:53.417Z</time></trkpt><trkpt lat="45.0492983" lon="11.6951167"><ele>9.0</ele><time>2026-05-01T06:27:55.419Z</time></trkpt><trkpt lat="45.04936" lon="11.6952167"><ele>9.0</ele><time>2026-05-01T06:27:57.418Z</time></trkpt><trkpt lat="45.0494167" lon="11.6953133"><ele>9.0</ele><time>2026-05-01T06:27:59.413Z</time></trkpt><trkpt lat="45.04947" lon="11.69541"><ele>9.0</ele><time>2026-05-01T06:28:01.41Z</time></trkpt><trkpt lat="45.0495167" lon="11.6955"><ele>9.0</ele><time>2026-05-01T06:28:03.421Z</time></trkpt><trkpt lat="45.0495667" lon="11.695595"><ele>9.0</ele><time>2026-05-01T06:28:05.423Z</time></trkpt><trkpt lat="45.04962" lon="11.6957"><ele>9.0</ele><time>2026-05-01T06:28:07.409Z</time></trkpt><trkpt lat="45.0496733" lon="11.6958117"><ele>9.0</ele><time>2026-05-01T06:28:09.413Z</time></trkpt><trkpt lat="45.049735" lon="11.6959233"><ele>9.0</ele><time>2026-05-01T06:28:11.403Z</time></trkpt><trkpt lat="45.0497933" lon="11.6960367"><ele>8.8</ele><time>2026-05-01T06:28:13.425Z</time></trkpt><trkpt lat="45.049865" lon="11.6961383"><ele>8.600000000000001</ele><time>2026-05-01T06:28:15.426Z</time></trkpt><trkpt lat="45.0499483" lon="11.6962067"><ele>8.4</ele><time>2026-05-01T06:28:17.42Z</time></trkpt><trkpt lat="45.0500417" lon="11.69625"><ele>8.200000000000001</ele><time>2026-05-01T06:28:19.42Z</time></trkpt><trkpt lat="45.0501383" lon="11.6962833"><ele>8.0</ele><time>2026-05-01T06:28:21.423Z</time></trkpt><trkpt lat="45.050235" lon="11.69631"><ele>8.0</ele><time>2026-05-01T06:28:23.424Z</time></trkpt><trkpt lat="45.050335" lon="11.6963267"><ele>8.0</ele><time>2026-05-01T06:28:25.424Z</time></trkpt><trkpt lat="45.0504333" lon="11.696335"><ele>8.0</ele><time>2026-05-01T06:28:27.389Z</time></trkpt><trkpt lat="45.0505283" lon="11.6963333"><ele>8.0</ele><time>2026-05-01T06:28:29.423Z</time></trkpt><trkpt lat="45.050625" lon="11.6963383"><ele>8.0</ele><time>2026-05-01T06:28:31.419Z</time></trkpt><trkpt lat="45.0507183" lon="11.6963183"><ele>8.0</ele><time>2026-05-01T06:28:33.42Z</time></trkpt><trkpt lat="45.0508133" lon="11.69629"><ele>8.0</ele><time>2026-05-01T06:28:35.425Z</time></trkpt><trkpt lat="45.05091" lon="11.6962567"><ele>8.0</ele><time>2026-05-01T06:28:37.424Z</time></trkpt><trkpt lat="45.0510167" lon="11.6962067"><ele>8.0</ele><time>2026-05-01T06:28:39.423Z</time></trkpt><trkpt lat="45.051115" lon="11.6961667"><ele>8.0</ele><time>2026-05-01T06:28:41.425Z</time></trkpt><trkpt lat="45.0512133" lon="11.69612"><ele>7.6000000000000005</ele><time>2026-05-01T06:28:43.403Z</time></trkpt><trkpt lat="45.051315" lon="11.696065"><ele>7.200000000000001</ele><time>2026-05-01T06:28:45.411Z</time></trkpt><trkpt lat="45.05141" lon="11.696005"><ele>6.8</ele><time>2026-05-01T06:28:47.416Z</time></trkpt><trkpt lat="45.0515083" lon="11.6959417"><ele>6.4</ele><time>2026-05-01T06:28:49.423Z</time></trkpt><trkpt lat="45.051605" lon="11.6958833"><ele>6.0</ele><time>2026-05-01T06:28:51.424Z</time></trkpt><trkpt lat="45.0516967" lon="11.6958283"><ele>6.0</ele><time>2026-05-01T06:28:53.42Z</time></trkpt><trkpt lat="45.0518" lon="11.6957817"><ele>6.0</ele><time>2026-05-01T06:28:55.419Z</time></trkpt><trkpt lat="45.05191" lon="11.695745"><ele>6.0</ele><time>2026-05-01T06:28:57.424Z</time></trkpt><trkpt lat="45.0520217" lon="11.6957033"><ele>6.0</ele><time>2026-05-01T06:28:59.426Z</time></trkpt><trkpt lat="45.0521383" lon="11.6956567"><ele>6.0</ele><time>2026-05-01T06:29:01.421Z</time></trkpt><trkpt lat="45.052245" lon="11.695605"><ele>6.0</ele><time>2026-05-01T06:29:03.423Z</time></trkpt><trkpt lat="45.05235" lon="11.6955433"><ele>6.0</ele><time>2026-05-01T06:29:05.43Z</time></trkpt><trkpt lat="45.0524467" lon="11.6954883"><ele>6.0</ele><time>2026-05-01T06:29:07.427Z</time></trkpt><trkpt lat="45.0525433" lon="11.6954333"><ele>6.0</ele><time>2026-05-01T06:29:09.419Z</time></trkpt><trkpt lat="45.052645" lon="11.6953767"><ele>6.0</ele><time>2026-05-01T06:29:11.417Z</time></trkpt><trkpt lat="45.0527383" lon="11.6953167"><ele>6.0</ele><time>2026-05-01T06:29:13.418Z</time></trkpt><trkpt lat="45.0528267" lon="11.6952483"><ele>6.0</ele><time>2026-05-01T06:29:15.4Z</time></trkpt><trkpt lat="45.0529183" lon="11.695185"><ele>6.0</ele><time>2026-05-01T06:29:17.421Z</time></trkpt><trkpt lat="45.0530183" lon="11.6951283"><ele>6.0</ele><time>2026-05-01T06:29:19.423Z</time></trkpt><trkpt lat="45.0531233" lon="11.6950717"><ele>6.0</ele><time>2026-05-01T06:29:21.426Z</time></trkpt><trkpt lat="45.0532317" lon="11.6950333"><ele>6.0</ele><time>2026-05-01T06:29:23.421Z</time></trkpt><trkpt lat="45.0533383" lon="11.6950033"><ele>6.0</ele><time>2026-05-01T06:29:25.42Z</time></trkpt><trkpt lat="45.0534433" lon="11.6949717"><ele>6.0</ele><time>2026-05-01T06:29:27.425Z</time></trkpt><trkpt lat="45.0535417" lon="11.6949517"><ele>6.0</ele><time>2026-05-01T06:29:29.421Z</time></trkpt><trkpt lat="45.0536383" lon="11.6949217"><ele>6.0</ele><time>2026-05-01T06:29:31.416Z</time></trkpt><trkpt lat="45.0537433" lon="11.6949067"><ele>6.0</ele><time>2026-05-01T06:29:33.415Z</time></trkpt><trkpt lat="45.0538533" lon="11.69488"><ele>6.0</ele><time>2026-05-01T06:29:35.424Z</time></trkpt><trkpt lat="45.0539667" lon="11.6948583"><ele>6.0</ele><time>2026-05-01T06:29:37.426Z</time></trkpt><trkpt lat="45.0540817" lon="11.6948333"><ele>6.0</ele><time>2026-05-01T06:29:39.425Z</time></trkpt><trkpt lat="45.054195" lon="11.6948033"><ele>6.0</ele><time>2026-05-01T06:29:41.428Z</time></trkpt><trkpt lat="45.0543117" lon="11.6947667"><ele>6.0</ele><time>2026-05-01T06:29:43.417Z</time></trkpt><trkpt lat="45.0544333" lon="11.6947283"><ele>6.0</ele><time>2026-05-01T06:29:45.424Z</time></trkpt><trkpt lat="45.054555" lon="11.6946917"><ele>6.0</ele><time>2026-05-01T06:29:47.395Z</time></trkpt><trkpt lat="45.054675" lon="11.69467"><ele>6.0</ele><time>2026-05-01T06:29:49.424Z</time></trkpt><trkpt lat="45.0547983" lon="11.69464"><ele>6.0</ele><time>2026-05-01T06:29:51.426Z</time></trkpt><trkpt lat="45.05492" lon="11.694615"><ele>6.0</ele><time>2026-05-01T06:29:53.426Z</time></trkpt><trkpt lat="45.0550417" lon="11.694595"><ele>6.0</ele><time>2026-05-01T06:29:55.421Z</time></trkpt><trkpt lat="45.055155" lon="11.694555"><ele>6.166666666666667</ele><time>2026-05-01T06:29:57.427Z</time></trkpt><trkpt lat="45.0552483" lon="11.6945133"><ele>6.333333333333334</ele><time>2026-05-01T06:29:59.424Z</time></trkpt><trkpt lat="45.0553217" lon="11.6944783"><ele>6.5</ele><time>2026-05-01T06:30:01.421Z</time></trkpt><trkpt lat="45.055395" lon="11.6944583"><ele>6.666666666666667</ele><time>2026-05-01T06:30:03.423Z</time></trkpt><trkpt lat="45.0554717" lon="11.69444"><ele>6.833333333333334</ele><time>2026-05-01T06:30:05.421Z</time></trkpt><trkpt lat="45.0555533" lon="11.6944117"><ele>7.0</ele><time>2026-05-01T06:30:07.406Z</time></trkpt><trkpt lat="45.0556433" lon="11.6943867"><ele>6.8</ele><time>2026-05-01T06:30:09.409Z</time></trkpt><trkpt lat="45.05574" lon="11.6943617"><ele>6.6</ele><time>2026-05-01T06:30:11.433Z</time></trkpt><trkpt lat="45.0558433" lon="11.6943333"><ele>6.3999999999999995</ele><time>2026-05-01T06:30:13.42Z</time></trkpt><trkpt lat="45.0559583" lon="11.694295"><ele>6.199999999999999</ele><time>2026-05-01T06:30:15.424Z</time></trkpt><trkpt lat="45.0560817" lon="11.6942517"><ele>6.0</ele><time>2026-05-01T06:30:17.42Z</time></trkpt><trkpt lat="45.0561433" lon="11.69423"><ele>6.0</ele><time>2026-05-01T06:30:18.421Z</time></trkpt><trkpt lat="45.056265" lon="11.6941983"><ele>6.0</ele><time>2026-05-01T06:30:20.422Z</time></trkpt><trkpt lat="45.0563867" lon="11.6941783"><ele>6.0</ele><time>2026-05-01T06:30:22.413Z</time></trkpt><trkpt lat="45.05645" lon="11.69417"><ele>6.0</ele><time>2026-05-01T06:30:23.417Z</time></trkpt><trkpt lat="45.0565133" lon="11.6941683"><ele>6.0</ele><time>2026-05-01T06:30:24.426Z</time></trkpt><trkpt lat="45.0565783" lon="11.6941683"><ele>6.0</ele><time>2026-05-01T06:30:25.422Z</time></trkpt><trkpt lat="45.0566483" lon="11.69417"><ele>6.0</ele><time>2026-05-01T06:30:26.427Z</time></trkpt><trkpt lat="45.056715" lon="11.6941817"><ele>6.0</ele><time>2026-05-01T06:30:27.399Z</time></trkpt><trkpt lat="45.05678" lon="11.6942"><ele>6.0</ele><time>2026-05-01T06:30:28.432Z</time></trkpt><trkpt lat="45.0568417" lon="11.6942233"><ele>6.0</ele><time>2026-05-01T06:30:29.421Z</time></trkpt><trkpt lat="45.0569017" lon="11.6942517"><ele>6.0</ele><time>2026-05-01T06:30:30.421Z</time></trkpt><trkpt lat="45.0570183" lon="11.6943183"><ele>6.0</ele><time>2026-05-01T06:30:32.422Z</time></trkpt><trkpt lat="45.05708" lon="11.69435"><ele>6.0</ele><time>2026-05-01T06:30:33.422Z</time></trkpt><trkpt lat="45.057205" lon="11.694395"><ele>6.0</ele><time>2026-05-01T06:30:35.421Z</time></trkpt><trkpt lat="45.0572717" lon="11.6944117"><ele>6.0</ele><time>2026-05-01T06:30:36.423Z</time></trkpt><trkpt lat="45.0573383" lon="11.6944267"><ele>6.0</ele><time>2026-05-01T06:30:37.421Z</time></trkpt><trkpt lat="45.0574017" lon="11.6944483"><ele>6.0</ele><time>2026-05-01T06:30:38.427Z</time></trkpt><trkpt lat="45.0574633" lon="11.6944767"><ele>6.0</ele><time>2026-05-01T06:30:39.426Z</time></trkpt><trkpt lat="45.0575283" lon="11.6945067"><ele>6.285714285714285</ele><time>2026-05-01T06:30:40.402Z</time></trkpt><trkpt lat="45.0575917" lon="11.6945417"><ele>6.571428571428571</ele><time>2026-05-01T06:30:41.42Z</time></trkpt><trkpt lat="45.0576567" lon="11.6945783"><ele>6.857142857142857</ele><time>2026-05-01T06:30:42.423Z</time></trkpt><trkpt lat="45.0577183" lon="11.694615"><ele>7.142857142857142</ele><time>2026-05-01T06:30:43.422Z</time></trkpt><trkpt lat="45.0577817" lon="11.6946483"><ele>7.428571428571428</ele><time>2026-05-01T06:30:44.422Z</time></trkpt><trkpt lat="45.057845" lon="11.6946833"><ele>7.7142857142857135</ele><time>2026-05-01T06:30:45.423Z</time></trkpt><trkpt lat="45.0579083" lon="11.6947183"><ele>8.0</ele><time>2026-05-01T06:30:46.422Z</time></trkpt><trkpt lat="45.0579717" lon="11.6947517"><ele>7.999999999999999</ele><time>2026-05-01T06:30:47.418Z</time></trkpt><trkpt lat="45.0580967" lon="11.6947983"><ele>8.0</ele><time>2026-05-01T06:30:49.419Z</time></trkpt><trkpt lat="45.0581617" lon="11.69481"><ele>8.0</ele><time>2026-05-01T06:30:50.413Z</time></trkpt><trkpt lat="45.0582267" lon="11.694815"><ele>8.0</ele><time>2026-05-01T06:30:51.399Z</time></trkpt><trkpt lat="45.0582933" lon="11.6948033"><ele>7.999999999999999</ele><time>2026-05-01T06:30:52.428Z</time></trkpt><trkpt lat="45.058355" lon="11.6947733"><ele>8.0</ele><time>2026-05-01T06:30:53.422Z</time></trkpt><trkpt lat="45.0584083" lon="11.6947217"><ele>8.0</ele><time>2026-05-01T06:30:54.422Z</time></trkpt><trkpt lat="45.058455" lon="11.6946583"><ele>7.999999999999999</ele><time>2026-05-01T06:30:55.422Z</time></trkpt><trkpt lat="45.0585" lon="11.69459"><ele>8.0</ele><time>2026-05-01T06:30:56.422Z</time></trkpt><trkpt lat="45.0585467" lon="11.6945217"><ele>8.0</ele><time>2026-05-01T06:30:57.426Z</time></trkpt><trkpt lat="45.0585967" lon="11.6944617"><ele>7.999999999999999</ele><time>2026-05-01T06:30:58.425Z</time></trkpt><trkpt lat="45.0586517" lon="11.6944083"><ele>8.0</ele><time>2026-05-01T06:30:59.425Z</time></trkpt><trkpt lat="45.058705" lon="11.6943583"><ele>8.0</ele><time>2026-05-01T06:31:00.419Z</time></trkpt><trkpt lat="45.0587617" lon="11.6943083"><ele>7.857142857142857</ele><time>2026-05-01T06:31:01.425Z</time></trkpt><trkpt lat="45.0588167" lon="11.6942567"><ele>7.7142857142857135</ele><time>2026-05-01T06:31:02.415Z</time></trkpt><trkpt lat="45.05887" lon="11.6942017"><ele>7.571428571428571</ele><time>2026-05-01T06:31:03.425Z</time></trkpt><trkpt lat="45.0589233" lon="11.6941417"><ele>7.428571428571429</ele><time>2026-05-01T06:31:04.472Z</time></trkpt><trkpt lat="45.0589783" lon="11.69408"><ele>7.285714285714286</ele><time>2026-05-01T06:31:05.422Z</time></trkpt><trkpt lat="45.0590333" lon="11.6940217"><ele>7.142857142857142</ele><time>2026-05-01T06:31:06.424Z</time></trkpt><trkpt lat="45.0590933" lon="11.6939717"><ele>7.0</ele><time>2026-05-01T06:31:07.424Z</time></trkpt><trkpt lat="45.059155" lon="11.6939267"><ele>7.0</ele><time>2026-05-01T06:31:08.422Z</time></trkpt><trkpt lat="45.05922" lon="11.6938917"><ele>7.0</ele><time>2026-05-01T06:31:09.426Z</time></trkpt><trkpt lat="45.0592883" lon="11.6938633"><ele>7.0</ele><time>2026-05-01T06:31:10.425Z</time></trkpt><trkpt lat="45.059355" lon="11.6938417"><ele>7.0</ele><time>2026-05-01T06:31:11.427Z</time></trkpt><trkpt lat="45.05942" lon="11.6938267"><ele>7.0</ele><time>2026-05-01T06:31:12.414Z</time></trkpt><trkpt lat="45.059485" lon="11.693815"><ele>7.0</ele><time>2026-05-01T06:31:13.424Z</time></trkpt><trkpt lat="45.05955" lon="11.693805"><ele>7.0</ele><time>2026-05-01T06:31:14.424Z</time></trkpt><trkpt lat="45.059615" lon="11.6937983"><ele>7.0</ele><time>2026-05-01T06:31:15.425Z</time></trkpt><trkpt lat="45.05968" lon="11.6937917"><ele>7.0</ele><time>2026-05-01T06:31:16.423Z</time></trkpt><trkpt lat="45.059745" lon="11.693785"><ele>7.0</ele><time>2026-05-01T06:31:17.427Z</time></trkpt><trkpt lat="45.05981" lon="11.6937783"><ele>7.0</ele><time>2026-05-01T06:31:18.403Z</time></trkpt><trkpt lat="45.0598767" lon="11.6937717"><ele>7.0</ele><time>2026-05-01T06:31:19.416Z</time></trkpt><trkpt lat="45.0599433" lon="11.6937633"><ele>7.0</ele><time>2026-05-01T06:31:20.424Z</time></trkpt><trkpt lat="45.06001" lon="11.6937533"><ele>7.0</ele><time>2026-05-01T06:31:21.426Z</time></trkpt><trkpt lat="45.060075" lon="11.6937417"><ele>7.0</ele><time>2026-05-01T06:31:22.427Z</time></trkpt><trkpt lat="45.0601383" lon="11.6937267"><ele>6.999999999999999</ele><time>2026-05-01T06:31:23.419Z</time></trkpt><trkpt lat="45.0602583" lon="11.693695"><ele>6.999999999999999</ele><time>2026-05-01T06:31:25.423Z</time></trkpt><trkpt lat="45.0603817" lon="11.69364"><ele>7.0</ele><time>2026-05-01T06:31:27.427Z</time></trkpt><trkpt lat="45.0604467" lon="11.693605"><ele>7.0</ele><time>2026-05-01T06:31:28.425Z</time></trkpt><trkpt lat="45.0605117" lon="11.6935667"><ele>6.571428571428571</ele><time>2026-05-01T06:31:29.425Z</time></trkpt><trkpt lat="45.0605767" lon="11.6935317"><ele>6.142857142857142</ele><time>2026-05-01T06:31:30.426Z</time></trkpt><trkpt lat="45.06064" lon="11.6935017"><ele>5.714285714285714</ele><time>2026-05-01T06:31:31.412Z</time></trkpt><trkpt lat="45.060705" lon="11.69348"><ele>5.285714285714286</ele><time>2026-05-01T06:31:32.422Z</time></trkpt><trkpt lat="45.060775" lon="11.6934667"><ele>4.857142857142857</ele><time>2026-05-01T06:31:33.427Z</time></trkpt><trkpt lat="45.0608417" lon="11.6934633"><ele>4.428571428571429</ele><time>2026-05-01T06:31:34.401Z</time></trkpt><trkpt lat="45.06091" lon="11.6934767"><ele>4.0</ele><time>2026-05-01T06:31:35.422Z</time></trkpt><trkpt lat="45.060975" lon="11.6935017"><ele>4.0</ele><time>2026-05-01T06:31:36.422Z</time></trkpt><trkpt lat="45.0610383" lon="11.6935333"><ele>3.9999999999999996</ele><time>2026-05-01T06:31:37.421Z</time></trkpt><trkpt lat="45.0611" lon="11.69357"><ele>4.0</ele><time>2026-05-01T06:31:38.427Z</time></trkpt><trkpt lat="45.0611567" lon="11.6936133"><ele>4.0</ele><time>2026-05-01T06:31:39.424Z</time></trkpt><trkpt lat="45.061215" lon="11.6936583"><ele>3.9999999999999996</ele><time>2026-05-01T06:31:40.428Z</time></trkpt><trkpt lat="45.06127" lon="11.6937067"><ele>4.0</ele><time>2026-05-01T06:31:41.427Z</time></trkpt><trkpt lat="45.0613233" lon="11.6937583"><ele>4.0</ele><time>2026-05-01T06:31:42.429Z</time></trkpt><trkpt lat="45.0613767" lon="11.6938067"><ele>4.166666666666666</ele><time>2026-05-01T06:31:43.426Z</time></trkpt><trkpt lat="45.0614283" lon="11.69386"><ele>4.333333333333333</ele><time>2026-05-01T06:31:44.429Z</time></trkpt><trkpt lat="45.06148" lon="11.6939117"><ele>4.5</ele><time>2026-05-01T06:31:45.425Z</time></trkpt><trkpt lat="45.0615783" lon="11.6940183"><ele>4.666666666666667</ele><time>2026-05-01T06:31:47.425Z</time></trkpt><trkpt lat="45.0616717" lon="11.6941283"><ele>4.833333333333334</ele><time>2026-05-01T06:31:49.426Z</time></trkpt><trkpt lat="45.0617183" lon="11.69419"><ele>5.0</ele><time>2026-05-01T06:31:50.392Z</time></trkpt><trkpt lat="45.0617683" lon="11.694255"><ele>5.142857142857142</ele><time>2026-05-01T06:31:51.424Z</time></trkpt><trkpt lat="45.0618167" lon="11.6943267"><ele>5.285714285714286</ele><time>2026-05-01T06:31:52.415Z</time></trkpt><trkpt lat="45.0618667" lon="11.6944017"><ele>5.428571428571429</ele><time>2026-05-01T06:31:53.425Z</time></trkpt><trkpt lat="45.061915" lon="11.6944767"><ele>5.571428571428571</ele><time>2026-05-01T06:31:54.426Z</time></trkpt><trkpt lat="45.06196" lon="11.6945567"><ele>5.714285714285714</ele><time>2026-05-01T06:31:55.427Z</time></trkpt><trkpt lat="45.0619983" lon="11.6946417"><ele>5.857142857142857</ele><time>2026-05-01T06:31:56.396Z</time></trkpt><trkpt lat="45.0620333" lon="11.6947333"><ele>6.0</ele><time>2026-05-01T06:31:57.424Z</time></trkpt><trkpt lat="45.0620667" lon="11.694825"><ele>5.999999999999999</ele><time>2026-05-01T06:31:58.424Z</time></trkpt><trkpt lat="45.0621033" lon="11.6949083"><ele>6.0</ele><time>2026-05-01T06:31:59.427Z</time></trkpt><trkpt lat="45.06215" lon="11.694975"><ele>6.0</ele><time>2026-05-01T06:32:00.422Z</time></trkpt><trkpt lat="45.0622133" lon="11.6950233"><ele>6.0</ele><time>2026-05-01T06:32:01.421Z</time></trkpt><trkpt lat="45.062285" lon="11.6950483"><ele>6.0</ele><time>2026-05-01T06:32:02.427Z</time></trkpt><trkpt lat="45.06236" lon="11.69505"><ele>5.999999999999999</ele><time>2026-05-01T06:32:03.407Z</time></trkpt><trkpt lat="45.0624333" lon="11.69504"><ele>6.0</ele><time>2026-05-01T06:32:04.392Z</time></trkpt><trkpt lat="45.0625083" lon="11.695025"><ele>5.857142857142857</ele><time>2026-05-01T06:32:05.423Z</time></trkpt><trkpt lat="45.06258" lon="11.695005"><ele>5.714285714285714</ele><time>2026-05-01T06:32:06.391Z</time></trkpt><trkpt lat="45.0626533" lon="11.6949867"><ele>5.571428571428571</ele><time>2026-05-01T06:32:07.423Z</time></trkpt><trkpt lat="45.062725" lon="11.6949683"><ele>5.428571428571429</ele><time>2026-05-01T06:32:08.429Z</time></trkpt><trkpt lat="45.0627933" lon="11.69495"><ele>5.285714285714286</ele><time>2026-05-01T06:32:09.433Z</time></trkpt><trkpt lat="45.062865" lon="11.6949383"><ele>5.142857142857142</ele><time>2026-05-01T06:32:10.421Z</time></trkpt><trkpt lat="45.0629333" lon="11.69491"><ele>5.0</ele><time>2026-05-01T06:32:11.423Z</time></trkpt><trkpt lat="45.063005" lon="11.694885"><ele>5.0</ele><time>2026-05-01T06:32:12.426Z</time></trkpt><trkpt lat="45.06308" lon="11.694865"><ele>5.0</ele><time>2026-05-01T06:32:13.422Z</time></trkpt><trkpt lat="45.0631567" lon="11.6948433"><ele>5.0</ele><time>2026-05-01T06:32:14.424Z</time></trkpt><trkpt lat="45.0632317" lon="11.69482"><ele>5.0</ele><time>2026-05-01T06:32:15.427Z</time></trkpt><trkpt lat="45.063305" lon="11.6947933"><ele>5.0</ele><time>2026-05-01T06:32:16.429Z</time></trkpt><trkpt lat="45.0633767" lon="11.6947683"><ele>5.0</ele><time>2026-05-01T06:32:17.422Z</time></trkpt><trkpt lat="45.0634483" lon="11.69474"><ele>4.666666666666667</ele><time>2026-05-01T06:32:18.422Z</time></trkpt><trkpt lat="45.0635217" lon="11.69471"><ele>4.333333333333334</ele><time>2026-05-01T06:32:19.425Z</time></trkpt><trkpt lat="45.063595" lon="11.69468"><ele>4.0</ele><time>2026-05-01T06:32:20.428Z</time></trkpt><trkpt lat="45.0636733" lon="11.694655"><ele>3.666666666666667</ele><time>2026-05-01T06:32:21.427Z</time></trkpt><trkpt lat="45.0637483" lon="11.694625"><ele>3.3333333333333335</ele><time>2026-05-01T06:32:22.407Z</time></trkpt><trkpt lat="45.063825" lon="11.6946"><ele>3.0</ele><time>2026-05-01T06:32:23.419Z</time></trkpt><trkpt lat="45.0639017" lon="11.6945733"><ele>2.9999999999999996</ele><time>2026-05-01T06:32:24.434Z</time></trkpt><trkpt lat="45.063975" lon="11.6945467"><ele>3.0</ele><time>2026-05-01T06:32:25.425Z</time></trkpt><trkpt lat="45.0640483" lon="11.69452"><ele>3.0</ele><time>2026-05-01T06:32:26.426Z</time></trkpt><trkpt lat="45.0641217" lon="11.694495"><ele>3.0</ele><time>2026-05-01T06:32:27.426Z</time></trkpt><trkpt lat="45.0641933" lon="11.6944683"><ele>3.0</ele><time>2026-05-01T06:32:28.425Z</time></trkpt><trkpt lat="45.064265" lon="11.69444"><ele>2.9999999999999996</ele><time>2026-05-01T06:32:29.425Z</time></trkpt><trkpt lat="45.0643333" lon="11.6944017"><ele>3.0</ele><time>2026-05-01T06:32:30.427Z</time></trkpt><trkpt lat="45.0643967" lon="11.6943467"><ele>2.714285714285714</ele><time>2026-05-01T06:32:31.421Z</time></trkpt><trkpt lat="45.0644467" lon="11.6942717"><ele>2.4285714285714284</ele><time>2026-05-01T06:32:32.42Z</time></trkpt><trkpt lat="45.0644817" lon="11.6941783"><ele>2.142857142857143</ele><time>2026-05-01T06:32:33.428Z</time></trkpt><trkpt lat="45.064505" lon="11.6940767"><ele>1.857142857142857</ele><time>2026-05-01T06:32:34.427Z</time></trkpt><trkpt lat="45.064515" lon="11.6939717"><ele>1.5714285714285712</ele><time>2026-05-01T06:32:35.423Z</time></trkpt><trkpt lat="45.0645117" lon="11.6938667"><ele>1.2857142857142856</ele><time>2026-05-01T06:32:36.427Z</time></trkpt><trkpt lat="45.0645" lon="11.693765"><ele>1.0</ele><time>2026-05-01T06:32:37.428Z</time></trkpt><trkpt lat="45.0644817" lon="11.6936633"><ele>1.1428571428571428</ele><time>2026-05-01T06:32:38.396Z</time></trkpt><trkpt lat="45.06446" lon="11.693565"><ele>1.2857142857142856</ele><time>2026-05-01T06:32:39.417Z</time></trkpt><trkpt lat="45.064435" lon="11.69347"><ele>1.4285714285714284</ele><time>2026-05-01T06:32:40.423Z</time></trkpt><trkpt lat="45.0644083" lon="11.693375"><ele>1.5714285714285714</ele><time>2026-05-01T06:32:41.422Z</time></trkpt><trkpt lat="45.0643833" lon="11.6932767"><ele>1.714285714285714</ele><time>2026-05-01T06:32:42.423Z</time></trkpt><trkpt lat="45.0643583" lon="11.6931783"><ele>1.857142857142857</ele><time>2026-05-01T06:32:43.426Z</time></trkpt><trkpt lat="45.0643317" lon="11.6930817"><ele>2.0</ele><time>2026-05-01T06:32:44.435Z</time></trkpt><trkpt lat="45.0643067" lon="11.692985"><ele>2.0</ele><time>2026-05-01T06:32:45.425Z</time></trkpt><trkpt lat="45.0642833" lon="11.69289"><ele>1.9999999999999998</ele><time>2026-05-01T06:32:46.392Z</time></trkpt><trkpt lat="45.0642567" lon="11.692795"><ele>2.0</ele><time>2026-05-01T06:32:47.411Z</time></trkpt><trkpt lat="45.06423" lon="11.6926967"><ele>2.0</ele><time>2026-05-01T06:32:48.424Z</time></trkpt><trkpt lat="45.0642033" lon="11.6925983"><ele>1.9999999999999998</ele><time>2026-05-01T06:32:49.421Z</time></trkpt><trkpt lat="45.0641767" lon="11.6925"><ele>2.0</ele><time>2026-05-01T06:32:50.424Z</time></trkpt><trkpt lat="45.06415" lon="11.6924017"><ele>2.0</ele><time>2026-05-01T06:32:51.425Z</time></trkpt><trkpt lat="45.064125" lon="11.6923017"><ele>2.0</ele><time>2026-05-01T06:32:52.426Z</time></trkpt><trkpt lat="45.0641017" lon="11.6922033"><ele>1.9999999999999998</ele><time>2026-05-01T06:32:53.427Z</time></trkpt><trkpt lat="45.064075" lon="11.692105"><ele>2.0</ele><time>2026-05-01T06:32:54.4Z</time></trkpt><trkpt lat="45.0640517" lon="11.6920083"><ele>2.0</ele><time>2026-05-01T06:32:55.425Z</time></trkpt><trkpt lat="45.064025" lon="11.69191"><ele>1.9999999999999998</ele><time>2026-05-01T06:32:56.401Z</time></trkpt><trkpt lat="45.0639967" lon="11.6918117"><ele>2.0</ele><time>2026-05-01T06:32:57.424Z</time></trkpt><trkpt lat="45.0639733" lon="11.6917133"><ele>2.0</ele><time>2026-05-01T06:32:58.425Z</time></trkpt><trkpt lat="45.0639567" lon="11.6916133"><ele>2.0</ele><time>2026-05-01T06:32:59.428Z</time></trkpt><trkpt lat="45.0639517" lon="11.6915117"><ele>1.9999999999999998</ele><time>2026-05-01T06:33:00.424Z</time></trkpt><trkpt lat="45.063955" lon="11.6914117"><ele>2.0</ele><time>2026-05-01T06:33:01.428Z</time></trkpt><trkpt lat="45.0639683" lon="11.691315"><ele>2.0</ele><time>2026-05-01T06:33:02.428Z</time></trkpt><trkpt lat="45.0639867" lon="11.6912217"><ele>1.9999999999999998</ele><time>2026-05-01T06:33:03.416Z</time></trkpt><trkpt lat="45.0640167" lon="11.6911383"><ele>2.0</ele><time>2026-05-01T06:33:04.417Z</time></trkpt><trkpt lat="45.06406" lon="11.6910667"><ele>2.0</ele><time>2026-05-01T06:33:05.43Z</time></trkpt><trkpt lat="45.06411" lon="11.6910067"><ele>1.75</ele><time>2026-05-01T06:33:06.426Z</time></trkpt><trkpt lat="45.0642133" lon="11.6909183"><ele>1.5</ele><time>2026-05-01T06:33:08.394Z</time></trkpt><trkpt lat="45.0643117" lon="11.69085"><ele>1.25</ele><time>2026-05-01T06:33:10.394Z</time></trkpt><trkpt lat="45.064415" lon="11.6907733"><ele>1.0</ele><time>2026-05-01T06:33:12.39Z</time></trkpt><trkpt lat="45.0645183" lon="11.6906767"><ele>1.0</ele><time>2026-05-01T06:33:14.405Z</time></trkpt><trkpt lat="45.0645733" lon="11.69063"><ele>1.0</ele><time>2026-05-01T06:33:15.397Z</time></trkpt><trkpt lat="45.06467" lon="11.69056"><ele>1.0</ele><time>2026-05-01T06:33:17.406Z</time></trkpt><trkpt lat="45.0647633" lon="11.690495"><ele>1.0</ele><time>2026-05-01T06:33:19.39Z</time></trkpt><trkpt lat="45.0648617" lon="11.6904283"><ele>1.0</ele><time>2026-05-01T06:33:21.398Z</time></trkpt><trkpt lat="45.064955" lon="11.6903617"><ele>1.4</ele><time>2026-05-01T06:33:23.393Z</time></trkpt><trkpt lat="45.0650567" lon="11.6903"><ele>1.8</ele><time>2026-05-01T06:33:25.425Z</time></trkpt><trkpt lat="45.0651617" lon="11.69024"><ele>2.1999999999999997</ele><time>2026-05-01T06:33:27.419Z</time></trkpt><trkpt lat="45.0652683" lon="11.6901883"><ele>2.6</ele><time>2026-05-01T06:33:29.398Z</time></trkpt><trkpt lat="45.065375" lon="11.69014"><ele>3.0</ele><time>2026-05-01T06:33:31.404Z</time></trkpt><trkpt lat="45.0654817" lon="11.6901083"><ele>3.0</ele><time>2026-05-01T06:33:33.397Z</time></trkpt><trkpt lat="45.0655867" lon="11.6900767"><ele>3.0</ele><time>2026-05-01T06:33:35.41Z</time></trkpt><trkpt lat="45.0656867" lon="11.69004"><ele>3.0</ele><time>2026-05-01T06:33:37.419Z</time></trkpt><trkpt lat="45.065785" lon="11.6899933"><ele>3.0</ele><time>2026-05-01T06:33:39.423Z</time></trkpt><trkpt lat="45.06588" lon="11.6899367"><ele>3.0</ele><time>2026-05-01T06:33:41.421Z</time></trkpt><trkpt lat="45.0659733" lon="11.6898683"><ele>3.0</ele><time>2026-05-01T06:33:43.412Z</time></trkpt><trkpt lat="45.0660683" lon="11.68979"><ele>3.0</ele><time>2026-05-01T06:33:45.424Z</time></trkpt><trkpt lat="45.0661717" lon="11.6897067"><ele>3.0</ele><time>2026-05-01T06:33:47.39Z</time></trkpt><trkpt lat="45.0662783" lon="11.6896283"><ele>3.0</ele><time>2026-05-01T06:33:49.418Z</time></trkpt><trkpt lat="45.0663817" lon="11.6895517"><ele>3.0</ele><time>2026-05-01T06:33:51.424Z</time></trkpt><trkpt lat="45.066485" lon="11.6894733"><ele>3.0</ele><time>2026-05-01T06:33:53.418Z</time></trkpt><trkpt lat="45.0665817" lon="11.6894017"><ele>3.0</ele><time>2026-05-01T06:33:55.429Z</time></trkpt><trkpt lat="45.0666733" lon="11.6893283"><ele>3.0</ele><time>2026-05-01T06:33:57.423Z</time></trkpt><trkpt lat="45.0667633" lon="11.6892667"><ele>3.0</ele><time>2026-05-01T06:33:59.416Z</time></trkpt><trkpt lat="45.0668467" lon="11.6892083"><ele>2.8</ele><time>2026-05-01T06:34:01.427Z</time></trkpt><trkpt lat="45.06693" lon="11.68914"><ele>2.5999999999999996</ele><time>2026-05-01T06:34:03.416Z</time></trkpt><trkpt lat="45.067015" lon="11.6890733"><ele>2.4000000000000004</ele><time>2026-05-01T06:34:05.414Z</time></trkpt><trkpt lat="45.067105" lon="11.689005"><ele>2.2</ele><time>2026-05-01T06:34:07.422Z</time></trkpt><trkpt lat="45.0671983" lon="11.6889333"><ele>2.0</ele><time>2026-05-01T06:34:09.427Z</time></trkpt><trkpt lat="45.067285" lon="11.6888667"><ele>2.0</ele><time>2026-05-01T06:34:11.416Z</time></trkpt><trkpt lat="45.067375" lon="11.688805"><ele>2.0</ele><time>2026-05-01T06:34:13.423Z</time></trkpt><trkpt lat="45.0674667" lon="11.6887383"><ele>2.0</ele><time>2026-05-01T06:34:15.422Z</time></trkpt><trkpt lat="45.0676" lon="11.6886333"><ele>2.0</ele><time>2026-05-01T06:34:18.418Z</time></trkpt><trkpt lat="45.0676933" lon="11.6885633"><ele>2.2</ele><time>2026-05-01T06:34:20.424Z</time></trkpt><trkpt lat="45.0677883" lon="11.6884883"><ele>2.4000000000000004</ele><time>2026-05-01T06:34:22.419Z</time></trkpt><trkpt lat="45.0678833" lon="11.6884133"><ele>2.5999999999999996</ele><time>2026-05-01T06:34:24.414Z</time></trkpt><trkpt lat="45.0679767" lon="11.68834"><ele>2.8</ele><time>2026-05-01T06:34:26.419Z</time></trkpt><trkpt lat="45.06807" lon="11.6882683"><ele>3.0</ele><time>2026-05-01T06:34:28.422Z</time></trkpt><trkpt lat="45.0681683" lon="11.6881967"><ele>3.0</ele><time>2026-05-01T06:34:30.396Z</time></trkpt><trkpt lat="45.0682667" lon="11.6881267"><ele>3.0</ele><time>2026-05-01T06:34:32.427Z</time></trkpt><trkpt lat="45.0683633" lon="11.6880617"><ele>3.0</ele><time>2026-05-01T06:34:34.426Z</time></trkpt><trkpt lat="45.06846" lon="11.6879917"><ele>3.0</ele><time>2026-05-01T06:34:36.426Z</time></trkpt><trkpt lat="45.0685617" lon="11.6879183"><ele>3.0</ele><time>2026-05-01T06:34:38.43Z</time></trkpt><trkpt lat="45.06866" lon="11.687845"><ele>2.8333333333333335</ele><time>2026-05-01T06:34:40.423Z</time></trkpt><trkpt lat="45.0687667" lon="11.6877683"><ele>2.6666666666666665</ele><time>2026-05-01T06:34:42.423Z</time></trkpt><trkpt lat="45.068875" lon="11.68769"><ele>2.5</ele><time>2026-05-01T06:34:44.424Z</time></trkpt><trkpt lat="45.0689317" lon="11.6876483"><ele>2.333333333333333</ele><time>2026-05-01T06:34:45.427Z</time></trkpt><trkpt lat="45.0689883" lon="11.6876067"><ele>2.1666666666666665</ele><time>2026-05-01T06:34:46.405Z</time></trkpt><trkpt lat="45.0690467" lon="11.687565"><ele>2.0</ele><time>2026-05-01T06:34:47.415Z</time></trkpt><trkpt lat="45.0691033" lon="11.6875233"><ele>2.0</ele><time>2026-05-01T06:34:48.415Z</time></trkpt><trkpt lat="45.0691617" lon="11.6874817"><ele>1.9999999999999998</ele><time>2026-05-01T06:34:49.423Z</time></trkpt><trkpt lat="45.06922" lon="11.68744"><ele>2.0</ele><time>2026-05-01T06:34:50.428Z</time></trkpt><trkpt lat="45.0692783" lon="11.6874"><ele>2.0</ele><time>2026-05-01T06:34:51.425Z</time></trkpt><trkpt lat="45.0693383" lon="11.6873567"><ele>1.9999999999999998</ele><time>2026-05-01T06:34:52.385Z</time></trkpt><trkpt lat="45.069395" lon="11.687315"><ele>2.0</ele><time>2026-05-01T06:34:53.417Z</time></trkpt><trkpt lat="45.0694533" lon="11.6872733"><ele>2.0</ele><time>2026-05-01T06:34:54.419Z</time></trkpt><trkpt lat="45.0695117" lon="11.68723"><ele>2.0</ele><time>2026-05-01T06:34:55.406Z</time></trkpt><trkpt lat="45.06957" lon="11.6871883"><ele>1.9999999999999998</ele><time>2026-05-01T06:34:56.402Z</time></trkpt><trkpt lat="45.06963" lon="11.6871467"><ele>2.0</ele><time>2026-05-01T06:34:57.411Z</time></trkpt><trkpt lat="45.0696883" lon="11.687105"><ele>2.0</ele><time>2026-05-01T06:34:58.403Z</time></trkpt><trkpt lat="45.0697467" lon="11.6870633"><ele>1.9999999999999998</ele><time>2026-05-01T06:34:59.41Z</time></trkpt><trkpt lat="45.0698033" lon="11.6870217"><ele>2.0</ele><time>2026-05-01T06:35:00.403Z</time></trkpt><trkpt lat="45.0698633" lon="11.6869767"><ele>2.0</ele><time>2026-05-01T06:35:01.405Z</time></trkpt><trkpt lat="45.069925" lon="11.68693"><ele>2.142857142857143</ele><time>2026-05-01T06:35:02.391Z</time></trkpt><trkpt lat="45.0699883" lon="11.6868917"><ele>2.2857142857142856</ele><time>2026-05-01T06:35:03.39Z</time></trkpt><trkpt lat="45.07005" lon="11.686855"><ele>2.4285714285714284</ele><time>2026-05-01T06:35:04.417Z</time></trkpt><trkpt lat="45.0701117" lon="11.6868133"><ele>2.571428571428571</ele><time>2026-05-01T06:35:05.402Z</time></trkpt><trkpt lat="45.0701667" lon="11.6867633"><ele>2.7142857142857144</ele><time>2026-05-01T06:35:06.392Z</time></trkpt><trkpt lat="45.0702233" lon="11.68671"><ele>2.8571428571428568</ele><time>2026-05-01T06:35:07.397Z</time></trkpt><trkpt lat="45.07028" lon="11.6866583"><ele>3.0</ele><time>2026-05-01T06:35:08.396Z</time></trkpt><trkpt lat="45.0703367" lon="11.6866083"><ele>2.9999999999999996</ele><time>2026-05-01T06:35:09.39Z</time></trkpt><trkpt lat="45.070395" lon="11.68657"><ele>3.0</ele><time>2026-05-01T06:35:10.398Z</time></trkpt><trkpt lat="45.070455" lon="11.686525"><ele>3.0</ele><time>2026-05-01T06:35:11.411Z</time></trkpt><trkpt lat="45.0705117" lon="11.6864717"><ele>3.0</ele><time>2026-05-01T06:35:12.395Z</time></trkpt><trkpt lat="45.0705717" lon="11.6864233"><ele>3.0</ele><time>2026-05-01T06:35:13.422Z</time></trkpt><trkpt lat="45.0706317" lon="11.68638"><ele>2.9999999999999996</ele><time>2026-05-01T06:35:14.431Z</time></trkpt><trkpt lat="45.0706933" lon="11.686335"><ele>3.0</ele><time>2026-05-01T06:35:15.4Z</time></trkpt><trkpt lat="45.0707517" lon="11.6862867"><ele>2.9999999999999996</ele><time>2026-05-01T06:35:16.386Z</time></trkpt><trkpt lat="45.070815" lon="11.6862433"><ele>3.0</ele><time>2026-05-01T06:35:17.382Z</time></trkpt><trkpt lat="45.0708783" lon="11.686195"><ele>3.0</ele><time>2026-05-01T06:35:18.381Z</time></trkpt><trkpt lat="45.0709383" lon="11.6861433"><ele>3.0</ele><time>2026-05-01T06:35:19.397Z</time></trkpt><trkpt lat="45.0709967" lon="11.6860917"><ele>3.0</ele><time>2026-05-01T06:35:20.389Z</time></trkpt><trkpt lat="45.0710517" lon="11.68604"><ele>2.9999999999999996</ele><time>2026-05-01T06:35:21.387Z</time></trkpt><trkpt lat="45.0711117" lon="11.6859917"><ele>3.0</ele><time>2026-05-01T06:35:22.396Z</time></trkpt><trkpt lat="45.07117" lon="11.6859433"><ele>3.0</ele><time>2026-05-01T06:35:23.395Z</time></trkpt><trkpt lat="45.0712267" lon="11.685895"><ele>3.0</ele><time>2026-05-01T06:35:24.423Z</time></trkpt><trkpt lat="45.071285" lon="11.6858467"><ele>3.0</ele><time>2026-05-01T06:35:25.392Z</time></trkpt><trkpt lat="45.0713467" lon="11.6857967"><ele>3.0</ele><time>2026-05-01T06:35:26.389Z</time></trkpt><trkpt lat="45.0714067" lon="11.6857517"><ele>3.0</ele><time>2026-05-01T06:35:27.393Z</time></trkpt><trkpt lat="45.0715067" lon="11.6856583"><ele>3.0</ele><time>2026-05-01T06:35:29.391Z</time></trkpt><trkpt lat="45.0716117" lon="11.6855683"><ele>2.5</ele><time>2026-05-01T06:35:31.391Z</time></trkpt><trkpt lat="45.0717233" lon="11.68548"><ele>2.0</ele><time>2026-05-01T06:35:33.397Z</time></trkpt><trkpt lat="45.071835" lon="11.6853917"><ele>1.5</ele><time>2026-05-01T06:35:35.391Z</time></trkpt><trkpt lat="45.07194" lon="11.6853067"><ele>1.0</ele><time>2026-05-01T06:35:37.391Z</time></trkpt><trkpt lat="45.0720467" lon="11.685215"><ele>0.9999999999999999</ele><time>2026-05-01T06:35:39.393Z</time></trkpt><trkpt lat="45.0721533" lon="11.685125"><ele>1.0</ele><time>2026-05-01T06:35:41.392Z</time></trkpt><trkpt lat="45.0722583" lon="11.6850333"><ele>1.0</ele><time>2026-05-01T06:35:43.394Z</time></trkpt><trkpt lat="45.0723133" lon="11.6849883"><ele>1.0</ele><time>2026-05-01T06:35:44.394Z</time></trkpt><trkpt lat="45.0723683" lon="11.6849417"><ele>0.9999999999999999</ele><time>2026-05-01T06:35:45.39Z</time></trkpt><trkpt lat="45.0724233" lon="11.684895"><ele>1.0</ele><time>2026-05-01T06:35:46.393Z</time></trkpt><trkpt lat="45.07248" lon="11.6848517"><ele>1.1666666666666665</ele><time>2026-05-01T06:35:47.389Z</time></trkpt><trkpt lat="45.0725367" lon="11.684805"><ele>1.3333333333333333</ele><time>2026-05-01T06:35:48.388Z</time></trkpt><trkpt lat="45.0726467" lon="11.6847183"><ele>1.5</ele><time>2026-05-01T06:35:50.389Z</time></trkpt><trkpt lat="45.072705" lon="11.6846767"><ele>1.6666666666666665</ele><time>2026-05-01T06:35:51.391Z</time></trkpt><trkpt lat="45.0727617" lon="11.684635"><ele>1.8333333333333333</ele><time>2026-05-01T06:35:52.414Z</time></trkpt><trkpt lat="45.0728183" lon="11.6845917"><ele>2.0</ele><time>2026-05-01T06:35:53.392Z</time></trkpt><trkpt lat="45.0729283" lon="11.68451"><ele>1.9999999999999998</ele><time>2026-05-01T06:35:55.394Z</time></trkpt><trkpt lat="45.0730433" lon="11.6844367"><ele>2.0</ele><time>2026-05-01T06:35:57.393Z</time></trkpt><trkpt lat="45.0731017" lon="11.6844017"><ele>2.0</ele><time>2026-05-01T06:35:58.394Z</time></trkpt><trkpt lat="45.0731583" lon="11.6843617"><ele>2.0</ele><time>2026-05-01T06:35:59.393Z</time></trkpt><trkpt lat="45.073215" lon="11.6843217"><ele>1.9999999999999998</ele><time>2026-05-01T06:36:00.391Z</time></trkpt><trkpt lat="45.07333" lon="11.684245"><ele>2.0</ele><time>2026-05-01T06:36:02.393Z</time></trkpt><trkpt lat="45.0733883" lon="11.684205"><ele>2.2857142857142856</ele><time>2026-05-01T06:36:03.393Z</time></trkpt><trkpt lat="45.0734467" lon="11.6841633"><ele>2.571428571428571</ele><time>2026-05-01T06:36:04.417Z</time></trkpt><trkpt lat="45.073505" lon="11.684125"><ele>2.8571428571428568</ele><time>2026-05-01T06:36:05.389Z</time></trkpt><trkpt lat="45.07362" lon="11.68405"><ele>3.142857142857143</ele><time>2026-05-01T06:36:07.391Z</time></trkpt><trkpt lat="45.0736783" lon="11.6840133"><ele>3.428571428571428</ele><time>2026-05-01T06:36:08.421Z</time></trkpt><trkpt lat="45.0737383" lon="11.6839783"><ele>3.714285714285714</ele><time>2026-05-01T06:36:09.401Z</time></trkpt><trkpt lat="45.0737967" lon="11.6839417"><ele>4.0</ele><time>2026-05-01T06:36:10.416Z</time></trkpt><trkpt lat="45.0739083" lon="11.68387"><ele>4.0</ele><time>2026-05-01T06:36:12.425Z</time></trkpt><trkpt lat="45.0740233" lon="11.6838067"><ele>4.0</ele><time>2026-05-01T06:36:14.432Z</time></trkpt><trkpt lat="45.074135" lon="11.68375"><ele>4.0</ele><time>2026-05-01T06:36:16.454Z</time></trkpt><trkpt lat="45.0742467" lon="11.6836967"><ele>4.0</ele><time>2026-05-01T06:36:18.425Z</time></trkpt><trkpt lat="45.0743583" lon="11.6836383"><ele>3.75</ele><time>2026-05-01T06:36:20.423Z</time></trkpt><trkpt lat="45.0744667" lon="11.6835783"><ele>3.5</ele><time>2026-05-01T06:36:22.42Z</time></trkpt><trkpt lat="45.07457" lon="11.6835067"><ele>3.25</ele><time>2026-05-01T06:36:24.423Z</time></trkpt><trkpt lat="45.0746717" lon="11.6834183"><ele>3.0</ele><time>2026-05-01T06:36:26.427Z</time></trkpt><trkpt lat="45.0747733" lon="11.6833167"><ele>3.0</ele><time>2026-05-01T06:36:28.425Z</time></trkpt><trkpt lat="45.0748717" lon="11.68321"><ele>3.0</ele><time>2026-05-01T06:36:30.407Z</time></trkpt><trkpt lat="45.0749683" lon="11.6830933"><ele>3.0</ele><time>2026-05-01T06:36:32.424Z</time></trkpt><trkpt lat="45.0750167" lon="11.683035"><ele>3.0</ele><time>2026-05-01T06:36:33.431Z</time></trkpt><trkpt lat="45.075065" lon="11.6829767"><ele>3.0</ele><time>2026-05-01T06:36:34.398Z</time></trkpt><trkpt lat="45.0751133" lon="11.682915"><ele>3.0</ele><time>2026-05-01T06:36:35.424Z</time></trkpt><trkpt lat="45.07516" lon="11.6828533"><ele>3.25</ele><time>2026-05-01T06:36:36.416Z</time></trkpt><trkpt lat="45.0752533" lon="11.68273"><ele>3.5</ele><time>2026-05-01T06:36:38.425Z</time></trkpt><trkpt lat="45.0753417" lon="11.6826033"><ele>3.75</ele><time>2026-05-01T06:36:40.422Z</time></trkpt><trkpt lat="45.075425" lon="11.6824783"><ele>4.0</ele><time>2026-05-01T06:36:42.427Z</time></trkpt><trkpt lat="45.0755017" lon="11.6823567"><ele>4.0</ele><time>2026-05-01T06:36:44.425Z</time></trkpt><trkpt lat="45.0755733" lon="11.6822383"><ele>4.0</ele><time>2026-05-01T06:36:46.416Z</time></trkpt><trkpt lat="45.07564" lon="11.6821167"><ele>4.0</ele><time>2026-05-01T06:36:48.421Z</time></trkpt><trkpt lat="45.0757083" lon="11.682"><ele>4.0</ele><time>2026-05-01T06:36:50.423Z</time></trkpt><trkpt lat="45.07577" lon="11.681905"><ele>4.0</ele><time>2026-05-01T06:36:52.423Z</time></trkpt><trkpt lat="45.07584" lon="11.6818467"><ele>4.5</ele><time>2026-05-01T06:36:54.4Z</time></trkpt><trkpt lat="45.0759133" lon="11.6817933"><ele>5.0</ele><time>2026-05-01T06:36:56.419Z</time></trkpt><trkpt lat="45.075975" lon="11.6817433"><ele>5.5</ele><time>2026-05-01T06:36:59.421Z</time></trkpt><trkpt lat="45.0760183" lon="11.6816367"><ele>6.0</ele><time>2026-05-01T06:37:02.413Z</time></trkpt><trkpt lat="45.0760283" lon="11.68154"><ele>6.500000000000001</ele><time>2026-05-01T06:37:04.418Z</time></trkpt><trkpt lat="45.0760583" lon="11.6814383"><ele>7.0</ele><time>2026-05-01T06:37:06.418Z</time></trkpt><trkpt lat="45.07612" lon="11.6813367"><ele>7.0</ele><time>2026-05-01T06:37:08.424Z</time></trkpt><trkpt lat="45.0762033" lon="11.681235"><ele>6.999999999999999</ele><time>2026-05-01T06:37:10.429Z</time></trkpt><trkpt lat="45.0763067" lon="11.6811583"><ele>6.999999999999999</ele><time>2026-05-01T06:37:12.4Z</time></trkpt><trkpt lat="45.07641" lon="11.6811083"><ele>7.0</ele><time>2026-05-01T06:37:14.427Z</time></trkpt><trkpt lat="45.0765167" lon="11.6810583"><ele>7.0</ele><time>2026-05-01T06:37:16.425Z</time></trkpt><trkpt lat="45.0766167" lon="11.6810017"><ele>6.3999999999999995</ele><time>2026-05-01T06:37:18.404Z</time></trkpt><trkpt lat="45.076715" lon="11.680935"><ele>5.799999999999999</ele><time>2026-05-01T06:37:20.422Z</time></trkpt><trkpt lat="45.07681" lon="11.68088"><ele>5.2</ele><time>2026-05-01T06:37:22.423Z</time></trkpt><trkpt lat="45.076905" lon="11.6808233"><ele>4.6</ele><time>2026-05-01T06:37:24.412Z</time></trkpt><trkpt lat="45.0770033" lon="11.680765"><ele>4.0</ele><time>2026-05-01T06:37:26.426Z</time></trkpt><trkpt lat="45.0771067" lon="11.6807067"><ele>4.0</ele><time>2026-05-01T06:37:28.396Z</time></trkpt><trkpt lat="45.0772117" lon="11.6806467"><ele>4.0</ele><time>2026-05-01T06:37:30.43Z</time></trkpt><trkpt lat="45.0773133" lon="11.6805867"><ele>4.0</ele><time>2026-05-01T06:37:32.424Z</time></trkpt><trkpt lat="45.0774117" lon="11.68053"><ele>4.0</ele><time>2026-05-01T06:37:34.424Z</time></trkpt><trkpt lat="45.0775067" lon="11.6804717"><ele>4.0</ele><time>2026-05-01T06:37:36.424Z</time></trkpt><trkpt lat="45.0776083" lon="11.6804183"><ele>4.2</ele><time>2026-05-01T06:37:38.403Z</time></trkpt><trkpt lat="45.0777117" lon="11.680365"><ele>4.4</ele><time>2026-05-01T06:37:40.42Z</time></trkpt><trkpt lat="45.0778133" lon="11.6803083"><ele>4.6</ele><time>2026-05-01T06:37:42.422Z</time></trkpt><trkpt lat="45.077915" lon="11.6802367"><ele>4.8</ele><time>2026-05-01T06:37:44.391Z</time></trkpt><trkpt lat="45.0780067" lon="11.68015"><ele>5.0</ele><time>2026-05-01T06:37:46.423Z</time></trkpt><trkpt lat="45.0780933" lon="11.6800533"><ele>5.0</ele><time>2026-05-01T06:37:48.424Z</time></trkpt><trkpt lat="45.0781717" lon="11.67995"><ele>5.0</ele><time>2026-05-01T06:37:50.413Z</time></trkpt><trkpt lat="45.0782517" lon="11.6798417"><ele>5.0</ele><time>2026-05-01T06:37:52.429Z</time></trkpt><trkpt lat="45.07834" lon="11.67973"><ele>5.0</ele><time>2026-05-01T06:37:54.414Z</time></trkpt><trkpt lat="45.0784367" lon="11.6796267"><ele>4.75</ele><time>2026-05-01T06:37:56.427Z</time></trkpt><trkpt lat="45.07854" lon="11.6795433"><ele>4.5</ele><time>2026-05-01T06:37:58.427Z</time></trkpt><trkpt lat="45.078645" lon="11.6794633"><ele>4.25</ele><time>2026-05-01T06:38:00.397Z</time></trkpt><trkpt lat="45.078755" lon="11.6793883"><ele>4.0</ele><time>2026-05-01T06:38:02.426Z</time></trkpt><trkpt lat="45.0788633" lon="11.6793117"><ele>4.0</ele><time>2026-05-01T06:38:04.428Z</time></trkpt><trkpt lat="45.0789683" lon="11.679235"><ele>4.0</ele><time>2026-05-01T06:38:06.423Z</time></trkpt><trkpt lat="45.079075" lon="11.6791633"><ele>4.0</ele><time>2026-05-01T06:38:08.425Z</time></trkpt><trkpt lat="45.0791817" lon="11.679095"><ele>4.0</ele><time>2026-05-01T06:38:10.426Z</time></trkpt><trkpt lat="45.0792817" lon="11.679005"><ele>4.0</ele><time>2026-05-01T06:38:12.422Z</time></trkpt><trkpt lat="45.07938" lon="11.6789"><ele>4.0</ele><time>2026-05-01T06:38:14.425Z</time></trkpt><trkpt lat="45.0794733" lon="11.67879"><ele>4.0</ele><time>2026-05-01T06:38:16.411Z</time></trkpt><trkpt lat="45.0795667" lon="11.6786767"><ele>4.0</ele><time>2026-05-01T06:38:18.401Z</time></trkpt><trkpt lat="45.07966" lon="11.6785683"><ele>3.8000000000000003</ele><time>2026-05-01T06:38:20.427Z</time></trkpt><trkpt lat="45.0797483" lon="11.6784467"><ele>3.6000000000000005</ele><time>2026-05-01T06:38:22.392Z</time></trkpt><trkpt lat="45.0798467" lon="11.6783417"><ele>3.4</ele><time>2026-05-01T06:38:24.423Z</time></trkpt><trkpt lat="45.0798967" lon="11.6782867"><ele>3.2</ele><time>2026-05-01T06:38:25.404Z</time></trkpt><trkpt lat="45.079995" lon="11.6781833"><ele>3.0</ele><time>2026-05-01T06:38:27.424Z</time></trkpt><trkpt lat="45.08009" lon="11.6780833"><ele>3.0</ele><time>2026-05-01T06:38:29.422Z</time></trkpt><trkpt lat="45.0801883" lon="11.6779883"><ele>3.0</ele><time>2026-05-01T06:38:31.428Z</time></trkpt><trkpt lat="45.0802933" lon="11.6778933"><ele>3.0</ele><time>2026-05-01T06:38:33.417Z</time></trkpt><trkpt lat="45.08039" lon="11.6778"><ele>3.0</ele><time>2026-05-01T06:38:35.4Z</time></trkpt><trkpt lat="45.0804833" lon="11.6777"><ele>3.0</ele><time>2026-05-01T06:38:37.426Z</time></trkpt><trkpt lat="45.0805817" lon="11.6776"><ele>3.0</ele><time>2026-05-01T06:38:39.407Z</time></trkpt><trkpt lat="45.080685" lon="11.6775083"><ele>3.0</ele><time>2026-05-01T06:38:41.407Z</time></trkpt><trkpt lat="45.0807883" lon="11.6774167"><ele>3.0</ele><time>2026-05-01T06:38:43.424Z</time></trkpt><trkpt lat="45.08089" lon="11.6773217"><ele>3.0</ele><time>2026-05-01T06:38:45.424Z</time></trkpt><trkpt lat="45.0809933" lon="11.6772267"><ele>3.0</ele><time>2026-05-01T06:38:47.429Z</time></trkpt><trkpt lat="45.0811" lon="11.6771367"><ele>3.0</ele><time>2026-05-01T06:38:49.414Z</time></trkpt><trkpt lat="45.0812017" lon="11.6770467"><ele>3.0</ele><time>2026-05-01T06:38:51.426Z</time></trkpt><trkpt lat="45.0813067" lon="11.6769617"><ele>3.0</ele><time>2026-05-01T06:38:53.421Z</time></trkpt><trkpt lat="45.0814133" lon="11.676885"><ele>3.0</ele><time>2026-05-01T06:38:55.421Z</time></trkpt><trkpt lat="45.0815167" lon="11.67681"><ele>3.0</ele><time>2026-05-01T06:38:57.426Z</time></trkpt><trkpt lat="45.0816333" lon="11.6767483"><ele>3.0</ele><time>2026-05-01T06:38:59.428Z</time></trkpt><trkpt lat="45.081745" lon="11.6766917"><ele>3.0</ele><time>2026-05-01T06:39:01.427Z</time></trkpt><trkpt lat="45.0818483" lon="11.67664"><ele>3.0</ele><time>2026-05-01T06:39:03.422Z</time></trkpt><trkpt lat="45.08195" lon="11.6765867"><ele>3.0</ele><time>2026-05-01T06:39:05.43Z</time></trkpt><trkpt lat="45.0820417" lon="11.67653"><ele>3.0</ele><time>2026-05-01T06:39:07.426Z</time></trkpt><trkpt lat="45.0820867" lon="11.6764283"><ele>3.0</ele><time>2026-05-01T06:39:09.422Z</time></trkpt><trkpt lat="45.0820933" lon="11.67629"><ele>3.0</ele><time>2026-05-01T06:39:11.422Z</time></trkpt><trkpt lat="45.082065" lon="11.67614"><ele>3.0</ele><time>2026-05-01T06:39:13.427Z</time></trkpt><trkpt lat="45.0820233" lon="11.675985"><ele>3.0</ele><time>2026-05-01T06:39:15.423Z</time></trkpt><trkpt lat="45.0819833" lon="11.675825"><ele>3.0</ele><time>2026-05-01T06:39:17.432Z</time></trkpt><trkpt lat="45.0819483" lon="11.6756617"><ele>3.0</ele><time>2026-05-01T06:39:19.422Z</time></trkpt><trkpt lat="45.081915" lon="11.6754933"><ele>3.0</ele><time>2026-05-01T06:39:21.421Z</time></trkpt><trkpt lat="45.0819" lon="11.6754067"><ele>3.0</ele><time>2026-05-01T06:39:22.421Z</time></trkpt><trkpt lat="45.081875" lon="11.6752317"><ele>3.0</ele><time>2026-05-01T06:39:24.421Z</time></trkpt><trkpt lat="45.081865" lon="11.6751433"><ele>3.0</ele><time>2026-05-01T06:39:25.412Z</time></trkpt><trkpt lat="45.0818533" lon="11.6750517"><ele>3.0</ele><time>2026-05-01T06:39:26.42Z</time></trkpt><trkpt lat="45.0818417" lon="11.67496"><ele>2.9999999999999996</ele><time>2026-05-01T06:39:27.424Z</time></trkpt><trkpt lat="45.0818317" lon="11.674865"><ele>3.0</ele><time>2026-05-01T06:39:28.425Z</time></trkpt><trkpt lat="45.08182" lon="11.6747717"><ele>3.0</ele><time>2026-05-01T06:39:29.423Z</time></trkpt><trkpt lat="45.0818083" lon="11.6746783"><ele>3.0</ele><time>2026-05-01T06:39:30.421Z</time></trkpt><trkpt lat="45.0818017" lon="11.6745867"><ele>3.0</ele><time>2026-05-01T06:39:31.424Z</time></trkpt><trkpt lat="45.081795" lon="11.6744967"><ele>2.9999999999999996</ele><time>2026-05-01T06:39:32.426Z</time></trkpt><trkpt lat="45.0817883" lon="11.6744033"><ele>3.0</ele><time>2026-05-01T06:39:33.422Z</time></trkpt><trkpt lat="45.08178" lon="11.6743117"><ele>3.0</ele><time>2026-05-01T06:39:34.42Z</time></trkpt><trkpt lat="45.08177" lon="11.67422"><ele>3.0</ele><time>2026-05-01T06:39:35.425Z</time></trkpt><trkpt lat="45.08176" lon="11.6741267"><ele>3.0</ele><time>2026-05-01T06:39:36.41Z</time></trkpt><trkpt lat="45.08175" lon="11.6740333"><ele>3.0</ele><time>2026-05-01T06:39:37.416Z</time></trkpt><trkpt lat="45.0817417" lon="11.67394"><ele>3.0</ele><time>2026-05-01T06:39:38.422Z</time></trkpt><trkpt lat="45.0817233" lon="11.67376"><ele>3.0</ele><time>2026-05-01T06:39:40.426Z</time></trkpt><trkpt lat="45.081705" lon="11.6735833"><ele>2.9999999999999996</ele><time>2026-05-01T06:39:42.419Z</time></trkpt><trkpt lat="45.081695" lon="11.6734933"><ele>3.0</ele><time>2026-05-01T06:39:43.424Z</time></trkpt><trkpt lat="45.0816833" lon="11.6734033"><ele>3.0</ele><time>2026-05-01T06:39:44.399Z</time></trkpt><trkpt lat="45.081665" lon="11.6733117"><ele>3.0</ele><time>2026-05-01T06:39:45.424Z</time></trkpt><trkpt lat="45.0816517" lon="11.673215"><ele>3.0</ele><time>2026-05-01T06:39:46.427Z</time></trkpt><trkpt lat="45.081635" lon="11.6731233"><ele>2.9999999999999996</ele><time>2026-05-01T06:39:47.408Z</time></trkpt><trkpt lat="45.0816167" lon="11.6730317"><ele>3.0</ele><time>2026-05-01T06:39:48.412Z</time></trkpt><trkpt lat="45.0815983" lon="11.67294"><ele>2.9999999999999996</ele><time>2026-05-01T06:39:49.42Z</time></trkpt><trkpt lat="45.08158" lon="11.6728483"><ele>3.0</ele><time>2026-05-01T06:39:50.421Z</time></trkpt><trkpt lat="45.08156" lon="11.6727583"><ele>3.0</ele><time>2026-05-01T06:39:51.421Z</time></trkpt><trkpt lat="45.0815367" lon="11.67267"><ele>3.0</ele><time>2026-05-01T06:39:52.417Z</time></trkpt><trkpt lat="45.0815117" lon="11.6725833"><ele>3.0</ele><time>2026-05-01T06:39:53.414Z</time></trkpt><trkpt lat="45.081485" lon="11.6724983"><ele>2.9999999999999996</ele><time>2026-05-01T06:39:54.421Z</time></trkpt><trkpt lat="45.0814567" lon="11.6724167"><ele>3.0</ele><time>2026-05-01T06:39:55.429Z</time></trkpt><trkpt lat="45.0814267" lon="11.6723317"><ele>2.9999999999999996</ele><time>2026-05-01T06:39:56.422Z</time></trkpt><trkpt lat="45.0813967" lon="11.672245"><ele>3.0</ele><time>2026-05-01T06:39:57.428Z</time></trkpt><trkpt lat="45.0813633" lon="11.6721617"><ele>3.0</ele><time>2026-05-01T06:39:58.406Z</time></trkpt><trkpt lat="45.0813267" lon="11.67208"><ele>3.0</ele><time>2026-05-01T06:39:59.423Z</time></trkpt><trkpt lat="45.08129" lon="11.672"><ele>3.0</ele><time>2026-05-01T06:40:00.421Z</time></trkpt><trkpt lat="45.08125" lon="11.6719183"><ele>2.9999999999999996</ele><time>2026-05-01T06:40:01.418Z</time></trkpt><trkpt lat="45.081215" lon="11.67184"><ele>3.0</ele><time>2026-05-01T06:40:02.425Z</time></trkpt><trkpt lat="45.0811733" lon="11.6717633"><ele>2.9999999999999996</ele><time>2026-05-01T06:40:03.425Z</time></trkpt><trkpt lat="45.0811317" lon="11.6716883"><ele>3.0</ele><time>2026-05-01T06:40:04.423Z</time></trkpt><trkpt lat="45.0810883" lon="11.6716133"><ele>3.0</ele><time>2026-05-01T06:40:05.423Z</time></trkpt><trkpt lat="45.081045" lon="11.6715333"><ele>3.0</ele><time>2026-05-01T06:40:06.424Z</time></trkpt><trkpt lat="45.081" lon="11.6714567"><ele>3.0</ele><time>2026-05-01T06:40:07.427Z</time></trkpt><trkpt lat="45.0809517" lon="11.6713833"><ele>2.9999999999999996</ele><time>2026-05-01T06:40:08.432Z</time></trkpt><trkpt lat="45.0809033" lon="11.6713133"><ele>3.0</ele><time>2026-05-01T06:40:09.429Z</time></trkpt><trkpt lat="45.0808567" lon="11.6712467"><ele>2.9999999999999996</ele><time>2026-05-01T06:40:10.421Z</time></trkpt><trkpt lat="45.080805" lon="11.6711783"><ele>3.0</ele><time>2026-05-01T06:40:11.419Z</time></trkpt><trkpt lat="45.0807533" lon="11.6711117"><ele>3.0</ele><time>2026-05-01T06:40:12.415Z</time></trkpt><trkpt lat="45.0807017" lon="11.6710467"><ele>3.0</ele><time>2026-05-01T06:40:13.425Z</time></trkpt><trkpt lat="45.0806467" lon="11.6709833"><ele>3.0</ele><time>2026-05-01T06:40:14.412Z</time></trkpt><trkpt lat="45.08059" lon="11.6709217"><ele>2.9999999999999996</ele><time>2026-05-01T06:40:15.421Z</time></trkpt><trkpt lat="45.0805333" lon="11.67086"><ele>3.0</ele><time>2026-05-01T06:40:16.414Z</time></trkpt><trkpt lat="45.0804783" lon="11.6708"><ele>2.9999999999999996</ele><time>2026-05-01T06:40:17.426Z</time></trkpt><trkpt lat="45.080425" lon="11.6707417"><ele>3.0</ele><time>2026-05-01T06:40:18.423Z</time></trkpt><trkpt lat="45.08037" lon="11.670685"><ele>3.0</ele><time>2026-05-01T06:40:19.408Z</time></trkpt><trkpt lat="45.0803133" lon="11.6706267"><ele>3.0</ele><time>2026-05-01T06:40:20.423Z</time></trkpt><trkpt lat="45.0802583" lon="11.6705667"><ele>3.0</ele><time>2026-05-01T06:40:21.399Z</time></trkpt><trkpt lat="45.0802017" lon="11.6705083"><ele>2.9999999999999996</ele><time>2026-05-01T06:40:22.41Z</time></trkpt><trkpt lat="45.080145" lon="11.6704533"><ele>3.0</ele><time>2026-05-01T06:40:23.421Z</time></trkpt><trkpt lat="45.080085" lon="11.6704"><ele>2.9999999999999996</ele><time>2026-05-01T06:40:24.424Z</time></trkpt><trkpt lat="45.080025" lon="11.67035"><ele>3.0</ele><time>2026-05-01T06:40:25.426Z</time></trkpt><trkpt lat="45.079965" lon="11.6703"><ele>3.0</ele><time>2026-05-01T06:40:26.422Z</time></trkpt><trkpt lat="45.0799033" lon="11.6702533"><ele>3.0</ele><time>2026-05-01T06:40:27.423Z</time></trkpt><trkpt lat="45.0798383" lon="11.6702033"><ele>3.0</ele><time>2026-05-01T06:40:28.423Z</time></trkpt><trkpt lat="45.079775" lon="11.670155"><ele>2.9999999999999996</ele><time>2026-05-01T06:40:29.421Z</time></trkpt><trkpt lat="45.0797117" lon="11.67011"><ele>3.0</ele><time>2026-05-01T06:40:30.401Z</time></trkpt><trkpt lat="45.0796483" lon="11.670065"><ele>3.1428571428571423</ele><time>2026-05-01T06:40:31.414Z</time></trkpt><trkpt lat="45.0795867" lon="11.67002"><ele>3.2857142857142856</ele><time>2026-05-01T06:40:32.426Z</time></trkpt><trkpt lat="45.0795233" lon="11.669975"><ele>3.4285714285714284</ele><time>2026-05-01T06:40:33.415Z</time></trkpt><trkpt lat="45.07946" lon="11.66993"><ele>3.571428571428571</ele><time>2026-05-01T06:40:34.422Z</time></trkpt><trkpt lat="45.0794" lon="11.6698817"><ele>3.714285714285714</ele><time>2026-05-01T06:40:35.395Z</time></trkpt><trkpt lat="45.07934" lon="11.6698333"><ele>3.8571428571428568</ele><time>2026-05-01T06:40:36.401Z</time></trkpt><trkpt lat="45.0792783" lon="11.6697817"><ele>4.0</ele><time>2026-05-01T06:40:37.422Z</time></trkpt><trkpt lat="45.0792217" lon="11.6697317"><ele>4.0</ele><time>2026-05-01T06:40:38.42Z</time></trkpt><trkpt lat="45.079165" lon="11.6696783"><ele>3.9999999999999996</ele><time>2026-05-01T06:40:39.424Z</time></trkpt><trkpt lat="45.0791067" lon="11.6696217"><ele>4.0</ele><time>2026-05-01T06:40:40.421Z</time></trkpt><trkpt lat="45.07905" lon="11.6695633"><ele>4.0</ele><time>2026-05-01T06:40:41.423Z</time></trkpt><trkpt lat="45.0789933" lon="11.669505"><ele>3.9999999999999996</ele><time>2026-05-01T06:40:42.426Z</time></trkpt><trkpt lat="45.0789383" lon="11.6694417"><ele>4.0</ele><time>2026-05-01T06:40:43.426Z</time></trkpt><trkpt lat="45.078885" lon="11.6693783"><ele>4.0</ele><time>2026-05-01T06:40:44.421Z</time></trkpt><trkpt lat="45.078835" lon="11.6693133"><ele>4.0</ele><time>2026-05-01T06:40:45.427Z</time></trkpt><trkpt lat="45.07878" lon="11.6692483"><ele>3.9999999999999996</ele><time>2026-05-01T06:40:46.419Z</time></trkpt><trkpt lat="45.0787283" lon="11.6691817"><ele>4.0</ele><time>2026-05-01T06:40:47.425Z</time></trkpt><trkpt lat="45.0786783" lon="11.6691167"><ele>4.0</ele><time>2026-05-01T06:40:48.423Z</time></trkpt><trkpt lat="45.0786267" lon="11.6690517"><ele>3.9999999999999996</ele><time>2026-05-01T06:40:49.422Z</time></trkpt><trkpt lat="45.078575" lon="11.6689883"><ele>4.0</ele><time>2026-05-01T06:40:50.424Z</time></trkpt><trkpt lat="45.0785217" lon="11.6689267"><ele>4.0</ele><time>2026-05-01T06:40:51.388Z</time></trkpt><trkpt lat="45.0784683" lon="11.668865"><ele>4.0</ele><time>2026-05-01T06:40:52.42Z</time></trkpt><trkpt lat="45.0784133" lon="11.668805"><ele>3.9999999999999996</ele><time>2026-05-01T06:40:53.419Z</time></trkpt><trkpt lat="45.0783567" lon="11.6687433"><ele>4.0</ele><time>2026-05-01T06:40:54.42Z</time></trkpt><trkpt lat="45.078295" lon="11.668685"><ele>4.0</ele><time>2026-05-01T06:40:55.424Z</time></trkpt><trkpt lat="45.078235" lon="11.6686283"><ele>3.9999999999999996</ele><time>2026-05-01T06:40:56.423Z</time></trkpt><trkpt lat="45.0781783" lon="11.6685667"><ele>4.0</ele><time>2026-05-01T06:40:57.425Z</time></trkpt><trkpt lat="45.0781233" lon="11.6685033"><ele>4.0</ele><time>2026-05-01T06:40:58.402Z</time></trkpt><trkpt lat="45.0780683" lon="11.6684333"><ele>3.8571428571428568</ele><time>2026-05-01T06:40:59.409Z</time></trkpt><trkpt lat="45.0780183" lon="11.6683617"><ele>3.714285714285714</ele><time>2026-05-01T06:41:00.414Z</time></trkpt><trkpt lat="45.0779733" lon="11.668285"><ele>3.571428571428571</ele><time>2026-05-01T06:41:01.421Z</time></trkpt><trkpt lat="45.077935" lon="11.6682033"><ele>3.4285714285714284</ele><time>2026-05-01T06:41:02.398Z</time></trkpt><trkpt lat="45.0779" lon="11.6681183"><ele>3.2857142857142856</ele><time>2026-05-01T06:41:03.424Z</time></trkpt><trkpt lat="45.07787" lon="11.6680317"><ele>3.1428571428571423</ele><time>2026-05-01T06:41:04.421Z</time></trkpt><trkpt lat="45.0778467" lon="11.6679433"><ele>3.0</ele><time>2026-05-01T06:41:05.424Z</time></trkpt><trkpt lat="45.0778283" lon="11.66785"><ele>2.9999999999999996</ele><time>2026-05-01T06:41:06.423Z</time></trkpt><trkpt lat="45.0778133" lon="11.6677533"><ele>3.0</ele><time>2026-05-01T06:41:07.423Z</time></trkpt><trkpt lat="45.0778117" lon="11.6676533"><ele>3.0</ele><time>2026-05-01T06:41:08.423Z</time></trkpt><trkpt lat="45.0778183" lon="11.66755"><ele>3.0</ele><time>2026-05-01T06:41:09.424Z</time></trkpt><trkpt lat="45.077835" lon="11.6674517"><ele>3.0</ele><time>2026-05-01T06:41:10.422Z</time></trkpt><trkpt lat="45.07786" lon="11.6673583"><ele>2.9999999999999996</ele><time>2026-05-01T06:41:11.42Z</time></trkpt><trkpt lat="45.077895" lon="11.6672683"><ele>3.0</ele><time>2026-05-01T06:41:12.412Z</time></trkpt><trkpt lat="45.0779367" lon="11.6671833"><ele>2.9999999999999996</ele><time>2026-05-01T06:41:13.423Z</time></trkpt><trkpt lat="45.0779817" lon="11.66711"><ele>3.0</ele><time>2026-05-01T06:41:14.42Z</time></trkpt><trkpt lat="45.0780333" lon="11.667045"><ele>3.0</ele><time>2026-05-01T06:41:15.418Z</time></trkpt><trkpt lat="45.07809" lon="11.6669867"><ele>3.0</ele><time>2026-05-01T06:41:16.422Z</time></trkpt><trkpt lat="45.078145" lon="11.6669267"><ele>3.0</ele><time>2026-05-01T06:41:17.423Z</time></trkpt><trkpt lat="45.0782" lon="11.6668733"><ele>2.9999999999999996</ele><time>2026-05-01T06:41:18.424Z</time></trkpt><trkpt lat="45.0782567" lon="11.6668183"><ele>3.0</ele><time>2026-05-01T06:41:19.423Z</time></trkpt><trkpt lat="45.078315" lon="11.6667617"><ele>3.1428571428571423</ele><time>2026-05-01T06:41:20.423Z</time></trkpt><trkpt lat="45.07837" lon="11.6667067"><ele>3.2857142857142856</ele><time>2026-05-01T06:41:21.423Z</time></trkpt><trkpt lat="45.0784233" lon="11.66665"><ele>3.4285714285714284</ele><time>2026-05-01T06:41:22.417Z</time></trkpt><trkpt lat="45.078475" lon="11.6665917"><ele>3.571428571428571</ele><time>2026-05-01T06:41:23.401Z</time></trkpt><trkpt lat="45.0785217" lon="11.6665283"><ele>3.714285714285714</ele><time>2026-05-01T06:41:24.42Z</time></trkpt><trkpt lat="45.07857" lon="11.6664617"><ele>3.8571428571428568</ele><time>2026-05-01T06:41:25.424Z</time></trkpt><trkpt lat="45.07862" lon="11.6664"><ele>4.0</ele><time>2026-05-01T06:41:26.422Z</time></trkpt><trkpt lat="45.0786683" lon="11.66634"><ele>3.9999999999999996</ele><time>2026-05-01T06:41:27.425Z</time></trkpt><trkpt lat="45.0787133" lon="11.6662767"><ele>4.0</ele><time>2026-05-01T06:41:28.424Z</time></trkpt><trkpt lat="45.078805" lon="11.66615"><ele>4.0</ele><time>2026-05-01T06:41:30.422Z</time></trkpt><trkpt lat="45.078855" lon="11.6660817"><ele>4.0</ele><time>2026-05-01T06:41:31.425Z</time></trkpt><trkpt lat="45.0789017" lon="11.66601"><ele>3.9999999999999996</ele><time>2026-05-01T06:41:32.426Z</time></trkpt><trkpt lat="45.0789467" lon="11.665935"><ele>4.0</ele><time>2026-05-01T06:41:33.421Z</time></trkpt><trkpt lat="45.0789883" lon="11.6658583"><ele>4.0</ele><time>2026-05-01T06:41:34.417Z</time></trkpt><trkpt lat="45.07903" lon="11.6657817"><ele>3.9999999999999996</ele><time>2026-05-01T06:41:35.4Z</time></trkpt><trkpt lat="45.0790683" lon="11.665705"><ele>4.0</ele><time>2026-05-01T06:41:36.416Z</time></trkpt><trkpt lat="45.0791033" lon="11.665625"><ele>4.0</ele><time>2026-05-01T06:41:37.419Z</time></trkpt><trkpt lat="45.0791367" lon="11.66554"><ele>3.9999999999999996</ele><time>2026-05-01T06:41:38.425Z</time></trkpt><trkpt lat="45.0791667" lon="11.665455"><ele>4.0</ele><time>2026-05-01T06:41:39.427Z</time></trkpt><trkpt lat="45.079195" lon="11.665365"><ele>4.0</ele><time>2026-05-01T06:41:40.425Z</time></trkpt><trkpt lat="45.0792233" lon="11.6652717"><ele>4.142857142857142</ele><time>2026-05-01T06:41:41.423Z</time></trkpt><trkpt lat="45.0792483" lon="11.66518"><ele>4.285714285714286</ele><time>2026-05-01T06:41:42.424Z</time></trkpt><trkpt lat="45.0792717" lon="11.6650883"><ele>4.428571428571429</ele><time>2026-05-01T06:41:43.423Z</time></trkpt><trkpt lat="45.0792967" lon="11.664995"><ele>4.571428571428571</ele><time>2026-05-01T06:41:44.422Z</time></trkpt><trkpt lat="45.0793217" lon="11.6649017"><ele>4.714285714285714</ele><time>2026-05-01T06:41:45.388Z</time></trkpt><trkpt lat="45.079345" lon="11.66481"><ele>4.857142857142857</ele><time>2026-05-01T06:41:46.411Z</time></trkpt><trkpt lat="45.07937" lon="11.66472"><ele>5.0</ele><time>2026-05-01T06:41:47.425Z</time></trkpt><trkpt lat="45.0793933" lon="11.6646283"><ele>5.0</ele><time>2026-05-01T06:41:48.422Z</time></trkpt><trkpt lat="45.0794183" lon="11.6645367"><ele>5.0</ele><time>2026-05-01T06:41:49.41Z</time></trkpt><trkpt lat="45.0794417" lon="11.6644433"><ele>5.0</ele><time>2026-05-01T06:41:50.418Z</time></trkpt><trkpt lat="45.0794633" lon="11.6643517"><ele>5.0</ele><time>2026-05-01T06:41:51.42Z</time></trkpt><trkpt lat="45.079485" lon="11.66426"><ele>5.0</ele><time>2026-05-01T06:41:52.425Z</time></trkpt><trkpt lat="45.0795" lon="11.6641667"><ele>5.0</ele><time>2026-05-01T06:41:53.425Z</time></trkpt><trkpt lat="45.079505" lon="11.6640733"><ele>5.0</ele><time>2026-05-01T06:41:54.422Z</time></trkpt><trkpt lat="45.0795017" lon="11.6639783"><ele>4.857142857142857</ele><time>2026-05-01T06:41:55.421Z</time></trkpt><trkpt lat="45.07949" lon="11.6638833"><ele>4.714285714285714</ele><time>2026-05-01T06:41:56.423Z</time></trkpt><trkpt lat="45.079475" lon="11.6637883"><ele>4.571428571428571</ele><time>2026-05-01T06:41:57.418Z</time></trkpt><trkpt lat="45.0794567" lon="11.66369"><ele>4.428571428571429</ele><time>2026-05-01T06:41:58.412Z</time></trkpt><trkpt lat="45.07944" lon="11.6635917"><ele>4.285714285714286</ele><time>2026-05-01T06:41:59.416Z</time></trkpt><trkpt lat="45.07942" lon="11.6634917"><ele>4.142857142857142</ele><time>2026-05-01T06:42:00.425Z</time></trkpt><trkpt lat="45.0794033" lon="11.6633967"><ele>4.0</ele><time>2026-05-01T06:42:01.408Z</time></trkpt><trkpt lat="45.0793867" lon="11.6632967"><ele>4.0</ele><time>2026-05-01T06:42:02.415Z</time></trkpt><trkpt lat="45.0793733" lon="11.6631967"><ele>3.9999999999999996</ele><time>2026-05-01T06:42:03.415Z</time></trkpt><trkpt lat="45.0793567" lon="11.6630983"><ele>4.0</ele><time>2026-05-01T06:42:04.425Z</time></trkpt><trkpt lat="45.0793433" lon="11.6630017"><ele>4.0</ele><time>2026-05-01T06:42:05.421Z</time></trkpt><trkpt lat="45.0793317" lon="11.6629017"><ele>3.9999999999999996</ele><time>2026-05-01T06:42:06.425Z</time></trkpt><trkpt lat="45.0793217" lon="11.6628017"><ele>4.0</ele><time>2026-05-01T06:42:07.423Z</time></trkpt><trkpt lat="45.07931" lon="11.6627"><ele>4.0</ele><time>2026-05-01T06:42:08.427Z</time></trkpt><trkpt lat="45.0792933" lon="11.6626017"><ele>4.0</ele><time>2026-05-01T06:42:09.426Z</time></trkpt><trkpt lat="45.079275" lon="11.6625033"><ele>3.9999999999999996</ele><time>2026-05-01T06:42:10.422Z</time></trkpt><trkpt lat="45.0792633" lon="11.662405"><ele>4.0</ele><time>2026-05-01T06:42:11.419Z</time></trkpt><trkpt lat="45.0792583" lon="11.6623017"><ele>4.0</ele><time>2026-05-01T06:42:12.393Z</time></trkpt><trkpt lat="45.0792517" lon="11.6622017"><ele>3.9999999999999996</ele><time>2026-05-01T06:42:13.409Z</time></trkpt><trkpt lat="45.0792433" lon="11.6621033"><ele>4.0</ele><time>2026-05-01T06:42:14.42Z</time></trkpt><trkpt lat="45.0792333" lon="11.6620083"><ele>4.0</ele><time>2026-05-01T06:42:15.42Z</time></trkpt><trkpt lat="45.079225" lon="11.66191"><ele>4.142857142857142</ele><time>2026-05-01T06:42:16.426Z</time></trkpt><trkpt lat="45.0792183" lon="11.6618133"><ele>4.285714285714286</ele><time>2026-05-01T06:42:17.401Z</time></trkpt><trkpt lat="45.0792083" lon="11.66172"><ele>4.428571428571429</ele><time>2026-05-01T06:42:18.417Z</time></trkpt><trkpt lat="45.0791983" lon="11.6616267"><ele>4.571428571428571</ele><time>2026-05-01T06:42:19.432Z</time></trkpt><trkpt lat="45.0791867" lon="11.6615317"><ele>4.714285714285714</ele><time>2026-05-01T06:42:20.422Z</time></trkpt><trkpt lat="45.0791767" lon="11.6614333"><ele>4.857142857142857</ele><time>2026-05-01T06:42:21.418Z</time></trkpt><trkpt lat="45.0791667" lon="11.66134"><ele>5.0</ele><time>2026-05-01T06:42:22.422Z</time></trkpt><trkpt lat="45.0791533" lon="11.6612433"><ele>5.0</ele><time>2026-05-01T06:42:23.424Z</time></trkpt><trkpt lat="45.0791417" lon="11.661145"><ele>5.0</ele><time>2026-05-01T06:42:24.424Z</time></trkpt><trkpt lat="45.0791233" lon="11.6610533"><ele>5.0</ele><time>2026-05-01T06:42:25.424Z</time></trkpt><trkpt lat="45.079105" lon="11.6609567"><ele>5.0</ele><time>2026-05-01T06:42:26.424Z</time></trkpt><trkpt lat="45.0790833" lon="11.660865"><ele>5.0</ele><time>2026-05-01T06:42:27.426Z</time></trkpt><trkpt lat="45.0790617" lon="11.6607733"><ele>5.0</ele><time>2026-05-01T06:42:28.423Z</time></trkpt><trkpt lat="45.0790433" lon="11.66068"><ele>5.0</ele><time>2026-05-01T06:42:29.425Z</time></trkpt><trkpt lat="45.0790233" lon="11.6605883"><ele>5.0</ele><time>2026-05-01T06:42:30.424Z</time></trkpt><trkpt lat="45.0790017" lon="11.6604967"><ele>5.0</ele><time>2026-05-01T06:42:31.422Z</time></trkpt><trkpt lat="45.0789783" lon="11.6604117"><ele>5.0</ele><time>2026-05-01T06:42:32.422Z</time></trkpt><trkpt lat="45.078955" lon="11.6603283"><ele>5.0</ele><time>2026-05-01T06:42:33.407Z</time></trkpt><trkpt lat="45.0789367" lon="11.66017"><ele>5.0</ele><time>2026-05-01T06:42:35.424Z</time></trkpt><trkpt lat="45.0790017" lon="11.66007"><ele>5.0</ele><time>2026-05-01T06:42:37.405Z</time></trkpt><trkpt lat="45.0791217" lon="11.66005"><ele>5.0</ele><time>2026-05-01T06:42:39.425Z</time></trkpt><trkpt lat="45.079185" lon="11.6600583"><ele>5.0</ele><time>2026-05-01T06:42:40.423Z</time></trkpt><trkpt lat="45.0792483" lon="11.6600717"><ele>5.0</ele><time>2026-05-01T06:42:41.424Z</time></trkpt><trkpt lat="45.0793667" lon="11.66009"><ele>5.0</ele><time>2026-05-01T06:42:43.423Z</time></trkpt><trkpt lat="45.0794817" lon="11.66012"><ele>5.0</ele><time>2026-05-01T06:42:45.422Z</time></trkpt><trkpt lat="45.0795817" lon="11.6601567"><ele>5.0</ele><time>2026-05-01T06:42:47.416Z</time></trkpt><trkpt lat="45.0796783" lon="11.6602067"><ele>5.0</ele><time>2026-05-01T06:42:49.408Z</time></trkpt><trkpt lat="45.0797883" lon="11.6602783"><ele>5.0</ele><time>2026-05-01T06:42:51.422Z</time></trkpt><trkpt lat="45.0798917" lon="11.6603433"><ele>5.0</ele><time>2026-05-01T06:42:53.423Z</time></trkpt><trkpt lat="45.0799867" lon="11.6604233"><ele>5.0</ele><time>2026-05-01T06:42:55.416Z</time></trkpt><trkpt lat="45.0800817" lon="11.6604967"><ele>5.0</ele><time>2026-05-01T06:42:57.422Z</time></trkpt><trkpt lat="45.0801783" lon="11.6605633"><ele>5.0</ele><time>2026-05-01T06:42:59.422Z</time></trkpt><trkpt lat="45.0802767" lon="11.660625"><ele>5.0</ele><time>2026-05-01T06:43:01.42Z</time></trkpt><trkpt lat="45.080375" lon="11.6606717"><ele>5.0</ele><time>2026-05-01T06:43:03.425Z</time></trkpt><trkpt lat="45.0804767" lon="11.6607217"><ele>5.0</ele><time>2026-05-01T06:43:05.393Z</time></trkpt><trkpt lat="45.0805817" lon="11.66077"><ele>5.0</ele><time>2026-05-01T06:43:07.424Z</time></trkpt><trkpt lat="45.0806833" lon="11.6608217"><ele>5.0</ele><time>2026-05-01T06:43:09.427Z</time></trkpt><trkpt lat="45.0807833" lon="11.66087"><ele>5.0</ele><time>2026-05-01T06:43:11.425Z</time></trkpt><trkpt lat="45.080885" lon="11.6609267"><ele>5.0</ele><time>2026-05-01T06:43:13.423Z</time></trkpt><trkpt lat="45.0809867" lon="11.660985"><ele>5.0</ele><time>2026-05-01T06:43:15.425Z</time></trkpt><trkpt lat="45.0810933" lon="11.6610417"><ele>5.0</ele><time>2026-05-01T06:43:17.43Z</time></trkpt><trkpt lat="45.0811967" lon="11.66109"><ele>5.0</ele><time>2026-05-01T06:43:19.411Z</time></trkpt><trkpt lat="45.0813" lon="11.6611217"><ele>5.0</ele><time>2026-05-01T06:43:21.4Z</time></trkpt><trkpt lat="45.0814167" lon="11.6611183"><ele>5.0</ele><time>2026-05-01T06:43:23.425Z</time></trkpt><trkpt lat="45.08148" lon="11.66111"><ele>5.0</ele><time>2026-05-01T06:43:24.427Z</time></trkpt><trkpt lat="45.081545" lon="11.6611033"><ele>5.0</ele><time>2026-05-01T06:43:25.414Z</time></trkpt><trkpt lat="45.0816083" lon="11.6610967"><ele>5.0</ele><time>2026-05-01T06:43:26.414Z</time></trkpt><trkpt lat="45.0817333" lon="11.6610767"><ele>5.0</ele><time>2026-05-01T06:43:28.419Z</time></trkpt><trkpt lat="45.0818533" lon="11.66106"><ele>5.0</ele><time>2026-05-01T06:43:30.419Z</time></trkpt><trkpt lat="45.08197" lon="11.6610417"><ele>5.0</ele><time>2026-05-01T06:43:32.414Z</time></trkpt><trkpt lat="45.0820817" lon="11.6610117"><ele>5.0</ele><time>2026-05-01T06:43:34.422Z</time></trkpt><trkpt lat="45.0821933" lon="11.6609883"><ele>5.0</ele><time>2026-05-01T06:43:36.42Z</time></trkpt><trkpt lat="45.0822967" lon="11.6609633"><ele>5.0</ele><time>2026-05-01T06:43:38.432Z</time></trkpt><trkpt lat="45.082405" lon="11.6609417"><ele>5.0</ele><time>2026-05-01T06:43:40.419Z</time></trkpt><trkpt lat="45.082505" lon="11.660915"><ele>5.0</ele><time>2026-05-01T06:43:42.413Z</time></trkpt><trkpt lat="45.0826083" lon="11.66087"><ele>5.0</ele><time>2026-05-01T06:43:44.42Z</time></trkpt><trkpt lat="45.0827117" lon="11.6608183"><ele>5.0</ele><time>2026-05-01T06:43:46.423Z</time></trkpt><trkpt lat="45.082815" lon="11.6607667"><ele>5.0</ele><time>2026-05-01T06:43:48.423Z</time></trkpt><trkpt lat="45.0829183" lon="11.6607067"><ele>5.0</ele><time>2026-05-01T06:43:50.429Z</time></trkpt><trkpt lat="45.0830233" lon="11.6606517"><ele>5.0</ele><time>2026-05-01T06:43:52.424Z</time></trkpt><trkpt lat="45.0831233" lon="11.660595"><ele>5.0</ele><time>2026-05-01T06:43:54.424Z</time></trkpt><trkpt lat="45.083225" lon="11.660545"><ele>5.0</ele><time>2026-05-01T06:43:56.428Z</time></trkpt><trkpt lat="45.0833283" lon="11.6605083"><ele>5.0</ele><time>2026-05-01T06:43:58.427Z</time></trkpt><trkpt lat="45.08344" lon="11.66047"><ele>5.0</ele><time>2026-05-01T06:44:00.424Z</time></trkpt><trkpt lat="45.083555" lon="11.6604367"><ele>5.0</ele><time>2026-05-01T06:44:02.419Z</time></trkpt><trkpt lat="45.0836717" lon="11.6604033"><ele>4.75</ele><time>2026-05-01T06:44:04.401Z</time></trkpt><trkpt lat="45.083785" lon="11.6603683"><ele>4.5</ele><time>2026-05-01T06:44:06.421Z</time></trkpt><trkpt lat="45.0839" lon="11.66033"><ele>4.25</ele><time>2026-05-01T06:44:08.422Z</time></trkpt><trkpt lat="45.08402" lon="11.6602917"><ele>4.0</ele><time>2026-05-01T06:44:10.42Z</time></trkpt><trkpt lat="45.0841433" lon="11.6602567"><ele>3.8000000000000003</ele><time>2026-05-01T06:44:12.425Z</time></trkpt><trkpt lat="45.084205" lon="11.6602333"><ele>3.6000000000000005</ele><time>2026-05-01T06:44:13.42Z</time></trkpt><trkpt lat="45.0843217" lon="11.660195"><ele>3.4</ele><time>2026-05-01T06:44:15.407Z</time></trkpt><trkpt lat="45.0844383" lon="11.66016"><ele>3.2</ele><time>2026-05-01T06:44:17.426Z</time></trkpt><trkpt lat="45.0845583" lon="11.6601217"><ele>3.0</ele><time>2026-05-01T06:44:19.411Z</time></trkpt><trkpt lat="45.08462" lon="11.6601017"><ele>3.0</ele><time>2026-05-01T06:44:20.428Z</time></trkpt><trkpt lat="45.0847417" lon="11.6600633"><ele>3.0</ele><time>2026-05-01T06:44:22.425Z</time></trkpt><trkpt lat="45.084865" lon="11.6600267"><ele>3.0</ele><time>2026-05-01T06:44:24.422Z</time></trkpt><trkpt lat="45.0849283" lon="11.6600117"><ele>3.0</ele><time>2026-05-01T06:44:25.417Z</time></trkpt><trkpt lat="45.0850483" lon="11.6599817"><ele>3.0</ele><time>2026-05-01T06:44:27.425Z</time></trkpt><trkpt lat="45.08517" lon="11.6599617"><ele>3.5</ele><time>2026-05-01T06:44:29.422Z</time></trkpt><trkpt lat="45.08529" lon="11.659955"><ele>4.0</ele><time>2026-05-01T06:44:31.415Z</time></trkpt><trkpt lat="45.0854117" lon="11.6599567"><ele>4.5</ele><time>2026-05-01T06:44:33.425Z</time></trkpt><trkpt lat="45.0855333" lon="11.65996"><ele>5.0</ele><time>2026-05-01T06:44:35.424Z</time></trkpt><trkpt lat="45.0856483" lon="11.6599583"><ele>4.75</ele><time>2026-05-01T06:44:37.416Z</time></trkpt><trkpt lat="45.0857683" lon="11.659965"><ele>4.5</ele><time>2026-05-01T06:44:39.423Z</time></trkpt><trkpt lat="45.08589" lon="11.6599617"><ele>4.25</ele><time>2026-05-01T06:44:41.423Z</time></trkpt><trkpt lat="45.08601" lon="11.6599633"><ele>4.0</ele><time>2026-05-01T06:44:43.424Z</time></trkpt><trkpt lat="45.0861267" lon="11.6599683"><ele>4.0</ele><time>2026-05-01T06:44:45.423Z</time></trkpt><trkpt lat="45.0862467" lon="11.6599683"><ele>4.0</ele><time>2026-05-01T06:44:47.396Z</time></trkpt><trkpt lat="45.086365" lon="11.6599733"><ele>4.0</ele><time>2026-05-01T06:44:49.419Z</time></trkpt><trkpt lat="45.0864833" lon="11.6599783"><ele>4.0</ele><time>2026-05-01T06:44:51.419Z</time></trkpt><trkpt lat="45.0866033" lon="11.6599817"><ele>4.25</ele><time>2026-05-01T06:44:53.425Z</time></trkpt><trkpt lat="45.086725" lon="11.6599883"><ele>4.5</ele><time>2026-05-01T06:44:55.424Z</time></trkpt><trkpt lat="45.0868433" lon="11.6599917"><ele>4.75</ele><time>2026-05-01T06:44:57.424Z</time></trkpt><trkpt lat="45.0869633" lon="11.6599983"><ele>5.0</ele><time>2026-05-01T06:44:59.428Z</time></trkpt><trkpt lat="45.0870817" lon="11.66"><ele>5.0</ele><time>2026-05-01T06:45:01.421Z</time></trkpt><trkpt lat="45.0872" lon="11.6600033"><ele>5.0</ele><time>2026-05-01T06:45:03.425Z</time></trkpt><trkpt lat="45.0873167" lon="11.6600083"><ele>5.0</ele><time>2026-05-01T06:45:05.419Z</time></trkpt><trkpt lat="45.0874367" lon="11.6600117"><ele>5.0</ele><time>2026-05-01T06:45:07.42Z</time></trkpt><trkpt lat="45.0875583" lon="11.6600167"><ele>5.0</ele><time>2026-05-01T06:45:09.417Z</time></trkpt><trkpt lat="45.0876217" lon="11.6600183"><ele>5.0</ele><time>2026-05-01T06:45:10.423Z</time></trkpt><trkpt lat="45.0876867" lon="11.6600217"><ele>5.0</ele><time>2026-05-01T06:45:11.413Z</time></trkpt><trkpt lat="45.0878117" lon="11.6600217"><ele>5.0</ele><time>2026-05-01T06:45:13.422Z</time></trkpt><trkpt lat="45.087875" lon="11.660025"><ele>5.0</ele><time>2026-05-01T06:45:14.418Z</time></trkpt><trkpt lat="45.088" lon="11.6600267"><ele>5.0</ele><time>2026-05-01T06:45:16.416Z</time></trkpt><trkpt lat="45.0881217" lon="11.66003"><ele>5.0</ele><time>2026-05-01T06:45:18.422Z</time></trkpt><trkpt lat="45.0882433" lon="11.660035"><ele>5.0</ele><time>2026-05-01T06:45:20.423Z</time></trkpt><trkpt lat="45.0883667" lon="11.6600367"><ele>5.0</ele><time>2026-05-01T06:45:22.418Z</time></trkpt><trkpt lat="45.0884917" lon="11.6600433"><ele>5.0</ele><time>2026-05-01T06:45:24.426Z</time></trkpt><trkpt lat="45.088615" lon="11.660045"><ele>5.0</ele><time>2026-05-01T06:45:26.424Z</time></trkpt><trkpt lat="45.0886783" lon="11.6600483"><ele>5.0</ele><time>2026-05-01T06:45:27.421Z</time></trkpt><trkpt lat="45.0888" lon="11.6600517"><ele>5.0</ele><time>2026-05-01T06:45:29.422Z</time></trkpt><trkpt lat="45.08892" lon="11.66005"><ele>5.0</ele><time>2026-05-01T06:45:31.426Z</time></trkpt><trkpt lat="45.0890433" lon="11.66005"><ele>5.0</ele><time>2026-05-01T06:45:33.425Z</time></trkpt><trkpt lat="45.089165" lon="11.660055"><ele>5.0</ele><time>2026-05-01T06:45:35.42Z</time></trkpt><trkpt lat="45.0892283" lon="11.6600617"><ele>5.0</ele><time>2026-05-01T06:45:36.423Z</time></trkpt><trkpt lat="45.089295" lon="11.6600617"><ele>5.0</ele><time>2026-05-01T06:45:37.421Z</time></trkpt><trkpt lat="45.0893617" lon="11.6600667"><ele>5.0</ele><time>2026-05-01T06:45:38.421Z</time></trkpt><trkpt lat="45.0894267" lon="11.6600733"><ele>5.0</ele><time>2026-05-01T06:45:39.42Z</time></trkpt><trkpt lat="45.08949" lon="11.660085"><ele>5.0</ele><time>2026-05-01T06:45:40.39Z</time></trkpt><trkpt lat="45.0895533" lon="11.6600983"><ele>5.0</ele><time>2026-05-01T06:45:41.418Z</time></trkpt><trkpt lat="45.0896167" lon="11.660115"><ele>5.0</ele><time>2026-05-01T06:45:42.42Z</time></trkpt><trkpt lat="45.08968" lon="11.6601283"><ele>5.0</ele><time>2026-05-01T06:45:43.424Z</time></trkpt><trkpt lat="45.0897433" lon="11.660145"><ele>5.0</ele><time>2026-05-01T06:45:44.425Z</time></trkpt><trkpt lat="45.0898667" lon="11.6601817"><ele>5.0</ele><time>2026-05-01T06:45:46.415Z</time></trkpt><trkpt lat="45.0899283" lon="11.660205"><ele>5.0</ele><time>2026-05-01T06:45:47.422Z</time></trkpt><trkpt lat="45.09005" lon="11.660255"><ele>5.0</ele><time>2026-05-01T06:45:49.421Z</time></trkpt><trkpt lat="45.0901117" lon="11.66028"><ele>4.75</ele><time>2026-05-01T06:45:50.42Z</time></trkpt><trkpt lat="45.0902283" lon="11.66033"><ele>4.5</ele><time>2026-05-01T06:45:52.409Z</time></trkpt><trkpt lat="45.0903417" lon="11.6603917"><ele>4.25</ele><time>2026-05-01T06:45:54.422Z</time></trkpt><trkpt lat="45.0904517" lon="11.66046"><ele>4.0</ele><time>2026-05-01T06:45:56.422Z</time></trkpt><trkpt lat="45.0905567" lon="11.6605333"><ele>4.0</ele><time>2026-05-01T06:45:58.417Z</time></trkpt><trkpt lat="45.0906583" lon="11.6606017"><ele>4.0</ele><time>2026-05-01T06:46:00.425Z</time></trkpt><trkpt lat="45.0907617" lon="11.6606717"><ele>4.0</ele><time>2026-05-01T06:46:02.411Z</time></trkpt><trkpt lat="45.0908667" lon="11.6607467"><ele>4.0</ele><time>2026-05-01T06:46:04.421Z</time></trkpt><trkpt lat="45.0909767" lon="11.66082"><ele>4.25</ele><time>2026-05-01T06:46:06.421Z</time></trkpt><trkpt lat="45.0910867" lon="11.66089"><ele>4.5</ele><time>2026-05-01T06:46:08.416Z</time></trkpt><trkpt lat="45.0911933" lon="11.6609617"><ele>4.75</ele><time>2026-05-01T06:46:10.418Z</time></trkpt><trkpt lat="45.091295" lon="11.6610367"><ele>5.0</ele><time>2026-05-01T06:46:12.419Z</time></trkpt><trkpt lat="45.0913917" lon="11.6611083"><ele>4.8</ele><time>2026-05-01T06:46:14.424Z</time></trkpt><trkpt lat="45.09149" lon="11.6611733"><ele>4.6</ele><time>2026-05-01T06:46:16.426Z</time></trkpt><trkpt lat="45.09159" lon="11.6612483"><ele>4.4</ele><time>2026-05-01T06:46:18.405Z</time></trkpt><trkpt lat="45.09169" lon="11.6613233"><ele>4.2</ele><time>2026-05-01T06:46:20.42Z</time></trkpt><trkpt lat="45.0917883" lon="11.661395"><ele>4.0</ele><time>2026-05-01T06:46:22.422Z</time></trkpt><trkpt lat="45.0918917" lon="11.6614683"><ele>4.0</ele><time>2026-05-01T06:46:24.419Z</time></trkpt><trkpt lat="45.091995" lon="11.6615417"><ele>4.0</ele><time>2026-05-01T06:46:26.42Z</time></trkpt><trkpt lat="45.0920983" lon="11.6616133"><ele>4.0</ele><time>2026-05-01T06:46:28.419Z</time></trkpt><trkpt lat="45.0922" lon="11.6616883"><ele>4.0</ele><time>2026-05-01T06:46:30.422Z</time></trkpt><trkpt lat="45.0923017" lon="11.6617567"><ele>4.0</ele><time>2026-05-01T06:46:32.414Z</time></trkpt><trkpt lat="45.0924017" lon="11.661825"><ele>4.0</ele><time>2026-05-01T06:46:34.416Z</time></trkpt><trkpt lat="45.0925017" lon="11.6618983"><ele>4.0</ele><time>2026-05-01T06:46:36.421Z</time></trkpt><trkpt lat="45.0926017" lon="11.6619717"><ele>4.0</ele><time>2026-05-01T06:46:38.425Z</time></trkpt><trkpt lat="45.092705" lon="11.6620417"><ele>3.5</ele><time>2026-05-01T06:46:40.423Z</time></trkpt><trkpt lat="45.0928067" lon="11.6621167"><ele>3.0</ele><time>2026-05-01T06:46:42.421Z</time></trkpt><trkpt lat="45.0929067" lon="11.6621883"><ele>2.5</ele><time>2026-05-01T06:46:44.409Z</time></trkpt><trkpt lat="45.09301" lon="11.6622567"><ele>2.0</ele><time>2026-05-01T06:46:46.419Z</time></trkpt><trkpt lat="45.0931133" lon="11.6623283"><ele>2.0</ele><time>2026-05-01T06:46:48.421Z</time></trkpt><trkpt lat="45.0932183" lon="11.662405"><ele>2.0</ele><time>2026-05-01T06:46:50.414Z</time></trkpt><trkpt lat="45.0933217" lon="11.6624783"><ele>2.0</ele><time>2026-05-01T06:46:52.422Z</time></trkpt><trkpt lat="45.0934233" lon="11.6625467"><ele>2.0</ele><time>2026-05-01T06:46:54.423Z</time></trkpt><trkpt lat="45.09353" lon="11.6626167"><ele>2.75</ele><time>2026-05-01T06:46:56.421Z</time></trkpt><trkpt lat="45.0936333" lon="11.6626883"><ele>3.5</ele><time>2026-05-01T06:46:58.422Z</time></trkpt><trkpt lat="45.0937383" lon="11.6627617"><ele>4.25</ele><time>2026-05-01T06:47:00.424Z</time></trkpt><trkpt lat="45.0938433" lon="11.66283"><ele>5.0</ele><time>2026-05-01T06:47:02.426Z</time></trkpt><trkpt lat="45.0939417" lon="11.6629"><ele>5.0</ele><time>2026-05-01T06:47:04.416Z</time></trkpt><trkpt lat="45.0940367" lon="11.66296"><ele>5.0</ele><time>2026-05-01T06:47:06.403Z</time></trkpt><trkpt lat="45.0941333" lon="11.66302"><ele>5.0</ele><time>2026-05-01T06:47:08.419Z</time></trkpt><trkpt lat="45.0942367" lon="11.6630967"><ele>5.0</ele><time>2026-05-01T06:47:10.421Z</time></trkpt><trkpt lat="45.09435" lon="11.6631783"><ele>5.0</ele><time>2026-05-01T06:47:12.427Z</time></trkpt><trkpt lat="45.0944567" lon="11.663255"><ele>5.0</ele><time>2026-05-01T06:47:14.426Z</time></trkpt><trkpt lat="45.094565" lon="11.663335"><ele>5.0</ele><time>2026-05-01T06:47:16.42Z</time></trkpt><trkpt lat="45.0946783" lon="11.663415"><ele>5.0</ele><time>2026-05-01T06:47:18.42Z</time></trkpt><trkpt lat="45.0947367" lon="11.6634533"><ele>5.0</ele><time>2026-05-01T06:47:19.417Z</time></trkpt><trkpt lat="45.0947933" lon="11.6634933"><ele>5.0</ele><time>2026-05-01T06:47:20.417Z</time></trkpt><trkpt lat="45.0949067" lon="11.6635733"><ele>5.0</ele><time>2026-05-01T06:47:22.387Z</time></trkpt><trkpt lat="45.0950217" lon="11.66365"><ele>5.0</ele><time>2026-05-01T06:47:24.421Z</time></trkpt><trkpt lat="45.09508" lon="11.6636883"><ele>5.0</ele><time>2026-05-01T06:47:25.422Z</time></trkpt><trkpt lat="45.09514" lon="11.6637283"><ele>5.0</ele><time>2026-05-01T06:47:26.422Z</time></trkpt><trkpt lat="45.0951967" lon="11.66377"><ele>5.0</ele><time>2026-05-01T06:47:27.422Z</time></trkpt><trkpt lat="45.095255" lon="11.66381"><ele>5.0</ele><time>2026-05-01T06:47:28.424Z</time></trkpt><trkpt lat="45.0953117" lon="11.6638533"><ele>5.0</ele><time>2026-05-01T06:47:29.422Z</time></trkpt><trkpt lat="45.0954233" lon="11.6639317"><ele>5.0</ele><time>2026-05-01T06:47:31.416Z</time></trkpt><trkpt lat="45.0955333" lon="11.6640067"><ele>5.0</ele><time>2026-05-01T06:47:33.423Z</time></trkpt><trkpt lat="45.0956433" lon="11.6640817"><ele>5.0</ele><time>2026-05-01T06:47:35.42Z</time></trkpt><trkpt lat="45.0957567" lon="11.6641567"><ele>5.0</ele><time>2026-05-01T06:47:37.423Z</time></trkpt><trkpt lat="45.09587" lon="11.664235"><ele>5.0</ele><time>2026-05-01T06:47:39.418Z</time></trkpt><trkpt lat="45.0959267" lon="11.664275"><ele>5.0</ele><time>2026-05-01T06:47:40.421Z</time></trkpt><trkpt lat="45.095985" lon="11.6643167"><ele>5.0</ele><time>2026-05-01T06:47:41.422Z</time></trkpt><trkpt lat="45.0960417" lon="11.66436"><ele>5.0</ele><time>2026-05-01T06:47:42.422Z</time></trkpt><trkpt lat="45.09615" lon="11.6644417"><ele>5.0</ele><time>2026-05-01T06:47:44.42Z</time></trkpt><trkpt lat="45.0962617" lon="11.6645183"><ele>5.0</ele><time>2026-05-01T06:47:46.418Z</time></trkpt><trkpt lat="45.0963167" lon="11.6645633"><ele>5.0</ele><time>2026-05-01T06:47:47.418Z</time></trkpt><trkpt lat="45.0964083" lon="11.6646817"><ele>5.0</ele><time>2026-05-01T06:47:49.421Z</time></trkpt><trkpt lat="45.0964867" lon="11.6648167"><ele>5.0</ele><time>2026-05-01T06:47:51.412Z</time></trkpt><trkpt lat="45.0965683" lon="11.6649467"><ele>5.0</ele><time>2026-05-01T06:47:53.421Z</time></trkpt><trkpt lat="45.09668" lon="11.6650183"><ele>5.285714285714286</ele><time>2026-05-01T06:47:55.419Z</time></trkpt><trkpt lat="45.0967433" lon="11.6650333"><ele>5.571428571428571</ele><time>2026-05-01T06:47:56.426Z</time></trkpt><trkpt lat="45.09681" lon="11.665045"><ele>5.857142857142858</ele><time>2026-05-01T06:47:57.421Z</time></trkpt><trkpt lat="45.096875" lon="11.6650567"><ele>6.142857142857142</ele><time>2026-05-01T06:47:58.421Z</time></trkpt><trkpt lat="45.0969417" lon="11.6650683"><ele>6.428571428571429</ele><time>2026-05-01T06:47:59.419Z</time></trkpt><trkpt lat="45.097005" lon="11.66509"><ele>6.714285714285714</ele><time>2026-05-01T06:48:00.422Z</time></trkpt><trkpt lat="45.0970667" lon="11.6651233"><ele>7.0</ele><time>2026-05-01T06:48:01.42Z</time></trkpt><trkpt lat="45.0971267" lon="11.66516"><ele>7.0</ele><time>2026-05-01T06:48:02.422Z</time></trkpt><trkpt lat="45.0971833" lon="11.6652"><ele>7.0</ele><time>2026-05-01T06:48:03.423Z</time></trkpt><trkpt lat="45.0972433" lon="11.6652383"><ele>7.0</ele><time>2026-05-01T06:48:04.422Z</time></trkpt><trkpt lat="45.097305" lon="11.66528"><ele>7.0</ele><time>2026-05-01T06:48:05.423Z</time></trkpt><trkpt lat="45.097365" lon="11.6653233"><ele>7.0</ele><time>2026-05-01T06:48:06.423Z</time></trkpt><trkpt lat="45.0974283" lon="11.6653667"><ele>7.0</ele><time>2026-05-01T06:48:07.423Z</time></trkpt><trkpt lat="45.09749" lon="11.6654083"><ele>7.0</ele><time>2026-05-01T06:48:08.423Z</time></trkpt><trkpt lat="45.097555" lon="11.6654533"><ele>7.0</ele><time>2026-05-01T06:48:09.426Z</time></trkpt><trkpt lat="45.0976183" lon="11.6655"><ele>7.0</ele><time>2026-05-01T06:48:10.392Z</time></trkpt><trkpt lat="45.09768" lon="11.665545"><ele>7.0</ele><time>2026-05-01T06:48:11.417Z</time></trkpt><trkpt lat="45.097745" lon="11.665585"><ele>7.0</ele><time>2026-05-01T06:48:12.413Z</time></trkpt><trkpt lat="45.0978067" lon="11.6656233"><ele>7.0</ele><time>2026-05-01T06:48:13.416Z</time></trkpt><trkpt lat="45.0978683" lon="11.6656667"><ele>7.0</ele><time>2026-05-01T06:48:14.421Z</time></trkpt><trkpt lat="45.0979283" lon="11.66571"><ele>7.0</ele><time>2026-05-01T06:48:15.422Z</time></trkpt><trkpt lat="45.09799" lon="11.6657517"><ele>7.0</ele><time>2026-05-01T06:48:16.421Z</time></trkpt><trkpt lat="45.09805" lon="11.6657933"><ele>7.0</ele><time>2026-05-01T06:48:17.419Z</time></trkpt><trkpt lat="45.09811" lon="11.665835"><ele>7.0</ele><time>2026-05-01T06:48:18.42Z</time></trkpt><trkpt lat="45.0981717" lon="11.665875"><ele>7.0</ele><time>2026-05-01T06:48:19.419Z</time></trkpt><trkpt lat="45.098235" lon="11.6659133"><ele>7.0</ele><time>2026-05-01T06:48:20.424Z</time></trkpt><trkpt lat="45.098295" lon="11.665955"><ele>7.0</ele><time>2026-05-01T06:48:21.409Z</time></trkpt><trkpt lat="45.0983533" lon="11.6659967"><ele>7.0</ele><time>2026-05-01T06:48:22.42Z</time></trkpt><trkpt lat="45.098415" lon="11.666035"><ele>7.000000000000001</ele><time>2026-05-01T06:48:23.413Z</time></trkpt><trkpt lat="45.098475" lon="11.66608"><ele>7.0</ele><time>2026-05-01T06:48:24.41Z</time></trkpt><trkpt lat="45.098535" lon="11.6661233"><ele>7.0</ele><time>2026-05-01T06:48:25.425Z</time></trkpt><trkpt lat="45.0985967" lon="11.6661633"><ele>7.0</ele><time>2026-05-01T06:48:26.403Z</time></trkpt><trkpt lat="45.0986567" lon="11.666205"><ele>7.000000000000001</ele><time>2026-05-01T06:48:27.42Z</time></trkpt><trkpt lat="45.0987133" lon="11.6662467"><ele>7.0</ele><time>2026-05-01T06:48:28.418Z</time></trkpt><trkpt lat="45.0988267" lon="11.6663233"><ele>7.0</ele><time>2026-05-01T06:48:30.418Z</time></trkpt><trkpt lat="45.0988867" lon="11.666355"><ele>6.999999999999999</ele><time>2026-05-01T06:48:31.421Z</time></trkpt><trkpt lat="45.0990017" lon="11.6664167"><ele>6.999999999999999</ele><time>2026-05-01T06:48:33.422Z</time></trkpt><trkpt lat="45.0991183" lon="11.6664833"><ele>7.0</ele><time>2026-05-01T06:48:35.427Z</time></trkpt><trkpt lat="45.0992317" lon="11.6665483"><ele>7.0</ele><time>2026-05-01T06:48:37.421Z</time></trkpt><trkpt lat="45.0993417" lon="11.6666"><ele>7.0</ele><time>2026-05-01T06:48:39.421Z</time></trkpt><trkpt lat="45.0994617" lon="11.6665933"><ele>6.999999999999999</ele><time>2026-05-01T06:48:41.417Z</time></trkpt><trkpt lat="45.0995817" lon="11.6665483"><ele>6.999999999999999</ele><time>2026-05-01T06:48:43.422Z</time></trkpt><trkpt lat="45.0997017" lon="11.666495"><ele>7.0</ele><time>2026-05-01T06:48:45.424Z</time></trkpt><trkpt lat="45.0997617" lon="11.6664667"><ele>7.0</ele><time>2026-05-01T06:48:46.417Z</time></trkpt><trkpt lat="45.0998767" lon="11.6664117"><ele>7.0</ele><time>2026-05-01T06:48:48.412Z</time></trkpt><trkpt lat="45.0999367" lon="11.6663833"><ele>6.999999999999999</ele><time>2026-05-01T06:48:49.423Z</time></trkpt><trkpt lat="45.0999967" lon="11.6663533"><ele>6.999999999999999</ele><time>2026-05-01T06:48:50.423Z</time></trkpt><trkpt lat="45.100115" lon="11.6662933"><ele>7.0</ele><time>2026-05-01T06:48:52.423Z</time></trkpt><trkpt lat="45.1002233" lon="11.666235"><ele>7.0</ele><time>2026-05-01T06:48:54.416Z</time></trkpt><trkpt lat="45.100335" lon="11.66618"><ele>7.0</ele><time>2026-05-01T06:48:56.425Z</time></trkpt><trkpt lat="45.10045" lon="11.666125"><ele>7.0</ele><time>2026-05-01T06:48:58.411Z</time></trkpt><trkpt lat="45.1005633" lon="11.66607"><ele>7.0</ele><time>2026-05-01T06:49:00.423Z</time></trkpt><trkpt lat="45.1006717" lon="11.66602"><ele>7.0</ele><time>2026-05-01T06:49:02.425Z</time></trkpt><trkpt lat="45.1007633" lon="11.665975"><ele>6.833333333333334</ele><time>2026-05-01T06:49:04.399Z</time></trkpt><trkpt lat="45.1008417" lon="11.6659333"><ele>6.666666666666667</ele><time>2026-05-01T06:49:06.412Z</time></trkpt><trkpt lat="45.10092" lon="11.665865"><ele>6.5</ele><time>2026-05-01T06:49:09.426Z</time></trkpt><trkpt lat="45.1009833" lon="11.6657933"><ele>6.333333333333334</ele><time>2026-05-01T06:49:11.411Z</time></trkpt><trkpt lat="45.1010567" lon="11.6657167"><ele>6.166666666666667</ele><time>2026-05-01T06:49:13.415Z</time></trkpt><trkpt lat="45.1011417" lon="11.6656667"><ele>6.0</ele><time>2026-05-01T06:49:15.423Z</time></trkpt><trkpt lat="45.1012333" lon="11.665625"><ele>6.0</ele><time>2026-05-01T06:49:17.42Z</time></trkpt><trkpt lat="45.1013267" lon="11.6655717"><ele>6.0</ele><time>2026-05-01T06:49:19.422Z</time></trkpt><trkpt lat="45.1014217" lon="11.6655167"><ele>6.0</ele><time>2026-05-01T06:49:21.42Z</time></trkpt><trkpt lat="45.1015183" lon="11.6654683"><ele>6.0</ele><time>2026-05-01T06:49:23.424Z</time></trkpt><trkpt lat="45.1016033" lon="11.6653833"><ele>6.0</ele><time>2026-05-01T06:49:25.4Z</time></trkpt><trkpt lat="45.1016883" lon="11.66529"><ele>5.8</ele><time>2026-05-01T06:49:27.418Z</time></trkpt><trkpt lat="45.10178" lon="11.665205"><ele>5.6</ele><time>2026-05-01T06:49:29.421Z</time></trkpt><trkpt lat="45.101875" lon="11.6651267"><ele>5.4</ele><time>2026-05-01T06:49:31.424Z</time></trkpt><trkpt lat="45.1019683" lon="11.6650433"><ele>5.2</ele><time>2026-05-01T06:49:33.424Z</time></trkpt><trkpt lat="45.1020633" lon="11.6649683"><ele>5.0</ele><time>2026-05-01T06:49:35.424Z</time></trkpt><trkpt lat="45.1021567" lon="11.6649017"><ele>5.0</ele><time>2026-05-01T06:49:37.419Z</time></trkpt><trkpt lat="45.102255" lon="11.664825"><ele>5.0</ele><time>2026-05-01T06:49:39.424Z</time></trkpt><trkpt lat="45.10233" lon="11.6647267"><ele>5.0</ele><time>2026-05-01T06:49:41.429Z</time></trkpt><trkpt lat="45.1023783" lon="11.664585"><ele>5.0</ele><time>2026-05-01T06:49:43.422Z</time></trkpt><trkpt lat="45.1024" lon="11.6644233"><ele>5.0</ele><time>2026-05-01T06:49:45.424Z</time></trkpt><trkpt lat="45.1024233" lon="11.6642617"><ele>5.25</ele><time>2026-05-01T06:49:47.424Z</time></trkpt><trkpt lat="45.1024467" lon="11.6640983"><ele>5.5</ele><time>2026-05-01T06:49:49.422Z</time></trkpt><trkpt lat="45.1024667" lon="11.6639383"><ele>5.75</ele><time>2026-05-01T06:49:51.423Z</time></trkpt><trkpt lat="45.102485" lon="11.6637783"><ele>6.0</ele><time>2026-05-01T06:49:53.42Z</time></trkpt><trkpt lat="45.1025017" lon="11.6636017"><ele>6.166666666666667</ele><time>2026-05-01T06:49:55.424Z</time></trkpt><trkpt lat="45.1025267" lon="11.6634267"><ele>6.333333333333334</ele><time>2026-05-01T06:49:57.402Z</time></trkpt><trkpt lat="45.1025383" lon="11.6633333"><ele>6.5</ele><time>2026-05-01T06:49:58.409Z</time></trkpt><trkpt lat="45.1025483" lon="11.66324"><ele>6.666666666666667</ele><time>2026-05-01T06:49:59.42Z</time></trkpt><trkpt lat="45.10256" lon="11.6631483"><ele>6.833333333333334</ele><time>2026-05-01T06:50:00.422Z</time></trkpt><trkpt lat="45.1025717" lon="11.6630583"><ele>7.0</ele><time>2026-05-01T06:50:01.426Z</time></trkpt><trkpt lat="45.102585" lon="11.66297"><ele>7.0</ele><time>2026-05-01T06:50:02.433Z</time></trkpt><trkpt lat="45.1025983" lon="11.66288"><ele>7.0</ele><time>2026-05-01T06:50:03.422Z</time></trkpt><trkpt lat="45.1026117" lon="11.6627917"><ele>7.0</ele><time>2026-05-01T06:50:04.414Z</time></trkpt><trkpt lat="45.1026217" lon="11.6627033"><ele>7.0</ele><time>2026-05-01T06:50:05.419Z</time></trkpt><trkpt lat="45.102635" lon="11.662615"><ele>7.0</ele><time>2026-05-01T06:50:06.422Z</time></trkpt><trkpt lat="45.1026467" lon="11.6625267"><ele>7.0</ele><time>2026-05-01T06:50:07.423Z</time></trkpt><trkpt lat="45.1026567" lon="11.6624367"><ele>7.0</ele><time>2026-05-01T06:50:08.407Z</time></trkpt><trkpt lat="45.10268" lon="11.6622633"><ele>7.0</ele><time>2026-05-01T06:50:10.421Z</time></trkpt><trkpt lat="45.1027117" lon="11.6620967"><ele>7.0</ele><time>2026-05-01T06:50:12.424Z</time></trkpt><trkpt lat="45.10276" lon="11.6619467"><ele>7.0</ele><time>2026-05-01T06:50:14.418Z</time></trkpt><trkpt lat="45.1028183" lon="11.6618183"><ele>7.0</ele><time>2026-05-01T06:50:16.424Z</time></trkpt><trkpt lat="45.1028783" lon="11.6616883"><ele>7.0</ele><time>2026-05-01T06:50:18.424Z</time></trkpt><trkpt lat="45.1029267" lon="11.6615533"><ele>6.999999999999999</ele><time>2026-05-01T06:50:20.424Z</time></trkpt><trkpt lat="45.1029583" lon="11.6614217"><ele>6.999999999999999</ele><time>2026-05-01T06:50:22.425Z</time></trkpt><trkpt lat="45.1029817" lon="11.6612967"><ele>7.0</ele><time>2026-05-01T06:50:24.415Z</time></trkpt><trkpt lat="45.10303" lon="11.6611883"><ele>7.0</ele><time>2026-05-01T06:50:26.418Z</time></trkpt><trkpt lat="45.1031017" lon="11.6611"><ele>7.0</ele><time>2026-05-01T06:50:28.422Z</time></trkpt><trkpt lat="45.1031767" lon="11.6610017"><ele>6.999999999999999</ele><time>2026-05-01T06:50:30.411Z</time></trkpt><trkpt lat="45.1032467" lon="11.6609017"><ele>6.999999999999999</ele><time>2026-05-01T06:50:32.431Z</time></trkpt><trkpt lat="45.1033117" lon="11.6607967"><ele>7.0</ele><time>2026-05-01T06:50:34.424Z</time></trkpt><trkpt lat="45.103375" lon="11.660695"><ele>7.0</ele><time>2026-05-01T06:50:36.424Z</time></trkpt><trkpt lat="45.1034433" lon="11.6605883"><ele>7.3999999999999995</ele><time>2026-05-01T06:50:38.424Z</time></trkpt><trkpt lat="45.1035183" lon="11.6604867"><ele>7.799999999999999</ele><time>2026-05-01T06:50:40.4Z</time></trkpt><trkpt lat="45.1035883" lon="11.6603817"><ele>8.2</ele><time>2026-05-01T06:50:42.431Z</time></trkpt><trkpt lat="45.1036533" lon="11.6602783"><ele>8.6</ele><time>2026-05-01T06:50:44.414Z</time></trkpt><trkpt lat="45.1037183" lon="11.6601817"><ele>9.0</ele><time>2026-05-01T06:50:46.424Z</time></trkpt><trkpt lat="45.103785" lon="11.6600817"><ele>9.0</ele><time>2026-05-01T06:50:48.426Z</time></trkpt><trkpt lat="45.1038483" lon="11.6599733"><ele>9.0</ele><time>2026-05-01T06:50:50.426Z</time></trkpt><trkpt lat="45.1039083" lon="11.6598533"><ele>9.0</ele><time>2026-05-01T06:50:52.423Z</time></trkpt><trkpt lat="45.1039583" lon="11.6597333"><ele>9.0</ele><time>2026-05-01T06:50:54.414Z</time></trkpt><trkpt lat="45.103995" lon="11.659615"><ele>9.0</ele><time>2026-05-01T06:50:56.425Z</time></trkpt><trkpt lat="45.10403" lon="11.659505"><ele>8.833333333333334</ele><time>2026-05-01T06:50:58.42Z</time></trkpt><trkpt lat="45.1040617" lon="11.6594"><ele>8.666666666666666</ele><time>2026-05-01T06:51:00.426Z</time></trkpt><trkpt lat="45.1040917" lon="11.6592983"><ele>8.5</ele><time>2026-05-01T06:51:02.407Z</time></trkpt><trkpt lat="45.104115" lon="11.659215"><ele>8.333333333333332</ele><time>2026-05-01T06:51:04.407Z</time></trkpt><trkpt lat="45.1041667" lon="11.6591283"><ele>8.166666666666666</ele><time>2026-05-01T06:51:07.425Z</time></trkpt><trkpt lat="45.1042667" lon="11.6591533"><ele>8.0</ele><time>2026-05-01T06:51:10.424Z</time></trkpt><trkpt lat="45.1043467" lon="11.65919"><ele>8.5</ele><time>2026-05-01T06:51:12.399Z</time></trkpt><trkpt lat="45.1044283" lon="11.6592217"><ele>9.0</ele><time>2026-05-01T06:51:14.411Z</time></trkpt><trkpt lat="45.1045117" lon="11.65926"><ele>9.5</ele><time>2026-05-01T06:51:16.433Z</time></trkpt><trkpt lat="45.1045917" lon="11.6592933"><ele>10.0</ele><time>2026-05-01T06:51:18.424Z</time></trkpt><trkpt lat="45.1046733" lon="11.6593317"><ele>10.5</ele><time>2026-05-01T06:51:20.416Z</time></trkpt><trkpt lat="45.10476" lon="11.6593633"><ele>11.0</ele><time>2026-05-01T06:51:22.427Z</time></trkpt><trkpt lat="45.1048467" lon="11.6593983"><ele>10.5</ele><time>2026-05-01T06:51:24.397Z</time></trkpt><trkpt lat="45.1049317" lon="11.6594333"><ele>10.0</ele><time>2026-05-01T06:51:26.419Z</time></trkpt><trkpt lat="45.1050117" lon="11.65947"><ele>9.5</ele><time>2026-05-01T06:51:28.425Z</time></trkpt><trkpt lat="45.1050867" lon="11.6595033"><ele>9.0</ele><time>2026-05-01T06:51:30.422Z</time></trkpt><trkpt lat="45.1051667" lon="11.6595417"><ele>8.5</ele><time>2026-05-01T06:51:32.419Z</time></trkpt><trkpt lat="45.1052533" lon="11.6595833"><ele>8.0</ele><time>2026-05-01T06:51:34.413Z</time></trkpt><trkpt lat="45.1053433" lon="11.6596233"><ele>7.999999999999999</ele><time>2026-05-01T06:51:36.424Z</time></trkpt><trkpt lat="45.1054283" lon="11.6596617"><ele>8.0</ele><time>2026-05-01T06:51:38.426Z</time></trkpt><trkpt lat="45.1055117" lon="11.6596983"><ele>8.0</ele><time>2026-05-01T06:51:40.423Z</time></trkpt><trkpt lat="45.1055933" lon="11.6597367"><ele>8.0</ele><time>2026-05-01T06:51:42.422Z</time></trkpt><trkpt lat="45.1056733" lon="11.6597583"><ele>7.999999999999999</ele><time>2026-05-01T06:51:45.413Z</time></trkpt><trkpt lat="45.1057417" lon="11.6597367"><ele>8.0</ele><time>2026-05-01T06:51:47.416Z</time></trkpt><trkpt lat="45.1058033" lon="11.6596483"><ele>8.0</ele><time>2026-05-01T06:51:49.414Z</time></trkpt><trkpt lat="45.1058417" lon="11.65952"><ele>8.0</ele><time>2026-05-01T06:51:51.407Z</time></trkpt><trkpt lat="45.1058833" lon="11.65938"><ele>8.0</ele><time>2026-05-01T06:51:53.422Z</time></trkpt><trkpt lat="45.1059267" lon="11.6592367"><ele>8.0</ele><time>2026-05-01T06:51:55.422Z</time></trkpt><trkpt lat="45.1059683" lon="11.65909"><ele>8.0</ele><time>2026-05-01T06:51:57.423Z</time></trkpt><trkpt lat="45.1060167" lon="11.6589433"><ele>7.75</ele><time>2026-05-01T06:51:59.422Z</time></trkpt><trkpt lat="45.1060633" lon="11.65879"><ele>7.5</ele><time>2026-05-01T06:52:01.421Z</time></trkpt><trkpt lat="45.1061067" lon="11.658635"><ele>7.25</ele><time>2026-05-01T06:52:03.399Z</time></trkpt><trkpt lat="45.1061467" lon="11.6584767"><ele>7.0</ele><time>2026-05-01T06:52:05.396Z</time></trkpt><trkpt lat="45.1061867" lon="11.6583183"><ele>7.3999999999999995</ele><time>2026-05-01T06:52:07.422Z</time></trkpt><trkpt lat="45.10622" lon="11.6581533"><ele>7.799999999999999</ele><time>2026-05-01T06:52:09.42Z</time></trkpt><trkpt lat="45.1062483" lon="11.657985"><ele>8.2</ele><time>2026-05-01T06:52:11.413Z</time></trkpt><trkpt lat="45.1062633" lon="11.6578067"><ele>8.6</ele><time>2026-05-01T06:52:13.423Z</time></trkpt><trkpt lat="45.10627" lon="11.65771"><ele>9.0</ele><time>2026-05-01T06:52:14.423Z</time></trkpt><trkpt lat="45.106275" lon="11.6576117"><ele>9.000000000000002</ele><time>2026-05-01T06:52:15.422Z</time></trkpt><trkpt lat="45.1062783" lon="11.6575133"><ele>9.0</ele><time>2026-05-01T06:52:16.399Z</time></trkpt><trkpt lat="45.1062783" lon="11.657415"><ele>9.0</ele><time>2026-05-01T06:52:17.392Z</time></trkpt><trkpt lat="45.106275" lon="11.6573167"><ele>9.0</ele><time>2026-05-01T06:52:18.416Z</time></trkpt><trkpt lat="45.106275" lon="11.65722"><ele>9.0</ele><time>2026-05-01T06:52:19.409Z</time></trkpt><trkpt lat="45.10627" lon="11.6571233"><ele>9.000000000000002</ele><time>2026-05-01T06:52:20.389Z</time></trkpt><trkpt lat="45.1062667" lon="11.6570283"><ele>9.0</ele><time>2026-05-01T06:52:21.386Z</time></trkpt><trkpt lat="45.1062617" lon="11.656935"><ele>9.000000000000002</ele><time>2026-05-01T06:52:22.398Z</time></trkpt><trkpt lat="45.106255" lon="11.656845"><ele>9.0</ele><time>2026-05-01T06:52:23.394Z</time></trkpt><trkpt lat="45.10625" lon="11.6567533"><ele>9.0</ele><time>2026-05-01T06:52:24.419Z</time></trkpt><trkpt lat="45.1062417" lon="11.6566617"><ele>9.0</ele><time>2026-05-01T06:52:25.411Z</time></trkpt><trkpt lat="45.106235" lon="11.6565683"><ele>9.0</ele><time>2026-05-01T06:52:26.386Z</time></trkpt><trkpt lat="45.10623" lon="11.6564733"><ele>9.000000000000002</ele><time>2026-05-01T06:52:27.389Z</time></trkpt><trkpt lat="45.1062267" lon="11.65638"><ele>9.0</ele><time>2026-05-01T06:52:28.398Z</time></trkpt><trkpt lat="45.1062283" lon="11.6562867"><ele>9.000000000000002</ele><time>2026-05-01T06:52:29.396Z</time></trkpt><trkpt lat="45.1062367" lon="11.6561917"><ele>9.0</ele><time>2026-05-01T06:52:30.405Z</time></trkpt><trkpt lat="45.10625" lon="11.6560967"><ele>9.0</ele><time>2026-05-01T06:52:31.467Z</time></trkpt><trkpt lat="45.1062683" lon="11.656"><ele>9.0</ele><time>2026-05-01T06:52:32.5Z</time></trkpt><trkpt lat="45.1062933" lon="11.6559067"><ele>9.0</ele><time>2026-05-01T06:52:33.408Z</time></trkpt><trkpt lat="45.1063217" lon="11.655815"><ele>9.000000000000002</ele><time>2026-05-01T06:52:34.398Z</time></trkpt><trkpt lat="45.1063583" lon="11.65573"><ele>9.0</ele><time>2026-05-01T06:52:35.401Z</time></trkpt><trkpt lat="45.1063967" lon="11.6556483"><ele>9.000000000000002</ele><time>2026-05-01T06:52:36.399Z</time></trkpt><trkpt lat="45.10644" lon="11.65557"><ele>9.0</ele><time>2026-05-01T06:52:37.411Z</time></trkpt><trkpt lat="45.106485" lon="11.6554967"><ele>9.0</ele><time>2026-05-01T06:52:38.389Z</time></trkpt><trkpt lat="45.10653" lon="11.6554267"><ele>9.0</ele><time>2026-05-01T06:52:39.412Z</time></trkpt><trkpt lat="45.106575" lon="11.6553567"><ele>9.0</ele><time>2026-05-01T06:52:40.399Z</time></trkpt><trkpt lat="45.1066233" lon="11.6552867"><ele>9.000000000000002</ele><time>2026-05-01T06:52:41.42Z</time></trkpt><trkpt lat="45.1066733" lon="11.65522"><ele>9.0</ele><time>2026-05-01T06:52:42.404Z</time></trkpt><trkpt lat="45.1067217" lon="11.6551533"><ele>8.714285714285715</ele><time>2026-05-01T06:52:43.398Z</time></trkpt><trkpt lat="45.10677" lon="11.6550867"><ele>8.428571428571429</ele><time>2026-05-01T06:52:44.414Z</time></trkpt><trkpt lat="45.1068167" lon="11.6550233"><ele>8.142857142857142</ele><time>2026-05-01T06:52:45.4Z</time></trkpt><trkpt lat="45.1068667" lon="11.6549617"><ele>7.857142857142858</ele><time>2026-05-01T06:52:46.384Z</time></trkpt><trkpt lat="45.106915" lon="11.6549017"><ele>7.571428571428571</ele><time>2026-05-01T06:52:47.399Z</time></trkpt><trkpt lat="45.106965" lon="11.65484"><ele>7.285714285714286</ele><time>2026-05-01T06:52:48.398Z</time></trkpt><trkpt lat="45.107015" lon="11.6547783"><ele>7.0</ele><time>2026-05-01T06:52:49.415Z</time></trkpt><trkpt lat="45.107065" lon="11.6547183"><ele>7.0</ele><time>2026-05-01T06:52:50.405Z</time></trkpt><trkpt lat="45.1071133" lon="11.65466"><ele>7.0</ele><time>2026-05-01T06:52:51.386Z</time></trkpt><trkpt lat="45.107165" lon="11.6546"><ele>7.0</ele><time>2026-05-01T06:52:52.401Z</time></trkpt><trkpt lat="45.1072167" lon="11.65454"><ele>7.0</ele><time>2026-05-01T06:52:53.397Z</time></trkpt><trkpt lat="45.1072683" lon="11.6544783"><ele>7.0</ele><time>2026-05-01T06:52:54.4Z</time></trkpt><trkpt lat="45.1073217" lon="11.6544167"><ele>7.0</ele><time>2026-05-01T06:52:55.403Z</time></trkpt><trkpt lat="45.1073733" lon="11.6543533"><ele>7.0</ele><time>2026-05-01T06:52:56.393Z</time></trkpt><trkpt lat="45.1074267" lon="11.6542967"><ele>7.285714285714286</ele><time>2026-05-01T06:52:57.404Z</time></trkpt><trkpt lat="45.1074783" lon="11.6542367"><ele>7.571428571428571</ele><time>2026-05-01T06:52:58.391Z</time></trkpt><trkpt lat="45.1075317" lon="11.6541767"><ele>7.857142857142858</ele><time>2026-05-01T06:52:59.393Z</time></trkpt><trkpt lat="45.1075833" lon="11.6541183"><ele>8.142857142857142</ele><time>2026-05-01T06:53:00.41Z</time></trkpt><trkpt lat="45.107635" lon="11.65406"><ele>8.428571428571429</ele><time>2026-05-01T06:53:01.396Z</time></trkpt><trkpt lat="45.1076867" lon="11.654"><ele>8.714285714285715</ele><time>2026-05-01T06:53:02.418Z</time></trkpt><trkpt lat="45.1077417" lon="11.65394"><ele>9.0</ele><time>2026-05-01T06:53:03.429Z</time></trkpt><trkpt lat="45.1077933" lon="11.6538833"><ele>9.0</ele><time>2026-05-01T06:53:04.422Z</time></trkpt><trkpt lat="45.1078433" lon="11.653825"><ele>9.0</ele><time>2026-05-01T06:53:05.395Z</time></trkpt><trkpt lat="45.1078933" lon="11.6537683"><ele>9.0</ele><time>2026-05-01T06:53:06.417Z</time></trkpt><trkpt lat="45.107995" lon="11.6536667"><ele>9.0</ele><time>2026-05-01T06:53:08.415Z</time></trkpt><trkpt lat="45.1081033" lon="11.653575"><ele>9.0</ele><time>2026-05-01T06:53:10.403Z</time></trkpt><trkpt lat="45.10816" lon="11.6535333"><ele>9.0</ele><time>2026-05-01T06:53:11.419Z</time></trkpt><trkpt lat="45.1082167" lon="11.6534867"><ele>9.0</ele><time>2026-05-01T06:53:12.419Z</time></trkpt><trkpt lat="45.1082767" lon="11.653435"><ele>9.0</ele><time>2026-05-01T06:53:13.423Z</time></trkpt><trkpt lat="45.1083367" lon="11.6533767"><ele>9.0</ele><time>2026-05-01T06:53:14.417Z</time></trkpt><trkpt lat="45.1083967" lon="11.65331"><ele>9.0</ele><time>2026-05-01T06:53:15.404Z</time></trkpt><trkpt lat="45.10846" lon="11.6532433"><ele>9.0</ele><time>2026-05-01T06:53:16.42Z</time></trkpt><trkpt lat="45.1085233" lon="11.6531717"><ele>9.0</ele><time>2026-05-01T06:53:17.421Z</time></trkpt><trkpt lat="45.10859" lon="11.6531017"><ele>9.0</ele><time>2026-05-01T06:53:18.41Z</time></trkpt><trkpt lat="45.1086617" lon="11.6530367"><ele>9.0</ele><time>2026-05-01T06:53:19.414Z</time></trkpt><trkpt lat="45.108735" lon="11.652975"><ele>9.0</ele><time>2026-05-01T06:53:20.425Z</time></trkpt><trkpt lat="45.10881" lon="11.6529183"><ele>9.0</ele><time>2026-05-01T06:53:21.392Z</time></trkpt><trkpt lat="45.1088817" lon="11.65286"><ele>9.0</ele><time>2026-05-01T06:53:22.423Z</time></trkpt><trkpt lat="45.1089483" lon="11.6527933"><ele>9.0</ele><time>2026-05-01T06:53:23.42Z</time></trkpt><trkpt lat="45.1090083" lon="11.652715"><ele>8.833333333333334</ele><time>2026-05-01T06:53:24.416Z</time></trkpt><trkpt lat="45.1090617" lon="11.6526383"><ele>8.666666666666666</ele><time>2026-05-01T06:53:25.424Z</time></trkpt><trkpt lat="45.1091133" lon="11.6525783"><ele>8.5</ele><time>2026-05-01T06:53:26.423Z</time></trkpt><trkpt lat="45.1092367" lon="11.6525417"><ele>8.333333333333332</ele><time>2026-05-01T06:53:28.416Z</time></trkpt><trkpt lat="45.1093033" lon="11.65257"><ele>8.166666666666666</ele><time>2026-05-01T06:53:29.414Z</time></trkpt><trkpt lat="45.1093633" lon="11.6526267"><ele>8.0</ele><time>2026-05-01T06:53:30.422Z</time></trkpt><trkpt lat="45.1094233" lon="11.652695"><ele>7.999999999999999</ele><time>2026-05-01T06:53:31.41Z</time></trkpt><trkpt lat="45.1094833" lon="11.6527633"><ele>8.0</ele><time>2026-05-01T06:53:32.424Z</time></trkpt><trkpt lat="45.1095417" lon="11.6528283"><ele>8.0</ele><time>2026-05-01T06:53:33.426Z</time></trkpt><trkpt lat="45.1095967" lon="11.6528917"><ele>8.0</ele><time>2026-05-01T06:53:34.42Z</time></trkpt><trkpt lat="45.10965" lon="11.652955"><ele>7.999999999999999</ele><time>2026-05-01T06:53:35.42Z</time></trkpt><trkpt lat="45.1097017" lon="11.65302"><ele>8.0</ele><time>2026-05-01T06:53:36.419Z</time></trkpt><trkpt lat="45.1097967" lon="11.65314"><ele>7.6000000000000005</ele><time>2026-05-01T06:53:38.428Z</time></trkpt><trkpt lat="45.1098667" lon="11.6532783"><ele>7.200000000000001</ele><time>2026-05-01T06:53:40.423Z</time></trkpt><trkpt lat="45.109895" lon="11.6534167"><ele>6.8</ele><time>2026-05-01T06:53:42.422Z</time></trkpt><trkpt lat="45.1099067" lon="11.653545"><ele>6.4</ele><time>2026-05-01T06:53:44.419Z</time></trkpt><trkpt lat="45.1099167" lon="11.6536833"><ele>6.0</ele><time>2026-05-01T06:53:46.419Z</time></trkpt><trkpt lat="45.1099383" lon="11.6538433"><ele>5.6</ele><time>2026-05-01T06:53:48.421Z</time></trkpt><trkpt lat="45.110005" lon="11.6539883"><ele>5.199999999999999</ele><time>2026-05-01T06:53:50.425Z</time></trkpt><trkpt lat="45.11011" lon="11.6540717"><ele>4.800000000000001</ele><time>2026-05-01T06:53:52.418Z</time></trkpt><trkpt lat="45.1101717" lon="11.6540933"><ele>4.4</ele><time>2026-05-01T06:53:53.416Z</time></trkpt><trkpt lat="45.1102967" lon="11.6541267"><ele>4.0</ele><time>2026-05-01T06:53:55.437Z</time></trkpt><trkpt lat="45.11036" lon="11.6541433"><ele>3.9999999999999996</ele><time>2026-05-01T06:53:56.421Z</time></trkpt><trkpt lat="45.110485" lon="11.6541717"><ele>4.0</ele><time>2026-05-01T06:53:58.411Z</time></trkpt><trkpt lat="45.1105483" lon="11.6541867"><ele>4.0</ele><time>2026-05-01T06:53:59.418Z</time></trkpt><trkpt lat="45.110675" lon="11.65422"><ele>4.0</ele><time>2026-05-01T06:54:01.417Z</time></trkpt><trkpt lat="45.1107383" lon="11.6542383"><ele>3.9999999999999996</ele><time>2026-05-01T06:54:02.427Z</time></trkpt><trkpt lat="45.1108" lon="11.6542567"><ele>4.0</ele><time>2026-05-01T06:54:03.414Z</time></trkpt><trkpt lat="45.1108617" lon="11.654275"><ele>3.8000000000000003</ele><time>2026-05-01T06:54:04.42Z</time></trkpt><trkpt lat="45.1109233" lon="11.654295"><ele>3.6000000000000005</ele><time>2026-05-01T06:54:05.427Z</time></trkpt><trkpt lat="45.110985" lon="11.6543133"><ele>3.4</ele><time>2026-05-01T06:54:06.425Z</time></trkpt><trkpt lat="45.1111083" lon="11.6543517"><ele>3.2</ele><time>2026-05-01T06:54:08.412Z</time></trkpt><trkpt lat="45.11123" lon="11.6543867"><ele>3.0</ele><time>2026-05-01T06:54:10.425Z</time></trkpt><trkpt lat="45.11135" lon="11.6544183"><ele>3.0</ele><time>2026-05-01T06:54:12.42Z</time></trkpt><trkpt lat="45.11147" lon="11.65445"><ele>3.0</ele><time>2026-05-01T06:54:14.419Z</time></trkpt><trkpt lat="45.1115917" lon="11.6544833"><ele>3.0</ele><time>2026-05-01T06:54:16.414Z</time></trkpt><trkpt lat="45.1116533" lon="11.6545033"><ele>3.0</ele><time>2026-05-01T06:54:17.419Z</time></trkpt><trkpt lat="45.111715" lon="11.6545217"><ele>3.0</ele><time>2026-05-01T06:54:18.423Z</time></trkpt><trkpt lat="45.1117767" lon="11.65454"><ele>3.0</ele><time>2026-05-01T06:54:19.407Z</time></trkpt><trkpt lat="45.1118967" lon="11.65458"><ele>2.75</ele><time>2026-05-01T06:54:21.422Z</time></trkpt><trkpt lat="45.1120183" lon="11.6546183"><ele>2.5</ele><time>2026-05-01T06:54:23.422Z</time></trkpt><trkpt lat="45.1121383" lon="11.6546517"><ele>2.25</ele><time>2026-05-01T06:54:25.405Z</time></trkpt><trkpt lat="45.1122533" lon="11.65469"><ele>2.0</ele><time>2026-05-01T06:54:27.422Z</time></trkpt><trkpt lat="45.112365" lon="11.6547283"><ele>2.4000000000000004</ele><time>2026-05-01T06:54:29.423Z</time></trkpt><trkpt lat="45.1124783" lon="11.6547633"><ele>2.8000000000000003</ele><time>2026-05-01T06:54:31.427Z</time></trkpt><trkpt lat="45.1125983" lon="11.6547983"><ele>3.2</ele><time>2026-05-01T06:54:33.414Z</time></trkpt><trkpt lat="45.11266" lon="11.6548183"><ele>3.6</ele><time>2026-05-01T06:54:34.427Z</time></trkpt><trkpt lat="45.1127817" lon="11.6548533"><ele>4.0</ele><time>2026-05-01T06:54:36.421Z</time></trkpt><trkpt lat="45.1128433" lon="11.6548717"><ele>4.0</ele><time>2026-05-01T06:54:37.418Z</time></trkpt><trkpt lat="45.1129067" lon="11.6548917"><ele>4.0</ele><time>2026-05-01T06:54:38.421Z</time></trkpt><trkpt lat="45.1130283" lon="11.654925"><ele>4.0</ele><time>2026-05-01T06:54:40.416Z</time></trkpt><trkpt lat="45.1131517" lon="11.654955"><ele>4.0</ele><time>2026-05-01T06:54:42.418Z</time></trkpt><trkpt lat="45.1132683" lon="11.6549467"><ele>4.0</ele><time>2026-05-01T06:54:44.402Z</time></trkpt><trkpt lat="45.1133533" lon="11.6548483"><ele>3.9999999999999996</ele><time>2026-05-01T06:54:46.402Z</time></trkpt><trkpt lat="45.1133933" lon="11.6546917"><ele>4.0</ele><time>2026-05-01T06:54:48.419Z</time></trkpt><trkpt lat="45.11344" lon="11.654525"><ele>4.0</ele><time>2026-05-01T06:54:50.424Z</time></trkpt><trkpt lat="45.113465" lon="11.65444"><ele>4.0</ele><time>2026-05-01T06:54:51.415Z</time></trkpt><trkpt lat="45.1134917" lon="11.6543567"><ele>3.9999999999999996</ele><time>2026-05-01T06:54:52.419Z</time></trkpt><trkpt lat="45.1135183" lon="11.654275"><ele>4.0</ele><time>2026-05-01T06:54:53.412Z</time></trkpt><trkpt lat="45.1135467" lon="11.6541933"><ele>4.0</ele><time>2026-05-01T06:54:54.423Z</time></trkpt><trkpt lat="45.1135717" lon="11.6541083"><ele>4.0</ele><time>2026-05-01T06:54:55.423Z</time></trkpt><trkpt lat="45.113595" lon="11.6540233"><ele>4.0</ele><time>2026-05-01T06:54:56.426Z</time></trkpt><trkpt lat="45.1136183" lon="11.65394"><ele>4.0</ele><time>2026-05-01T06:54:57.388Z</time></trkpt><trkpt lat="45.1136417" lon="11.6538567"><ele>4.0</ele><time>2026-05-01T06:54:58.428Z</time></trkpt><trkpt lat="45.1136633" lon="11.6537717"><ele>4.0</ele><time>2026-05-01T06:54:59.416Z</time></trkpt><trkpt lat="45.113685" lon="11.653685"><ele>4.0</ele><time>2026-05-01T06:55:00.429Z</time></trkpt><trkpt lat="45.1137083" lon="11.6536"><ele>4.0</ele><time>2026-05-01T06:55:01.423Z</time></trkpt><trkpt lat="45.1137483" lon="11.6534333"><ele>4.0</ele><time>2026-05-01T06:55:03.424Z</time></trkpt><trkpt lat="45.1137933" lon="11.6532667"><ele>4.0</ele><time>2026-05-01T06:55:05.417Z</time></trkpt><trkpt lat="45.1138367" lon="11.653105"><ele>4.0</ele><time>2026-05-01T06:55:07.426Z</time></trkpt><trkpt lat="45.1138833" lon="11.65295"><ele>4.0</ele><time>2026-05-01T06:55:09.422Z</time></trkpt><trkpt lat="45.11393" lon="11.65279"><ele>4.25</ele><time>2026-05-01T06:55:11.426Z</time></trkpt><trkpt lat="45.113975" lon="11.6526317"><ele>4.5</ele><time>2026-05-01T06:55:13.423Z</time></trkpt><trkpt lat="45.1140183" lon="11.6524783"><ele>4.75</ele><time>2026-05-01T06:55:15.422Z</time></trkpt><trkpt lat="45.1140617" lon="11.65233"><ele>5.0</ele><time>2026-05-01T06:55:17.425Z</time></trkpt><trkpt lat="45.1141017" lon="11.6521883"><ele>5.0</ele><time>2026-05-01T06:55:19.414Z</time></trkpt><trkpt lat="45.11414" lon="11.6520417"><ele>5.0</ele><time>2026-05-01T06:55:21.422Z</time></trkpt><trkpt lat="45.1141817" lon="11.6518983"><ele>5.0</ele><time>2026-05-01T06:55:23.421Z</time></trkpt><trkpt lat="45.11423" lon="11.6517517"><ele>5.0</ele><time>2026-05-01T06:55:25.427Z</time></trkpt><trkpt lat="45.114275" lon="11.6515967"><ele>5.0</ele><time>2026-05-01T06:55:27.425Z</time></trkpt><trkpt lat="45.11432" lon="11.6514417"><ele>5.0</ele><time>2026-05-01T06:55:29.398Z</time></trkpt><trkpt lat="45.114365" lon="11.651295"><ele>5.0</ele><time>2026-05-01T06:55:31.423Z</time></trkpt><trkpt lat="45.114435" lon="11.6511967"><ele>5.0</ele><time>2026-05-01T06:55:33.424Z</time></trkpt><trkpt lat="45.114535" lon="11.6511717"><ele>5.0</ele><time>2026-05-01T06:55:35.428Z</time></trkpt><trkpt lat="45.114635" lon="11.6512133"><ele>5.0</ele><time>2026-05-01T06:55:37.421Z</time></trkpt><trkpt lat="45.11472" lon="11.6512683"><ele>5.0</ele><time>2026-05-01T06:55:39.418Z</time></trkpt><trkpt lat="45.1148117" lon="11.65133"><ele>5.0</ele><time>2026-05-01T06:55:41.423Z</time></trkpt><trkpt lat="45.1149" lon="11.651385"><ele>5.0</ele><time>2026-05-01T06:55:43.424Z</time></trkpt><trkpt lat="45.1149917" lon="11.6514433"><ele>5.0</ele><time>2026-05-01T06:55:45.412Z</time></trkpt><trkpt lat="45.1150833" lon="11.6515017"><ele>5.2</ele><time>2026-05-01T06:55:47.416Z</time></trkpt><trkpt lat="45.115175" lon="11.6515533"><ele>5.4</ele><time>2026-05-01T06:55:49.423Z</time></trkpt><trkpt lat="45.1152683" lon="11.651605"><ele>5.6</ele><time>2026-05-01T06:55:51.421Z</time></trkpt><trkpt lat="45.1153617" lon="11.6516533"><ele>5.8</ele><time>2026-05-01T06:55:53.41Z</time></trkpt><trkpt lat="45.1154567" lon="11.6517117"><ele>6.0</ele><time>2026-05-01T06:55:55.42Z</time></trkpt><trkpt lat="45.115555" lon="11.6517683"><ele>6.0</ele><time>2026-05-01T06:55:57.413Z</time></trkpt><trkpt lat="45.11565" lon="11.65183"><ele>6.0</ele><time>2026-05-01T06:55:59.427Z</time></trkpt><trkpt lat="45.115745" lon="11.6518983"><ele>6.0</ele><time>2026-05-01T06:56:01.409Z</time></trkpt><trkpt lat="45.1158417" lon="11.651965"><ele>6.0</ele><time>2026-05-01T06:56:03.421Z</time></trkpt><trkpt lat="45.115945" lon="11.6520333"><ele>6.0</ele><time>2026-05-01T06:56:05.423Z</time></trkpt><trkpt lat="45.1160533" lon="11.6521017"><ele>5.8</ele><time>2026-05-01T06:56:07.423Z</time></trkpt><trkpt lat="45.1161617" lon="11.6521733"><ele>5.6</ele><time>2026-05-01T06:56:09.423Z</time></trkpt><trkpt lat="45.1162633" lon="11.6522333"><ele>5.4</ele><time>2026-05-01T06:56:11.422Z</time></trkpt><trkpt lat="45.1163583" lon="11.652285"><ele>5.2</ele><time>2026-05-01T06:56:13.422Z</time></trkpt><trkpt lat="45.116445" lon="11.6523483"><ele>5.0</ele><time>2026-05-01T06:56:15.407Z</time></trkpt><trkpt lat="45.11653" lon="11.6524217"><ele>5.4</ele><time>2026-05-01T06:56:17.431Z</time></trkpt><trkpt lat="45.116615" lon="11.6524917"><ele>5.8</ele><time>2026-05-01T06:56:19.42Z</time></trkpt><trkpt lat="45.1167033" lon="11.6525667"><ele>6.199999999999999</ele><time>2026-05-01T06:56:21.416Z</time></trkpt><trkpt lat="45.116795" lon="11.65264"><ele>6.6</ele><time>2026-05-01T06:56:23.421Z</time></trkpt><trkpt lat="45.1168917" lon="11.6527067"><ele>7.0</ele><time>2026-05-01T06:56:25.423Z</time></trkpt><trkpt lat="45.1169933" lon="11.6527617"><ele>6.75</ele><time>2026-05-01T06:56:27.421Z</time></trkpt><trkpt lat="45.1171033" lon="11.6528017"><ele>6.5</ele><time>2026-05-01T06:56:29.426Z</time></trkpt><trkpt lat="45.1172217" lon="11.6528233"><ele>6.25</ele><time>2026-05-01T06:56:31.421Z</time></trkpt><trkpt lat="45.1173383" lon="11.65283"><ele>6.0</ele><time>2026-05-01T06:56:33.406Z</time></trkpt><trkpt lat="45.1174567" lon="11.6528233"><ele>6.0</ele><time>2026-05-01T06:56:35.417Z</time></trkpt><trkpt lat="45.11758" lon="11.6528233"><ele>6.0</ele><time>2026-05-01T06:56:37.421Z</time></trkpt><trkpt lat="45.1177033" lon="11.6528233"><ele>6.0</ele><time>2026-05-01T06:56:39.427Z</time></trkpt><trkpt lat="45.1177683" lon="11.6528217"><ele>6.0</ele><time>2026-05-01T06:56:40.423Z</time></trkpt><trkpt lat="45.1178317" lon="11.6528233"><ele>6.0</ele><time>2026-05-01T06:56:41.425Z</time></trkpt><trkpt lat="45.117955" lon="11.6528317"><ele>6.0</ele><time>2026-05-01T06:56:43.402Z</time></trkpt><trkpt lat="45.1180767" lon="11.652835"><ele>6.0</ele><time>2026-05-01T06:56:45.427Z</time></trkpt><trkpt lat="45.1182017" lon="11.6528317"><ele>6.0</ele><time>2026-05-01T06:56:47.413Z</time></trkpt><trkpt lat="45.11827" lon="11.6528217"><ele>6.0</ele><time>2026-05-01T06:56:48.423Z</time></trkpt><trkpt lat="45.1183383" lon="11.6528083"><ele>6.0</ele><time>2026-05-01T06:56:49.421Z</time></trkpt><trkpt lat="45.1184017" lon="11.6527867"><ele>5.999999999999999</ele><time>2026-05-01T06:56:50.418Z</time></trkpt><trkpt lat="45.1184617" lon="11.652755"><ele>6.0</ele><time>2026-05-01T06:56:51.424Z</time></trkpt><trkpt lat="45.11852" lon="11.65271"><ele>6.0</ele><time>2026-05-01T06:56:52.421Z</time></trkpt><trkpt lat="45.1185733" lon="11.6526583"><ele>6.0</ele><time>2026-05-01T06:56:53.413Z</time></trkpt><trkpt lat="45.1186217" lon="11.652595"><ele>6.0</ele><time>2026-05-01T06:56:54.397Z</time></trkpt><trkpt lat="45.1186633" lon="11.6525217"><ele>5.999999999999999</ele><time>2026-05-01T06:56:55.397Z</time></trkpt><trkpt lat="45.1187" lon="11.652445"><ele>6.0</ele><time>2026-05-01T06:56:56.389Z</time></trkpt><trkpt lat="45.1187283" lon="11.652365"><ele>6.0</ele><time>2026-05-01T06:56:57.391Z</time></trkpt><trkpt lat="45.118785" lon="11.65221"><ele>6.0</ele><time>2026-05-01T06:56:59.421Z</time></trkpt><trkpt lat="45.11883" lon="11.652045"><ele>6.0</ele><time>2026-05-01T06:57:01.424Z</time></trkpt><trkpt lat="45.1188517" lon="11.65196"><ele>6.0</ele><time>2026-05-01T06:57:02.422Z</time></trkpt><trkpt lat="45.1188733" lon="11.6518733"><ele>6.0</ele><time>2026-05-01T06:57:03.413Z</time></trkpt><trkpt lat="45.1188933" lon="11.6517833"><ele>6.0</ele><time>2026-05-01T06:57:04.417Z</time></trkpt><trkpt lat="45.1189117" lon="11.6516967"><ele>6.4</ele><time>2026-05-01T06:57:05.406Z</time></trkpt><trkpt lat="45.118945" lon="11.65153"><ele>6.8</ele><time>2026-05-01T06:57:07.418Z</time></trkpt><trkpt lat="45.1189767" lon="11.6513583"><ele>7.200000000000001</ele><time>2026-05-01T06:57:09.422Z</time></trkpt><trkpt lat="45.1189967" lon="11.6512733"><ele>7.6000000000000005</ele><time>2026-05-01T06:57:10.423Z</time></trkpt><trkpt lat="45.1190267" lon="11.651105"><ele>8.0</ele><time>2026-05-01T06:57:12.42Z</time></trkpt><trkpt lat="45.1190417" lon="11.6510183"><ele>8.0</ele><time>2026-05-01T06:57:13.421Z</time></trkpt><trkpt lat="45.1190583" lon="11.65093"><ele>7.999999999999999</ele><time>2026-05-01T06:57:14.424Z</time></trkpt><trkpt lat="45.119075" lon="11.6508433"><ele>8.0</ele><time>2026-05-01T06:57:15.42Z</time></trkpt><trkpt lat="45.1190883" lon="11.6507533"><ele>8.0</ele><time>2026-05-01T06:57:16.42Z</time></trkpt><trkpt lat="45.1191017" lon="11.650665"><ele>7.999999999999999</ele><time>2026-05-01T06:57:17.422Z</time></trkpt><trkpt lat="45.1191183" lon="11.6505783"><ele>8.0</ele><time>2026-05-01T06:57:18.427Z</time></trkpt><trkpt lat="45.119135" lon="11.65049"><ele>8.0</ele><time>2026-05-01T06:57:19.425Z</time></trkpt><trkpt lat="45.11915" lon="11.650395"><ele>8.0</ele><time>2026-05-01T06:57:20.423Z</time></trkpt><trkpt lat="45.1191667" lon="11.6503017"><ele>7.999999999999999</ele><time>2026-05-01T06:57:21.422Z</time></trkpt><trkpt lat="45.1191883" lon="11.6502133"><ele>8.0</ele><time>2026-05-01T06:57:22.424Z</time></trkpt><trkpt lat="45.1192117" lon="11.650125"><ele>8.0</ele><time>2026-05-01T06:57:23.424Z</time></trkpt><trkpt lat="45.1192433" lon="11.6500383"><ele>7.999999999999999</ele><time>2026-05-01T06:57:24.424Z</time></trkpt><trkpt lat="45.1192767" lon="11.6499533"><ele>8.0</ele><time>2026-05-01T06:57:25.428Z</time></trkpt><trkpt lat="45.11931" lon="11.64987"><ele>8.0</ele><time>2026-05-01T06:57:26.4Z</time></trkpt><trkpt lat="45.1193433" lon="11.6497933"><ele>7.666666666666666</ele><time>2026-05-01T06:57:27.418Z</time></trkpt><trkpt lat="45.1194083" lon="11.64964"><ele>7.333333333333333</ele><time>2026-05-01T06:57:29.432Z</time></trkpt><trkpt lat="45.1194783" lon="11.649495"><ele>7.0</ele><time>2026-05-01T06:57:31.421Z</time></trkpt><trkpt lat="45.11952" lon="11.649425"><ele>6.666666666666666</ele><time>2026-05-01T06:57:32.421Z</time></trkpt><trkpt lat="45.1195617" lon="11.649355"><ele>6.333333333333333</ele><time>2026-05-01T06:57:33.429Z</time></trkpt><trkpt lat="45.1196067" lon="11.6492917"><ele>6.0</ele><time>2026-05-01T06:57:34.426Z</time></trkpt><trkpt lat="45.1196533" lon="11.6492317"><ele>6.0</ele><time>2026-05-01T06:57:35.424Z</time></trkpt><trkpt lat="45.1197533" lon="11.64913"><ele>6.0</ele><time>2026-05-01T06:57:37.411Z</time></trkpt><trkpt lat="45.1198067" lon="11.64908"><ele>6.0</ele><time>2026-05-01T06:57:38.419Z</time></trkpt><trkpt lat="45.1198583" lon="11.6490283"><ele>6.0</ele><time>2026-05-01T06:57:39.424Z</time></trkpt><trkpt lat="45.1199617" lon="11.648925"><ele>6.0</ele><time>2026-05-01T06:57:41.427Z</time></trkpt><trkpt lat="45.120015" lon="11.6488733"><ele>6.0</ele><time>2026-05-01T06:57:42.426Z</time></trkpt><trkpt lat="45.1200683" lon="11.6488183"><ele>5.999999999999999</ele><time>2026-05-01T06:57:43.422Z</time></trkpt><trkpt lat="45.12012" lon="11.648765"><ele>6.0</ele><time>2026-05-01T06:57:44.423Z</time></trkpt><trkpt lat="45.120175" lon="11.6487117"><ele>6.0</ele><time>2026-05-01T06:57:45.423Z</time></trkpt><trkpt lat="45.12023" lon="11.6486617"><ele>6.0</ele><time>2026-05-01T06:57:46.417Z</time></trkpt><trkpt lat="45.120285" lon="11.648615"><ele>6.0</ele><time>2026-05-01T06:57:47.421Z</time></trkpt><trkpt lat="45.1203417" lon="11.6485717"><ele>5.999999999999999</ele><time>2026-05-01T06:57:48.42Z</time></trkpt><trkpt lat="45.1204" lon="11.648535"><ele>6.0</ele><time>2026-05-01T06:57:49.423Z</time></trkpt><trkpt lat="45.1204617" lon="11.6485017"><ele>5.999999999999999</ele><time>2026-05-01T06:57:50.419Z</time></trkpt><trkpt lat="45.1205233" lon="11.6484783"><ele>6.0</ele><time>2026-05-01T06:57:51.424Z</time></trkpt><trkpt lat="45.1205867" lon="11.64846"><ele>6.0</ele><time>2026-05-01T06:57:52.423Z</time></trkpt><trkpt lat="45.12065" lon="11.6484433"><ele>6.0</ele><time>2026-05-01T06:57:53.42Z</time></trkpt><trkpt lat="45.1207133" lon="11.6484217"><ele>6.0</ele><time>2026-05-01T06:57:54.423Z</time></trkpt><trkpt lat="45.12078" lon="11.6484017"><ele>5.999999999999999</ele><time>2026-05-01T06:57:55.423Z</time></trkpt><trkpt lat="45.1208483" lon="11.6483867"><ele>6.0</ele><time>2026-05-01T06:57:56.426Z</time></trkpt><trkpt lat="45.120915" lon="11.6483733"><ele>5.999999999999999</ele><time>2026-05-01T06:57:57.424Z</time></trkpt><trkpt lat="45.1209833" lon="11.6483617"><ele>6.0</ele><time>2026-05-01T06:57:58.405Z</time></trkpt><trkpt lat="45.1210517" lon="11.648345"><ele>6.0</ele><time>2026-05-01T06:57:59.414Z</time></trkpt><trkpt lat="45.1211167" lon="11.6483217"><ele>6.0</ele><time>2026-05-01T06:58:00.422Z</time></trkpt><trkpt lat="45.1211817" lon="11.6482967"><ele>6.0</ele><time>2026-05-01T06:58:01.424Z</time></trkpt><trkpt lat="45.1212483" lon="11.6482667"><ele>5.999999999999999</ele><time>2026-05-01T06:58:02.414Z</time></trkpt><trkpt lat="45.121315" lon="11.6482283"><ele>6.0</ele><time>2026-05-01T06:58:03.427Z</time></trkpt><trkpt lat="45.12138" lon="11.64819"><ele>5.999999999999999</ele><time>2026-05-01T06:58:04.415Z</time></trkpt><trkpt lat="45.1214433" lon="11.6481517"><ele>6.0</ele><time>2026-05-01T06:58:05.421Z</time></trkpt><trkpt lat="45.1215067" lon="11.6481117"><ele>6.0</ele><time>2026-05-01T06:58:06.42Z</time></trkpt><trkpt lat="45.1215683" lon="11.64807"><ele>6.0</ele><time>2026-05-01T06:58:07.42Z</time></trkpt><trkpt lat="45.1216333" lon="11.64803"><ele>6.0</ele><time>2026-05-01T06:58:08.421Z</time></trkpt><trkpt lat="45.1216967" lon="11.6479917"><ele>5.999999999999999</ele><time>2026-05-01T06:58:09.408Z</time></trkpt><trkpt lat="45.1217617" lon="11.6479533"><ele>6.0</ele><time>2026-05-01T06:58:10.421Z</time></trkpt><trkpt lat="45.1218233" lon="11.6479167"><ele>5.999999999999999</ele><time>2026-05-01T06:58:11.421Z</time></trkpt><trkpt lat="45.1218817" lon="11.64788"><ele>6.0</ele><time>2026-05-01T06:58:12.419Z</time></trkpt><trkpt lat="45.1219417" lon="11.647845"><ele>6.0</ele><time>2026-05-01T06:58:13.426Z</time></trkpt><trkpt lat="45.122005" lon="11.6478083"><ele>6.0</ele><time>2026-05-01T06:58:14.424Z</time></trkpt><trkpt lat="45.1220683" lon="11.647775"><ele>6.0</ele><time>2026-05-01T06:58:15.423Z</time></trkpt><trkpt lat="45.1221317" lon="11.64774"><ele>5.999999999999999</ele><time>2026-05-01T06:58:16.424Z</time></trkpt><trkpt lat="45.122195" lon="11.6477017"><ele>6.0</ele><time>2026-05-01T06:58:17.421Z</time></trkpt><trkpt lat="45.1222583" lon="11.64767"><ele>5.857142857142857</ele><time>2026-05-01T06:58:18.424Z</time></trkpt><trkpt lat="45.1223233" lon="11.6476417"><ele>5.714285714285714</ele><time>2026-05-01T06:58:19.425Z</time></trkpt><trkpt lat="45.1223883" lon="11.6476183"><ele>5.571428571428571</ele><time>2026-05-01T06:58:20.393Z</time></trkpt><trkpt lat="45.122455" lon="11.6475983"><ele>5.428571428571429</ele><time>2026-05-01T06:58:21.42Z</time></trkpt><trkpt lat="45.1225217" lon="11.6475783"><ele>5.285714285714286</ele><time>2026-05-01T06:58:22.43Z</time></trkpt><trkpt lat="45.1225867" lon="11.6475567"><ele>5.142857142857142</ele><time>2026-05-01T06:58:23.42Z</time></trkpt><trkpt lat="45.122655" lon="11.6475333"><ele>5.0</ele><time>2026-05-01T06:58:24.417Z</time></trkpt><trkpt lat="45.1227233" lon="11.64751"><ele>5.285714285714286</ele><time>2026-05-01T06:58:25.411Z</time></trkpt><trkpt lat="45.1227917" lon="11.6474883"><ele>5.571428571428571</ele><time>2026-05-01T06:58:26.422Z</time></trkpt><trkpt lat="45.1228617" lon="11.647465"><ele>5.857142857142858</ele><time>2026-05-01T06:58:27.422Z</time></trkpt><trkpt lat="45.12293" lon="11.6474483"><ele>6.142857142857142</ele><time>2026-05-01T06:58:28.4Z</time></trkpt><trkpt lat="45.123" lon="11.6474317"><ele>6.428571428571429</ele><time>2026-05-01T06:58:29.418Z</time></trkpt><trkpt lat="45.1230683" lon="11.6474133"><ele>6.714285714285714</ele><time>2026-05-01T06:58:30.421Z</time></trkpt><trkpt lat="45.1231367" lon="11.647395"><ele>7.0</ele><time>2026-05-01T06:58:31.421Z</time></trkpt><trkpt lat="45.1232067" lon="11.6473767"><ele>6.857142857142857</ele><time>2026-05-01T06:58:32.421Z</time></trkpt><trkpt lat="45.1232733" lon="11.64736"><ele>6.714285714285714</ele><time>2026-05-01T06:58:33.417Z</time></trkpt><trkpt lat="45.12334" lon="11.6473467"><ele>6.571428571428571</ele><time>2026-05-01T06:58:34.416Z</time></trkpt><trkpt lat="45.1234083" lon="11.647335"><ele>6.428571428571429</ele><time>2026-05-01T06:58:35.422Z</time></trkpt><trkpt lat="45.123475" lon="11.64732"><ele>6.285714285714286</ele><time>2026-05-01T06:58:36.401Z</time></trkpt><trkpt lat="45.12354" lon="11.6473067"><ele>6.142857142857142</ele><time>2026-05-01T06:58:37.412Z</time></trkpt><trkpt lat="45.1236033" lon="11.6472967"><ele>6.0</ele><time>2026-05-01T06:58:38.417Z</time></trkpt><trkpt lat="45.1237267" lon="11.6472733"><ele>6.0</ele><time>2026-05-01T06:58:40.423Z</time></trkpt><trkpt lat="45.1238483" lon="11.64724"><ele>6.0</ele><time>2026-05-01T06:58:42.423Z</time></trkpt><trkpt lat="45.123965" lon="11.6472117"><ele>6.0</ele><time>2026-05-01T06:58:44.518Z</time></trkpt><trkpt lat="45.124085" lon="11.6471767"><ele>6.0</ele><time>2026-05-01T06:58:46.42Z</time></trkpt><trkpt lat="45.124205" lon="11.647135"><ele>6.0</ele><time>2026-05-01T06:58:48.412Z</time></trkpt><trkpt lat="45.1243233" lon="11.6470917"><ele>6.0</ele><time>2026-05-01T06:58:50.423Z</time></trkpt><trkpt lat="45.1244417" lon="11.6470433"><ele>6.0</ele><time>2026-05-01T06:58:52.403Z</time></trkpt><trkpt lat="45.12456" lon="11.6469933"><ele>6.0</ele><time>2026-05-01T06:58:54.425Z</time></trkpt><trkpt lat="45.1246767" lon="11.6469467"><ele>6.0</ele><time>2026-05-01T06:58:56.425Z</time></trkpt><trkpt lat="45.1247917" lon="11.6469067"><ele>6.0</ele><time>2026-05-01T06:58:58.427Z</time></trkpt><trkpt lat="45.1248533" lon="11.646885"><ele>6.0</ele><time>2026-05-01T06:58:59.425Z</time></trkpt><trkpt lat="45.1249667" lon="11.6468283"><ele>6.0</ele><time>2026-05-01T06:59:01.423Z</time></trkpt><trkpt lat="45.125085" lon="11.6467633"><ele>6.0</ele><time>2026-05-01T06:59:03.42Z</time></trkpt><trkpt lat="45.1251983" lon="11.646695"><ele>6.25</ele><time>2026-05-01T06:59:05.421Z</time></trkpt><trkpt lat="45.125305" lon="11.6466317"><ele>6.5</ele><time>2026-05-01T06:59:07.425Z</time></trkpt><trkpt lat="45.12542" lon="11.646565"><ele>6.75</ele><time>2026-05-01T06:59:09.42Z</time></trkpt><trkpt lat="45.1255333" lon="11.6465033"><ele>7.0</ele><time>2026-05-01T06:59:11.421Z</time></trkpt><trkpt lat="45.1256467" lon="11.6464417"><ele>7.0</ele><time>2026-05-01T06:59:13.423Z</time></trkpt><trkpt lat="45.1257533" lon="11.6463767"><ele>7.0</ele><time>2026-05-01T06:59:15.421Z</time></trkpt><trkpt lat="45.1258667" lon="11.64632"><ele>7.0</ele><time>2026-05-01T06:59:17.423Z</time></trkpt><trkpt lat="45.1259833" lon="11.6462833"><ele>7.0</ele><time>2026-05-01T06:59:19.424Z</time></trkpt><trkpt lat="45.1261017" lon="11.6463083"><ele>7.000000000000001</ele><time>2026-05-01T06:59:21.421Z</time></trkpt><trkpt lat="45.1262183" lon="11.6463533"><ele>7.0</ele><time>2026-05-01T06:59:23.422Z</time></trkpt><trkpt lat="45.1263417" lon="11.6463767"><ele>7.0</ele><time>2026-05-01T06:59:25.417Z</time></trkpt><trkpt lat="45.1264067" lon="11.6463867"><ele>7.0</ele><time>2026-05-01T06:59:26.424Z</time></trkpt><trkpt lat="45.12647" lon="11.6464"><ele>7.000000000000001</ele><time>2026-05-01T06:59:27.422Z</time></trkpt><trkpt lat="45.1265317" lon="11.6464183"><ele>7.0</ele><time>2026-05-01T06:59:28.42Z</time></trkpt><trkpt lat="45.1265933" lon="11.6464433"><ele>6.857142857142857</ele><time>2026-05-01T06:59:29.423Z</time></trkpt><trkpt lat="45.1266533" lon="11.6464767"><ele>6.714285714285714</ele><time>2026-05-01T06:59:30.422Z</time></trkpt><trkpt lat="45.1267133" lon="11.6465117"><ele>6.571428571428571</ele><time>2026-05-01T06:59:31.422Z</time></trkpt><trkpt lat="45.1267733" lon="11.6465467"><ele>6.428571428571429</ele><time>2026-05-01T06:59:32.396Z</time></trkpt><trkpt lat="45.1268333" lon="11.6465783"><ele>6.285714285714286</ele><time>2026-05-01T06:59:33.428Z</time></trkpt><trkpt lat="45.126895" lon="11.6466067"><ele>6.142857142857142</ele><time>2026-05-01T06:59:34.421Z</time></trkpt><trkpt lat="45.1269583" lon="11.6466283"><ele>6.0</ele><time>2026-05-01T06:59:35.422Z</time></trkpt><trkpt lat="45.1270217" lon="11.646645"><ele>5.999999999999999</ele><time>2026-05-01T06:59:36.427Z</time></trkpt><trkpt lat="45.127085" lon="11.6466567"><ele>6.0</ele><time>2026-05-01T06:59:37.404Z</time></trkpt><trkpt lat="45.12715" lon="11.6466667"><ele>6.0</ele><time>2026-05-01T06:59:38.427Z</time></trkpt><trkpt lat="45.127215" lon="11.646675"><ele>6.0</ele><time>2026-05-01T06:59:39.42Z</time></trkpt><trkpt lat="45.1272783" lon="11.6466817"><ele>6.0</ele><time>2026-05-01T06:59:40.394Z</time></trkpt><trkpt lat="45.1273417" lon="11.6466833"><ele>5.999999999999999</ele><time>2026-05-01T06:59:41.418Z</time></trkpt><trkpt lat="45.127405" lon="11.6466867"><ele>6.0</ele><time>2026-05-01T06:59:42.421Z</time></trkpt><trkpt lat="45.12747" lon="11.6466917"><ele>6.142857142857142</ele><time>2026-05-01T06:59:43.423Z</time></trkpt><trkpt lat="45.1275383" lon="11.6467"><ele>6.285714285714286</ele><time>2026-05-01T06:59:44.413Z</time></trkpt><trkpt lat="45.127605" lon="11.6467183"><ele>6.428571428571429</ele><time>2026-05-01T06:59:45.421Z</time></trkpt><trkpt lat="45.1276733" lon="11.646745"><ele>6.571428571428571</ele><time>2026-05-01T06:59:46.42Z</time></trkpt><trkpt lat="45.12774" lon="11.6467783"><ele>6.714285714285714</ele><time>2026-05-01T06:59:47.424Z</time></trkpt><trkpt lat="45.1278017" lon="11.6468233"><ele>6.857142857142857</ele><time>2026-05-01T06:59:48.424Z</time></trkpt><trkpt lat="45.1278617" lon="11.646875"><ele>7.0</ele><time>2026-05-01T06:59:49.422Z</time></trkpt><trkpt lat="45.1279167" lon="11.6469317"><ele>7.0</ele><time>2026-05-01T06:59:50.423Z</time></trkpt><trkpt lat="45.12797" lon="11.646995"><ele>7.0</ele><time>2026-05-01T06:59:51.421Z</time></trkpt><trkpt lat="45.1280183" lon="11.6470617"><ele>7.0</ele><time>2026-05-01T06:59:52.415Z</time></trkpt><trkpt lat="45.1280583" lon="11.6471333"><ele>7.0</ele><time>2026-05-01T06:59:53.422Z</time></trkpt><trkpt lat="45.1280967" lon="11.6472083"><ele>7.0</ele><time>2026-05-01T06:59:54.425Z</time></trkpt><trkpt lat="45.1281267" lon="11.64729"><ele>7.0</ele><time>2026-05-01T06:59:55.415Z</time></trkpt><trkpt lat="45.1281517" lon="11.6473733"><ele>7.0</ele><time>2026-05-01T06:59:56.397Z</time></trkpt><trkpt lat="45.1282" lon="11.64753"><ele>7.142857142857142</ele><time>2026-05-01T06:59:58.418Z</time></trkpt><trkpt lat="45.1282433" lon="11.6476967"><ele>7.285714285714286</ele><time>2026-05-01T07:00:00.42Z</time></trkpt><trkpt lat="45.1282667" lon="11.6477817"><ele>7.428571428571429</ele><time>2026-05-01T07:00:01.42Z</time></trkpt><trkpt lat="45.1282917" lon="11.647865"><ele>7.571428571428571</ele><time>2026-05-01T07:00:02.421Z</time></trkpt><trkpt lat="45.128315" lon="11.64795"><ele>7.7142857142857135</ele><time>2026-05-01T07:00:03.421Z</time></trkpt><trkpt lat="45.12834" lon="11.6480333"><ele>7.857142857142857</ele><time>2026-05-01T07:00:04.421Z</time></trkpt><trkpt lat="45.1283683" lon="11.6481133"><ele>8.0</ele><time>2026-05-01T07:00:05.42Z</time></trkpt><trkpt lat="45.1284033" lon="11.6481883"><ele>8.166666666666666</ele><time>2026-05-01T07:00:06.394Z</time></trkpt><trkpt lat="45.1284383" lon="11.6482633"><ele>8.333333333333332</ele><time>2026-05-01T07:00:07.391Z</time></trkpt><trkpt lat="45.1285283" lon="11.648385"><ele>8.5</ele><time>2026-05-01T07:00:09.416Z</time></trkpt><trkpt lat="45.1286383" lon="11.6484567"><ele>8.666666666666666</ele><time>2026-05-01T07:00:11.419Z</time></trkpt><trkpt lat="45.1287" lon="11.6484833"><ele>8.833333333333334</ele><time>2026-05-01T07:00:12.394Z</time></trkpt><trkpt lat="45.128765" lon="11.6485067"><ele>9.0</ele><time>2026-05-01T07:00:13.404Z</time></trkpt><trkpt lat="45.1288317" lon="11.6485233"><ele>9.000000000000002</ele><time>2026-05-01T07:00:14.428Z</time></trkpt><trkpt lat="45.1289017" lon="11.6485317"><ele>9.0</ele><time>2026-05-01T07:00:15.43Z</time></trkpt><trkpt lat="45.12897" lon="11.6485367"><ele>9.0</ele><time>2026-05-01T07:00:16.421Z</time></trkpt><trkpt lat="45.1290383" lon="11.6485417"><ele>9.0</ele><time>2026-05-01T07:00:17.399Z</time></trkpt><trkpt lat="45.1291067" lon="11.6485467"><ele>9.0</ele><time>2026-05-01T07:00:18.415Z</time></trkpt><trkpt lat="45.1291767" lon="11.6485583"><ele>9.000000000000002</ele><time>2026-05-01T07:00:19.413Z</time></trkpt><trkpt lat="45.1292467" lon="11.6485733"><ele>9.0</ele><time>2026-05-01T07:00:20.421Z</time></trkpt><trkpt lat="45.129315" lon="11.6485917"><ele>8.571428571428573</ele><time>2026-05-01T07:00:21.423Z</time></trkpt><trkpt lat="45.1293817" lon="11.6486117"><ele>8.142857142857142</ele><time>2026-05-01T07:00:22.418Z</time></trkpt><trkpt lat="45.12945" lon="11.6486267"><ele>7.714285714285714</ele><time>2026-05-01T07:00:23.42Z</time></trkpt><trkpt lat="45.1295183" lon="11.6486417"><ele>7.2857142857142865</ele><time>2026-05-01T07:00:24.423Z</time></trkpt><trkpt lat="45.1295833" lon="11.64866"><ele>6.857142857142858</ele><time>2026-05-01T07:00:25.42Z</time></trkpt><trkpt lat="45.12965" lon="11.6486817"><ele>6.428571428571428</ele><time>2026-05-01T07:00:26.419Z</time></trkpt><trkpt lat="45.1297183" lon="11.6487"><ele>6.0</ele><time>2026-05-01T07:00:27.423Z</time></trkpt><trkpt lat="45.1297867" lon="11.6487183"><ele>5.999999999999999</ele><time>2026-05-01T07:00:28.399Z</time></trkpt><trkpt lat="45.1298533" lon="11.6487367"><ele>6.0</ele><time>2026-05-01T07:00:29.415Z</time></trkpt><trkpt lat="45.1299217" lon="11.6487583"><ele>6.0</ele><time>2026-05-01T07:00:30.426Z</time></trkpt><trkpt lat="45.12999" lon="11.648775"><ele>6.0</ele><time>2026-05-01T07:00:31.422Z</time></trkpt><trkpt lat="45.1300583" lon="11.6487933"><ele>6.0</ele><time>2026-05-01T07:00:32.423Z</time></trkpt><trkpt lat="45.1301267" lon="11.6488117"><ele>5.999999999999999</ele><time>2026-05-01T07:00:33.421Z</time></trkpt><trkpt lat="45.130195" lon="11.6488283"><ele>6.0</ele><time>2026-05-01T07:00:34.419Z</time></trkpt><trkpt lat="45.130265" lon="11.648845"><ele>5.7142857142857135</ele><time>2026-05-01T07:00:35.413Z</time></trkpt><trkpt lat="45.130335" lon="11.6488633"><ele>5.428571428571429</ele><time>2026-05-01T07:00:36.421Z</time></trkpt><trkpt lat="45.1304" lon="11.6488833"><ele>5.142857142857142</ele><time>2026-05-01T07:00:37.419Z</time></trkpt><trkpt lat="45.1304667" lon="11.6489067"><ele>4.857142857142857</ele><time>2026-05-01T07:00:38.419Z</time></trkpt><trkpt lat="45.1305317" lon="11.6489267"><ele>4.571428571428571</ele><time>2026-05-01T07:00:39.424Z</time></trkpt><trkpt lat="45.130595" lon="11.6489417"><ele>4.285714285714286</ele><time>2026-05-01T07:00:40.423Z</time></trkpt><trkpt lat="45.1306617" lon="11.6489617"><ele>4.0</ele><time>2026-05-01T07:00:41.425Z</time></trkpt><trkpt lat="45.1307267" lon="11.6489817"><ele>4.0</ele><time>2026-05-01T07:00:42.424Z</time></trkpt><trkpt lat="45.1307917" lon="11.6489967"><ele>3.9999999999999996</ele><time>2026-05-01T07:00:43.402Z</time></trkpt><trkpt lat="45.1308583" lon="11.6490167"><ele>4.0</ele><time>2026-05-01T07:00:44.393Z</time></trkpt><trkpt lat="45.1309283" lon="11.6490333"><ele>4.0</ele><time>2026-05-01T07:00:45.419Z</time></trkpt><trkpt lat="45.1309933" lon="11.64905"><ele>3.9999999999999996</ele><time>2026-05-01T07:00:46.419Z</time></trkpt><trkpt lat="45.13106" lon="11.6490683"><ele>4.0</ele><time>2026-05-01T07:00:47.417Z</time></trkpt><trkpt lat="45.131125" lon="11.6490867"><ele>4.0</ele><time>2026-05-01T07:00:48.42Z</time></trkpt><trkpt lat="45.1311883" lon="11.6491033"><ele>4.0</ele><time>2026-05-01T07:00:49.421Z</time></trkpt><trkpt lat="45.1312533" lon="11.6491167"><ele>4.0</ele><time>2026-05-01T07:00:50.417Z</time></trkpt><trkpt lat="45.1313167" lon="11.64913"><ele>4.0</ele><time>2026-05-01T07:00:51.388Z</time></trkpt><trkpt lat="45.1314417" lon="11.64916"><ele>4.0</ele><time>2026-05-01T07:00:53.418Z</time></trkpt><trkpt lat="45.1315567" lon="11.649195"><ele>4.0</ele><time>2026-05-01T07:00:55.425Z</time></trkpt><trkpt lat="45.1316683" lon="11.6492233"><ele>3.75</ele><time>2026-05-01T07:00:57.423Z</time></trkpt><trkpt lat="45.1317883" lon="11.649255"><ele>3.5</ele><time>2026-05-01T07:00:59.423Z</time></trkpt><trkpt lat="45.1319117" lon="11.649285"><ele>3.25</ele><time>2026-05-01T07:01:01.421Z</time></trkpt><trkpt lat="45.13203" lon="11.6493117"><ele>3.0</ele><time>2026-05-01T07:01:03.417Z</time></trkpt><trkpt lat="45.13214" lon="11.6493417"><ele>3.0</ele><time>2026-05-01T07:01:05.423Z</time></trkpt><trkpt lat="45.1322467" lon="11.64937"><ele>3.0</ele><time>2026-05-01T07:01:07.422Z</time></trkpt><trkpt lat="45.1323567" lon="11.6493983"><ele>3.0</ele><time>2026-05-01T07:01:09.42Z</time></trkpt><trkpt lat="45.1324683" lon="11.64943"><ele>3.0</ele><time>2026-05-01T07:01:11.42Z</time></trkpt><trkpt lat="45.13258" lon="11.6494617"><ele>3.0</ele><time>2026-05-01T07:01:13.422Z</time></trkpt><trkpt lat="45.1326917" lon="11.64949"><ele>3.4</ele><time>2026-05-01T07:01:15.422Z</time></trkpt><trkpt lat="45.1328017" lon="11.6495233"><ele>3.8</ele><time>2026-05-01T07:01:17.413Z</time></trkpt><trkpt lat="45.13291" lon="11.64956"><ele>4.2</ele><time>2026-05-01T07:01:19.423Z</time></trkpt><trkpt lat="45.1330167" lon="11.6495917"><ele>4.6</ele><time>2026-05-01T07:01:21.405Z</time></trkpt><trkpt lat="45.1331267" lon="11.6496233"><ele>5.0</ele><time>2026-05-01T07:01:23.413Z</time></trkpt><trkpt lat="45.1332317" lon="11.6496583"><ele>5.2</ele><time>2026-05-01T07:01:25.423Z</time></trkpt><trkpt lat="45.1333383" lon="11.6496833"><ele>5.4</ele><time>2026-05-01T07:01:27.422Z</time></trkpt><trkpt lat="45.133455" lon="11.6496917"><ele>5.6</ele><time>2026-05-01T07:01:29.421Z</time></trkpt><trkpt lat="45.13358" lon="11.6496583"><ele>5.8</ele><time>2026-05-01T07:01:31.426Z</time></trkpt><trkpt lat="45.1336433" lon="11.649625"><ele>6.0</ele><time>2026-05-01T07:01:32.417Z</time></trkpt><trkpt lat="45.1337" lon="11.6495783"><ele>5.999999999999999</ele><time>2026-05-01T07:01:33.417Z</time></trkpt><trkpt lat="45.133755" lon="11.6495217"><ele>6.0</ele><time>2026-05-01T07:01:34.424Z</time></trkpt><trkpt lat="45.1338067" lon="11.649455"><ele>6.0</ele><time>2026-05-01T07:01:35.422Z</time></trkpt><trkpt lat="45.1338567" lon="11.6493783"><ele>6.0</ele><time>2026-05-01T07:01:36.425Z</time></trkpt><trkpt lat="45.1339017" lon="11.6492917"><ele>6.0</ele><time>2026-05-01T07:01:37.424Z</time></trkpt><trkpt lat="45.1339483" lon="11.6492017"><ele>5.999999999999999</ele><time>2026-05-01T07:01:38.419Z</time></trkpt><trkpt lat="45.1339917" lon="11.6491083"><ele>6.0</ele><time>2026-05-01T07:01:39.422Z</time></trkpt><trkpt lat="45.1340333" lon="11.6490117"><ele>5.833333333333333</ele><time>2026-05-01T07:01:40.423Z</time></trkpt><trkpt lat="45.1340767" lon="11.6489133"><ele>5.666666666666667</ele><time>2026-05-01T07:01:41.425Z</time></trkpt><trkpt lat="45.1341217" lon="11.648815"><ele>5.5</ele><time>2026-05-01T07:01:42.396Z</time></trkpt><trkpt lat="45.1341717" lon="11.64872"><ele>5.333333333333334</ele><time>2026-05-01T07:01:43.41Z</time></trkpt><trkpt lat="45.1342217" lon="11.64863"><ele>5.166666666666667</ele><time>2026-05-01T07:01:44.429Z</time></trkpt><trkpt lat="45.134275" lon="11.6485433"><ele>5.0</ele><time>2026-05-01T07:01:45.43Z</time></trkpt><trkpt lat="45.1343283" lon="11.64846"><ele>5.0</ele><time>2026-05-01T07:01:46.42Z</time></trkpt><trkpt lat="45.1343783" lon="11.6483783"><ele>5.0</ele><time>2026-05-01T07:01:47.421Z</time></trkpt><trkpt lat="45.1344267" lon="11.6482983"><ele>5.0</ele><time>2026-05-01T07:01:48.418Z</time></trkpt><trkpt lat="45.1344717" lon="11.64822"><ele>5.0</ele><time>2026-05-01T07:01:49.421Z</time></trkpt><trkpt lat="45.134515" lon="11.648145"><ele>5.0</ele><time>2026-05-01T07:01:50.428Z</time></trkpt><trkpt lat="45.1345567" lon="11.648075"><ele>5.0</ele><time>2026-05-01T07:01:51.423Z</time></trkpt><trkpt lat="45.13463" lon="11.6479267"><ele>5.0</ele><time>2026-05-01T07:01:53.414Z</time></trkpt><trkpt lat="45.13466" lon="11.647845"><ele>5.0</ele><time>2026-05-01T07:01:54.41Z</time></trkpt><trkpt lat="45.1346867" lon="11.6477583"><ele>5.0</ele><time>2026-05-01T07:01:55.423Z</time></trkpt><trkpt lat="45.1347083" lon="11.6476733"><ele>5.0</ele><time>2026-05-01T07:01:56.425Z</time></trkpt><trkpt lat="45.1347433" lon="11.6475067"><ele>5.0</ele><time>2026-05-01T07:01:58.379Z</time></trkpt><trkpt lat="45.1347733" lon="11.6473383"><ele>5.0</ele><time>2026-05-01T07:02:00.378Z</time></trkpt><trkpt lat="45.1348" lon="11.6471683"><ele>5.0</ele><time>2026-05-01T07:02:02.378Z</time></trkpt><trkpt lat="45.1348283" lon="11.647"><ele>5.0</ele><time>2026-05-01T07:02:04.41Z</time></trkpt><trkpt lat="45.13486" lon="11.6468317"><ele>5.0</ele><time>2026-05-01T07:02:06.418Z</time></trkpt><trkpt lat="45.1348917" lon="11.6466617"><ele>5.0</ele><time>2026-05-01T07:02:08.411Z</time></trkpt><trkpt lat="45.134935" lon="11.6464983"><ele>5.0</ele><time>2026-05-01T07:02:10.425Z</time></trkpt><trkpt lat="45.1349933" lon="11.6463383"><ele>5.0</ele><time>2026-05-01T07:02:12.423Z</time></trkpt><trkpt lat="45.1350267" lon="11.64626"><ele>5.0</ele><time>2026-05-01T07:02:13.427Z</time></trkpt><trkpt lat="45.1350617" lon="11.6461817"><ele>5.0</ele><time>2026-05-01T07:02:14.426Z</time></trkpt><trkpt lat="45.1351017" lon="11.6461083"><ele>5.0</ele><time>2026-05-01T07:02:15.409Z</time></trkpt><trkpt lat="45.1351383" lon="11.646035"><ele>5.0</ele><time>2026-05-01T07:02:16.418Z</time></trkpt><trkpt lat="45.1351767" lon="11.6459633"><ele>5.0</ele><time>2026-05-01T07:02:17.407Z</time></trkpt><trkpt lat="45.1352167" lon="11.6458933"><ele>5.0</ele><time>2026-05-01T07:02:18.415Z</time></trkpt><trkpt lat="45.1352917" lon="11.6457583"><ele>5.0</ele><time>2026-05-01T07:02:20.426Z</time></trkpt><trkpt lat="45.135365" lon="11.6456317"><ele>5.0</ele><time>2026-05-01T07:02:22.42Z</time></trkpt><trkpt lat="45.13544" lon="11.64551"><ele>5.0</ele><time>2026-05-01T07:02:24.423Z</time></trkpt><trkpt lat="45.135515" lon="11.6453783"><ele>5.0</ele><time>2026-05-01T07:02:26.407Z</time></trkpt><trkpt lat="45.135585" lon="11.6452467"><ele>5.0</ele><time>2026-05-01T07:02:28.423Z</time></trkpt><trkpt lat="45.135655" lon="11.6451267"><ele>5.0</ele><time>2026-05-01T07:02:30.428Z</time></trkpt><trkpt lat="45.1357233" lon="11.6450083"><ele>5.0</ele><time>2026-05-01T07:02:32.424Z</time></trkpt><trkpt lat="45.1357917" lon="11.64489"><ele>5.0</ele><time>2026-05-01T07:02:34.422Z</time></trkpt><trkpt lat="45.1358633" lon="11.64477"><ele>4.8</ele><time>2026-05-01T07:02:36.399Z</time></trkpt><trkpt lat="45.135935" lon="11.6446533"><ele>4.6</ele><time>2026-05-01T07:02:38.419Z</time></trkpt><trkpt lat="45.136015" lon="11.6445467"><ele>4.4</ele><time>2026-05-01T07:02:40.419Z</time></trkpt><trkpt lat="45.1360983" lon="11.644445"><ele>4.2</ele><time>2026-05-01T07:02:42.421Z</time></trkpt><trkpt lat="45.136185" lon="11.64435"><ele>4.0</ele><time>2026-05-01T07:02:44.422Z</time></trkpt><trkpt lat="45.136275" lon="11.644265"><ele>4.0</ele><time>2026-05-01T07:02:46.422Z</time></trkpt><trkpt lat="45.1363667" lon="11.6441833"><ele>4.0</ele><time>2026-05-01T07:02:48.422Z</time></trkpt><trkpt lat="45.1364633" lon="11.6441133"><ele>4.0</ele><time>2026-05-01T07:02:50.421Z</time></trkpt><trkpt lat="45.136565" lon="11.6440533"><ele>4.0</ele><time>2026-05-01T07:02:52.403Z</time></trkpt><trkpt lat="45.136675" lon="11.644005"><ele>4.0</ele><time>2026-05-01T07:02:54.418Z</time></trkpt><trkpt lat="45.1367867" lon="11.643965"><ele>3.75</ele><time>2026-05-01T07:02:56.419Z</time></trkpt><trkpt lat="45.1369033" lon="11.6439383"><ele>3.5</ele><time>2026-05-01T07:02:58.405Z</time></trkpt><trkpt lat="45.1370217" lon="11.6439183"><ele>3.25</ele><time>2026-05-01T07:03:00.421Z</time></trkpt><trkpt lat="45.13714" lon="11.6439117"><ele>3.0</ele><time>2026-05-01T07:03:02.422Z</time></trkpt><trkpt lat="45.137255" lon="11.6439083"><ele>3.0</ele><time>2026-05-01T07:03:04.423Z</time></trkpt><trkpt lat="45.1373717" lon="11.6439133"><ele>3.0</ele><time>2026-05-01T07:03:06.415Z</time></trkpt><trkpt lat="45.1374883" lon="11.6439183"><ele>3.0</ele><time>2026-05-01T07:03:08.423Z</time></trkpt><trkpt lat="45.137605" lon="11.643925"><ele>3.0</ele><time>2026-05-01T07:03:10.421Z</time></trkpt><trkpt lat="45.137725" lon="11.6439317"><ele>3.25</ele><time>2026-05-01T07:03:12.423Z</time></trkpt><trkpt lat="45.137845" lon="11.643935"><ele>3.5</ele><time>2026-05-01T07:03:14.423Z</time></trkpt><trkpt lat="45.1379633" lon="11.643935"><ele>3.75</ele><time>2026-05-01T07:03:16.422Z</time></trkpt><trkpt lat="45.13808" lon="11.64394"><ele>4.0</ele><time>2026-05-01T07:03:18.422Z</time></trkpt><trkpt lat="45.1381967" lon="11.6439467"><ele>4.25</ele><time>2026-05-01T07:03:20.422Z</time></trkpt><trkpt lat="45.1383117" lon="11.643935"><ele>4.5</ele><time>2026-05-01T07:03:22.421Z</time></trkpt><trkpt lat="45.1384317" lon="11.643915"><ele>4.75</ele><time>2026-05-01T07:03:24.405Z</time></trkpt><trkpt lat="45.1385467" lon="11.6438867"><ele>5.0</ele><time>2026-05-01T07:03:26.414Z</time></trkpt><trkpt lat="45.1386583" lon="11.6438483"><ele>5.0</ele><time>2026-05-01T07:03:28.415Z</time></trkpt><trkpt lat="45.1387717" lon="11.6438017"><ele>5.0</ele><time>2026-05-01T07:03:30.407Z</time></trkpt><trkpt lat="45.13888" lon="11.6437567"><ele>5.0</ele><time>2026-05-01T07:03:32.422Z</time></trkpt><trkpt lat="45.138985" lon="11.6437117"><ele>5.0</ele><time>2026-05-01T07:03:34.417Z</time></trkpt><trkpt lat="45.1390933" lon="11.64367"><ele>5.25</ele><time>2026-05-01T07:03:36.424Z</time></trkpt><trkpt lat="45.1391983" lon="11.6436233"><ele>5.5</ele><time>2026-05-01T07:03:38.425Z</time></trkpt><trkpt lat="45.1393083" lon="11.64359"><ele>5.75</ele><time>2026-05-01T07:03:40.421Z</time></trkpt><trkpt lat="45.13942" lon="11.643565"><ele>6.0</ele><time>2026-05-01T07:03:42.42Z</time></trkpt><trkpt lat="45.139535" lon="11.643555"><ele>6.0</ele><time>2026-05-01T07:03:44.421Z</time></trkpt><trkpt lat="45.13965" lon="11.643545"><ele>6.0</ele><time>2026-05-01T07:03:46.426Z</time></trkpt><trkpt lat="45.139765" lon="11.64354"><ele>6.0</ele><time>2026-05-01T07:03:48.417Z</time></trkpt><trkpt lat="45.13988" lon="11.643535"><ele>6.0</ele><time>2026-05-01T07:03:50.423Z</time></trkpt><trkpt lat="45.1399933" lon="11.643525"><ele>5.8</ele><time>2026-05-01T07:03:52.419Z</time></trkpt><trkpt lat="45.140105" lon="11.6435183"><ele>5.6</ele><time>2026-05-01T07:03:54.405Z</time></trkpt><trkpt lat="45.1402167" lon="11.6435"><ele>5.4</ele><time>2026-05-01T07:03:56.414Z</time></trkpt><trkpt lat="45.14032" lon="11.643465"><ele>5.2</ele><time>2026-05-01T07:03:58.422Z</time></trkpt><trkpt lat="45.140425" lon="11.6434133"><ele>5.0</ele><time>2026-05-01T07:04:00.424Z</time></trkpt><trkpt lat="45.1405283" lon="11.64334"><ele>5.0</ele><time>2026-05-01T07:04:02.419Z</time></trkpt><trkpt lat="45.14063" lon="11.6432667"><ele>5.0</ele><time>2026-05-01T07:04:04.425Z</time></trkpt><trkpt lat="45.14073" lon="11.6431933"><ele>5.0</ele><time>2026-05-01T07:04:06.426Z</time></trkpt><trkpt lat="45.14083" lon="11.6431167"><ele>5.0</ele><time>2026-05-01T07:04:08.424Z</time></trkpt><trkpt lat="45.1409317" lon="11.6430433"><ele>5.25</ele><time>2026-05-01T07:04:10.424Z</time></trkpt><trkpt lat="45.141035" lon="11.6429783"><ele>5.5</ele><time>2026-05-01T07:04:12.403Z</time></trkpt><trkpt lat="45.1411467" lon="11.6429217"><ele>5.75</ele><time>2026-05-01T07:04:14.425Z</time></trkpt><trkpt lat="45.1412567" lon="11.6428717"><ele>6.0</ele><time>2026-05-01T07:04:16.421Z</time></trkpt><trkpt lat="45.1413683" lon="11.642825"><ele>5.833333333333333</ele><time>2026-05-01T07:04:18.399Z</time></trkpt><trkpt lat="45.1414767" lon="11.642785"><ele>5.666666666666667</ele><time>2026-05-01T07:04:20.419Z</time></trkpt><trkpt lat="45.1415767" lon="11.6427483"><ele>5.5</ele><time>2026-05-01T07:04:22.416Z</time></trkpt><trkpt lat="45.1416533" lon="11.6427133"><ele>5.333333333333334</ele><time>2026-05-01T07:04:24.41Z</time></trkpt><trkpt lat="45.141705" lon="11.6426383"><ele>5.166666666666667</ele><time>2026-05-01T07:04:27.42Z</time></trkpt><trkpt lat="45.1417" lon="11.6425483"><ele>5.0</ele><time>2026-05-01T07:04:29.419Z</time></trkpt><trkpt lat="45.141645" lon="11.64244"><ele>5.0</ele><time>2026-05-01T07:04:31.421Z</time></trkpt><trkpt lat="45.141575" lon="11.6423417"><ele>5.0</ele><time>2026-05-01T07:04:33.428Z</time></trkpt><trkpt lat="45.1415117" lon="11.64224"><ele>5.0</ele><time>2026-05-01T07:04:35.422Z</time></trkpt><trkpt lat="45.1414433" lon="11.6421317"><ele>5.0</ele><time>2026-05-01T07:04:37.417Z</time></trkpt><trkpt lat="45.1413817" lon="11.6420083"><ele>5.0</ele><time>2026-05-01T07:04:39.419Z</time></trkpt><trkpt lat="45.1413217" lon="11.64188"><ele>5.25</ele><time>2026-05-01T07:04:41.42Z</time></trkpt><trkpt lat="45.1412617" lon="11.6417467"><ele>5.5</ele><time>2026-05-01T07:04:43.423Z</time></trkpt><trkpt lat="45.1412083" lon="11.641605"><ele>5.75</ele><time>2026-05-01T07:04:45.423Z</time></trkpt><trkpt lat="45.1411633" lon="11.641455"><ele>6.0</ele><time>2026-05-01T07:04:47.418Z</time></trkpt><trkpt lat="45.141125" lon="11.6413"><ele>6.0</ele><time>2026-05-01T07:04:49.421Z</time></trkpt><trkpt lat="45.141095" lon="11.6411383"><ele>6.0</ele><time>2026-05-01T07:04:51.42Z</time></trkpt><trkpt lat="45.1410733" lon="11.640975"><ele>6.0</ele><time>2026-05-01T07:04:53.421Z</time></trkpt><trkpt lat="45.1410583" lon="11.64081"><ele>6.0</ele><time>2026-05-01T07:04:55.424Z</time></trkpt><trkpt lat="45.1410433" lon="11.6406467"><ele>6.0</ele><time>2026-05-01T07:04:57.422Z</time></trkpt><trkpt lat="45.14103" lon="11.6404867"><ele>6.0</ele><time>2026-05-01T07:04:59.42Z</time></trkpt><trkpt lat="45.1410167" lon="11.64032"><ele>6.0</ele><time>2026-05-01T07:05:01.422Z</time></trkpt><trkpt lat="45.141" lon="11.6401483"><ele>6.0</ele><time>2026-05-01T07:05:03.421Z</time></trkpt><trkpt lat="45.1409783" lon="11.6399883"><ele>5.8</ele><time>2026-05-01T07:05:05.425Z</time></trkpt><trkpt lat="45.1409617" lon="11.6398183"><ele>5.6</ele><time>2026-05-01T07:05:07.417Z</time></trkpt><trkpt lat="45.1409433" lon="11.6396483"><ele>5.4</ele><time>2026-05-01T07:05:09.425Z</time></trkpt><trkpt lat="45.1409283" lon="11.6394783"><ele>5.2</ele><time>2026-05-01T07:05:11.419Z</time></trkpt><trkpt lat="45.14092" lon="11.6393883"><ele>5.0</ele><time>2026-05-01T07:05:12.423Z</time></trkpt><trkpt lat="45.140905" lon="11.6392133"><ele>5.0</ele><time>2026-05-01T07:05:14.415Z</time></trkpt><trkpt lat="45.14089" lon="11.6390367"><ele>5.0</ele><time>2026-05-01T07:05:16.397Z</time></trkpt><trkpt lat="45.14088" lon="11.6389483"><ele>5.0</ele><time>2026-05-01T07:05:17.42Z</time></trkpt><trkpt lat="45.1408617" lon="11.63877"><ele>5.0</ele><time>2026-05-01T07:05:19.42Z</time></trkpt><trkpt lat="45.1408417" lon="11.6385967"><ele>5.0</ele><time>2026-05-01T07:05:21.42Z</time></trkpt><trkpt lat="45.1408317" lon="11.6385083"><ele>5.166666666666667</ele><time>2026-05-01T07:05:22.418Z</time></trkpt><trkpt lat="45.1408217" lon="11.6384183"><ele>5.333333333333334</ele><time>2026-05-01T07:05:23.419Z</time></trkpt><trkpt lat="45.1408133" lon="11.6383283"><ele>5.5</ele><time>2026-05-01T07:05:24.422Z</time></trkpt><trkpt lat="45.1408033" lon="11.63824"><ele>5.666666666666667</ele><time>2026-05-01T07:05:25.422Z</time></trkpt><trkpt lat="45.140785" lon="11.638065"><ele>5.833333333333333</ele><time>2026-05-01T07:05:27.426Z</time></trkpt><trkpt lat="45.1407667" lon="11.6378933"><ele>6.0</ele><time>2026-05-01T07:05:29.427Z</time></trkpt><trkpt lat="45.1407367" lon="11.63773"><ele>6.0</ele><time>2026-05-01T07:05:31.412Z</time></trkpt><trkpt lat="45.1406767" lon="11.6376117"><ele>6.0</ele><time>2026-05-01T07:05:33.424Z</time></trkpt><trkpt lat="45.1406033" lon="11.6375133"><ele>6.0</ele><time>2026-05-01T07:05:35.384Z</time></trkpt><trkpt lat="45.1405283" lon="11.6374083"><ele>6.0</ele><time>2026-05-01T07:05:37.383Z</time></trkpt><trkpt lat="45.1404667" lon="11.63729"><ele>6.0</ele><time>2026-05-01T07:05:39.384Z</time></trkpt><trkpt lat="45.1404217" lon="11.637155"><ele>6.0</ele><time>2026-05-01T07:05:41.427Z</time></trkpt><trkpt lat="45.1404133" lon="11.63701"><ele>6.0</ele><time>2026-05-01T07:05:43.425Z</time></trkpt><trkpt lat="45.140445" lon="11.636875"><ele>6.0</ele><time>2026-05-01T07:05:45.404Z</time></trkpt><trkpt lat="45.1404967" lon="11.6367483"><ele>6.0</ele><time>2026-05-01T07:05:47.423Z</time></trkpt><trkpt lat="45.1405633" lon="11.6366217"><ele>6.0</ele><time>2026-05-01T07:05:49.417Z</time></trkpt><trkpt lat="45.1406283" lon="11.6364983"><ele>6.0</ele><time>2026-05-01T07:05:51.429Z</time></trkpt><trkpt lat="45.1406883" lon="11.636375"><ele>6.0</ele><time>2026-05-01T07:05:53.419Z</time></trkpt><trkpt lat="45.1407483" lon="11.6362567"><ele>6.0</ele><time>2026-05-01T07:05:55.424Z</time></trkpt><trkpt lat="45.1408133" lon="11.63614"><ele>6.0</ele><time>2026-05-01T07:05:57.424Z</time></trkpt><trkpt lat="45.1408817" lon="11.636025"><ele>6.0</ele><time>2026-05-01T07:05:59.421Z</time></trkpt><trkpt lat="45.1409517" lon="11.6359083"><ele>6.0</ele><time>2026-05-01T07:06:01.422Z</time></trkpt><trkpt lat="45.141015" lon="11.6357917"><ele>6.0</ele><time>2026-05-01T07:06:03.42Z</time></trkpt><trkpt lat="45.1410767" lon="11.6356783"><ele>6.0</ele><time>2026-05-01T07:06:05.425Z</time></trkpt><trkpt lat="45.1411433" lon="11.635565"><ele>6.0</ele><time>2026-05-01T07:06:07.423Z</time></trkpt><trkpt lat="45.1412083" lon="11.6354517"><ele>6.0</ele><time>2026-05-01T07:06:09.422Z</time></trkpt><trkpt lat="45.1412617" lon="11.63535"><ele>6.0</ele><time>2026-05-01T07:06:11.427Z</time></trkpt><trkpt lat="45.1413" lon="11.63526"><ele>6.0</ele><time>2026-05-01T07:06:13.418Z</time></trkpt><trkpt lat="45.1413183" lon="11.63517"><ele>6.0</ele><time>2026-05-01T07:06:15.432Z</time></trkpt><trkpt lat="45.141285" lon="11.6350817"><ele>6.0</ele><time>2026-05-01T07:06:17.412Z</time></trkpt><trkpt lat="45.1412183" lon="11.6350117"><ele>6.0</ele><time>2026-05-01T07:06:19.426Z</time></trkpt><trkpt lat="45.141155" lon="11.6349467"><ele>6.0</ele><time>2026-05-01T07:06:21.414Z</time></trkpt><trkpt lat="45.1410917" lon="11.6348817"><ele>6.0</ele><time>2026-05-01T07:06:23.421Z</time></trkpt><trkpt lat="45.141055" lon="11.634805"><ele>6.0</ele><time>2026-05-01T07:06:25.427Z</time></trkpt><trkpt lat="45.141075" lon="11.6346967"><ele>6.0</ele><time>2026-05-01T07:06:27.424Z</time></trkpt><trkpt lat="45.1411183" lon="11.6345667"><ele>6.0</ele><time>2026-05-01T07:06:29.422Z</time></trkpt><trkpt lat="45.1411583" lon="11.6344183"><ele>6.0</ele><time>2026-05-01T07:06:31.422Z</time></trkpt><trkpt lat="45.141195" lon="11.6342567"><ele>6.0</ele><time>2026-05-01T07:06:33.422Z</time></trkpt><trkpt lat="45.141225" lon="11.634085"><ele>6.0</ele><time>2026-05-01T07:06:35.419Z</time></trkpt><trkpt lat="45.1412367" lon="11.633995"><ele>6.0</ele><time>2026-05-01T07:06:36.383Z</time></trkpt><trkpt lat="45.1412417" lon="11.633905"><ele>6.0</ele><time>2026-05-01T07:06:37.425Z</time></trkpt><trkpt lat="45.1412417" lon="11.6338117"><ele>6.0</ele><time>2026-05-01T07:06:38.419Z</time></trkpt><trkpt lat="45.1412333" lon="11.6337183"><ele>6.0</ele><time>2026-05-01T07:06:39.42Z</time></trkpt><trkpt lat="45.141215" lon="11.633625"><ele>5.7142857142857135</ele><time>2026-05-01T07:06:40.423Z</time></trkpt><trkpt lat="45.1411883" lon="11.633535"><ele>5.428571428571429</ele><time>2026-05-01T07:06:41.423Z</time></trkpt><trkpt lat="45.1411517" lon="11.6334467"><ele>5.142857142857142</ele><time>2026-05-01T07:06:42.388Z</time></trkpt><trkpt lat="45.1411033" lon="11.6333633"><ele>4.857142857142857</ele><time>2026-05-01T07:06:43.418Z</time></trkpt><trkpt lat="45.141045" lon="11.6332917"><ele>4.571428571428571</ele><time>2026-05-01T07:06:44.419Z</time></trkpt><trkpt lat="45.14098" lon="11.6332333"><ele>4.285714285714286</ele><time>2026-05-01T07:06:45.423Z</time></trkpt><trkpt lat="45.1409083" lon="11.6331917"><ele>4.0</ele><time>2026-05-01T07:06:46.421Z</time></trkpt><trkpt lat="45.1408317" lon="11.633165"><ele>3.9999999999999996</ele><time>2026-05-01T07:06:47.407Z</time></trkpt><trkpt lat="45.1407533" lon="11.63315"><ele>4.0</ele><time>2026-05-01T07:06:48.422Z</time></trkpt><trkpt lat="45.1406783" lon="11.633135"><ele>4.0</ele><time>2026-05-01T07:06:49.406Z</time></trkpt><trkpt lat="45.1406083" lon="11.6331017"><ele>4.0</ele><time>2026-05-01T07:06:50.424Z</time></trkpt><trkpt lat="45.1405433" lon="11.6330517"><ele>3.9999999999999996</ele><time>2026-05-01T07:06:51.423Z</time></trkpt><trkpt lat="45.14049" lon="11.6329233"><ele>4.0</ele><time>2026-05-01T07:06:53.417Z</time></trkpt><trkpt lat="45.14054" lon="11.6327817"><ele>4.166666666666666</ele><time>2026-05-01T07:06:55.426Z</time></trkpt><trkpt lat="45.1405967" lon="11.6326917"><ele>4.333333333333333</ele><time>2026-05-01T07:06:57.419Z</time></trkpt><trkpt lat="45.1406217" lon="11.6326067"><ele>4.5</ele><time>2026-05-01T07:07:03.405Z</time></trkpt><trkpt lat="45.14068" lon="11.63254"><ele>4.666666666666667</ele><time>2026-05-01T07:07:08.403Z</time></trkpt><trkpt lat="45.1407417" lon="11.63256"><ele>4.833333333333334</ele><time>2026-05-01T07:07:11.417Z</time></trkpt><trkpt lat="45.14083" lon="11.6325917"><ele>5.0</ele><time>2026-05-01T07:07:14.422Z</time></trkpt><trkpt lat="45.1409183" lon="11.6326183"><ele>4.6</ele><time>2026-05-01T07:07:16.414Z</time></trkpt><trkpt lat="45.1410183" lon="11.63264"><ele>4.2</ele><time>2026-05-01T07:07:18.417Z</time></trkpt><trkpt lat="45.1411183" lon="11.6326617"><ele>3.8</ele><time>2026-05-01T07:07:20.416Z</time></trkpt><trkpt lat="45.1412083" lon="11.6326867"><ele>3.4</ele><time>2026-05-01T07:07:22.425Z</time></trkpt><trkpt lat="45.1412867" lon="11.6327217"><ele>3.0</ele><time>2026-05-01T07:07:24.433Z</time></trkpt><trkpt lat="45.14135" lon="11.6327817"><ele>3.2</ele><time>2026-05-01T07:07:26.404Z</time></trkpt><trkpt lat="45.1414183" lon="11.6328633"><ele>3.4</ele><time>2026-05-01T07:07:28.418Z</time></trkpt><trkpt lat="45.1414917" lon="11.6329383"><ele>3.6000000000000005</ele><time>2026-05-01T07:07:30.422Z</time></trkpt><trkpt lat="45.14158" lon="11.6329417"><ele>3.8000000000000003</ele><time>2026-05-01T07:07:32.398Z</time></trkpt><trkpt lat="45.1416467" lon="11.6328633"><ele>4.0</ele><time>2026-05-01T07:07:34.392Z</time></trkpt><trkpt lat="45.1417067" lon="11.6327583"><ele>4.2</ele><time>2026-05-01T07:07:36.431Z</time></trkpt><trkpt lat="45.1417683" lon="11.6326533"><ele>4.4</ele><time>2026-05-01T07:07:38.421Z</time></trkpt><trkpt lat="45.1418283" lon="11.63255"><ele>4.6</ele><time>2026-05-01T07:07:40.393Z</time></trkpt><trkpt lat="45.1418833" lon="11.632455"><ele>4.8</ele><time>2026-05-01T07:07:42.417Z</time></trkpt><trkpt lat="45.1419483" lon="11.632365"><ele>5.0</ele><time>2026-05-01T07:07:44.473Z</time></trkpt><trkpt lat="45.1420267" lon="11.632265"><ele>5.0</ele><time>2026-05-01T07:07:46.457Z</time></trkpt><trkpt lat="45.1421217" lon="11.6321083"><ele>5.0</ele><time>2026-05-01T07:07:49.401Z</time></trkpt><trkpt lat="45.142165" lon="11.6319633"><ele>5.0</ele><time>2026-05-01T07:07:51.387Z</time></trkpt><trkpt lat="45.1422333" lon="11.6318417"><ele>5.0</ele><time>2026-05-01T07:07:53.424Z</time></trkpt><trkpt lat="45.1422967" lon="11.6317067"><ele>5.0</ele><time>2026-05-01T07:07:55.388Z</time></trkpt><trkpt lat="45.1423617" lon="11.6315683"><ele>5.0</ele><time>2026-05-01T07:07:57.418Z</time></trkpt><trkpt lat="45.1424267" lon="11.6314333"><ele>5.0</ele><time>2026-05-01T07:07:59.414Z</time></trkpt><trkpt lat="45.142485" lon="11.6313017"><ele>5.0</ele><time>2026-05-01T07:08:01.418Z</time></trkpt><trkpt lat="45.14255" lon="11.6311717"><ele>4.75</ele><time>2026-05-01T07:08:03.421Z</time></trkpt><trkpt lat="45.1426167" lon="11.63104"><ele>4.5</ele><time>2026-05-01T07:08:05.426Z</time></trkpt><trkpt lat="45.1426833" lon="11.6309017"><ele>4.25</ele><time>2026-05-01T07:08:07.42Z</time></trkpt><trkpt lat="45.1427533" lon="11.6307667"><ele>4.0</ele><time>2026-05-01T07:08:09.432Z</time></trkpt><trkpt lat="45.1428267" lon="11.6306317"><ele>4.0</ele><time>2026-05-01T07:08:11.425Z</time></trkpt><trkpt lat="45.1429" lon="11.6304967"><ele>4.0</ele><time>2026-05-01T07:08:13.416Z</time></trkpt><trkpt lat="45.1429733" lon="11.6303567"><ele>4.0</ele><time>2026-05-01T07:08:15.414Z</time></trkpt><trkpt lat="45.1430467" lon="11.6302183"><ele>4.0</ele><time>2026-05-01T07:08:17.41Z</time></trkpt><trkpt lat="45.143085" lon="11.6301467"><ele>4.0</ele><time>2026-05-01T07:08:18.44Z</time></trkpt><trkpt lat="45.143165" lon="11.6300117"><ele>4.5</ele><time>2026-05-01T07:08:20.394Z</time></trkpt><trkpt lat="45.14324" lon="11.6298717"><ele>5.0</ele><time>2026-05-01T07:08:22.39Z</time></trkpt><trkpt lat="45.1433083" lon="11.6297333"><ele>5.5</ele><time>2026-05-01T07:08:24.393Z</time></trkpt><trkpt lat="45.1433833" lon="11.6296017"><ele>6.0</ele><time>2026-05-01T07:08:26.394Z</time></trkpt><trkpt lat="45.143445" lon="11.6294583"><ele>6.0</ele><time>2026-05-01T07:08:28.399Z</time></trkpt><trkpt lat="45.1434883" lon="11.6293067"><ele>6.0</ele><time>2026-05-01T07:08:30.388Z</time></trkpt><trkpt lat="45.143515" lon="11.6291417"><ele>6.0</ele><time>2026-05-01T07:08:32.416Z</time></trkpt><trkpt lat="45.14353" lon="11.62898"><ele>6.0</ele><time>2026-05-01T07:08:34.421Z</time></trkpt><trkpt lat="45.1435317" lon="11.6288117"><ele>6.0</ele><time>2026-05-01T07:08:36.417Z</time></trkpt><trkpt lat="45.143515" lon="11.6286517"><ele>6.0</ele><time>2026-05-01T07:08:38.402Z</time></trkpt><trkpt lat="45.1434833" lon="11.6284983"><ele>6.0</ele><time>2026-05-01T07:08:40.408Z</time></trkpt><trkpt lat="45.143435" lon="11.6283483"><ele>6.0</ele><time>2026-05-01T07:08:42.423Z</time></trkpt><trkpt lat="45.14339" lon="11.6281983"><ele>6.0</ele><time>2026-05-01T07:08:44.394Z</time></trkpt><trkpt lat="45.1433567" lon="11.6280367"><ele>6.0</ele><time>2026-05-01T07:08:46.393Z</time></trkpt><trkpt lat="45.1433417" lon="11.6278633"><ele>6.0</ele><time>2026-05-01T07:08:48.427Z</time></trkpt><trkpt lat="45.1433433" lon="11.627685"><ele>6.0</ele><time>2026-05-01T07:08:50.419Z</time></trkpt><trkpt lat="45.1433517" lon="11.627505"><ele>6.0</ele><time>2026-05-01T07:08:52.398Z</time></trkpt><trkpt lat="45.14336" lon="11.6274133"><ele>6.0</ele><time>2026-05-01T07:08:53.409Z</time></trkpt><trkpt lat="45.1433667" lon="11.6273233"><ele>6.0</ele><time>2026-05-01T07:08:54.418Z</time></trkpt><trkpt lat="45.14337" lon="11.6272333"><ele>6.0</ele><time>2026-05-01T07:08:55.389Z</time></trkpt><trkpt lat="45.14337" lon="11.6271417"><ele>6.0</ele><time>2026-05-01T07:08:56.422Z</time></trkpt><trkpt lat="45.1433433" lon="11.6269717"><ele>6.0</ele><time>2026-05-01T07:08:58.422Z</time></trkpt><trkpt lat="45.1432983" lon="11.6268067"><ele>6.166666666666667</ele><time>2026-05-01T07:09:00.393Z</time></trkpt><trkpt lat="45.14327" lon="11.6267217"><ele>6.333333333333334</ele><time>2026-05-01T07:09:01.416Z</time></trkpt><trkpt lat="45.1432417" lon="11.62664"><ele>6.5</ele><time>2026-05-01T07:09:02.421Z</time></trkpt><trkpt lat="45.1431867" lon="11.62648"><ele>6.666666666666667</ele><time>2026-05-01T07:09:04.411Z</time></trkpt><trkpt lat="45.143135" lon="11.6263183"><ele>6.833333333333334</ele><time>2026-05-01T07:09:06.421Z</time></trkpt><trkpt lat="45.1431067" lon="11.6262383"><ele>7.0</ele><time>2026-05-01T07:09:07.421Z</time></trkpt><trkpt lat="45.14305" lon="11.62608"><ele>6.666666666666667</ele><time>2026-05-01T07:09:09.421Z</time></trkpt><trkpt lat="45.1430233" lon="11.6259983"><ele>6.333333333333334</ele><time>2026-05-01T07:09:10.422Z</time></trkpt><trkpt lat="45.1429967" lon="11.6259167"><ele>6.0</ele><time>2026-05-01T07:09:11.417Z</time></trkpt><trkpt lat="45.1429417" lon="11.6257583"><ele>5.666666666666667</ele><time>2026-05-01T07:09:13.431Z</time></trkpt><trkpt lat="45.1429133" lon="11.6256783"><ele>5.333333333333334</ele><time>2026-05-01T07:09:14.414Z</time></trkpt><trkpt lat="45.142865" lon="11.625525"><ele>5.0</ele><time>2026-05-01T07:09:16.409Z</time></trkpt><trkpt lat="45.1428267" lon="11.6253617"><ele>5.25</ele><time>2026-05-01T07:09:18.411Z</time></trkpt><trkpt lat="45.1427983" lon="11.6251933"><ele>5.5</ele><time>2026-05-01T07:09:20.421Z</time></trkpt><trkpt lat="45.1427883" lon="11.6250183"><ele>5.75</ele><time>2026-05-01T07:09:22.394Z</time></trkpt><trkpt lat="45.14279" lon="11.6248467"><ele>6.0</ele><time>2026-05-01T07:09:24.422Z</time></trkpt><trkpt lat="45.1428" lon="11.6246767"><ele>6.0</ele><time>2026-05-01T07:09:26.42Z</time></trkpt><trkpt lat="45.14282" lon="11.6245067"><ele>6.0</ele><time>2026-05-01T07:09:28.412Z</time></trkpt><trkpt lat="45.1428383" lon="11.624335"><ele>6.0</ele><time>2026-05-01T07:09:30.424Z</time></trkpt><trkpt lat="45.1428617" lon="11.6241633"><ele>6.0</ele><time>2026-05-01T07:09:32.404Z</time></trkpt><trkpt lat="45.1428867" lon="11.6239883"><ele>6.0</ele><time>2026-05-01T07:09:34.419Z</time></trkpt><trkpt lat="45.1429067" lon="11.62381"><ele>6.0</ele><time>2026-05-01T07:09:36.427Z</time></trkpt><trkpt lat="45.142915" lon="11.6237183"><ele>6.0</ele><time>2026-05-01T07:09:37.427Z</time></trkpt><trkpt lat="45.1429233" lon="11.6236283"><ele>6.0</ele><time>2026-05-01T07:09:38.425Z</time></trkpt><trkpt lat="45.142935" lon="11.62345"><ele>6.0</ele><time>2026-05-01T07:09:40.423Z</time></trkpt><trkpt lat="45.1429383" lon="11.623275"><ele>5.8</ele><time>2026-05-01T07:09:42.422Z</time></trkpt><trkpt lat="45.1429333" lon="11.6231017"><ele>5.6</ele><time>2026-05-01T07:09:44.41Z</time></trkpt><trkpt lat="45.142925" lon="11.6229317"><ele>5.4</ele><time>2026-05-01T07:09:46.404Z</time></trkpt><trkpt lat="45.1429183" lon="11.6227567"><ele>5.2</ele><time>2026-05-01T07:09:48.395Z</time></trkpt><trkpt lat="45.1429133" lon="11.6226667"><ele>5.0</ele><time>2026-05-01T07:09:49.423Z</time></trkpt><trkpt lat="45.1429033" lon="11.6224883"><ele>5.0</ele><time>2026-05-01T07:09:51.424Z</time></trkpt><trkpt lat="45.1428983" lon="11.6223967"><ele>5.0</ele><time>2026-05-01T07:09:52.421Z</time></trkpt><trkpt lat="45.1428933" lon="11.6223067"><ele>5.0</ele><time>2026-05-01T07:09:53.424Z</time></trkpt><trkpt lat="45.14289" lon="11.6221283"><ele>5.0</ele><time>2026-05-01T07:09:55.42Z</time></trkpt><trkpt lat="45.1428883" lon="11.6220383"><ele>5.0</ele><time>2026-05-01T07:09:56.425Z</time></trkpt><trkpt lat="45.1428917" lon="11.621865"><ele>5.0</ele><time>2026-05-01T07:09:58.421Z</time></trkpt><trkpt lat="45.1428983" lon="11.62169"><ele>5.0</ele><time>2026-05-01T07:10:00.421Z</time></trkpt><trkpt lat="45.1429117" lon="11.6215117"><ele>5.0</ele><time>2026-05-01T07:10:02.421Z</time></trkpt><trkpt lat="45.1429283" lon="11.6213367"><ele>5.0</ele><time>2026-05-01T07:10:04.407Z</time></trkpt><trkpt lat="45.1429383" lon="11.6212483"><ele>5.0</ele><time>2026-05-01T07:10:05.426Z</time></trkpt><trkpt lat="45.142965" lon="11.6210783"><ele>5.0</ele><time>2026-05-01T07:10:07.423Z</time></trkpt><trkpt lat="45.142995" lon="11.6209083"><ele>5.0</ele><time>2026-05-01T07:10:09.395Z</time></trkpt><trkpt lat="45.143025" lon="11.6207433"><ele>5.0</ele><time>2026-05-01T07:10:11.409Z</time></trkpt><trkpt lat="45.1430533" lon="11.6205783"><ele>5.0</ele><time>2026-05-01T07:10:13.431Z</time></trkpt><trkpt lat="45.1430817" lon="11.62042"><ele>5.0</ele><time>2026-05-01T07:10:15.411Z</time></trkpt><trkpt lat="45.14311" lon="11.620265"><ele>5.5</ele><time>2026-05-01T07:10:17.414Z</time></trkpt><trkpt lat="45.1431383" lon="11.620115"><ele>6.0</ele><time>2026-05-01T07:10:19.397Z</time></trkpt><trkpt lat="45.1431817" lon="11.6199633"><ele>6.5</ele><time>2026-05-01T07:10:21.41Z</time></trkpt><trkpt lat="45.14324" lon="11.6198217"><ele>7.0</ele><time>2026-05-01T07:10:23.416Z</time></trkpt><trkpt lat="45.143315" lon="11.6196933"><ele>7.0</ele><time>2026-05-01T07:10:25.42Z</time></trkpt><trkpt lat="45.1433967" lon="11.6195683"><ele>7.0</ele><time>2026-05-01T07:10:27.418Z</time></trkpt><trkpt lat="45.143485" lon="11.61945"><ele>7.0</ele><time>2026-05-01T07:10:29.415Z</time></trkpt><trkpt lat="45.1435733" lon="11.6193367"><ele>7.0</ele><time>2026-05-01T07:10:31.397Z</time></trkpt><trkpt lat="45.14366" lon="11.6192217"><ele>6.5</ele><time>2026-05-01T07:10:33.415Z</time></trkpt><trkpt lat="45.1437467" lon="11.6191133"><ele>6.0</ele><time>2026-05-01T07:10:35.424Z</time></trkpt><trkpt lat="45.1438367" lon="11.6190067"><ele>5.5</ele><time>2026-05-01T07:10:37.386Z</time></trkpt><trkpt lat="45.1439233" lon="11.6188983"><ele>5.0</ele><time>2026-05-01T07:10:39.383Z</time></trkpt><trkpt lat="45.1440067" lon="11.6187867"><ele>5.25</ele><time>2026-05-01T07:10:41.378Z</time></trkpt><trkpt lat="45.1440933" lon="11.6186733"><ele>5.5</ele><time>2026-05-01T07:10:43.413Z</time></trkpt><trkpt lat="45.144175" lon="11.618565"><ele>5.75</ele><time>2026-05-01T07:10:45.417Z</time></trkpt><trkpt lat="45.1442617" lon="11.6184583"><ele>6.0</ele><time>2026-05-01T07:10:47.412Z</time></trkpt><trkpt lat="45.1443467" lon="11.6183517"><ele>6.25</ele><time>2026-05-01T07:10:49.422Z</time></trkpt><trkpt lat="45.1444267" lon="11.618235"><ele>6.5</ele><time>2026-05-01T07:10:51.423Z</time></trkpt><trkpt lat="45.1445083" lon="11.6181083"><ele>6.75</ele><time>2026-05-01T07:10:53.391Z</time></trkpt><trkpt lat="45.1445817" lon="11.61798"><ele>7.0</ele><time>2026-05-01T07:10:55.426Z</time></trkpt><trkpt lat="45.14464" lon="11.6178367"><ele>6.5</ele><time>2026-05-01T07:10:57.419Z</time></trkpt><trkpt lat="45.1446883" lon="11.61768"><ele>6.0</ele><time>2026-05-01T07:10:59.422Z</time></trkpt><trkpt lat="45.144715" lon="11.6175167"><ele>5.5</ele><time>2026-05-01T07:11:01.421Z</time></trkpt><trkpt lat="45.144725" lon="11.61735"><ele>5.0</ele><time>2026-05-01T07:11:03.423Z</time></trkpt><trkpt lat="45.14472" lon="11.6171833"><ele>5.0</ele><time>2026-05-01T07:11:05.425Z</time></trkpt><trkpt lat="45.1446983" lon="11.617015"><ele>5.0</ele><time>2026-05-01T07:11:07.41Z</time></trkpt><trkpt lat="45.1446633" lon="11.61685"><ele>5.0</ele><time>2026-05-01T07:11:09.416Z</time></trkpt><trkpt lat="45.14462" lon="11.6166933"><ele>5.0</ele><time>2026-05-01T07:11:11.421Z</time></trkpt><trkpt lat="45.14457" lon="11.6165433"><ele>5.25</ele><time>2026-05-01T07:11:13.42Z</time></trkpt><trkpt lat="45.14451" lon="11.6163967"><ele>5.5</ele><time>2026-05-01T07:11:15.424Z</time></trkpt><trkpt lat="45.1444533" lon="11.6162583"><ele>5.75</ele><time>2026-05-01T07:11:17.411Z</time></trkpt><trkpt lat="45.1444" lon="11.6161133"><ele>6.0</ele><time>2026-05-01T07:11:19.417Z</time></trkpt><trkpt lat="45.1443433" lon="11.6159717"><ele>6.5</ele><time>2026-05-01T07:11:21.423Z</time></trkpt><trkpt lat="45.144295" lon="11.615825"><ele>7.0</ele><time>2026-05-01T07:11:23.414Z</time></trkpt><trkpt lat="45.1442483" lon="11.6156717"><ele>7.5</ele><time>2026-05-01T07:11:25.429Z</time></trkpt><trkpt lat="45.144215" lon="11.6155167"><ele>8.0</ele><time>2026-05-01T07:11:27.42Z</time></trkpt><trkpt lat="45.1442017" lon="11.6153517"><ele>8.0</ele><time>2026-05-01T07:11:29.416Z</time></trkpt><trkpt lat="45.1442117" lon="11.6151833"><ele>8.0</ele><time>2026-05-01T07:11:31.415Z</time></trkpt><trkpt lat="45.1442467" lon="11.615015"><ele>8.0</ele><time>2026-05-01T07:11:33.393Z</time></trkpt><trkpt lat="45.1443033" lon="11.6148633"><ele>8.0</ele><time>2026-05-01T07:11:35.41Z</time></trkpt><trkpt lat="45.1443717" lon="11.61472"><ele>8.0</ele><time>2026-05-01T07:11:37.384Z</time></trkpt><trkpt lat="45.1444483" lon="11.61459"><ele>8.0</ele><time>2026-05-01T07:11:39.387Z</time></trkpt><trkpt lat="45.1445367" lon="11.6144717"><ele>8.0</ele><time>2026-05-01T07:11:41.414Z</time></trkpt><trkpt lat="45.1446333" lon="11.61438"><ele>8.0</ele><time>2026-05-01T07:11:43.418Z</time></trkpt><trkpt lat="45.14474" lon="11.6143067"><ele>8.0</ele><time>2026-05-01T07:11:45.42Z</time></trkpt><trkpt lat="45.1448417" lon="11.6142517"><ele>8.0</ele><time>2026-05-01T07:11:47.42Z</time></trkpt><trkpt lat="45.1449567" lon="11.6142083"><ele>8.0</ele><time>2026-05-01T07:11:49.412Z</time></trkpt><trkpt lat="45.1450783" lon="11.6141817"><ele>8.0</ele><time>2026-05-01T07:11:51.404Z</time></trkpt><trkpt lat="45.145195" lon="11.61418"><ele>8.0</ele><time>2026-05-01T07:11:53.421Z</time></trkpt><trkpt lat="45.1453133" lon="11.614165"><ele>8.0</ele><time>2026-05-01T07:11:55.421Z</time></trkpt><trkpt lat="45.1454333" lon="11.6141533"><ele>8.0</ele><time>2026-05-01T07:11:57.419Z</time></trkpt><trkpt lat="45.1455533" lon="11.6141517"><ele>8.0</ele><time>2026-05-01T07:11:59.422Z</time></trkpt><trkpt lat="45.14567" lon="11.6141367"><ele>7.75</ele><time>2026-05-01T07:12:01.42Z</time></trkpt><trkpt lat="45.145785" lon="11.6141033"><ele>7.5</ele><time>2026-05-01T07:12:03.411Z</time></trkpt><trkpt lat="45.1458933" lon="11.61403"><ele>7.25</ele><time>2026-05-01T07:12:05.419Z</time></trkpt><trkpt lat="45.1459933" lon="11.613935"><ele>7.0</ele><time>2026-05-01T07:12:07.423Z</time></trkpt><trkpt lat="45.1460817" lon="11.61382"><ele>7.0</ele><time>2026-05-01T07:12:09.405Z</time></trkpt><trkpt lat="45.1461667" lon="11.6136933"><ele>7.0</ele><time>2026-05-01T07:12:11.423Z</time></trkpt><trkpt lat="45.1462517" lon="11.61357"><ele>7.0</ele><time>2026-05-01T07:12:13.425Z</time></trkpt><trkpt lat="45.1463317" lon="11.6134383"><ele>7.0</ele><time>2026-05-01T07:12:15.388Z</time></trkpt><trkpt lat="45.1464217" lon="11.61332"><ele>7.0</ele><time>2026-05-01T07:12:17.38Z</time></trkpt><trkpt lat="45.1465183" lon="11.6132117"><ele>7.0</ele><time>2026-05-01T07:12:19.373Z</time></trkpt><trkpt lat="45.1466183" lon="11.6131133"><ele>7.0</ele><time>2026-05-01T07:12:21.405Z</time></trkpt><trkpt lat="45.1467267" lon="11.6130383"><ele>7.0</ele><time>2026-05-01T07:12:23.418Z</time></trkpt><trkpt lat="45.1468383" lon="11.6129883"><ele>6.75</ele><time>2026-05-01T07:12:25.418Z</time></trkpt><trkpt lat="45.1469517" lon="11.61294"><ele>6.5</ele><time>2026-05-01T07:12:27.415Z</time></trkpt><trkpt lat="45.1470633" lon="11.612895"><ele>6.25</ele><time>2026-05-01T07:12:29.423Z</time></trkpt><trkpt lat="45.1471767" lon="11.6128467"><ele>6.0</ele><time>2026-05-01T07:12:31.41Z</time></trkpt><trkpt lat="45.1472867" lon="11.61278"><ele>6.0</ele><time>2026-05-01T07:12:33.411Z</time></trkpt><trkpt lat="45.14739" lon="11.6127"><ele>6.0</ele><time>2026-05-01T07:12:35.41Z</time></trkpt><trkpt lat="45.1474883" lon="11.6126"><ele>6.0</ele><time>2026-05-01T07:12:37.411Z</time></trkpt><trkpt lat="45.1475833" lon="11.61249"><ele>6.0</ele><time>2026-05-01T07:12:39.406Z</time></trkpt><trkpt lat="45.1476767" lon="11.6123783"><ele>6.0</ele><time>2026-05-01T07:12:41.414Z</time></trkpt><trkpt lat="45.1477717" lon="11.6122717"><ele>6.0</ele><time>2026-05-01T07:12:43.42Z</time></trkpt><trkpt lat="45.1478683" lon="11.612165"><ele>6.0</ele><time>2026-05-01T07:12:45.422Z</time></trkpt><trkpt lat="45.1479667" lon="11.61207"><ele>6.0</ele><time>2026-05-01T07:12:47.42Z</time></trkpt><trkpt lat="45.1480733" lon="11.6119767"><ele>6.0</ele><time>2026-05-01T07:12:49.399Z</time></trkpt><trkpt lat="45.1481317" lon="11.6119383"><ele>6.0</ele><time>2026-05-01T07:12:50.421Z</time></trkpt><trkpt lat="45.14825" lon="11.6118717"><ele>6.0</ele><time>2026-05-01T07:12:52.406Z</time></trkpt><trkpt lat="45.1483117" lon="11.6118433"><ele>6.0</ele><time>2026-05-01T07:12:53.374Z</time></trkpt><trkpt lat="45.14843" lon="11.6117967"><ele>6.0</ele><time>2026-05-01T07:12:55.383Z</time></trkpt><trkpt lat="45.1485467" lon="11.611755"><ele>6.0</ele><time>2026-05-01T07:12:57.383Z</time></trkpt><trkpt lat="45.1486083" lon="11.6117317"><ele>6.0</ele><time>2026-05-01T07:12:58.382Z</time></trkpt><trkpt lat="45.1487267" lon="11.61168"><ele>6.0</ele><time>2026-05-01T07:13:00.385Z</time></trkpt><trkpt lat="45.1488417" lon="11.6116217"><ele>6.0</ele><time>2026-05-01T07:13:02.382Z</time></trkpt><trkpt lat="45.14895" lon="11.6115567"><ele>6.0</ele><time>2026-05-01T07:13:04.386Z</time></trkpt><trkpt lat="45.1490517" lon="11.611475"><ele>6.0</ele><time>2026-05-01T07:13:06.382Z</time></trkpt><trkpt lat="45.1491467" lon="11.611375"><ele>6.0</ele><time>2026-05-01T07:13:08.383Z</time></trkpt><trkpt lat="45.14924" lon="11.6112717"><ele>6.0</ele><time>2026-05-01T07:13:10.415Z</time></trkpt><trkpt lat="45.1493333" lon="11.6111667"><ele>6.0</ele><time>2026-05-01T07:13:12.426Z</time></trkpt><trkpt lat="45.1494267" lon="11.6110617"><ele>6.0</ele><time>2026-05-01T07:13:14.411Z</time></trkpt><trkpt lat="45.149525" lon="11.610965"><ele>6.0</ele><time>2026-05-01T07:13:16.423Z</time></trkpt><trkpt lat="45.14963" lon="11.6108917"><ele>6.0</ele><time>2026-05-01T07:13:18.423Z</time></trkpt><trkpt lat="45.1497433" lon="11.610845"><ele>6.0</ele><time>2026-05-01T07:13:20.413Z</time></trkpt><trkpt lat="45.1498617" lon="11.6108383"><ele>6.25</ele><time>2026-05-01T07:13:22.421Z</time></trkpt><trkpt lat="45.149975" lon="11.6108767"><ele>6.5</ele><time>2026-05-01T07:13:24.411Z</time></trkpt><trkpt lat="45.1500767" lon="11.6109517"><ele>6.75</ele><time>2026-05-01T07:13:26.402Z</time></trkpt><trkpt lat="45.150175" lon="11.6110417"><ele>7.0</ele><time>2026-05-01T07:13:28.422Z</time></trkpt><trkpt lat="45.1502683" lon="11.61114"><ele>7.0</ele><time>2026-05-01T07:13:30.425Z</time></trkpt><trkpt lat="45.1503583" lon="11.6112367"><ele>6.999999999999999</ele><time>2026-05-01T07:13:32.418Z</time></trkpt><trkpt lat="45.1504433" lon="11.6113383"><ele>6.999999999999999</ele><time>2026-05-01T07:13:34.426Z</time></trkpt><trkpt lat="45.1505267" lon="11.611445"><ele>7.0</ele><time>2026-05-01T07:13:36.419Z</time></trkpt><trkpt lat="45.1506083" lon="11.6115433"><ele>7.0</ele><time>2026-05-01T07:13:38.411Z</time></trkpt><trkpt lat="45.150685" lon="11.6116367"><ele>7.0</ele><time>2026-05-01T07:13:40.424Z</time></trkpt><trkpt lat="45.1507683" lon="11.6117267"><ele>6.999999999999999</ele><time>2026-05-01T07:13:42.425Z</time></trkpt><trkpt lat="45.1508533" lon="11.6118083"><ele>6.999999999999999</ele><time>2026-05-01T07:13:44.422Z</time></trkpt><trkpt lat="45.1509433" lon="11.611885"><ele>7.0</ele><time>2026-05-01T07:13:46.419Z</time></trkpt><trkpt lat="45.1510417" lon="11.6119483"><ele>7.0</ele><time>2026-05-01T07:13:48.397Z</time></trkpt><trkpt lat="45.1511533" lon="11.6119933"><ele>7.0</ele><time>2026-05-01T07:13:50.42Z</time></trkpt><trkpt lat="45.15127" lon="11.6120133"><ele>6.999999999999999</ele><time>2026-05-01T07:13:52.414Z</time></trkpt><trkpt lat="45.1513333" lon="11.612"><ele>6.999999999999999</ele><time>2026-05-01T07:13:53.428Z</time></trkpt><trkpt lat="45.1514583" lon="11.6120033"><ele>7.0</ele><time>2026-05-01T07:13:55.468Z</time></trkpt><trkpt lat="45.1515283" lon="11.6120167"><ele>7.0</ele><time>2026-05-01T07:13:56.397Z</time></trkpt><trkpt lat="45.151655" lon="11.61204"><ele>6.8</ele><time>2026-05-01T07:13:58.503Z</time></trkpt><trkpt lat="45.15176" lon="11.6120233"><ele>6.6</ele><time>2026-05-01T07:14:00.392Z</time></trkpt><trkpt lat="45.1518533" lon="11.612"><ele>6.3999999999999995</ele><time>2026-05-01T07:14:02.399Z</time></trkpt><trkpt lat="45.15197" lon="11.6120167"><ele>6.199999999999999</ele><time>2026-05-01T07:14:04.397Z</time></trkpt><trkpt lat="45.15209" lon="11.61202"><ele>6.0</ele><time>2026-05-01T07:14:06.436Z</time></trkpt><trkpt lat="45.15221" lon="11.6120367"><ele>6.0</ele><time>2026-05-01T07:14:08.416Z</time></trkpt><trkpt lat="45.1523283" lon="11.612065"><ele>6.0</ele><time>2026-05-01T07:14:10.39Z</time></trkpt><trkpt lat="45.15239" lon="11.612085"><ele>6.0</ele><time>2026-05-01T07:14:11.413Z</time></trkpt><trkpt lat="45.1525067" lon="11.612145"><ele>6.0</ele><time>2026-05-01T07:14:13.417Z</time></trkpt><trkpt lat="45.15262" lon="11.6122067"><ele>6.0</ele><time>2026-05-01T07:14:15.421Z</time></trkpt><trkpt lat="45.1526783" lon="11.6122433"><ele>6.199999999999999</ele><time>2026-05-01T07:14:16.422Z</time></trkpt><trkpt lat="45.152735" lon="11.6122833"><ele>6.3999999999999995</ele><time>2026-05-01T07:14:17.422Z</time></trkpt><trkpt lat="45.152845" lon="11.61236"><ele>6.6</ele><time>2026-05-01T07:14:19.424Z</time></trkpt><trkpt lat="45.1529467" lon="11.6124317"><ele>6.8</ele><time>2026-05-01T07:14:21.393Z</time></trkpt><trkpt lat="45.1530483" lon="11.6125033"><ele>7.0</ele><time>2026-05-01T07:14:23.421Z</time></trkpt><trkpt lat="45.153145" lon="11.6125733"><ele>6.8</ele><time>2026-05-01T07:14:25.405Z</time></trkpt><trkpt lat="45.1532367" lon="11.61264"><ele>6.6</ele><time>2026-05-01T07:14:27.421Z</time></trkpt><trkpt lat="45.1533267" lon="11.6127"><ele>6.3999999999999995</ele><time>2026-05-01T07:14:29.425Z</time></trkpt><trkpt lat="45.1534217" lon="11.6127583"><ele>6.199999999999999</ele><time>2026-05-01T07:14:31.417Z</time></trkpt><trkpt lat="45.1535083" lon="11.61283"><ele>6.0</ele><time>2026-05-01T07:14:33.422Z</time></trkpt><trkpt lat="45.15359" lon="11.612925"><ele>6.0</ele><time>2026-05-01T07:14:35.418Z</time></trkpt><trkpt lat="45.1536717" lon="11.6130217"><ele>6.0</ele><time>2026-05-01T07:14:37.411Z</time></trkpt><trkpt lat="45.1537617" lon="11.613115"><ele>6.0</ele><time>2026-05-01T07:14:39.379Z</time></trkpt><trkpt lat="45.1538583" lon="11.6132067"><ele>6.0</ele><time>2026-05-01T07:14:41.378Z</time></trkpt><trkpt lat="45.1539567" lon="11.6132933"><ele>6.75</ele><time>2026-05-01T07:14:43.384Z</time></trkpt><trkpt lat="45.1540617" lon="11.613365"><ele>7.5</ele><time>2026-05-01T07:14:45.418Z</time></trkpt><trkpt lat="45.15417" lon="11.613425"><ele>8.25</ele><time>2026-05-01T07:14:47.416Z</time></trkpt><trkpt lat="45.15428" lon="11.6134733"><ele>9.0</ele><time>2026-05-01T07:14:49.422Z</time></trkpt><trkpt lat="45.1543933" lon="11.613515"><ele>9.0</ele><time>2026-05-01T07:14:51.422Z</time></trkpt><trkpt lat="45.1545083" lon="11.613545"><ele>9.0</ele><time>2026-05-01T07:14:53.418Z</time></trkpt><trkpt lat="45.1546233" lon="11.613575"><ele>9.0</ele><time>2026-05-01T07:14:55.421Z</time></trkpt><trkpt lat="45.1547367" lon="11.613605"><ele>9.0</ele><time>2026-05-01T07:14:57.423Z</time></trkpt><trkpt lat="45.1548483" lon="11.6136367"><ele>8.5</ele><time>2026-05-01T07:14:59.395Z</time></trkpt><trkpt lat="45.1549583" lon="11.61369"><ele>8.0</ele><time>2026-05-01T07:15:01.421Z</time></trkpt><trkpt lat="45.1550617" lon="11.61376"><ele>7.5</ele><time>2026-05-01T07:15:03.408Z</time></trkpt><trkpt lat="45.1551617" lon="11.6138383"><ele>7.0</ele><time>2026-05-01T07:15:05.42Z</time></trkpt><trkpt lat="45.1552567" lon="11.613925"><ele>7.0</ele><time>2026-05-01T07:15:07.393Z</time></trkpt><trkpt lat="45.1553533" lon="11.6140133"><ele>6.999999999999999</ele><time>2026-05-01T07:15:09.379Z</time></trkpt><trkpt lat="45.1554483" lon="11.614095"><ele>6.999999999999999</ele><time>2026-05-01T07:15:11.38Z</time></trkpt><trkpt lat="45.1555467" lon="11.61417"><ele>7.0</ele><time>2026-05-01T07:15:13.38Z</time></trkpt><trkpt lat="45.155645" lon="11.614245"><ele>7.0</ele><time>2026-05-01T07:15:15.396Z</time></trkpt><trkpt lat="45.1557483" lon="11.6143067"><ele>6.75</ele><time>2026-05-01T07:15:17.376Z</time></trkpt><trkpt lat="45.15586" lon="11.6143583"><ele>6.5</ele><time>2026-05-01T07:15:19.379Z</time></trkpt><trkpt lat="45.1559767" lon="11.614395"><ele>6.25</ele><time>2026-05-01T07:15:21.38Z</time></trkpt><trkpt lat="45.156095" lon="11.6144233"><ele>6.0</ele><time>2026-05-01T07:15:23.402Z</time></trkpt><trkpt lat="45.1562133" lon="11.6144367"><ele>6.0</ele><time>2026-05-01T07:15:25.414Z</time></trkpt><trkpt lat="45.1563333" lon="11.6144483"><ele>6.0</ele><time>2026-05-01T07:15:27.38Z</time></trkpt><trkpt lat="45.1564517" lon="11.6144583"><ele>6.0</ele><time>2026-05-01T07:15:29.378Z</time></trkpt><trkpt lat="45.15657" lon="11.6144683"><ele>6.0</ele><time>2026-05-01T07:15:31.379Z</time></trkpt><trkpt lat="45.1566867" lon="11.6144983"><ele>6.4</ele><time>2026-05-01T07:15:33.384Z</time></trkpt><trkpt lat="45.1568017" lon="11.6145583"><ele>6.8</ele><time>2026-05-01T07:15:35.378Z</time></trkpt><trkpt lat="45.156905" lon="11.6146533"><ele>7.200000000000001</ele><time>2026-05-01T07:15:37.393Z</time></trkpt><trkpt lat="45.1569533" lon="11.6147133"><ele>7.6000000000000005</ele><time>2026-05-01T07:15:38.384Z</time></trkpt><trkpt lat="45.156995" lon="11.6147833"><ele>8.0</ele><time>2026-05-01T07:15:39.376Z</time></trkpt><trkpt lat="45.1570633" lon="11.6149267"><ele>8.0</ele><time>2026-05-01T07:15:41.416Z</time></trkpt><trkpt lat="45.1571233" lon="11.6150683"><ele>8.0</ele><time>2026-05-01T07:15:43.412Z</time></trkpt><trkpt lat="45.157175" lon="11.6152083"><ele>8.0</ele><time>2026-05-01T07:15:45.381Z</time></trkpt><trkpt lat="45.1572283" lon="11.6153483"><ele>8.0</ele><time>2026-05-01T07:15:47.381Z</time></trkpt><trkpt lat="45.1572767" lon="11.6154983"><ele>7.75</ele><time>2026-05-01T07:15:49.377Z</time></trkpt><trkpt lat="45.157325" lon="11.6156517"><ele>7.5</ele><time>2026-05-01T07:15:51.381Z</time></trkpt><trkpt lat="45.1573683" lon="11.615805"><ele>7.25</ele><time>2026-05-01T07:15:53.379Z</time></trkpt><trkpt lat="45.1574183" lon="11.615955"><ele>7.0</ele><time>2026-05-01T07:15:55.381Z</time></trkpt><trkpt lat="45.15748" lon="11.6161067"><ele>7.0</ele><time>2026-05-01T07:15:57.397Z</time></trkpt><trkpt lat="45.1575133" lon="11.616185"><ele>7.0</ele><time>2026-05-01T07:15:58.417Z</time></trkpt><trkpt lat="45.15755" lon="11.6162633"><ele>7.0</ele><time>2026-05-01T07:15:59.42Z</time></trkpt><trkpt lat="45.15759" lon="11.61634"><ele>7.0</ele><time>2026-05-01T07:16:00.389Z</time></trkpt><trkpt lat="45.15763" lon="11.6164167"><ele>7.0</ele><time>2026-05-01T07:16:01.419Z</time></trkpt><trkpt lat="45.1576717" lon="11.6164967"><ele>7.0</ele><time>2026-05-01T07:16:02.428Z</time></trkpt><trkpt lat="45.1577117" lon="11.6165783"><ele>7.0</ele><time>2026-05-01T07:16:03.418Z</time></trkpt><trkpt lat="45.1577517" lon="11.6166617"><ele>7.0</ele><time>2026-05-01T07:16:04.418Z</time></trkpt><trkpt lat="45.1577917" lon="11.61674"><ele>7.0</ele><time>2026-05-01T07:16:05.418Z</time></trkpt><trkpt lat="45.1578333" lon="11.6168183"><ele>7.0</ele><time>2026-05-01T07:16:06.417Z</time></trkpt><trkpt lat="45.1578733" lon="11.616895"><ele>7.0</ele><time>2026-05-01T07:16:07.425Z</time></trkpt><trkpt lat="45.157915" lon="11.6169717"><ele>7.0</ele><time>2026-05-01T07:16:08.415Z</time></trkpt><trkpt lat="45.15796" lon="11.6170517"><ele>7.0</ele><time>2026-05-01T07:16:09.421Z</time></trkpt><trkpt lat="45.1580033" lon="11.6171333"><ele>7.0</ele><time>2026-05-01T07:16:10.424Z</time></trkpt><trkpt lat="45.1580467" lon="11.617215"><ele>7.0</ele><time>2026-05-01T07:16:11.422Z</time></trkpt><trkpt lat="45.1580917" lon="11.6172967"><ele>7.0</ele><time>2026-05-01T07:16:12.421Z</time></trkpt><trkpt lat="45.158135" lon="11.6173767"><ele>7.0</ele><time>2026-05-01T07:16:13.408Z</time></trkpt><trkpt lat="45.1581783" lon="11.6174567"><ele>7.0</ele><time>2026-05-01T07:16:14.403Z</time></trkpt><trkpt lat="45.1582233" lon="11.6175383"><ele>7.0</ele><time>2026-05-01T07:16:15.382Z</time></trkpt><trkpt lat="45.1582667" lon="11.617615"><ele>7.0</ele><time>2026-05-01T07:16:16.377Z</time></trkpt><trkpt lat="45.1583133" lon="11.61769"><ele>7.0</ele><time>2026-05-01T07:16:17.384Z</time></trkpt><trkpt lat="45.15836" lon="11.617765"><ele>7.0</ele><time>2026-05-01T07:16:18.384Z</time></trkpt><trkpt lat="45.158405" lon="11.6178383"><ele>7.0</ele><time>2026-05-01T07:16:19.378Z</time></trkpt><trkpt lat="45.15845" lon="11.6179117"><ele>7.0</ele><time>2026-05-01T07:16:20.377Z</time></trkpt><trkpt lat="45.158495" lon="11.61798"><ele>7.0</ele><time>2026-05-01T07:16:21.38Z</time></trkpt><trkpt lat="45.1585417" lon="11.6180467"><ele>7.0</ele><time>2026-05-01T07:16:22.381Z</time></trkpt><trkpt lat="45.1585867" lon="11.6181117"><ele>7.0</ele><time>2026-05-01T07:16:23.379Z</time></trkpt><trkpt lat="45.158635" lon="11.6181717"><ele>7.0</ele><time>2026-05-01T07:16:24.391Z</time></trkpt><trkpt lat="45.1586817" lon="11.6182333"><ele>7.0</ele><time>2026-05-01T07:16:25.419Z</time></trkpt><trkpt lat="45.15873" lon="11.6182917"><ele>6.999999999999999</ele><time>2026-05-01T07:16:26.393Z</time></trkpt><trkpt lat="45.1588233" lon="11.6184033"><ele>6.999999999999999</ele><time>2026-05-01T07:16:28.379Z</time></trkpt><trkpt lat="45.158915" lon="11.6185083"><ele>7.0</ele><time>2026-05-01T07:16:30.384Z</time></trkpt><trkpt lat="45.159005" lon="11.6186133"><ele>7.0</ele><time>2026-05-01T07:16:32.38Z</time></trkpt><trkpt lat="45.1590933" lon="11.6187217"><ele>7.0</ele><time>2026-05-01T07:16:34.416Z</time></trkpt><trkpt lat="45.15918" lon="11.6188283"><ele>6.999999999999999</ele><time>2026-05-01T07:16:36.42Z</time></trkpt><trkpt lat="45.1592667" lon="11.61893"><ele>6.999999999999999</ele><time>2026-05-01T07:16:38.414Z</time></trkpt><trkpt lat="45.1593517" lon="11.6190267"><ele>7.0</ele><time>2026-05-01T07:16:40.42Z</time></trkpt><trkpt lat="45.1594417" lon="11.6191183"><ele>7.0</ele><time>2026-05-01T07:16:42.385Z</time></trkpt><trkpt lat="45.1595333" lon="11.6191983"><ele>7.0</ele><time>2026-05-01T07:16:44.418Z</time></trkpt><trkpt lat="45.1596267" lon="11.6192683"><ele>6.999999999999999</ele><time>2026-05-01T07:16:46.409Z</time></trkpt><trkpt lat="45.159725" lon="11.61932"><ele>6.999999999999999</ele><time>2026-05-01T07:16:48.421Z</time></trkpt><trkpt lat="45.1598283" lon="11.6193483"><ele>7.0</ele><time>2026-05-01T07:16:50.412Z</time></trkpt><trkpt lat="45.1599367" lon="11.6193667"><ele>7.0</ele><time>2026-05-01T07:16:52.419Z</time></trkpt><trkpt lat="45.1600467" lon="11.6193833"><ele>6.75</ele><time>2026-05-01T07:16:54.405Z</time></trkpt><trkpt lat="45.16016" lon="11.6193967"><ele>6.5</ele><time>2026-05-01T07:16:56.375Z</time></trkpt><trkpt lat="45.1602767" lon="11.6194083"><ele>6.25</ele><time>2026-05-01T07:16:58.383Z</time></trkpt><trkpt lat="45.1603917" lon="11.619425"><ele>6.0</ele><time>2026-05-01T07:17:00.381Z</time></trkpt><trkpt lat="45.1605133" lon="11.6194317"><ele>6.0</ele><time>2026-05-01T07:17:02.38Z</time></trkpt><trkpt lat="45.1606367" lon="11.6194433"><ele>6.0</ele><time>2026-05-01T07:17:04.381Z</time></trkpt><trkpt lat="45.1607567" lon="11.6194517"><ele>6.0</ele><time>2026-05-01T07:17:06.379Z</time></trkpt><trkpt lat="45.1608717" lon="11.6194617"><ele>6.0</ele><time>2026-05-01T07:17:08.38Z</time></trkpt><trkpt lat="45.1609867" lon="11.6194783"><ele>5.5</ele><time>2026-05-01T07:17:10.38Z</time></trkpt><trkpt lat="45.1611033" lon="11.6194917"><ele>5.0</ele><time>2026-05-01T07:17:12.416Z</time></trkpt><trkpt lat="45.16122" lon="11.6195017"><ele>4.5</ele><time>2026-05-01T07:17:14.416Z</time></trkpt><trkpt lat="45.1613383" lon="11.619515"><ele>4.0</ele><time>2026-05-01T07:17:16.382Z</time></trkpt><trkpt lat="45.161455" lon="11.619525"><ele>4.0</ele><time>2026-05-01T07:17:18.38Z</time></trkpt><trkpt lat="45.1615717" lon="11.6195317"><ele>4.0</ele><time>2026-05-01T07:17:20.38Z</time></trkpt><trkpt lat="45.16169" lon="11.61954"><ele>4.0</ele><time>2026-05-01T07:17:22.379Z</time></trkpt><trkpt lat="45.1618117" lon="11.6195433"><ele>4.0</ele><time>2026-05-01T07:17:24.423Z</time></trkpt><trkpt lat="45.161935" lon="11.619555"><ele>4.0</ele><time>2026-05-01T07:17:26.419Z</time></trkpt><trkpt lat="45.1619983" lon="11.6195617"><ele>4.0</ele><time>2026-05-01T07:17:27.409Z</time></trkpt><trkpt lat="45.16212" lon="11.619575"><ele>4.0</ele><time>2026-05-01T07:17:29.422Z</time></trkpt><trkpt lat="45.1622433" lon="11.6195883"><ele>4.0</ele><time>2026-05-01T07:17:31.46Z</time></trkpt><trkpt lat="45.1623667" lon="11.6195983"><ele>4.0</ele><time>2026-05-01T07:17:33.456Z</time></trkpt><trkpt lat="45.1624833" lon="11.619615"><ele>3.8000000000000003</ele><time>2026-05-01T07:17:35.395Z</time></trkpt><trkpt lat="45.1625467" lon="11.6196067"><ele>3.6000000000000005</ele><time>2026-05-01T07:17:36.402Z</time></trkpt><trkpt lat="45.1626617" lon="11.619625"><ele>3.4</ele><time>2026-05-01T07:17:38.391Z</time></trkpt><trkpt lat="45.1627767" lon="11.619645"><ele>3.2</ele><time>2026-05-01T07:17:40.395Z</time></trkpt><trkpt lat="45.162895" lon="11.6196583"><ele>3.0</ele><time>2026-05-01T07:17:42.393Z</time></trkpt><trkpt lat="45.16301" lon="11.6196667"><ele>3.0</ele><time>2026-05-01T07:17:44.421Z</time></trkpt><trkpt lat="45.1631267" lon="11.6196733"><ele>3.0</ele><time>2026-05-01T07:17:46.425Z</time></trkpt><trkpt lat="45.1632433" lon="11.6196817"><ele>3.0</ele><time>2026-05-01T07:17:48.416Z</time></trkpt><trkpt lat="45.1633583" lon="11.6196917"><ele>3.0</ele><time>2026-05-01T07:17:50.421Z</time></trkpt><trkpt lat="45.1634717" lon="11.6196983"><ele>3.25</ele><time>2026-05-01T07:17:52.384Z</time></trkpt><trkpt lat="45.1635883" lon="11.6197033"><ele>3.5</ele><time>2026-05-01T07:17:54.429Z</time></trkpt><trkpt lat="45.1637083" lon="11.6197183"><ele>3.75</ele><time>2026-05-01T07:17:56.422Z</time></trkpt><trkpt lat="45.1638283" lon="11.6197383"><ele>4.0</ele><time>2026-05-01T07:17:58.387Z</time></trkpt><trkpt lat="45.1639483" lon="11.6197567"><ele>4.25</ele><time>2026-05-01T07:18:00.384Z</time></trkpt><trkpt lat="45.16407" lon="11.6197667"><ele>4.5</ele><time>2026-05-01T07:18:02.384Z</time></trkpt><trkpt lat="45.1641933" lon="11.6197783"><ele>4.75</ele><time>2026-05-01T07:18:04.384Z</time></trkpt><trkpt lat="45.1643117" lon="11.6197867"><ele>5.0</ele><time>2026-05-01T07:18:06.427Z</time></trkpt><trkpt lat="45.1644283" lon="11.6198"><ele>5.0</ele><time>2026-05-01T07:18:08.424Z</time></trkpt><trkpt lat="45.164545" lon="11.6198083"><ele>5.0</ele><time>2026-05-01T07:18:10.424Z</time></trkpt><trkpt lat="45.1646617" lon="11.6198183"><ele>5.0</ele><time>2026-05-01T07:18:12.42Z</time></trkpt><trkpt lat="45.1647733" lon="11.61983"><ele>5.0</ele><time>2026-05-01T07:18:14.42Z</time></trkpt><trkpt lat="45.1648867" lon="11.61984"><ele>5.2</ele><time>2026-05-01T07:18:16.421Z</time></trkpt><trkpt lat="45.1650017" lon="11.6198517"><ele>5.4</ele><time>2026-05-01T07:18:18.426Z</time></trkpt><trkpt lat="45.1651083" lon="11.6198667"><ele>5.6</ele><time>2026-05-01T07:18:20.422Z</time></trkpt><trkpt lat="45.1652133" lon="11.619885"><ele>5.8</ele><time>2026-05-01T07:18:22.414Z</time></trkpt><trkpt lat="45.1653167" lon="11.6199017"><ele>6.0</ele><time>2026-05-01T07:18:24.423Z</time></trkpt><trkpt lat="45.1654233" lon="11.619915"><ele>6.0</ele><time>2026-05-01T07:18:26.384Z</time></trkpt><trkpt lat="45.1655367" lon="11.6199267"><ele>6.0</ele><time>2026-05-01T07:18:28.384Z</time></trkpt><trkpt lat="45.1656483" lon="11.619935"><ele>6.0</ele><time>2026-05-01T07:18:30.383Z</time></trkpt><trkpt lat="45.16576" lon="11.6199367"><ele>6.0</ele><time>2026-05-01T07:18:32.422Z</time></trkpt><trkpt lat="45.1658733" lon="11.6199383"><ele>5.75</ele><time>2026-05-01T07:18:34.428Z</time></trkpt><trkpt lat="45.1659883" lon="11.6199383"><ele>5.5</ele><time>2026-05-01T07:18:36.431Z</time></trkpt><trkpt lat="45.1661067" lon="11.6199283"><ele>5.25</ele><time>2026-05-01T07:18:38.413Z</time></trkpt><trkpt lat="45.1662267" lon="11.6199067"><ele>5.0</ele><time>2026-05-01T07:18:40.418Z</time></trkpt><trkpt lat="45.1663417" lon="11.6198767"><ele>5.0</ele><time>2026-05-01T07:18:42.381Z</time></trkpt><trkpt lat="45.16646" lon="11.6198367"><ele>5.0</ele><time>2026-05-01T07:18:44.382Z</time></trkpt><trkpt lat="45.166575" lon="11.6197983"><ele>5.0</ele><time>2026-05-01T07:18:46.38Z</time></trkpt><trkpt lat="45.1666917" lon="11.61976"><ele>5.0</ele><time>2026-05-01T07:18:48.421Z</time></trkpt><trkpt lat="45.1668017" lon="11.61972"><ele>5.0</ele><time>2026-05-01T07:18:50.411Z</time></trkpt><trkpt lat="45.1669117" lon="11.619685"><ele>5.0</ele><time>2026-05-01T07:18:52.416Z</time></trkpt><trkpt lat="45.1670217" lon="11.61965"><ele>5.0</ele><time>2026-05-01T07:18:54.413Z</time></trkpt><trkpt lat="45.1671317" lon="11.6196267"><ele>5.0</ele><time>2026-05-01T07:18:56.401Z</time></trkpt><trkpt lat="45.1672467" lon="11.61961"><ele>4.75</ele><time>2026-05-01T07:18:58.386Z</time></trkpt><trkpt lat="45.1673617" lon="11.6196"><ele>4.5</ele><time>2026-05-01T07:19:00.384Z</time></trkpt><trkpt lat="45.167475" lon="11.61959"><ele>4.25</ele><time>2026-05-01T07:19:02.384Z</time></trkpt><trkpt lat="45.16759" lon="11.619585"><ele>4.0</ele><time>2026-05-01T07:19:04.382Z</time></trkpt><trkpt lat="45.1677067" lon="11.6195833"><ele>4.0</ele><time>2026-05-01T07:19:06.425Z</time></trkpt><trkpt lat="45.1678267" lon="11.619575"><ele>4.0</ele><time>2026-05-01T07:19:08.429Z</time></trkpt><trkpt lat="45.167945" lon="11.6195667"><ele>4.0</ele><time>2026-05-01T07:19:10.394Z</time></trkpt><trkpt lat="45.1680633" lon="11.6195583"><ele>4.0</ele><time>2026-05-01T07:19:12.435Z</time></trkpt><trkpt lat="45.1681817" lon="11.6195433"><ele>3.5</ele><time>2026-05-01T07:19:14.452Z</time></trkpt><trkpt lat="45.1683033" lon="11.6195467"><ele>3.0</ele><time>2026-05-01T07:19:16.388Z</time></trkpt><trkpt lat="45.1684183" lon="11.61956"><ele>2.5</ele><time>2026-05-01T07:19:18.406Z</time></trkpt><trkpt lat="45.168535" lon="11.6195583"><ele>2.0</ele><time>2026-05-01T07:19:20.407Z</time></trkpt><trkpt lat="45.1686483" lon="11.61955"><ele>2.0</ele><time>2026-05-01T07:19:22.389Z</time></trkpt><trkpt lat="45.16876" lon="11.6195467"><ele>2.0</ele><time>2026-05-01T07:19:24.421Z</time></trkpt><trkpt lat="45.1688833" lon="11.619535"><ele>2.0</ele><time>2026-05-01T07:19:26.406Z</time></trkpt><trkpt lat="45.1690033" lon="11.61953"><ele>2.0</ele><time>2026-05-01T07:19:28.414Z</time></trkpt><trkpt lat="45.1691217" lon="11.6195317"><ele>2.75</ele><time>2026-05-01T07:19:30.426Z</time></trkpt><trkpt lat="45.1692417" lon="11.619525"><ele>3.5</ele><time>2026-05-01T07:19:32.415Z</time></trkpt><trkpt lat="45.16936" lon="11.6195217"><ele>4.25</ele><time>2026-05-01T07:19:34.413Z</time></trkpt><trkpt lat="45.1694783" lon="11.6195167"><ele>5.0</ele><time>2026-05-01T07:19:36.417Z</time></trkpt><trkpt lat="45.169595" lon="11.6195133"><ele>5.0</ele><time>2026-05-01T07:19:38.413Z</time></trkpt><trkpt lat="45.1697117" lon="11.619505"><ele>5.0</ele><time>2026-05-01T07:19:40.421Z</time></trkpt><trkpt lat="45.1698267" lon="11.619505"><ele>5.0</ele><time>2026-05-01T07:19:42.389Z</time></trkpt><trkpt lat="45.169945" lon="11.6195033"><ele>5.0</ele><time>2026-05-01T07:19:44.388Z</time></trkpt><trkpt lat="45.1700633" lon="11.6195017"><ele>5.0</ele><time>2026-05-01T07:19:46.382Z</time></trkpt><trkpt lat="45.1701817" lon="11.6194983"><ele>5.0</ele><time>2026-05-01T07:19:48.4Z</time></trkpt><trkpt lat="45.1703017" lon="11.619495"><ele>5.0</ele><time>2026-05-01T07:19:50.386Z</time></trkpt><trkpt lat="45.1704217" lon="11.619495"><ele>5.0</ele><time>2026-05-01T07:19:52.384Z</time></trkpt><trkpt lat="45.17054" lon="11.61949"><ele>4.75</ele><time>2026-05-01T07:19:54.382Z</time></trkpt><trkpt lat="45.1706533" lon="11.6194833"><ele>4.5</ele><time>2026-05-01T07:19:56.418Z</time></trkpt><trkpt lat="45.17077" lon="11.6194767"><ele>4.25</ele><time>2026-05-01T07:19:58.421Z</time></trkpt><trkpt lat="45.1708833" lon="11.6194717"><ele>4.0</ele><time>2026-05-01T07:20:00.429Z</time></trkpt><trkpt lat="45.1709983" lon="11.619465"><ele>3.75</ele><time>2026-05-01T07:20:02.422Z</time></trkpt><trkpt lat="45.171115" lon="11.6194583"><ele>3.5</ele><time>2026-05-01T07:20:04.423Z</time></trkpt><trkpt lat="45.1712333" lon="11.619455"><ele>3.25</ele><time>2026-05-01T07:20:06.415Z</time></trkpt><trkpt lat="45.17135" lon="11.6194517"><ele>3.0</ele><time>2026-05-01T07:20:08.407Z</time></trkpt><trkpt lat="45.1714667" lon="11.6194517"><ele>3.2</ele><time>2026-05-01T07:20:10.42Z</time></trkpt><trkpt lat="45.1715767" lon="11.6194467"><ele>3.4</ele><time>2026-05-01T07:20:12.421Z</time></trkpt><trkpt lat="45.1716883" lon="11.619445"><ele>3.6000000000000005</ele><time>2026-05-01T07:20:14.416Z</time></trkpt><trkpt lat="45.1718" lon="11.6194433"><ele>3.8000000000000003</ele><time>2026-05-01T07:20:16.406Z</time></trkpt><trkpt lat="45.1719117" lon="11.6194433"><ele>4.0</ele><time>2026-05-01T07:20:18.414Z</time></trkpt><trkpt lat="45.1720217" lon="11.619435"><ele>4.0</ele><time>2026-05-01T07:20:20.415Z</time></trkpt><trkpt lat="45.1721317" lon="11.6194283"><ele>4.0</ele><time>2026-05-01T07:20:22.42Z</time></trkpt><trkpt lat="45.1722433" lon="11.6194283"><ele>4.0</ele><time>2026-05-01T07:20:24.388Z</time></trkpt><trkpt lat="45.1723517" lon="11.619425"><ele>4.0</ele><time>2026-05-01T07:20:26.415Z</time></trkpt><trkpt lat="45.172465" lon="11.61942"><ele>4.0</ele><time>2026-05-01T07:20:28.424Z</time></trkpt><trkpt lat="45.1725783" lon="11.6194183"><ele>4.25</ele><time>2026-05-01T07:20:30.421Z</time></trkpt><trkpt lat="45.1726917" lon="11.61941"><ele>4.5</ele><time>2026-05-01T07:20:32.418Z</time></trkpt><trkpt lat="45.172805" lon="11.6194033"><ele>4.75</ele><time>2026-05-01T07:20:34.381Z</time></trkpt><trkpt lat="45.1729183" lon="11.6194"><ele>5.0</ele><time>2026-05-01T07:20:36.382Z</time></trkpt><trkpt lat="45.1730317" lon="11.6193983"><ele>5.0</ele><time>2026-05-01T07:20:38.382Z</time></trkpt><trkpt lat="45.173145" lon="11.6193933"><ele>5.0</ele><time>2026-05-01T07:20:40.4Z</time></trkpt><trkpt lat="45.1732583" lon="11.6193917"><ele>5.0</ele><time>2026-05-01T07:20:42.414Z</time></trkpt><trkpt lat="45.1733733" lon="11.6193883"><ele>5.0</ele><time>2026-05-01T07:20:44.438Z</time></trkpt><trkpt lat="45.173485" lon="11.6193867"><ele>5.0</ele><time>2026-05-01T07:20:46.421Z</time></trkpt><trkpt lat="45.1735933" lon="11.6193833"><ele>5.0</ele><time>2026-05-01T07:20:48.41Z</time></trkpt><trkpt lat="45.1737033" lon="11.61938"><ele>5.0</ele><time>2026-05-01T07:20:50.384Z</time></trkpt><trkpt lat="45.1738133" lon="11.6193783"><ele>5.0</ele><time>2026-05-01T07:20:52.383Z</time></trkpt><trkpt lat="45.1739183" lon="11.6193733"><ele>5.0</ele><time>2026-05-01T07:20:54.381Z</time></trkpt><trkpt lat="45.1740233" lon="11.61937"><ele>5.0</ele><time>2026-05-01T07:20:56.409Z</time></trkpt><trkpt lat="45.1741333" lon="11.619365"><ele>5.0</ele><time>2026-05-01T07:20:58.425Z</time></trkpt><trkpt lat="45.17424" lon="11.6193633"><ele>5.0</ele><time>2026-05-01T07:21:00.41Z</time></trkpt><trkpt lat="45.174345" lon="11.6193583"><ele>5.0</ele><time>2026-05-01T07:21:02.419Z</time></trkpt><trkpt lat="45.17445" lon="11.61936"><ele>5.0</ele><time>2026-05-01T07:21:04.388Z</time></trkpt><trkpt lat="45.174565" lon="11.6193583"><ele>5.0</ele><time>2026-05-01T07:21:06.38Z</time></trkpt><trkpt lat="45.1746733" lon="11.6193533"><ele>5.0</ele><time>2026-05-01T07:21:08.38Z</time></trkpt><trkpt lat="45.1747867" lon="11.61935"><ele>5.0</ele><time>2026-05-01T07:21:10.382Z</time></trkpt><trkpt lat="45.1749" lon="11.6193467"><ele>5.0</ele><time>2026-05-01T07:21:12.391Z</time></trkpt><trkpt lat="45.1750117" lon="11.61934"><ele>5.0</ele><time>2026-05-01T07:21:14.381Z</time></trkpt><trkpt lat="45.1751167" lon="11.61934"><ele>5.2</ele><time>2026-05-01T07:21:16.38Z</time></trkpt><trkpt lat="45.1752183" lon="11.6193417"><ele>5.4</ele><time>2026-05-01T07:21:18.419Z</time></trkpt><trkpt lat="45.1753133" lon="11.6193433"><ele>5.6</ele><time>2026-05-01T07:21:20.419Z</time></trkpt><trkpt lat="45.1753883" lon="11.6194033"><ele>5.8</ele><time>2026-05-01T07:21:22.396Z</time></trkpt><trkpt lat="45.1754233" lon="11.61953"><ele>6.0</ele><time>2026-05-01T07:21:24.423Z</time></trkpt><trkpt lat="45.1754633" lon="11.6196683"><ele>6.0</ele><time>2026-05-01T07:21:26.458Z</time></trkpt><trkpt lat="45.1755017" lon="11.619795"><ele>6.0</ele><time>2026-05-01T07:21:28.455Z</time></trkpt><trkpt lat="45.1755083" lon="11.61989"><ele>6.0</ele><time>2026-05-01T07:21:29.456Z</time></trkpt><trkpt lat="45.17551" lon="11.6200717"><ele>6.0</ele><time>2026-05-01T07:21:31.391Z</time></trkpt><trkpt lat="45.17555" lon="11.6202233"><ele>6.0</ele><time>2026-05-01T07:21:33.398Z</time></trkpt><trkpt lat="45.17559" lon="11.6203683"><ele>6.0</ele><time>2026-05-01T07:21:35.39Z</time></trkpt><trkpt lat="45.1756117" lon="11.6205283"><ele>6.0</ele><time>2026-05-01T07:21:37.423Z</time></trkpt><trkpt lat="45.17564" lon="11.62068"><ele>6.0</ele><time>2026-05-01T07:21:39.412Z</time></trkpt><trkpt lat="45.1756767" lon="11.620835"><ele>6.0</ele><time>2026-05-01T07:21:41.423Z</time></trkpt><trkpt lat="45.1757133" lon="11.6209883"><ele>5.8</ele><time>2026-05-01T07:21:43.421Z</time></trkpt><trkpt lat="45.1757467" lon="11.62114"><ele>5.6</ele><time>2026-05-01T07:21:45.421Z</time></trkpt><trkpt lat="45.1757767" lon="11.6212933"><ele>5.4</ele><time>2026-05-01T07:21:47.409Z</time></trkpt><trkpt lat="45.1758067" lon="11.62144"><ele>5.2</ele><time>2026-05-01T07:21:49.42Z</time></trkpt><trkpt lat="45.17584" lon="11.6215867"><ele>5.0</ele><time>2026-05-01T07:21:51.424Z</time></trkpt><trkpt lat="45.17587" lon="11.6217317"><ele>4.8</ele><time>2026-05-01T07:21:53.42Z</time></trkpt><trkpt lat="45.1759" lon="11.6218683"><ele>4.6</ele><time>2026-05-01T07:21:55.391Z</time></trkpt><trkpt lat="45.17593" lon="11.622015"><ele>4.4</ele><time>2026-05-01T07:21:57.403Z</time></trkpt><trkpt lat="45.1759583" lon="11.6221767"><ele>4.2</ele><time>2026-05-01T07:21:59.423Z</time></trkpt><trkpt lat="45.1759883" lon="11.622335"><ele>4.0</ele><time>2026-05-01T07:22:01.42Z</time></trkpt><trkpt lat="45.1760233" lon="11.6224983"><ele>4.5</ele><time>2026-05-01T07:22:03.418Z</time></trkpt><trkpt lat="45.1760567" lon="11.6226567"><ele>5.0</ele><time>2026-05-01T07:22:05.423Z</time></trkpt><trkpt lat="45.1760867" lon="11.6228183"><ele>5.5</ele><time>2026-05-01T07:22:07.379Z</time></trkpt><trkpt lat="45.1761217" lon="11.6229833"><ele>6.0</ele><time>2026-05-01T07:22:09.381Z</time></trkpt><trkpt lat="45.1761533" lon="11.62314"><ele>6.5</ele><time>2026-05-01T07:22:11.381Z</time></trkpt><trkpt lat="45.1761867" lon="11.6233017"><ele>7.0</ele><time>2026-05-01T07:22:13.382Z</time></trkpt><trkpt lat="45.1762183" lon="11.6234567"><ele>7.5</ele><time>2026-05-01T07:22:15.382Z</time></trkpt><trkpt lat="45.17625" lon="11.6236133"><ele>8.0</ele><time>2026-05-01T07:22:17.379Z</time></trkpt><trkpt lat="45.1762817" lon="11.6237683"><ele>8.25</ele><time>2026-05-01T07:22:19.415Z</time></trkpt><trkpt lat="45.176315" lon="11.6239217"><ele>8.5</ele><time>2026-05-01T07:22:21.379Z</time></trkpt><trkpt lat="45.17635" lon="11.62408"><ele>8.75</ele><time>2026-05-01T07:22:23.377Z</time></trkpt><trkpt lat="45.176385" lon="11.624235"><ele>9.0</ele><time>2026-05-01T07:22:25.38Z</time></trkpt><trkpt lat="45.1764117" lon="11.6243867"><ele>8.8</ele><time>2026-05-01T07:22:27.414Z</time></trkpt><trkpt lat="45.17645" lon="11.62453"><ele>8.600000000000001</ele><time>2026-05-01T07:22:29.418Z</time></trkpt><trkpt lat="45.1764817" lon="11.62468"><ele>8.4</ele><time>2026-05-01T07:22:31.391Z</time></trkpt><trkpt lat="45.1765217" lon="11.624825"><ele>8.200000000000001</ele><time>2026-05-01T07:22:33.418Z</time></trkpt><trkpt lat="45.1765567" lon="11.6249717"><ele>8.0</ele><time>2026-05-01T07:22:35.381Z</time></trkpt><trkpt lat="45.1765933" lon="11.625115"><ele>8.200000000000001</ele><time>2026-05-01T07:22:37.382Z</time></trkpt><trkpt lat="45.1766417" lon="11.6252483"><ele>8.4</ele><time>2026-05-01T07:22:39.381Z</time></trkpt><trkpt lat="45.1766983" lon="11.625365"><ele>8.600000000000001</ele><time>2026-05-01T07:22:41.41Z</time></trkpt><trkpt lat="45.1767583" lon="11.6254783"><ele>8.8</ele><time>2026-05-01T07:22:43.409Z</time></trkpt><trkpt lat="45.1768183" lon="11.6255933"><ele>9.0</ele><time>2026-05-01T07:22:45.396Z</time></trkpt><trkpt lat="45.1768933" lon="11.6257017"><ele>9.0</ele><time>2026-05-01T07:22:47.435Z</time></trkpt><trkpt lat="45.17698" lon="11.6257917"><ele>9.0</ele><time>2026-05-01T07:22:49.42Z</time></trkpt><trkpt lat="45.1771417" lon="11.6258883"><ele>9.0</ele><time>2026-05-01T07:22:52.401Z</time></trkpt><trkpt lat="45.1772433" lon="11.625955"><ele>9.0</ele><time>2026-05-01T07:22:54.395Z</time></trkpt><trkpt lat="45.1773567" lon="11.626025"><ele>8.8</ele><time>2026-05-01T07:22:56.389Z</time></trkpt><trkpt lat="45.1774517" lon="11.6261"><ele>8.600000000000001</ele><time>2026-05-01T07:22:58.406Z</time></trkpt><trkpt lat="45.17756" lon="11.62618"><ele>8.4</ele><time>2026-05-01T07:23:00.383Z</time></trkpt><trkpt lat="45.1776133" lon="11.62623"><ele>8.200000000000001</ele><time>2026-05-01T07:23:01.382Z</time></trkpt><trkpt lat="45.1776667" lon="11.6262833"><ele>8.0</ele><time>2026-05-01T07:23:02.383Z</time></trkpt><trkpt lat="45.177765" lon="11.6263767"><ele>7.5</ele><time>2026-05-01T07:23:04.382Z</time></trkpt><trkpt lat="45.1778617" lon="11.6264733"><ele>7.0</ele><time>2026-05-01T07:23:06.417Z</time></trkpt><trkpt lat="45.1779617" lon="11.6265617"><ele>6.5</ele><time>2026-05-01T07:23:08.413Z</time></trkpt><trkpt lat="45.178065" lon="11.62664"><ele>6.0</ele><time>2026-05-01T07:23:10.409Z</time></trkpt><trkpt lat="45.1781733" lon="11.6267067"><ele>6.0</ele><time>2026-05-01T07:23:12.422Z</time></trkpt><trkpt lat="45.1782833" lon="11.626765"><ele>6.0</ele><time>2026-05-01T07:23:14.418Z</time></trkpt><trkpt lat="45.1783967" lon="11.6268117"><ele>6.0</ele><time>2026-05-01T07:23:16.42Z</time></trkpt><trkpt lat="45.1785133" lon="11.6268567"><ele>6.0</ele><time>2026-05-01T07:23:18.421Z</time></trkpt><trkpt lat="45.1786283" lon="11.626905"><ele>6.0</ele><time>2026-05-01T07:23:20.378Z</time></trkpt><trkpt lat="45.17874" lon="11.6269583"><ele>6.0</ele><time>2026-05-01T07:23:22.376Z</time></trkpt><trkpt lat="45.1788517" lon="11.6270117"><ele>6.0</ele><time>2026-05-01T07:23:24.378Z</time></trkpt><trkpt lat="45.1789633" lon="11.6270633"><ele>6.0</ele><time>2026-05-01T07:23:26.382Z</time></trkpt><trkpt lat="45.1790767" lon="11.6271133"><ele>6.25</ele><time>2026-05-01T07:23:28.418Z</time></trkpt><trkpt lat="45.1791867" lon="11.6271667"><ele>6.5</ele><time>2026-05-01T07:23:30.422Z</time></trkpt><trkpt lat="45.1792933" lon="11.62722"><ele>6.75</ele><time>2026-05-01T07:23:32.412Z</time></trkpt><trkpt lat="45.1793983" lon="11.6272733"><ele>7.0</ele><time>2026-05-01T07:23:34.42Z</time></trkpt><trkpt lat="45.1795033" lon="11.6273267"><ele>7.0</ele><time>2026-05-01T07:23:36.38Z</time></trkpt><trkpt lat="45.1796067" lon="11.6273767"><ele>6.999999999999999</ele><time>2026-05-01T07:23:38.382Z</time></trkpt><trkpt lat="45.1797117" lon="11.6274333"><ele>6.999999999999999</ele><time>2026-05-01T07:23:40.391Z</time></trkpt><trkpt lat="45.179815" lon="11.62749"><ele>7.0</ele><time>2026-05-01T07:23:42.395Z</time></trkpt><trkpt lat="45.1799233" lon="11.627545"><ele>7.0</ele><time>2026-05-01T07:23:44.383Z</time></trkpt><trkpt lat="45.180035" lon="11.6275967"><ele>6.75</ele><time>2026-05-01T07:23:46.383Z</time></trkpt><trkpt lat="45.1801467" lon="11.62765"><ele>6.5</ele><time>2026-05-01T07:23:48.486Z</time></trkpt><trkpt lat="45.1802517" lon="11.6277017"><ele>6.25</ele><time>2026-05-01T07:23:50.389Z</time></trkpt><trkpt lat="45.180355" lon="11.6277567"><ele>6.0</ele><time>2026-05-01T07:23:52.396Z</time></trkpt><trkpt lat="45.18046" lon="11.6278133"><ele>6.0</ele><time>2026-05-01T07:23:54.393Z</time></trkpt><trkpt lat="45.1805667" lon="11.6278767"><ele>6.0</ele><time>2026-05-01T07:23:56.416Z</time></trkpt><trkpt lat="45.1806717" lon="11.6279367"><ele>6.0</ele><time>2026-05-01T07:23:58.436Z</time></trkpt><trkpt lat="45.1807833" lon="11.627995"><ele>6.0</ele><time>2026-05-01T07:24:00.407Z</time></trkpt><trkpt lat="45.1808933" lon="11.628055"><ele>6.25</ele><time>2026-05-01T07:24:02.396Z</time></trkpt><trkpt lat="45.181005" lon="11.62811"><ele>6.5</ele><time>2026-05-01T07:24:04.396Z</time></trkpt><trkpt lat="45.181115" lon="11.6281733"><ele>6.75</ele><time>2026-05-01T07:24:06.397Z</time></trkpt><trkpt lat="45.1812233" lon="11.6282317"><ele>7.0</ele><time>2026-05-01T07:24:08.378Z</time></trkpt><trkpt lat="45.1813267" lon="11.62829"><ele>7.0</ele><time>2026-05-01T07:24:10.382Z</time></trkpt><trkpt lat="45.1814183" lon="11.6283533"><ele>6.999999999999999</ele><time>2026-05-01T07:24:12.38Z</time></trkpt><trkpt lat="45.1815017" lon="11.62844"><ele>6.999999999999999</ele><time>2026-05-01T07:24:14.377Z</time></trkpt><trkpt lat="45.18159" lon="11.62852"><ele>7.0</ele><time>2026-05-01T07:24:16.38Z</time></trkpt><trkpt lat="45.1816983" lon="11.6285533"><ele>7.0</ele><time>2026-05-01T07:24:18.415Z</time></trkpt><trkpt lat="45.1818133" lon="11.6285633"><ele>7.0</ele><time>2026-05-01T07:24:20.416Z</time></trkpt><trkpt lat="45.1819233" lon="11.6286"><ele>7.0</ele><time>2026-05-01T07:24:22.385Z</time></trkpt><trkpt lat="45.1820267" lon="11.6286583"><ele>7.0</ele><time>2026-05-01T07:24:24.416Z</time></trkpt><trkpt lat="45.182135" lon="11.628725"><ele>7.0</ele><time>2026-05-01T07:24:26.419Z</time></trkpt><trkpt lat="45.1822483" lon="11.6287867"><ele>7.25</ele><time>2026-05-01T07:24:28.419Z</time></trkpt><trkpt lat="45.18236" lon="11.6288467"><ele>7.5</ele><time>2026-05-01T07:24:30.416Z</time></trkpt><trkpt lat="45.1824717" lon="11.62891"><ele>7.75</ele><time>2026-05-01T07:24:32.422Z</time></trkpt><trkpt lat="45.1825867" lon="11.6289683"><ele>8.0</ele><time>2026-05-01T07:24:34.419Z</time></trkpt><trkpt lat="45.1826983" lon="11.629025"><ele>8.0</ele><time>2026-05-01T07:24:36.451Z</time></trkpt><trkpt lat="45.18281" lon="11.6290783"><ele>8.0</ele><time>2026-05-01T07:24:38.465Z</time></trkpt><trkpt lat="45.1829217" lon="11.62914"><ele>8.0</ele><time>2026-05-01T07:24:40.388Z</time></trkpt><trkpt lat="45.183035" lon="11.6292017"><ele>8.0</ele><time>2026-05-01T07:24:42.398Z</time></trkpt><trkpt lat="45.183155" lon="11.6292483"><ele>7.5</ele><time>2026-05-01T07:24:44.411Z</time></trkpt><trkpt lat="45.183275" lon="11.62929"><ele>7.0</ele><time>2026-05-01T07:24:46.398Z</time></trkpt><trkpt lat="45.18339" lon="11.62933"><ele>6.5</ele><time>2026-05-01T07:24:48.386Z</time></trkpt><trkpt lat="45.183505" lon="11.62937"><ele>6.0</ele><time>2026-05-01T07:24:50.404Z</time></trkpt><trkpt lat="45.1836217" lon="11.6294083"><ele>6.0</ele><time>2026-05-01T07:24:52.391Z</time></trkpt><trkpt lat="45.18374" lon="11.629445"><ele>6.0</ele><time>2026-05-01T07:24:54.393Z</time></trkpt><trkpt lat="45.1838533" lon="11.6294783"><ele>6.0</ele><time>2026-05-01T07:24:56.42Z</time></trkpt><trkpt lat="45.1839667" lon="11.6295133"><ele>6.0</ele><time>2026-05-01T07:24:58.417Z</time></trkpt><trkpt lat="45.18408" lon="11.62955"><ele>6.25</ele><time>2026-05-01T07:25:00.419Z</time></trkpt><trkpt lat="45.1841967" lon="11.6295833"><ele>6.5</ele><time>2026-05-01T07:25:02.38Z</time></trkpt><trkpt lat="45.184315" lon="11.62962"><ele>6.75</ele><time>2026-05-01T07:25:04.385Z</time></trkpt><trkpt lat="45.1844333" lon="11.629655"><ele>7.0</ele><time>2026-05-01T07:25:06.394Z</time></trkpt><trkpt lat="45.1845483" lon="11.6296917"><ele>7.0</ele><time>2026-05-01T07:25:08.41Z</time></trkpt><trkpt lat="45.1846583" lon="11.6297267"><ele>7.0</ele><time>2026-05-01T07:25:10.418Z</time></trkpt><trkpt lat="45.1847667" lon="11.6297567"><ele>7.0</ele><time>2026-05-01T07:25:12.417Z</time></trkpt><trkpt lat="45.18488" lon="11.6297867"><ele>7.0</ele><time>2026-05-01T07:25:14.415Z</time></trkpt><trkpt lat="45.1849917" lon="11.62981"><ele>7.3999999999999995</ele><time>2026-05-01T07:25:16.418Z</time></trkpt><trkpt lat="45.1850983" lon="11.6298383"><ele>7.799999999999999</ele><time>2026-05-01T07:25:18.418Z</time></trkpt><trkpt lat="45.1852083" lon="11.6298633"><ele>8.2</ele><time>2026-05-01T07:25:20.415Z</time></trkpt><trkpt lat="45.1853167" lon="11.629885"><ele>8.6</ele><time>2026-05-01T07:25:22.411Z</time></trkpt><trkpt lat="45.1854283" lon="11.6299083"><ele>9.0</ele><time>2026-05-01T07:25:24.425Z</time></trkpt><trkpt lat="45.1855417" lon="11.6299267"><ele>9.0</ele><time>2026-05-01T07:25:26.409Z</time></trkpt><trkpt lat="45.1856567" lon="11.6299467"><ele>9.0</ele><time>2026-05-01T07:25:28.422Z</time></trkpt><trkpt lat="45.1857717" lon="11.6299667"><ele>9.0</ele><time>2026-05-01T07:25:30.415Z</time></trkpt><trkpt lat="45.185885" lon="11.6299933"><ele>9.0</ele><time>2026-05-01T07:25:32.422Z</time></trkpt><trkpt lat="45.1860017" lon="11.6300133"><ele>9.0</ele><time>2026-05-01T07:25:34.423Z</time></trkpt><trkpt lat="45.1861183" lon="11.6300317"><ele>9.0</ele><time>2026-05-01T07:25:36.417Z</time></trkpt><trkpt lat="45.1862283" lon="11.6300517"><ele>9.0</ele><time>2026-05-01T07:25:38.418Z</time></trkpt><trkpt lat="45.1863467" lon="11.6300767"><ele>9.0</ele><time>2026-05-01T07:25:40.408Z</time></trkpt><trkpt lat="45.1864617" lon="11.6300983"><ele>8.75</ele><time>2026-05-01T07:25:42.383Z</time></trkpt><trkpt lat="45.1865817" lon="11.6301183"><ele>8.5</ele><time>2026-05-01T07:25:44.384Z</time></trkpt><trkpt lat="45.1867" lon="11.6301467"><ele>8.25</ele><time>2026-05-01T07:25:46.419Z</time></trkpt><trkpt lat="45.1868033" lon="11.6301683"><ele>8.0</ele><time>2026-05-01T07:25:48.422Z</time></trkpt><trkpt lat="45.18691" lon="11.6301717"><ele>8.0</ele><time>2026-05-01T07:25:50.384Z</time></trkpt><trkpt lat="45.1870267" lon="11.630165"><ele>8.0</ele><time>2026-05-01T07:25:52.384Z</time></trkpt><trkpt lat="45.18714" lon="11.6301617"><ele>8.0</ele><time>2026-05-01T07:25:54.385Z</time></trkpt><trkpt lat="45.1872567" lon="11.6301983"><ele>8.0</ele><time>2026-05-01T07:25:56.417Z</time></trkpt><trkpt lat="45.1873717" lon="11.6302533"><ele>8.0</ele><time>2026-05-01T07:25:58.384Z</time></trkpt><trkpt lat="45.1874833" lon="11.6303117"><ele>8.0</ele><time>2026-05-01T07:26:00.38Z</time></trkpt><trkpt lat="45.1875417" lon="11.63035"><ele>8.0</ele><time>2026-05-01T07:26:01.384Z</time></trkpt><trkpt lat="45.1876467" lon="11.6304283"><ele>8.0</ele><time>2026-05-01T07:26:03.382Z</time></trkpt><trkpt lat="45.1877467" lon="11.6305"><ele>8.0</ele><time>2026-05-01T07:26:05.427Z</time></trkpt><trkpt lat="45.18784" lon="11.6305567"><ele>8.0</ele><time>2026-05-01T07:26:07.487Z</time></trkpt><trkpt lat="45.1879367" lon="11.6306533"><ele>8.0</ele><time>2026-05-01T07:26:09.39Z</time></trkpt><trkpt lat="45.1880433" lon="11.6307533"><ele>8.0</ele><time>2026-05-01T07:26:11.384Z</time></trkpt><trkpt lat="45.1881017" lon="11.6308033"><ele>8.0</ele><time>2026-05-01T07:26:12.406Z</time></trkpt><trkpt lat="45.188155" lon="11.6308567"><ele>8.0</ele><time>2026-05-01T07:26:13.411Z</time></trkpt><trkpt lat="45.1882617" lon="11.63094"><ele>7.75</ele><time>2026-05-01T07:26:15.407Z</time></trkpt><trkpt lat="45.188365" lon="11.63102"><ele>7.5</ele><time>2026-05-01T07:26:17.528Z</time></trkpt><trkpt lat="45.1884667" lon="11.6311017"><ele>7.25</ele><time>2026-05-01T07:26:19.401Z</time></trkpt><trkpt lat="45.1885817" lon="11.63118"><ele>7.0</ele><time>2026-05-01T07:26:21.419Z</time></trkpt><trkpt lat="45.1886733" lon="11.6312617"><ele>6.8</ele><time>2026-05-01T07:26:23.385Z</time></trkpt><trkpt lat="45.1887633" lon="11.6313483"><ele>6.6</ele><time>2026-05-01T07:26:25.383Z</time></trkpt><trkpt lat="45.1888567" lon="11.6314267"><ele>6.3999999999999995</ele><time>2026-05-01T07:26:27.385Z</time></trkpt><trkpt lat="45.1889517" lon="11.6315033"><ele>6.199999999999999</ele><time>2026-05-01T07:26:29.382Z</time></trkpt><trkpt lat="45.189045" lon="11.6315833"><ele>6.0</ele><time>2026-05-01T07:26:31.382Z</time></trkpt><trkpt lat="45.1891383" lon="11.6316583"><ele>6.4</ele><time>2026-05-01T07:26:33.382Z</time></trkpt><trkpt lat="45.1892267" lon="11.63173"><ele>6.8</ele><time>2026-05-01T07:26:35.383Z</time></trkpt><trkpt lat="45.189315" lon="11.6318083"><ele>7.200000000000001</ele><time>2026-05-01T07:26:37.383Z</time></trkpt><trkpt lat="45.189405" lon="11.63189"><ele>7.6000000000000005</ele><time>2026-05-01T07:26:39.385Z</time></trkpt><trkpt lat="45.1894967" lon="11.63197"><ele>8.0</ele><time>2026-05-01T07:26:41.383Z</time></trkpt><trkpt lat="45.18959" lon="11.63205"><ele>8.0</ele><time>2026-05-01T07:26:43.379Z</time></trkpt><trkpt lat="45.1896833" lon="11.632125"><ele>8.0</ele><time>2026-05-01T07:26:45.387Z</time></trkpt><trkpt lat="45.1897783" lon="11.6322017"><ele>8.0</ele><time>2026-05-01T07:26:47.383Z</time></trkpt><trkpt lat="45.1898733" lon="11.6322783"><ele>8.0</ele><time>2026-05-01T07:26:49.385Z</time></trkpt><trkpt lat="45.1899683" lon="11.63235"><ele>8.0</ele><time>2026-05-01T07:26:51.385Z</time></trkpt><trkpt lat="45.190065" lon="11.6324267"><ele>8.200000000000001</ele><time>2026-05-01T07:26:53.408Z</time></trkpt><trkpt lat="45.19016" lon="11.6325067"><ele>8.4</ele><time>2026-05-01T07:26:55.412Z</time></trkpt><trkpt lat="45.1902533" lon="11.6325817"><ele>8.600000000000001</ele><time>2026-05-01T07:26:57.412Z</time></trkpt><trkpt lat="45.1903433" lon="11.63266"><ele>8.8</ele><time>2026-05-01T07:26:59.426Z</time></trkpt><trkpt lat="45.1904283" lon="11.6327333"><ele>9.0</ele><time>2026-05-01T07:27:01.393Z</time></trkpt><trkpt lat="45.1905167" lon="11.6328"><ele>8.4</ele><time>2026-05-01T07:27:03.419Z</time></trkpt><trkpt lat="45.190605" lon="11.632865"><ele>7.800000000000001</ele><time>2026-05-01T07:27:05.403Z</time></trkpt><trkpt lat="45.1906917" lon="11.6329367"><ele>7.199999999999999</ele><time>2026-05-01T07:27:07.424Z</time></trkpt><trkpt lat="45.19078" lon="11.6330067"><ele>6.6</ele><time>2026-05-01T07:27:09.415Z</time></trkpt><trkpt lat="45.19086" lon="11.63308"><ele>6.0</ele><time>2026-05-01T07:27:11.421Z</time></trkpt><trkpt lat="45.190945" lon="11.6331567"><ele>5.8</ele><time>2026-05-01T07:27:13.422Z</time></trkpt><trkpt lat="45.1910333" lon="11.633235"><ele>5.6</ele><time>2026-05-01T07:27:15.399Z</time></trkpt><trkpt lat="45.1911283" lon="11.6333117"><ele>5.4</ele><time>2026-05-01T07:27:17.384Z</time></trkpt><trkpt lat="45.1912233" lon="11.6333867"><ele>5.2</ele><time>2026-05-01T07:27:19.376Z</time></trkpt><trkpt lat="45.1913167" lon="11.6334667"><ele>5.0</ele><time>2026-05-01T07:27:21.384Z</time></trkpt><trkpt lat="45.1914117" lon="11.6335417"><ele>5.0</ele><time>2026-05-01T07:27:23.378Z</time></trkpt><trkpt lat="45.1915067" lon="11.6336167"><ele>5.0</ele><time>2026-05-01T07:27:25.377Z</time></trkpt><trkpt lat="45.1916033" lon="11.6336933"><ele>5.0</ele><time>2026-05-01T07:27:27.384Z</time></trkpt><trkpt lat="45.1916983" lon="11.63377"><ele>5.0</ele><time>2026-05-01T07:27:29.385Z</time></trkpt><trkpt lat="45.1917917" lon="11.6338483"><ele>5.0</ele><time>2026-05-01T07:27:31.385Z</time></trkpt><trkpt lat="45.191885" lon="11.6339233"><ele>5.2</ele><time>2026-05-01T07:27:33.388Z</time></trkpt><trkpt lat="45.1919783" lon="11.634005"><ele>5.4</ele><time>2026-05-01T07:27:35.392Z</time></trkpt><trkpt lat="45.1920683" lon="11.6340833"><ele>5.6</ele><time>2026-05-01T07:27:37.467Z</time></trkpt><trkpt lat="45.1921617" lon="11.6341317"><ele>5.8</ele><time>2026-05-01T07:27:39.439Z</time></trkpt><trkpt lat="45.19225" lon="11.6342217"><ele>6.0</ele><time>2026-05-01T07:27:41.381Z</time></trkpt><trkpt lat="45.1923483" lon="11.6343067"><ele>6.0</ele><time>2026-05-01T07:27:43.401Z</time></trkpt><trkpt lat="45.1924517" lon="11.6343917"><ele>6.0</ele><time>2026-05-01T07:27:45.405Z</time></trkpt><trkpt lat="45.1925633" lon="11.6344683"><ele>6.0</ele><time>2026-05-01T07:27:47.419Z</time></trkpt><trkpt lat="45.192665" lon="11.6345533"><ele>6.0</ele><time>2026-05-01T07:27:49.434Z</time></trkpt><trkpt lat="45.19276" lon="11.6346333"><ele>6.0</ele><time>2026-05-01T07:27:51.406Z</time></trkpt><trkpt lat="45.19286" lon="11.63473"><ele>6.0</ele><time>2026-05-01T07:27:53.38Z</time></trkpt><trkpt lat="45.19292" lon="11.6347783"><ele>6.0</ele><time>2026-05-01T07:27:54.397Z</time></trkpt><trkpt lat="45.1929767" lon="11.6348283"><ele>6.0</ele><time>2026-05-01T07:27:55.392Z</time></trkpt><trkpt lat="45.1930767" lon="11.6349067"><ele>6.0</ele><time>2026-05-01T07:27:57.39Z</time></trkpt><trkpt lat="45.1931783" lon="11.6349817"><ele>6.0</ele><time>2026-05-01T07:27:59.418Z</time></trkpt><trkpt lat="45.193275" lon="11.635065"><ele>6.0</ele><time>2026-05-01T07:28:01.419Z</time></trkpt><trkpt lat="45.1933767" lon="11.63515"><ele>6.0</ele><time>2026-05-01T07:28:03.421Z</time></trkpt><trkpt lat="45.1934817" lon="11.6352417"><ele>6.0</ele><time>2026-05-01T07:28:05.417Z</time></trkpt><trkpt lat="45.1935867" lon="11.63533"><ele>6.0</ele><time>2026-05-01T07:28:07.418Z</time></trkpt><trkpt lat="45.1936883" lon="11.635415"><ele>6.0</ele><time>2026-05-01T07:28:09.387Z</time></trkpt><trkpt lat="45.193795" lon="11.6355017"><ele>6.0</ele><time>2026-05-01T07:28:11.384Z</time></trkpt><trkpt lat="45.193905" lon="11.6355867"><ele>6.0</ele><time>2026-05-01T07:28:13.383Z</time></trkpt><trkpt lat="45.19396" lon="11.6356317"><ele>6.0</ele><time>2026-05-01T07:28:14.388Z</time></trkpt><trkpt lat="45.1940667" lon="11.635715"><ele>6.0</ele><time>2026-05-01T07:28:16.384Z</time></trkpt><trkpt lat="45.1941667" lon="11.6358033"><ele>6.0</ele><time>2026-05-01T07:28:18.381Z</time></trkpt><trkpt lat="45.1942667" lon="11.6358883"><ele>6.0</ele><time>2026-05-01T07:28:20.384Z</time></trkpt><trkpt lat="45.1943683" lon="11.63597"><ele>6.0</ele><time>2026-05-01T07:28:22.379Z</time></trkpt><trkpt lat="45.1944683" lon="11.63605"><ele>6.0</ele><time>2026-05-01T07:28:24.393Z</time></trkpt><trkpt lat="45.1945667" lon="11.6361267"><ele>6.0</ele><time>2026-05-01T07:28:26.38Z</time></trkpt><trkpt lat="45.194665" lon="11.636205"><ele>6.0</ele><time>2026-05-01T07:28:28.385Z</time></trkpt><trkpt lat="45.1947617" lon="11.6362883"><ele>6.0</ele><time>2026-05-01T07:28:30.381Z</time></trkpt><trkpt lat="45.1948517" lon="11.6363683"><ele>6.0</ele><time>2026-05-01T07:28:32.383Z</time></trkpt><trkpt lat="45.19495" lon="11.6364467"><ele>6.0</ele><time>2026-05-01T07:28:34.384Z</time></trkpt><trkpt lat="45.1950417" lon="11.63652"><ele>6.0</ele><time>2026-05-01T07:28:36.424Z</time></trkpt><trkpt lat="45.195135" lon="11.6365933"><ele>6.0</ele><time>2026-05-01T07:28:38.419Z</time></trkpt><trkpt lat="45.1952267" lon="11.6366667"><ele>6.0</ele><time>2026-05-01T07:28:40.419Z</time></trkpt><trkpt lat="45.195315" lon="11.63674"><ele>6.0</ele><time>2026-05-01T07:28:42.422Z</time></trkpt><trkpt lat="45.1954067" lon="11.6368167"><ele>6.0</ele><time>2026-05-01T07:28:44.419Z</time></trkpt><trkpt lat="45.1954983" lon="11.6368933"><ele>6.0</ele><time>2026-05-01T07:28:46.391Z</time></trkpt><trkpt lat="45.1955933" lon="11.6369717"><ele>6.0</ele><time>2026-05-01T07:28:48.397Z</time></trkpt><trkpt lat="45.195685" lon="11.6370517"><ele>6.0</ele><time>2026-05-01T07:28:50.378Z</time></trkpt><trkpt lat="45.1957783" lon="11.6371317"><ele>6.0</ele><time>2026-05-01T07:28:52.411Z</time></trkpt><trkpt lat="45.1958733" lon="11.6372017"><ele>6.0</ele><time>2026-05-01T07:28:54.379Z</time></trkpt><trkpt lat="45.1959683" lon="11.6372733"><ele>6.0</ele><time>2026-05-01T07:28:56.382Z</time></trkpt><trkpt lat="45.19606" lon="11.63735"><ele>6.0</ele><time>2026-05-01T07:28:58.412Z</time></trkpt><trkpt lat="45.196155" lon="11.637425"><ele>6.0</ele><time>2026-05-01T07:29:00.426Z</time></trkpt><trkpt lat="45.19625" lon="11.6375"><ele>6.0</ele><time>2026-05-01T07:29:02.41Z</time></trkpt><trkpt lat="45.196345" lon="11.6375817"><ele>6.0</ele><time>2026-05-01T07:29:04.422Z</time></trkpt><trkpt lat="45.19644" lon="11.6376667"><ele>6.0</ele><time>2026-05-01T07:29:06.407Z</time></trkpt><trkpt lat="45.1965367" lon="11.637745"><ele>6.0</ele><time>2026-05-01T07:29:08.409Z</time></trkpt><trkpt lat="45.196635" lon="11.6378317"><ele>6.0</ele><time>2026-05-01T07:29:10.42Z</time></trkpt><trkpt lat="45.1967367" lon="11.6379167"><ele>6.25</ele><time>2026-05-01T07:29:12.408Z</time></trkpt><trkpt lat="45.1968367" lon="11.6379967"><ele>6.5</ele><time>2026-05-01T07:29:14.413Z</time></trkpt><trkpt lat="45.1969367" lon="11.6380817"><ele>6.75</ele><time>2026-05-01T07:29:16.417Z</time></trkpt><trkpt lat="45.1970417" lon="11.6381633"><ele>7.0</ele><time>2026-05-01T07:29:18.421Z</time></trkpt><trkpt lat="45.197145" lon="11.6382483"><ele>7.0</ele><time>2026-05-01T07:29:20.419Z</time></trkpt><trkpt lat="45.197245" lon="11.6383283"><ele>7.0</ele><time>2026-05-01T07:29:22.415Z</time></trkpt><trkpt lat="45.1973483" lon="11.6384117"><ele>7.0</ele><time>2026-05-01T07:29:24.41Z</time></trkpt><trkpt lat="45.1974533" lon="11.63849"><ele>7.0</ele><time>2026-05-01T07:29:26.413Z</time></trkpt><trkpt lat="45.1975633" lon="11.63856"><ele>7.0</ele><time>2026-05-01T07:29:28.421Z</time></trkpt><trkpt lat="45.1976733" lon="11.6386333"><ele>7.0</ele><time>2026-05-01T07:29:30.414Z</time></trkpt><trkpt lat="45.1977833" lon="11.63871"><ele>7.0</ele><time>2026-05-01T07:29:32.386Z</time></trkpt><trkpt lat="45.1978833" lon="11.6387917"><ele>7.0</ele><time>2026-05-01T07:29:34.395Z</time></trkpt><trkpt lat="45.197985" lon="11.6388733"><ele>7.0</ele><time>2026-05-01T07:29:36.399Z</time></trkpt><trkpt lat="45.19809" lon="11.63897"><ele>6.999999999999999</ele><time>2026-05-01T07:29:38.385Z</time></trkpt><trkpt lat="45.19819" lon="11.6390583"><ele>6.999999999999999</ele><time>2026-05-01T07:29:40.398Z</time></trkpt><trkpt lat="45.1982917" lon="11.6391417"><ele>7.0</ele><time>2026-05-01T07:29:42.389Z</time></trkpt><trkpt lat="45.198345" lon="11.63919"><ele>7.0</ele><time>2026-05-01T07:29:43.387Z</time></trkpt><trkpt lat="45.1984033" lon="11.6392267"><ele>6.75</ele><time>2026-05-01T07:29:44.391Z</time></trkpt><trkpt lat="45.1985033" lon="11.6393017"><ele>6.5</ele><time>2026-05-01T07:29:46.4Z</time></trkpt><trkpt lat="45.1986" lon="11.6393733"><ele>6.25</ele><time>2026-05-01T07:29:48.381Z</time></trkpt><trkpt lat="45.1987033" lon="11.6394583"><ele>6.0</ele><time>2026-05-01T07:29:50.384Z</time></trkpt><trkpt lat="45.1988017" lon="11.639545"><ele>6.0</ele><time>2026-05-01T07:29:52.407Z</time></trkpt><trkpt lat="45.1988983" lon="11.6396283"><ele>6.0</ele><time>2026-05-01T07:29:54.385Z</time></trkpt><trkpt lat="45.198995" lon="11.6397167"><ele>6.0</ele><time>2026-05-01T07:29:56.382Z</time></trkpt><trkpt lat="45.1990867" lon="11.6397967"><ele>6.0</ele><time>2026-05-01T07:29:58.382Z</time></trkpt><trkpt lat="45.1991783" lon="11.6398783"><ele>6.0</ele><time>2026-05-01T07:30:00.405Z</time></trkpt><trkpt lat="45.1992717" lon="11.6399617"><ele>6.0</ele><time>2026-05-01T07:30:02.382Z</time></trkpt><trkpt lat="45.199365" lon="11.6400433"><ele>6.0</ele><time>2026-05-01T07:30:04.383Z</time></trkpt><trkpt lat="45.1994583" lon="11.640105"><ele>6.0</ele><time>2026-05-01T07:30:06.433Z</time></trkpt><trkpt lat="45.1995533" lon="11.640175"><ele>6.0</ele><time>2026-05-01T07:30:08.385Z</time></trkpt><trkpt lat="45.1996467" lon="11.6402633"><ele>6.0</ele><time>2026-05-01T07:30:10.377Z</time></trkpt><trkpt lat="45.1997483" lon="11.6403483"><ele>6.4</ele><time>2026-05-01T07:30:12.393Z</time></trkpt><trkpt lat="45.1998433" lon="11.6404367"><ele>6.8</ele><time>2026-05-01T07:30:14.379Z</time></trkpt><trkpt lat="45.1999367" lon="11.640515"><ele>7.200000000000001</ele><time>2026-05-01T07:30:16.393Z</time></trkpt><trkpt lat="45.2000317" lon="11.6405833"><ele>7.6000000000000005</ele><time>2026-05-01T07:30:18.388Z</time></trkpt><trkpt lat="45.2001317" lon="11.640655"><ele>8.0</ele><time>2026-05-01T07:30:20.391Z</time></trkpt><trkpt lat="45.2002317" lon="11.6407217"><ele>8.0</ele><time>2026-05-01T07:30:22.383Z</time></trkpt><trkpt lat="45.2003333" lon="11.64079"><ele>8.0</ele><time>2026-05-01T07:30:24.378Z</time></trkpt><trkpt lat="45.200435" lon="11.640855"><ele>8.0</ele><time>2026-05-01T07:30:26.38Z</time></trkpt><trkpt lat="45.200535" lon="11.64092"><ele>8.0</ele><time>2026-05-01T07:30:28.375Z</time></trkpt><trkpt lat="45.2006367" lon="11.6409883"><ele>8.0</ele><time>2026-05-01T07:30:30.382Z</time></trkpt><trkpt lat="45.2007367" lon="11.6410567"><ele>7.75</ele><time>2026-05-01T07:30:32.38Z</time></trkpt><trkpt lat="45.2008367" lon="11.6411233"><ele>7.5</ele><time>2026-05-01T07:30:34.401Z</time></trkpt><trkpt lat="45.2009433" lon="11.6411983"><ele>7.25</ele><time>2026-05-01T07:30:36.422Z</time></trkpt><trkpt lat="45.20105" lon="11.6412617"><ele>7.0</ele><time>2026-05-01T07:30:38.402Z</time></trkpt><trkpt lat="45.2011583" lon="11.6413267"><ele>7.0</ele><time>2026-05-01T07:30:40.414Z</time></trkpt><trkpt lat="45.20126" lon="11.6413867"><ele>6.999999999999999</ele><time>2026-05-01T07:30:42.416Z</time></trkpt><trkpt lat="45.2013633" lon="11.6414533"><ele>6.999999999999999</ele><time>2026-05-01T07:30:44.417Z</time></trkpt><trkpt lat="45.2014667" lon="11.6415233"><ele>7.0</ele><time>2026-05-01T07:30:46.419Z</time></trkpt><trkpt lat="45.2015633" lon="11.6415833"><ele>7.0</ele><time>2026-05-01T07:30:48.418Z</time></trkpt><trkpt lat="45.2016533" lon="11.6416383"><ele>7.0</ele><time>2026-05-01T07:30:50.422Z</time></trkpt><trkpt lat="45.20173" lon="11.6417217"><ele>6.999999999999999</ele><time>2026-05-01T07:30:52.421Z</time></trkpt><trkpt lat="45.201775" lon="11.64186"><ele>6.999999999999999</ele><time>2026-05-01T07:30:54.41Z</time></trkpt><trkpt lat="45.2018" lon="11.64202"><ele>7.0</ele><time>2026-05-01T07:30:56.419Z</time></trkpt><trkpt lat="45.20183" lon="11.6421767"><ele>7.0</ele><time>2026-05-01T07:30:58.42Z</time></trkpt><trkpt lat="45.2018567" lon="11.6423267"><ele>7.0</ele><time>2026-05-01T07:31:00.39Z</time></trkpt><trkpt lat="45.201885" lon="11.6424733"><ele>6.999999999999999</ele><time>2026-05-01T07:31:02.411Z</time></trkpt><trkpt lat="45.201925" lon="11.642615"><ele>6.999999999999999</ele><time>2026-05-01T07:31:04.418Z</time></trkpt><trkpt lat="45.2019667" lon="11.64276"><ele>7.0</ele><time>2026-05-01T07:31:06.388Z</time></trkpt><trkpt lat="45.2020133" lon="11.6429067"><ele>7.0</ele><time>2026-05-01T07:31:08.418Z</time></trkpt><trkpt lat="45.2020733" lon="11.6430483"><ele>7.0</ele><time>2026-05-01T07:31:10.417Z</time></trkpt><trkpt lat="45.2021383" lon="11.643185"><ele>7.0</ele><time>2026-05-01T07:31:12.382Z</time></trkpt><trkpt lat="45.2022017" lon="11.6433217"><ele>7.0</ele><time>2026-05-01T07:31:14.381Z</time></trkpt><trkpt lat="45.202265" lon="11.6434583"><ele>7.0</ele><time>2026-05-01T07:31:16.387Z</time></trkpt><trkpt lat="45.20232" lon="11.6436017"><ele>6.75</ele><time>2026-05-01T07:31:18.387Z</time></trkpt><trkpt lat="45.2023633" lon="11.643755"><ele>6.5</ele><time>2026-05-01T07:31:20.422Z</time></trkpt><trkpt lat="45.202395" lon="11.6439117"><ele>6.25</ele><time>2026-05-01T07:31:22.414Z</time></trkpt><trkpt lat="45.2024217" lon="11.6440683"><ele>6.0</ele><time>2026-05-01T07:31:24.433Z</time></trkpt><trkpt lat="45.202445" lon="11.6442167"><ele>6.0</ele><time>2026-05-01T07:31:26.431Z</time></trkpt><trkpt lat="45.2024483" lon="11.6443833"><ele>6.0</ele><time>2026-05-01T07:31:28.38Z</time></trkpt><trkpt lat="45.20246" lon="11.6445467"><ele>6.0</ele><time>2026-05-01T07:31:30.407Z</time></trkpt><trkpt lat="45.2024683" lon="11.6446983"><ele>6.0</ele><time>2026-05-01T07:31:32.389Z</time></trkpt><trkpt lat="45.20249" lon="11.6448717"><ele>6.25</ele><time>2026-05-01T07:31:34.404Z</time></trkpt><trkpt lat="45.2025017" lon="11.64504"><ele>6.5</ele><time>2026-05-01T07:31:36.411Z</time></trkpt><trkpt lat="45.2025133" lon="11.6452017"><ele>6.75</ele><time>2026-05-01T07:31:38.393Z</time></trkpt><trkpt lat="45.2025233" lon="11.6453533"><ele>7.0</ele><time>2026-05-01T07:31:40.386Z</time></trkpt><trkpt lat="45.2025317" lon="11.6455133"><ele>7.0</ele><time>2026-05-01T07:31:42.388Z</time></trkpt><trkpt lat="45.20254" lon="11.645655"><ele>7.0</ele><time>2026-05-01T07:31:44.422Z</time></trkpt><trkpt lat="45.20254" lon="11.645825"><ele>7.0</ele><time>2026-05-01T07:31:46.42Z</time></trkpt><trkpt lat="45.2025383" lon="11.6459917"><ele>7.0</ele><time>2026-05-01T07:31:48.415Z</time></trkpt><trkpt lat="45.202545" lon="11.6461567"><ele>7.5</ele><time>2026-05-01T07:31:50.421Z</time></trkpt><trkpt lat="45.2025633" lon="11.6463117"><ele>8.0</ele><time>2026-05-01T07:31:52.408Z</time></trkpt><trkpt lat="45.2025967" lon="11.646465"><ele>8.5</ele><time>2026-05-01T07:31:54.417Z</time></trkpt><trkpt lat="45.2026433" lon="11.646615"><ele>9.0</ele><time>2026-05-01T07:31:56.421Z</time></trkpt><trkpt lat="45.2027017" lon="11.6467583"><ele>9.0</ele><time>2026-05-01T07:31:58.42Z</time></trkpt><trkpt lat="45.2027483" lon="11.6468967"><ele>9.0</ele><time>2026-05-01T07:32:00.409Z</time></trkpt><trkpt lat="45.202795" lon="11.64703"><ele>9.0</ele><time>2026-05-01T07:32:02.419Z</time></trkpt><trkpt lat="45.20284" lon="11.6471583"><ele>9.0</ele><time>2026-05-01T07:32:04.393Z</time></trkpt><trkpt lat="45.202885" lon="11.6472917"><ele>9.0</ele><time>2026-05-01T07:32:06.421Z</time></trkpt><trkpt lat="45.202935" lon="11.6474217"><ele>9.0</ele><time>2026-05-01T07:32:08.413Z</time></trkpt><trkpt lat="45.2029883" lon="11.647555"><ele>9.0</ele><time>2026-05-01T07:32:10.414Z</time></trkpt><trkpt lat="45.2030483" lon="11.6476733"><ele>9.0</ele><time>2026-05-01T07:32:12.389Z</time></trkpt><trkpt lat="45.2031183" lon="11.6477883"><ele>9.0</ele><time>2026-05-01T07:32:14.416Z</time></trkpt><trkpt lat="45.2032033" lon="11.6479067"><ele>9.0</ele><time>2026-05-01T07:32:16.415Z</time></trkpt><trkpt lat="45.203255" lon="11.6479633"><ele>9.000000000000002</ele><time>2026-05-01T07:32:17.42Z</time></trkpt><trkpt lat="45.2033167" lon="11.64801"><ele>9.0</ele><time>2026-05-01T07:32:18.42Z</time></trkpt><trkpt lat="45.2033833" lon="11.6480483"><ele>9.0</ele><time>2026-05-01T07:32:19.422Z</time></trkpt><trkpt lat="45.203455" lon="11.6480817"><ele>9.0</ele><time>2026-05-01T07:32:20.42Z</time></trkpt><trkpt lat="45.2035267" lon="11.6481083"><ele>9.0</ele><time>2026-05-01T07:32:21.42Z</time></trkpt><trkpt lat="45.2036" lon="11.6481267"><ele>9.000000000000002</ele><time>2026-05-01T07:32:22.42Z</time></trkpt><trkpt lat="45.20367" lon="11.64814"><ele>9.0</ele><time>2026-05-01T07:32:23.42Z</time></trkpt><trkpt lat="45.203735" lon="11.6481483"><ele>9.0</ele><time>2026-05-01T07:32:24.386Z</time></trkpt><trkpt lat="45.2038017" lon="11.6481583"><ele>9.0</ele><time>2026-05-01T07:32:25.38Z</time></trkpt><trkpt lat="45.2038667" lon="11.648165"><ele>9.0</ele><time>2026-05-01T07:32:26.393Z</time></trkpt><trkpt lat="45.2039833" lon="11.648195"><ele>9.0</ele><time>2026-05-01T07:32:28.384Z</time></trkpt><trkpt lat="45.2040833" lon="11.6482333"><ele>9.0</ele><time>2026-05-01T07:32:30.452Z</time></trkpt><trkpt lat="45.2041683" lon="11.6482567"><ele>9.0</ele><time>2026-05-01T07:32:32.478Z</time></trkpt><trkpt lat="45.2042517" lon="11.648335"><ele>9.0</ele><time>2026-05-01T07:32:34.38Z</time></trkpt><trkpt lat="45.2043283" lon="11.64838"><ele>9.0</ele><time>2026-05-01T07:32:36.386Z</time></trkpt><trkpt lat="45.204415" lon="11.6484217"><ele>9.0</ele><time>2026-05-01T07:32:38.4Z</time></trkpt><trkpt lat="45.2045067" lon="11.648445"><ele>9.0</ele><time>2026-05-01T07:32:40.41Z</time></trkpt><trkpt lat="45.2046017" lon="11.6484417"><ele>9.0</ele><time>2026-05-01T07:32:42.396Z</time></trkpt><trkpt lat="45.2047" lon="11.64843"><ele>9.0</ele><time>2026-05-01T07:32:44.383Z</time></trkpt><trkpt lat="45.2048017" lon="11.6484167"><ele>9.0</ele><time>2026-05-01T07:32:46.513Z</time></trkpt><trkpt lat="45.2049033" lon="11.648395"><ele>9.0</ele><time>2026-05-01T07:32:48.432Z</time></trkpt><trkpt lat="45.2050217" lon="11.648395"><ele>9.0</ele><time>2026-05-01T07:32:50.385Z</time></trkpt><trkpt lat="45.205125" lon="11.64838"><ele>9.0</ele><time>2026-05-01T07:32:52.4Z</time></trkpt><trkpt lat="45.205225" lon="11.6483783"><ele>9.0</ele><time>2026-05-01T07:32:54.417Z</time></trkpt><trkpt lat="45.2053367" lon="11.6483683"><ele>9.0</ele><time>2026-05-01T07:32:56.417Z</time></trkpt><trkpt lat="45.2054467" lon="11.64836"><ele>9.0</ele><time>2026-05-01T07:32:58.421Z</time></trkpt><trkpt lat="45.2055517" lon="11.64835"><ele>9.0</ele><time>2026-05-01T07:33:00.421Z</time></trkpt><trkpt lat="45.205655" lon="11.6483383"><ele>9.0</ele><time>2026-05-01T07:33:02.421Z</time></trkpt><trkpt lat="45.2057517" lon="11.648335"><ele>9.0</ele><time>2026-05-01T07:33:04.41Z</time></trkpt><trkpt lat="45.2058517" lon="11.6483333"><ele>9.0</ele><time>2026-05-01T07:33:06.415Z</time></trkpt><trkpt lat="45.205955" lon="11.6483367"><ele>9.0</ele><time>2026-05-01T07:33:08.399Z</time></trkpt><trkpt lat="45.2060567" lon="11.6483317"><ele>9.0</ele><time>2026-05-01T07:33:10.449Z</time></trkpt><trkpt lat="45.2061667" lon="11.648305"><ele>9.0</ele><time>2026-05-01T07:33:12.489Z</time></trkpt><trkpt lat="45.2063217" lon="11.6482833"><ele>9.0</ele><time>2026-05-01T07:33:15.396Z</time></trkpt><trkpt lat="45.2064267" lon="11.6482683"><ele>9.0</ele><time>2026-05-01T07:33:17.39Z</time></trkpt><trkpt lat="45.20653" lon="11.6482483"><ele>9.0</ele><time>2026-05-01T07:33:19.383Z</time></trkpt><trkpt lat="45.20663" lon="11.6482217"><ele>9.0</ele><time>2026-05-01T07:33:21.385Z</time></trkpt><trkpt lat="45.2067367" lon="11.648195"><ele>9.0</ele><time>2026-05-01T07:33:23.407Z</time></trkpt><trkpt lat="45.2068417" lon="11.6481683"><ele>9.0</ele><time>2026-05-01T07:33:25.41Z</time></trkpt><trkpt lat="45.206945" lon="11.6481367"><ele>9.0</ele><time>2026-05-01T07:33:27.413Z</time></trkpt><trkpt lat="45.2070517" lon="11.6481"><ele>9.0</ele><time>2026-05-01T07:33:29.408Z</time></trkpt><trkpt lat="45.2071583" lon="11.64806"><ele>9.0</ele><time>2026-05-01T07:33:31.385Z</time></trkpt><trkpt lat="45.2072667" lon="11.648015"><ele>9.0</ele><time>2026-05-01T07:33:33.385Z</time></trkpt><trkpt lat="45.2073733" lon="11.64797"><ele>9.0</ele><time>2026-05-01T07:33:35.393Z</time></trkpt><trkpt lat="45.207475" lon="11.6479217"><ele>9.0</ele><time>2026-05-01T07:33:37.388Z</time></trkpt><trkpt lat="45.2075767" lon="11.6478767"><ele>9.0</ele><time>2026-05-01T07:33:39.388Z</time></trkpt><trkpt lat="45.2076817" lon="11.6478233"><ele>9.0</ele><time>2026-05-01T07:33:41.405Z</time></trkpt><trkpt lat="45.2077867" lon="11.6477567"><ele>9.0</ele><time>2026-05-01T07:33:43.398Z</time></trkpt><trkpt lat="45.2078967" lon="11.6476933"><ele>9.0</ele><time>2026-05-01T07:33:45.428Z</time></trkpt><trkpt lat="45.2080017" lon="11.6476283"><ele>9.0</ele><time>2026-05-01T07:33:47.383Z</time></trkpt><trkpt lat="45.2081067" lon="11.6475567"><ele>9.0</ele><time>2026-05-01T07:33:49.379Z</time></trkpt><trkpt lat="45.2082133" lon="11.647485"><ele>9.0</ele><time>2026-05-01T07:33:51.382Z</time></trkpt><trkpt lat="45.2083083" lon="11.64741"><ele>8.75</ele><time>2026-05-01T07:33:53.406Z</time></trkpt><trkpt lat="45.2084017" lon="11.6473333"><ele>8.5</ele><time>2026-05-01T07:33:55.386Z</time></trkpt><trkpt lat="45.2085033" lon="11.6472567"><ele>8.25</ele><time>2026-05-01T07:33:57.386Z</time></trkpt><trkpt lat="45.208605" lon="11.6471783"><ele>8.0</ele><time>2026-05-01T07:33:59.405Z</time></trkpt><trkpt lat="45.20871" lon="11.6471"><ele>8.0</ele><time>2026-05-01T07:34:01.424Z</time></trkpt><trkpt lat="45.2088117" lon="11.6470167"><ele>8.0</ele><time>2026-05-01T07:34:03.403Z</time></trkpt><trkpt lat="45.2089117" lon="11.646935"><ele>8.0</ele><time>2026-05-01T07:34:05.388Z</time></trkpt><trkpt lat="45.2090133" lon="11.6468567"><ele>8.0</ele><time>2026-05-01T07:34:07.391Z</time></trkpt><trkpt lat="45.209115" lon="11.6467733"><ele>8.25</ele><time>2026-05-01T07:34:09.383Z</time></trkpt><trkpt lat="45.2092183" lon="11.64669"><ele>8.5</ele><time>2026-05-01T07:34:11.405Z</time></trkpt><trkpt lat="45.2093217" lon="11.64661"><ele>8.75</ele><time>2026-05-01T07:34:13.409Z</time></trkpt><trkpt lat="45.2094217" lon="11.6465283"><ele>9.0</ele><time>2026-05-01T07:34:15.383Z</time></trkpt><trkpt lat="45.2095183" lon="11.6464483"><ele>9.0</ele><time>2026-05-01T07:34:17.389Z</time></trkpt><trkpt lat="45.2096167" lon="11.6463633"><ele>9.0</ele><time>2026-05-01T07:34:19.381Z</time></trkpt><trkpt lat="45.209715" lon="11.646275"><ele>9.0</ele><time>2026-05-01T07:34:21.379Z</time></trkpt><trkpt lat="45.209815" lon="11.646185"><ele>9.0</ele><time>2026-05-01T07:34:23.395Z</time></trkpt><trkpt lat="45.209915" lon="11.6460917"><ele>9.0</ele><time>2026-05-01T07:34:25.384Z</time></trkpt><trkpt lat="45.210015" lon="11.6459967"><ele>9.0</ele><time>2026-05-01T07:34:27.406Z</time></trkpt><trkpt lat="45.2101117" lon="11.6459033"><ele>9.0</ele><time>2026-05-01T07:34:29.406Z</time></trkpt><trkpt lat="45.2102117" lon="11.6458133"><ele>9.0</ele><time>2026-05-01T07:34:31.406Z</time></trkpt><trkpt lat="45.2103117" lon="11.645725"><ele>9.0</ele><time>2026-05-01T07:34:33.41Z</time></trkpt><trkpt lat="45.2104117" lon="11.6456367"><ele>9.0</ele><time>2026-05-01T07:34:35.406Z</time></trkpt><trkpt lat="45.2105133" lon="11.6455433"><ele>9.0</ele><time>2026-05-01T07:34:37.432Z</time></trkpt><trkpt lat="45.2106117" lon="11.6454517"><ele>9.0</ele><time>2026-05-01T07:34:39.382Z</time></trkpt><trkpt lat="45.210705" lon="11.6453717"><ele>8.75</ele><time>2026-05-01T07:34:41.389Z</time></trkpt><trkpt lat="45.2107983" lon="11.6452833"><ele>8.5</ele><time>2026-05-01T07:34:43.404Z</time></trkpt><trkpt lat="45.2108983" lon="11.6451917"><ele>8.25</ele><time>2026-05-01T07:34:45.379Z</time></trkpt><trkpt lat="45.2109983" lon="11.6451"><ele>8.0</ele><time>2026-05-01T07:34:47.39Z</time></trkpt><trkpt lat="45.2111" lon="11.6450033"><ele>8.0</ele><time>2026-05-01T07:34:49.379Z</time></trkpt><trkpt lat="45.2112017" lon="11.6449083"><ele>8.0</ele><time>2026-05-01T07:34:51.402Z</time></trkpt><trkpt lat="45.211305" lon="11.6448133"><ele>8.0</ele><time>2026-05-01T07:34:53.383Z</time></trkpt><trkpt lat="45.2114083" lon="11.6447233"><ele>8.0</ele><time>2026-05-01T07:34:55.386Z</time></trkpt><trkpt lat="45.211505" lon="11.6446317"><ele>7.833333333333333</ele><time>2026-05-01T07:34:57.389Z</time></trkpt><trkpt lat="45.2116083" lon="11.6445217"><ele>7.666666666666666</ele><time>2026-05-01T07:34:59.39Z</time></trkpt><trkpt lat="45.2116683" lon="11.644475"><ele>7.5</ele><time>2026-05-01T07:35:00.392Z</time></trkpt><trkpt lat="45.211725" lon="11.6444283"><ele>7.333333333333334</ele><time>2026-05-01T07:35:01.383Z</time></trkpt><trkpt lat="45.21178" lon="11.6443783"><ele>7.166666666666667</ele><time>2026-05-01T07:35:02.384Z</time></trkpt><trkpt lat="45.2118367" lon="11.6443267"><ele>7.0</ele><time>2026-05-01T07:35:03.41Z</time></trkpt><trkpt lat="45.2118917" lon="11.644275"><ele>6.857142857142857</ele><time>2026-05-01T07:35:04.393Z</time></trkpt><trkpt lat="45.2119467" lon="11.6442233"><ele>6.714285714285714</ele><time>2026-05-01T07:35:05.391Z</time></trkpt><trkpt lat="45.2120017" lon="11.64417"><ele>6.571428571428571</ele><time>2026-05-01T07:35:06.397Z</time></trkpt><trkpt lat="45.2120567" lon="11.6441183"><ele>6.428571428571429</ele><time>2026-05-01T07:35:07.399Z</time></trkpt><trkpt lat="45.2121133" lon="11.6440667"><ele>6.285714285714286</ele><time>2026-05-01T07:35:08.409Z</time></trkpt><trkpt lat="45.2121667" lon="11.644015"><ele>6.142857142857142</ele><time>2026-05-01T07:35:09.412Z</time></trkpt><trkpt lat="45.21222" lon="11.6439633"><ele>6.0</ele><time>2026-05-01T07:35:10.41Z</time></trkpt><trkpt lat="45.2122767" lon="11.64391"><ele>6.142857142857142</ele><time>2026-05-01T07:35:11.396Z</time></trkpt><trkpt lat="45.2123317" lon="11.6438567"><ele>6.285714285714286</ele><time>2026-05-01T07:35:12.409Z</time></trkpt><trkpt lat="45.2123867" lon="11.6438033"><ele>6.428571428571429</ele><time>2026-05-01T07:35:13.391Z</time></trkpt><trkpt lat="45.2124417" lon="11.64375"><ele>6.571428571428571</ele><time>2026-05-01T07:35:14.41Z</time></trkpt><trkpt lat="45.2124983" lon="11.6436983"><ele>6.714285714285714</ele><time>2026-05-01T07:35:15.405Z</time></trkpt><trkpt lat="45.212555" lon="11.643645"><ele>6.857142857142857</ele><time>2026-05-01T07:35:16.39Z</time></trkpt><trkpt lat="45.2126117" lon="11.6435933"><ele>7.0</ele><time>2026-05-01T07:35:17.38Z</time></trkpt><trkpt lat="45.2126667" lon="11.6435383"><ele>7.285714285714286</ele><time>2026-05-01T07:35:18.388Z</time></trkpt><trkpt lat="45.2127233" lon="11.6434833"><ele>7.571428571428571</ele><time>2026-05-01T07:35:19.405Z</time></trkpt><trkpt lat="45.2127783" lon="11.6434317"><ele>7.857142857142858</ele><time>2026-05-01T07:35:20.391Z</time></trkpt><trkpt lat="45.212835" lon="11.6433783"><ele>8.142857142857142</ele><time>2026-05-01T07:35:21.391Z</time></trkpt><trkpt lat="45.21289" lon="11.6433267"><ele>8.428571428571429</ele><time>2026-05-01T07:35:22.383Z</time></trkpt><trkpt lat="45.212945" lon="11.6432717"><ele>8.714285714285715</ele><time>2026-05-01T07:35:23.387Z</time></trkpt><trkpt lat="45.2130017" lon="11.6432167"><ele>9.0</ele><time>2026-05-01T07:35:24.402Z</time></trkpt><trkpt lat="45.2130583" lon="11.643165"><ele>9.000000000000002</ele><time>2026-05-01T07:35:25.389Z</time></trkpt><trkpt lat="45.2131133" lon="11.6431117"><ele>9.0</ele><time>2026-05-01T07:35:26.384Z</time></trkpt><trkpt lat="45.21317" lon="11.64306"><ele>9.0</ele><time>2026-05-01T07:35:27.405Z</time></trkpt><trkpt lat="45.2132267" lon="11.6430083"><ele>9.0</ele><time>2026-05-01T07:35:28.407Z</time></trkpt><trkpt lat="45.213285" lon="11.6429567"><ele>9.0</ele><time>2026-05-01T07:35:29.414Z</time></trkpt><trkpt lat="45.2133417" lon="11.6429017"><ele>9.000000000000002</ele><time>2026-05-01T07:35:30.409Z</time></trkpt><trkpt lat="45.2133967" lon="11.6428483"><ele>9.0</ele><time>2026-05-01T07:35:31.408Z</time></trkpt><trkpt lat="45.213455" lon="11.6427917"><ele>9.000000000000002</ele><time>2026-05-01T07:35:32.404Z</time></trkpt><trkpt lat="45.2135133" lon="11.6427383"><ele>9.0</ele><time>2026-05-01T07:35:33.39Z</time></trkpt><trkpt lat="45.2135683" lon="11.6426833"><ele>9.0</ele><time>2026-05-01T07:35:34.41Z</time></trkpt><trkpt lat="45.2136217" lon="11.6426283"><ele>9.0</ele><time>2026-05-01T07:35:35.426Z</time></trkpt><trkpt lat="45.2136733" lon="11.6425767"><ele>9.0</ele><time>2026-05-01T07:35:36.398Z</time></trkpt><trkpt lat="45.2137283" lon="11.6425233"><ele>9.000000000000002</ele><time>2026-05-01T07:35:37.42Z</time></trkpt><trkpt lat="45.2137833" lon="11.6424717"><ele>9.0</ele><time>2026-05-01T07:35:38.396Z</time></trkpt><trkpt lat="45.2138383" lon="11.6424183"><ele>9.000000000000002</ele><time>2026-05-01T07:35:39.389Z</time></trkpt><trkpt lat="45.213895" lon="11.6423667"><ele>9.0</ele><time>2026-05-01T07:35:40.385Z</time></trkpt><trkpt lat="45.2139533" lon="11.6423133"><ele>9.0</ele><time>2026-05-01T07:35:41.388Z</time></trkpt><trkpt lat="45.21401" lon="11.6422617"><ele>9.0</ele><time>2026-05-01T07:35:42.388Z</time></trkpt><trkpt lat="45.21407" lon="11.64221"><ele>9.0</ele><time>2026-05-01T07:35:43.386Z</time></trkpt><trkpt lat="45.2141283" lon="11.6421583"><ele>9.000000000000002</ele><time>2026-05-01T07:35:44.384Z</time></trkpt><trkpt lat="45.214185" lon="11.642105"><ele>9.0</ele><time>2026-05-01T07:35:45.385Z</time></trkpt><trkpt lat="45.21424" lon="11.6420533"><ele>8.857142857142858</ele><time>2026-05-01T07:35:46.383Z</time></trkpt><trkpt lat="45.2142933" lon="11.6420017"><ele>8.714285714285715</ele><time>2026-05-01T07:35:47.389Z</time></trkpt><trkpt lat="45.2143483" lon="11.64195"><ele>8.571428571428571</ele><time>2026-05-01T07:35:48.382Z</time></trkpt><trkpt lat="45.2144033" lon="11.6419"><ele>8.428571428571429</ele><time>2026-05-01T07:35:49.382Z</time></trkpt><trkpt lat="45.2144567" lon="11.6418483"><ele>8.285714285714285</ele><time>2026-05-01T07:35:50.383Z</time></trkpt><trkpt lat="45.2145133" lon="11.6417967"><ele>8.142857142857142</ele><time>2026-05-01T07:35:51.383Z</time></trkpt><trkpt lat="45.2145683" lon="11.6417417"><ele>8.0</ele><time>2026-05-01T07:35:52.388Z</time></trkpt><trkpt lat="45.2146233" lon="11.641685"><ele>8.0</ele><time>2026-05-01T07:35:53.381Z</time></trkpt><trkpt lat="45.2146783" lon="11.6416283"><ele>7.999999999999999</ele><time>2026-05-01T07:35:54.383Z</time></trkpt><trkpt lat="45.214735" lon="11.641575"><ele>8.0</ele><time>2026-05-01T07:35:55.389Z</time></trkpt><trkpt lat="45.21479" lon="11.6415217"><ele>8.0</ele><time>2026-05-01T07:35:56.39Z</time></trkpt><trkpt lat="45.2148467" lon="11.64147"><ele>7.999999999999999</ele><time>2026-05-01T07:35:57.412Z</time></trkpt><trkpt lat="45.2149033" lon="11.6414183"><ele>8.0</ele><time>2026-05-01T07:35:58.389Z</time></trkpt><trkpt lat="45.2149617" lon="11.641365"><ele>8.0</ele><time>2026-05-01T07:35:59.391Z</time></trkpt><trkpt lat="45.2150183" lon="11.6413117"><ele>8.0</ele><time>2026-05-01T07:36:00.393Z</time></trkpt><trkpt lat="45.215075" lon="11.64126"><ele>7.999999999999999</ele><time>2026-05-01T07:36:01.384Z</time></trkpt><trkpt lat="45.2151317" lon="11.6412067"><ele>8.0</ele><time>2026-05-01T07:36:02.409Z</time></trkpt><trkpt lat="45.2151883" lon="11.6411517"><ele>8.0</ele><time>2026-05-01T07:36:03.424Z</time></trkpt><trkpt lat="45.215245" lon="11.6410983"><ele>7.999999999999999</ele><time>2026-05-01T07:36:04.421Z</time></trkpt><trkpt lat="45.2153017" lon="11.6410433"><ele>8.0</ele><time>2026-05-01T07:36:05.424Z</time></trkpt><trkpt lat="45.2153583" lon="11.6409883"><ele>8.0</ele><time>2026-05-01T07:36:06.419Z</time></trkpt><trkpt lat="45.2154167" lon="11.6409317"><ele>8.0</ele><time>2026-05-01T07:36:07.421Z</time></trkpt><trkpt lat="45.2154733" lon="11.64088"><ele>7.999999999999999</ele><time>2026-05-01T07:36:08.411Z</time></trkpt><trkpt lat="45.21553" lon="11.6408283"><ele>8.0</ele><time>2026-05-01T07:36:09.412Z</time></trkpt><trkpt lat="45.215585" lon="11.64078"><ele>8.0</ele><time>2026-05-01T07:36:10.416Z</time></trkpt><trkpt lat="45.2156383" lon="11.6407283"><ele>7.999999999999999</ele><time>2026-05-01T07:36:11.42Z</time></trkpt><trkpt lat="45.2156933" lon="11.6406767"><ele>8.0</ele><time>2026-05-01T07:36:12.432Z</time></trkpt><trkpt lat="45.21575" lon="11.6406267"><ele>8.0</ele><time>2026-05-01T07:36:13.413Z</time></trkpt><trkpt lat="45.2158067" lon="11.640575"><ele>8.0</ele><time>2026-05-01T07:36:14.42Z</time></trkpt><trkpt lat="45.2158667" lon="11.6405217"><ele>7.999999999999999</ele><time>2026-05-01T07:36:15.407Z</time></trkpt><trkpt lat="45.21592" lon="11.64047"><ele>8.0</ele><time>2026-05-01T07:36:16.415Z</time></trkpt><trkpt lat="45.2159733" lon="11.6404183"><ele>8.0</ele><time>2026-05-01T07:36:17.413Z</time></trkpt><trkpt lat="45.2160267" lon="11.6403667"><ele>7.999999999999999</ele><time>2026-05-01T07:36:18.408Z</time></trkpt><trkpt lat="45.2160817" lon="11.6403133"><ele>8.0</ele><time>2026-05-01T07:36:19.414Z</time></trkpt><trkpt lat="45.2161383" lon="11.6402617"><ele>8.0</ele><time>2026-05-01T07:36:20.424Z</time></trkpt><trkpt lat="45.216195" lon="11.64021"><ele>8.0</ele><time>2026-05-01T07:36:21.418Z</time></trkpt><trkpt lat="45.21625" lon="11.640155"><ele>7.999999999999999</ele><time>2026-05-01T07:36:22.42Z</time></trkpt><trkpt lat="45.2163083" lon="11.6401017"><ele>8.0</ele><time>2026-05-01T07:36:23.42Z</time></trkpt><trkpt lat="45.216365" lon="11.64005"><ele>8.0</ele><time>2026-05-01T07:36:24.4Z</time></trkpt><trkpt lat="45.2164217" lon="11.6399983"><ele>7.999999999999999</ele><time>2026-05-01T07:36:25.409Z</time></trkpt><trkpt lat="45.2164767" lon="11.6399483"><ele>8.0</ele><time>2026-05-01T07:36:26.416Z</time></trkpt><trkpt lat="45.2165317" lon="11.6398983"><ele>8.0</ele><time>2026-05-01T07:36:27.42Z</time></trkpt><trkpt lat="45.216585" lon="11.6398467"><ele>8.285714285714285</ele><time>2026-05-01T07:36:28.43Z</time></trkpt><trkpt lat="45.2166383" lon="11.6397933"><ele>8.571428571428571</ele><time>2026-05-01T07:36:29.399Z</time></trkpt><trkpt lat="45.2166917" lon="11.6397417"><ele>8.857142857142858</ele><time>2026-05-01T07:36:30.411Z</time></trkpt><trkpt lat="45.2167467" lon="11.6396917"><ele>9.142857142857142</ele><time>2026-05-01T07:36:31.394Z</time></trkpt><trkpt lat="45.2168017" lon="11.63964"><ele>9.428571428571429</ele><time>2026-05-01T07:36:32.407Z</time></trkpt><trkpt lat="45.2168533" lon="11.6395883"><ele>9.714285714285714</ele><time>2026-05-01T07:36:33.395Z</time></trkpt><trkpt lat="45.2169067" lon="11.6395383"><ele>10.0</ele><time>2026-05-01T07:36:34.394Z</time></trkpt><trkpt lat="45.2169617" lon="11.63949"><ele>9.857142857142858</ele><time>2026-05-01T07:36:35.386Z</time></trkpt><trkpt lat="45.217015" lon="11.6394417"><ele>9.714285714285715</ele><time>2026-05-01T07:36:36.384Z</time></trkpt><trkpt lat="45.2170683" lon="11.6393917"><ele>9.571428571428573</ele><time>2026-05-01T07:36:37.382Z</time></trkpt><trkpt lat="45.2171233" lon="11.63934"><ele>9.428571428571429</ele><time>2026-05-01T07:36:38.39Z</time></trkpt><trkpt lat="45.21718" lon="11.63929"><ele>9.285714285714286</ele><time>2026-05-01T07:36:39.388Z</time></trkpt><trkpt lat="45.2172333" lon="11.6392367"><ele>9.142857142857144</ele><time>2026-05-01T07:36:40.384Z</time></trkpt><trkpt lat="45.2172883" lon="11.6391833"><ele>9.0</ele><time>2026-05-01T07:36:41.385Z</time></trkpt><trkpt lat="45.2173433" lon="11.6391283"><ele>9.285714285714286</ele><time>2026-05-01T07:36:42.391Z</time></trkpt><trkpt lat="45.2173983" lon="11.639075"><ele>9.571428571428571</ele><time>2026-05-01T07:36:43.387Z</time></trkpt><trkpt lat="45.2174533" lon="11.6390217"><ele>9.857142857142858</ele><time>2026-05-01T07:36:44.384Z</time></trkpt><trkpt lat="45.21751" lon="11.63897"><ele>10.142857142857142</ele><time>2026-05-01T07:36:45.385Z</time></trkpt><trkpt lat="45.2175667" lon="11.63892"><ele>10.428571428571429</ele><time>2026-05-01T07:36:46.388Z</time></trkpt><trkpt lat="45.2176217" lon="11.6388683"><ele>10.714285714285715</ele><time>2026-05-01T07:36:47.38Z</time></trkpt><trkpt lat="45.2176783" lon="11.6388167"><ele>11.0</ele><time>2026-05-01T07:36:48.396Z</time></trkpt><trkpt lat="45.2177333" lon="11.638765"><ele>11.0</ele><time>2026-05-01T07:36:49.379Z</time></trkpt><trkpt lat="45.21779" lon="11.6387133"><ele>11.0</ele><time>2026-05-01T07:36:50.382Z</time></trkpt><trkpt lat="45.217845" lon="11.6386617"><ele>11.0</ele><time>2026-05-01T07:36:51.381Z</time></trkpt><trkpt lat="45.2179017" lon="11.6386083"><ele>11.0</ele><time>2026-05-01T07:36:52.381Z</time></trkpt><trkpt lat="45.21796" lon="11.638555"><ele>11.0</ele><time>2026-05-01T07:36:53.379Z</time></trkpt><trkpt lat="45.2180183" lon="11.6385017"><ele>11.0</ele><time>2026-05-01T07:36:54.42Z</time></trkpt><trkpt lat="45.2180767" lon="11.6384483"><ele>11.0</ele><time>2026-05-01T07:36:55.389Z</time></trkpt><trkpt lat="45.2181367" lon="11.6383933"><ele>10.714285714285715</ele><time>2026-05-01T07:36:56.381Z</time></trkpt><trkpt lat="45.218195" lon="11.6383417"><ele>10.428571428571429</ele><time>2026-05-01T07:36:57.383Z</time></trkpt><trkpt lat="45.2182533" lon="11.6382917"><ele>10.142857142857142</ele><time>2026-05-01T07:36:58.385Z</time></trkpt><trkpt lat="45.2183117" lon="11.638245"><ele>9.857142857142858</ele><time>2026-05-01T07:36:59.385Z</time></trkpt><trkpt lat="45.21837" lon="11.6381983"><ele>9.571428571428571</ele><time>2026-05-01T07:37:00.384Z</time></trkpt><trkpt lat="45.2184283" lon="11.6381483"><ele>9.285714285714286</ele><time>2026-05-01T07:37:01.384Z</time></trkpt><trkpt lat="45.218485" lon="11.6380967"><ele>9.0</ele><time>2026-05-01T07:37:02.387Z</time></trkpt><trkpt lat="45.2185417" lon="11.638045"><ele>9.000000000000002</ele><time>2026-05-01T07:37:03.397Z</time></trkpt><trkpt lat="45.2186" lon="11.637995"><ele>9.0</ele><time>2026-05-01T07:37:04.418Z</time></trkpt><trkpt lat="45.2186583" lon="11.637945"><ele>9.0</ele><time>2026-05-01T07:37:05.399Z</time></trkpt><trkpt lat="45.218715" lon="11.6378967"><ele>9.0</ele><time>2026-05-01T07:37:06.383Z</time></trkpt><trkpt lat="45.2187717" lon="11.6378483"><ele>9.0</ele><time>2026-05-01T07:37:07.384Z</time></trkpt><trkpt lat="45.21883" lon="11.6377967"><ele>9.000000000000002</ele><time>2026-05-01T07:37:08.386Z</time></trkpt><trkpt lat="45.218885" lon="11.6377483"><ele>9.0</ele><time>2026-05-01T07:37:09.384Z</time></trkpt><trkpt lat="45.2189433" lon="11.6376983"><ele>9.000000000000002</ele><time>2026-05-01T07:37:10.398Z</time></trkpt><trkpt lat="45.2190017" lon="11.6376483"><ele>9.0</ele><time>2026-05-01T07:37:11.39Z</time></trkpt><trkpt lat="45.21906" lon="11.6375983"><ele>9.0</ele><time>2026-05-01T07:37:12.382Z</time></trkpt><trkpt lat="45.21912" lon="11.6375483"><ele>9.0</ele><time>2026-05-01T07:37:13.383Z</time></trkpt><trkpt lat="45.21918" lon="11.6374983"><ele>9.0</ele><time>2026-05-01T07:37:14.382Z</time></trkpt><trkpt lat="45.2192383" lon="11.6374467"><ele>9.000000000000002</ele><time>2026-05-01T07:37:15.384Z</time></trkpt><trkpt lat="45.2192983" lon="11.637395"><ele>9.0</ele><time>2026-05-01T07:37:16.384Z</time></trkpt><trkpt lat="45.2193567" lon="11.6373433"><ele>9.000000000000002</ele><time>2026-05-01T07:37:17.433Z</time></trkpt><trkpt lat="45.2194117" lon="11.6372817"><ele>9.0</ele><time>2026-05-01T07:37:18.434Z</time></trkpt><trkpt lat="45.2194667" lon="11.6372267"><ele>9.0</ele><time>2026-05-01T07:37:19.418Z</time></trkpt><trkpt lat="45.2195283" lon="11.6371667"><ele>9.0</ele><time>2026-05-01T07:37:20.457Z</time></trkpt><trkpt lat="45.2195883" lon="11.63713"><ele>9.0</ele><time>2026-05-01T07:37:21.373Z</time></trkpt><trkpt lat="45.2196533" lon="11.6370767"><ele>9.000000000000002</ele><time>2026-05-01T07:37:22.396Z</time></trkpt><trkpt lat="45.2197133" lon="11.637025"><ele>9.0</ele><time>2026-05-01T07:37:23.403Z</time></trkpt><trkpt lat="45.21977" lon="11.6369767"><ele>9.142857142857144</ele><time>2026-05-01T07:37:24.389Z</time></trkpt><trkpt lat="45.2198283" lon="11.6369333"><ele>9.285714285714286</ele><time>2026-05-01T07:37:25.388Z</time></trkpt><trkpt lat="45.2198917" lon="11.6368817"><ele>9.428571428571429</ele><time>2026-05-01T07:37:26.386Z</time></trkpt><trkpt lat="45.2199483" lon="11.636835"><ele>9.571428571428573</ele><time>2026-05-01T07:37:27.404Z</time></trkpt><trkpt lat="45.2200017" lon="11.6367767"><ele>9.714285714285715</ele><time>2026-05-01T07:37:28.398Z</time></trkpt><trkpt lat="45.2200567" lon="11.6367183"><ele>9.857142857142858</ele><time>2026-05-01T07:37:29.398Z</time></trkpt><trkpt lat="45.220115" lon="11.6366617"><ele>10.0</ele><time>2026-05-01T07:37:30.388Z</time></trkpt><trkpt lat="45.2201733" lon="11.6366117"><ele>10.0</ele><time>2026-05-01T07:37:31.385Z</time></trkpt><trkpt lat="45.2202333" lon="11.6365583"><ele>10.0</ele><time>2026-05-01T07:37:32.392Z</time></trkpt><trkpt lat="45.22029" lon="11.6365083"><ele>10.0</ele><time>2026-05-01T07:37:33.407Z</time></trkpt><trkpt lat="45.2203483" lon="11.6364583"><ele>10.0</ele><time>2026-05-01T07:37:34.393Z</time></trkpt><trkpt lat="45.220405" lon="11.63641"><ele>10.0</ele><time>2026-05-01T07:37:35.387Z</time></trkpt><trkpt lat="45.2204633" lon="11.6363633"><ele>10.0</ele><time>2026-05-01T07:37:36.392Z</time></trkpt><trkpt lat="45.22052" lon="11.6363167"><ele>10.0</ele><time>2026-05-01T07:37:37.39Z</time></trkpt><trkpt lat="45.2205783" lon="11.6362667"><ele>10.0</ele><time>2026-05-01T07:37:38.391Z</time></trkpt><trkpt lat="45.220635" lon="11.6362167"><ele>10.0</ele><time>2026-05-01T07:37:39.387Z</time></trkpt><trkpt lat="45.2206917" lon="11.6361633"><ele>10.0</ele><time>2026-05-01T07:37:40.39Z</time></trkpt><trkpt lat="45.22075" lon="11.6361083"><ele>10.0</ele><time>2026-05-01T07:37:41.392Z</time></trkpt><trkpt lat="45.22081" lon="11.6360533"><ele>10.0</ele><time>2026-05-01T07:37:42.41Z</time></trkpt><trkpt lat="45.22087" lon="11.6359983"><ele>10.0</ele><time>2026-05-01T07:37:43.405Z</time></trkpt><trkpt lat="45.220925" lon="11.63594"><ele>10.0</ele><time>2026-05-01T07:37:44.387Z</time></trkpt><trkpt lat="45.2209833" lon="11.63588"><ele>10.0</ele><time>2026-05-01T07:37:45.388Z</time></trkpt><trkpt lat="45.2210417" lon="11.63582"><ele>10.0</ele><time>2026-05-01T07:37:46.411Z</time></trkpt><trkpt lat="45.2210967" lon="11.63576"><ele>10.0</ele><time>2026-05-01T07:37:47.396Z</time></trkpt><trkpt lat="45.22115" lon="11.6357017"><ele>10.0</ele><time>2026-05-01T07:37:48.389Z</time></trkpt><trkpt lat="45.221205" lon="11.63564"><ele>10.0</ele><time>2026-05-01T07:37:49.388Z</time></trkpt><trkpt lat="45.22126" lon="11.63558"><ele>10.0</ele><time>2026-05-01T07:37:50.402Z</time></trkpt><trkpt lat="45.2213133" lon="11.6355183"><ele>10.0</ele><time>2026-05-01T07:37:51.392Z</time></trkpt><trkpt lat="45.2213667" lon="11.6354617"><ele>10.0</ele><time>2026-05-01T07:37:52.42Z</time></trkpt><trkpt lat="45.22142" lon="11.6354033"><ele>10.0</ele><time>2026-05-01T07:37:53.401Z</time></trkpt><trkpt lat="45.22148" lon="11.6353433"><ele>10.0</ele><time>2026-05-01T07:37:54.395Z</time></trkpt><trkpt lat="45.22154" lon="11.6352833"><ele>10.0</ele><time>2026-05-01T07:37:55.393Z</time></trkpt><trkpt lat="45.2216" lon="11.6352217"><ele>10.0</ele><time>2026-05-01T07:37:56.405Z</time></trkpt><trkpt lat="45.221655" lon="11.6351583"><ele>10.0</ele><time>2026-05-01T07:37:57.393Z</time></trkpt><trkpt lat="45.22171" lon="11.635095"><ele>10.0</ele><time>2026-05-01T07:37:58.412Z</time></trkpt><trkpt lat="45.22177" lon="11.635035"><ele>10.0</ele><time>2026-05-01T07:37:59.423Z</time></trkpt><trkpt lat="45.22183" lon="11.6349783"><ele>10.0</ele><time>2026-05-01T07:38:00.393Z</time></trkpt><trkpt lat="45.22189" lon="11.634925"><ele>10.0</ele><time>2026-05-01T07:38:01.389Z</time></trkpt><trkpt lat="45.2219517" lon="11.6348717"><ele>10.0</ele><time>2026-05-01T07:38:02.384Z</time></trkpt><trkpt lat="45.22201" lon="11.6348233"><ele>10.0</ele><time>2026-05-01T07:38:03.389Z</time></trkpt><trkpt lat="45.22207" lon="11.6347767"><ele>10.0</ele><time>2026-05-01T07:38:04.391Z</time></trkpt><trkpt lat="45.22213" lon="11.6347283"><ele>10.0</ele><time>2026-05-01T07:38:05.386Z</time></trkpt><trkpt lat="45.22219" lon="11.6346767"><ele>10.0</ele><time>2026-05-01T07:38:06.398Z</time></trkpt><trkpt lat="45.22225" lon="11.6346283"><ele>10.0</ele><time>2026-05-01T07:38:07.401Z</time></trkpt><trkpt lat="45.2223133" lon="11.6345833"><ele>10.0</ele><time>2026-05-01T07:38:08.385Z</time></trkpt><trkpt lat="45.2223767" lon="11.6345433"><ele>10.0</ele><time>2026-05-01T07:38:09.386Z</time></trkpt><trkpt lat="45.2224383" lon="11.6345"><ele>10.0</ele><time>2026-05-01T07:38:10.385Z</time></trkpt><trkpt lat="45.2225" lon="11.6344533"><ele>10.0</ele><time>2026-05-01T07:38:11.387Z</time></trkpt><trkpt lat="45.2225617" lon="11.6344117"><ele>10.0</ele><time>2026-05-01T07:38:12.385Z</time></trkpt><trkpt lat="45.2226233" lon="11.6343667"><ele>9.833333333333334</ele><time>2026-05-01T07:38:13.384Z</time></trkpt><trkpt lat="45.2226833" lon="11.63432"><ele>9.666666666666668</ele><time>2026-05-01T07:38:14.404Z</time></trkpt><trkpt lat="45.222745" lon="11.634275"><ele>9.5</ele><time>2026-05-01T07:38:15.383Z</time></trkpt><trkpt lat="45.2228017" lon="11.6342333"><ele>9.333333333333334</ele><time>2026-05-01T07:38:16.389Z</time></trkpt><trkpt lat="45.2229117" lon="11.6341517"><ele>9.166666666666666</ele><time>2026-05-01T07:38:18.384Z</time></trkpt><trkpt lat="45.2230167" lon="11.6340867"><ele>9.0</ele><time>2026-05-01T07:38:20.387Z</time></trkpt><trkpt lat="45.22312" lon="11.63404"><ele>9.0</ele><time>2026-05-01T07:38:22.411Z</time></trkpt><trkpt lat="45.2232183" lon="11.6340033"><ele>9.0</ele><time>2026-05-01T07:38:24.397Z</time></trkpt><trkpt lat="45.2233183" lon="11.633975"><ele>9.0</ele><time>2026-05-01T07:38:26.39Z</time></trkpt><trkpt lat="45.22342" lon="11.6339483"><ele>9.0</ele><time>2026-05-01T07:38:28.383Z</time></trkpt><trkpt lat="45.22352" lon="11.6339267"><ele>9.0</ele><time>2026-05-01T07:38:30.401Z</time></trkpt><trkpt lat="45.2236183" lon="11.6338983"><ele>9.0</ele><time>2026-05-01T07:38:32.391Z</time></trkpt><trkpt lat="45.223725" lon="11.6338733"><ele>9.0</ele><time>2026-05-01T07:38:34.385Z</time></trkpt><trkpt lat="45.2238367" lon="11.6338433"><ele>9.0</ele><time>2026-05-01T07:38:36.39Z</time></trkpt><trkpt lat="45.2239417" lon="11.633815"><ele>9.0</ele><time>2026-05-01T07:38:38.41Z</time></trkpt><trkpt lat="45.2240417" lon="11.63378"><ele>9.0</ele><time>2026-05-01T07:38:40.411Z</time></trkpt><trkpt lat="45.22412" lon="11.6337533"><ele>9.0</ele><time>2026-05-01T07:38:42.412Z</time></trkpt><trkpt lat="45.2241833" lon="11.6337333"><ele>9.0</ele><time>2026-05-01T07:38:46.392Z</time></trkpt><trkpt lat="45.2241983" lon="11.633825"><ele>9.0</ele><time>2026-05-01T07:39:12.415Z</time></trkpt><trkpt lat="45.2242083" lon="11.6339417"><ele>9.0</ele><time>2026-05-01T07:39:15.424Z</time></trkpt><trkpt lat="45.2242233" lon="11.6341033"><ele>9.0</ele><time>2026-05-01T07:39:18.382Z</time></trkpt><trkpt lat="45.224235" lon="11.6342033"><ele>9.0</ele><time>2026-05-01T07:39:20.38Z</time></trkpt><trkpt lat="45.2242767" lon="11.6342767"><ele>9.0</ele><time>2026-05-01T07:39:22.424Z</time></trkpt><trkpt lat="45.224355" lon="11.634285"><ele>9.0</ele><time>2026-05-01T07:39:24.466Z</time></trkpt><trkpt lat="45.22443" lon="11.6342483"><ele>9.0</ele><time>2026-05-01T07:39:26.403Z</time></trkpt><trkpt lat="45.224515" lon="11.6342"><ele>9.0</ele><time>2026-05-01T07:39:28.415Z</time></trkpt><trkpt lat="45.2245967" lon="11.6341317"><ele>9.0</ele><time>2026-05-01T07:39:30.396Z</time></trkpt><trkpt lat="45.2246917" lon="11.63407"><ele>9.0</ele><time>2026-05-01T07:39:32.388Z</time></trkpt><trkpt lat="45.2247767" lon="11.634015"><ele>9.2</ele><time>2026-05-01T07:39:34.424Z</time></trkpt><trkpt lat="45.22487" lon="11.6339717"><ele>9.4</ele><time>2026-05-01T07:39:36.387Z</time></trkpt><trkpt lat="45.2249667" lon="11.633905"><ele>9.6</ele><time>2026-05-01T07:39:38.401Z</time></trkpt><trkpt lat="45.225075" lon="11.63384"><ele>9.8</ele><time>2026-05-01T07:39:40.407Z</time></trkpt><trkpt lat="45.2251717" lon="11.6337617"><ele>10.0</ele><time>2026-05-01T07:39:42.416Z</time></trkpt><trkpt lat="45.2252667" lon="11.6336883"><ele>10.2</ele><time>2026-05-01T07:39:44.39Z</time></trkpt><trkpt lat="45.225375" lon="11.633615"><ele>10.4</ele><time>2026-05-01T07:39:46.417Z</time></trkpt><trkpt lat="45.2254333" lon="11.6335733"><ele>10.600000000000001</ele><time>2026-05-01T07:39:47.423Z</time></trkpt><trkpt lat="45.2255333" lon="11.6335067"><ele>10.8</ele><time>2026-05-01T07:39:49.419Z</time></trkpt><trkpt lat="45.225635" lon="11.6334517"><ele>11.0</ele><time>2026-05-01T07:39:51.413Z</time></trkpt><trkpt lat="45.2257433" lon="11.6333983"><ele>11.0</ele><time>2026-05-01T07:39:53.422Z</time></trkpt><trkpt lat="45.225845" lon="11.633345"><ele>11.0</ele><time>2026-05-01T07:39:55.419Z</time></trkpt><trkpt lat="45.2259433" lon="11.6332967"><ele>11.0</ele><time>2026-05-01T07:39:57.417Z</time></trkpt><trkpt lat="45.226045" lon="11.6332483"><ele>11.0</ele><time>2026-05-01T07:39:59.42Z</time></trkpt><trkpt lat="45.22615" lon="11.6332067"><ele>11.0</ele><time>2026-05-01T07:40:01.415Z</time></trkpt><trkpt lat="45.2262583" lon="11.6331717"><ele>11.0</ele><time>2026-05-01T07:40:03.403Z</time></trkpt><trkpt lat="45.2263683" lon="11.6331433"><ele>11.0</ele><time>2026-05-01T07:40:05.395Z</time></trkpt><trkpt lat="45.2264817" lon="11.6331167"><ele>11.0</ele><time>2026-05-01T07:40:07.404Z</time></trkpt><trkpt lat="45.2265983" lon="11.6330983"><ele>11.0</ele><time>2026-05-01T07:40:09.428Z</time></trkpt><trkpt lat="45.22672" lon="11.633085"><ele>10.666666666666666</ele><time>2026-05-01T07:40:11.388Z</time></trkpt><trkpt lat="45.2267833" lon="11.6330833"><ele>10.333333333333332</ele><time>2026-05-01T07:40:12.414Z</time></trkpt><trkpt lat="45.2268483" lon="11.633085"><ele>10.0</ele><time>2026-05-01T07:40:13.451Z</time></trkpt><trkpt lat="45.2269117" lon="11.6330867"><ele>9.666666666666666</ele><time>2026-05-01T07:40:14.394Z</time></trkpt><trkpt lat="45.227035" lon="11.6330967"><ele>9.333333333333334</ele><time>2026-05-01T07:40:16.428Z</time></trkpt><trkpt lat="45.22716" lon="11.63311"><ele>9.0</ele><time>2026-05-01T07:40:18.379Z</time></trkpt><trkpt lat="45.2272233" lon="11.6331183"><ele>9.4</ele><time>2026-05-01T07:40:19.402Z</time></trkpt><trkpt lat="45.227345" lon="11.6331367"><ele>9.8</ele><time>2026-05-01T07:40:21.378Z</time></trkpt><trkpt lat="45.2274683" lon="11.63315"><ele>10.200000000000001</ele><time>2026-05-01T07:40:23.378Z</time></trkpt><trkpt lat="45.2275317" lon="11.6331617"><ele>10.600000000000001</ele><time>2026-05-01T07:40:24.379Z</time></trkpt><trkpt lat="45.2276533" lon="11.63319"><ele>11.0</ele><time>2026-05-01T07:40:26.379Z</time></trkpt><trkpt lat="45.227775" lon="11.633215"><ele>11.0</ele><time>2026-05-01T07:40:28.394Z</time></trkpt><trkpt lat="45.2279" lon="11.6332383"><ele>11.0</ele><time>2026-05-01T07:40:30.377Z</time></trkpt><trkpt lat="45.2280217" lon="11.6332617"><ele>11.0</ele><time>2026-05-01T07:40:32.377Z</time></trkpt><trkpt lat="45.2281433" lon="11.6332867"><ele>11.0</ele><time>2026-05-01T07:40:34.394Z</time></trkpt><trkpt lat="45.2282633" lon="11.63331"><ele>10.5</ele><time>2026-05-01T07:40:36.39Z</time></trkpt><trkpt lat="45.2283867" lon="11.6333317"><ele>10.0</ele><time>2026-05-01T07:40:38.412Z</time></trkpt><trkpt lat="45.2285067" lon="11.6333533"><ele>9.5</ele><time>2026-05-01T07:40:40.386Z</time></trkpt><trkpt lat="45.2286283" lon="11.633375"><ele>9.0</ele><time>2026-05-01T07:40:42.42Z</time></trkpt><trkpt lat="45.22875" lon="11.6333967"><ele>9.0</ele><time>2026-05-01T07:40:44.392Z</time></trkpt><trkpt lat="45.2288717" lon="11.6334233"><ele>9.0</ele><time>2026-05-01T07:40:46.417Z</time></trkpt><trkpt lat="45.22899" lon="11.6334417"><ele>9.0</ele><time>2026-05-01T07:40:48.392Z</time></trkpt><trkpt lat="45.22911" lon="11.6334633"><ele>9.0</ele><time>2026-05-01T07:40:50.415Z</time></trkpt><trkpt lat="45.2292283" lon="11.6334867"><ele>9.5</ele><time>2026-05-01T07:40:52.412Z</time></trkpt><trkpt lat="45.2293483" lon="11.6335117"><ele>10.0</ele><time>2026-05-01T07:40:54.404Z</time></trkpt><trkpt lat="45.2294633" lon="11.6335317"><ele>10.5</ele><time>2026-05-01T07:40:56.421Z</time></trkpt><trkpt lat="45.22958" lon="11.6335483"><ele>11.0</ele><time>2026-05-01T07:40:58.42Z</time></trkpt><trkpt lat="45.2296933" lon="11.6335733"><ele>10.75</ele><time>2026-05-01T07:41:00.421Z</time></trkpt><trkpt lat="45.22981" lon="11.6335983"><ele>10.5</ele><time>2026-05-01T07:41:02.415Z</time></trkpt><trkpt lat="45.2299283" lon="11.6336183"><ele>10.25</ele><time>2026-05-01T07:41:04.419Z</time></trkpt><trkpt lat="45.2300467" lon="11.63364"><ele>10.0</ele><time>2026-05-01T07:41:06.422Z</time></trkpt><trkpt lat="45.2301633" lon="11.633655"><ele>9.75</ele><time>2026-05-01T07:41:08.411Z</time></trkpt><trkpt lat="45.2302783" lon="11.6336767"><ele>9.5</ele><time>2026-05-01T07:41:10.4Z</time></trkpt><trkpt lat="45.2303933" lon="11.6336967"><ele>9.25</ele><time>2026-05-01T07:41:12.411Z</time></trkpt><trkpt lat="45.2305067" lon="11.6337217"><ele>9.0</ele><time>2026-05-01T07:41:14.422Z</time></trkpt><trkpt lat="45.2306217" lon="11.633745"><ele>9.25</ele><time>2026-05-01T07:41:16.423Z</time></trkpt><trkpt lat="45.230735" lon="11.6337683"><ele>9.5</ele><time>2026-05-01T07:41:18.401Z</time></trkpt><trkpt lat="45.23085" lon="11.63379"><ele>9.75</ele><time>2026-05-01T07:41:20.4Z</time></trkpt><trkpt lat="45.2309667" lon="11.6338117"><ele>10.0</ele><time>2026-05-01T07:41:22.416Z</time></trkpt><trkpt lat="45.2310817" lon="11.6338267"><ele>10.0</ele><time>2026-05-01T07:41:24.443Z</time></trkpt><trkpt lat="45.231195" lon="11.6338267"><ele>10.0</ele><time>2026-05-01T07:41:26.437Z</time></trkpt><trkpt lat="45.2313167" lon="11.6338533"><ele>10.0</ele><time>2026-05-01T07:41:28.416Z</time></trkpt><trkpt lat="45.2314317" lon="11.63387"><ele>10.0</ele><time>2026-05-01T07:41:30.392Z</time></trkpt><trkpt lat="45.2314983" lon="11.633885"><ele>10.0</ele><time>2026-05-01T07:41:31.386Z</time></trkpt><trkpt lat="45.231615" lon="11.63391"><ele>9.75</ele><time>2026-05-01T07:41:33.408Z</time></trkpt><trkpt lat="45.2317317" lon="11.6339217"><ele>9.5</ele><time>2026-05-01T07:41:35.403Z</time></trkpt><trkpt lat="45.2318417" lon="11.6339617"><ele>9.25</ele><time>2026-05-01T07:41:37.384Z</time></trkpt><trkpt lat="45.231955" lon="11.6339983"><ele>9.0</ele><time>2026-05-01T07:41:39.402Z</time></trkpt><trkpt lat="45.2320683" lon="11.6340283"><ele>9.0</ele><time>2026-05-01T07:41:41.386Z</time></trkpt><trkpt lat="45.2321817" lon="11.6340583"><ele>9.0</ele><time>2026-05-01T07:41:43.403Z</time></trkpt><trkpt lat="45.2322967" lon="11.6340917"><ele>9.0</ele><time>2026-05-01T07:41:45.404Z</time></trkpt><trkpt lat="45.2324133" lon="11.6341267"><ele>9.0</ele><time>2026-05-01T07:41:47.391Z</time></trkpt><trkpt lat="45.2325267" lon="11.6341617"><ele>9.5</ele><time>2026-05-01T07:41:49.381Z</time></trkpt><trkpt lat="45.2326367" lon="11.634195"><ele>10.0</ele><time>2026-05-01T07:41:51.383Z</time></trkpt><trkpt lat="45.2327483" lon="11.6342317"><ele>10.5</ele><time>2026-05-01T07:41:53.381Z</time></trkpt><trkpt lat="45.23286" lon="11.634275"><ele>11.0</ele><time>2026-05-01T07:41:55.393Z</time></trkpt><trkpt lat="45.2329733" lon="11.6343233"><ele>11.0</ele><time>2026-05-01T07:41:57.395Z</time></trkpt><trkpt lat="45.233085" lon="11.634375"><ele>11.0</ele><time>2026-05-01T07:41:59.388Z</time></trkpt><trkpt lat="45.2331983" lon="11.634425"><ele>11.0</ele><time>2026-05-01T07:42:01.382Z</time></trkpt><trkpt lat="45.2333067" lon="11.6344733"><ele>11.0</ele><time>2026-05-01T07:42:03.382Z</time></trkpt><trkpt lat="45.2334133" lon="11.6345317"><ele>11.0</ele><time>2026-05-01T07:42:05.382Z</time></trkpt><trkpt lat="45.2335217" lon="11.63459"><ele>11.0</ele><time>2026-05-01T07:42:07.407Z</time></trkpt><trkpt lat="45.2336283" lon="11.63465"><ele>11.0</ele><time>2026-05-01T07:42:09.386Z</time></trkpt><trkpt lat="45.2337333" lon="11.6347083"><ele>11.0</ele><time>2026-05-01T07:42:11.383Z</time></trkpt><trkpt lat="45.2338417" lon="11.6347633"><ele>11.0</ele><time>2026-05-01T07:42:13.386Z</time></trkpt><trkpt lat="45.23395" lon="11.6348217"><ele>11.0</ele><time>2026-05-01T07:42:15.384Z</time></trkpt><trkpt lat="45.23406" lon="11.6348783"><ele>11.0</ele><time>2026-05-01T07:42:17.387Z</time></trkpt><trkpt lat="45.23417" lon="11.6349333"><ele>11.0</ele><time>2026-05-01T07:42:19.416Z</time></trkpt><trkpt lat="45.2342833" lon="11.6349883"><ele>10.75</ele><time>2026-05-01T07:42:21.397Z</time></trkpt><trkpt lat="45.2343933" lon="11.6350467"><ele>10.5</ele><time>2026-05-01T07:42:23.405Z</time></trkpt><trkpt lat="45.2344983" lon="11.6351033"><ele>10.25</ele><time>2026-05-01T07:42:25.423Z</time></trkpt><trkpt lat="45.234615" lon="11.6351517"><ele>10.0</ele><time>2026-05-01T07:42:27.463Z</time></trkpt><trkpt lat="45.2347217" lon="11.6352117"><ele>10.0</ele><time>2026-05-01T07:42:29.393Z</time></trkpt><trkpt lat="45.2348383" lon="11.6352617"><ele>10.0</ele><time>2026-05-01T07:42:31.387Z</time></trkpt><trkpt lat="45.23495" lon="11.6353183"><ele>10.0</ele><time>2026-05-01T07:42:33.392Z</time></trkpt><trkpt lat="45.23506" lon="11.6353683"><ele>10.0</ele><time>2026-05-01T07:42:35.385Z</time></trkpt><trkpt lat="45.2351717" lon="11.6354183"><ele>10.0</ele><time>2026-05-01T07:42:37.384Z</time></trkpt><trkpt lat="45.2352783" lon="11.635455"><ele>10.0</ele><time>2026-05-01T07:42:39.385Z</time></trkpt><trkpt lat="45.2353867" lon="11.6354933"><ele>10.0</ele><time>2026-05-01T07:42:41.4Z</time></trkpt><trkpt lat="45.2355" lon="11.63553"><ele>10.0</ele><time>2026-05-01T07:42:43.406Z</time></trkpt><trkpt lat="45.2356083" lon="11.6355683"><ele>10.0</ele><time>2026-05-01T07:42:45.399Z</time></trkpt><trkpt lat="45.2357167" lon="11.63561"><ele>10.0</ele><time>2026-05-01T07:42:47.383Z</time></trkpt><trkpt lat="45.2358283" lon="11.63565"><ele>10.0</ele><time>2026-05-01T07:42:49.416Z</time></trkpt><trkpt lat="45.23594" lon="11.6356917"><ele>10.0</ele><time>2026-05-01T07:42:51.387Z</time></trkpt><trkpt lat="45.23605" lon="11.6357333"><ele>10.0</ele><time>2026-05-01T07:42:53.384Z</time></trkpt><trkpt lat="45.23616" lon="11.6357783"><ele>10.0</ele><time>2026-05-01T07:42:55.411Z</time></trkpt><trkpt lat="45.2362683" lon="11.635825"><ele>10.0</ele><time>2026-05-01T07:42:57.383Z</time></trkpt><trkpt lat="45.236375" lon="11.63587"><ele>10.0</ele><time>2026-05-01T07:42:59.384Z</time></trkpt><trkpt lat="45.236485" lon="11.6359167"><ele>10.0</ele><time>2026-05-01T07:43:01.416Z</time></trkpt><trkpt lat="45.2365983" lon="11.6359683"><ele>10.0</ele><time>2026-05-01T07:43:03.391Z</time></trkpt><trkpt lat="45.2367133" lon="11.6360183"><ele>10.0</ele><time>2026-05-01T07:43:05.386Z</time></trkpt><trkpt lat="45.2368283" lon="11.636065"><ele>10.0</ele><time>2026-05-01T07:43:07.385Z</time></trkpt><trkpt lat="45.2369417" lon="11.6361133"><ele>10.0</ele><time>2026-05-01T07:43:09.384Z</time></trkpt><trkpt lat="45.2370517" lon="11.6361617"><ele>9.75</ele><time>2026-05-01T07:43:11.396Z</time></trkpt><trkpt lat="45.2371617" lon="11.63621"><ele>9.5</ele><time>2026-05-01T07:43:13.384Z</time></trkpt><trkpt lat="45.237275" lon="11.63626"><ele>9.25</ele><time>2026-05-01T07:43:15.393Z</time></trkpt><trkpt lat="45.237385" lon="11.636315"><ele>9.0</ele><time>2026-05-01T07:43:17.387Z</time></trkpt><trkpt lat="45.2374983" lon="11.636365"><ele>9.4</ele><time>2026-05-01T07:43:19.395Z</time></trkpt><trkpt lat="45.2376067" lon="11.6364167"><ele>9.8</ele><time>2026-05-01T07:43:21.411Z</time></trkpt><trkpt lat="45.2377117" lon="11.6364667"><ele>10.200000000000001</ele><time>2026-05-01T07:43:23.402Z</time></trkpt><trkpt lat="45.2378133" lon="11.6365117"><ele>10.600000000000001</ele><time>2026-05-01T07:43:25.384Z</time></trkpt><trkpt lat="45.2379067" lon="11.636555"><ele>11.0</ele><time>2026-05-01T07:43:27.384Z</time></trkpt><trkpt lat="45.2380067" lon="11.6365917"><ele>11.0</ele><time>2026-05-01T07:43:29.386Z</time></trkpt><trkpt lat="45.23811" lon="11.636635"><ele>11.0</ele><time>2026-05-01T07:43:31.387Z</time></trkpt><trkpt lat="45.2382183" lon="11.6366783"><ele>11.0</ele><time>2026-05-01T07:43:33.385Z</time></trkpt><trkpt lat="45.2383233" lon="11.63672"><ele>11.0</ele><time>2026-05-01T07:43:35.385Z</time></trkpt><trkpt lat="45.23843" lon="11.6367633"><ele>11.0</ele><time>2026-05-01T07:43:37.397Z</time></trkpt><trkpt lat="45.2385367" lon="11.6368033"><ele>11.0</ele><time>2026-05-01T07:43:39.388Z</time></trkpt><trkpt lat="45.2386467" lon="11.6368417"><ele>11.0</ele><time>2026-05-01T07:43:41.385Z</time></trkpt><trkpt lat="45.2387583" lon="11.6368817"><ele>11.0</ele><time>2026-05-01T07:43:43.399Z</time></trkpt><trkpt lat="45.2388717" lon="11.6369267"><ele>11.0</ele><time>2026-05-01T07:43:45.384Z</time></trkpt><trkpt lat="45.2389817" lon="11.6369717"><ele>11.0</ele><time>2026-05-01T07:43:47.388Z</time></trkpt><trkpt lat="45.2390917" lon="11.6370133"><ele>11.0</ele><time>2026-05-01T07:43:49.401Z</time></trkpt><trkpt lat="45.2392017" lon="11.6370583"><ele>11.0</ele><time>2026-05-01T07:43:51.39Z</time></trkpt><trkpt lat="45.23931" lon="11.6371033"><ele>11.0</ele><time>2026-05-01T07:43:53.398Z</time></trkpt><trkpt lat="45.2394217" lon="11.6371483"><ele>11.0</ele><time>2026-05-01T07:43:55.392Z</time></trkpt><trkpt lat="45.2395267" lon="11.637195"><ele>11.0</ele><time>2026-05-01T07:43:57.383Z</time></trkpt><trkpt lat="45.2396317" lon="11.63724"><ele>11.0</ele><time>2026-05-01T07:43:59.397Z</time></trkpt><trkpt lat="45.2397367" lon="11.637285"><ele>11.0</ele><time>2026-05-01T07:44:01.399Z</time></trkpt><trkpt lat="45.23984" lon="11.6373267"><ele>11.0</ele><time>2026-05-01T07:44:03.39Z</time></trkpt><trkpt lat="45.239945" lon="11.6373667"><ele>10.75</ele><time>2026-05-01T07:44:05.384Z</time></trkpt><trkpt lat="45.2400533" lon="11.6374117"><ele>10.5</ele><time>2026-05-01T07:44:07.383Z</time></trkpt><trkpt lat="45.24016" lon="11.637465"><ele>10.25</ele><time>2026-05-01T07:44:09.394Z</time></trkpt><trkpt lat="45.2402667" lon="11.637515"><ele>10.0</ele><time>2026-05-01T07:44:11.387Z</time></trkpt><trkpt lat="45.2403783" lon="11.6375633"><ele>10.0</ele><time>2026-05-01T07:44:13.388Z</time></trkpt><trkpt lat="45.2404883" lon="11.6376117"><ele>10.0</ele><time>2026-05-01T07:44:15.418Z</time></trkpt><trkpt lat="45.2405983" lon="11.63766"><ele>10.0</ele><time>2026-05-01T07:44:17.384Z</time></trkpt><trkpt lat="45.2407067" lon="11.637705"><ele>10.0</ele><time>2026-05-01T07:44:19.384Z</time></trkpt><trkpt lat="45.240815" lon="11.63775"><ele>10.0</ele><time>2026-05-01T07:44:21.385Z</time></trkpt><trkpt lat="45.2409267" lon="11.6377983"><ele>10.0</ele><time>2026-05-01T07:44:23.389Z</time></trkpt><trkpt lat="45.2410383" lon="11.637845"><ele>10.0</ele><time>2026-05-01T07:44:25.394Z</time></trkpt><trkpt lat="45.241145" lon="11.6378883"><ele>10.0</ele><time>2026-05-01T07:44:27.405Z</time></trkpt><trkpt lat="45.2412483" lon="11.63793"><ele>10.0</ele><time>2026-05-01T07:44:29.412Z</time></trkpt><trkpt lat="45.2413483" lon="11.6379817"><ele>10.0</ele><time>2026-05-01T07:44:31.406Z</time></trkpt><trkpt lat="45.2414483" lon="11.6380333"><ele>10.0</ele><time>2026-05-01T07:44:33.398Z</time></trkpt><trkpt lat="45.2415433" lon="11.63808"><ele>10.0</ele><time>2026-05-01T07:44:35.382Z</time></trkpt><trkpt lat="45.2416367" lon="11.63813"><ele>10.0</ele><time>2026-05-01T07:44:37.384Z</time></trkpt><trkpt lat="45.2417233" lon="11.6381733"><ele>9.833333333333334</ele><time>2026-05-01T07:44:39.384Z</time></trkpt><trkpt lat="45.2418367" lon="11.6382217"><ele>9.666666666666668</ele><time>2026-05-01T07:45:43.406Z</time></trkpt><trkpt lat="45.24193" lon="11.6382583"><ele>9.5</ele><time>2026-05-01T07:45:46.418Z</time></trkpt><trkpt lat="45.2419983" lon="11.6382917"><ele>9.333333333333334</ele><time>2026-05-01T07:45:48.394Z</time></trkpt><trkpt lat="45.2420867" lon="11.638335"><ele>9.166666666666666</ele><time>2026-05-01T07:45:50.395Z</time></trkpt><trkpt lat="45.24215" lon="11.63837"><ele>9.0</ele><time>2026-05-01T07:45:52.392Z</time></trkpt><trkpt lat="45.2422133" lon="11.6383817"><ele>9.0</ele><time>2026-05-01T07:45:54.391Z</time></trkpt><trkpt lat="45.2422967" lon="11.6384133"><ele>9.0</ele><time>2026-05-01T07:45:56.408Z</time></trkpt><trkpt lat="45.242385" lon="11.6384333"><ele>9.0</ele><time>2026-05-01T07:45:58.404Z</time></trkpt><trkpt lat="45.242475" lon="11.6384517"><ele>9.0</ele><time>2026-05-01T07:46:00.404Z</time></trkpt><trkpt lat="45.2425617" lon="11.6384617"><ele>9.0</ele><time>2026-05-01T07:46:02.392Z</time></trkpt><trkpt lat="45.2426533" lon="11.63847"><ele>9.0</ele><time>2026-05-01T07:46:04.418Z</time></trkpt><trkpt lat="45.2427383" lon="11.638475"><ele>9.2</ele><time>2026-05-01T07:46:06.416Z</time></trkpt><trkpt lat="45.24283" lon="11.6384717"><ele>9.4</ele><time>2026-05-01T07:46:08.425Z</time></trkpt><trkpt lat="45.2429283" lon="11.6384667"><ele>9.6</ele><time>2026-05-01T07:46:10.425Z</time></trkpt><trkpt lat="45.24302" lon="11.6384567"><ele>9.8</ele><time>2026-05-01T07:46:12.393Z</time></trkpt><trkpt lat="45.2431117" lon="11.6384483"><ele>10.0</ele><time>2026-05-01T07:46:14.389Z</time></trkpt><trkpt lat="45.24321" lon="11.6384333"><ele>10.0</ele><time>2026-05-01T07:46:16.413Z</time></trkpt><trkpt lat="45.2433033" lon="11.638405"><ele>10.0</ele><time>2026-05-01T07:46:18.417Z</time></trkpt><trkpt lat="45.2434117" lon="11.6383967"><ele>10.0</ele><time>2026-05-01T07:46:20.384Z</time></trkpt><trkpt lat="45.2435167" lon="11.6383967"><ele>10.0</ele><time>2026-05-01T07:46:22.382Z</time></trkpt><trkpt lat="45.2436233" lon="11.6383767"><ele>10.0</ele><time>2026-05-01T07:46:24.392Z</time></trkpt><trkpt lat="45.2437183" lon="11.6383483"><ele>10.0</ele><time>2026-05-01T07:46:26.389Z</time></trkpt><trkpt lat="45.2438083" lon="11.63833"><ele>10.0</ele><time>2026-05-01T07:46:28.395Z</time></trkpt><trkpt lat="45.2439067" lon="11.6383117"><ele>10.0</ele><time>2026-05-01T07:46:30.392Z</time></trkpt><trkpt lat="45.2440067" lon="11.6382917"><ele>10.0</ele><time>2026-05-01T07:46:32.408Z</time></trkpt><trkpt lat="45.2441067" lon="11.638275"><ele>10.0</ele><time>2026-05-01T07:46:34.405Z</time></trkpt><trkpt lat="45.24421" lon="11.6382533"><ele>10.2</ele><time>2026-05-01T07:46:36.401Z</time></trkpt><trkpt lat="45.2443167" lon="11.6382317"><ele>10.4</ele><time>2026-05-01T07:46:38.412Z</time></trkpt><trkpt lat="45.2444283" lon="11.63821"><ele>10.600000000000001</ele><time>2026-05-01T07:46:40.399Z</time></trkpt><trkpt lat="45.2445383" lon="11.6381833"><ele>10.8</ele><time>2026-05-01T07:46:42.387Z</time></trkpt><trkpt lat="45.2446433" lon="11.6381617"><ele>11.0</ele><time>2026-05-01T07:46:44.392Z</time></trkpt><trkpt lat="45.24473" lon="11.6381567"><ele>10.600000000000001</ele><time>2026-05-01T07:46:46.409Z</time></trkpt><trkpt lat="45.2448083" lon="11.63818"><ele>10.200000000000001</ele><time>2026-05-01T07:46:49.386Z</time></trkpt><trkpt lat="45.2448817" lon="11.6382283"><ele>9.8</ele><time>2026-05-01T07:46:53.449Z</time></trkpt><trkpt lat="45.2448983" lon="11.6384333"><ele>9.4</ele><time>2026-05-01T07:46:56.404Z</time></trkpt><trkpt lat="45.2449167" lon="11.6385717"><ele>9.0</ele><time>2026-05-01T07:46:58.389Z</time></trkpt><trkpt lat="45.2449267" lon="11.6387183"><ele>9.0</ele><time>2026-05-01T07:47:00.395Z</time></trkpt><trkpt lat="45.2449467" lon="11.6388533"><ele>9.0</ele><time>2026-05-01T07:47:02.41Z</time></trkpt><trkpt lat="45.2449933" lon="11.63892"><ele>9.0</ele><time>2026-05-01T07:47:04.388Z</time></trkpt><trkpt lat="45.2450867" lon="11.6389067"><ele>9.0</ele><time>2026-05-01T07:47:06.388Z</time></trkpt><trkpt lat="45.24518" lon="11.638875"><ele>9.0</ele><time>2026-05-01T07:47:08.388Z</time></trkpt><trkpt lat="45.2452633" lon="11.638855"><ele>9.0</ele><time>2026-05-01T07:47:10.391Z</time></trkpt><trkpt lat="45.245345" lon="11.63886"><ele>9.0</ele><time>2026-05-01T07:47:12.407Z</time></trkpt><trkpt lat="45.245395" lon="11.638955"><ele>9.0</ele><time>2026-05-01T07:47:14.395Z</time></trkpt><trkpt lat="45.24541" lon="11.6391083"><ele>9.0</ele><time>2026-05-01T07:47:16.396Z</time></trkpt><trkpt lat="45.2454233" lon="11.63926"><ele>9.0</ele><time>2026-05-01T07:47:18.381Z</time></trkpt><trkpt lat="45.2454433" lon="11.6394217"><ele>9.0</ele><time>2026-05-01T07:47:20.388Z</time></trkpt><trkpt lat="45.245475" lon="11.6395767"><ele>9.2</ele><time>2026-05-01T07:47:22.384Z</time></trkpt><trkpt lat="45.24553" lon="11.6397183"><ele>9.4</ele><time>2026-05-01T07:47:24.407Z</time></trkpt><trkpt lat="45.2456033" lon="11.63983"><ele>9.6</ele><time>2026-05-01T07:47:26.388Z</time></trkpt><trkpt lat="45.2457033" lon="11.6398967"><ele>9.8</ele><time>2026-05-01T07:47:28.403Z</time></trkpt><trkpt lat="45.24582" lon="11.6399133"><ele>10.0</ele><time>2026-05-01T07:47:30.41Z</time></trkpt><trkpt lat="45.24594" lon="11.6398867"><ele>10.2</ele><time>2026-05-01T07:47:32.395Z</time></trkpt><trkpt lat="45.2460617" lon="11.6398517"><ele>10.4</ele><time>2026-05-01T07:47:34.389Z</time></trkpt><trkpt lat="45.2461833" lon="11.6398067"><ele>10.600000000000001</ele><time>2026-05-01T07:47:36.387Z</time></trkpt><trkpt lat="45.246245" lon="11.639785"><ele>10.8</ele><time>2026-05-01T07:47:37.385Z</time></trkpt><trkpt lat="45.2463667" lon="11.63975"><ele>11.0</ele><time>2026-05-01T07:47:39.392Z</time></trkpt><trkpt lat="45.2464917" lon="11.6397167"><ele>11.0</ele><time>2026-05-01T07:47:41.393Z</time></trkpt><trkpt lat="45.2465533" lon="11.6396967"><ele>11.0</ele><time>2026-05-01T07:47:42.404Z</time></trkpt><trkpt lat="45.246615" lon="11.6396717"><ele>11.0</ele><time>2026-05-01T07:47:43.39Z</time></trkpt><trkpt lat="45.2467367" lon="11.6396217"><ele>11.0</ele><time>2026-05-01T07:47:45.385Z</time></trkpt><trkpt lat="45.2468017" lon="11.6395983"><ele>11.0</ele><time>2026-05-01T07:47:46.393Z</time></trkpt><trkpt lat="45.246865" lon="11.6395767"><ele>11.0</ele><time>2026-05-01T07:47:47.382Z</time></trkpt><trkpt lat="45.2469267" lon="11.639555"><ele>11.0</ele><time>2026-05-01T07:47:48.384Z</time></trkpt><trkpt lat="45.2470533" lon="11.639525"><ele>11.0</ele><time>2026-05-01T07:47:50.4Z</time></trkpt><trkpt lat="45.2471167" lon="11.6395067"><ele>11.0</ele><time>2026-05-01T07:47:51.398Z</time></trkpt><trkpt lat="45.2471783" lon="11.6394833"><ele>11.0</ele><time>2026-05-01T07:47:52.388Z</time></trkpt><trkpt lat="45.2472417" lon="11.6394583"><ele>11.0</ele><time>2026-05-01T07:47:53.387Z</time></trkpt><trkpt lat="45.2473033" lon="11.639435"><ele>11.0</ele><time>2026-05-01T07:47:54.388Z</time></trkpt><trkpt lat="45.2473683" lon="11.6394167"><ele>10.666666666666666</ele><time>2026-05-01T07:47:55.388Z</time></trkpt><trkpt lat="45.2474933" lon="11.639385"><ele>10.333333333333332</ele><time>2026-05-01T07:47:57.411Z</time></trkpt><trkpt lat="45.2475567" lon="11.6393667"><ele>10.0</ele><time>2026-05-01T07:47:58.397Z</time></trkpt><trkpt lat="45.24762" lon="11.639345"><ele>9.666666666666666</ele><time>2026-05-01T07:47:59.409Z</time></trkpt><trkpt lat="45.2476833" lon="11.639325"><ele>9.333333333333334</ele><time>2026-05-01T07:48:00.392Z</time></trkpt><trkpt lat="45.2477467" lon="11.639305"><ele>9.0</ele><time>2026-05-01T07:48:01.394Z</time></trkpt><trkpt lat="45.2478683" lon="11.6392667"><ele>9.000000000000002</ele><time>2026-05-01T07:48:03.386Z</time></trkpt><trkpt lat="45.24793" lon="11.6392467"><ele>9.0</ele><time>2026-05-01T07:48:04.388Z</time></trkpt><trkpt lat="45.24805" lon="11.6392067"><ele>9.0</ele><time>2026-05-01T07:48:06.405Z</time></trkpt><trkpt lat="45.2481133" lon="11.6391883"><ele>9.0</ele><time>2026-05-01T07:48:07.387Z</time></trkpt><trkpt lat="45.2481767" lon="11.63917"><ele>9.0</ele><time>2026-05-01T07:48:08.391Z</time></trkpt><trkpt lat="45.24824" lon="11.63915"><ele>9.000000000000002</ele><time>2026-05-01T07:48:09.397Z</time></trkpt><trkpt lat="45.2483017" lon="11.6391283"><ele>9.0</ele><time>2026-05-01T07:48:10.397Z</time></trkpt><trkpt lat="45.248365" lon="11.6391083"><ele>9.142857142857144</ele><time>2026-05-01T07:48:11.385Z</time></trkpt><trkpt lat="45.2484283" lon="11.63909"><ele>9.285714285714286</ele><time>2026-05-01T07:48:12.396Z</time></trkpt><trkpt lat="45.2484933" lon="11.6390717"><ele>9.428571428571429</ele><time>2026-05-01T07:48:13.403Z</time></trkpt><trkpt lat="45.2485583" lon="11.6390517"><ele>9.571428571428573</ele><time>2026-05-01T07:48:14.394Z</time></trkpt><trkpt lat="45.2486233" lon="11.63903"><ele>9.714285714285715</ele><time>2026-05-01T07:48:15.397Z</time></trkpt><trkpt lat="45.2486867" lon="11.6390083"><ele>9.857142857142858</ele><time>2026-05-01T07:48:16.403Z</time></trkpt><trkpt lat="45.2487483" lon="11.6389867"><ele>10.0</ele><time>2026-05-01T07:48:17.387Z</time></trkpt><trkpt lat="45.2488133" lon="11.638965"><ele>10.0</ele><time>2026-05-01T07:48:18.405Z</time></trkpt><trkpt lat="45.2488767" lon="11.6389433"><ele>10.0</ele><time>2026-05-01T07:48:19.392Z</time></trkpt><trkpt lat="45.24894" lon="11.6389233"><ele>10.0</ele><time>2026-05-01T07:48:20.402Z</time></trkpt><trkpt lat="45.2490033" lon="11.6389033"><ele>10.0</ele><time>2026-05-01T07:48:21.384Z</time></trkpt><trkpt lat="45.2490667" lon="11.6388783"><ele>10.0</ele><time>2026-05-01T07:48:22.383Z</time></trkpt><trkpt lat="45.24913" lon="11.638855"><ele>10.0</ele><time>2026-05-01T07:48:23.402Z</time></trkpt><trkpt lat="45.2491917" lon="11.6388317"><ele>10.0</ele><time>2026-05-01T07:48:24.384Z</time></trkpt><trkpt lat="45.2492533" lon="11.6388117"><ele>10.142857142857142</ele><time>2026-05-01T07:48:25.386Z</time></trkpt><trkpt lat="45.249315" lon="11.6387933"><ele>10.285714285714286</ele><time>2026-05-01T07:48:26.391Z</time></trkpt><trkpt lat="45.249435" lon="11.6387567"><ele>10.428571428571429</ele><time>2026-05-01T07:48:28.397Z</time></trkpt><trkpt lat="45.2494967" lon="11.638735"><ele>10.571428571428571</ele><time>2026-05-01T07:48:29.389Z</time></trkpt><trkpt lat="45.24956" lon="11.6387133"><ele>10.714285714285714</ele><time>2026-05-01T07:48:30.391Z</time></trkpt><trkpt lat="45.2496233" lon="11.6386917"><ele>10.857142857142858</ele><time>2026-05-01T07:48:31.395Z</time></trkpt><trkpt lat="45.249685" lon="11.63867"><ele>11.0</ele><time>2026-05-01T07:48:32.415Z</time></trkpt><trkpt lat="45.2497483" lon="11.6386517"><ele>10.5</ele><time>2026-05-01T07:48:33.387Z</time></trkpt><trkpt lat="45.2498117" lon="11.63863"><ele>10.0</ele><time>2026-05-01T07:48:34.394Z</time></trkpt><trkpt lat="45.249875" lon="11.6386083"><ele>9.5</ele><time>2026-05-01T07:48:35.39Z</time></trkpt><trkpt lat="45.2499383" lon="11.6385933"><ele>9.0</ele><time>2026-05-01T07:48:36.392Z</time></trkpt><trkpt lat="45.25006" lon="11.638565"><ele>8.5</ele><time>2026-05-01T07:48:38.41Z</time></trkpt><trkpt lat="45.2501767" lon="11.6385367"><ele>8.0</ele><time>2026-05-01T07:48:40.389Z</time></trkpt><trkpt lat="45.2502883" lon="11.638505"><ele>8.0</ele><time>2026-05-01T07:48:42.387Z</time></trkpt><trkpt lat="45.2503983" lon="11.63848"><ele>8.0</ele><time>2026-05-01T07:48:44.408Z</time></trkpt><trkpt lat="45.2505017" lon="11.6384517"><ele>8.0</ele><time>2026-05-01T07:48:46.396Z</time></trkpt><trkpt lat="45.2505917" lon="11.6384217"><ele>8.0</ele><time>2026-05-01T07:48:48.404Z</time></trkpt><trkpt lat="45.2506717" lon="11.6384233"><ele>8.0</ele><time>2026-05-01T07:48:51.419Z</time></trkpt><trkpt lat="45.250665" lon="11.638515"><ele>8.0</ele><time>2026-05-01T07:48:54.394Z</time></trkpt><trkpt lat="45.250615" lon="11.6386"><ele>8.0</ele><time>2026-05-01T07:48:56.386Z</time></trkpt><trkpt lat="45.250565" lon="11.6387117"><ele>8.0</ele><time>2026-05-01T07:48:58.389Z</time></trkpt><trkpt lat="45.2505083" lon="11.6388383"><ele>8.0</ele><time>2026-05-01T07:49:00.395Z</time></trkpt><trkpt lat="45.2504533" lon="11.638965"><ele>8.0</ele><time>2026-05-01T07:49:02.387Z</time></trkpt><trkpt lat="45.2503933" lon="11.6390917"><ele>8.600000000000001</ele><time>2026-05-01T07:49:04.387Z</time></trkpt><trkpt lat="45.2503333" lon="11.6392267"><ele>9.200000000000001</ele><time>2026-05-01T07:49:06.387Z</time></trkpt><trkpt lat="45.2502733" lon="11.6393583"><ele>9.8</ele><time>2026-05-01T07:49:08.386Z</time></trkpt><trkpt lat="45.250215" lon="11.6394933"><ele>10.4</ele><time>2026-05-01T07:49:10.387Z</time></trkpt><trkpt lat="45.25016" lon="11.6396317"><ele>11.0</ele><time>2026-05-01T07:49:12.399Z</time></trkpt><trkpt lat="45.2501033" lon="11.6397717"><ele>11.5</ele><time>2026-05-01T07:49:14.401Z</time></trkpt><trkpt lat="45.2500317" lon="11.639895"><ele>12.0</ele><time>2026-05-01T07:49:16.386Z</time></trkpt><trkpt lat="45.2499417" lon="11.6399967"><ele>12.5</ele><time>2026-05-01T07:49:18.387Z</time></trkpt><trkpt lat="45.2498733" lon="11.6401317"><ele>13.0</ele><time>2026-05-01T07:49:20.393Z</time></trkpt><trkpt lat="45.2498917" lon="11.6402817"><ele>13.0</ele><time>2026-05-01T07:49:22.404Z</time></trkpt><trkpt lat="45.24999" lon="11.6403267"><ele>13.0</ele><time>2026-05-01T07:49:24.414Z</time></trkpt><trkpt lat="45.2501133" lon="11.6403033"><ele>13.0</ele><time>2026-05-01T07:49:26.401Z</time></trkpt><trkpt lat="45.2502383" lon="11.6402817"><ele>13.0</ele><time>2026-05-01T07:49:28.398Z</time></trkpt><trkpt lat="45.2503617" lon="11.640265"><ele>13.0</ele><time>2026-05-01T07:49:30.398Z</time></trkpt><trkpt lat="45.2504283" lon="11.6402567"><ele>13.0</ele><time>2026-05-01T07:49:31.391Z</time></trkpt><trkpt lat="45.250495" lon="11.6402483"><ele>13.0</ele><time>2026-05-01T07:49:32.393Z</time></trkpt><trkpt lat="45.2505633" lon="11.6402433"><ele>13.0</ele><time>2026-05-01T07:49:33.397Z</time></trkpt><trkpt lat="45.25063" lon="11.6402367"><ele>13.0</ele><time>2026-05-01T07:49:34.39Z</time></trkpt><trkpt lat="45.2506933" lon="11.6402267"><ele>13.0</ele><time>2026-05-01T07:49:35.402Z</time></trkpt><trkpt lat="45.2507567" lon="11.64022"><ele>13.0</ele><time>2026-05-01T07:49:36.398Z</time></trkpt><trkpt lat="45.2508783" lon="11.6402167"><ele>13.166666666666666</ele><time>2026-05-01T07:49:38.397Z</time></trkpt><trkpt lat="45.2509433" lon="11.6402167"><ele>13.333333333333332</ele><time>2026-05-01T07:49:39.409Z</time></trkpt><trkpt lat="45.2510083" lon="11.640215"><ele>13.5</ele><time>2026-05-01T07:49:40.407Z</time></trkpt><trkpt lat="45.2511333" lon="11.6402133"><ele>13.666666666666668</ele><time>2026-05-01T07:49:42.393Z</time></trkpt><trkpt lat="45.2512" lon="11.6402217"><ele>13.833333333333334</ele><time>2026-05-01T07:49:43.397Z</time></trkpt><trkpt lat="45.2512667" lon="11.6402283"><ele>14.0</ele><time>2026-05-01T07:49:44.393Z</time></trkpt><trkpt lat="45.2513367" lon="11.6402183"><ele>14.2</ele><time>2026-05-01T07:49:45.389Z</time></trkpt><trkpt lat="45.2514617" lon="11.64024"><ele>14.399999999999999</ele><time>2026-05-01T07:49:47.465Z</time></trkpt><trkpt lat="45.2515217" lon="11.6402767"><ele>14.6</ele><time>2026-05-01T07:49:48.457Z</time></trkpt><trkpt lat="45.2515817" lon="11.6403933"><ele>14.8</ele><time>2026-05-01T07:49:50.378Z</time></trkpt><trkpt lat="45.2515683" lon="11.6405433"><ele>15.0</ele><time>2026-05-01T07:49:52.394Z</time></trkpt><trkpt lat="45.2515717" lon="11.6406533"><ele>15.0</ele><time>2026-05-01T07:49:56.392Z</time></trkpt><trkpt lat="45.2515867" lon="11.6407817"><ele>15.0</ele><time>2026-05-01T07:53:29.409Z</time></trkpt><trkpt lat="45.2515933" lon="11.6408883"><ele>15.0</ele><time>2026-05-01T07:53:33.416Z</time></trkpt><trkpt lat="45.2515833" lon="11.641"><ele>15.0</ele><time>2026-05-01T07:53:37.424Z</time></trkpt><trkpt lat="45.2516083" lon="11.6411017"><ele>15.0</ele><time>2026-05-01T07:53:41.425Z</time></trkpt><trkpt lat="45.2516217" lon="11.6411983"><ele>15.0</ele><time>2026-05-01T07:53:45.414Z</time></trkpt><trkpt lat="45.2516433" lon="11.6413117"><ele>15.666666666666666</ele><time>2026-05-01T07:53:49.418Z</time></trkpt><trkpt lat="45.251665" lon="11.6414167"><ele>16.333333333333332</ele><time>2026-05-01T07:53:53.414Z</time></trkpt><trkpt lat="45.2516833" lon="11.64153"><ele>17.0</ele><time>2026-05-01T07:53:57.418Z</time></trkpt><trkpt lat="45.2516917" lon="11.6416383"><ele>17.666666666666664</ele><time>2026-05-01T07:54:01.412Z</time></trkpt><trkpt lat="45.2517033" lon="11.6417517"><ele>18.333333333333332</ele><time>2026-05-01T07:54:05.427Z</time></trkpt><trkpt lat="45.2517133" lon="11.6418717"><ele>19.0</ele><time>2026-05-01T07:54:09.423Z</time></trkpt><trkpt lat="45.251725" lon="11.6419683"><ele>19.428571428571427</ele><time>2026-05-01T07:54:12.413Z</time></trkpt><trkpt lat="45.2517383" lon="11.6420617"><ele>19.857142857142858</ele><time>2026-05-01T07:54:15.414Z</time></trkpt><trkpt lat="45.251745" lon="11.642175"><ele>20.285714285714285</ele><time>2026-05-01T07:54:19.413Z</time></trkpt><trkpt lat="45.2517517" lon="11.6422917"><ele>20.714285714285715</ele><time>2026-05-01T07:54:23.399Z</time></trkpt><trkpt lat="45.2517567" lon="11.6423917"><ele>21.142857142857142</ele><time>2026-05-01T07:54:27.41Z</time></trkpt><trkpt lat="45.251765" lon="11.64249"><ele>21.571428571428573</ele><time>2026-05-01T07:54:31.395Z</time></trkpt><trkpt lat="45.251765" lon="11.6425983"><ele>22.0</ele><time>2026-05-01T07:54:35.419Z</time></trkpt><trkpt lat="45.2517667" lon="11.64271"><ele>23.285714285714285</ele><time>2026-05-01T07:54:39.414Z</time></trkpt><trkpt lat="45.2517617" lon="11.6428167"><ele>24.57142857142857</ele><time>2026-05-01T07:54:43.421Z</time></trkpt><trkpt lat="45.251755" lon="11.6429217"><ele>25.857142857142858</ele><time>2026-05-01T07:54:47.401Z</time></trkpt><trkpt lat="45.2517517" lon="11.6430183"><ele>27.142857142857146</ele><time>2026-05-01T07:54:51.411Z</time></trkpt><trkpt lat="45.25175" lon="11.6431183"><ele>28.42857142857143</ele><time>2026-05-01T07:54:55.416Z</time></trkpt><trkpt lat="45.2517533" lon="11.64322"><ele>29.714285714285715</ele><time>2026-05-01T07:54:59.411Z</time></trkpt><trkpt lat="45.2517567" lon="11.6433183"><ele>31.0</ele><time>2026-05-01T07:55:03.395Z</time></trkpt><trkpt lat="45.2517533" lon="11.6434233"><ele>31.0</ele><time>2026-05-01T07:55:07.414Z</time></trkpt><trkpt lat="45.2517467" lon="11.6435283"><ele>31.000000000000004</ele><time>2026-05-01T07:55:11.422Z</time></trkpt><trkpt lat="45.2517233" lon="11.6436217"><ele>31.0</ele><time>2026-05-01T07:55:15.417Z</time></trkpt><trkpt lat="45.2517133" lon="11.6437217"><ele>31.0</ele><time>2026-05-01T07:55:19.432Z</time></trkpt><trkpt lat="45.2516967" lon="11.6438133"><ele>31.000000000000004</ele><time>2026-05-01T07:55:23.421Z</time></trkpt><trkpt lat="45.25168" lon="11.6439033"><ele>31.0</ele><time>2026-05-01T07:55:27.419Z</time></trkpt><trkpt lat="45.2516567" lon="11.644"><ele>31.0</ele><time>2026-05-01T07:55:31.415Z</time></trkpt><trkpt lat="45.251635" lon="11.644085"><ele>32.285714285714285</ele><time>2026-05-01T07:55:35.391Z</time></trkpt><trkpt lat="45.2516033" lon="11.6441867"><ele>33.57142857142858</ele><time>2026-05-01T07:55:40.406Z</time></trkpt><trkpt lat="45.2515667" lon="11.6442867"><ele>34.85714285714286</ele><time>2026-05-01T07:55:45.412Z</time></trkpt><trkpt lat="45.2515267" lon="11.6443617"><ele>36.142857142857146</ele><time>2026-05-01T07:55:49.394Z</time></trkpt><trkpt lat="45.25148" lon="11.644435"><ele>37.42857142857143</ele><time>2026-05-01T07:55:53.41Z</time></trkpt><trkpt lat="45.251435" lon="11.6445133"><ele>38.714285714285715</ele><time>2026-05-01T07:55:58.402Z</time></trkpt><trkpt lat="45.25139" lon="11.64458"><ele>40.0</ele><time>2026-05-01T07:56:03.406Z</time></trkpt><trkpt lat="45.2513417" lon="11.6446517"><ele>41.285714285714285</ele><time>2026-05-01T07:56:08.402Z</time></trkpt><trkpt lat="45.2513033" lon="11.644735"><ele>42.57142857142857</ele><time>2026-05-01T07:56:13.393Z</time></trkpt><trkpt lat="45.2512717" lon="11.6448333"><ele>43.85714285714286</ele><time>2026-05-01T07:56:18.402Z</time></trkpt><trkpt lat="45.2512567" lon="11.644925"><ele>45.14285714285714</ele><time>2026-05-01T07:56:22.436Z</time></trkpt><trkpt lat="45.2512367" lon="11.6450183"><ele>46.42857142857143</ele><time>2026-05-01T07:56:26.392Z</time></trkpt><trkpt lat="45.2512383" lon="11.6451117"><ele>47.714285714285715</ele><time>2026-05-01T07:56:30.394Z</time></trkpt><trkpt lat="45.2512517" lon="11.6452083"><ele>49.0</ele><time>2026-05-01T07:56:35.409Z</time></trkpt><trkpt lat="45.2512817" lon="11.6453117"><ele>49.857142857142854</ele><time>2026-05-01T07:56:40.419Z</time></trkpt><trkpt lat="45.2513017" lon="11.645405"><ele>50.714285714285715</ele><time>2026-05-01T07:56:44.436Z</time></trkpt><trkpt lat="45.251335" lon="11.6454883"><ele>51.57142857142857</ele><time>2026-05-01T07:56:48.424Z</time></trkpt><trkpt lat="45.2513633" lon="11.64557"><ele>52.42857142857143</ele><time>2026-05-01T07:56:52.414Z</time></trkpt><trkpt lat="45.2513967" lon="11.6456517"><ele>53.285714285714285</ele><time>2026-05-01T07:56:56.423Z</time></trkpt><trkpt lat="45.2514317" lon="11.6457317"><ele>54.14285714285714</ele><time>2026-05-01T07:57:00.42Z</time></trkpt><trkpt lat="45.2514633" lon="11.64581"><ele>55.0</ele><time>2026-05-01T07:57:04.418Z</time></trkpt><trkpt lat="45.2515" lon="11.6459017"><ele>55.28571428571428</ele><time>2026-05-01T07:57:09.413Z</time></trkpt><trkpt lat="45.2515217" lon="11.6459917"><ele>55.57142857142857</ele><time>2026-05-01T07:57:14.413Z</time></trkpt><trkpt lat="45.2515333" lon="11.64608"><ele>55.857142857142854</ele><time>2026-05-01T07:57:19.426Z</time></trkpt><trkpt lat="45.2515283" lon="11.646175"><ele>56.14285714285714</ele><time>2026-05-01T07:57:24.426Z</time></trkpt><trkpt lat="45.2515283" lon="11.6462717"><ele>56.42857142857142</ele><time>2026-05-01T07:57:29.421Z</time></trkpt><trkpt lat="45.2514917" lon="11.6463533"><ele>56.71428571428571</ele><time>2026-05-01T07:57:35.415Z</time></trkpt><trkpt lat="45.2514467" lon="11.6464367"><ele>57.0</ele><time>2026-05-01T07:57:40.424Z</time></trkpt><trkpt lat="45.2513883" lon="11.6465117"><ele>57.42857142857142</ele><time>2026-05-01T07:57:45.401Z</time></trkpt><trkpt lat="45.2513483" lon="11.6465933"><ele>57.85714285714285</ele><time>2026-05-01T07:57:49.426Z</time></trkpt><trkpt lat="45.2513067" lon="11.6466783"><ele>58.285714285714285</ele><time>2026-05-01T07:57:53.419Z</time></trkpt><trkpt lat="45.2512717" lon="11.6467567"><ele>58.71428571428571</ele><time>2026-05-01T07:57:57.421Z</time></trkpt><trkpt lat="45.2512317" lon="11.6468433"><ele>59.14285714285714</ele><time>2026-05-01T07:58:01.416Z</time></trkpt><trkpt lat="45.2512" lon="11.6469383"><ele>59.57142857142857</ele><time>2026-05-01T07:58:05.417Z</time></trkpt><trkpt lat="45.251175" lon="11.647035"><ele>60.0</ele><time>2026-05-01T07:58:09.415Z</time></trkpt><trkpt lat="45.2511517" lon="11.64713"><ele>61.0</ele><time>2026-05-01T07:58:13.408Z</time></trkpt><trkpt lat="45.2511767" lon="11.6472317"><ele>62.0</ele><time>2026-05-01T07:58:18.42Z</time></trkpt><trkpt lat="45.2512417" lon="11.6472467"><ele>63.0</ele><time>2026-05-01T07:58:22.422Z</time></trkpt><trkpt lat="45.2513083" lon="11.6472183"><ele>64.0</ele><time>2026-05-01T07:58:27.407Z</time></trkpt><trkpt lat="45.2513683" lon="11.6471883"><ele>65.0</ele><time>2026-05-01T07:58:31.421Z</time></trkpt><trkpt lat="45.2514383" lon="11.6471617"><ele>66.0</ele><time>2026-05-01T07:58:35.412Z</time></trkpt><trkpt lat="45.251515" lon="11.6471417"><ele>67.0</ele><time>2026-05-01T07:58:39.425Z</time></trkpt><trkpt lat="45.2515783" lon="11.647135"><ele>68.57142857142857</ele><time>2026-05-01T07:58:42.423Z</time></trkpt><trkpt lat="45.2516467" lon="11.64715"><ele>70.14285714285714</ele><time>2026-05-01T07:58:46.43Z</time></trkpt><trkpt lat="45.2517133" lon="11.6471817"><ele>71.71428571428572</ele><time>2026-05-01T07:58:50.418Z</time></trkpt><trkpt lat="45.251735" lon="11.6472933"><ele>73.28571428571428</ele><time>2026-05-01T07:58:55.422Z</time></trkpt><trkpt lat="45.251695" lon="11.64737"><ele>74.85714285714285</ele><time>2026-05-01T07:58:59.425Z</time></trkpt><trkpt lat="45.25164" lon="11.64742"><ele>76.42857142857143</ele><time>2026-05-01T07:59:03.416Z</time></trkpt><trkpt lat="45.251585" lon="11.6474733"><ele>78.0</ele><time>2026-05-01T07:59:07.423Z</time></trkpt><trkpt lat="45.2515283" lon="11.647535"><ele>78.0</ele><time>2026-05-01T07:59:11.415Z</time></trkpt><trkpt lat="45.2514717" lon="11.6476"><ele>78.0</ele><time>2026-05-01T07:59:15.402Z</time></trkpt><trkpt lat="45.2514233" lon="11.6476917"><ele>78.0</ele><time>2026-05-01T07:59:19.408Z</time></trkpt><trkpt lat="45.25144" lon="11.6477817"><ele>78.0</ele><time>2026-05-01T07:59:23.427Z</time></trkpt><trkpt lat="45.2515083" lon="11.6477933"><ele>78.0</ele><time>2026-05-01T07:59:27.415Z</time></trkpt><trkpt lat="45.2515833" lon="11.64779"><ele>78.0</ele><time>2026-05-01T07:59:31.429Z</time></trkpt><trkpt lat="45.25166" lon="11.64779"><ele>78.0</ele><time>2026-05-01T07:59:35.418Z</time></trkpt><trkpt lat="45.2517383" lon="11.647805"><ele>79.85714285714286</ele><time>2026-05-01T07:59:39.424Z</time></trkpt><trkpt lat="45.2518067" lon="11.6478317"><ele>81.71428571428571</ele><time>2026-05-01T07:59:43.425Z</time></trkpt><trkpt lat="45.2518633" lon="11.6478933"><ele>83.57142857142857</ele><time>2026-05-01T07:59:47.414Z</time></trkpt><trkpt lat="45.25185" lon="11.64799"><ele>85.42857142857143</ele><time>2026-05-01T07:59:51.398Z</time></trkpt><trkpt lat="45.2517883" lon="11.64804"><ele>87.28571428571428</ele><time>2026-05-01T07:59:55.386Z</time></trkpt><trkpt lat="45.2517217" lon="11.64809"><ele>89.14285714285714</ele><time>2026-05-01T07:59:59.411Z</time></trkpt><trkpt lat="45.25166" lon="11.6481383"><ele>91.0</ele><time>2026-05-01T08:00:03.394Z</time></trkpt><trkpt lat="45.25161" lon="11.6482233"><ele>91.0</ele><time>2026-05-01T08:00:07.395Z</time></trkpt><trkpt lat="45.2516217" lon="11.64832"><ele>91.0</ele><time>2026-05-01T08:00:11.402Z</time></trkpt><trkpt lat="45.2516967" lon="11.6483417"><ele>91.0</ele><time>2026-05-01T08:00:15.404Z</time></trkpt><trkpt lat="45.2517733" lon="11.648345"><ele>91.0</ele><time>2026-05-01T08:00:19.394Z</time></trkpt><trkpt lat="45.2518483" lon="11.6483667"><ele>91.0</ele><time>2026-05-01T08:00:23.414Z</time></trkpt><trkpt lat="45.2519167" lon="11.6484133"><ele>91.0</ele><time>2026-05-01T08:00:27.42Z</time></trkpt><trkpt lat="45.251965" lon="11.6485033"><ele>91.0</ele><time>2026-05-01T08:00:31.408Z</time></trkpt><trkpt lat="45.2520033" lon="11.6485967"><ele>91.0</ele><time>2026-05-01T08:00:35.428Z</time></trkpt><trkpt lat="45.2520317" lon="11.6486817"><ele>91.0</ele><time>2026-05-01T08:00:39.411Z</time></trkpt><trkpt lat="45.2520467" lon="11.6487783"><ele>91.0</ele><time>2026-05-01T08:00:43.405Z</time></trkpt><trkpt lat="45.252055" lon="11.648875"><ele>91.0</ele><time>2026-05-01T08:00:47.413Z</time></trkpt><trkpt lat="45.2520633" lon="11.6489783"><ele>91.0</ele><time>2026-05-01T08:00:51.412Z</time></trkpt><trkpt lat="45.2520767" lon="11.64907"><ele>91.0</ele><time>2026-05-01T08:00:55.4Z</time></trkpt><trkpt lat="45.25207" lon="11.6491717"><ele>92.57142857142857</ele><time>2026-05-01T08:00:59.397Z</time></trkpt><trkpt lat="45.2520883" lon="11.6492833"><ele>94.14285714285714</ele><time>2026-05-01T08:01:04.411Z</time></trkpt><trkpt lat="45.2520933" lon="11.6493833"><ele>95.71428571428572</ele><time>2026-05-01T08:01:08.419Z</time></trkpt><trkpt lat="45.2521067" lon="11.649485"><ele>97.28571428571428</ele><time>2026-05-01T08:01:12.429Z</time></trkpt><trkpt lat="45.2521167" lon="11.6495783"><ele>98.85714285714286</ele><time>2026-05-01T08:01:16.421Z</time></trkpt><trkpt lat="45.2521167" lon="11.6496817"><ele>100.42857142857143</ele><time>2026-05-01T08:01:21.412Z</time></trkpt><trkpt lat="45.2521133" lon="11.6497883"><ele>102.0</ele><time>2026-05-01T08:01:26.399Z</time></trkpt><trkpt lat="45.2521117" lon="11.6498867"><ele>103.14285714285714</ele><time>2026-05-01T08:01:31.404Z</time></trkpt><trkpt lat="45.2521067" lon="11.6499883"><ele>104.28571428571429</ele><time>2026-05-01T08:01:36.423Z</time></trkpt><trkpt lat="45.2520883" lon="11.650075"><ele>105.42857142857142</ele><time>2026-05-01T08:01:40.418Z</time></trkpt><trkpt lat="45.2520633" lon="11.650175"><ele>106.57142857142857</ele><time>2026-05-01T08:01:45.423Z</time></trkpt><trkpt lat="45.25204" lon="11.6502767"><ele>107.71428571428571</ele><time>2026-05-01T08:01:50.419Z</time></trkpt><trkpt lat="45.25201" lon="11.650375"><ele>108.85714285714285</ele><time>2026-05-01T08:01:55.415Z</time></trkpt><trkpt lat="45.25199" lon="11.6504717"><ele>110.0</ele><time>2026-05-01T08:02:00.416Z</time></trkpt><trkpt lat="45.2519617" lon="11.65056"><ele>111.14285714285714</ele><time>2026-05-01T08:02:05.42Z</time></trkpt><trkpt lat="45.2519383" lon="11.6506633"><ele>112.28571428571428</ele><time>2026-05-01T08:02:10.421Z</time></trkpt><trkpt lat="45.251915" lon="11.6507617"><ele>113.42857142857142</ele><time>2026-05-01T08:02:15.397Z</time></trkpt><trkpt lat="45.2518967" lon="11.6508667"><ele>114.57142857142857</ele><time>2026-05-01T08:02:20.424Z</time></trkpt><trkpt lat="45.2518667" lon="11.650965"><ele>115.71428571428572</ele><time>2026-05-01T08:02:25.417Z</time></trkpt><trkpt lat="45.2518517" lon="11.6510533"><ele>116.85714285714285</ele><time>2026-05-01T08:02:30.41Z</time></trkpt><trkpt lat="45.2518233" lon="11.6511467"><ele>118.0</ele><time>2026-05-01T08:02:35.397Z</time></trkpt><trkpt lat="45.251795" lon="11.65124"><ele>119.28571428571428</ele><time>2026-05-01T08:02:40.412Z</time></trkpt><trkpt lat="45.2517867" lon="11.6513433"><ele>120.57142857142858</ele><time>2026-05-01T08:02:45.422Z</time></trkpt><trkpt lat="45.2517517" lon="11.6514317"><ele>121.85714285714286</ele><time>2026-05-01T08:02:51.418Z</time></trkpt><trkpt lat="45.2517217" lon="11.6515233"><ele>123.14285714285714</ele><time>2026-05-01T08:02:57.422Z</time></trkpt><trkpt lat="45.2517167" lon="11.651625"><ele>124.42857142857142</ele><time>2026-05-01T08:03:02.427Z</time></trkpt><trkpt lat="45.2516733" lon="11.6516917"><ele>125.71428571428572</ele><time>2026-05-01T08:03:07.404Z</time></trkpt><trkpt lat="45.2516467" lon="11.6517817"><ele>127.0</ele><time>2026-05-01T08:03:12.423Z</time></trkpt><trkpt lat="45.2516233" lon="11.65188"><ele>128.0</ele><time>2026-05-01T08:03:18.388Z</time></trkpt><trkpt lat="45.2515983" lon="11.6519633"><ele>129.0</ele><time>2026-05-01T08:03:24.4Z</time></trkpt><trkpt lat="45.2515633" lon="11.6520383"><ele>130.0</ele><time>2026-05-01T08:03:30.417Z</time></trkpt><trkpt lat="45.251515" lon="11.6521167"><ele>131.0</ele><time>2026-05-01T08:03:36.421Z</time></trkpt><trkpt lat="45.2514783" lon="11.6521933"><ele>132.0</ele><time>2026-05-01T08:03:41.422Z</time></trkpt><trkpt lat="45.2514133" lon="11.6522183"><ele>133.0</ele><time>2026-05-01T08:03:46.423Z</time></trkpt><trkpt lat="45.2513733" lon="11.6522983"><ele>134.0</ele><time>2026-05-01T08:03:51.421Z</time></trkpt><trkpt lat="45.2513117" lon="11.6523467"><ele>135.85714285714286</ele><time>2026-05-01T08:03:57.42Z</time></trkpt><trkpt lat="45.2512517" lon="11.6524"><ele>137.71428571428572</ele><time>2026-05-01T08:04:02.426Z</time></trkpt><trkpt lat="45.2511983" lon="11.65245"><ele>139.57142857142856</ele><time>2026-05-01T08:04:07.426Z</time></trkpt><trkpt lat="45.2511267" lon="11.6524817"><ele>141.42857142857144</ele><time>2026-05-01T08:04:12.418Z</time></trkpt><trkpt lat="45.2510733" lon="11.6525483"><ele>143.28571428571428</ele><time>2026-05-01T08:04:17.422Z</time></trkpt><trkpt lat="45.2510133" lon="11.6525767"><ele>145.14285714285714</ele><time>2026-05-01T08:04:22.42Z</time></trkpt><trkpt lat="45.2509567" lon="11.652625"><ele>147.0</ele><time>2026-05-01T08:04:26.416Z</time></trkpt><trkpt lat="45.2508883" lon="11.6526517"><ele>147.0</ele><time>2026-05-01T08:04:31.416Z</time></trkpt><trkpt lat="45.25082" lon="11.6526767"><ele>147.0</ele><time>2026-05-01T08:04:35.418Z</time></trkpt><trkpt lat="45.2507533" lon="11.6527133"><ele>147.0</ele><time>2026-05-01T08:04:39.415Z</time></trkpt><trkpt lat="45.2506833" lon="11.65274"><ele>147.0</ele><time>2026-05-01T08:04:43.392Z</time></trkpt><trkpt lat="45.2506133" lon="11.652745"><ele>147.0</ele><time>2026-05-01T08:04:47.418Z</time></trkpt><trkpt lat="45.25054" lon="11.6527733"><ele>147.0</ele><time>2026-05-01T08:04:51.418Z</time></trkpt><trkpt lat="45.2504617" lon="11.6528017"><ele>147.0</ele><time>2026-05-01T08:04:55.42Z</time></trkpt><trkpt lat="45.250385" lon="11.6528333"><ele>148.28571428571428</ele><time>2026-05-01T08:04:59.425Z</time></trkpt><trkpt lat="45.25031" lon="11.6528717"><ele>149.57142857142856</ele><time>2026-05-01T08:05:03.436Z</time></trkpt><trkpt lat="45.2502517" lon="11.6529067"><ele>150.85714285714286</ele><time>2026-05-01T08:05:06.411Z</time></trkpt><trkpt lat="45.2501883" lon="11.65294"><ele>152.14285714285714</ele><time>2026-05-01T08:05:09.419Z</time></trkpt><trkpt lat="45.2501283" lon="11.65297"><ele>153.42857142857142</ele><time>2026-05-01T08:05:12.42Z</time></trkpt><trkpt lat="45.2500667" lon="11.653005"><ele>154.71428571428572</ele><time>2026-05-01T08:05:15.417Z</time></trkpt><trkpt lat="45.2499917" lon="11.6530583"><ele>156.0</ele><time>2026-05-01T08:05:19.416Z</time></trkpt><trkpt lat="45.2499183" lon="11.6531183"><ele>156.0</ele><time>2026-05-01T08:05:23.427Z</time></trkpt><trkpt lat="45.24985" lon="11.6531683"><ele>156.0</ele><time>2026-05-01T08:05:27.424Z</time></trkpt><trkpt lat="45.2497833" lon="11.65323"><ele>156.0</ele><time>2026-05-01T08:05:31.413Z</time></trkpt><trkpt lat="45.24972" lon="11.6533017"><ele>156.0</ele><time>2026-05-01T08:05:35.415Z</time></trkpt><trkpt lat="45.249665" lon="11.6533667"><ele>156.0</ele><time>2026-05-01T08:05:38.419Z</time></trkpt><trkpt lat="45.2496117" lon="11.6534467"><ele>156.0</ele><time>2026-05-01T08:05:42.398Z</time></trkpt><trkpt lat="45.2495683" lon="11.6535183"><ele>156.14285714285714</ele><time>2026-05-01T08:05:45.424Z</time></trkpt><trkpt lat="45.2495283" lon="11.65359"><ele>156.28571428571428</ele><time>2026-05-01T08:05:48.412Z</time></trkpt><trkpt lat="45.249485" lon="11.653665"><ele>156.42857142857142</ele><time>2026-05-01T08:05:51.421Z</time></trkpt><trkpt lat="45.2494417" lon="11.6537467"><ele>156.57142857142856</ele><time>2026-05-01T08:05:54.425Z</time></trkpt><trkpt lat="45.2494017" lon="11.653825"><ele>156.71428571428572</ele><time>2026-05-01T08:05:57.408Z</time></trkpt><trkpt lat="45.2493667" lon="11.6539"><ele>156.85714285714283</ele><time>2026-05-01T08:06:00.413Z</time></trkpt><trkpt lat="45.2493283" lon="11.6539967"><ele>157.0</ele><time>2026-05-01T08:06:04.422Z</time></trkpt><trkpt lat="45.2492817" lon="11.6540917"><ele>156.99999999999997</ele><time>2026-05-01T08:06:08.429Z</time></trkpt><trkpt lat="45.24924" lon="11.6541917"><ele>157.0</ele><time>2026-05-01T08:06:12.417Z</time></trkpt><trkpt lat="45.24921" lon="11.6542717"><ele>157.0</ele><time>2026-05-01T08:06:15.423Z</time></trkpt><trkpt lat="45.2491867" lon="11.654355"><ele>157.0</ele><time>2026-05-01T08:06:18.42Z</time></trkpt><trkpt lat="45.2491483" lon="11.6544583"><ele>157.0</ele><time>2026-05-01T08:06:22.429Z</time></trkpt><trkpt lat="45.2491217" lon="11.6545417"><ele>156.99999999999997</ele><time>2026-05-01T08:06:25.419Z</time></trkpt><trkpt lat="45.2490967" lon="11.6546317"><ele>157.0</ele><time>2026-05-01T08:06:28.422Z</time></trkpt><trkpt lat="45.2490733" lon="11.65472"><ele>157.7142857142857</ele><time>2026-05-01T08:06:31.422Z</time></trkpt><trkpt lat="45.249055" lon="11.654815"><ele>158.42857142857142</ele><time>2026-05-01T08:06:34.421Z</time></trkpt><trkpt lat="45.2490383" lon="11.65491"><ele>159.14285714285714</ele><time>2026-05-01T08:06:37.424Z</time></trkpt><trkpt lat="45.2490183" lon="11.6549983"><ele>159.85714285714283</ele><time>2026-05-01T08:06:40.406Z</time></trkpt><trkpt lat="45.2490017" lon="11.6550867"><ele>160.57142857142856</ele><time>2026-05-01T08:06:43.424Z</time></trkpt><trkpt lat="45.2489883" lon="11.6551967"><ele>161.28571428571428</ele><time>2026-05-01T08:06:47.426Z</time></trkpt><trkpt lat="45.248975" lon="11.6552967"><ele>162.0</ele><time>2026-05-01T08:06:51.428Z</time></trkpt><trkpt lat="45.2489617" lon="11.65539"><ele>162.14285714285714</ele><time>2026-05-01T08:06:55.421Z</time></trkpt><trkpt lat="45.24896" lon="11.6554883"><ele>162.28571428571428</ele><time>2026-05-01T08:06:59.429Z</time></trkpt><trkpt lat="45.2489467" lon="11.6555917"><ele>162.42857142857144</ele><time>2026-05-01T08:07:04.42Z</time></trkpt><trkpt lat="45.24894" lon="11.6556833"><ele>162.57142857142856</ele><time>2026-05-01T08:07:08.427Z</time></trkpt><trkpt lat="45.2489267" lon="11.6557833"><ele>162.7142857142857</ele><time>2026-05-01T08:07:12.415Z</time></trkpt><trkpt lat="45.2489167" lon="11.6558767"><ele>162.85714285714286</ele><time>2026-05-01T08:07:16.412Z</time></trkpt><trkpt lat="45.2489167" lon="11.655985"><ele>163.0</ele><time>2026-05-01T08:07:20.428Z</time></trkpt><trkpt lat="45.248905" lon="11.6560783"><ele>164.0</ele><time>2026-05-01T08:07:24.415Z</time></trkpt><trkpt lat="45.2488867" lon="11.6561783"><ele>165.0</ele><time>2026-05-01T08:07:28.427Z</time></trkpt><trkpt lat="45.248875" lon="11.6562683"><ele>166.0</ele><time>2026-05-01T08:07:32.435Z</time></trkpt><trkpt lat="45.24886" lon="11.6563583"><ele>167.0</ele><time>2026-05-01T08:07:36.416Z</time></trkpt><trkpt lat="45.2488517" lon="11.6564533"><ele>168.0</ele><time>2026-05-01T08:07:40.397Z</time></trkpt><trkpt lat="45.2488517" lon="11.6565433"><ele>169.0</ele><time>2026-05-01T08:07:44.413Z</time></trkpt><trkpt lat="45.248855" lon="11.6566533"><ele>170.0</ele><time>2026-05-01T08:07:49.42Z</time></trkpt><trkpt lat="45.2488533" lon="11.656765"><ele>170.0</ele><time>2026-05-01T08:07:54.418Z</time></trkpt><trkpt lat="45.248855" lon="11.65687"><ele>170.0</ele><time>2026-05-01T08:07:59.415Z</time></trkpt><trkpt lat="45.2488483" lon="11.6569767"><ele>170.0</ele><time>2026-05-01T08:08:04.416Z</time></trkpt><trkpt lat="45.248845" lon="11.65707"><ele>170.0</ele><time>2026-05-01T08:08:09.42Z</time></trkpt><trkpt lat="45.2488417" lon="11.6571733"><ele>170.0</ele><time>2026-05-01T08:08:14.414Z</time></trkpt><trkpt lat="45.2488433" lon="11.657275"><ele>170.0</ele><time>2026-05-01T08:08:19.439Z</time></trkpt><trkpt lat="45.2488467" lon="11.6574183"><ele>170.71428571428572</ele><time>2026-05-01T08:08:27.422Z</time></trkpt><trkpt lat="45.2488533" lon="11.6575233"><ele>171.42857142857142</ele><time>2026-05-01T08:08:32.406Z</time></trkpt><trkpt lat="45.2488683" lon="11.6576183"><ele>172.14285714285714</ele><time>2026-05-01T08:08:37.423Z</time></trkpt><trkpt lat="45.2488617" lon="11.657725"><ele>172.85714285714286</ele><time>2026-05-01T08:08:42.42Z</time></trkpt><trkpt lat="45.24887" lon="11.6578167"><ele>173.57142857142856</ele><time>2026-05-01T08:08:46.423Z</time></trkpt><trkpt lat="45.248855" lon="11.657915"><ele>174.28571428571428</ele><time>2026-05-01T08:08:51.416Z</time></trkpt><trkpt lat="45.2488667" lon="11.6580033"><ele>175.0</ele><time>2026-05-01T08:08:55.43Z</time></trkpt><trkpt lat="45.24886" lon="11.6581083"><ele>175.85714285714286</ele><time>2026-05-01T08:09:00.401Z</time></trkpt><trkpt lat="45.2488683" lon="11.6582133"><ele>176.71428571428572</ele><time>2026-05-01T08:09:05.425Z</time></trkpt><trkpt lat="45.24886" lon="11.6583067"><ele>177.57142857142856</ele><time>2026-05-01T08:09:09.418Z</time></trkpt><trkpt lat="45.24887" lon="11.6584083"><ele>178.42857142857144</ele><time>2026-05-01T08:09:14.414Z</time></trkpt><trkpt lat="45.2488917" lon="11.658505"><ele>179.28571428571428</ele><time>2026-05-01T08:09:18.422Z</time></trkpt><trkpt lat="45.248885" lon="11.6586167"><ele>180.14285714285714</ele><time>2026-05-01T08:09:23.419Z</time></trkpt><trkpt lat="45.2488983" lon="11.658715"><ele>181.0</ele><time>2026-05-01T08:09:27.418Z</time></trkpt><trkpt lat="45.2488867" lon="11.6588133"><ele>181.85714285714286</ele><time>2026-05-01T08:09:31.424Z</time></trkpt><trkpt lat="45.248895" lon="11.65892"><ele>182.71428571428572</ele><time>2026-05-01T08:09:36.423Z</time></trkpt><trkpt lat="45.2488933" lon="11.659015"><ele>183.57142857142856</ele><time>2026-05-01T08:09:40.429Z</time></trkpt><trkpt lat="45.2489" lon="11.6591117"><ele>184.42857142857144</ele><time>2026-05-01T08:09:45.424Z</time></trkpt><trkpt lat="45.2488833" lon="11.6592033"><ele>185.2857142857143</ele><time>2026-05-01T08:09:49.424Z</time></trkpt><trkpt lat="45.248895" lon="11.6592917"><ele>186.14285714285714</ele><time>2026-05-01T08:09:53.395Z</time></trkpt><trkpt lat="45.248885" lon="11.6593833"><ele>187.0</ele><time>2026-05-01T08:09:57.406Z</time></trkpt><trkpt lat="45.2488783" lon="11.6594767"><ele>188.0</ele><time>2026-05-01T08:10:01.415Z</time></trkpt><trkpt lat="45.2488733" lon="11.6595833"><ele>189.0</ele><time>2026-05-01T08:10:05.424Z</time></trkpt><trkpt lat="45.248885" lon="11.6596833"><ele>190.0</ele><time>2026-05-01T08:10:09.425Z</time></trkpt><trkpt lat="45.2488883" lon="11.65978"><ele>191.0</ele><time>2026-05-01T08:10:13.415Z</time></trkpt><trkpt lat="45.248905" lon="11.6598833"><ele>192.0</ele><time>2026-05-01T08:10:17.425Z</time></trkpt><trkpt lat="45.248915" lon="11.6599883"><ele>193.0</ele><time>2026-05-01T08:10:21.417Z</time></trkpt><trkpt lat="45.2489367" lon="11.6600767"><ele>194.0</ele><time>2026-05-01T08:10:25.41Z</time></trkpt><trkpt lat="45.248945" lon="11.6601883"><ele>194.85714285714286</ele><time>2026-05-01T08:10:29.423Z</time></trkpt><trkpt lat="45.248975" lon="11.6602833"><ele>195.71428571428572</ele><time>2026-05-01T08:10:33.42Z</time></trkpt><trkpt lat="45.2489833" lon="11.66038"><ele>196.57142857142858</ele><time>2026-05-01T08:10:37.408Z</time></trkpt><trkpt lat="45.249005" lon="11.6604883"><ele>197.42857142857144</ele><time>2026-05-01T08:10:41.424Z</time></trkpt><trkpt lat="45.24901" lon="11.660595"><ele>198.28571428571428</ele><time>2026-05-01T08:10:45.423Z</time></trkpt><trkpt lat="45.24902" lon="11.6606867"><ele>199.14285714285717</ele><time>2026-05-01T08:10:48.418Z</time></trkpt><trkpt lat="45.249015" lon="11.6607783"><ele>200.0</ele><time>2026-05-01T08:10:51.422Z</time></trkpt><trkpt lat="45.2490033" lon="11.6608967"><ele>200.00000000000003</ele><time>2026-05-01T08:10:55.412Z</time></trkpt><trkpt lat="45.24898" lon="11.661005"><ele>200.0</ele><time>2026-05-01T08:10:59.423Z</time></trkpt><trkpt lat="45.2489667" lon="11.6611167"><ele>200.0</ele><time>2026-05-01T08:11:03.421Z</time></trkpt><trkpt lat="45.2489617" lon="11.6612067"><ele>200.0</ele><time>2026-05-01T08:11:06.423Z</time></trkpt><trkpt lat="45.24895" lon="11.6613"><ele>200.0</ele><time>2026-05-01T08:11:09.44Z</time></trkpt><trkpt lat="45.2489317" lon="11.66141"><ele>200.00000000000003</ele><time>2026-05-01T08:11:13.411Z</time></trkpt><trkpt lat="45.248925" lon="11.6615"><ele>200.0</ele><time>2026-05-01T08:11:16.394Z</time></trkpt><trkpt lat="45.2489183" lon="11.6616167"><ele>201.14285714285717</ele><time>2026-05-01T08:11:20.399Z</time></trkpt><trkpt lat="45.24891" lon="11.6617267"><ele>202.28571428571428</ele><time>2026-05-01T08:11:24.416Z</time></trkpt><trkpt lat="45.2489067" lon="11.6618433"><ele>203.42857142857144</ele><time>2026-05-01T08:11:28.416Z</time></trkpt><trkpt lat="45.2489083" lon="11.6619467"><ele>204.57142857142858</ele><time>2026-05-01T08:11:32.417Z</time></trkpt><trkpt lat="45.2489117" lon="11.6620567"><ele>205.71428571428572</ele><time>2026-05-01T08:11:36.417Z</time></trkpt><trkpt lat="45.2489133" lon="11.6621533"><ele>206.85714285714286</ele><time>2026-05-01T08:11:40.421Z</time></trkpt><trkpt lat="45.248925" lon="11.6622483"><ele>208.0</ele><time>2026-05-01T08:11:44.42Z</time></trkpt><trkpt lat="45.248915" lon="11.662355"><ele>208.85714285714286</ele><time>2026-05-01T08:11:49.398Z</time></trkpt><trkpt lat="45.2488883" lon="11.6624567"><ele>209.71428571428572</ele><time>2026-05-01T08:11:54.429Z</time></trkpt><trkpt lat="45.248885" lon="11.66255"><ele>210.57142857142858</ele><time>2026-05-01T08:11:58.425Z</time></trkpt><trkpt lat="45.2488917" lon="11.6626517"><ele>211.42857142857144</ele><time>2026-05-01T08:12:02.398Z</time></trkpt><trkpt lat="45.2488983" lon="11.6627433"><ele>212.28571428571428</ele><time>2026-05-01T08:12:05.431Z</time></trkpt><trkpt lat="45.2489083" lon="11.6628383"><ele>213.14285714285717</ele><time>2026-05-01T08:12:08.423Z</time></trkpt><trkpt lat="45.248925" lon="11.6629267"><ele>214.0</ele><time>2026-05-01T08:12:11.414Z</time></trkpt><trkpt lat="45.2489267" lon="11.663035"><ele>214.00000000000003</ele><time>2026-05-01T08:12:15.42Z</time></trkpt><trkpt lat="45.2489233" lon="11.6631317"><ele>214.0</ele><time>2026-05-01T08:12:18.423Z</time></trkpt><trkpt lat="45.24893" lon="11.6632267"><ele>214.0</ele><time>2026-05-01T08:12:21.423Z</time></trkpt><trkpt lat="45.248955" lon="11.66334"><ele>214.0</ele><time>2026-05-01T08:12:25.421Z</time></trkpt><trkpt lat="45.2489883" lon="11.6634233"><ele>214.0</ele><time>2026-05-01T08:12:28.43Z</time></trkpt><trkpt lat="45.2490367" lon="11.6634917"><ele>214.00000000000003</ele><time>2026-05-01T08:12:31.432Z</time></trkpt><trkpt lat="45.2490767" lon="11.6635733"><ele>214.0</ele><time>2026-05-01T08:12:34.393Z</time></trkpt><trkpt lat="45.249125" lon="11.66368"><ele>214.57142857142858</ele><time>2026-05-01T08:12:38.427Z</time></trkpt><trkpt lat="45.249165" lon="11.6637517"><ele>215.14285714285714</ele><time>2026-05-01T08:12:41.419Z</time></trkpt><trkpt lat="45.24921" lon="11.66383"><ele>215.71428571428572</ele><time>2026-05-01T08:12:44.422Z</time></trkpt><trkpt lat="45.249265" lon="11.663905"><ele>216.28571428571428</ele><time>2026-05-01T08:12:47.421Z</time></trkpt><trkpt lat="45.24932" lon="11.66397"><ele>216.85714285714286</ele><time>2026-05-01T08:12:50.413Z</time></trkpt><trkpt lat="45.2493633" lon="11.66404"><ele>217.42857142857144</ele><time>2026-05-01T08:12:53.421Z</time></trkpt><trkpt lat="45.2494017" lon="11.6641133"><ele>218.0</ele><time>2026-05-01T08:12:56.424Z</time></trkpt><trkpt lat="45.24944" lon="11.6641883"><ele>218.00000000000003</ele><time>2026-05-01T08:12:59.471Z</time></trkpt><trkpt lat="45.249485" lon="11.6642783"><ele>218.0</ele><time>2026-05-01T08:13:03.425Z</time></trkpt><trkpt lat="45.2495333" lon="11.6643717"><ele>218.0</ele><time>2026-05-01T08:13:07.404Z</time></trkpt><trkpt lat="45.2495833" lon="11.664455"><ele>218.0</ele><time>2026-05-01T08:13:11.433Z</time></trkpt><trkpt lat="45.2496267" lon="11.66455"><ele>218.00000000000003</ele><time>2026-05-01T08:13:15.419Z</time></trkpt><trkpt lat="45.2496667" lon="11.6646383"><ele>218.0</ele><time>2026-05-01T08:13:19.407Z</time></trkpt><trkpt lat="45.2497083" lon="11.6647183"><ele>218.28571428571428</ele><time>2026-05-01T08:13:23.424Z</time></trkpt><trkpt lat="45.2497483" lon="11.6648033"><ele>218.57142857142858</ele><time>2026-05-01T08:13:28.43Z</time></trkpt><trkpt lat="45.2497783" lon="11.6648933"><ele>218.85714285714283</ele><time>2026-05-01T08:13:32.419Z</time></trkpt><trkpt lat="45.2498017" lon="11.6649967"><ele>219.14285714285714</ele><time>2026-05-01T08:13:37.386Z</time></trkpt><trkpt lat="45.24982" lon="11.6650867"><ele>219.42857142857142</ele><time>2026-05-01T08:13:41.411Z</time></trkpt><trkpt lat="45.2498383" lon="11.6651933"><ele>219.7142857142857</ele><time>2026-05-01T08:13:45.402Z</time></trkpt><trkpt lat="45.2498467" lon="11.6652983"><ele>220.0</ele><time>2026-05-01T08:13:49.44Z</time></trkpt><trkpt lat="45.24985" lon="11.6654017"><ele>220.16666666666666</ele><time>2026-05-01T08:13:53.393Z</time></trkpt><trkpt lat="45.249845" lon="11.66553"><ele>220.33333333333331</ele><time>2026-05-01T08:13:57.414Z</time></trkpt><trkpt lat="45.2498417" lon="11.66566"><ele>220.5</ele><time>2026-05-01T08:14:00.453Z</time></trkpt><trkpt lat="45.2498233" lon="11.6657733"><ele>220.66666666666669</ele><time>2026-05-01T08:14:03.393Z</time></trkpt><trkpt lat="45.249805" lon="11.6658883"><ele>220.83333333333334</ele><time>2026-05-01T08:14:06.402Z</time></trkpt><trkpt lat="45.2497667" lon="11.66601"><ele>221.0</ele><time>2026-05-01T08:14:09.421Z</time></trkpt><trkpt lat="45.2497317" lon="11.6660983"><ele>221.8</ele><time>2026-05-01T08:14:11.421Z</time></trkpt><trkpt lat="45.2497" lon="11.6662"><ele>222.60000000000002</ele><time>2026-05-01T08:14:13.417Z</time></trkpt><trkpt lat="45.2496517" lon="11.66631"><ele>223.4</ele><time>2026-05-01T08:14:15.424Z</time></trkpt><trkpt lat="45.2496083" lon="11.6664417"><ele>224.2</ele><time>2026-05-01T08:14:17.423Z</time></trkpt><trkpt lat="45.249555" lon="11.6665767"><ele>225.0</ele><time>2026-05-01T08:14:19.42Z</time></trkpt><trkpt lat="45.2495" lon="11.6667083"><ele>225.0</ele><time>2026-05-01T08:14:21.423Z</time></trkpt><trkpt lat="45.2494183" lon="11.6668333"><ele>225.0</ele><time>2026-05-01T08:14:23.43Z</time></trkpt><trkpt lat="45.2493317" lon="11.6669383"><ele>225.0</ele><time>2026-05-01T08:14:25.426Z</time></trkpt><trkpt lat="45.2492483" lon="11.6670383"><ele>225.0</ele><time>2026-05-01T08:14:27.427Z</time></trkpt><trkpt lat="45.2491667" lon="11.6671267"><ele>225.0</ele><time>2026-05-01T08:14:29.424Z</time></trkpt><trkpt lat="45.2490833" lon="11.66722"><ele>224.83333333333334</ele><time>2026-05-01T08:14:31.424Z</time></trkpt><trkpt lat="45.2490067" lon="11.66731"><ele>224.66666666666669</ele><time>2026-05-01T08:14:33.416Z</time></trkpt><trkpt lat="45.2489333" lon="11.66739"><ele>224.5</ele><time>2026-05-01T08:14:35.416Z</time></trkpt><trkpt lat="45.248865" lon="11.667465"><ele>224.33333333333334</ele><time>2026-05-01T08:14:37.404Z</time></trkpt><trkpt lat="45.2488033" lon="11.66754"><ele>224.16666666666669</ele><time>2026-05-01T08:14:39.421Z</time></trkpt><trkpt lat="45.2487417" lon="11.667615"><ele>224.0</ele><time>2026-05-01T08:14:41.425Z</time></trkpt><trkpt lat="45.24868" lon="11.6676783"><ele>224.33333333333334</ele><time>2026-05-01T08:14:43.416Z</time></trkpt><trkpt lat="45.2486217" lon="11.6677367"><ele>224.66666666666669</ele><time>2026-05-01T08:14:45.418Z</time></trkpt><trkpt lat="45.24856" lon="11.6678017"><ele>225.0</ele><time>2026-05-01T08:14:47.417Z</time></trkpt><trkpt lat="45.248485" lon="11.6678667"><ele>225.33333333333331</ele><time>2026-05-01T08:14:49.415Z</time></trkpt><trkpt lat="45.2484167" lon="11.667935"><ele>225.66666666666666</ele><time>2026-05-01T08:14:51.415Z</time></trkpt><trkpt lat="45.2483633" lon="11.66801"><ele>226.0</ele><time>2026-05-01T08:14:53.413Z</time></trkpt><trkpt lat="45.2483067" lon="11.6680733"><ele>225.99999999999997</ele><time>2026-05-01T08:14:55.424Z</time></trkpt><trkpt lat="45.2482517" lon="11.6681483"><ele>226.0</ele><time>2026-05-01T08:14:57.426Z</time></trkpt><trkpt lat="45.2482067" lon="11.6682167"><ele>226.0</ele><time>2026-05-01T08:14:59.436Z</time></trkpt><trkpt lat="45.2481533" lon="11.6682683"><ele>226.0</ele><time>2026-05-01T08:15:02.385Z</time></trkpt><trkpt lat="45.2480733" lon="11.668305"><ele>225.99999999999997</ele><time>2026-05-01T08:15:05.412Z</time></trkpt><trkpt lat="45.24815" lon="11.6682783"><ele>226.0</ele><time>2026-05-01T08:19:33.416Z</time></trkpt><trkpt lat="45.2482317" lon="11.66821"><ele>225.99999999999997</ele><time>2026-05-01T08:19:36.412Z</time></trkpt><trkpt lat="45.2482883" lon="11.6681133"><ele>226.0</ele><time>2026-05-01T08:19:38.375Z</time></trkpt><trkpt lat="45.2483533" lon="11.6680433"><ele>226.0</ele><time>2026-05-01T08:19:40.375Z</time></trkpt><trkpt lat="45.2484167" lon="11.6679817"><ele>226.0</ele><time>2026-05-01T08:19:42.379Z</time></trkpt><trkpt lat="45.24848" lon="11.6679183"><ele>225.99999999999997</ele><time>2026-05-01T08:19:44.409Z</time></trkpt><trkpt lat="45.2485417" lon="11.6678583"><ele>226.0</ele><time>2026-05-01T08:19:46.419Z</time></trkpt><trkpt lat="45.2486033" lon="11.6678"><ele>225.71428571428572</ele><time>2026-05-01T08:19:48.423Z</time></trkpt><trkpt lat="45.24866" lon="11.6677417"><ele>225.42857142857142</ele><time>2026-05-01T08:19:50.424Z</time></trkpt><trkpt lat="45.2487133" lon="11.6676817"><ele>225.14285714285714</ele><time>2026-05-01T08:19:52.417Z</time></trkpt><trkpt lat="45.2487667" lon="11.6676117"><ele>224.85714285714286</ele><time>2026-05-01T08:19:54.405Z</time></trkpt><trkpt lat="45.2488267" lon="11.6675367"><ele>224.57142857142856</ele><time>2026-05-01T08:19:56.423Z</time></trkpt><trkpt lat="45.248885" lon="11.6674633"><ele>224.28571428571428</ele><time>2026-05-01T08:19:58.426Z</time></trkpt><trkpt lat="45.248945" lon="11.6673867"><ele>224.0</ele><time>2026-05-01T08:20:00.475Z</time></trkpt><trkpt lat="45.2490083" lon="11.6673117"><ele>224.00000000000003</ele><time>2026-05-01T08:20:02.419Z</time></trkpt><trkpt lat="45.2490767" lon="11.667235"><ele>224.0</ele><time>2026-05-01T08:20:04.402Z</time></trkpt><trkpt lat="45.2491467" lon="11.6671583"><ele>224.0</ele><time>2026-05-01T08:20:06.421Z</time></trkpt><trkpt lat="45.2492167" lon="11.667085"><ele>224.0</ele><time>2026-05-01T08:20:08.42Z</time></trkpt><trkpt lat="45.249285" lon="11.6670067"><ele>224.00000000000003</ele><time>2026-05-01T08:20:10.425Z</time></trkpt><trkpt lat="45.24935" lon="11.666935"><ele>224.0</ele><time>2026-05-01T08:20:12.421Z</time></trkpt><trkpt lat="45.249415" lon="11.666865"><ele>224.14285714285714</ele><time>2026-05-01T08:20:14.424Z</time></trkpt><trkpt lat="45.2494683" lon="11.6667883"><ele>224.28571428571428</ele><time>2026-05-01T08:20:16.417Z</time></trkpt><trkpt lat="45.2495117" lon="11.666705"><ele>224.42857142857144</ele><time>2026-05-01T08:20:18.416Z</time></trkpt><trkpt lat="45.2495483" lon="11.6666167"><ele>224.57142857142858</ele><time>2026-05-01T08:20:20.424Z</time></trkpt><trkpt lat="45.24958" lon="11.66652"><ele>224.71428571428572</ele><time>2026-05-01T08:20:22.42Z</time></trkpt><trkpt lat="45.2496083" lon="11.66642"><ele>224.8571428571429</ele><time>2026-05-01T08:20:24.429Z</time></trkpt><trkpt lat="45.2496383" lon="11.6663267"><ele>225.00000000000003</ele><time>2026-05-01T08:20:26.424Z</time></trkpt><trkpt lat="45.249675" lon="11.6662433"><ele>225.00000000000003</ele><time>2026-05-01T08:20:28.418Z</time></trkpt><trkpt lat="45.249715" lon="11.6661633"><ele>225.0</ele><time>2026-05-01T08:20:30.423Z</time></trkpt><trkpt lat="45.2497467" lon="11.6660817"><ele>225.00000000000003</ele><time>2026-05-01T08:20:32.421Z</time></trkpt><trkpt lat="45.2497767" lon="11.6659867"><ele>225.00000000000003</ele><time>2026-05-01T08:20:34.421Z</time></trkpt><trkpt lat="45.2497983" lon="11.6658883"><ele>225.0</ele><time>2026-05-01T08:20:36.401Z</time></trkpt><trkpt lat="45.24982" lon="11.6657867"><ele>225.00000000000003</ele><time>2026-05-01T08:20:38.419Z</time></trkpt><trkpt lat="45.2498333" lon="11.6656867"><ele>225.00000000000003</ele><time>2026-05-01T08:20:40.414Z</time></trkpt><trkpt lat="45.24984" lon="11.6655767"><ele>225.6</ele><time>2026-05-01T08:20:42.392Z</time></trkpt><trkpt lat="45.2498517" lon="11.6654517"><ele>226.2</ele><time>2026-05-01T08:20:44.423Z</time></trkpt><trkpt lat="45.2498483" lon="11.665305"><ele>226.8</ele><time>2026-05-01T08:20:46.425Z</time></trkpt><trkpt lat="45.249835" lon="11.665135"><ele>227.4</ele><time>2026-05-01T08:20:48.415Z</time></trkpt><trkpt lat="45.24982" lon="11.6650367"><ele>228.0</ele><time>2026-05-01T08:20:49.421Z</time></trkpt><trkpt lat="45.249795" lon="11.66494"><ele>226.66666666666666</ele><time>2026-05-01T08:20:50.422Z</time></trkpt><trkpt lat="45.249765" lon="11.6648417"><ele>225.33333333333331</ele><time>2026-05-01T08:20:51.421Z</time></trkpt><trkpt lat="45.2497283" lon="11.66474"><ele>224.0</ele><time>2026-05-01T08:20:52.412Z</time></trkpt><trkpt lat="45.2496883" lon="11.66464"><ele>222.66666666666666</ele><time>2026-05-01T08:20:53.421Z</time></trkpt><trkpt lat="45.2496483" lon="11.66454"><ele>221.33333333333331</ele><time>2026-05-01T08:20:54.412Z</time></trkpt><trkpt lat="45.2496067" lon="11.6644483"><ele>220.0</ele><time>2026-05-01T08:20:55.42Z</time></trkpt><trkpt lat="45.2495683" lon="11.6643617"><ele>219.7142857142857</ele><time>2026-05-01T08:20:56.422Z</time></trkpt><trkpt lat="45.2495283" lon="11.66428"><ele>219.42857142857142</ele><time>2026-05-01T08:20:57.424Z</time></trkpt><trkpt lat="45.249485" lon="11.6641983"><ele>219.14285714285714</ele><time>2026-05-01T08:20:58.422Z</time></trkpt><trkpt lat="45.2494417" lon="11.664115"><ele>218.85714285714283</ele><time>2026-05-01T08:20:59.423Z</time></trkpt><trkpt lat="45.2493983" lon="11.6640367"><ele>218.57142857142858</ele><time>2026-05-01T08:21:00.423Z</time></trkpt><trkpt lat="45.2493483" lon="11.6639567"><ele>218.28571428571428</ele><time>2026-05-01T08:21:01.422Z</time></trkpt><trkpt lat="45.249295" lon="11.6638783"><ele>218.0</ele><time>2026-05-01T08:21:02.385Z</time></trkpt><trkpt lat="45.24924" lon="11.6638"><ele>218.0</ele><time>2026-05-01T08:21:03.381Z</time></trkpt><trkpt lat="45.24919" lon="11.6637167"><ele>218.0</ele><time>2026-05-01T08:21:04.381Z</time></trkpt><trkpt lat="45.2491433" lon="11.6636333"><ele>218.0</ele><time>2026-05-01T08:21:05.383Z</time></trkpt><trkpt lat="45.2491033" lon="11.66355"><ele>218.0</ele><time>2026-05-01T08:21:06.382Z</time></trkpt><trkpt lat="45.24907" lon="11.66346"><ele>218.0</ele><time>2026-05-01T08:21:07.383Z</time></trkpt><trkpt lat="45.2490367" lon="11.663365"><ele>218.0</ele><time>2026-05-01T08:21:08.396Z</time></trkpt><trkpt lat="45.2490083" lon="11.6632683"><ele>218.0</ele><time>2026-05-01T08:21:09.418Z</time></trkpt><trkpt lat="45.2489783" lon="11.663175"><ele>217.71428571428572</ele><time>2026-05-01T08:21:10.419Z</time></trkpt><trkpt lat="45.24895" lon="11.66308"><ele>217.42857142857144</ele><time>2026-05-01T08:21:11.419Z</time></trkpt><trkpt lat="45.2489233" lon="11.6629833"><ele>217.14285714285714</ele><time>2026-05-01T08:21:12.42Z</time></trkpt><trkpt lat="45.2488967" lon="11.6628883"><ele>216.85714285714286</ele><time>2026-05-01T08:21:13.419Z</time></trkpt><trkpt lat="45.248865" lon="11.6627933"><ele>216.57142857142856</ele><time>2026-05-01T08:21:14.419Z</time></trkpt><trkpt lat="45.248825" lon="11.6627033"><ele>216.28571428571428</ele><time>2026-05-01T08:21:15.413Z</time></trkpt><trkpt lat="45.248775" lon="11.66262"><ele>216.0</ele><time>2026-05-01T08:21:16.425Z</time></trkpt><trkpt lat="45.2487167" lon="11.6625367"><ele>216.0</ele><time>2026-05-01T08:21:17.426Z</time></trkpt><trkpt lat="45.2486533" lon="11.662455"><ele>216.0</ele><time>2026-05-01T08:21:18.421Z</time></trkpt><trkpt lat="45.24859" lon="11.6623733"><ele>216.0</ele><time>2026-05-01T08:21:19.391Z</time></trkpt><trkpt lat="45.2485233" lon="11.6622867"><ele>216.0</ele><time>2026-05-01T08:21:20.417Z</time></trkpt><trkpt lat="45.248455" lon="11.6621983"><ele>216.0</ele><time>2026-05-01T08:21:21.419Z</time></trkpt><trkpt lat="45.2483883" lon="11.6621117"><ele>216.0</ele><time>2026-05-01T08:21:22.443Z</time></trkpt><trkpt lat="45.2483167" lon="11.6620233"><ele>215.0</ele><time>2026-05-01T08:21:23.415Z</time></trkpt><trkpt lat="45.2482433" lon="11.6619333"><ele>214.00000000000003</ele><time>2026-05-01T08:21:24.425Z</time></trkpt><trkpt lat="45.24817" lon="11.6618433"><ele>213.0</ele><time>2026-05-01T08:21:25.42Z</time></trkpt><trkpt lat="45.2481" lon="11.6617567"><ele>212.0</ele><time>2026-05-01T08:21:26.408Z</time></trkpt><trkpt lat="45.2480333" lon="11.6616817"><ele>211.0</ele><time>2026-05-01T08:21:27.421Z</time></trkpt><trkpt lat="45.2479567" lon="11.6616183"><ele>211.0</ele><time>2026-05-01T08:21:28.396Z</time></trkpt><trkpt lat="45.2478767" lon="11.6615683"><ele>211.0</ele><time>2026-05-01T08:21:29.415Z</time></trkpt><trkpt lat="45.2477917" lon="11.6615267"><ele>211.0</ele><time>2026-05-01T08:21:30.421Z</time></trkpt><trkpt lat="45.2477017" lon="11.6614883"><ele>211.0</ele><time>2026-05-01T08:21:31.422Z</time></trkpt><trkpt lat="45.2476067" lon="11.661455"><ele>211.0</ele><time>2026-05-01T08:21:32.394Z</time></trkpt><trkpt lat="45.2475083" lon="11.6614267"><ele>211.0</ele><time>2026-05-01T08:21:33.414Z</time></trkpt><trkpt lat="45.2474067" lon="11.6614"><ele>211.0</ele><time>2026-05-01T08:21:34.421Z</time></trkpt><trkpt lat="45.247305" lon="11.6613683"><ele>211.0</ele><time>2026-05-01T08:21:35.421Z</time></trkpt><trkpt lat="45.2472017" lon="11.6613317"><ele>211.0</ele><time>2026-05-01T08:21:36.418Z</time></trkpt><trkpt lat="45.247095" lon="11.66129"><ele>211.0</ele><time>2026-05-01T08:21:37.426Z</time></trkpt><trkpt lat="45.2469883" lon="11.661245"><ele>208.75</ele><time>2026-05-01T08:21:38.426Z</time></trkpt><trkpt lat="45.2468817" lon="11.6612033"><ele>206.5</ele><time>2026-05-01T08:21:39.422Z</time></trkpt><trkpt lat="45.2467717" lon="11.66116"><ele>204.25</ele><time>2026-05-01T08:21:40.396Z</time></trkpt><trkpt lat="45.2466617" lon="11.6611167"><ele>202.0</ele><time>2026-05-01T08:21:41.415Z</time></trkpt><trkpt lat="45.2465483" lon="11.6610717"><ele>202.0</ele><time>2026-05-01T08:21:42.422Z</time></trkpt><trkpt lat="45.2464333" lon="11.6610283"><ele>202.0</ele><time>2026-05-01T08:21:43.423Z</time></trkpt><trkpt lat="45.2463167" lon="11.6609833"><ele>202.0</ele><time>2026-05-01T08:21:44.423Z</time></trkpt><trkpt lat="45.2462017" lon="11.6609333"><ele>202.0</ele><time>2026-05-01T08:21:45.386Z</time></trkpt><trkpt lat="45.24609" lon="11.6608717"><ele>202.0</ele><time>2026-05-01T08:21:46.384Z</time></trkpt><trkpt lat="45.2459817" lon="11.660795"><ele>202.0</ele><time>2026-05-01T08:21:47.382Z</time></trkpt><trkpt lat="45.24588" lon="11.6607067"><ele>202.0</ele><time>2026-05-01T08:21:48.382Z</time></trkpt><trkpt lat="45.2457767" lon="11.6606117"><ele>202.0</ele><time>2026-05-01T08:21:49.42Z</time></trkpt><trkpt lat="45.2456783" lon="11.660535"><ele>201.8</ele><time>2026-05-01T08:21:50.454Z</time></trkpt><trkpt lat="45.245595" lon="11.6604433"><ele>201.6</ele><time>2026-05-01T08:21:51.435Z</time></trkpt><trkpt lat="45.245525" lon="11.6603283"><ele>201.4</ele><time>2026-05-01T08:21:52.389Z</time></trkpt><trkpt lat="45.2454583" lon="11.6602033"><ele>201.20000000000002</ele><time>2026-05-01T08:21:53.387Z</time></trkpt><trkpt lat="45.245385" lon="11.6600783"><ele>201.0</ele><time>2026-05-01T08:21:54.412Z</time></trkpt><trkpt lat="45.245315" lon="11.6599517"><ele>201.0</ele><time>2026-05-01T08:21:55.392Z</time></trkpt><trkpt lat="45.2452367" lon="11.6598483"><ele>201.0</ele><time>2026-05-01T08:21:56.39Z</time></trkpt><trkpt lat="45.2451367" lon="11.6597683"><ele>201.0</ele><time>2026-05-01T08:21:57.398Z</time></trkpt><trkpt lat="45.2450283" lon="11.6596983"><ele>201.0</ele><time>2026-05-01T08:21:58.42Z</time></trkpt><trkpt lat="45.2449167" lon="11.6596483"><ele>201.0</ele><time>2026-05-01T08:21:59.426Z</time></trkpt><trkpt lat="45.2448" lon="11.6596217"><ele>201.0</ele><time>2026-05-01T08:22:00.417Z</time></trkpt><trkpt lat="45.2446817" lon="11.65961"><ele>201.0</ele><time>2026-05-01T08:22:01.42Z</time></trkpt><trkpt lat="45.24456" lon="11.6596083"><ele>201.0</ele><time>2026-05-01T08:22:02.403Z</time></trkpt><trkpt lat="45.2444367" lon="11.6596017"><ele>201.5</ele><time>2026-05-01T08:22:03.418Z</time></trkpt><trkpt lat="45.24431" lon="11.659595"><ele>202.0</ele><time>2026-05-01T08:22:04.415Z</time></trkpt><trkpt lat="45.2441817" lon="11.6595917"><ele>202.5</ele><time>2026-05-01T08:22:05.421Z</time></trkpt><trkpt lat="45.24405" lon="11.6595867"><ele>203.0</ele><time>2026-05-01T08:22:06.418Z</time></trkpt><trkpt lat="45.2439133" lon="11.6595817"><ele>202.0</ele><time>2026-05-01T08:22:07.415Z</time></trkpt><trkpt lat="45.2437733" lon="11.6595783"><ele>201.0</ele><time>2026-05-01T08:22:08.416Z</time></trkpt><trkpt lat="45.2436317" lon="11.6595767"><ele>200.0</ele><time>2026-05-01T08:22:09.4Z</time></trkpt><trkpt lat="45.243485" lon="11.6595717"><ele>199.0</ele><time>2026-05-01T08:22:10.417Z</time></trkpt><trkpt lat="45.2433417" lon="11.65957"><ele>199.0</ele><time>2026-05-01T08:22:11.42Z</time></trkpt><trkpt lat="45.2431983" lon="11.6595683"><ele>199.0</ele><time>2026-05-01T08:22:12.42Z</time></trkpt><trkpt lat="45.2430483" lon="11.659565"><ele>199.0</ele><time>2026-05-01T08:22:13.415Z</time></trkpt><trkpt lat="45.2428967" lon="11.6595583"><ele>199.0</ele><time>2026-05-01T08:22:14.416Z</time></trkpt><trkpt lat="45.2427467" lon="11.6595467"><ele>196.5</ele><time>2026-05-01T08:22:15.415Z</time></trkpt><trkpt lat="45.2425967" lon="11.6595267"><ele>194.0</ele><time>2026-05-01T08:22:16.417Z</time></trkpt><trkpt lat="45.24245" lon="11.6595017"><ele>191.5</ele><time>2026-05-01T08:22:17.406Z</time></trkpt><trkpt lat="45.2423117" lon="11.659475"><ele>189.0</ele><time>2026-05-01T08:22:18.403Z</time></trkpt><trkpt lat="45.2421783" lon="11.6594533"><ele>183.25</ele><time>2026-05-01T08:22:19.406Z</time></trkpt><trkpt lat="45.242045" lon="11.6594333"><ele>177.5</ele><time>2026-05-01T08:22:20.416Z</time></trkpt><trkpt lat="45.24192" lon="11.6594133"><ele>171.75</ele><time>2026-05-01T08:22:21.418Z</time></trkpt><trkpt lat="45.2418" lon="11.6593967"><ele>166.0</ele><time>2026-05-01T08:22:22.414Z</time></trkpt><trkpt lat="45.2416833" lon="11.6593817"><ele>166.0</ele><time>2026-05-01T08:22:23.419Z</time></trkpt><trkpt lat="45.241575" lon="11.6593667"><ele>166.0</ele><time>2026-05-01T08:22:24.421Z</time></trkpt><trkpt lat="45.241475" lon="11.6593517"><ele>166.0</ele><time>2026-05-01T08:22:25.42Z</time></trkpt><trkpt lat="45.241385" lon="11.65934"><ele>166.0</ele><time>2026-05-01T08:22:26.423Z</time></trkpt><trkpt lat="45.2412983" lon="11.6593333"><ele>166.0</ele><time>2026-05-01T08:22:27.418Z</time></trkpt><trkpt lat="45.2412217" lon="11.6593317"><ele>165.5</ele><time>2026-05-01T08:22:28.422Z</time></trkpt><trkpt lat="45.2411483" lon="11.6593233"><ele>165.0</ele><time>2026-05-01T08:22:29.424Z</time></trkpt><trkpt lat="45.241085" lon="11.6592967"><ele>164.5</ele><time>2026-05-01T08:22:30.422Z</time></trkpt><trkpt lat="45.2410117" lon="11.6591567"><ele>164.0</ele><time>2026-05-01T08:22:32.425Z</time></trkpt><trkpt lat="45.2410083" lon="11.659055"><ele>163.5</ele><time>2026-05-01T08:22:33.426Z</time></trkpt><trkpt lat="45.2410333" lon="11.6589617"><ele>163.0</ele><time>2026-05-01T08:22:34.402Z</time></trkpt><trkpt lat="45.2410867" lon="11.6588817"><ele>163.0</ele><time>2026-05-01T08:22:35.424Z</time></trkpt><trkpt lat="45.2411633" lon="11.6588233"><ele>163.0</ele><time>2026-05-01T08:22:36.43Z</time></trkpt><trkpt lat="45.2412483" lon="11.6587783"><ele>163.0</ele><time>2026-05-01T08:22:37.415Z</time></trkpt><trkpt lat="45.2413417" lon="11.6587483"><ele>163.0</ele><time>2026-05-01T08:22:38.423Z</time></trkpt><trkpt lat="45.2414417" lon="11.6587267"><ele>163.0</ele><time>2026-05-01T08:22:39.423Z</time></trkpt><trkpt lat="45.241545" lon="11.6587067"><ele>163.60000000000002</ele><time>2026-05-01T08:22:40.424Z</time></trkpt><trkpt lat="45.24165" lon="11.6586883"><ele>164.20000000000002</ele><time>2026-05-01T08:22:41.424Z</time></trkpt><trkpt lat="45.2417583" lon="11.65867"><ele>164.8</ele><time>2026-05-01T08:22:42.423Z</time></trkpt><trkpt lat="45.2418667" lon="11.65865"><ele>165.4</ele><time>2026-05-01T08:22:43.411Z</time></trkpt><trkpt lat="45.24198" lon="11.6586283"><ele>166.0</ele><time>2026-05-01T08:22:44.406Z</time></trkpt><trkpt lat="45.2420917" lon="11.6586133"><ele>162.8</ele><time>2026-05-01T08:22:45.414Z</time></trkpt><trkpt lat="45.2422" lon="11.6586"><ele>159.60000000000002</ele><time>2026-05-01T08:22:46.41Z</time></trkpt><trkpt lat="45.2423017" lon="11.6585833"><ele>156.4</ele><time>2026-05-01T08:22:47.416Z</time></trkpt><trkpt lat="45.2423917" lon="11.6585633"><ele>153.2</ele><time>2026-05-01T08:22:48.414Z</time></trkpt><trkpt lat="45.2424733" lon="11.65853"><ele>150.0</ele><time>2026-05-01T08:22:49.422Z</time></trkpt><trkpt lat="45.2425417" lon="11.6584767"><ele>149.99999999999997</ele><time>2026-05-01T08:22:50.405Z</time></trkpt><trkpt lat="45.2425883" lon="11.6584"><ele>150.0</ele><time>2026-05-01T08:22:51.421Z</time></trkpt><trkpt lat="45.2426117" lon="11.6583017"><ele>150.0</ele><time>2026-05-01T08:22:52.413Z</time></trkpt><trkpt lat="45.2426083" lon="11.6581967"><ele>150.0</ele><time>2026-05-01T08:22:53.421Z</time></trkpt><trkpt lat="45.2425833" lon="11.658105"><ele>150.0</ele><time>2026-05-01T08:22:54.425Z</time></trkpt><trkpt lat="45.242535" lon="11.6580333"><ele>149.99999999999997</ele><time>2026-05-01T08:22:55.405Z</time></trkpt><trkpt lat="45.2424633" lon="11.6579867"><ele>150.0</ele><time>2026-05-01T08:22:56.418Z</time></trkpt><trkpt lat="45.2423767" lon="11.6579617"><ele>149.8</ele><time>2026-05-01T08:22:57.421Z</time></trkpt><trkpt lat="45.2422833" lon="11.6579467"><ele>149.6</ele><time>2026-05-01T08:22:58.423Z</time></trkpt><trkpt lat="45.2421833" lon="11.6579383"><ele>149.4</ele><time>2026-05-01T08:22:59.427Z</time></trkpt><trkpt lat="45.24208" lon="11.657935"><ele>149.2</ele><time>2026-05-01T08:23:00.437Z</time></trkpt><trkpt lat="45.2419717" lon="11.65793"><ele>149.0</ele><time>2026-05-01T08:23:01.429Z</time></trkpt><trkpt lat="45.2418617" lon="11.6579217"><ele>149.0</ele><time>2026-05-01T08:23:02.424Z</time></trkpt><trkpt lat="45.2417533" lon="11.6579083"><ele>149.0</ele><time>2026-05-01T08:23:03.422Z</time></trkpt><trkpt lat="45.241645" lon="11.6578933"><ele>149.0</ele><time>2026-05-01T08:23:04.423Z</time></trkpt><trkpt lat="45.2415367" lon="11.6578767"><ele>149.0</ele><time>2026-05-01T08:23:05.423Z</time></trkpt><trkpt lat="45.2414267" lon="11.657865"><ele>149.0</ele><time>2026-05-01T08:23:06.407Z</time></trkpt><trkpt lat="45.2413183" lon="11.6578567"><ele>149.6</ele><time>2026-05-01T08:23:07.423Z</time></trkpt><trkpt lat="45.2412083" lon="11.6578517"><ele>150.2</ele><time>2026-05-01T08:23:08.405Z</time></trkpt><trkpt lat="45.2411" lon="11.6578517"><ele>150.79999999999998</ele><time>2026-05-01T08:23:09.42Z</time></trkpt><trkpt lat="45.2409917" lon="11.657855"><ele>151.4</ele><time>2026-05-01T08:23:10.42Z</time></trkpt><trkpt lat="45.240885" lon="11.6578583"><ele>152.0</ele><time>2026-05-01T08:23:11.42Z</time></trkpt><trkpt lat="45.2407833" lon="11.6578583"><ele>152.0</ele><time>2026-05-01T08:23:12.416Z</time></trkpt><trkpt lat="45.2406817" lon="11.65786"><ele>152.0</ele><time>2026-05-01T08:23:13.422Z</time></trkpt><trkpt lat="45.2405783" lon="11.657865"><ele>152.0</ele><time>2026-05-01T08:23:14.423Z</time></trkpt><trkpt lat="45.2404783" lon="11.6578683"><ele>152.0</ele><time>2026-05-01T08:23:15.424Z</time></trkpt><trkpt lat="45.2403817" lon="11.6578717"><ele>152.0</ele><time>2026-05-01T08:23:16.423Z</time></trkpt><trkpt lat="45.2402817" lon="11.6578783"><ele>150.0</ele><time>2026-05-01T08:23:17.428Z</time></trkpt><trkpt lat="45.2401833" lon="11.657895"><ele>148.0</ele><time>2026-05-01T08:23:18.421Z</time></trkpt><trkpt lat="45.240085" lon="11.6579333"><ele>146.0</ele><time>2026-05-01T08:23:19.423Z</time></trkpt><trkpt lat="45.2399933" lon="11.6579967"><ele>144.0</ele><time>2026-05-01T08:23:20.423Z</time></trkpt><trkpt lat="45.239915" lon="11.65809"><ele>142.0</ele><time>2026-05-01T08:23:21.421Z</time></trkpt><trkpt lat="45.2398533" lon="11.658205"><ele>142.0</ele><time>2026-05-01T08:23:22.396Z</time></trkpt><trkpt lat="45.2398033" lon="11.6583333"><ele>142.0</ele><time>2026-05-01T08:23:23.419Z</time></trkpt><trkpt lat="45.239755" lon="11.6584667"><ele>142.0</ele><time>2026-05-01T08:23:24.428Z</time></trkpt><trkpt lat="45.2397033" lon="11.6586033"><ele>142.0</ele><time>2026-05-01T08:23:25.42Z</time></trkpt><trkpt lat="45.239655" lon="11.6587383"><ele>142.0</ele><time>2026-05-01T08:23:26.424Z</time></trkpt><trkpt lat="45.2396067" lon="11.6588717"><ele>140.2</ele><time>2026-05-01T08:23:27.423Z</time></trkpt><trkpt lat="45.2395583" lon="11.6590033"><ele>138.39999999999998</ele><time>2026-05-01T08:23:28.422Z</time></trkpt><trkpt lat="45.2395133" lon="11.659135"><ele>136.60000000000002</ele><time>2026-05-01T08:23:29.432Z</time></trkpt><trkpt lat="45.2394667" lon="11.659265"><ele>134.8</ele><time>2026-05-01T08:23:30.406Z</time></trkpt><trkpt lat="45.2394217" lon="11.6593933"><ele>133.0</ele><time>2026-05-01T08:23:31.424Z</time></trkpt><trkpt lat="45.2393783" lon="11.65952"><ele>133.0</ele><time>2026-05-01T08:23:32.427Z</time></trkpt><trkpt lat="45.2393317" lon="11.6596417"><ele>133.0</ele><time>2026-05-01T08:23:33.424Z</time></trkpt><trkpt lat="45.2392867" lon="11.65976"><ele>133.0</ele><time>2026-05-01T08:23:34.424Z</time></trkpt><trkpt lat="45.2392383" lon="11.6598683"><ele>133.0</ele><time>2026-05-01T08:23:35.422Z</time></trkpt><trkpt lat="45.2391733" lon="11.6599633"><ele>133.0</ele><time>2026-05-01T08:23:36.425Z</time></trkpt><trkpt lat="45.2390917" lon="11.6600317"><ele>133.0</ele><time>2026-05-01T08:23:37.406Z</time></trkpt><trkpt lat="45.2390033" lon="11.660055"><ele>133.0</ele><time>2026-05-01T08:23:38.403Z</time></trkpt><trkpt lat="45.23892" lon="11.6600333"><ele>133.0</ele><time>2026-05-01T08:23:39.415Z</time></trkpt><trkpt lat="45.2388483" lon="11.65997"><ele>133.0</ele><time>2026-05-01T08:23:40.42Z</time></trkpt><trkpt lat="45.23879" lon="11.6598733"><ele>133.0</ele><time>2026-05-01T08:23:41.421Z</time></trkpt><trkpt lat="45.2387517" lon="11.6597517"><ele>133.0</ele><time>2026-05-01T08:23:42.421Z</time></trkpt><trkpt lat="45.2387267" lon="11.6596133"><ele>131.4</ele><time>2026-05-01T08:23:43.412Z</time></trkpt><trkpt lat="45.2387017" lon="11.6594717"><ele>129.8</ele><time>2026-05-01T08:23:44.421Z</time></trkpt><trkpt lat="45.2386683" lon="11.65933"><ele>128.2</ele><time>2026-05-01T08:23:45.425Z</time></trkpt><trkpt lat="45.23862" lon="11.6591983"><ele>126.6</ele><time>2026-05-01T08:23:46.426Z</time></trkpt><trkpt lat="45.23856" lon="11.6590733"><ele>125.0</ele><time>2026-05-01T08:23:47.422Z</time></trkpt><trkpt lat="45.238485" lon="11.6589617"><ele>125.0</ele><time>2026-05-01T08:23:48.404Z</time></trkpt><trkpt lat="45.2383983" lon="11.65886"><ele>125.0</ele><time>2026-05-01T08:23:49.412Z</time></trkpt><trkpt lat="45.2383033" lon="11.65877"><ele>125.0</ele><time>2026-05-01T08:23:50.421Z</time></trkpt><trkpt lat="45.2382033" lon="11.6586817"><ele>125.0</ele><time>2026-05-01T08:23:51.422Z</time></trkpt><trkpt lat="45.2381" lon="11.6585933"><ele>122.5</ele><time>2026-05-01T08:23:52.423Z</time></trkpt><trkpt lat="45.237995" lon="11.6585017"><ele>120.0</ele><time>2026-05-01T08:23:53.421Z</time></trkpt><trkpt lat="45.2378883" lon="11.658405"><ele>117.5</ele><time>2026-05-01T08:23:54.402Z</time></trkpt><trkpt lat="45.23778" lon="11.6583083"><ele>115.0</ele><time>2026-05-01T08:23:55.421Z</time></trkpt><trkpt lat="45.23767" lon="11.6582083"><ele>115.0</ele><time>2026-05-01T08:23:56.424Z</time></trkpt><trkpt lat="45.2375583" lon="11.6581067"><ele>115.0</ele><time>2026-05-01T08:23:57.425Z</time></trkpt><trkpt lat="45.2374433" lon="11.6580083"><ele>115.0</ele><time>2026-05-01T08:23:58.423Z</time></trkpt><trkpt lat="45.2373283" lon="11.6579083"><ele>115.0</ele><time>2026-05-01T08:23:59.414Z</time></trkpt><trkpt lat="45.2372117" lon="11.65781"><ele>113.5</ele><time>2026-05-01T08:24:00.428Z</time></trkpt><trkpt lat="45.2370967" lon="11.6577167"><ele>112.0</ele><time>2026-05-01T08:24:01.418Z</time></trkpt><trkpt lat="45.2369933" lon="11.6576283"><ele>110.5</ele><time>2026-05-01T08:24:02.425Z</time></trkpt><trkpt lat="45.2369017" lon="11.6575517"><ele>109.0</ele><time>2026-05-01T08:24:03.425Z</time></trkpt><trkpt lat="45.2368083" lon="11.65749"><ele>109.0</ele><time>2026-05-01T08:24:04.422Z</time></trkpt><trkpt lat="45.23671" lon="11.657455"><ele>109.0</ele><time>2026-05-01T08:24:05.405Z</time></trkpt><trkpt lat="45.236605" lon="11.6574517"><ele>109.0</ele><time>2026-05-01T08:24:06.419Z</time></trkpt><trkpt lat="45.2365033" lon="11.6574783"><ele>109.0</ele><time>2026-05-01T08:24:07.425Z</time></trkpt><trkpt lat="45.2364067" lon="11.6575417"><ele>109.0</ele><time>2026-05-01T08:24:08.427Z</time></trkpt><trkpt lat="45.2363133" lon="11.6576333"><ele>108.0</ele><time>2026-05-01T08:24:09.422Z</time></trkpt><trkpt lat="45.2362283" lon="11.65774"><ele>107.0</ele><time>2026-05-01T08:24:10.4Z</time></trkpt><trkpt lat="45.2361467" lon="11.6578567"><ele>106.0</ele><time>2026-05-01T08:24:11.416Z</time></trkpt><trkpt lat="45.2360617" lon="11.6579717"><ele>105.0</ele><time>2026-05-01T08:24:12.395Z</time></trkpt><trkpt lat="45.2359783" lon="11.6580833"><ele>105.0</ele><time>2026-05-01T08:24:13.42Z</time></trkpt><trkpt lat="45.2358933" lon="11.6581983"><ele>105.0</ele><time>2026-05-01T08:24:14.419Z</time></trkpt><trkpt lat="45.2358017" lon="11.65831"><ele>105.0</ele><time>2026-05-01T08:24:15.453Z</time></trkpt><trkpt lat="45.2357183" lon="11.6584217"><ele>105.0</ele><time>2026-05-01T08:24:16.443Z</time></trkpt><trkpt lat="45.2356383" lon="11.6585317"><ele>101.4</ele><time>2026-05-01T08:24:17.389Z</time></trkpt><trkpt lat="45.23556" lon="11.658645"><ele>97.8</ele><time>2026-05-01T08:24:18.387Z</time></trkpt><trkpt lat="45.23549" lon="11.6587683"><ele>94.19999999999999</ele><time>2026-05-01T08:24:19.406Z</time></trkpt><trkpt lat="45.2354283" lon="11.6589017"><ele>90.6</ele><time>2026-05-01T08:24:20.394Z</time></trkpt><trkpt lat="45.2353983" lon="11.6590517"><ele>87.0</ele><time>2026-05-01T08:24:21.388Z</time></trkpt><trkpt lat="45.2353833" lon="11.659205"><ele>87.0</ele><time>2026-05-01T08:24:22.404Z</time></trkpt><trkpt lat="45.2353683" lon="11.6593767"><ele>87.0</ele><time>2026-05-01T08:24:23.394Z</time></trkpt><trkpt lat="45.23543" lon="11.6595133"><ele>87.0</ele><time>2026-05-01T08:24:24.42Z</time></trkpt><trkpt lat="45.2354783" lon="11.6596517"><ele>87.0</ele><time>2026-05-01T08:24:25.39Z</time></trkpt><trkpt lat="45.2355333" lon="11.6597917"><ele>87.75</ele><time>2026-05-01T08:24:26.384Z</time></trkpt><trkpt lat="45.2355833" lon="11.6599367"><ele>88.5</ele><time>2026-05-01T08:24:27.385Z</time></trkpt><trkpt lat="45.2356333" lon="11.6600817"><ele>89.25</ele><time>2026-05-01T08:24:28.383Z</time></trkpt><trkpt lat="45.2356833" lon="11.6602217"><ele>90.0</ele><time>2026-05-01T08:24:29.384Z</time></trkpt><trkpt lat="45.23573" lon="11.6603667"><ele>90.0</ele><time>2026-05-01T08:24:30.384Z</time></trkpt><trkpt lat="45.235775" lon="11.6605117"><ele>90.0</ele><time>2026-05-01T08:24:31.401Z</time></trkpt><trkpt lat="45.23582" lon="11.66066"><ele>90.0</ele><time>2026-05-01T08:24:32.413Z</time></trkpt><trkpt lat="45.2358683" lon="11.6607983"><ele>90.0</ele><time>2026-05-01T08:24:33.408Z</time></trkpt><trkpt lat="45.23592" lon="11.6609283"><ele>90.0</ele><time>2026-05-01T08:24:34.422Z</time></trkpt><trkpt lat="45.2359833" lon="11.6610467"><ele>89.0</ele><time>2026-05-01T08:24:35.419Z</time></trkpt><trkpt lat="45.2360533" lon="11.6611517"><ele>88.0</ele><time>2026-05-01T08:24:36.397Z</time></trkpt><trkpt lat="45.2361317" lon="11.661245"><ele>87.0</ele><time>2026-05-01T08:24:37.42Z</time></trkpt><trkpt lat="45.2362133" lon="11.6613317"><ele>86.0</ele><time>2026-05-01T08:24:38.423Z</time></trkpt><trkpt lat="45.236295" lon="11.6614133"><ele>85.0</ele><time>2026-05-01T08:24:39.421Z</time></trkpt><trkpt lat="45.23638" lon="11.66149"><ele>85.0</ele><time>2026-05-01T08:24:40.431Z</time></trkpt><trkpt lat="45.2364633" lon="11.6615683"><ele>85.0</ele><time>2026-05-01T08:24:41.413Z</time></trkpt><trkpt lat="45.2365483" lon="11.661645"><ele>85.0</ele><time>2026-05-01T08:24:42.417Z</time></trkpt><trkpt lat="45.2366333" lon="11.6617183"><ele>85.0</ele><time>2026-05-01T08:24:43.424Z</time></trkpt><trkpt lat="45.23672" lon="11.661785"><ele>85.0</ele><time>2026-05-01T08:24:44.418Z</time></trkpt><trkpt lat="45.2368083" lon="11.6618383"><ele>84.8</ele><time>2026-05-01T08:24:45.417Z</time></trkpt><trkpt lat="45.2368967" lon="11.661885"><ele>84.6</ele><time>2026-05-01T08:24:46.417Z</time></trkpt><trkpt lat="45.2369867" lon="11.66193"><ele>84.4</ele><time>2026-05-01T08:24:47.429Z</time></trkpt><trkpt lat="45.237075" lon="11.6619717"><ele>84.2</ele><time>2026-05-01T08:24:48.421Z</time></trkpt><trkpt lat="45.23717" lon="11.6620017"><ele>84.0</ele><time>2026-05-01T08:24:49.422Z</time></trkpt><trkpt lat="45.237265" lon="11.6620283"><ele>85.4</ele><time>2026-05-01T08:24:50.406Z</time></trkpt><trkpt lat="45.23736" lon="11.6620583"><ele>86.80000000000001</ele><time>2026-05-01T08:24:51.418Z</time></trkpt><trkpt lat="45.237455" lon="11.662085"><ele>88.19999999999999</ele><time>2026-05-01T08:24:52.43Z</time></trkpt><trkpt lat="45.2375483" lon="11.6621117"><ele>89.6</ele><time>2026-05-01T08:24:53.419Z</time></trkpt><trkpt lat="45.2376367" lon="11.6621367"><ele>91.0</ele><time>2026-05-01T08:24:54.429Z</time></trkpt><trkpt lat="45.2377233" lon="11.6621633"><ele>91.0</ele><time>2026-05-01T08:24:55.424Z</time></trkpt><trkpt lat="45.2378" lon="11.66221"><ele>91.0</ele><time>2026-05-01T08:24:56.423Z</time></trkpt><trkpt lat="45.237855" lon="11.6622833"><ele>91.0</ele><time>2026-05-01T08:24:57.429Z</time></trkpt><trkpt lat="45.2378867" lon="11.6623733"><ele>91.0</ele><time>2026-05-01T08:24:58.425Z</time></trkpt><trkpt lat="45.2378883" lon="11.6624683"><ele>91.0</ele><time>2026-05-01T08:24:59.425Z</time></trkpt><trkpt lat="45.2378483" lon="11.6625467"><ele>91.0</ele><time>2026-05-01T08:25:00.42Z</time></trkpt><trkpt lat="45.2377817" lon="11.6625767"><ele>91.0</ele><time>2026-05-01T08:25:01.425Z</time></trkpt><trkpt lat="45.2376883" lon="11.6625467"><ele>91.0</ele><time>2026-05-01T08:25:02.421Z</time></trkpt><trkpt lat="45.2375783" lon="11.662475"><ele>91.0</ele><time>2026-05-01T08:25:03.433Z</time></trkpt><trkpt lat="45.2374683" lon="11.662415"><ele>91.0</ele><time>2026-05-01T08:25:04.419Z</time></trkpt><trkpt lat="45.237345" lon="11.66239"><ele>91.0</ele><time>2026-05-01T08:25:05.418Z</time></trkpt><trkpt lat="45.2372267" lon="11.66239"><ele>89.25</ele><time>2026-05-01T08:25:06.412Z</time></trkpt><trkpt lat="45.2371117" lon="11.6624067"><ele>87.5</ele><time>2026-05-01T08:25:07.422Z</time></trkpt><trkpt lat="45.2369883" lon="11.6624283"><ele>85.75</ele><time>2026-05-01T08:25:08.423Z</time></trkpt><trkpt lat="45.236865" lon="11.6624467"><ele>84.0</ele><time>2026-05-01T08:25:09.425Z</time></trkpt><trkpt lat="45.2367417" lon="11.6624533"><ele>84.0</ele><time>2026-05-01T08:25:10.415Z</time></trkpt><trkpt lat="45.2366183" lon="11.6624367"><ele>84.0</ele><time>2026-05-01T08:25:11.418Z</time></trkpt><trkpt lat="45.2364967" lon="11.662405"><ele>84.0</ele><time>2026-05-01T08:25:12.418Z</time></trkpt><trkpt lat="45.236375" lon="11.662365"><ele>84.0</ele><time>2026-05-01T08:25:13.424Z</time></trkpt><trkpt lat="45.2362567" lon="11.6623167"><ele>82.5</ele><time>2026-05-01T08:25:14.423Z</time></trkpt><trkpt lat="45.2361467" lon="11.662265"><ele>81.0</ele><time>2026-05-01T08:25:15.402Z</time></trkpt><trkpt lat="45.2360433" lon="11.6622"><ele>79.5</ele><time>2026-05-01T08:25:16.418Z</time></trkpt><trkpt lat="45.235945" lon="11.66212"><ele>78.0</ele><time>2026-05-01T08:25:17.42Z</time></trkpt><trkpt lat="45.23585" lon="11.6620283"><ele>79.75</ele><time>2026-05-01T08:25:18.423Z</time></trkpt><trkpt lat="45.2357567" lon="11.6619267"><ele>81.5</ele><time>2026-05-01T08:25:19.416Z</time></trkpt><trkpt lat="45.2356617" lon="11.66182"><ele>83.25</ele><time>2026-05-01T08:25:20.423Z</time></trkpt><trkpt lat="45.2355667" lon="11.6617117"><ele>85.0</ele><time>2026-05-01T08:25:21.422Z</time></trkpt><trkpt lat="45.2354683" lon="11.661605"><ele>81.25</ele><time>2026-05-01T08:25:22.422Z</time></trkpt><trkpt lat="45.235365" lon="11.661505"><ele>77.5</ele><time>2026-05-01T08:25:23.473Z</time></trkpt><trkpt lat="45.2352583" lon="11.661405"><ele>73.75</ele><time>2026-05-01T08:25:24.45Z</time></trkpt><trkpt lat="45.2351533" lon="11.6613017"><ele>70.0</ele><time>2026-05-01T08:25:25.451Z</time></trkpt><trkpt lat="45.2350467" lon="11.6611967"><ele>71.0</ele><time>2026-05-01T08:25:26.39Z</time></trkpt><trkpt lat="45.23494" lon="11.6610933"><ele>72.0</ele><time>2026-05-01T08:25:27.406Z</time></trkpt><trkpt lat="45.23483" lon="11.6609867"><ele>73.0</ele><time>2026-05-01T08:25:28.407Z</time></trkpt><trkpt lat="45.2347267" lon="11.6608717"><ele>74.0</ele><time>2026-05-01T08:25:29.389Z</time></trkpt><trkpt lat="45.234625" lon="11.66076"><ele>70.5</ele><time>2026-05-01T08:25:30.386Z</time></trkpt><trkpt lat="45.23453" lon="11.6606617"><ele>67.0</ele><time>2026-05-01T08:25:31.425Z</time></trkpt><trkpt lat="45.23444" lon="11.66056"><ele>63.5</ele><time>2026-05-01T08:25:32.396Z</time></trkpt><trkpt lat="45.234335" lon="11.6604317"><ele>60.0</ele><time>2026-05-01T08:25:33.412Z</time></trkpt><trkpt lat="45.2342233" lon="11.6603067"><ele>59.4</ele><time>2026-05-01T08:25:34.404Z</time></trkpt><trkpt lat="45.2341167" lon="11.6601917"><ele>58.8</ele><time>2026-05-01T08:25:35.425Z</time></trkpt><trkpt lat="45.234035" lon="11.6600817"><ele>58.2</ele><time>2026-05-01T08:25:36.423Z</time></trkpt><trkpt lat="45.2339717" lon="11.6599783"><ele>57.6</ele><time>2026-05-01T08:25:37.423Z</time></trkpt><trkpt lat="45.2339217" lon="11.6598817"><ele>57.0</ele><time>2026-05-01T08:25:38.424Z</time></trkpt><trkpt lat="45.233875" lon="11.6597933"><ele>57.0</ele><time>2026-05-01T08:25:39.424Z</time></trkpt><trkpt lat="45.2338283" lon="11.659725"><ele>57.0</ele><time>2026-05-01T08:25:40.42Z</time></trkpt><trkpt lat="45.2337117" lon="11.65968"><ele>57.0</ele><time>2026-05-01T08:25:42.425Z</time></trkpt><trkpt lat="45.233645" lon="11.6597783"><ele>57.0</ele><time>2026-05-01T08:25:44.424Z</time></trkpt><trkpt lat="45.2337033" lon="11.6599217"><ele>57.0</ele><time>2026-05-01T08:25:46.397Z</time></trkpt><trkpt lat="45.2337583" lon="11.6599883"><ele>57.0</ele><time>2026-05-01T08:25:47.419Z</time></trkpt><trkpt lat="45.2338217" lon="11.6600533"><ele>57.0</ele><time>2026-05-01T08:25:48.422Z</time></trkpt><trkpt lat="45.2338817" lon="11.6601233"><ele>57.0</ele><time>2026-05-01T08:25:49.425Z</time></trkpt><trkpt lat="45.2339333" lon="11.660195"><ele>57.0</ele><time>2026-05-01T08:25:50.424Z</time></trkpt><trkpt lat="45.2339683" lon="11.6603417"><ele>57.0</ele><time>2026-05-01T08:25:52.395Z</time></trkpt><trkpt lat="45.233905" lon="11.6604067"><ele>57.0</ele><time>2026-05-01T08:25:54.432Z</time></trkpt><trkpt lat="45.2337933" lon="11.660315"><ele>57.0</ele><time>2026-05-01T08:25:56.424Z</time></trkpt><trkpt lat="45.2337317" lon="11.6602167"><ele>57.0</ele><time>2026-05-01T08:25:57.421Z</time></trkpt><trkpt lat="45.23366" lon="11.6601083"><ele>57.0</ele><time>2026-05-01T08:25:58.416Z</time></trkpt><trkpt lat="45.23358" lon="11.6600083"><ele>57.0</ele><time>2026-05-01T08:25:59.412Z</time></trkpt><trkpt lat="45.2334883" lon="11.6599283"><ele>57.0</ele><time>2026-05-01T08:26:00.422Z</time></trkpt><trkpt lat="45.233395" lon="11.6598617"><ele>57.0</ele><time>2026-05-01T08:26:01.423Z</time></trkpt><trkpt lat="45.233295" lon="11.6598083"><ele>57.0</ele><time>2026-05-01T08:26:02.4Z</time></trkpt><trkpt lat="45.2331967" lon="11.6597633"><ele>57.0</ele><time>2026-05-01T08:26:03.413Z</time></trkpt><trkpt lat="45.2330983" lon="11.6597117"><ele>57.0</ele><time>2026-05-01T08:26:04.421Z</time></trkpt><trkpt lat="45.233" lon="11.65965"><ele>57.0</ele><time>2026-05-01T08:26:05.416Z</time></trkpt><trkpt lat="45.23291" lon="11.6595917"><ele>55.166666666666664</ele><time>2026-05-01T08:26:06.419Z</time></trkpt><trkpt lat="45.2328267" lon="11.65955"><ele>53.333333333333336</ele><time>2026-05-01T08:26:07.424Z</time></trkpt><trkpt lat="45.2327417" lon="11.6595417"><ele>51.5</ele><time>2026-05-01T08:26:08.414Z</time></trkpt><trkpt lat="45.2326633" lon="11.659565"><ele>49.66666666666667</ele><time>2026-05-01T08:26:09.42Z</time></trkpt><trkpt lat="45.2326" lon="11.6596333"><ele>47.833333333333336</ele><time>2026-05-01T08:26:10.421Z</time></trkpt><trkpt lat="45.232555" lon="11.659725"><ele>46.0</ele><time>2026-05-01T08:26:11.423Z</time></trkpt><trkpt lat="45.2325433" lon="11.6598417"><ele>46.0</ele><time>2026-05-01T08:26:12.422Z</time></trkpt><trkpt lat="45.2325633" lon="11.659965"><ele>46.0</ele><time>2026-05-01T08:26:13.425Z</time></trkpt><trkpt lat="45.2326083" lon="11.6600817"><ele>46.0</ele><time>2026-05-01T08:26:14.422Z</time></trkpt><trkpt lat="45.2326733" lon="11.6601867"><ele>46.0</ele><time>2026-05-01T08:26:15.419Z</time></trkpt><trkpt lat="45.2327433" lon="11.6602933"><ele>46.0</ele><time>2026-05-01T08:26:16.427Z</time></trkpt><trkpt lat="45.2328167" lon="11.6604017"><ele>46.4</ele><time>2026-05-01T08:26:17.423Z</time></trkpt><trkpt lat="45.2328883" lon="11.6605117"><ele>46.8</ele><time>2026-05-01T08:26:18.403Z</time></trkpt><trkpt lat="45.2329633" lon="11.6606267"><ele>47.199999999999996</ele><time>2026-05-01T08:26:19.414Z</time></trkpt><trkpt lat="45.2330383" lon="11.660745"><ele>47.599999999999994</ele><time>2026-05-01T08:26:20.428Z</time></trkpt><trkpt lat="45.2331117" lon="11.660865"><ele>48.0</ele><time>2026-05-01T08:26:21.424Z</time></trkpt><trkpt lat="45.2331883" lon="11.66099"><ele>48.0</ele><time>2026-05-01T08:26:22.423Z</time></trkpt><trkpt lat="45.2332633" lon="11.6611133"><ele>48.0</ele><time>2026-05-01T08:26:23.431Z</time></trkpt><trkpt lat="45.2333367" lon="11.66124"><ele>48.0</ele><time>2026-05-01T08:26:24.418Z</time></trkpt><trkpt lat="45.23341" lon="11.6613633"><ele>48.0</ele><time>2026-05-01T08:26:25.416Z</time></trkpt><trkpt lat="45.2334783" lon="11.6614883"><ele>46.199999999999996</ele><time>2026-05-01T08:26:26.421Z</time></trkpt><trkpt lat="45.2335483" lon="11.6616083"><ele>44.4</ele><time>2026-05-01T08:26:27.487Z</time></trkpt><trkpt lat="45.2336217" lon="11.6617267"><ele>42.599999999999994</ele><time>2026-05-01T08:26:28.458Z</time></trkpt><trkpt lat="45.2336717" lon="11.66183"><ele>40.8</ele><time>2026-05-01T08:26:29.45Z</time></trkpt><trkpt lat="45.2337167" lon="11.6619317"><ele>39.0</ele><time>2026-05-01T08:26:30.453Z</time></trkpt><trkpt lat="45.2337533" lon="11.6620283"><ele>38.0</ele><time>2026-05-01T08:26:31.376Z</time></trkpt><trkpt lat="45.233765" lon="11.6621367"><ele>37.0</ele><time>2026-05-01T08:26:32.403Z</time></trkpt><trkpt lat="45.23367" lon="11.6622667"><ele>36.0</ele><time>2026-05-01T08:26:34.402Z</time></trkpt><trkpt lat="45.23359" lon="11.6622983"><ele>35.0</ele><time>2026-05-01T08:26:35.395Z</time></trkpt><trkpt lat="45.2335033" lon="11.6622617"><ele>34.0</ele><time>2026-05-01T08:26:36.412Z</time></trkpt><trkpt lat="45.2334367" lon="11.66218"><ele>34.0</ele><time>2026-05-01T08:26:37.419Z</time></trkpt><trkpt lat="45.23337" lon="11.6620933"><ele>34.0</ele><time>2026-05-01T08:26:38.425Z</time></trkpt><trkpt lat="45.2333017" lon="11.6619883"><ele>34.0</ele><time>2026-05-01T08:26:39.418Z</time></trkpt><trkpt lat="45.2332267" lon="11.661885"><ele>34.0</ele><time>2026-05-01T08:26:40.401Z</time></trkpt><trkpt lat="45.2331533" lon="11.6617817"><ele>34.0</ele><time>2026-05-01T08:26:41.415Z</time></trkpt><trkpt lat="45.2330733" lon="11.661675"><ele>32.25</ele><time>2026-05-01T08:26:42.391Z</time></trkpt><trkpt lat="45.2329867" lon="11.6615583"><ele>30.5</ele><time>2026-05-01T08:26:43.418Z</time></trkpt><trkpt lat="45.2329033" lon="11.6614433"><ele>28.75</ele><time>2026-05-01T08:26:44.416Z</time></trkpt><trkpt lat="45.23282" lon="11.66132"><ele>27.0</ele><time>2026-05-01T08:26:45.424Z</time></trkpt><trkpt lat="45.2327333" lon="11.6611967"><ele>28.75</ele><time>2026-05-01T08:26:46.426Z</time></trkpt><trkpt lat="45.2326417" lon="11.6610767"><ele>30.5</ele><time>2026-05-01T08:26:47.397Z</time></trkpt><trkpt lat="45.232555" lon="11.6609567"><ele>32.25</ele><time>2026-05-01T08:26:48.462Z</time></trkpt><trkpt lat="45.2324567" lon="11.66086"><ele>34.0</ele><time>2026-05-01T08:26:49.422Z</time></trkpt><trkpt lat="45.2323517" lon="11.66077"><ele>31.0</ele><time>2026-05-01T08:26:50.393Z</time></trkpt><trkpt lat="45.232235" lon="11.6606917"><ele>28.0</ele><time>2026-05-01T08:26:51.387Z</time></trkpt><trkpt lat="45.2321167" lon="11.66062"><ele>25.0</ele><time>2026-05-01T08:26:52.409Z</time></trkpt><trkpt lat="45.231995" lon="11.660555"><ele>22.0</ele><time>2026-05-01T08:26:53.412Z</time></trkpt><trkpt lat="45.2318783" lon="11.6604983"><ele>22.0</ele><time>2026-05-01T08:26:54.393Z</time></trkpt><trkpt lat="45.2317617" lon="11.6604467"><ele>22.0</ele><time>2026-05-01T08:26:55.401Z</time></trkpt><trkpt lat="45.2316483" lon="11.6603917"><ele>22.0</ele><time>2026-05-01T08:26:56.397Z</time></trkpt><trkpt lat="45.23154" lon="11.6603283"><ele>22.0</ele><time>2026-05-01T08:26:57.419Z</time></trkpt><trkpt lat="45.2314267" lon="11.6602567"><ele>21.75</ele><time>2026-05-01T08:26:58.413Z</time></trkpt><trkpt lat="45.2313217" lon="11.660185"><ele>21.5</ele><time>2026-05-01T08:26:59.42Z</time></trkpt><trkpt lat="45.2312233" lon="11.6601117"><ele>21.25</ele><time>2026-05-01T08:27:00.42Z</time></trkpt><trkpt lat="45.2311217" lon="11.6600383"><ele>21.0</ele><time>2026-05-01T08:27:01.401Z</time></trkpt><trkpt lat="45.2310167" lon="11.6599617"><ele>21.0</ele><time>2026-05-01T08:27:02.42Z</time></trkpt><trkpt lat="45.2309117" lon="11.65989"><ele>21.0</ele><time>2026-05-01T08:27:03.423Z</time></trkpt><trkpt lat="45.230805" lon="11.659805"><ele>21.0</ele><time>2026-05-01T08:27:04.428Z</time></trkpt><trkpt lat="45.2306983" lon="11.659715"><ele>21.0</ele><time>2026-05-01T08:27:05.422Z</time></trkpt><trkpt lat="45.230605" lon="11.6596267"><ele>20.166666666666668</ele><time>2026-05-01T08:27:06.426Z</time></trkpt><trkpt lat="45.2305233" lon="11.659555"><ele>19.333333333333332</ele><time>2026-05-01T08:27:07.417Z</time></trkpt><trkpt lat="45.230455" lon="11.6594983"><ele>18.5</ele><time>2026-05-01T08:27:08.418Z</time></trkpt><trkpt lat="45.23039" lon="11.6594633"><ele>17.666666666666664</ele><time>2026-05-01T08:27:09.423Z</time></trkpt><trkpt lat="45.2303267" lon="11.6594583"><ele>16.833333333333332</ele><time>2026-05-01T08:27:10.398Z</time></trkpt><trkpt lat="45.2302583" lon="11.6594767"><ele>16.0</ele><time>2026-05-01T08:27:11.421Z</time></trkpt><trkpt lat="45.2301883" lon="11.6595283"><ele>15.999999999999998</ele><time>2026-05-01T08:27:12.388Z</time></trkpt><trkpt lat="45.23012" lon="11.6596017"><ele>16.0</ele><time>2026-05-01T08:27:13.406Z</time></trkpt><trkpt lat="45.23006" lon="11.6596867"><ele>16.0</ele><time>2026-05-01T08:27:14.42Z</time></trkpt><trkpt lat="45.2300083" lon="11.6597567"><ele>16.0</ele><time>2026-05-01T08:27:15.417Z</time></trkpt><trkpt lat="45.2299317" lon="11.6598433"><ele>15.999999999999998</ele><time>2026-05-01T08:27:17.436Z</time></trkpt><trkpt lat="45.2298867" lon="11.6599217"><ele>16.0</ele><time>2026-05-01T08:27:20.4Z</time></trkpt><trkpt lat="45.2298017" lon="11.659975"><ele>15.428571428571427</ele><time>2026-05-01T08:27:23.41Z</time></trkpt><trkpt lat="45.22974" lon="11.660015"><ele>14.857142857142856</ele><time>2026-05-01T08:27:25.411Z</time></trkpt><trkpt lat="45.22968" lon="11.6600433"><ele>14.285714285714285</ele><time>2026-05-01T08:27:27.416Z</time></trkpt><trkpt lat="45.2296067" lon="11.6600283"><ele>13.714285714285714</ele><time>2026-05-01T08:27:31.425Z</time></trkpt><trkpt lat="45.2295267" lon="11.65998"><ele>13.142857142857142</ele><time>2026-05-01T08:27:36.4Z</time></trkpt><trkpt lat="45.229465" lon="11.6599117"><ele>12.57142857142857</ele><time>2026-05-01T08:27:39.481Z</time></trkpt><trkpt lat="45.2294083" lon="11.6598417"><ele>12.0</ele><time>2026-05-01T08:27:41.389Z</time></trkpt><trkpt lat="45.2293733" lon="11.6597317"><ele>12.0</ele><time>2026-05-01T08:27:43.388Z</time></trkpt><trkpt lat="45.2293233" lon="11.6596283"><ele>12.0</ele><time>2026-05-01T08:27:45.39Z</time></trkpt><trkpt lat="45.2292733" lon="11.6595267"><ele>12.0</ele><time>2026-05-01T08:27:47.418Z</time></trkpt><trkpt lat="45.2292333" lon="11.6594333"><ele>12.0</ele><time>2026-05-01T08:27:49.421Z</time></trkpt><trkpt lat="45.2291817" lon="11.6593467"><ele>12.0</ele><time>2026-05-01T08:27:51.419Z</time></trkpt><trkpt lat="45.229125" lon="11.65926"><ele>12.0</ele><time>2026-05-01T08:27:53.414Z</time></trkpt><trkpt lat="45.2290783" lon="11.6591633"><ele>11.8</ele><time>2026-05-01T08:27:55.401Z</time></trkpt><trkpt lat="45.2290267" lon="11.65907"><ele>11.6</ele><time>2026-05-01T08:27:57.419Z</time></trkpt><trkpt lat="45.22897" lon="11.6589767"><ele>11.4</ele><time>2026-05-01T08:27:59.406Z</time></trkpt><trkpt lat="45.2289067" lon="11.6588717"><ele>11.200000000000001</ele><time>2026-05-01T08:28:01.431Z</time></trkpt><trkpt lat="45.2288467" lon="11.6587683"><ele>11.0</ele><time>2026-05-01T08:28:03.428Z</time></trkpt><trkpt lat="45.2287817" lon="11.6586683"><ele>11.600000000000001</ele><time>2026-05-01T08:28:05.428Z</time></trkpt><trkpt lat="45.2287167" lon="11.65857"><ele>12.2</ele><time>2026-05-01T08:28:07.416Z</time></trkpt><trkpt lat="45.22865" lon="11.6584667"><ele>12.799999999999999</ele><time>2026-05-01T08:28:09.413Z</time></trkpt><trkpt lat="45.2285917" lon="11.6583617"><ele>13.399999999999999</ele><time>2026-05-01T08:28:11.415Z</time></trkpt><trkpt lat="45.2285333" lon="11.6582633"><ele>14.0</ele><time>2026-05-01T08:28:13.422Z</time></trkpt><trkpt lat="45.22848" lon="11.6581683"><ele>14.000000000000002</ele><time>2026-05-01T08:28:15.424Z</time></trkpt><trkpt lat="45.2284383" lon="11.6580867"><ele>14.0</ele><time>2026-05-01T08:28:17.404Z</time></trkpt><trkpt lat="45.22841" lon="11.6579767"><ele>14.0</ele><time>2026-05-01T08:28:20.418Z</time></trkpt><trkpt lat="45.2284017" lon="11.6578567"><ele>14.0</ele><time>2026-05-01T08:28:23.415Z</time></trkpt><trkpt lat="45.22843" lon="11.65775"><ele>14.000000000000002</ele><time>2026-05-01T08:28:26.425Z</time></trkpt><trkpt lat="45.2284917" lon="11.6576533"><ele>14.0</ele><time>2026-05-01T08:28:29.421Z</time></trkpt><trkpt lat="45.2285433" lon="11.657565"><ele>14.142857142857142</ele><time>2026-05-01T08:28:32.417Z</time></trkpt><trkpt lat="45.22858" lon="11.65749"><ele>14.285714285714285</ele><time>2026-05-01T08:28:35.427Z</time></trkpt><trkpt lat="45.2286517" lon="11.6575183"><ele>14.428571428571429</ele><time>2026-05-01T08:28:39.4Z</time></trkpt><trkpt lat="45.2286083" lon="11.6574533"><ele>14.571428571428571</ele><time>2026-05-01T08:28:47.415Z</time></trkpt><trkpt lat="45.22855" lon="11.6573833"><ele>14.714285714285714</ele><time>2026-05-01T08:28:51.413Z</time></trkpt><trkpt lat="45.2284967" lon="11.6574333"><ele>14.857142857142858</ele><time>2026-05-01T08:28:55.403Z</time></trkpt><trkpt lat="45.228445" lon="11.6575117"><ele>15.0</ele><time>2026-05-01T08:28:59.419Z</time></trkpt><trkpt lat="45.2283775" lon="11.6574992"><ele>15.0</ele><time>2026-05-01T08:29:17.509Z</time></trkpt><trkpt lat="45.2284684" lon="11.6575056"><ele>15.0</ele><time>2026-05-01T08:34:32.411Z</time></trkpt><trkpt lat="45.2285327" lon="11.6574572"><ele>15.0</ele><time>2026-05-01T08:37:01.419Z</time></trkpt><trkpt lat="45.2286031" lon="11.6574395"><ele>15.0</ele><time>2026-05-01T08:42:43.429Z</time></trkpt><trkpt lat="45.2285364" lon="11.6575808"><ele>15.0</ele><time>2026-05-01T09:01:29.754Z</time></trkpt><trkpt lat="45.2284549" lon="11.6575252"><ele>15.0</ele><time>2026-05-01T09:02:35.405Z</time></trkpt><trkpt lat="45.2285513" lon="11.6575003"><ele>15.0</ele><time>2026-05-01T09:03:23.409Z</time></trkpt><trkpt lat="45.2286061" lon="11.6574373"><ele>15.0</ele><time>2026-05-01T09:03:35.42Z</time></trkpt><trkpt lat="45.2286006" lon="11.657533"><ele>15.0</ele><time>2026-05-01T09:04:05.404Z</time></trkpt><trkpt lat="45.2285612" lon="11.657607"><ele>15.0</ele><time>2026-05-01T09:04:40.409Z</time></trkpt><trkpt lat="45.2284454" lon="11.6575465"><ele>15.0</ele><time>2026-05-01T09:06:23.421Z</time></trkpt><trkpt lat="45.2285008" lon="11.6574982"><ele>15.0</ele><time>2026-05-01T09:07:47.45Z</time></trkpt><trkpt lat="45.2286106" lon="11.6574652"><ele>15.0</ele><time>2026-05-01T09:08:39.42Z</time></trkpt><trkpt lat="45.2285576" lon="11.657413"><ele>15.0</ele><time>2026-05-01T09:10:31.46Z</time></trkpt><trkpt lat="45.2285264" lon="11.6574954"><ele>15.0</ele><time>2026-05-01T09:10:56.383Z</time></trkpt><trkpt lat="45.2284699" lon="11.6575898"><ele>15.0</ele><time>2026-05-01T09:11:20.387Z</time></trkpt><trkpt lat="45.2283905" lon="11.6575802"><ele>15.0</ele><time>2026-05-01T09:11:25.409Z</time></trkpt><trkpt lat="45.22829" lon="11.6579583"><ele>14.857142857142858</ele><time>2026-05-01T09:11:28.416Z</time></trkpt><trkpt lat="45.22825" lon="11.6580417"><ele>14.714285714285714</ele><time>2026-05-01T09:11:30.409Z</time></trkpt><trkpt lat="45.2282033" lon="11.6581233"><ele>14.571428571428571</ele><time>2026-05-01T09:11:32.404Z</time></trkpt><trkpt lat="45.2281633" lon="11.6581967"><ele>14.428571428571429</ele><time>2026-05-01T09:11:34.414Z</time></trkpt><trkpt lat="45.228105" lon="11.6582967"><ele>14.285714285714285</ele><time>2026-05-01T09:11:37.415Z</time></trkpt><trkpt lat="45.2280517" lon="11.658365"><ele>14.142857142857142</ele><time>2026-05-01T09:11:39.415Z</time></trkpt><trkpt lat="45.228015" lon="11.6584417"><ele>14.0</ele><time>2026-05-01T09:11:41.409Z</time></trkpt><trkpt lat="45.22798" lon="11.658565"><ele>13.500000000000002</ele><time>2026-05-01T09:11:44.421Z</time></trkpt><trkpt lat="45.227955" lon="11.6586583"><ele>13.0</ele><time>2026-05-01T09:11:46.412Z</time></trkpt><trkpt lat="45.2279283" lon="11.6587517"><ele>12.5</ele><time>2026-05-01T09:11:48.412Z</time></trkpt><trkpt lat="45.2278767" lon="11.65883"><ele>12.0</ele><time>2026-05-01T09:11:50.417Z</time></trkpt><trkpt lat="45.22782" lon="11.6589017"><ele>11.5</ele><time>2026-05-01T09:11:52.405Z</time></trkpt><trkpt lat="45.22776" lon="11.65898"><ele>11.0</ele><time>2026-05-01T09:11:54.386Z</time></trkpt><trkpt lat="45.227725" lon="11.6590883"><ele>11.0</ele><time>2026-05-01T09:11:56.413Z</time></trkpt><trkpt lat="45.2276483" lon="11.6591767"><ele>11.0</ele><time>2026-05-01T09:11:58.414Z</time></trkpt><trkpt lat="45.2275967" lon="11.6592617"><ele>11.0</ele><time>2026-05-01T09:12:00.417Z</time></trkpt><trkpt lat="45.2275633" lon="11.6593633"><ele>11.0</ele><time>2026-05-01T09:12:02.413Z</time></trkpt><trkpt lat="45.22751" lon="11.659465"><ele>11.0</ele><time>2026-05-01T09:12:04.413Z</time></trkpt><trkpt lat="45.2274683" lon="11.659565"><ele>11.0</ele><time>2026-05-01T09:12:06.42Z</time></trkpt><trkpt lat="45.2274133" lon="11.6596717"><ele>10.8</ele><time>2026-05-01T09:12:08.401Z</time></trkpt><trkpt lat="45.227355" lon="11.659795"><ele>10.600000000000001</ele><time>2026-05-01T09:12:10.412Z</time></trkpt><trkpt lat="45.2273117" lon="11.6598983"><ele>10.4</ele><time>2026-05-01T09:12:12.415Z</time></trkpt><trkpt lat="45.2272" lon="11.659985"><ele>10.2</ele><time>2026-05-01T09:12:14.408Z</time></trkpt><trkpt lat="45.2271417" lon="11.6600333"><ele>10.0</ele><time>2026-05-01T09:12:15.401Z</time></trkpt><trkpt lat="45.2270583" lon="11.6601533"><ele>10.4</ele><time>2026-05-01T09:12:17.417Z</time></trkpt><trkpt lat="45.2269917" lon="11.6602517"><ele>10.8</ele><time>2026-05-01T09:12:19.4Z</time></trkpt><trkpt lat="45.2269333" lon="11.6603817"><ele>11.2</ele><time>2026-05-01T09:12:21.418Z</time></trkpt><trkpt lat="45.22688" lon="11.6604783"><ele>11.6</ele><time>2026-05-01T09:12:23.394Z</time></trkpt><trkpt lat="45.2268317" lon="11.660575"><ele>12.0</ele><time>2026-05-01T09:12:25.415Z</time></trkpt><trkpt lat="45.226755" lon="11.66064"><ele>12.0</ele><time>2026-05-01T09:12:28.415Z</time></trkpt><trkpt lat="45.2266883" lon="11.6606467"><ele>12.0</ele><time>2026-05-01T09:12:30.418Z</time></trkpt><trkpt lat="45.2266083" lon="11.6606617"><ele>12.0</ele><time>2026-05-01T09:12:32.412Z</time></trkpt><trkpt lat="45.226515" lon="11.6606367"><ele>12.0</ele><time>2026-05-01T09:12:34.418Z</time></trkpt><trkpt lat="45.2264217" lon="11.660625"><ele>12.0</ele><time>2026-05-01T09:12:36.417Z</time></trkpt><trkpt lat="45.2263417" lon="11.6606067"><ele>12.0</ele><time>2026-05-01T09:12:38.414Z</time></trkpt><trkpt lat="45.226255" lon="11.660565"><ele>12.333333333333334</ele><time>2026-05-01T09:12:40.401Z</time></trkpt><trkpt lat="45.2261683" lon="11.6605033"><ele>12.666666666666668</ele><time>2026-05-01T09:12:42.418Z</time></trkpt><trkpt lat="45.226095" lon="11.660445"><ele>13.0</ele><time>2026-05-01T09:12:44.414Z</time></trkpt><trkpt lat="45.226035" lon="11.660385"><ele>13.333333333333334</ele><time>2026-05-01T09:12:46.407Z</time></trkpt><trkpt lat="45.22598" lon="11.6603233"><ele>13.666666666666668</ele><time>2026-05-01T09:12:49.415Z</time></trkpt><trkpt lat="45.2259317" lon="11.6602267"><ele>14.0</ele><time>2026-05-01T09:12:56.416Z</time></trkpt><trkpt lat="45.2258467" lon="11.6602567"><ele>14.0</ele><time>2026-05-01T09:13:00.415Z</time></trkpt><trkpt lat="45.2257783" lon="11.6603433"><ele>13.999999999999998</ele><time>2026-05-01T09:13:03.413Z</time></trkpt><trkpt lat="45.225715" lon="11.66041"><ele>13.999999999999998</ele><time>2026-05-01T09:13:05.41Z</time></trkpt><trkpt lat="45.225635" lon="11.6604883"><ele>14.0</ele><time>2026-05-01T09:13:07.416Z</time></trkpt><trkpt lat="45.2255533" lon="11.6605817"><ele>14.0</ele><time>2026-05-01T09:13:09.415Z</time></trkpt><trkpt lat="45.22547" lon="11.66069"><ele>13.25</ele><time>2026-05-01T09:13:11.415Z</time></trkpt><trkpt lat="45.22538" lon="11.6607983"><ele>12.5</ele><time>2026-05-01T09:13:13.403Z</time></trkpt><trkpt lat="45.225285" lon="11.6609"><ele>11.75</ele><time>2026-05-01T09:13:15.417Z</time></trkpt><trkpt lat="45.2251933" lon="11.6610083"><ele>11.0</ele><time>2026-05-01T09:13:17.423Z</time></trkpt><trkpt lat="45.2251" lon="11.6611"><ele>11.0</ele><time>2026-05-01T09:13:19.393Z</time></trkpt><trkpt lat="45.22502" lon="11.6612033"><ele>11.0</ele><time>2026-05-01T09:13:21.417Z</time></trkpt><trkpt lat="45.2249417" lon="11.6613033"><ele>11.0</ele><time>2026-05-01T09:13:23.412Z</time></trkpt><trkpt lat="45.2248517" lon="11.6614017"><ele>11.0</ele><time>2026-05-01T09:13:25.418Z</time></trkpt><trkpt lat="45.2247717" lon="11.6614933"><ele>11.0</ele><time>2026-05-01T09:13:27.398Z</time></trkpt><trkpt lat="45.2246983" lon="11.6615717"><ele>11.0</ele><time>2026-05-01T09:13:29.414Z</time></trkpt><trkpt lat="45.2246117" lon="11.66164"><ele>11.0</ele><time>2026-05-01T09:13:31.417Z</time></trkpt><trkpt lat="45.2245267" lon="11.6616967"><ele>11.0</ele><time>2026-05-01T09:13:33.417Z</time></trkpt><trkpt lat="45.2244383" lon="11.6617433"><ele>11.0</ele><time>2026-05-01T09:13:35.404Z</time></trkpt><trkpt lat="45.22435" lon="11.6617867"><ele>11.0</ele><time>2026-05-01T09:13:37.422Z</time></trkpt><trkpt lat="45.224245" lon="11.6618333"><ele>11.0</ele><time>2026-05-01T09:13:39.417Z</time></trkpt><trkpt lat="45.2241433" lon="11.6618783"><ele>11.0</ele><time>2026-05-01T09:13:41.421Z</time></trkpt><trkpt lat="45.22401" lon="11.6618967"><ele>11.0</ele><time>2026-05-01T09:13:43.419Z</time></trkpt><trkpt lat="45.2239133" lon="11.66193"><ele>11.0</ele><time>2026-05-01T09:13:45.417Z</time></trkpt><trkpt lat="45.2238233" lon="11.6619617"><ele>11.0</ele><time>2026-05-01T09:13:47.419Z</time></trkpt><trkpt lat="45.2237333" lon="11.661995"><ele>11.166666666666666</ele><time>2026-05-01T09:13:49.415Z</time></trkpt><trkpt lat="45.2236517" lon="11.6620233"><ele>11.333333333333332</ele><time>2026-05-01T09:13:51.418Z</time></trkpt><trkpt lat="45.22358" lon="11.6620517"><ele>11.5</ele><time>2026-05-01T09:13:53.422Z</time></trkpt><trkpt lat="45.2235067" lon="11.662075"><ele>11.666666666666666</ele><time>2026-05-01T09:13:55.419Z</time></trkpt><trkpt lat="45.2234133" lon="11.6620967"><ele>11.833333333333334</ele><time>2026-05-01T09:13:58.414Z</time></trkpt><trkpt lat="45.2233133" lon="11.6620717"><ele>12.0</ele><time>2026-05-01T09:14:00.413Z</time></trkpt><trkpt lat="45.2232417" lon="11.6620917"><ele>11.999999999999998</ele><time>2026-05-01T09:14:02.423Z</time></trkpt><trkpt lat="45.2231833" lon="11.6621317"><ele>12.0</ele><time>2026-05-01T09:14:04.421Z</time></trkpt><trkpt lat="45.2231083" lon="11.6621983"><ele>12.0</ele><time>2026-05-01T09:14:07.417Z</time></trkpt><trkpt lat="45.22305" lon="11.662235"><ele>12.0</ele><time>2026-05-01T09:14:09.42Z</time></trkpt><trkpt lat="45.2229833" lon="11.662275"><ele>12.0</ele><time>2026-05-01T09:14:11.424Z</time></trkpt><trkpt lat="45.2229183" lon="11.6623067"><ele>11.999999999999998</ele><time>2026-05-01T09:14:13.42Z</time></trkpt><trkpt lat="45.22285" lon="11.6623367"><ele>12.0</ele><time>2026-05-01T09:14:15.414Z</time></trkpt><trkpt lat="45.22279" lon="11.6623683"><ele>12.0</ele><time>2026-05-01T09:14:17.418Z</time></trkpt><trkpt lat="45.2227267" lon="11.6623983"><ele>12.0</ele><time>2026-05-01T09:14:19.423Z</time></trkpt><trkpt lat="45.2226483" lon="11.6624333"><ele>12.0</ele><time>2026-05-01T09:14:21.421Z</time></trkpt><trkpt lat="45.222575" lon="11.662465"><ele>12.0</ele><time>2026-05-01T09:14:23.427Z</time></trkpt><trkpt lat="45.222505" lon="11.6624933"><ele>12.0</ele><time>2026-05-01T09:14:25.409Z</time></trkpt><trkpt lat="45.2224367" lon="11.6625233"><ele>12.0</ele><time>2026-05-01T09:14:27.412Z</time></trkpt><trkpt lat="45.2223583" lon="11.6625667"><ele>12.0</ele><time>2026-05-01T09:14:30.41Z</time></trkpt><trkpt lat="45.222265" lon="11.6625717"><ele>12.0</ele><time>2026-05-01T09:14:32.419Z</time></trkpt><trkpt lat="45.2221933" lon="11.6625683"><ele>12.0</ele><time>2026-05-01T09:14:34.415Z</time></trkpt><trkpt lat="45.2221217" lon="11.662575"><ele>12.0</ele><time>2026-05-01T09:14:36.419Z</time></trkpt><trkpt lat="45.222035" lon="11.6626017"><ele>12.0</ele><time>2026-05-01T09:14:39.414Z</time></trkpt><trkpt lat="45.221955" lon="11.6626283"><ele>12.0</ele><time>2026-05-01T09:14:43.425Z</time></trkpt><trkpt lat="45.2218967" lon="11.6626717"><ele>11.999999999999998</ele><time>2026-05-01T09:14:46.418Z</time></trkpt><trkpt lat="45.221835" lon="11.66272"><ele>12.0</ele><time>2026-05-01T09:14:49.394Z</time></trkpt><trkpt lat="45.2217617" lon="11.6627567"><ele>12.0</ele><time>2026-05-01T09:14:52.415Z</time></trkpt><trkpt lat="45.2216917" lon="11.6627817"><ele>12.0</ele><time>2026-05-01T09:14:54.388Z</time></trkpt><trkpt lat="45.221615" lon="11.6628117"><ele>12.0</ele><time>2026-05-01T09:14:56.428Z</time></trkpt><trkpt lat="45.2215483" lon="11.662835"><ele>11.999999999999998</ele><time>2026-05-01T09:14:58.418Z</time></trkpt><trkpt lat="45.2214833" lon="11.6628583"><ele>12.0</ele><time>2026-05-01T09:15:00.426Z</time></trkpt><trkpt lat="45.2213967" lon="11.6628717"><ele>11.999999999999998</ele><time>2026-05-01T09:15:03.414Z</time></trkpt><trkpt lat="45.221315" lon="11.6628967"><ele>12.0</ele><time>2026-05-01T09:15:06.413Z</time></trkpt><trkpt lat="45.2212633" lon="11.6629567"><ele>12.0</ele><time>2026-05-01T09:15:10.397Z</time></trkpt><trkpt lat="45.2212383" lon="11.6630433"><ele>12.0</ele><time>2026-05-01T09:15:16.409Z</time></trkpt><trkpt lat="45.221215" lon="11.6631267"><ele>12.0</ele><time>2026-05-01T09:15:22.392Z</time></trkpt><trkpt lat="45.221185" lon="11.6632133"><ele>11.999999999999998</ele><time>2026-05-01T09:15:28.43Z</time></trkpt><trkpt lat="45.2212183" lon="11.6632917"><ele>12.0</ele><time>2026-05-01T09:16:37.429Z</time></trkpt><trkpt lat="45.22125" lon="11.6632017"><ele>11.999999999999998</ele><time>2026-05-01T09:16:41.416Z</time></trkpt><trkpt lat="45.2212683" lon="11.663115"><ele>12.0</ele><time>2026-05-01T09:16:44.403Z</time></trkpt><trkpt lat="45.22132" lon="11.66303"><ele>12.0</ele><time>2026-05-01T09:16:47.427Z</time></trkpt><trkpt lat="45.2213917" lon="11.6629783"><ele>12.0</ele><time>2026-05-01T09:16:50.425Z</time></trkpt><trkpt lat="45.221455" lon="11.6629167"><ele>12.0</ele><time>2026-05-01T09:16:53.422Z</time></trkpt><trkpt lat="45.2215333" lon="11.6628783"><ele>11.999999999999998</ele><time>2026-05-01T09:16:56.425Z</time></trkpt><trkpt lat="45.2215983" lon="11.66286"><ele>12.0</ele><time>2026-05-01T09:16:58.412Z</time></trkpt><trkpt lat="45.2216667" lon="11.6628317"><ele>11.999999999999998</ele><time>2026-05-01T09:17:00.425Z</time></trkpt><trkpt lat="45.2217317" lon="11.6628017"><ele>12.0</ele><time>2026-05-01T09:17:02.413Z</time></trkpt><trkpt lat="45.221795" lon="11.6627767"><ele>12.0</ele><time>2026-05-01T09:17:04.426Z</time></trkpt><trkpt lat="45.2218567" lon="11.6627517"><ele>12.0</ele><time>2026-05-01T09:17:06.427Z</time></trkpt><trkpt lat="45.2219183" lon="11.66272"><ele>12.0</ele><time>2026-05-01T09:17:08.416Z</time></trkpt><trkpt lat="45.2219833" lon="11.662695"><ele>11.999999999999998</ele><time>2026-05-01T09:17:10.416Z</time></trkpt><trkpt lat="45.2220483" lon="11.66266"><ele>12.0</ele><time>2026-05-01T09:17:12.426Z</time></trkpt><trkpt lat="45.2221117" lon="11.662635"><ele>11.999999999999998</ele><time>2026-05-01T09:17:14.419Z</time></trkpt><trkpt lat="45.22219" lon="11.6625867"><ele>12.0</ele><time>2026-05-01T09:17:17.424Z</time></trkpt><trkpt lat="45.22226" lon="11.662565"><ele>12.0</ele><time>2026-05-01T09:17:19.417Z</time></trkpt><trkpt lat="45.2223233" lon="11.662545"><ele>12.0</ele><time>2026-05-01T09:17:21.389Z</time></trkpt><trkpt lat="45.2223917" lon="11.6625383"><ele>12.0</ele><time>2026-05-01T09:17:23.409Z</time></trkpt><trkpt lat="45.222475" lon="11.662505"><ele>11.999999999999998</ele><time>2026-05-01T09:17:26.427Z</time></trkpt><trkpt lat="45.2225367" lon="11.66248"><ele>12.0</ele><time>2026-05-01T09:17:28.422Z</time></trkpt><trkpt lat="45.2225983" lon="11.662455"><ele>12.0</ele><time>2026-05-01T09:17:30.418Z</time></trkpt><trkpt lat="45.2226567" lon="11.6624183"><ele>12.0</ele><time>2026-05-01T09:17:32.42Z</time></trkpt><trkpt lat="45.222735" lon="11.6623633"><ele>12.0</ele><time>2026-05-01T09:17:35.414Z</time></trkpt><trkpt lat="45.2228067" lon="11.6623367"><ele>12.0</ele><time>2026-05-01T09:17:38.424Z</time></trkpt><trkpt lat="45.2228933" lon="11.6622933"><ele>12.0</ele><time>2026-05-01T09:19:10.424Z</time></trkpt><trkpt lat="45.2229517" lon="11.6622383"><ele>12.0</ele><time>2026-05-01T09:19:13.423Z</time></trkpt><trkpt lat="45.2230317" lon="11.662175"><ele>12.0</ele><time>2026-05-01T09:19:16.405Z</time></trkpt><trkpt lat="45.2231233" lon="11.662145"><ele>12.0</ele><time>2026-05-01T09:19:19.428Z</time></trkpt><trkpt lat="45.2231933" lon="11.6621467"><ele>12.0</ele><time>2026-05-01T09:19:21.426Z</time></trkpt><trkpt lat="45.223235" lon="11.6620783"><ele>12.0</ele><time>2026-05-01T09:19:23.416Z</time></trkpt><trkpt lat="45.223235" lon="11.661955"><ele>12.0</ele><time>2026-05-01T09:19:25.418Z</time></trkpt><trkpt lat="45.2232033" lon="11.6618117"><ele>12.0</ele><time>2026-05-01T09:19:27.421Z</time></trkpt><trkpt lat="45.223175" lon="11.66166"><ele>11.75</ele><time>2026-05-01T09:19:29.429Z</time></trkpt><trkpt lat="45.2231433" lon="11.6615083"><ele>11.5</ele><time>2026-05-01T09:19:31.425Z</time></trkpt><trkpt lat="45.223115" lon="11.6613467"><ele>11.25</ele><time>2026-05-01T09:19:33.428Z</time></trkpt><trkpt lat="45.22308" lon="11.6611917"><ele>11.0</ele><time>2026-05-01T09:19:35.424Z</time></trkpt><trkpt lat="45.22304" lon="11.6610317"><ele>11.0</ele><time>2026-05-01T09:19:37.392Z</time></trkpt><trkpt lat="45.22302" lon="11.6609467"><ele>11.0</ele><time>2026-05-01T09:19:38.414Z</time></trkpt><trkpt lat="45.2230033" lon="11.6608567"><ele>11.0</ele><time>2026-05-01T09:19:39.425Z</time></trkpt><trkpt lat="45.2229833" lon="11.6607683"><ele>11.0</ele><time>2026-05-01T09:19:40.428Z</time></trkpt><trkpt lat="45.2229617" lon="11.6606817"><ele>11.0</ele><time>2026-05-01T09:19:41.417Z</time></trkpt><trkpt lat="45.22294" lon="11.6605933"><ele>11.0</ele><time>2026-05-01T09:19:42.405Z</time></trkpt><trkpt lat="45.22292" lon="11.660505"><ele>11.0</ele><time>2026-05-01T09:19:43.391Z</time></trkpt><trkpt lat="45.2228983" lon="11.660415"><ele>11.0</ele><time>2026-05-01T09:19:44.428Z</time></trkpt><trkpt lat="45.2228767" lon="11.6603283"><ele>11.0</ele><time>2026-05-01T09:19:45.392Z</time></trkpt><trkpt lat="45.2228533" lon="11.66024"><ele>11.0</ele><time>2026-05-01T09:19:46.419Z</time></trkpt><trkpt lat="45.22283" lon="11.66015"><ele>11.0</ele><time>2026-05-01T09:19:47.416Z</time></trkpt><trkpt lat="45.2228083" lon="11.6600583"><ele>11.0</ele><time>2026-05-01T09:19:48.419Z</time></trkpt><trkpt lat="45.2227867" lon="11.6599633"><ele>11.0</ele><time>2026-05-01T09:19:49.424Z</time></trkpt><trkpt lat="45.22276" lon="11.659875"><ele>11.0</ele><time>2026-05-01T09:19:50.413Z</time></trkpt><trkpt lat="45.2227133" lon="11.6597283"><ele>11.166666666666666</ele><time>2026-05-01T09:19:52.429Z</time></trkpt><trkpt lat="45.2226917" lon="11.6596117"><ele>11.333333333333332</ele><time>2026-05-01T09:19:54.4Z</time></trkpt><trkpt lat="45.2227" lon="11.6594933"><ele>11.5</ele><time>2026-05-01T09:19:56.407Z</time></trkpt><trkpt lat="45.222715" lon="11.65937"><ele>11.666666666666666</ele><time>2026-05-01T09:19:58.409Z</time></trkpt><trkpt lat="45.2227067" lon="11.65924"><ele>11.833333333333334</ele><time>2026-05-01T09:20:00.418Z</time></trkpt><trkpt lat="45.2226367" lon="11.6591433"><ele>12.0</ele><time>2026-05-01T09:20:02.426Z</time></trkpt><trkpt lat="45.2225317" lon="11.65913"><ele>12.0</ele><time>2026-05-01T09:20:04.426Z</time></trkpt><trkpt lat="45.222415" lon="11.6591633"><ele>12.0</ele><time>2026-05-01T09:20:06.419Z</time></trkpt><trkpt lat="45.2222983" lon="11.65915"><ele>12.0</ele><time>2026-05-01T09:20:08.432Z</time></trkpt><trkpt lat="45.2221867" lon="11.6590867"><ele>12.0</ele><time>2026-05-01T09:20:10.416Z</time></trkpt><trkpt lat="45.2220817" lon="11.6590033"><ele>12.0</ele><time>2026-05-01T09:20:12.43Z</time></trkpt><trkpt lat="45.2219817" lon="11.6589167"><ele>12.0</ele><time>2026-05-01T09:20:14.419Z</time></trkpt><trkpt lat="45.2218833" lon="11.6588383"><ele>12.0</ele><time>2026-05-01T09:20:16.422Z</time></trkpt><trkpt lat="45.2217733" lon="11.6587583"><ele>12.0</ele><time>2026-05-01T09:20:18.417Z</time></trkpt><trkpt lat="45.221715" lon="11.65871"><ele>12.0</ele><time>2026-05-01T09:20:19.424Z</time></trkpt><trkpt lat="45.221655" lon="11.6586617"><ele>11.833333333333334</ele><time>2026-05-01T09:20:20.414Z</time></trkpt><trkpt lat="45.2215967" lon="11.658615"><ele>11.666666666666666</ele><time>2026-05-01T09:20:21.386Z</time></trkpt><trkpt lat="45.2215367" lon="11.658565"><ele>11.5</ele><time>2026-05-01T09:20:22.411Z</time></trkpt><trkpt lat="45.2214783" lon="11.65852"><ele>11.333333333333332</ele><time>2026-05-01T09:20:23.423Z</time></trkpt><trkpt lat="45.2214183" lon="11.658485"><ele>11.166666666666666</ele><time>2026-05-01T09:20:24.427Z</time></trkpt><trkpt lat="45.22131" lon="11.6584667"><ele>11.0</ele><time>2026-05-01T09:20:26.417Z</time></trkpt><trkpt lat="45.2212083" lon="11.6585717"><ele>11.0</ele><time>2026-05-01T09:20:28.425Z</time></trkpt><trkpt lat="45.2211767" lon="11.65865"><ele>11.0</ele><time>2026-05-01T09:20:29.419Z</time></trkpt><trkpt lat="45.2211533" lon="11.6587333"><ele>11.0</ele><time>2026-05-01T09:20:30.42Z</time></trkpt><trkpt lat="45.221135" lon="11.6588217"><ele>11.0</ele><time>2026-05-01T09:20:31.427Z</time></trkpt><trkpt lat="45.22112" lon="11.65891"><ele>11.0</ele><time>2026-05-01T09:20:32.413Z</time></trkpt><trkpt lat="45.2210917" lon="11.6590783"><ele>11.0</ele><time>2026-05-01T09:20:34.419Z</time></trkpt><trkpt lat="45.22106" lon="11.65925"><ele>11.0</ele><time>2026-05-01T09:20:36.423Z</time></trkpt><trkpt lat="45.2210367" lon="11.6594167"><ele>11.0</ele><time>2026-05-01T09:20:38.431Z</time></trkpt><trkpt lat="45.2210117" lon="11.6595833"><ele>11.0</ele><time>2026-05-01T09:20:40.419Z</time></trkpt><trkpt lat="45.2209833" lon="11.6597533"><ele>11.0</ele><time>2026-05-01T09:20:42.416Z</time></trkpt><trkpt lat="45.2209667" lon="11.6598417"><ele>11.0</ele><time>2026-05-01T09:20:43.421Z</time></trkpt><trkpt lat="45.2209483" lon="11.65993"><ele>11.0</ele><time>2026-05-01T09:20:44.423Z</time></trkpt><trkpt lat="45.220935" lon="11.6600183"><ele>11.0</ele><time>2026-05-01T09:20:45.422Z</time></trkpt><trkpt lat="45.2209167" lon="11.6601067"><ele>11.0</ele><time>2026-05-01T09:20:46.416Z</time></trkpt><trkpt lat="45.2208833" lon="11.6602733"><ele>11.0</ele><time>2026-05-01T09:20:48.423Z</time></trkpt><trkpt lat="45.2208633" lon="11.6603583"><ele>11.0</ele><time>2026-05-01T09:20:49.423Z</time></trkpt><trkpt lat="45.220845" lon="11.660445"><ele>11.0</ele><time>2026-05-01T09:20:50.414Z</time></trkpt><trkpt lat="45.220825" lon="11.6605317"><ele>11.0</ele><time>2026-05-01T09:20:51.422Z</time></trkpt><trkpt lat="45.220805" lon="11.66062"><ele>10.857142857142858</ele><time>2026-05-01T09:20:52.388Z</time></trkpt><trkpt lat="45.220785" lon="11.6607067"><ele>10.714285714285714</ele><time>2026-05-01T09:20:53.416Z</time></trkpt><trkpt lat="45.2207683" lon="11.6607933"><ele>10.571428571428571</ele><time>2026-05-01T09:20:54.411Z</time></trkpt><trkpt lat="45.2207333" lon="11.6609617"><ele>10.428571428571429</ele><time>2026-05-01T09:20:56.421Z</time></trkpt><trkpt lat="45.2207217" lon="11.66105"><ele>10.285714285714286</ele><time>2026-05-01T09:20:57.423Z</time></trkpt><trkpt lat="45.2207033" lon="11.6611383"><ele>10.142857142857142</ele><time>2026-05-01T09:20:58.428Z</time></trkpt><trkpt lat="45.2206833" lon="11.6612317"><ele>10.0</ele><time>2026-05-01T09:20:59.424Z</time></trkpt><trkpt lat="45.2206633" lon="11.66133"><ele>9.857142857142858</ele><time>2026-05-01T09:21:00.428Z</time></trkpt><trkpt lat="45.2206417" lon="11.6614283"><ele>9.714285714285715</ele><time>2026-05-01T09:21:01.425Z</time></trkpt><trkpt lat="45.2206183" lon="11.6615267"><ele>9.571428571428573</ele><time>2026-05-01T09:21:02.418Z</time></trkpt><trkpt lat="45.2205983" lon="11.6616217"><ele>9.428571428571429</ele><time>2026-05-01T09:21:03.425Z</time></trkpt><trkpt lat="45.220575" lon="11.6617117"><ele>9.285714285714286</ele><time>2026-05-01T09:21:04.425Z</time></trkpt><trkpt lat="45.220545" lon="11.661805"><ele>9.142857142857144</ele><time>2026-05-01T09:21:05.414Z</time></trkpt><trkpt lat="45.2205217" lon="11.6619017"><ele>9.0</ele><time>2026-05-01T09:21:06.427Z</time></trkpt><trkpt lat="45.22049" lon="11.6619983"><ele>9.000000000000002</ele><time>2026-05-01T09:21:07.432Z</time></trkpt><trkpt lat="45.220465" lon="11.6620983"><ele>9.0</ele><time>2026-05-01T09:21:08.42Z</time></trkpt><trkpt lat="45.2204433" lon="11.662195"><ele>9.0</ele><time>2026-05-01T09:21:09.424Z</time></trkpt><trkpt lat="45.2204233" lon="11.66229"><ele>9.0</ele><time>2026-05-01T09:21:10.415Z</time></trkpt><trkpt lat="45.2204033" lon="11.6623867"><ele>9.0</ele><time>2026-05-01T09:21:11.423Z</time></trkpt><trkpt lat="45.2203783" lon="11.662485"><ele>9.000000000000002</ele><time>2026-05-01T09:21:12.424Z</time></trkpt><trkpt lat="45.2203483" lon="11.6625817"><ele>9.0</ele><time>2026-05-01T09:21:13.399Z</time></trkpt><trkpt lat="45.22032" lon="11.66268"><ele>9.000000000000002</ele><time>2026-05-01T09:21:14.423Z</time></trkpt><trkpt lat="45.2202917" lon="11.6627733"><ele>9.0</ele><time>2026-05-01T09:21:15.427Z</time></trkpt><trkpt lat="45.22026" lon="11.662865"><ele>9.0</ele><time>2026-05-01T09:21:16.422Z</time></trkpt><trkpt lat="45.22022" lon="11.6629617"><ele>9.0</ele><time>2026-05-01T09:21:17.391Z</time></trkpt><trkpt lat="45.2201833" lon="11.663055"><ele>9.0</ele><time>2026-05-01T09:21:18.426Z</time></trkpt><trkpt lat="45.2201433" lon="11.6631433"><ele>9.000000000000002</ele><time>2026-05-01T09:21:19.417Z</time></trkpt><trkpt lat="45.2201033" lon="11.6632317"><ele>9.0</ele><time>2026-05-01T09:21:20.424Z</time></trkpt><trkpt lat="45.2200583" lon="11.6633133"><ele>9.000000000000002</ele><time>2026-05-01T09:21:21.427Z</time></trkpt><trkpt lat="45.2200083" lon="11.66339"><ele>9.0</ele><time>2026-05-01T09:21:22.422Z</time></trkpt><trkpt lat="45.219955" lon="11.6634617"><ele>9.0</ele><time>2026-05-01T09:21:23.416Z</time></trkpt><trkpt lat="45.219905" lon="11.6635333"><ele>9.0</ele><time>2026-05-01T09:21:24.395Z</time></trkpt><trkpt lat="45.219855" lon="11.663605"><ele>9.0</ele><time>2026-05-01T09:21:25.416Z</time></trkpt><trkpt lat="45.2198017" lon="11.6636767"><ele>9.000000000000002</ele><time>2026-05-01T09:21:26.425Z</time></trkpt><trkpt lat="45.2197483" lon="11.6637433"><ele>9.0</ele><time>2026-05-01T09:21:27.42Z</time></trkpt><trkpt lat="45.2196933" lon="11.66381"><ele>9.285714285714286</ele><time>2026-05-01T09:21:28.423Z</time></trkpt><trkpt lat="45.219635" lon="11.6638783"><ele>9.571428571428571</ele><time>2026-05-01T09:21:29.422Z</time></trkpt><trkpt lat="45.21958" lon="11.6639433"><ele>9.857142857142858</ele><time>2026-05-01T09:21:30.429Z</time></trkpt><trkpt lat="45.219525" lon="11.6640067"><ele>10.142857142857142</ele><time>2026-05-01T09:21:31.421Z</time></trkpt><trkpt lat="45.2194683" lon="11.6640733"><ele>10.428571428571429</ele><time>2026-05-01T09:21:32.422Z</time></trkpt><trkpt lat="45.2194117" lon="11.66414"><ele>10.714285714285715</ele><time>2026-05-01T09:21:33.419Z</time></trkpt><trkpt lat="45.2193517" lon="11.6642067"><ele>11.0</ele><time>2026-05-01T09:21:34.427Z</time></trkpt><trkpt lat="45.2192933" lon="11.6642683"><ele>11.0</ele><time>2026-05-01T09:21:35.416Z</time></trkpt><trkpt lat="45.219235" lon="11.6643283"><ele>11.0</ele><time>2026-05-01T09:21:36.423Z</time></trkpt><trkpt lat="45.2191817" lon="11.6643917"><ele>11.0</ele><time>2026-05-01T09:21:37.502Z</time></trkpt><trkpt lat="45.219125" lon="11.6644533"><ele>11.0</ele><time>2026-05-01T09:21:38.419Z</time></trkpt><trkpt lat="45.2190733" lon="11.6645183"><ele>11.0</ele><time>2026-05-01T09:21:39.424Z</time></trkpt><trkpt lat="45.2190217" lon="11.6645833"><ele>11.0</ele><time>2026-05-01T09:21:40.425Z</time></trkpt><trkpt lat="45.2189717" lon="11.664645"><ele>11.0</ele><time>2026-05-01T09:21:41.423Z</time></trkpt><trkpt lat="45.21888" lon="11.6647583"><ele>10.5</ele><time>2026-05-01T09:21:43.427Z</time></trkpt><trkpt lat="45.2188017" lon="11.664875"><ele>10.0</ele><time>2026-05-01T09:21:45.403Z</time></trkpt><trkpt lat="45.2187233" lon="11.6649917"><ele>9.5</ele><time>2026-05-01T09:21:47.419Z</time></trkpt><trkpt lat="45.2186417" lon="11.6651017"><ele>9.0</ele><time>2026-05-01T09:21:49.405Z</time></trkpt><trkpt lat="45.2185567" lon="11.66521"><ele>9.0</ele><time>2026-05-01T09:21:51.418Z</time></trkpt><trkpt lat="45.2184867" lon="11.6653167"><ele>9.0</ele><time>2026-05-01T09:21:53.418Z</time></trkpt><trkpt lat="45.2184083" lon="11.6654233"><ele>9.0</ele><time>2026-05-01T09:21:55.426Z</time></trkpt><trkpt lat="45.218335" lon="11.6655333"><ele>9.0</ele><time>2026-05-01T09:21:57.411Z</time></trkpt><trkpt lat="45.2182667" lon="11.6656367"><ele>9.0</ele><time>2026-05-01T09:21:59.425Z</time></trkpt><trkpt lat="45.2181967" lon="11.6657367"><ele>9.0</ele><time>2026-05-01T09:22:01.418Z</time></trkpt><trkpt lat="45.21813" lon="11.6658367"><ele>9.0</ele><time>2026-05-01T09:22:03.426Z</time></trkpt><trkpt lat="45.2180617" lon="11.6659317"><ele>9.0</ele><time>2026-05-01T09:22:05.426Z</time></trkpt><trkpt lat="45.217995" lon="11.66603"><ele>9.0</ele><time>2026-05-01T09:22:07.424Z</time></trkpt><trkpt lat="45.2179167" lon="11.66614"><ele>9.0</ele><time>2026-05-01T09:22:09.417Z</time></trkpt><trkpt lat="45.2178333" lon="11.66625"><ele>9.0</ele><time>2026-05-01T09:22:11.423Z</time></trkpt><trkpt lat="45.2177517" lon="11.6663667"><ele>9.0</ele><time>2026-05-01T09:22:13.428Z</time></trkpt><trkpt lat="45.2176733" lon="11.6664817"><ele>9.0</ele><time>2026-05-01T09:22:15.425Z</time></trkpt><trkpt lat="45.217585" lon="11.666595"><ele>9.0</ele><time>2026-05-01T09:22:17.405Z</time></trkpt><trkpt lat="45.2175383" lon="11.666655"><ele>9.0</ele><time>2026-05-01T09:22:18.422Z</time></trkpt><trkpt lat="45.21745" lon="11.6667767"><ele>9.0</ele><time>2026-05-01T09:22:20.425Z</time></trkpt><trkpt lat="45.217365" lon="11.6669033"><ele>9.0</ele><time>2026-05-01T09:22:22.426Z</time></trkpt><trkpt lat="45.21728" lon="11.6670333"><ele>9.0</ele><time>2026-05-01T09:22:24.424Z</time></trkpt><trkpt lat="45.2172267" lon="11.6670983"><ele>9.0</ele><time>2026-05-01T09:22:25.425Z</time></trkpt><trkpt lat="45.21718" lon="11.6671667"><ele>9.0</ele><time>2026-05-01T09:22:26.395Z</time></trkpt><trkpt lat="45.21713" lon="11.6672267"><ele>8.8</ele><time>2026-05-01T09:22:27.388Z</time></trkpt><trkpt lat="45.2170667" lon="11.66728"><ele>8.600000000000001</ele><time>2026-05-01T09:22:28.4Z</time></trkpt><trkpt lat="45.2169817" lon="11.6674117"><ele>8.4</ele><time>2026-05-01T09:22:30.396Z</time></trkpt><trkpt lat="45.2168933" lon="11.667535"><ele>8.200000000000001</ele><time>2026-05-01T09:22:32.397Z</time></trkpt><trkpt lat="45.216845" lon="11.6675967"><ele>8.0</ele><time>2026-05-01T09:22:33.405Z</time></trkpt><trkpt lat="45.216795" lon="11.6676667"><ele>8.0</ele><time>2026-05-01T09:22:34.409Z</time></trkpt><trkpt lat="45.2167483" lon="11.66774"><ele>7.999999999999999</ele><time>2026-05-01T09:22:35.399Z</time></trkpt><trkpt lat="45.216705" lon="11.6678117"><ele>8.0</ele><time>2026-05-01T09:22:36.39Z</time></trkpt><trkpt lat="45.2166667" lon="11.6678867"><ele>8.0</ele><time>2026-05-01T09:22:37.405Z</time></trkpt><trkpt lat="45.2166233" lon="11.667965"><ele>7.999999999999999</ele><time>2026-05-01T09:22:38.392Z</time></trkpt><trkpt lat="45.2165783" lon="11.6680383"><ele>8.0</ele><time>2026-05-01T09:22:39.405Z</time></trkpt><trkpt lat="45.2165317" lon="11.6681083"><ele>8.0</ele><time>2026-05-01T09:22:40.385Z</time></trkpt><trkpt lat="45.2164867" lon="11.6681767"><ele>8.0</ele><time>2026-05-01T09:22:41.392Z</time></trkpt><trkpt lat="45.2164417" lon="11.6682533"><ele>7.999999999999999</ele><time>2026-05-01T09:22:42.39Z</time></trkpt><trkpt lat="45.216395" lon="11.6683267"><ele>8.0</ele><time>2026-05-01T09:22:43.39Z</time></trkpt><trkpt lat="45.2163433" lon="11.6683967"><ele>8.0</ele><time>2026-05-01T09:22:44.386Z</time></trkpt><trkpt lat="45.21629" lon="11.6684633"><ele>7.999999999999999</ele><time>2026-05-01T09:22:45.415Z</time></trkpt><trkpt lat="45.2162333" lon="11.6685333"><ele>8.0</ele><time>2026-05-01T09:22:46.397Z</time></trkpt><trkpt lat="45.2161817" lon="11.668605"><ele>8.0</ele><time>2026-05-01T09:22:47.399Z</time></trkpt><trkpt lat="45.21613" lon="11.6686733"><ele>8.0</ele><time>2026-05-01T09:22:48.4Z</time></trkpt><trkpt lat="45.2160783" lon="11.6687433"><ele>7.999999999999999</ele><time>2026-05-01T09:22:49.391Z</time></trkpt><trkpt lat="45.2160267" lon="11.6688167"><ele>8.0</ele><time>2026-05-01T09:22:50.392Z</time></trkpt><trkpt lat="45.2159767" lon="11.6688883"><ele>8.0</ele><time>2026-05-01T09:22:51.394Z</time></trkpt><trkpt lat="45.2159283" lon="11.66896"><ele>7.999999999999999</ele><time>2026-05-01T09:22:52.391Z</time></trkpt><trkpt lat="45.2158767" lon="11.6690317"><ele>8.0</ele><time>2026-05-01T09:22:53.391Z</time></trkpt><trkpt lat="45.215825" lon="11.6691083"><ele>8.0</ele><time>2026-05-01T09:22:54.393Z</time></trkpt><trkpt lat="45.2157733" lon="11.6691817"><ele>8.0</ele><time>2026-05-01T09:22:55.389Z</time></trkpt><trkpt lat="45.2157217" lon="11.6692533"><ele>7.999999999999999</ele><time>2026-05-01T09:22:56.391Z</time></trkpt><trkpt lat="45.21567" lon="11.6693217"><ele>8.0</ele><time>2026-05-01T09:22:57.392Z</time></trkpt><trkpt lat="45.2156217" lon="11.6693917"><ele>8.0</ele><time>2026-05-01T09:22:58.391Z</time></trkpt><trkpt lat="45.2155633" lon="11.6694617"><ele>7.999999999999999</ele><time>2026-05-01T09:22:59.389Z</time></trkpt><trkpt lat="45.215515" lon="11.6695283"><ele>8.0</ele><time>2026-05-01T09:23:00.389Z</time></trkpt><trkpt lat="45.2154683" lon="11.6695967"><ele>8.0</ele><time>2026-05-01T09:23:01.391Z</time></trkpt><trkpt lat="45.2154233" lon="11.6696667"><ele>8.142857142857142</ele><time>2026-05-01T09:23:02.391Z</time></trkpt><trkpt lat="45.2153783" lon="11.6697417"><ele>8.285714285714285</ele><time>2026-05-01T09:23:03.389Z</time></trkpt><trkpt lat="45.2153333" lon="11.669815"><ele>8.428571428571429</ele><time>2026-05-01T09:23:04.388Z</time></trkpt><trkpt lat="45.215285" lon="11.6698867"><ele>8.571428571428571</ele><time>2026-05-01T09:23:05.389Z</time></trkpt><trkpt lat="45.2152367" lon="11.66996"><ele>8.714285714285715</ele><time>2026-05-01T09:23:06.391Z</time></trkpt><trkpt lat="45.2151883" lon="11.6700333"><ele>8.857142857142858</ele><time>2026-05-01T09:23:07.389Z</time></trkpt><trkpt lat="45.2151367" lon="11.6701083"><ele>9.0</ele><time>2026-05-01T09:23:08.391Z</time></trkpt><trkpt lat="45.2150867" lon="11.67018"><ele>9.000000000000002</ele><time>2026-05-01T09:23:09.388Z</time></trkpt><trkpt lat="45.2150367" lon="11.67025"><ele>9.0</ele><time>2026-05-01T09:23:10.395Z</time></trkpt><trkpt lat="45.2149883" lon="11.67032"><ele>9.0</ele><time>2026-05-01T09:23:11.393Z</time></trkpt><trkpt lat="45.2149367" lon="11.6703883"><ele>9.0</ele><time>2026-05-01T09:23:12.387Z</time></trkpt><trkpt lat="45.214885" lon="11.6704583"><ele>9.0</ele><time>2026-05-01T09:23:13.392Z</time></trkpt><trkpt lat="45.21483" lon="11.6705317"><ele>9.000000000000002</ele><time>2026-05-01T09:23:14.388Z</time></trkpt><trkpt lat="45.2147767" lon="11.6706083"><ele>9.0</ele><time>2026-05-01T09:23:15.387Z</time></trkpt><trkpt lat="45.2147217" lon="11.6706833"><ele>9.000000000000002</ele><time>2026-05-01T09:23:16.414Z</time></trkpt><trkpt lat="45.2146683" lon="11.6707567"><ele>9.0</ele><time>2026-05-01T09:23:17.42Z</time></trkpt><trkpt lat="45.214615" lon="11.6708267"><ele>9.0</ele><time>2026-05-01T09:23:18.429Z</time></trkpt><trkpt lat="45.214565" lon="11.670895"><ele>9.0</ele><time>2026-05-01T09:23:19.432Z</time></trkpt><trkpt lat="45.214515" lon="11.6709667"><ele>9.0</ele><time>2026-05-01T09:23:20.416Z</time></trkpt><trkpt lat="45.2144667" lon="11.6710417"><ele>9.000000000000002</ele><time>2026-05-01T09:23:21.425Z</time></trkpt><trkpt lat="45.2144183" lon="11.6711183"><ele>9.0</ele><time>2026-05-01T09:23:22.404Z</time></trkpt><trkpt lat="45.21437" lon="11.6711917"><ele>9.000000000000002</ele><time>2026-05-01T09:23:23.425Z</time></trkpt><trkpt lat="45.2143233" lon="11.6712633"><ele>9.0</ele><time>2026-05-01T09:23:24.423Z</time></trkpt><trkpt lat="45.214275" lon="11.6713333"><ele>9.0</ele><time>2026-05-01T09:23:25.425Z</time></trkpt><trkpt lat="45.2142267" lon="11.6714033"><ele>9.0</ele><time>2026-05-01T09:23:26.419Z</time></trkpt><trkpt lat="45.2141783" lon="11.6714733"><ele>9.0</ele><time>2026-05-01T09:23:27.42Z</time></trkpt><trkpt lat="45.2141283" lon="11.6715467"><ele>9.000000000000002</ele><time>2026-05-01T09:23:28.432Z</time></trkpt><trkpt lat="45.2140767" lon="11.6716167"><ele>9.0</ele><time>2026-05-01T09:23:29.422Z</time></trkpt><trkpt lat="45.214025" lon="11.6716867"><ele>9.000000000000002</ele><time>2026-05-01T09:23:30.428Z</time></trkpt><trkpt lat="45.213975" lon="11.6717583"><ele>9.0</ele><time>2026-05-01T09:23:31.426Z</time></trkpt><trkpt lat="45.2139233" lon="11.6718317"><ele>9.0</ele><time>2026-05-01T09:23:32.421Z</time></trkpt><trkpt lat="45.2138717" lon="11.6719017"><ele>9.0</ele><time>2026-05-01T09:23:33.4Z</time></trkpt><trkpt lat="45.2138183" lon="11.671975"><ele>9.0</ele><time>2026-05-01T09:23:34.418Z</time></trkpt><trkpt lat="45.213765" lon="11.6720533"><ele>9.000000000000002</ele><time>2026-05-01T09:23:35.423Z</time></trkpt><trkpt lat="45.2137117" lon="11.6721267"><ele>9.0</ele><time>2026-05-01T09:23:36.391Z</time></trkpt><trkpt lat="45.213655" lon="11.6722017"><ele>9.0</ele><time>2026-05-01T09:23:37.417Z</time></trkpt><trkpt lat="45.2136017" lon="11.6722767"><ele>9.0</ele><time>2026-05-01T09:23:38.425Z</time></trkpt><trkpt lat="45.213545" lon="11.6723467"><ele>9.0</ele><time>2026-05-01T09:23:39.424Z</time></trkpt><trkpt lat="45.2134883" lon="11.6724167"><ele>9.0</ele><time>2026-05-01T09:23:40.427Z</time></trkpt><trkpt lat="45.2134317" lon="11.672485"><ele>9.0</ele><time>2026-05-01T09:23:41.418Z</time></trkpt><trkpt lat="45.2133767" lon="11.6725567"><ele>9.0</ele><time>2026-05-01T09:23:42.418Z</time></trkpt><trkpt lat="45.2133133" lon="11.6726267"><ele>9.000000000000002</ele><time>2026-05-01T09:23:43.428Z</time></trkpt><trkpt lat="45.2132517" lon="11.6726967"><ele>9.0</ele><time>2026-05-01T09:23:44.39Z</time></trkpt><trkpt lat="45.2131917" lon="11.672765"><ele>9.0</ele><time>2026-05-01T09:23:45.425Z</time></trkpt><trkpt lat="45.2131333" lon="11.6728283"><ele>9.0</ele><time>2026-05-01T09:23:46.406Z</time></trkpt><trkpt lat="45.213075" lon="11.6728883"><ele>9.0</ele><time>2026-05-01T09:23:47.421Z</time></trkpt><trkpt lat="45.213015" lon="11.6729467"><ele>9.000000000000002</ele><time>2026-05-01T09:23:48.423Z</time></trkpt><trkpt lat="45.2129567" lon="11.6730067"><ele>9.0</ele><time>2026-05-01T09:23:49.425Z</time></trkpt><trkpt lat="45.212895" lon="11.6730767"><ele>8.833333333333334</ele><time>2026-05-01T09:23:50.426Z</time></trkpt><trkpt lat="45.2128333" lon="11.6731417"><ele>8.666666666666666</ele><time>2026-05-01T09:23:51.427Z</time></trkpt><trkpt lat="45.2127717" lon="11.6732083"><ele>8.5</ele><time>2026-05-01T09:23:52.424Z</time></trkpt><trkpt lat="45.2127167" lon="11.6732767"><ele>8.333333333333332</ele><time>2026-05-01T09:23:53.425Z</time></trkpt><trkpt lat="45.2126617" lon="11.6733467"><ele>8.166666666666666</ele><time>2026-05-01T09:23:54.428Z</time></trkpt><trkpt lat="45.2126017" lon="11.6734283"><ele>8.0</ele><time>2026-05-01T09:23:55.419Z</time></trkpt><trkpt lat="45.212545" lon="11.67351"><ele>8.0</ele><time>2026-05-01T09:23:56.413Z</time></trkpt><trkpt lat="45.2124917" lon="11.67359"><ele>7.999999999999999</ele><time>2026-05-01T09:23:57.428Z</time></trkpt><trkpt lat="45.2124433" lon="11.6736667"><ele>8.0</ele><time>2026-05-01T09:23:58.425Z</time></trkpt><trkpt lat="45.212395" lon="11.6737483"><ele>8.0</ele><time>2026-05-01T09:23:59.43Z</time></trkpt><trkpt lat="45.21235" lon="11.673835"><ele>7.999999999999999</ele><time>2026-05-01T09:24:00.392Z</time></trkpt><trkpt lat="45.2123117" lon="11.6739217"><ele>8.0</ele><time>2026-05-01T09:24:01.413Z</time></trkpt><trkpt lat="45.212275" lon="11.6740083"><ele>8.0</ele><time>2026-05-01T09:24:02.417Z</time></trkpt><trkpt lat="45.2122417" lon="11.6740983"><ele>8.428571428571429</ele><time>2026-05-01T09:24:03.428Z</time></trkpt><trkpt lat="45.2122117" lon="11.6741933"><ele>8.857142857142856</ele><time>2026-05-01T09:24:04.426Z</time></trkpt><trkpt lat="45.2121783" lon="11.6742883"><ele>9.285714285714285</ele><time>2026-05-01T09:24:05.426Z</time></trkpt><trkpt lat="45.2121467" lon="11.6743817"><ele>9.714285714285714</ele><time>2026-05-01T09:24:06.405Z</time></trkpt><trkpt lat="45.2121183" lon="11.6744767"><ele>10.142857142857142</ele><time>2026-05-01T09:24:07.417Z</time></trkpt><trkpt lat="45.2120917" lon="11.6745683"><ele>10.571428571428571</ele><time>2026-05-01T09:24:08.424Z</time></trkpt><trkpt lat="45.2120633" lon="11.6746617"><ele>11.0</ele><time>2026-05-01T09:24:09.429Z</time></trkpt><trkpt lat="45.212035" lon="11.674755"><ele>11.0</ele><time>2026-05-01T09:24:10.421Z</time></trkpt><trkpt lat="45.2120067" lon="11.67485"><ele>11.0</ele><time>2026-05-01T09:24:11.423Z</time></trkpt><trkpt lat="45.2119817" lon="11.674945"><ele>11.0</ele><time>2026-05-01T09:24:12.423Z</time></trkpt><trkpt lat="45.211955" lon="11.6750383"><ele>11.0</ele><time>2026-05-01T09:24:13.426Z</time></trkpt><trkpt lat="45.2119333" lon="11.6751283"><ele>11.0</ele><time>2026-05-01T09:24:14.426Z</time></trkpt><trkpt lat="45.21191" lon="11.6752217"><ele>11.0</ele><time>2026-05-01T09:24:15.428Z</time></trkpt><trkpt lat="45.2118883" lon="11.675315"><ele>11.0</ele><time>2026-05-01T09:24:16.392Z</time></trkpt><trkpt lat="45.2118667" lon="11.6754083"><ele>10.714285714285715</ele><time>2026-05-01T09:24:17.414Z</time></trkpt><trkpt lat="45.2118433" lon="11.6754983"><ele>10.428571428571429</ele><time>2026-05-01T09:24:18.425Z</time></trkpt><trkpt lat="45.21182" lon="11.675585"><ele>10.142857142857142</ele><time>2026-05-01T09:24:19.422Z</time></trkpt><trkpt lat="45.2117983" lon="11.6756767"><ele>9.857142857142858</ele><time>2026-05-01T09:24:20.422Z</time></trkpt><trkpt lat="45.2117717" lon="11.67577"><ele>9.571428571428571</ele><time>2026-05-01T09:24:21.424Z</time></trkpt><trkpt lat="45.2117433" lon="11.6758617"><ele>9.285714285714286</ele><time>2026-05-01T09:24:22.425Z</time></trkpt><trkpt lat="45.211715" lon="11.675955"><ele>9.0</ele><time>2026-05-01T09:24:23.428Z</time></trkpt><trkpt lat="45.2116917" lon="11.676045"><ele>8.857142857142858</ele><time>2026-05-01T09:24:24.423Z</time></trkpt><trkpt lat="45.2116717" lon="11.676135"><ele>8.714285714285715</ele><time>2026-05-01T09:24:25.424Z</time></trkpt><trkpt lat="45.2116467" lon="11.67622"><ele>8.571428571428571</ele><time>2026-05-01T09:24:26.43Z</time></trkpt><trkpt lat="45.2116217" lon="11.676305"><ele>8.428571428571429</ele><time>2026-05-01T09:24:27.423Z</time></trkpt><trkpt lat="45.2116" lon="11.6763967"><ele>8.285714285714285</ele><time>2026-05-01T09:24:28.418Z</time></trkpt><trkpt lat="45.2115767" lon="11.676485"><ele>8.142857142857142</ele><time>2026-05-01T09:24:29.425Z</time></trkpt><trkpt lat="45.211555" lon="11.6765733"><ele>8.0</ele><time>2026-05-01T09:24:30.428Z</time></trkpt><trkpt lat="45.211535" lon="11.6766633"><ele>8.0</ele><time>2026-05-01T09:24:31.427Z</time></trkpt><trkpt lat="45.211515" lon="11.676755"><ele>7.999999999999999</ele><time>2026-05-01T09:24:32.405Z</time></trkpt><trkpt lat="45.2114983" lon="11.6768467"><ele>8.0</ele><time>2026-05-01T09:24:33.42Z</time></trkpt><trkpt lat="45.2114833" lon="11.6769383"><ele>8.0</ele><time>2026-05-01T09:24:34.424Z</time></trkpt><trkpt lat="45.2114617" lon="11.6770233"><ele>7.999999999999999</ele><time>2026-05-01T09:24:35.416Z</time></trkpt><trkpt lat="45.2114333" lon="11.6771067"><ele>8.0</ele><time>2026-05-01T09:24:36.472Z</time></trkpt><trkpt lat="45.211405" lon="11.6771867"><ele>8.0</ele><time>2026-05-01T09:24:37.417Z</time></trkpt><trkpt lat="45.2113567" lon="11.6773483"><ele>8.142857142857142</ele><time>2026-05-01T09:24:39.427Z</time></trkpt><trkpt lat="45.21133" lon="11.67743"><ele>8.285714285714285</ele><time>2026-05-01T09:24:40.428Z</time></trkpt><trkpt lat="45.2113017" lon="11.67751"><ele>8.428571428571429</ele><time>2026-05-01T09:24:41.428Z</time></trkpt><trkpt lat="45.2112717" lon="11.677595"><ele>8.571428571428571</ele><time>2026-05-01T09:24:42.418Z</time></trkpt><trkpt lat="45.2112483" lon="11.67768"><ele>8.714285714285715</ele><time>2026-05-01T09:24:43.428Z</time></trkpt><trkpt lat="45.2112233" lon="11.67777"><ele>8.857142857142858</ele><time>2026-05-01T09:24:44.429Z</time></trkpt><trkpt lat="45.2111983" lon="11.6778583"><ele>9.0</ele><time>2026-05-01T09:24:45.424Z</time></trkpt><trkpt lat="45.2111717" lon="11.6779467"><ele>9.142857142857144</ele><time>2026-05-01T09:24:46.426Z</time></trkpt><trkpt lat="45.2111533" lon="11.6780333"><ele>9.285714285714286</ele><time>2026-05-01T09:24:47.417Z</time></trkpt><trkpt lat="45.211135" lon="11.6781217"><ele>9.428571428571429</ele><time>2026-05-01T09:24:48.434Z</time></trkpt><trkpt lat="45.2111117" lon="11.6782067"><ele>9.571428571428573</ele><time>2026-05-01T09:24:49.419Z</time></trkpt><trkpt lat="45.2110867" lon="11.67829"><ele>9.714285714285715</ele><time>2026-05-01T09:24:50.428Z</time></trkpt><trkpt lat="45.2110633" lon="11.6783733"><ele>9.857142857142858</ele><time>2026-05-01T09:24:51.43Z</time></trkpt><trkpt lat="45.2110383" lon="11.6784583"><ele>10.0</ele><time>2026-05-01T09:24:52.417Z</time></trkpt><trkpt lat="45.211015" lon="11.678545"><ele>9.857142857142858</ele><time>2026-05-01T09:24:53.42Z</time></trkpt><trkpt lat="45.2109917" lon="11.6786317"><ele>9.714285714285715</ele><time>2026-05-01T09:24:54.428Z</time></trkpt><trkpt lat="45.2109683" lon="11.6787167"><ele>9.571428571428573</ele><time>2026-05-01T09:24:55.428Z</time></trkpt><trkpt lat="45.2109483" lon="11.6788017"><ele>9.428571428571429</ele><time>2026-05-01T09:24:56.429Z</time></trkpt><trkpt lat="45.2109117" lon="11.6789683"><ele>9.285714285714286</ele><time>2026-05-01T09:24:58.418Z</time></trkpt><trkpt lat="45.2108883" lon="11.6790533"><ele>9.142857142857144</ele><time>2026-05-01T09:24:59.425Z</time></trkpt><trkpt lat="45.2108617" lon="11.6791367"><ele>9.0</ele><time>2026-05-01T09:25:00.427Z</time></trkpt><trkpt lat="45.2108383" lon="11.6792217"><ele>9.0</ele><time>2026-05-01T09:25:01.424Z</time></trkpt><trkpt lat="45.2108133" lon="11.6793067"><ele>9.0</ele><time>2026-05-01T09:25:02.421Z</time></trkpt><trkpt lat="45.2107917" lon="11.6793933"><ele>9.0</ele><time>2026-05-01T09:25:03.427Z</time></trkpt><trkpt lat="45.2107717" lon="11.6794817"><ele>9.0</ele><time>2026-05-01T09:25:04.399Z</time></trkpt><trkpt lat="45.2107517" lon="11.67957"><ele>9.0</ele><time>2026-05-01T09:25:05.418Z</time></trkpt><trkpt lat="45.2107133" lon="11.6797383"><ele>9.0</ele><time>2026-05-01T09:25:07.42Z</time></trkpt><trkpt lat="45.21068" lon="11.6799083"><ele>8.8</ele><time>2026-05-01T09:25:09.42Z</time></trkpt><trkpt lat="45.21065" lon="11.6800783"><ele>8.600000000000001</ele><time>2026-05-01T09:25:11.417Z</time></trkpt><trkpt lat="45.2106217" lon="11.6802383"><ele>8.4</ele><time>2026-05-01T09:25:13.427Z</time></trkpt><trkpt lat="45.2105933" lon="11.6804017"><ele>8.200000000000001</ele><time>2026-05-01T09:25:15.429Z</time></trkpt><trkpt lat="45.2105767" lon="11.68049"><ele>8.0</ele><time>2026-05-01T09:25:16.425Z</time></trkpt><trkpt lat="45.21055" lon="11.68066"><ele>8.0</ele><time>2026-05-01T09:25:18.428Z</time></trkpt><trkpt lat="45.21054" lon="11.6807483"><ele>8.0</ele><time>2026-05-01T09:25:19.425Z</time></trkpt><trkpt lat="45.21052" lon="11.6809133"><ele>8.0</ele><time>2026-05-01T09:25:21.416Z</time></trkpt><trkpt lat="45.2105" lon="11.681075"><ele>8.0</ele><time>2026-05-01T09:25:23.428Z</time></trkpt><trkpt lat="45.2104833" lon="11.68124"><ele>8.0</ele><time>2026-05-01T09:25:25.429Z</time></trkpt><trkpt lat="45.210465" lon="11.6813967"><ele>8.0</ele><time>2026-05-01T09:25:27.428Z</time></trkpt><trkpt lat="45.21045" lon="11.6815517"><ele>8.0</ele><time>2026-05-01T09:25:29.428Z</time></trkpt><trkpt lat="45.2104333" lon="11.6817033"><ele>8.0</ele><time>2026-05-01T09:25:31.409Z</time></trkpt><trkpt lat="45.2104167" lon="11.6818533"><ele>8.0</ele><time>2026-05-01T09:25:33.429Z</time></trkpt><trkpt lat="45.210395" lon="11.6820133"><ele>8.0</ele><time>2026-05-01T09:25:35.423Z</time></trkpt><trkpt lat="45.2103617" lon="11.6821633"><ele>8.0</ele><time>2026-05-01T09:25:37.506Z</time></trkpt><trkpt lat="45.2103317" lon="11.682325"><ele>8.0</ele><time>2026-05-01T09:25:39.425Z</time></trkpt><trkpt lat="45.2103" lon="11.6824783"><ele>8.0</ele><time>2026-05-01T09:25:41.389Z</time></trkpt><trkpt lat="45.2102633" lon="11.6826217"><ele>8.0</ele><time>2026-05-01T09:25:43.418Z</time></trkpt><trkpt lat="45.21022" lon="11.6827583"><ele>8.0</ele><time>2026-05-01T09:25:45.43Z</time></trkpt><trkpt lat="45.21017" lon="11.6828917"><ele>8.0</ele><time>2026-05-01T09:25:47.418Z</time></trkpt><trkpt lat="45.210115" lon="11.6830267"><ele>8.0</ele><time>2026-05-01T09:25:49.417Z</time></trkpt><trkpt lat="45.210055" lon="11.6831583"><ele>8.0</ele><time>2026-05-01T09:25:51.428Z</time></trkpt><trkpt lat="45.20999" lon="11.6832783"><ele>8.0</ele><time>2026-05-01T09:25:53.428Z</time></trkpt><trkpt lat="45.2099183" lon="11.6834"><ele>8.0</ele><time>2026-05-01T09:25:55.425Z</time></trkpt><trkpt lat="45.20984" lon="11.6835167"><ele>8.25</ele><time>2026-05-01T09:25:57.431Z</time></trkpt><trkpt lat="45.2097567" lon="11.68363"><ele>8.5</ele><time>2026-05-01T09:25:59.428Z</time></trkpt><trkpt lat="45.209665" lon="11.6837383"><ele>8.75</ele><time>2026-05-01T09:26:01.42Z</time></trkpt><trkpt lat="45.2095783" lon="11.68385"><ele>9.0</ele><time>2026-05-01T09:26:03.411Z</time></trkpt><trkpt lat="45.2095083" lon="11.68396"><ele>9.0</ele><time>2026-05-01T09:26:05.429Z</time></trkpt><trkpt lat="45.2094433" lon="11.6840817"><ele>9.0</ele><time>2026-05-01T09:26:07.427Z</time></trkpt><trkpt lat="45.2093583" lon="11.6842067"><ele>9.0</ele><time>2026-05-01T09:26:09.421Z</time></trkpt><trkpt lat="45.2092767" lon="11.68433"><ele>9.0</ele><time>2026-05-01T09:26:11.416Z</time></trkpt><trkpt lat="45.2091883" lon="11.6844483"><ele>9.0</ele><time>2026-05-01T09:26:13.431Z</time></trkpt><trkpt lat="45.2091" lon="11.6845683"><ele>9.0</ele><time>2026-05-01T09:26:15.419Z</time></trkpt><trkpt lat="45.2090033" lon="11.6846883"><ele>9.0</ele><time>2026-05-01T09:26:17.417Z</time></trkpt><trkpt lat="45.208955" lon="11.68475"><ele>9.0</ele><time>2026-05-01T09:26:18.436Z</time></trkpt><trkpt lat="45.2089033" lon="11.6848067"><ele>9.0</ele><time>2026-05-01T09:26:19.433Z</time></trkpt><trkpt lat="45.2088533" lon="11.6848633"><ele>9.0</ele><time>2026-05-01T09:26:20.426Z</time></trkpt><trkpt lat="45.2088067" lon="11.684925"><ele>9.0</ele><time>2026-05-01T09:26:21.427Z</time></trkpt><trkpt lat="45.2087217" lon="11.6850467"><ele>9.0</ele><time>2026-05-01T09:26:23.431Z</time></trkpt><trkpt lat="45.2086767" lon="11.6851117"><ele>9.0</ele><time>2026-05-01T09:26:24.429Z</time></trkpt><trkpt lat="45.208595" lon="11.6852417"><ele>9.0</ele><time>2026-05-01T09:26:26.412Z</time></trkpt><trkpt lat="45.2085167" lon="11.6853667"><ele>9.0</ele><time>2026-05-01T09:26:28.431Z</time></trkpt><trkpt lat="45.2084733" lon="11.6854317"><ele>9.000000000000002</ele><time>2026-05-01T09:26:29.418Z</time></trkpt><trkpt lat="45.2084267" lon="11.6854983"><ele>9.0</ele><time>2026-05-01T09:26:30.427Z</time></trkpt><trkpt lat="45.2083783" lon="11.6855683"><ele>9.0</ele><time>2026-05-01T09:26:31.424Z</time></trkpt><trkpt lat="45.2083317" lon="11.6856467"><ele>9.0</ele><time>2026-05-01T09:26:32.417Z</time></trkpt><trkpt lat="45.2082833" lon="11.6857233"><ele>9.0</ele><time>2026-05-01T09:26:33.429Z</time></trkpt><trkpt lat="45.2082383" lon="11.6858"><ele>9.000000000000002</ele><time>2026-05-01T09:26:34.428Z</time></trkpt><trkpt lat="45.2081917" lon="11.685875"><ele>9.0</ele><time>2026-05-01T09:26:35.404Z</time></trkpt><trkpt lat="45.208145" lon="11.6859483"><ele>9.000000000000002</ele><time>2026-05-01T09:26:36.418Z</time></trkpt><trkpt lat="45.2081017" lon="11.6860217"><ele>9.0</ele><time>2026-05-01T09:26:37.425Z</time></trkpt><trkpt lat="45.20806" lon="11.6860967"><ele>9.0</ele><time>2026-05-01T09:26:38.427Z</time></trkpt><trkpt lat="45.2080167" lon="11.6861717"><ele>9.0</ele><time>2026-05-01T09:26:39.412Z</time></trkpt><trkpt lat="45.2079733" lon="11.6862467"><ele>9.0</ele><time>2026-05-01T09:26:40.426Z</time></trkpt><trkpt lat="45.2079333" lon="11.68632"><ele>9.000000000000002</ele><time>2026-05-01T09:26:41.424Z</time></trkpt><trkpt lat="45.207885" lon="11.6863883"><ele>9.0</ele><time>2026-05-01T09:26:42.43Z</time></trkpt><trkpt lat="45.2078383" lon="11.6864617"><ele>9.000000000000002</ele><time>2026-05-01T09:26:43.431Z</time></trkpt><trkpt lat="45.2077967" lon="11.6865333"><ele>9.0</ele><time>2026-05-01T09:26:44.429Z</time></trkpt><trkpt lat="45.2077583" lon="11.6866067"><ele>9.0</ele><time>2026-05-01T09:26:45.399Z</time></trkpt><trkpt lat="45.2077167" lon="11.6866767"><ele>9.0</ele><time>2026-05-01T09:26:46.396Z</time></trkpt><trkpt lat="45.2076333" lon="11.6868117"><ele>9.0</ele><time>2026-05-01T09:26:48.428Z</time></trkpt><trkpt lat="45.20759" lon="11.6868767"><ele>9.000000000000002</ele><time>2026-05-01T09:26:49.414Z</time></trkpt><trkpt lat="45.2075433" lon="11.6869417"><ele>9.0</ele><time>2026-05-01T09:26:50.417Z</time></trkpt><trkpt lat="45.2075" lon="11.6870133"><ele>9.0</ele><time>2026-05-01T09:26:51.418Z</time></trkpt><trkpt lat="45.2074583" lon="11.6870867"><ele>9.0</ele><time>2026-05-01T09:26:52.415Z</time></trkpt><trkpt lat="45.207415" lon="11.6871533"><ele>9.0</ele><time>2026-05-01T09:26:53.422Z</time></trkpt><trkpt lat="45.2073667" lon="11.6872183"><ele>9.0</ele><time>2026-05-01T09:26:54.394Z</time></trkpt><trkpt lat="45.20732" lon="11.6872817"><ele>9.0</ele><time>2026-05-01T09:26:55.393Z</time></trkpt><trkpt lat="45.20727" lon="11.6873433"><ele>9.0</ele><time>2026-05-01T09:26:56.387Z</time></trkpt><trkpt lat="45.2071817" lon="11.6874667"><ele>9.0</ele><time>2026-05-01T09:26:58.39Z</time></trkpt><trkpt lat="45.20709" lon="11.6875883"><ele>9.0</ele><time>2026-05-01T09:27:00.391Z</time></trkpt><trkpt lat="45.2070433" lon="11.6876533"><ele>9.0</ele><time>2026-05-01T09:27:01.415Z</time></trkpt><trkpt lat="45.2069983" lon="11.6877233"><ele>9.0</ele><time>2026-05-01T09:27:02.429Z</time></trkpt><trkpt lat="45.2069533" lon="11.6877933"><ele>9.0</ele><time>2026-05-01T09:27:03.416Z</time></trkpt><trkpt lat="45.20691" lon="11.6878617"><ele>9.0</ele><time>2026-05-01T09:27:04.409Z</time></trkpt><trkpt lat="45.2068667" lon="11.68793"><ele>8.75</ele><time>2026-05-01T09:27:05.422Z</time></trkpt><trkpt lat="45.20678" lon="11.6880433"><ele>8.5</ele><time>2026-05-01T09:27:07.393Z</time></trkpt><trkpt lat="45.2067033" lon="11.6881517"><ele>8.25</ele><time>2026-05-01T09:27:09.42Z</time></trkpt><trkpt lat="45.20662" lon="11.688265"><ele>8.0</ele><time>2026-05-01T09:27:11.42Z</time></trkpt><trkpt lat="45.2065117" lon="11.68837"><ele>7.999999999999999</ele><time>2026-05-01T09:27:13.429Z</time></trkpt><trkpt lat="45.2064583" lon="11.68843"><ele>8.0</ele><time>2026-05-01T09:27:14.424Z</time></trkpt><trkpt lat="45.2064083" lon="11.6884933"><ele>8.0</ele><time>2026-05-01T09:27:15.417Z</time></trkpt><trkpt lat="45.2063617" lon="11.6885583"><ele>8.0</ele><time>2026-05-01T09:27:16.42Z</time></trkpt><trkpt lat="45.2063167" lon="11.6886233"><ele>7.999999999999999</ele><time>2026-05-01T09:27:17.417Z</time></trkpt><trkpt lat="45.2062717" lon="11.6886867"><ele>8.0</ele><time>2026-05-01T09:27:18.398Z</time></trkpt><trkpt lat="45.2061817" lon="11.6888133"><ele>8.0</ele><time>2026-05-01T09:27:20.421Z</time></trkpt><trkpt lat="45.2061367" lon="11.6888767"><ele>7.999999999999999</ele><time>2026-05-01T09:27:21.423Z</time></trkpt><trkpt lat="45.20609" lon="11.6889417"><ele>8.0</ele><time>2026-05-01T09:27:22.416Z</time></trkpt><trkpt lat="45.20604" lon="11.6890033"><ele>8.0</ele><time>2026-05-01T09:27:23.427Z</time></trkpt><trkpt lat="45.2059883" lon="11.6890633"><ele>7.999999999999999</ele><time>2026-05-01T09:27:24.399Z</time></trkpt><trkpt lat="45.2059367" lon="11.689125"><ele>8.0</ele><time>2026-05-01T09:27:25.415Z</time></trkpt><trkpt lat="45.2058867" lon="11.6891867"><ele>8.0</ele><time>2026-05-01T09:27:26.424Z</time></trkpt><trkpt lat="45.205835" lon="11.689245"><ele>8.0</ele><time>2026-05-01T09:27:27.42Z</time></trkpt><trkpt lat="45.2057817" lon="11.6893017"><ele>7.999999999999999</ele><time>2026-05-01T09:27:28.428Z</time></trkpt><trkpt lat="45.2057283" lon="11.6893517"><ele>8.0</ele><time>2026-05-01T09:27:29.429Z</time></trkpt><trkpt lat="45.20567" lon="11.6893983"><ele>8.0</ele><time>2026-05-01T09:27:30.418Z</time></trkpt><trkpt lat="45.2056117" lon="11.68944"><ele>7.999999999999999</ele><time>2026-05-01T09:27:31.411Z</time></trkpt><trkpt lat="45.2055483" lon="11.6894733"><ele>8.0</ele><time>2026-05-01T09:27:32.428Z</time></trkpt><trkpt lat="45.205485" lon="11.6895033"><ele>8.0</ele><time>2026-05-01T09:27:33.428Z</time></trkpt><trkpt lat="45.2054217" lon="11.6895267"><ele>8.0</ele><time>2026-05-01T09:27:34.432Z</time></trkpt><trkpt lat="45.2053583" lon="11.689545"><ele>7.999999999999999</ele><time>2026-05-01T09:27:35.429Z</time></trkpt><trkpt lat="45.2052933" lon="11.68956"><ele>8.0</ele><time>2026-05-01T09:27:36.424Z</time></trkpt><trkpt lat="45.2052283" lon="11.6895733"><ele>8.0</ele><time>2026-05-01T09:27:37.421Z</time></trkpt><trkpt lat="45.2051633" lon="11.6895867"><ele>7.999999999999999</ele><time>2026-05-01T09:27:38.424Z</time></trkpt><trkpt lat="45.2050967" lon="11.6895983"><ele>8.0</ele><time>2026-05-01T09:27:39.398Z</time></trkpt><trkpt lat="45.2050283" lon="11.6896067"><ele>8.0</ele><time>2026-05-01T09:27:40.425Z</time></trkpt><trkpt lat="45.204965" lon="11.689615"><ele>8.0</ele><time>2026-05-01T09:27:41.428Z</time></trkpt><trkpt lat="45.2048433" lon="11.6896233"><ele>8.0</ele><time>2026-05-01T09:27:43.427Z</time></trkpt><trkpt lat="45.204725" lon="11.689625"><ele>8.0</ele><time>2026-05-01T09:27:45.405Z</time></trkpt><trkpt lat="45.20461" lon="11.6896233"><ele>8.0</ele><time>2026-05-01T09:27:47.427Z</time></trkpt><trkpt lat="45.2044933" lon="11.6896183"><ele>8.0</ele><time>2026-05-01T09:27:49.426Z</time></trkpt><trkpt lat="45.2043767" lon="11.689605"><ele>8.0</ele><time>2026-05-01T09:27:51.418Z</time></trkpt><trkpt lat="45.20426" lon="11.6895817"><ele>8.0</ele><time>2026-05-01T09:27:53.426Z</time></trkpt><trkpt lat="45.2041417" lon="11.6895467"><ele>8.0</ele><time>2026-05-01T09:27:55.423Z</time></trkpt><trkpt lat="45.2040317" lon="11.6895033"><ele>8.166666666666666</ele><time>2026-05-01T09:27:57.425Z</time></trkpt><trkpt lat="45.2039117" lon="11.689465"><ele>8.333333333333332</ele><time>2026-05-01T09:27:59.431Z</time></trkpt><trkpt lat="45.20385" lon="11.689445"><ele>8.5</ele><time>2026-05-01T09:28:00.429Z</time></trkpt><trkpt lat="45.2037867" lon="11.6894233"><ele>8.666666666666666</ele><time>2026-05-01T09:28:01.418Z</time></trkpt><trkpt lat="45.203725" lon="11.6894017"><ele>8.833333333333334</ele><time>2026-05-01T09:28:02.426Z</time></trkpt><trkpt lat="45.2036617" lon="11.6893783"><ele>9.0</ele><time>2026-05-01T09:28:03.427Z</time></trkpt><trkpt lat="45.2035417" lon="11.6893233"><ele>9.0</ele><time>2026-05-01T09:28:05.429Z</time></trkpt><trkpt lat="45.20348" lon="11.6892967"><ele>9.0</ele><time>2026-05-01T09:28:06.421Z</time></trkpt><trkpt lat="45.20342" lon="11.6892667"><ele>9.0</ele><time>2026-05-01T09:28:07.428Z</time></trkpt><trkpt lat="45.2032983" lon="11.689205"><ele>9.0</ele><time>2026-05-01T09:28:09.429Z</time></trkpt><trkpt lat="45.2032383" lon="11.6891767"><ele>9.0</ele><time>2026-05-01T09:28:10.43Z</time></trkpt><trkpt lat="45.2031217" lon="11.6891183"><ele>9.0</ele><time>2026-05-01T09:28:12.421Z</time></trkpt><trkpt lat="45.2030617" lon="11.689085"><ele>9.166666666666666</ele><time>2026-05-01T09:28:13.425Z</time></trkpt><trkpt lat="45.2030017" lon="11.6890533"><ele>9.333333333333334</ele><time>2026-05-01T09:28:14.516Z</time></trkpt><trkpt lat="45.2029417" lon="11.6890217"><ele>9.5</ele><time>2026-05-01T09:28:15.426Z</time></trkpt><trkpt lat="45.20288" lon="11.68899"><ele>9.666666666666668</ele><time>2026-05-01T09:28:16.417Z</time></trkpt><trkpt lat="45.202765" lon="11.68893"><ele>9.833333333333334</ele><time>2026-05-01T09:28:18.427Z</time></trkpt><trkpt lat="45.202655" lon="11.6888767"><ele>10.0</ele><time>2026-05-01T09:28:20.43Z</time></trkpt><trkpt lat="45.20254" lon="11.6888267"><ele>10.0</ele><time>2026-05-01T09:28:22.397Z</time></trkpt><trkpt lat="45.2024783" lon="11.6887983"><ele>10.0</ele><time>2026-05-01T09:28:23.427Z</time></trkpt><trkpt lat="45.2024133" lon="11.6887733"><ele>10.0</ele><time>2026-05-01T09:28:24.426Z</time></trkpt><trkpt lat="45.20235" lon="11.68875"><ele>10.0</ele><time>2026-05-01T09:28:25.421Z</time></trkpt><trkpt lat="45.2022833" lon="11.6887267"><ele>10.0</ele><time>2026-05-01T09:28:26.423Z</time></trkpt><trkpt lat="45.20222" lon="11.6887"><ele>10.0</ele><time>2026-05-01T09:28:27.429Z</time></trkpt><trkpt lat="45.2021583" lon="11.6886683"><ele>10.0</ele><time>2026-05-01T09:28:28.427Z</time></trkpt><trkpt lat="45.2020983" lon="11.6886367"><ele>9.857142857142858</ele><time>2026-05-01T09:28:29.43Z</time></trkpt><trkpt lat="45.2020367" lon="11.6886033"><ele>9.714285714285715</ele><time>2026-05-01T09:28:30.431Z</time></trkpt><trkpt lat="45.2019783" lon="11.6885667"><ele>9.571428571428573</ele><time>2026-05-01T09:28:31.424Z</time></trkpt><trkpt lat="45.20192" lon="11.6885267"><ele>9.428571428571429</ele><time>2026-05-01T09:28:32.427Z</time></trkpt><trkpt lat="45.2018067" lon="11.68845"><ele>9.285714285714286</ele><time>2026-05-01T09:28:34.426Z</time></trkpt><trkpt lat="45.20175" lon="11.6884083"><ele>9.142857142857144</ele><time>2026-05-01T09:28:35.431Z</time></trkpt><trkpt lat="45.201695" lon="11.68836"><ele>9.0</ele><time>2026-05-01T09:28:36.425Z</time></trkpt><trkpt lat="45.2016433" lon="11.6883083"><ele>9.0</ele><time>2026-05-01T09:28:37.426Z</time></trkpt><trkpt lat="45.2015417" lon="11.6882067"><ele>9.0</ele><time>2026-05-01T09:28:39.431Z</time></trkpt><trkpt lat="45.20149" lon="11.6881467"><ele>9.0</ele><time>2026-05-01T09:28:40.425Z</time></trkpt><trkpt lat="45.2014383" lon="11.6880917"><ele>9.0</ele><time>2026-05-01T09:28:41.421Z</time></trkpt><trkpt lat="45.2013867" lon="11.6880383"><ele>9.0</ele><time>2026-05-01T09:28:42.431Z</time></trkpt><trkpt lat="45.2012867" lon="11.6879367"><ele>9.0</ele><time>2026-05-01T09:28:44.428Z</time></trkpt><trkpt lat="45.2012" lon="11.6878233"><ele>9.333333333333334</ele><time>2026-05-01T09:28:46.426Z</time></trkpt><trkpt lat="45.2011567" lon="11.6877567"><ele>9.666666666666666</ele><time>2026-05-01T09:28:47.429Z</time></trkpt><trkpt lat="45.2010733" lon="11.6876167"><ele>10.0</ele><time>2026-05-01T09:28:49.427Z</time></trkpt><trkpt lat="45.2010333" lon="11.6875383"><ele>10.333333333333332</ele><time>2026-05-01T09:28:50.431Z</time></trkpt><trkpt lat="45.2009967" lon="11.6874567"><ele>10.666666666666666</ele><time>2026-05-01T09:28:51.433Z</time></trkpt><trkpt lat="45.2009567" lon="11.687375"><ele>11.0</ele><time>2026-05-01T09:28:52.426Z</time></trkpt><trkpt lat="45.2009183" lon="11.687295"><ele>11.0</ele><time>2026-05-01T09:28:53.428Z</time></trkpt><trkpt lat="45.200885" lon="11.6872133"><ele>11.0</ele><time>2026-05-01T09:28:54.399Z</time></trkpt><trkpt lat="45.2008517" lon="11.6871317"><ele>11.0</ele><time>2026-05-01T09:28:55.425Z</time></trkpt><trkpt lat="45.20082" lon="11.6870467"><ele>11.0</ele><time>2026-05-01T09:28:56.434Z</time></trkpt><trkpt lat="45.2007867" lon="11.686965"><ele>11.0</ele><time>2026-05-01T09:28:57.425Z</time></trkpt><trkpt lat="45.200755" lon="11.686885"><ele>11.0</ele><time>2026-05-01T09:28:58.428Z</time></trkpt><trkpt lat="45.2007217" lon="11.6868017"><ele>11.0</ele><time>2026-05-01T09:28:59.43Z</time></trkpt><trkpt lat="45.2006867" lon="11.6867167"><ele>11.0</ele><time>2026-05-01T09:29:00.427Z</time></trkpt><trkpt lat="45.2006567" lon="11.686635"><ele>11.0</ele><time>2026-05-01T09:29:01.434Z</time></trkpt><trkpt lat="45.2006283" lon="11.686545"><ele>11.0</ele><time>2026-05-01T09:29:02.429Z</time></trkpt><trkpt lat="45.2006" lon="11.6864567"><ele>11.0</ele><time>2026-05-01T09:29:03.427Z</time></trkpt><trkpt lat="45.2005683" lon="11.6863733"><ele>11.0</ele><time>2026-05-01T09:29:04.428Z</time></trkpt><trkpt lat="45.2005367" lon="11.6862933"><ele>11.0</ele><time>2026-05-01T09:29:05.426Z</time></trkpt><trkpt lat="45.2005083" lon="11.6862133"><ele>11.0</ele><time>2026-05-01T09:29:06.421Z</time></trkpt><trkpt lat="45.2004567" lon="11.6860567"><ele>10.8</ele><time>2026-05-01T09:29:08.426Z</time></trkpt><trkpt lat="45.2004017" lon="11.6858983"><ele>10.600000000000001</ele><time>2026-05-01T09:29:10.428Z</time></trkpt><trkpt lat="45.2003417" lon="11.68574"><ele>10.4</ele><time>2026-05-01T09:29:12.409Z</time></trkpt><trkpt lat="45.2003133" lon="11.68566"><ele>10.2</ele><time>2026-05-01T09:29:13.422Z</time></trkpt><trkpt lat="45.2002533" lon="11.6855017"><ele>10.0</ele><time>2026-05-01T09:29:15.398Z</time></trkpt><trkpt lat="45.2002233" lon="11.6854183"><ele>10.0</ele><time>2026-05-01T09:29:16.425Z</time></trkpt><trkpt lat="45.2001917" lon="11.6853317"><ele>10.0</ele><time>2026-05-01T09:29:17.43Z</time></trkpt><trkpt lat="45.20016" lon="11.68525"><ele>10.0</ele><time>2026-05-01T09:29:18.429Z</time></trkpt><trkpt lat="45.2001283" lon="11.6851717"><ele>10.0</ele><time>2026-05-01T09:29:19.429Z</time></trkpt><trkpt lat="45.200095" lon="11.685095"><ele>10.0</ele><time>2026-05-01T09:29:20.429Z</time></trkpt><trkpt lat="45.200055" lon="11.68502"><ele>10.0</ele><time>2026-05-01T09:29:21.417Z</time></trkpt><trkpt lat="45.2000133" lon="11.6849467"><ele>10.0</ele><time>2026-05-01T09:29:22.418Z</time></trkpt><trkpt lat="45.19997" lon="11.6848817"><ele>10.0</ele><time>2026-05-01T09:29:23.428Z</time></trkpt><trkpt lat="45.1999217" lon="11.6848217"><ele>10.0</ele><time>2026-05-01T09:29:24.427Z</time></trkpt><trkpt lat="45.19987" lon="11.6847617"><ele>10.0</ele><time>2026-05-01T09:29:25.428Z</time></trkpt><trkpt lat="45.1998167" lon="11.6847067"><ele>10.0</ele><time>2026-05-01T09:29:26.412Z</time></trkpt><trkpt lat="45.1997633" lon="11.68465"><ele>10.0</ele><time>2026-05-01T09:29:27.418Z</time></trkpt><trkpt lat="45.1997067" lon="11.6845933"><ele>10.0</ele><time>2026-05-01T09:29:28.427Z</time></trkpt><trkpt lat="45.1996483" lon="11.6845367"><ele>10.0</ele><time>2026-05-01T09:29:29.428Z</time></trkpt><trkpt lat="45.1995883" lon="11.68448"><ele>10.0</ele><time>2026-05-01T09:29:30.428Z</time></trkpt><trkpt lat="45.1995267" lon="11.6844233"><ele>10.0</ele><time>2026-05-01T09:29:31.429Z</time></trkpt><trkpt lat="45.1994633" lon="11.6843717"><ele>10.0</ele><time>2026-05-01T09:29:32.428Z</time></trkpt><trkpt lat="45.199405" lon="11.68432"><ele>10.0</ele><time>2026-05-01T09:29:33.422Z</time></trkpt><trkpt lat="45.199345" lon="11.6842683"><ele>10.0</ele><time>2026-05-01T09:29:34.412Z</time></trkpt><trkpt lat="45.1992783" lon="11.6842233"><ele>10.0</ele><time>2026-05-01T09:29:35.421Z</time></trkpt><trkpt lat="45.1992133" lon="11.6841817"><ele>10.0</ele><time>2026-05-01T09:29:36.428Z</time></trkpt><trkpt lat="45.1991483" lon="11.68414"><ele>10.0</ele><time>2026-05-01T09:29:37.395Z</time></trkpt><trkpt lat="45.19908" lon="11.6841017"><ele>10.0</ele><time>2026-05-01T09:29:38.42Z</time></trkpt><trkpt lat="45.1990083" lon="11.684065"><ele>10.0</ele><time>2026-05-01T09:29:39.421Z</time></trkpt><trkpt lat="45.1989383" lon="11.6840383"><ele>10.0</ele><time>2026-05-01T09:29:40.428Z</time></trkpt><trkpt lat="45.1988667" lon="11.6840167"><ele>10.0</ele><time>2026-05-01T09:29:41.43Z</time></trkpt><trkpt lat="45.198795" lon="11.684"><ele>10.0</ele><time>2026-05-01T09:29:42.427Z</time></trkpt><trkpt lat="45.19872" lon="11.6839883"><ele>10.0</ele><time>2026-05-01T09:29:43.424Z</time></trkpt><trkpt lat="45.1986433" lon="11.6839817"><ele>10.0</ele><time>2026-05-01T09:29:44.428Z</time></trkpt><trkpt lat="45.1985683" lon="11.683975"><ele>10.0</ele><time>2026-05-01T09:29:45.428Z</time></trkpt><trkpt lat="45.1984967" lon="11.6839717"><ele>10.0</ele><time>2026-05-01T09:29:46.427Z</time></trkpt><trkpt lat="45.1984283" lon="11.68397"><ele>10.0</ele><time>2026-05-01T09:29:47.417Z</time></trkpt><trkpt lat="45.19836" lon="11.6839717"><ele>10.0</ele><time>2026-05-01T09:29:48.414Z</time></trkpt><trkpt lat="45.1982933" lon="11.683975"><ele>10.0</ele><time>2026-05-01T09:29:49.427Z</time></trkpt><trkpt lat="45.198225" lon="11.6839833"><ele>10.0</ele><time>2026-05-01T09:29:50.428Z</time></trkpt><trkpt lat="45.1981533" lon="11.683995"><ele>9.714285714285714</ele><time>2026-05-01T09:29:51.429Z</time></trkpt><trkpt lat="45.198085" lon="11.68401"><ele>9.428571428571429</ele><time>2026-05-01T09:29:52.429Z</time></trkpt><trkpt lat="45.198015" lon="11.6840267"><ele>9.142857142857142</ele><time>2026-05-01T09:29:53.409Z</time></trkpt><trkpt lat="45.197945" lon="11.6840467"><ele>8.857142857142858</ele><time>2026-05-01T09:29:54.422Z</time></trkpt><trkpt lat="45.1978783" lon="11.684065"><ele>8.571428571428571</ele><time>2026-05-01T09:29:55.427Z</time></trkpt><trkpt lat="45.1978133" lon="11.684085"><ele>8.285714285714285</ele><time>2026-05-01T09:29:56.43Z</time></trkpt><trkpt lat="45.1977467" lon="11.6841067"><ele>8.0</ele><time>2026-05-01T09:29:57.427Z</time></trkpt><trkpt lat="45.1976783" lon="11.6841283"><ele>8.0</ele><time>2026-05-01T09:29:58.421Z</time></trkpt><trkpt lat="45.1976117" lon="11.684155"><ele>7.999999999999999</ele><time>2026-05-01T09:29:59.416Z</time></trkpt><trkpt lat="45.1975467" lon="11.6841783"><ele>8.0</ele><time>2026-05-01T09:30:00.436Z</time></trkpt><trkpt lat="45.1974833" lon="11.6842"><ele>8.0</ele><time>2026-05-01T09:30:01.426Z</time></trkpt><trkpt lat="45.19742" lon="11.6842217"><ele>7.999999999999999</ele><time>2026-05-01T09:30:02.429Z</time></trkpt><trkpt lat="45.1973517" lon="11.684245"><ele>8.0</ele><time>2026-05-01T09:30:03.404Z</time></trkpt><trkpt lat="45.19729" lon="11.6842667"><ele>8.0</ele><time>2026-05-01T09:30:04.427Z</time></trkpt><trkpt lat="45.197225" lon="11.68429"><ele>8.0</ele><time>2026-05-01T09:30:05.431Z</time></trkpt><trkpt lat="45.1971617" lon="11.684315"><ele>7.999999999999999</ele><time>2026-05-01T09:30:06.422Z</time></trkpt><trkpt lat="45.1970933" lon="11.684335"><ele>8.0</ele><time>2026-05-01T09:30:07.427Z</time></trkpt><trkpt lat="45.1970283" lon="11.684355"><ele>8.0</ele><time>2026-05-01T09:30:08.424Z</time></trkpt><trkpt lat="45.1969617" lon="11.684375"><ele>7.999999999999999</ele><time>2026-05-01T09:30:09.4Z</time></trkpt><trkpt lat="45.1968967" lon="11.6843967"><ele>8.0</ele><time>2026-05-01T09:30:10.417Z</time></trkpt><trkpt lat="45.1968283" lon="11.684415"><ele>8.0</ele><time>2026-05-01T09:30:11.432Z</time></trkpt><trkpt lat="45.19676" lon="11.6844283"><ele>8.142857142857142</ele><time>2026-05-01T09:30:12.429Z</time></trkpt><trkpt lat="45.1966933" lon="11.6844417"><ele>8.285714285714285</ele><time>2026-05-01T09:30:13.43Z</time></trkpt><trkpt lat="45.1966267" lon="11.68446"><ele>8.428571428571429</ele><time>2026-05-01T09:30:14.429Z</time></trkpt><trkpt lat="45.1965583" lon="11.68448"><ele>8.571428571428571</ele><time>2026-05-01T09:30:15.412Z</time></trkpt><trkpt lat="45.1964917" lon="11.6845"><ele>8.714285714285715</ele><time>2026-05-01T09:30:16.42Z</time></trkpt><trkpt lat="45.196425" lon="11.684515"><ele>8.857142857142858</ele><time>2026-05-01T09:30:17.431Z</time></trkpt><trkpt lat="45.196355" lon="11.6845267"><ele>9.0</ele><time>2026-05-01T09:30:18.428Z</time></trkpt><trkpt lat="45.1962867" lon="11.684535"><ele>9.000000000000002</ele><time>2026-05-01T09:30:19.43Z</time></trkpt><trkpt lat="45.1962183" lon="11.6845383"><ele>9.0</ele><time>2026-05-01T09:30:20.419Z</time></trkpt><trkpt lat="45.19615" lon="11.6845333"><ele>9.0</ele><time>2026-05-01T09:30:21.428Z</time></trkpt><trkpt lat="45.1960817" lon="11.6845267"><ele>9.0</ele><time>2026-05-01T09:30:22.429Z</time></trkpt><trkpt lat="45.1960167" lon="11.6845167"><ele>9.0</ele><time>2026-05-01T09:30:23.425Z</time></trkpt><trkpt lat="45.1959483" lon="11.684505"><ele>9.000000000000002</ele><time>2026-05-01T09:30:24.424Z</time></trkpt><trkpt lat="45.19588" lon="11.6844917"><ele>9.0</ele><time>2026-05-01T09:30:25.395Z</time></trkpt><trkpt lat="45.1958133" lon="11.68448"><ele>9.000000000000002</ele><time>2026-05-01T09:30:26.421Z</time></trkpt><trkpt lat="45.1957483" lon="11.6844733"><ele>9.0</ele><time>2026-05-01T09:30:27.433Z</time></trkpt><trkpt lat="45.1956817" lon="11.6844667"><ele>9.0</ele><time>2026-05-01T09:30:28.431Z</time></trkpt><trkpt lat="45.1956167" lon="11.684455"><ele>9.0</ele><time>2026-05-01T09:30:29.426Z</time></trkpt><trkpt lat="45.1955533" lon="11.6844333"><ele>9.0</ele><time>2026-05-01T09:30:30.427Z</time></trkpt><trkpt lat="45.1954917" lon="11.6844083"><ele>9.000000000000002</ele><time>2026-05-01T09:30:31.392Z</time></trkpt><trkpt lat="45.1954283" lon="11.6843833"><ele>9.0</ele><time>2026-05-01T09:30:32.422Z</time></trkpt><trkpt lat="45.195365" lon="11.68436"><ele>9.000000000000002</ele><time>2026-05-01T09:30:33.417Z</time></trkpt><trkpt lat="45.1953" lon="11.684335"><ele>9.0</ele><time>2026-05-01T09:30:34.424Z</time></trkpt><trkpt lat="45.1952333" lon="11.6843"><ele>9.0</ele><time>2026-05-01T09:30:35.416Z</time></trkpt><trkpt lat="45.1951683" lon="11.68427"><ele>9.0</ele><time>2026-05-01T09:30:36.421Z</time></trkpt><trkpt lat="45.1951033" lon="11.68424"><ele>9.0</ele><time>2026-05-01T09:30:37.418Z</time></trkpt><trkpt lat="45.19504" lon="11.6842"><ele>9.000000000000002</ele><time>2026-05-01T09:30:38.432Z</time></trkpt><trkpt lat="45.1949733" lon="11.6841683"><ele>9.0</ele><time>2026-05-01T09:30:39.431Z</time></trkpt><trkpt lat="45.1949017" lon="11.68414"><ele>9.0</ele><time>2026-05-01T09:30:40.429Z</time></trkpt><trkpt lat="45.19483" lon="11.684115"><ele>9.0</ele><time>2026-05-01T09:30:41.39Z</time></trkpt><trkpt lat="45.1947533" lon="11.6840933"><ele>9.0</ele><time>2026-05-01T09:30:42.42Z</time></trkpt><trkpt lat="45.1946733" lon="11.68407"><ele>9.0</ele><time>2026-05-01T09:30:43.429Z</time></trkpt><trkpt lat="45.1945933" lon="11.6840433"><ele>9.0</ele><time>2026-05-01T09:30:44.425Z</time></trkpt><trkpt lat="45.1945133" lon="11.68402"><ele>9.0</ele><time>2026-05-01T09:30:45.421Z</time></trkpt><trkpt lat="45.1944333" lon="11.6839967"><ele>9.0</ele><time>2026-05-01T09:30:46.431Z</time></trkpt><trkpt lat="45.1943533" lon="11.68397"><ele>9.0</ele><time>2026-05-01T09:30:47.43Z</time></trkpt><trkpt lat="45.1942783" lon="11.6839417"><ele>9.0</ele><time>2026-05-01T09:30:48.43Z</time></trkpt><trkpt lat="45.1942033" lon="11.6839117"><ele>9.0</ele><time>2026-05-01T09:30:49.417Z</time></trkpt><trkpt lat="45.194125" lon="11.6838867"><ele>9.0</ele><time>2026-05-01T09:30:50.42Z</time></trkpt><trkpt lat="45.1940467" lon="11.68386"><ele>9.0</ele><time>2026-05-01T09:30:51.432Z</time></trkpt><trkpt lat="45.1939717" lon="11.6838333"><ele>8.833333333333334</ele><time>2026-05-01T09:30:52.421Z</time></trkpt><trkpt lat="45.1938967" lon="11.6838033"><ele>8.666666666666666</ele><time>2026-05-01T09:30:53.432Z</time></trkpt><trkpt lat="45.1938183" lon="11.6837767"><ele>8.5</ele><time>2026-05-01T09:30:54.433Z</time></trkpt><trkpt lat="45.19374" lon="11.68375"><ele>8.333333333333332</ele><time>2026-05-01T09:30:55.43Z</time></trkpt><trkpt lat="45.19366" lon="11.683725"><ele>8.166666666666666</ele><time>2026-05-01T09:30:56.433Z</time></trkpt><trkpt lat="45.1935833" lon="11.6837"><ele>8.0</ele><time>2026-05-01T09:30:57.397Z</time></trkpt><trkpt lat="45.1935083" lon="11.6836767"><ele>8.0</ele><time>2026-05-01T09:30:58.42Z</time></trkpt><trkpt lat="45.1934333" lon="11.683655"><ele>7.999999999999999</ele><time>2026-05-01T09:30:59.429Z</time></trkpt><trkpt lat="45.1933583" lon="11.6836317"><ele>8.0</ele><time>2026-05-01T09:31:00.427Z</time></trkpt><trkpt lat="45.193285" lon="11.68361"><ele>8.0</ele><time>2026-05-01T09:31:01.432Z</time></trkpt><trkpt lat="45.19321" lon="11.6835883"><ele>7.999999999999999</ele><time>2026-05-01T09:31:02.435Z</time></trkpt><trkpt lat="45.1931417" lon="11.683565"><ele>8.0</ele><time>2026-05-01T09:31:03.422Z</time></trkpt><trkpt lat="45.1930783" lon="11.68354"><ele>8.0</ele><time>2026-05-01T09:31:04.43Z</time></trkpt><trkpt lat="45.1930183" lon="11.6835117"><ele>8.0</ele><time>2026-05-01T09:31:05.405Z</time></trkpt><trkpt lat="45.1929533" lon="11.6834883"><ele>7.999999999999999</ele><time>2026-05-01T09:31:06.429Z</time></trkpt><trkpt lat="45.1928867" lon="11.68347"><ele>8.0</ele><time>2026-05-01T09:31:07.429Z</time></trkpt><trkpt lat="45.1928183" lon="11.6834517"><ele>8.0</ele><time>2026-05-01T09:31:08.432Z</time></trkpt><trkpt lat="45.19275" lon="11.6834317"><ele>7.999999999999999</ele><time>2026-05-01T09:31:09.432Z</time></trkpt><trkpt lat="45.1926783" lon="11.6834133"><ele>8.0</ele><time>2026-05-01T09:31:10.433Z</time></trkpt><trkpt lat="45.1926017" lon="11.6833983"><ele>8.0</ele><time>2026-05-01T09:31:11.432Z</time></trkpt><trkpt lat="45.1925267" lon="11.6833833"><ele>8.0</ele><time>2026-05-01T09:31:12.434Z</time></trkpt><trkpt lat="45.1924533" lon="11.6833683"><ele>7.999999999999999</ele><time>2026-05-01T09:31:13.392Z</time></trkpt><trkpt lat="45.1923817" lon="11.683355"><ele>8.0</ele><time>2026-05-01T09:31:14.427Z</time></trkpt><trkpt lat="45.1923117" lon="11.6833417"><ele>8.0</ele><time>2026-05-01T09:31:15.425Z</time></trkpt><trkpt lat="45.192245" lon="11.6833267"><ele>7.999999999999999</ele><time>2026-05-01T09:31:16.427Z</time></trkpt><trkpt lat="45.1921783" lon="11.6833133"><ele>8.0</ele><time>2026-05-01T09:31:17.429Z</time></trkpt><trkpt lat="45.192115" lon="11.683295"><ele>8.0</ele><time>2026-05-01T09:31:18.433Z</time></trkpt><trkpt lat="45.19199" lon="11.6832583"><ele>8.0</ele><time>2026-05-01T09:31:20.432Z</time></trkpt><trkpt lat="45.191925" lon="11.6832433"><ele>7.999999999999999</ele><time>2026-05-01T09:31:21.427Z</time></trkpt><trkpt lat="45.1918583" lon="11.68323"><ele>8.0</ele><time>2026-05-01T09:31:22.418Z</time></trkpt><trkpt lat="45.191795" lon="11.6832133"><ele>8.0</ele><time>2026-05-01T09:31:23.427Z</time></trkpt><trkpt lat="45.1917317" lon="11.6831983"><ele>7.999999999999999</ele><time>2026-05-01T09:31:24.419Z</time></trkpt><trkpt lat="45.1916683" lon="11.6831833"><ele>8.0</ele><time>2026-05-01T09:31:25.423Z</time></trkpt><trkpt lat="45.191605" lon="11.6831683"><ele>8.0</ele><time>2026-05-01T09:31:26.432Z</time></trkpt><trkpt lat="45.1915417" lon="11.6831533"><ele>7.999999999999999</ele><time>2026-05-01T09:31:27.388Z</time></trkpt><trkpt lat="45.1914783" lon="11.6831367"><ele>8.0</ele><time>2026-05-01T09:31:28.425Z</time></trkpt><trkpt lat="45.191415" lon="11.6831217"><ele>8.0</ele><time>2026-05-01T09:31:29.433Z</time></trkpt><trkpt lat="45.19135" lon="11.6831067"><ele>8.0</ele><time>2026-05-01T09:31:30.391Z</time></trkpt><trkpt lat="45.1912267" lon="11.6830767"><ele>7.999999999999999</ele><time>2026-05-01T09:31:32.451Z</time></trkpt><trkpt lat="45.191105" lon="11.6830483"><ele>8.0</ele><time>2026-05-01T09:31:34.43Z</time></trkpt><trkpt lat="45.1909917" lon="11.683045"><ele>7.999999999999999</ele><time>2026-05-01T09:31:36.412Z</time></trkpt><trkpt lat="45.1908883" lon="11.6830217"><ele>8.0</ele><time>2026-05-01T09:31:38.395Z</time></trkpt><trkpt lat="45.190795" lon="11.6829967"><ele>8.0</ele><time>2026-05-01T09:31:40.432Z</time></trkpt><trkpt lat="45.19073" lon="11.6829833"><ele>8.0</ele><time>2026-05-01T09:31:42.438Z</time></trkpt><trkpt lat="45.1906633" lon="11.6829583"><ele>7.999999999999999</ele><time>2026-05-01T09:31:47.395Z</time></trkpt><trkpt lat="45.190595" lon="11.6829117"><ele>8.0</ele><time>2026-05-01T09:31:50.42Z</time></trkpt><trkpt lat="45.190515" lon="11.6828783"><ele>7.999999999999999</ele><time>2026-05-01T09:31:53.405Z</time></trkpt><trkpt lat="45.1904233" lon="11.682855"><ele>8.0</ele><time>2026-05-01T09:31:56.4Z</time></trkpt><trkpt lat="45.1903333" lon="11.6828033"><ele>8.0</ele><time>2026-05-01T09:31:59.396Z</time></trkpt><trkpt lat="45.190255" lon="11.682765"><ele>8.0</ele><time>2026-05-01T09:32:01.392Z</time></trkpt><trkpt lat="45.19018" lon="11.6827217"><ele>7.999999999999999</ele><time>2026-05-01T09:32:03.446Z</time></trkpt><trkpt lat="45.1901117" lon="11.6827017"><ele>8.0</ele><time>2026-05-01T09:32:05.391Z</time></trkpt><trkpt lat="45.1900383" lon="11.6826583"><ele>8.0</ele><time>2026-05-01T09:32:07.422Z</time></trkpt><trkpt lat="45.1899567" lon="11.6825967"><ele>8.0</ele><time>2026-05-01T09:32:09.434Z</time></trkpt><trkpt lat="45.1898733" lon="11.6825233"><ele>8.0</ele><time>2026-05-01T09:32:11.428Z</time></trkpt><trkpt lat="45.1897917" lon="11.6824517"><ele>8.0</ele><time>2026-05-01T09:32:13.428Z</time></trkpt><trkpt lat="45.1897183" lon="11.6823817"><ele>8.0</ele><time>2026-05-01T09:32:15.423Z</time></trkpt><trkpt lat="45.1896533" lon="11.6823083"><ele>7.833333333333333</ele><time>2026-05-01T09:32:17.426Z</time></trkpt><trkpt lat="45.189585" lon="11.6822417"><ele>7.666666666666666</ele><time>2026-05-01T09:32:19.429Z</time></trkpt><trkpt lat="45.18951" lon="11.6821767"><ele>7.5</ele><time>2026-05-01T09:32:21.42Z</time></trkpt><trkpt lat="45.1894367" lon="11.6821067"><ele>7.333333333333334</ele><time>2026-05-01T09:32:23.422Z</time></trkpt><trkpt lat="45.1893617" lon="11.682035"><ele>7.166666666666667</ele><time>2026-05-01T09:32:25.431Z</time></trkpt><trkpt lat="45.189295" lon="11.681945"><ele>7.0</ele><time>2026-05-01T09:32:27.413Z</time></trkpt><trkpt lat="45.1892283" lon="11.6818517"><ele>7.0</ele><time>2026-05-01T09:32:29.391Z</time></trkpt><trkpt lat="45.18916" lon="11.6817583"><ele>6.999999999999999</ele><time>2026-05-01T09:32:31.419Z</time></trkpt><trkpt lat="45.1890867" lon="11.681665"><ele>6.999999999999999</ele><time>2026-05-01T09:32:33.428Z</time></trkpt><trkpt lat="45.1890117" lon="11.681575"><ele>7.0</ele><time>2026-05-01T09:32:35.419Z</time></trkpt><trkpt lat="45.1889433" lon="11.681485"><ele>7.0</ele><time>2026-05-01T09:32:37.424Z</time></trkpt><trkpt lat="45.1888883" lon="11.6813967"><ele>7.000000000000001</ele><time>2026-05-01T09:32:39.422Z</time></trkpt><trkpt lat="45.18882" lon="11.6813183"><ele>7.0</ele><time>2026-05-01T09:32:41.425Z</time></trkpt><trkpt lat="45.1887533" lon="11.6812367"><ele>7.0</ele><time>2026-05-01T09:32:43.432Z</time></trkpt><trkpt lat="45.1886817" lon="11.6811467"><ele>7.0</ele><time>2026-05-01T09:32:45.427Z</time></trkpt><trkpt lat="45.188615" lon="11.68107"><ele>7.000000000000001</ele><time>2026-05-01T09:32:47.418Z</time></trkpt><trkpt lat="45.1885483" lon="11.6809933"><ele>7.0</ele><time>2026-05-01T09:32:49.416Z</time></trkpt><trkpt lat="45.1884767" lon="11.6809083"><ele>7.0</ele><time>2026-05-01T09:32:51.418Z</time></trkpt><trkpt lat="45.1883983" lon="11.6808233"><ele>6.999999999999999</ele><time>2026-05-01T09:32:53.431Z</time></trkpt><trkpt lat="45.18833" lon="11.680735"><ele>6.999999999999999</ele><time>2026-05-01T09:32:55.432Z</time></trkpt><trkpt lat="45.1882733" lon="11.6806517"><ele>7.0</ele><time>2026-05-01T09:32:57.421Z</time></trkpt><trkpt lat="45.1881917" lon="11.6805567"><ele>7.0</ele><time>2026-05-01T09:32:59.402Z</time></trkpt><trkpt lat="45.18812" lon="11.68045"><ele>7.0</ele><time>2026-05-01T09:33:01.468Z</time></trkpt><trkpt lat="45.1880117" lon="11.6803283"><ele>6.999999999999999</ele><time>2026-05-01T09:33:04.535Z</time></trkpt><trkpt lat="45.1879483" lon="11.68024"><ele>6.999999999999999</ele><time>2026-05-01T09:33:06.404Z</time></trkpt><trkpt lat="45.187855" lon="11.68014"><ele>7.0</ele><time>2026-05-01T09:33:08.396Z</time></trkpt><trkpt lat="45.1877717" lon="11.6800683"><ele>7.0</ele><time>2026-05-01T09:33:10.409Z</time></trkpt><trkpt lat="45.187695" lon="11.67997"><ele>7.0</ele><time>2026-05-01T09:33:12.402Z</time></trkpt><trkpt lat="45.1876117" lon="11.6798533"><ele>6.999999999999999</ele><time>2026-05-01T09:33:14.429Z</time></trkpt><trkpt lat="45.187525" lon="11.6797567"><ele>6.999999999999999</ele><time>2026-05-01T09:33:16.508Z</time></trkpt><trkpt lat="45.187425" lon="11.6796717"><ele>7.0</ele><time>2026-05-01T09:33:18.392Z</time></trkpt><trkpt lat="45.1873467" lon="11.6795717"><ele>7.0</ele><time>2026-05-01T09:33:20.402Z</time></trkpt><trkpt lat="45.1872633" lon="11.6794717"><ele>7.0</ele><time>2026-05-01T09:33:22.396Z</time></trkpt><trkpt lat="45.1871833" lon="11.6793717"><ele>6.999999999999999</ele><time>2026-05-01T09:33:24.398Z</time></trkpt><trkpt lat="45.1871" lon="11.6792767"><ele>6.999999999999999</ele><time>2026-05-01T09:33:26.411Z</time></trkpt><trkpt lat="45.1870183" lon="11.6791783"><ele>7.0</ele><time>2026-05-01T09:33:28.423Z</time></trkpt><trkpt lat="45.186935" lon="11.679075"><ele>7.0</ele><time>2026-05-01T09:33:30.435Z</time></trkpt><trkpt lat="45.1868467" lon="11.67897"><ele>7.0</ele><time>2026-05-01T09:33:32.422Z</time></trkpt><trkpt lat="45.186755" lon="11.6788633"><ele>7.0</ele><time>2026-05-01T09:33:34.424Z</time></trkpt><trkpt lat="45.1866667" lon="11.6787583"><ele>7.0</ele><time>2026-05-01T09:33:36.424Z</time></trkpt><trkpt lat="45.1865733" lon="11.67865"><ele>7.0</ele><time>2026-05-01T09:33:38.425Z</time></trkpt><trkpt lat="45.18648" lon="11.6785383"><ele>6.75</ele><time>2026-05-01T09:33:40.434Z</time></trkpt><trkpt lat="45.18639" lon="11.6784217"><ele>6.5</ele><time>2026-05-01T09:33:42.399Z</time></trkpt><trkpt lat="45.1863017" lon="11.6782967"><ele>6.25</ele><time>2026-05-01T09:33:44.421Z</time></trkpt><trkpt lat="45.1862317" lon="11.678165"><ele>6.0</ele><time>2026-05-01T09:33:46.423Z</time></trkpt><trkpt lat="45.186175" lon="11.6780267"><ele>6.0</ele><time>2026-05-01T09:33:48.428Z</time></trkpt><trkpt lat="45.18611" lon="11.67789"><ele>6.0</ele><time>2026-05-01T09:33:50.43Z</time></trkpt><trkpt lat="45.1860467" lon="11.6777467"><ele>6.0</ele><time>2026-05-01T09:33:52.417Z</time></trkpt><trkpt lat="45.185985" lon="11.677605"><ele>6.0</ele><time>2026-05-01T09:33:54.421Z</time></trkpt><trkpt lat="45.1859233" lon="11.6774767"><ele>6.0</ele><time>2026-05-01T09:33:56.432Z</time></trkpt><trkpt lat="45.18584" lon="11.6774"><ele>6.0</ele><time>2026-05-01T09:33:58.424Z</time></trkpt><trkpt lat="45.185775" lon="11.6772817"><ele>6.0</ele><time>2026-05-01T09:34:00.414Z</time></trkpt><trkpt lat="45.1857133" lon="11.67713"><ele>6.0</ele><time>2026-05-01T09:34:02.416Z</time></trkpt><trkpt lat="45.18565" lon="11.67698"><ele>6.0</ele><time>2026-05-01T09:34:04.433Z</time></trkpt><trkpt lat="45.1855883" lon="11.6768267"><ele>6.0</ele><time>2026-05-01T09:34:06.426Z</time></trkpt><trkpt lat="45.18553" lon="11.67667"><ele>6.0</ele><time>2026-05-01T09:34:08.415Z</time></trkpt><trkpt lat="45.1854983" lon="11.6765883"><ele>6.0</ele><time>2026-05-01T09:34:09.427Z</time></trkpt><trkpt lat="45.1854683" lon="11.6765083"><ele>6.0</ele><time>2026-05-01T09:34:10.426Z</time></trkpt><trkpt lat="45.1854367" lon="11.67643"><ele>6.0</ele><time>2026-05-01T09:34:11.423Z</time></trkpt><trkpt lat="45.185405" lon="11.67635"><ele>5.999999999999999</ele><time>2026-05-01T09:34:12.428Z</time></trkpt><trkpt lat="45.1853717" lon="11.6762683"><ele>6.0</ele><time>2026-05-01T09:34:13.428Z</time></trkpt><trkpt lat="45.1853367" lon="11.6761867"><ele>6.0</ele><time>2026-05-01T09:34:14.426Z</time></trkpt><trkpt lat="45.1853033" lon="11.6761067"><ele>6.0</ele><time>2026-05-01T09:34:15.398Z</time></trkpt><trkpt lat="45.18527" lon="11.6760267"><ele>6.0</ele><time>2026-05-01T09:34:16.423Z</time></trkpt><trkpt lat="45.185235" lon="11.6759483"><ele>5.999999999999999</ele><time>2026-05-01T09:34:17.426Z</time></trkpt><trkpt lat="45.1852033" lon="11.6758683"><ele>6.0</ele><time>2026-05-01T09:34:18.433Z</time></trkpt><trkpt lat="45.1851433" lon="11.6757183"><ele>6.166666666666667</ele><time>2026-05-01T09:34:20.427Z</time></trkpt><trkpt lat="45.1850833" lon="11.6755717"><ele>6.333333333333334</ele><time>2026-05-01T09:34:22.421Z</time></trkpt><trkpt lat="45.1850083" lon="11.6754317"><ele>6.5</ele><time>2026-05-01T09:34:24.428Z</time></trkpt><trkpt lat="45.1849683" lon="11.67536"><ele>6.666666666666667</ele><time>2026-05-01T09:34:25.431Z</time></trkpt><trkpt lat="45.18493" lon="11.675285"><ele>6.833333333333334</ele><time>2026-05-01T09:34:26.397Z</time></trkpt><trkpt lat="45.1848917" lon="11.6752067"><ele>7.0</ele><time>2026-05-01T09:34:27.42Z</time></trkpt><trkpt lat="45.1848517" lon="11.6751267"><ele>7.166666666666667</ele><time>2026-05-01T09:34:28.422Z</time></trkpt><trkpt lat="45.18481" lon="11.6750483"><ele>7.333333333333334</ele><time>2026-05-01T09:34:29.428Z</time></trkpt><trkpt lat="45.1847683" lon="11.6749733"><ele>7.5</ele><time>2026-05-01T09:34:30.422Z</time></trkpt><trkpt lat="45.1847267" lon="11.6749017"><ele>7.666666666666666</ele><time>2026-05-01T09:34:31.403Z</time></trkpt><trkpt lat="45.1846867" lon="11.6748283"><ele>7.833333333333333</ele><time>2026-05-01T09:34:32.435Z</time></trkpt><trkpt lat="45.1846483" lon="11.6747567"><ele>8.0</ele><time>2026-05-01T09:34:33.436Z</time></trkpt><trkpt lat="45.1845717" lon="11.6746217"><ele>8.0</ele><time>2026-05-01T09:34:35.428Z</time></trkpt><trkpt lat="45.184495" lon="11.674485"><ele>8.0</ele><time>2026-05-01T09:34:37.394Z</time></trkpt><trkpt lat="45.1844183" lon="11.6743483"><ele>8.0</ele><time>2026-05-01T09:34:39.423Z</time></trkpt><trkpt lat="45.184345" lon="11.6742133"><ele>8.0</ele><time>2026-05-01T09:34:41.424Z</time></trkpt><trkpt lat="45.1842667" lon="11.674075"><ele>7.800000000000001</ele><time>2026-05-01T09:34:43.429Z</time></trkpt><trkpt lat="45.18418" lon="11.6739433"><ele>7.6000000000000005</ele><time>2026-05-01T09:34:45.518Z</time></trkpt><trkpt lat="45.1841417" lon="11.673865"><ele>7.3999999999999995</ele><time>2026-05-01T09:34:46.45Z</time></trkpt><trkpt lat="45.1840917" lon="11.6737167"><ele>7.199999999999999</ele><time>2026-05-01T09:34:48.38Z</time></trkpt><trkpt lat="45.18403" lon="11.6735733"><ele>7.0</ele><time>2026-05-01T09:34:50.394Z</time></trkpt><trkpt lat="45.1840017" lon="11.6734917"><ele>7.000000000000001</ele><time>2026-05-01T09:34:51.403Z</time></trkpt><trkpt lat="45.18395" lon="11.67343"><ele>7.0</ele><time>2026-05-01T09:34:52.394Z</time></trkpt><trkpt lat="45.1838867" lon="11.6732783"><ele>7.0</ele><time>2026-05-01T09:34:54.415Z</time></trkpt><trkpt lat="45.1838533" lon="11.6731983"><ele>7.0</ele><time>2026-05-01T09:34:55.419Z</time></trkpt><trkpt lat="45.1838217" lon="11.67312"><ele>7.000000000000001</ele><time>2026-05-01T09:34:56.427Z</time></trkpt><trkpt lat="45.1837567" lon="11.6729783"><ele>7.0</ele><time>2026-05-01T09:34:58.423Z</time></trkpt><trkpt lat="45.1836917" lon="11.672835"><ele>7.0</ele><time>2026-05-01T09:35:00.43Z</time></trkpt><trkpt lat="45.1836217" lon="11.6726933"><ele>6.999999999999999</ele><time>2026-05-01T09:35:02.398Z</time></trkpt><trkpt lat="45.183545" lon="11.6725517"><ele>6.999999999999999</ele><time>2026-05-01T09:35:04.425Z</time></trkpt><trkpt lat="45.1835067" lon="11.67248"><ele>7.0</ele><time>2026-05-01T09:35:05.428Z</time></trkpt><trkpt lat="45.1834367" lon="11.672345"><ele>7.0</ele><time>2026-05-01T09:35:07.42Z</time></trkpt><trkpt lat="45.1833967" lon="11.6722117"><ele>7.000000000000001</ele><time>2026-05-01T09:35:09.422Z</time></trkpt><trkpt lat="45.1834133" lon="11.6721"><ele>7.0</ele><time>2026-05-01T09:35:11.41Z</time></trkpt><trkpt lat="45.1834017" lon="11.6719817"><ele>7.0</ele><time>2026-05-01T09:35:14.442Z</time></trkpt><trkpt lat="45.18333" lon="11.6719183"><ele>7.0</ele><time>2026-05-01T09:35:17.431Z</time></trkpt><trkpt lat="45.1832567" lon="11.671935"><ele>7.000000000000001</ele><time>2026-05-01T09:35:19.422Z</time></trkpt><trkpt lat="45.183195" lon="11.671905"><ele>7.0</ele><time>2026-05-01T09:35:21.431Z</time></trkpt><trkpt lat="45.183145" lon="11.6718333"><ele>7.199999999999999</ele><time>2026-05-01T09:35:23.429Z</time></trkpt><trkpt lat="45.1830833" lon="11.6717533"><ele>7.3999999999999995</ele><time>2026-05-01T09:35:25.397Z</time></trkpt><trkpt lat="45.1830167" lon="11.6716783"><ele>7.6000000000000005</ele><time>2026-05-01T09:35:27.434Z</time></trkpt><trkpt lat="45.1829417" lon="11.6715983"><ele>7.800000000000001</ele><time>2026-05-01T09:35:29.411Z</time></trkpt><trkpt lat="45.1828533" lon="11.6715233"><ele>8.0</ele><time>2026-05-01T09:35:31.429Z</time></trkpt><trkpt lat="45.1827617" lon="11.671455"><ele>8.0</ele><time>2026-05-01T09:35:33.428Z</time></trkpt><trkpt lat="45.1826717" lon="11.6714"><ele>8.0</ele><time>2026-05-01T09:35:35.434Z</time></trkpt><trkpt lat="45.182575" lon="11.671355"><ele>8.0</ele><time>2026-05-01T09:35:37.419Z</time></trkpt><trkpt lat="45.1824683" lon="11.6713133"><ele>8.0</ele><time>2026-05-01T09:35:39.43Z</time></trkpt><trkpt lat="45.1823583" lon="11.6712817"><ele>8.0</ele><time>2026-05-01T09:35:41.422Z</time></trkpt><trkpt lat="45.1822367" lon="11.6712633"><ele>7.5</ele><time>2026-05-01T09:35:43.43Z</time></trkpt><trkpt lat="45.1821117" lon="11.67125"><ele>7.0</ele><time>2026-05-01T09:35:45.428Z</time></trkpt><trkpt lat="45.1819917" lon="11.6712417"><ele>6.5</ele><time>2026-05-01T09:35:47.418Z</time></trkpt><trkpt lat="45.181875" lon="11.67124"><ele>6.0</ele><time>2026-05-01T09:35:49.427Z</time></trkpt><trkpt lat="45.1817567" lon="11.6712367"><ele>5.999999999999999</ele><time>2026-05-01T09:35:51.397Z</time></trkpt><trkpt lat="45.1816383" lon="11.67123"><ele>6.0</ele><time>2026-05-01T09:35:53.399Z</time></trkpt><trkpt lat="45.181575" lon="11.6712317"><ele>6.0</ele><time>2026-05-01T09:35:54.427Z</time></trkpt><trkpt lat="45.18151" lon="11.6712317"><ele>6.0</ele><time>2026-05-01T09:35:55.423Z</time></trkpt><trkpt lat="45.1814433" lon="11.6712267"><ele>6.0</ele><time>2026-05-01T09:35:56.434Z</time></trkpt><trkpt lat="45.1813783" lon="11.67122"><ele>5.999999999999999</ele><time>2026-05-01T09:35:57.405Z</time></trkpt><trkpt lat="45.1813133" lon="11.671215"><ele>6.0</ele><time>2026-05-01T09:35:58.41Z</time></trkpt><trkpt lat="45.1812483" lon="11.6712117"><ele>5.857142857142857</ele><time>2026-05-01T09:35:59.392Z</time></trkpt><trkpt lat="45.1811817" lon="11.6712067"><ele>5.714285714285714</ele><time>2026-05-01T09:36:00.417Z</time></trkpt><trkpt lat="45.1811167" lon="11.6712017"><ele>5.571428571428571</ele><time>2026-05-01T09:36:01.419Z</time></trkpt><trkpt lat="45.1810517" lon="11.6711967"><ele>5.428571428571429</ele><time>2026-05-01T09:36:02.426Z</time></trkpt><trkpt lat="45.1809833" lon="11.6711933"><ele>5.285714285714286</ele><time>2026-05-01T09:36:03.405Z</time></trkpt><trkpt lat="45.180915" lon="11.6711917"><ele>5.142857142857142</ele><time>2026-05-01T09:36:04.417Z</time></trkpt><trkpt lat="45.1808467" lon="11.6711867"><ele>5.0</ele><time>2026-05-01T09:36:05.423Z</time></trkpt><trkpt lat="45.18078" lon="11.67118"><ele>5.0</ele><time>2026-05-01T09:36:06.394Z</time></trkpt><trkpt lat="45.1807133" lon="11.671175"><ele>5.0</ele><time>2026-05-01T09:36:07.426Z</time></trkpt><trkpt lat="45.180645" lon="11.67117"><ele>5.0</ele><time>2026-05-01T09:36:08.425Z</time></trkpt><trkpt lat="45.1805783" lon="11.6711617"><ele>5.0</ele><time>2026-05-01T09:36:09.429Z</time></trkpt><trkpt lat="45.18051" lon="11.671155"><ele>5.0</ele><time>2026-05-01T09:36:10.433Z</time></trkpt><trkpt lat="45.1804417" lon="11.6711483"><ele>5.0</ele><time>2026-05-01T09:36:11.425Z</time></trkpt><trkpt lat="45.1803717" lon="11.6711417"><ele>5.0</ele><time>2026-05-01T09:36:12.434Z</time></trkpt><trkpt lat="45.180305" lon="11.6711333"><ele>5.142857142857142</ele><time>2026-05-01T09:36:13.422Z</time></trkpt><trkpt lat="45.1802367" lon="11.6711267"><ele>5.285714285714286</ele><time>2026-05-01T09:36:14.432Z</time></trkpt><trkpt lat="45.1801667" lon="11.6711217"><ele>5.428571428571429</ele><time>2026-05-01T09:36:15.426Z</time></trkpt><trkpt lat="45.1800983" lon="11.6711167"><ele>5.571428571428571</ele><time>2026-05-01T09:36:16.408Z</time></trkpt><trkpt lat="45.1800333" lon="11.6711117"><ele>5.714285714285714</ele><time>2026-05-01T09:36:17.427Z</time></trkpt><trkpt lat="45.1799667" lon="11.6711067"><ele>5.857142857142857</ele><time>2026-05-01T09:36:18.4Z</time></trkpt><trkpt lat="45.1798983" lon="11.6711"><ele>6.0</ele><time>2026-05-01T09:36:19.424Z</time></trkpt><trkpt lat="45.1798317" lon="11.671095"><ele>6.285714285714285</ele><time>2026-05-01T09:36:20.426Z</time></trkpt><trkpt lat="45.1797633" lon="11.67109"><ele>6.571428571428571</ele><time>2026-05-01T09:36:21.426Z</time></trkpt><trkpt lat="45.1796967" lon="11.6710867"><ele>6.857142857142857</ele><time>2026-05-01T09:36:22.427Z</time></trkpt><trkpt lat="45.1796317" lon="11.6710833"><ele>7.142857142857142</ele><time>2026-05-01T09:36:23.43Z</time></trkpt><trkpt lat="45.1795667" lon="11.67108"><ele>7.428571428571428</ele><time>2026-05-01T09:36:24.412Z</time></trkpt><trkpt lat="45.1795017" lon="11.6710767"><ele>7.7142857142857135</ele><time>2026-05-01T09:36:25.422Z</time></trkpt><trkpt lat="45.1794367" lon="11.6710717"><ele>8.0</ele><time>2026-05-01T09:36:26.434Z</time></trkpt><trkpt lat="45.1793717" lon="11.671065"><ele>7.999999999999999</ele><time>2026-05-01T09:36:27.424Z</time></trkpt><trkpt lat="45.1792467" lon="11.6710517"><ele>8.0</ele><time>2026-05-01T09:36:29.432Z</time></trkpt><trkpt lat="45.1791833" lon="11.6710433"><ele>8.0</ele><time>2026-05-01T09:36:30.422Z</time></trkpt><trkpt lat="45.1790633" lon="11.6710233"><ele>8.0</ele><time>2026-05-01T09:36:32.41Z</time></trkpt><trkpt lat="45.1789983" lon="11.671015"><ele>7.999999999999999</ele><time>2026-05-01T09:36:33.426Z</time></trkpt><trkpt lat="45.178935" lon="11.67101"><ele>8.0</ele><time>2026-05-01T09:36:34.436Z</time></trkpt><trkpt lat="45.1788683" lon="11.6710017"><ele>8.0</ele><time>2026-05-01T09:36:35.428Z</time></trkpt><trkpt lat="45.1788017" lon="11.670995"><ele>7.999999999999999</ele><time>2026-05-01T09:36:36.426Z</time></trkpt><trkpt lat="45.178735" lon="11.6709867"><ele>8.0</ele><time>2026-05-01T09:36:37.423Z</time></trkpt><trkpt lat="45.1786683" lon="11.6709817"><ele>8.0</ele><time>2026-05-01T09:36:38.424Z</time></trkpt><trkpt lat="45.1786033" lon="11.67098"><ele>7.999999999999999</ele><time>2026-05-01T09:36:39.43Z</time></trkpt><trkpt lat="45.1785383" lon="11.6709717"><ele>8.0</ele><time>2026-05-01T09:36:40.415Z</time></trkpt><trkpt lat="45.178475" lon="11.670965"><ele>8.0</ele><time>2026-05-01T09:36:41.433Z</time></trkpt><trkpt lat="45.1784117" lon="11.67096"><ele>8.0</ele><time>2026-05-01T09:36:42.433Z</time></trkpt><trkpt lat="45.1783483" lon="11.6709583"><ele>8.0</ele><time>2026-05-01T09:36:43.431Z</time></trkpt><trkpt lat="45.178285" lon="11.6709583"><ele>8.0</ele><time>2026-05-01T09:36:44.436Z</time></trkpt><trkpt lat="45.1781617" lon="11.6709483"><ele>8.0</ele><time>2026-05-01T09:36:46.435Z</time></trkpt><trkpt lat="45.178035" lon="11.6709417"><ele>8.0</ele><time>2026-05-01T09:36:48.455Z</time></trkpt><trkpt lat="45.17792" lon="11.6709317"><ele>7.999999999999999</ele><time>2026-05-01T09:36:50.429Z</time></trkpt><trkpt lat="45.1778517" lon="11.6709233"><ele>8.0</ele><time>2026-05-01T09:36:51.382Z</time></trkpt><trkpt lat="45.1777817" lon="11.6709167"><ele>8.0</ele><time>2026-05-01T09:36:52.408Z</time></trkpt><trkpt lat="45.1776583" lon="11.6709133"><ele>8.0</ele><time>2026-05-01T09:36:54.405Z</time></trkpt><trkpt lat="45.1775917" lon="11.6709117"><ele>7.999999999999999</ele><time>2026-05-01T09:36:55.398Z</time></trkpt><trkpt lat="45.17748" lon="11.67091"><ele>8.0</ele><time>2026-05-01T09:36:57.424Z</time></trkpt><trkpt lat="45.1773583" lon="11.6708983"><ele>7.833333333333333</ele><time>2026-05-01T09:36:59.426Z</time></trkpt><trkpt lat="45.1772317" lon="11.6708867"><ele>7.666666666666666</ele><time>2026-05-01T09:37:01.409Z</time></trkpt><trkpt lat="45.177165" lon="11.67088"><ele>7.5</ele><time>2026-05-01T09:37:02.435Z</time></trkpt><trkpt lat="45.1770967" lon="11.67087"><ele>7.333333333333334</ele><time>2026-05-01T09:37:03.422Z</time></trkpt><trkpt lat="45.17703" lon="11.6708617"><ele>7.166666666666667</ele><time>2026-05-01T09:37:04.43Z</time></trkpt><trkpt lat="45.17696" lon="11.6708567"><ele>7.0</ele><time>2026-05-01T09:37:05.43Z</time></trkpt><trkpt lat="45.1768933" lon="11.6708483"><ele>7.0</ele><time>2026-05-01T09:37:06.4Z</time></trkpt><trkpt lat="45.176825" lon="11.6708417"><ele>7.0</ele><time>2026-05-01T09:37:07.4Z</time></trkpt><trkpt lat="45.176755" lon="11.6708333"><ele>7.0</ele><time>2026-05-01T09:37:08.426Z</time></trkpt><trkpt lat="45.1766867" lon="11.6708217"><ele>7.0</ele><time>2026-05-01T09:37:09.433Z</time></trkpt><trkpt lat="45.1766217" lon="11.6708117"><ele>7.0</ele><time>2026-05-01T09:37:10.421Z</time></trkpt><trkpt lat="45.176555" lon="11.6707983"><ele>7.0</ele><time>2026-05-01T09:37:11.412Z</time></trkpt><trkpt lat="45.17649" lon="11.6707867"><ele>7.0</ele><time>2026-05-01T09:37:12.431Z</time></trkpt><trkpt lat="45.1764267" lon="11.6707733"><ele>7.166666666666667</ele><time>2026-05-01T09:37:13.426Z</time></trkpt><trkpt lat="45.1763633" lon="11.6707583"><ele>7.333333333333334</ele><time>2026-05-01T09:37:14.428Z</time></trkpt><trkpt lat="45.1763" lon="11.6707383"><ele>7.5</ele><time>2026-05-01T09:37:15.428Z</time></trkpt><trkpt lat="45.1761783" lon="11.6706833"><ele>7.666666666666666</ele><time>2026-05-01T09:37:17.397Z</time></trkpt><trkpt lat="45.1761167" lon="11.6706533"><ele>7.833333333333333</ele><time>2026-05-01T09:37:18.427Z</time></trkpt><trkpt lat="45.1760567" lon="11.6706167"><ele>8.0</ele><time>2026-05-01T09:37:19.429Z</time></trkpt><trkpt lat="45.1759983" lon="11.6705783"><ele>7.999999999999999</ele><time>2026-05-01T09:37:20.429Z</time></trkpt><trkpt lat="45.1759417" lon="11.6705383"><ele>8.0</ele><time>2026-05-01T09:37:21.429Z</time></trkpt><trkpt lat="45.17583" lon="11.67045"><ele>8.0</ele><time>2026-05-01T09:37:23.421Z</time></trkpt><trkpt lat="45.1757733" lon="11.6704067"><ele>8.0</ele><time>2026-05-01T09:37:24.432Z</time></trkpt><trkpt lat="45.1757183" lon="11.67036"><ele>7.999999999999999</ele><time>2026-05-01T09:37:25.432Z</time></trkpt><trkpt lat="45.17561" lon="11.6702683"><ele>8.0</ele><time>2026-05-01T09:37:27.409Z</time></trkpt><trkpt lat="45.1755567" lon="11.67022"><ele>8.0</ele><time>2026-05-01T09:37:28.422Z</time></trkpt><trkpt lat="45.1755033" lon="11.67017"><ele>7.999999999999999</ele><time>2026-05-01T09:37:29.396Z</time></trkpt><trkpt lat="45.17545" lon="11.67012"><ele>8.0</ele><time>2026-05-01T09:37:30.428Z</time></trkpt><trkpt lat="45.1753967" lon="11.67007"><ele>8.0</ele><time>2026-05-01T09:37:31.43Z</time></trkpt><trkpt lat="45.1753433" lon="11.6700217"><ele>7.999999999999999</ele><time>2026-05-01T09:37:32.423Z</time></trkpt><trkpt lat="45.1752417" lon="11.6699267"><ele>8.0</ele><time>2026-05-01T09:37:34.424Z</time></trkpt><trkpt lat="45.17519" lon="11.6698733"><ele>8.0</ele><time>2026-05-01T09:37:35.426Z</time></trkpt><trkpt lat="45.1751383" lon="11.66982"><ele>7.999999999999999</ele><time>2026-05-01T09:37:36.427Z</time></trkpt><trkpt lat="45.1750317" lon="11.66972"><ele>8.0</ele><time>2026-05-01T09:37:38.429Z</time></trkpt><trkpt lat="45.174975" lon="11.66967"><ele>8.0</ele><time>2026-05-01T09:37:39.398Z</time></trkpt><trkpt lat="45.17492" lon="11.66962"><ele>8.0</ele><time>2026-05-01T09:37:40.396Z</time></trkpt><trkpt lat="45.1748667" lon="11.6695683"><ele>7.999999999999999</ele><time>2026-05-01T09:37:41.437Z</time></trkpt><trkpt lat="45.1748117" lon="11.66952"><ele>8.0</ele><time>2026-05-01T09:37:42.427Z</time></trkpt><trkpt lat="45.1747567" lon="11.669475"><ele>8.0</ele><time>2026-05-01T09:37:43.429Z</time></trkpt><trkpt lat="45.1747017" lon="11.6694233"><ele>7.999999999999999</ele><time>2026-05-01T09:37:44.414Z</time></trkpt><trkpt lat="45.1746483" lon="11.6693717"><ele>8.0</ele><time>2026-05-01T09:37:45.428Z</time></trkpt><trkpt lat="45.1745967" lon="11.66932"><ele>8.0</ele><time>2026-05-01T09:37:46.416Z</time></trkpt><trkpt lat="45.1745417" lon="11.6692717"><ele>7.999999999999999</ele><time>2026-05-01T09:37:47.425Z</time></trkpt><trkpt lat="45.174485" lon="11.6692217"><ele>8.0</ele><time>2026-05-01T09:37:48.43Z</time></trkpt><trkpt lat="45.1744317" lon="11.6691683"><ele>8.0</ele><time>2026-05-01T09:37:49.428Z</time></trkpt><trkpt lat="45.174375" lon="11.6691167"><ele>8.0</ele><time>2026-05-01T09:37:50.431Z</time></trkpt><trkpt lat="45.1743183" lon="11.6690633"><ele>7.999999999999999</ele><time>2026-05-01T09:37:51.402Z</time></trkpt><trkpt lat="45.1742633" lon="11.6690083"><ele>8.0</ele><time>2026-05-01T09:37:52.419Z</time></trkpt><trkpt lat="45.1742067" lon="11.6689567"><ele>8.0</ele><time>2026-05-01T09:37:53.421Z</time></trkpt><trkpt lat="45.17415" lon="11.6689017"><ele>7.999999999999999</ele><time>2026-05-01T09:37:54.425Z</time></trkpt><trkpt lat="45.1740917" lon="11.6688483"><ele>8.0</ele><time>2026-05-01T09:37:55.421Z</time></trkpt><trkpt lat="45.174035" lon="11.668795"><ele>8.0</ele><time>2026-05-01T09:37:56.427Z</time></trkpt><trkpt lat="45.1739783" lon="11.66874"><ele>8.142857142857142</ele><time>2026-05-01T09:37:57.43Z</time></trkpt><trkpt lat="45.1739233" lon="11.6686883"><ele>8.285714285714285</ele><time>2026-05-01T09:37:58.418Z</time></trkpt><trkpt lat="45.173865" lon="11.6686383"><ele>8.428571428571429</ele><time>2026-05-01T09:37:59.384Z</time></trkpt><trkpt lat="45.173805" lon="11.6685883"><ele>8.571428571428571</ele><time>2026-05-01T09:38:00.383Z</time></trkpt><trkpt lat="45.1737467" lon="11.6685383"><ele>8.714285714285715</ele><time>2026-05-01T09:38:01.384Z</time></trkpt><trkpt lat="45.1736917" lon="11.66849"><ele>8.857142857142858</ele><time>2026-05-01T09:38:02.387Z</time></trkpt><trkpt lat="45.1736383" lon="11.66844"><ele>9.0</ele><time>2026-05-01T09:38:03.384Z</time></trkpt><trkpt lat="45.1735333" lon="11.6683467"><ele>9.0</ele><time>2026-05-01T09:38:05.404Z</time></trkpt><trkpt lat="45.1734283" lon="11.668255"><ele>9.0</ele><time>2026-05-01T09:38:07.431Z</time></trkpt><trkpt lat="45.1733217" lon="11.66816"><ele>9.0</ele><time>2026-05-01T09:38:09.398Z</time></trkpt><trkpt lat="45.1732633" lon="11.6681083"><ele>9.0</ele><time>2026-05-01T09:38:10.426Z</time></trkpt><trkpt lat="45.1732067" lon="11.6680567"><ele>9.0</ele><time>2026-05-01T09:38:11.423Z</time></trkpt><trkpt lat="45.1731533" lon="11.668"><ele>9.000000000000002</ele><time>2026-05-01T09:38:12.428Z</time></trkpt><trkpt lat="45.1731017" lon="11.6679417"><ele>9.0</ele><time>2026-05-01T09:38:13.422Z</time></trkpt><trkpt lat="45.17305" lon="11.66789"><ele>9.0</ele><time>2026-05-01T09:38:14.426Z</time></trkpt><trkpt lat="45.1729967" lon="11.6678367"><ele>9.0</ele><time>2026-05-01T09:38:15.428Z</time></trkpt><trkpt lat="45.1729417" lon="11.6677833"><ele>9.0</ele><time>2026-05-01T09:38:16.396Z</time></trkpt><trkpt lat="45.1728867" lon="11.6677233"><ele>9.000000000000002</ele><time>2026-05-01T09:38:17.457Z</time></trkpt><trkpt lat="45.1728283" lon="11.6676517"><ele>9.0</ele><time>2026-05-01T09:38:18.517Z</time></trkpt><trkpt lat="45.1727267" lon="11.6675783"><ele>9.0</ele><time>2026-05-01T09:38:20.449Z</time></trkpt><trkpt lat="45.1726633" lon="11.667545"><ele>9.0</ele><time>2026-05-01T09:38:21.391Z</time></trkpt><trkpt lat="45.1725633" lon="11.6674633"><ele>9.0</ele><time>2026-05-01T09:38:23.425Z</time></trkpt><trkpt lat="45.1724617" lon="11.6673717"><ele>9.0</ele><time>2026-05-01T09:38:25.425Z</time></trkpt><trkpt lat="45.1724083" lon="11.667295"><ele>9.0</ele><time>2026-05-01T09:38:26.406Z</time></trkpt><trkpt lat="45.1722683" lon="11.6671333"><ele>8.833333333333334</ele><time>2026-05-01T09:38:29.595Z</time></trkpt><trkpt lat="45.1722117" lon="11.6670783"><ele>8.666666666666666</ele><time>2026-05-01T09:38:30.567Z</time></trkpt><trkpt lat="45.1721533" lon="11.6670333"><ele>8.5</ele><time>2026-05-01T09:38:31.483Z</time></trkpt><trkpt lat="45.1720883" lon="11.6669983"><ele>8.333333333333332</ele><time>2026-05-01T09:38:32.578Z</time></trkpt><trkpt lat="45.17199" lon="11.666915"><ele>8.166666666666666</ele><time>2026-05-01T09:38:34.465Z</time></trkpt><trkpt lat="45.1718867" lon="11.66685"><ele>8.0</ele><time>2026-05-01T09:38:36.43Z</time></trkpt><trkpt lat="45.1718" lon="11.6667567"><ele>8.0</ele><time>2026-05-01T09:38:38.434Z</time></trkpt><trkpt lat="45.1716933" lon="11.6666683"><ele>8.0</ele><time>2026-05-01T09:38:40.513Z</time></trkpt><trkpt lat="45.171635" lon="11.6666233"><ele>8.0</ele><time>2026-05-01T09:38:41.484Z</time></trkpt><trkpt lat="45.1715817" lon="11.6665717"><ele>8.0</ele><time>2026-05-01T09:38:42.456Z</time></trkpt><trkpt lat="45.1715267" lon="11.666515"><ele>8.0</ele><time>2026-05-01T09:38:43.468Z</time></trkpt><trkpt lat="45.1714167" lon="11.6664133"><ele>7.999999999999999</ele><time>2026-05-01T09:38:46.552Z</time></trkpt><trkpt lat="45.17131" lon="11.6663167"><ele>8.0</ele><time>2026-05-01T09:38:47.453Z</time></trkpt><trkpt lat="45.1712067" lon="11.666235"><ele>8.0</ele><time>2026-05-01T09:38:49.406Z</time></trkpt><trkpt lat="45.1711483" lon="11.6661933"><ele>8.0</ele><time>2026-05-01T09:38:50.397Z</time></trkpt><trkpt lat="45.1710883" lon="11.666145"><ele>7.999999999999999</ele><time>2026-05-01T09:38:51.412Z</time></trkpt><trkpt lat="45.1710283" lon="11.666095"><ele>8.0</ele><time>2026-05-01T09:38:52.492Z</time></trkpt><trkpt lat="45.1709683" lon="11.6660567"><ele>8.166666666666666</ele><time>2026-05-01T09:38:53.433Z</time></trkpt><trkpt lat="45.1709133" lon="11.6660083"><ele>8.333333333333332</ele><time>2026-05-01T09:38:54.445Z</time></trkpt><trkpt lat="45.1708283" lon="11.6659"><ele>8.5</ele><time>2026-05-01T09:38:56.449Z</time></trkpt><trkpt lat="45.170725" lon="11.665795"><ele>8.666666666666666</ele><time>2026-05-01T09:38:58.44Z</time></trkpt><trkpt lat="45.1706683" lon="11.6657467"><ele>8.833333333333334</ele><time>2026-05-01T09:38:59.404Z</time></trkpt><trkpt lat="45.1706117" lon="11.6657033"><ele>9.0</ele><time>2026-05-01T09:39:00.466Z</time></trkpt><trkpt lat="45.1705117" lon="11.665645"><ele>9.0</ele><time>2026-05-01T09:39:02.491Z</time></trkpt><trkpt lat="45.1704033" lon="11.6655333"><ele>9.0</ele><time>2026-05-01T09:39:04.436Z</time></trkpt><trkpt lat="45.1703467" lon="11.6654667"><ele>9.0</ele><time>2026-05-01T09:39:05.434Z</time></trkpt><trkpt lat="45.1702883" lon="11.6654133"><ele>9.0</ele><time>2026-05-01T09:39:06.503Z</time></trkpt><trkpt lat="45.1702317" lon="11.6653617"><ele>9.0</ele><time>2026-05-01T09:39:07.431Z</time></trkpt><trkpt lat="45.1701733" lon="11.6653117"><ele>9.0</ele><time>2026-05-01T09:39:08.499Z</time></trkpt><trkpt lat="45.1701167" lon="11.665265"><ele>9.0</ele><time>2026-05-01T09:39:09.412Z</time></trkpt><trkpt lat="45.1700583" lon="11.6652133"><ele>9.0</ele><time>2026-05-01T09:39:10.423Z</time></trkpt><trkpt lat="45.170005" lon="11.6651567"><ele>9.0</ele><time>2026-05-01T09:39:11.406Z</time></trkpt><trkpt lat="45.1699483" lon="11.6651117"><ele>9.0</ele><time>2026-05-01T09:39:12.407Z</time></trkpt><trkpt lat="45.1697867" lon="11.66497"><ele>9.0</ele><time>2026-05-01T09:39:15.479Z</time></trkpt><trkpt lat="45.1697233" lon="11.6649117"><ele>8.5</ele><time>2026-05-01T09:39:16.405Z</time></trkpt><trkpt lat="45.16962" lon="11.664815"><ele>8.0</ele><time>2026-05-01T09:39:18.462Z</time></trkpt><trkpt lat="45.1694967" lon="11.66471"><ele>7.5</ele><time>2026-05-01T09:39:20.467Z</time></trkpt><trkpt lat="45.16939" lon="11.6646167"><ele>7.0</ele><time>2026-05-01T09:39:22.418Z</time></trkpt><trkpt lat="45.169225" lon="11.6644683"><ele>7.0</ele><time>2026-05-01T09:39:25.384Z</time></trkpt><trkpt lat="45.1691667" lon="11.6644217"><ele>7.0</ele><time>2026-05-01T09:39:26.414Z</time></trkpt><trkpt lat="45.169115" lon="11.664365"><ele>7.0</ele><time>2026-05-01T09:39:27.443Z</time></trkpt><trkpt lat="45.1690633" lon="11.6643133"><ele>7.0</ele><time>2026-05-01T09:39:28.416Z</time></trkpt><trkpt lat="45.1690017" lon="11.6642617"><ele>7.0</ele><time>2026-05-01T09:39:29.451Z</time></trkpt><trkpt lat="45.168945" lon="11.6642067"><ele>7.0</ele><time>2026-05-01T09:39:30.396Z</time></trkpt><trkpt lat="45.1688883" lon="11.66415"><ele>7.0</ele><time>2026-05-01T09:39:31.405Z</time></trkpt><trkpt lat="45.16883" lon="11.66411"><ele>7.0</ele><time>2026-05-01T09:39:32.41Z</time></trkpt><trkpt lat="45.1687667" lon="11.6640633"><ele>7.0</ele><time>2026-05-01T09:39:33.407Z</time></trkpt><trkpt lat="45.1687067" lon="11.6640133"><ele>7.0</ele><time>2026-05-01T09:39:34.401Z</time></trkpt><trkpt lat="45.1686483" lon="11.6639567"><ele>7.0</ele><time>2026-05-01T09:39:35.388Z</time></trkpt><trkpt lat="45.16859" lon="11.663905"><ele>7.0</ele><time>2026-05-01T09:39:36.384Z</time></trkpt><trkpt lat="45.1685283" lon="11.663855"><ele>7.0</ele><time>2026-05-01T09:39:37.397Z</time></trkpt><trkpt lat="45.16847" lon="11.6638033"><ele>7.0</ele><time>2026-05-01T09:39:38.386Z</time></trkpt><trkpt lat="45.1684133" lon="11.66375"><ele>7.0</ele><time>2026-05-01T09:39:39.387Z</time></trkpt><trkpt lat="45.168355" lon="11.6636983"><ele>7.0</ele><time>2026-05-01T09:39:40.424Z</time></trkpt><trkpt lat="45.1682983" lon="11.663645"><ele>7.0</ele><time>2026-05-01T09:39:41.387Z</time></trkpt><trkpt lat="45.1682433" lon="11.6635917"><ele>7.0</ele><time>2026-05-01T09:39:42.379Z</time></trkpt><trkpt lat="45.1681867" lon="11.6635367"><ele>7.0</ele><time>2026-05-01T09:39:43.391Z</time></trkpt><trkpt lat="45.1681317" lon="11.66348"><ele>7.0</ele><time>2026-05-01T09:39:44.397Z</time></trkpt><trkpt lat="45.168075" lon="11.6634233"><ele>7.0</ele><time>2026-05-01T09:39:45.396Z</time></trkpt><trkpt lat="45.1680217" lon="11.663365"><ele>6.857142857142857</ele><time>2026-05-01T09:39:46.399Z</time></trkpt><trkpt lat="45.1679683" lon="11.6633083"><ele>6.714285714285714</ele><time>2026-05-01T09:39:47.393Z</time></trkpt><trkpt lat="45.1679167" lon="11.6632517"><ele>6.571428571428571</ele><time>2026-05-01T09:39:48.404Z</time></trkpt><trkpt lat="45.1678633" lon="11.6631933"><ele>6.428571428571429</ele><time>2026-05-01T09:39:49.391Z</time></trkpt><trkpt lat="45.16781" lon="11.6631317"><ele>6.285714285714286</ele><time>2026-05-01T09:39:50.41Z</time></trkpt><trkpt lat="45.1677583" lon="11.66307"><ele>6.142857142857142</ele><time>2026-05-01T09:39:51.43Z</time></trkpt><trkpt lat="45.167705" lon="11.663005"><ele>6.0</ele><time>2026-05-01T09:39:52.398Z</time></trkpt><trkpt lat="45.1676517" lon="11.66294"><ele>5.999999999999999</ele><time>2026-05-01T09:39:53.388Z</time></trkpt><trkpt lat="45.1676" lon="11.6628767"><ele>6.0</ele><time>2026-05-01T09:39:54.391Z</time></trkpt><trkpt lat="45.1675483" lon="11.66281"><ele>6.0</ele><time>2026-05-01T09:39:55.39Z</time></trkpt><trkpt lat="45.1674967" lon="11.6627467"><ele>6.0</ele><time>2026-05-01T09:39:56.397Z</time></trkpt><trkpt lat="45.167445" lon="11.6626817"><ele>6.0</ele><time>2026-05-01T09:39:57.404Z</time></trkpt><trkpt lat="45.1673933" lon="11.662615"><ele>5.999999999999999</ele><time>2026-05-01T09:39:58.382Z</time></trkpt><trkpt lat="45.1673433" lon="11.6625467"><ele>6.0</ele><time>2026-05-01T09:39:59.377Z</time></trkpt><trkpt lat="45.1672933" lon="11.6624817"><ele>6.142857142857142</ele><time>2026-05-01T09:40:00.394Z</time></trkpt><trkpt lat="45.1672417" lon="11.662415"><ele>6.285714285714286</ele><time>2026-05-01T09:40:01.391Z</time></trkpt><trkpt lat="45.1671883" lon="11.66235"><ele>6.428571428571429</ele><time>2026-05-01T09:40:02.377Z</time></trkpt><trkpt lat="45.1671383" lon="11.662285"><ele>6.571428571428571</ele><time>2026-05-01T09:40:03.38Z</time></trkpt><trkpt lat="45.1670867" lon="11.6622183"><ele>6.714285714285714</ele><time>2026-05-01T09:40:04.382Z</time></trkpt><trkpt lat="45.167035" lon="11.6621533"><ele>6.857142857142857</ele><time>2026-05-01T09:40:05.384Z</time></trkpt><trkpt lat="45.166985" lon="11.6620867"><ele>7.0</ele><time>2026-05-01T09:40:06.399Z</time></trkpt><trkpt lat="45.166935" lon="11.6620217"><ele>7.0</ele><time>2026-05-01T09:40:07.385Z</time></trkpt><trkpt lat="45.1668867" lon="11.66196"><ele>7.0</ele><time>2026-05-01T09:40:08.41Z</time></trkpt><trkpt lat="45.1668367" lon="11.6618983"><ele>7.0</ele><time>2026-05-01T09:40:09.4Z</time></trkpt><trkpt lat="45.1667883" lon="11.661835"><ele>7.0</ele><time>2026-05-01T09:40:10.397Z</time></trkpt><trkpt lat="45.1667383" lon="11.6617683"><ele>7.0</ele><time>2026-05-01T09:40:11.381Z</time></trkpt><trkpt lat="45.166685" lon="11.6617"><ele>7.0</ele><time>2026-05-01T09:40:12.386Z</time></trkpt><trkpt lat="45.166635" lon="11.6616333"><ele>7.0</ele><time>2026-05-01T09:40:13.404Z</time></trkpt><trkpt lat="45.1665817" lon="11.661565"><ele>6.857142857142857</ele><time>2026-05-01T09:40:14.386Z</time></trkpt><trkpt lat="45.1665283" lon="11.6614983"><ele>6.714285714285714</ele><time>2026-05-01T09:40:15.382Z</time></trkpt><trkpt lat="45.1664733" lon="11.661435"><ele>6.571428571428571</ele><time>2026-05-01T09:40:16.383Z</time></trkpt><trkpt lat="45.1664183" lon="11.6613733"><ele>6.428571428571429</ele><time>2026-05-01T09:40:17.387Z</time></trkpt><trkpt lat="45.1663683" lon="11.661305"><ele>6.285714285714286</ele><time>2026-05-01T09:40:18.386Z</time></trkpt><trkpt lat="45.16632" lon="11.661235"><ele>6.142857142857142</ele><time>2026-05-01T09:40:19.388Z</time></trkpt><trkpt lat="45.16627" lon="11.661165"><ele>6.0</ele><time>2026-05-01T09:40:20.381Z</time></trkpt><trkpt lat="45.1662217" lon="11.661095"><ele>5.999999999999999</ele><time>2026-05-01T09:40:21.382Z</time></trkpt><trkpt lat="45.1661717" lon="11.6610267"><ele>6.0</ele><time>2026-05-01T09:40:22.382Z</time></trkpt><trkpt lat="45.1661233" lon="11.6609567"><ele>6.0</ele><time>2026-05-01T09:40:23.38Z</time></trkpt><trkpt lat="45.166075" lon="11.6608883"><ele>6.0</ele><time>2026-05-01T09:40:24.38Z</time></trkpt><trkpt lat="45.1660283" lon="11.66082"><ele>6.0</ele><time>2026-05-01T09:40:25.42Z</time></trkpt><trkpt lat="45.16598" lon="11.66075"><ele>5.999999999999999</ele><time>2026-05-01T09:40:26.415Z</time></trkpt><trkpt lat="45.1659333" lon="11.6606833"><ele>6.0</ele><time>2026-05-01T09:40:27.427Z</time></trkpt><trkpt lat="45.165885" lon="11.66062"><ele>6.0</ele><time>2026-05-01T09:40:28.417Z</time></trkpt><trkpt lat="45.16584" lon="11.6605567"><ele>6.0</ele><time>2026-05-01T09:40:29.422Z</time></trkpt><trkpt lat="45.16575" lon="11.660435"><ele>6.0</ele><time>2026-05-01T09:40:31.419Z</time></trkpt><trkpt lat="45.1656617" lon="11.6603167"><ele>6.0</ele><time>2026-05-01T09:40:33.398Z</time></trkpt><trkpt lat="45.1656167" lon="11.66025"><ele>6.0</ele><time>2026-05-01T09:40:34.418Z</time></trkpt><trkpt lat="45.16557" lon="11.6601883"><ele>6.0</ele><time>2026-05-01T09:40:35.424Z</time></trkpt><trkpt lat="45.1655217" lon="11.66013"><ele>6.142857142857142</ele><time>2026-05-01T09:40:36.428Z</time></trkpt><trkpt lat="45.16547" lon="11.6600667"><ele>6.285714285714286</ele><time>2026-05-01T09:40:37.428Z</time></trkpt><trkpt lat="45.1654183" lon="11.6600067"><ele>6.428571428571429</ele><time>2026-05-01T09:40:38.398Z</time></trkpt><trkpt lat="45.16537" lon="11.6599417"><ele>6.571428571428571</ele><time>2026-05-01T09:40:39.419Z</time></trkpt><trkpt lat="45.1653233" lon="11.6598783"><ele>6.714285714285714</ele><time>2026-05-01T09:40:40.422Z</time></trkpt><trkpt lat="45.1652733" lon="11.659815"><ele>6.857142857142857</ele><time>2026-05-01T09:40:41.421Z</time></trkpt><trkpt lat="45.1652217" lon="11.6597533"><ele>7.0</ele><time>2026-05-01T09:40:42.431Z</time></trkpt><trkpt lat="45.1651717" lon="11.6596933"><ele>7.000000000000001</ele><time>2026-05-01T09:40:43.427Z</time></trkpt><trkpt lat="45.1650767" lon="11.6595717"><ele>7.0</ele><time>2026-05-01T09:40:45.385Z</time></trkpt><trkpt lat="45.1650267" lon="11.65951"><ele>7.0</ele><time>2026-05-01T09:40:46.408Z</time></trkpt><trkpt lat="45.1649767" lon="11.65945"><ele>7.0</ele><time>2026-05-01T09:40:47.456Z</time></trkpt><trkpt lat="45.1649267" lon="11.6593933"><ele>7.000000000000001</ele><time>2026-05-01T09:40:48.462Z</time></trkpt><trkpt lat="45.1648767" lon="11.659335"><ele>7.0</ele><time>2026-05-01T09:40:49.515Z</time></trkpt><trkpt lat="45.1647233" lon="11.6591267"><ele>7.0</ele><time>2026-05-01T09:40:52.384Z</time></trkpt><trkpt lat="45.16468" lon="11.6590567"><ele>7.0</ele><time>2026-05-01T09:40:53.385Z</time></trkpt><trkpt lat="45.164635" lon="11.6589867"><ele>7.0</ele><time>2026-05-01T09:40:54.397Z</time></trkpt><trkpt lat="45.16458" lon="11.658925"><ele>7.0</ele><time>2026-05-01T09:40:55.381Z</time></trkpt><trkpt lat="45.1645283" lon="11.6588633"><ele>7.0</ele><time>2026-05-01T09:40:56.383Z</time></trkpt><trkpt lat="45.1644783" lon="11.6588"><ele>7.0</ele><time>2026-05-01T09:40:57.384Z</time></trkpt><trkpt lat="45.16443" lon="11.658735"><ele>7.0</ele><time>2026-05-01T09:40:58.384Z</time></trkpt><trkpt lat="45.1643817" lon="11.6586717"><ele>6.571428571428571</ele><time>2026-05-01T09:40:59.393Z</time></trkpt><trkpt lat="45.1643317" lon="11.65861"><ele>6.142857142857142</ele><time>2026-05-01T09:41:00.39Z</time></trkpt><trkpt lat="45.1642817" lon="11.6585483"><ele>5.714285714285714</ele><time>2026-05-01T09:41:01.381Z</time></trkpt><trkpt lat="45.1642367" lon="11.65848"><ele>5.285714285714286</ele><time>2026-05-01T09:41:02.381Z</time></trkpt><trkpt lat="45.1641867" lon="11.658415"><ele>4.857142857142857</ele><time>2026-05-01T09:41:03.384Z</time></trkpt><trkpt lat="45.1641383" lon="11.6583533"><ele>4.428571428571429</ele><time>2026-05-01T09:41:04.386Z</time></trkpt><trkpt lat="45.16409" lon="11.6582917"><ele>4.0</ele><time>2026-05-01T09:41:05.385Z</time></trkpt><trkpt lat="45.1640417" lon="11.6582267"><ele>4.428571428571429</ele><time>2026-05-01T09:41:06.397Z</time></trkpt><trkpt lat="45.1639967" lon="11.6581617"><ele>4.857142857142857</ele><time>2026-05-01T09:41:07.385Z</time></trkpt><trkpt lat="45.1639483" lon="11.6580967"><ele>5.285714285714286</ele><time>2026-05-01T09:41:08.397Z</time></trkpt><trkpt lat="45.1639017" lon="11.6580333"><ele>5.714285714285714</ele><time>2026-05-01T09:41:09.401Z</time></trkpt><trkpt lat="45.1638517" lon="11.6579667"><ele>6.142857142857142</ele><time>2026-05-01T09:41:10.384Z</time></trkpt><trkpt lat="45.1638033" lon="11.6579017"><ele>6.571428571428571</ele><time>2026-05-01T09:41:11.383Z</time></trkpt><trkpt lat="45.163755" lon="11.6578317"><ele>7.0</ele><time>2026-05-01T09:41:12.382Z</time></trkpt><trkpt lat="45.1637067" lon="11.6577633"><ele>7.000000000000001</ele><time>2026-05-01T09:41:13.44Z</time></trkpt><trkpt lat="45.16366" lon="11.6577017"><ele>7.0</ele><time>2026-05-01T09:41:14.463Z</time></trkpt><trkpt lat="45.1636083" lon="11.6576433"><ele>7.0</ele><time>2026-05-01T09:41:15.475Z</time></trkpt><trkpt lat="45.16356" lon="11.657575"><ele>7.0</ele><time>2026-05-01T09:41:16.469Z</time></trkpt><trkpt lat="45.16352" lon="11.6574967"><ele>7.000000000000001</ele><time>2026-05-01T09:41:17.476Z</time></trkpt><trkpt lat="45.1634417" lon="11.65736"><ele>7.0</ele><time>2026-05-01T09:41:19.391Z</time></trkpt><trkpt lat="45.1634017" lon="11.6572833"><ele>7.0</ele><time>2026-05-01T09:41:20.385Z</time></trkpt><trkpt lat="45.1633567" lon="11.6572117"><ele>7.0</ele><time>2026-05-01T09:41:21.382Z</time></trkpt><trkpt lat="45.1633083" lon="11.6571433"><ele>7.0</ele><time>2026-05-01T09:41:22.396Z</time></trkpt><trkpt lat="45.1632617" lon="11.6570717"><ele>7.0</ele><time>2026-05-01T09:41:23.381Z</time></trkpt><trkpt lat="45.1632167" lon="11.6569983"><ele>7.0</ele><time>2026-05-01T09:41:24.401Z</time></trkpt><trkpt lat="45.1631717" lon="11.6569283"><ele>7.0</ele><time>2026-05-01T09:41:25.385Z</time></trkpt><trkpt lat="45.163125" lon="11.6568567"><ele>7.0</ele><time>2026-05-01T09:41:26.4Z</time></trkpt><trkpt lat="45.16308" lon="11.6567833"><ele>6.857142857142857</ele><time>2026-05-01T09:41:27.394Z</time></trkpt><trkpt lat="45.163035" lon="11.65671"><ele>6.714285714285714</ele><time>2026-05-01T09:41:28.384Z</time></trkpt><trkpt lat="45.1629883" lon="11.6566367"><ele>6.571428571428571</ele><time>2026-05-01T09:41:29.382Z</time></trkpt><trkpt lat="45.162935" lon="11.656565"><ele>6.428571428571429</ele><time>2026-05-01T09:41:30.381Z</time></trkpt><trkpt lat="45.162885" lon="11.6564933"><ele>6.285714285714286</ele><time>2026-05-01T09:41:31.382Z</time></trkpt><trkpt lat="45.16284" lon="11.6564217"><ele>6.142857142857142</ele><time>2026-05-01T09:41:32.389Z</time></trkpt><trkpt lat="45.162795" lon="11.65635"><ele>6.0</ele><time>2026-05-01T09:41:33.405Z</time></trkpt><trkpt lat="45.16275" lon="11.65628"><ele>5.999999999999999</ele><time>2026-05-01T09:41:34.407Z</time></trkpt><trkpt lat="45.1627033" lon="11.65621"><ele>6.0</ele><time>2026-05-01T09:41:35.399Z</time></trkpt><trkpt lat="45.1626567" lon="11.6561433"><ele>6.0</ele><time>2026-05-01T09:41:36.397Z</time></trkpt><trkpt lat="45.162615" lon="11.6560733"><ele>6.0</ele><time>2026-05-01T09:41:37.423Z</time></trkpt><trkpt lat="45.1625683" lon="11.6560083"><ele>6.0</ele><time>2026-05-01T09:41:38.431Z</time></trkpt><trkpt lat="45.1625217" lon="11.6559467"><ele>5.999999999999999</ele><time>2026-05-01T09:41:39.43Z</time></trkpt><trkpt lat="45.1624733" lon="11.6558833"><ele>6.0</ele><time>2026-05-01T09:41:40.425Z</time></trkpt><trkpt lat="45.162425" lon="11.6558217"><ele>5.857142857142857</ele><time>2026-05-01T09:41:41.418Z</time></trkpt><trkpt lat="45.1623733" lon="11.655765"><ele>5.714285714285714</ele><time>2026-05-01T09:41:42.425Z</time></trkpt><trkpt lat="45.16232" lon="11.655705"><ele>5.571428571428571</ele><time>2026-05-01T09:41:43.401Z</time></trkpt><trkpt lat="45.162265" lon="11.6556517"><ele>5.428571428571429</ele><time>2026-05-01T09:41:44.436Z</time></trkpt><trkpt lat="45.1622083" lon="11.6555983"><ele>5.285714285714286</ele><time>2026-05-01T09:41:45.434Z</time></trkpt><trkpt lat="45.1621533" lon="11.655545"><ele>5.142857142857142</ele><time>2026-05-01T09:41:46.426Z</time></trkpt><trkpt lat="45.1620967" lon="11.65549"><ele>5.0</ele><time>2026-05-01T09:41:47.377Z</time></trkpt><trkpt lat="45.1620383" lon="11.6554383"><ele>5.0</ele><time>2026-05-01T09:41:48.383Z</time></trkpt><trkpt lat="45.1619833" lon="11.655385"><ele>5.0</ele><time>2026-05-01T09:41:49.385Z</time></trkpt><trkpt lat="45.1619283" lon="11.6553317"><ele>5.0</ele><time>2026-05-01T09:41:50.388Z</time></trkpt><trkpt lat="45.1618733" lon="11.65528"><ele>5.0</ele><time>2026-05-01T09:41:51.384Z</time></trkpt><trkpt lat="45.1618167" lon="11.65523"><ele>5.0</ele><time>2026-05-01T09:41:52.386Z</time></trkpt><trkpt lat="45.16176" lon="11.65518"><ele>5.0</ele><time>2026-05-01T09:41:53.384Z</time></trkpt><trkpt lat="45.161705" lon="11.6551283"><ele>5.0</ele><time>2026-05-01T09:41:54.384Z</time></trkpt><trkpt lat="45.1616517" lon="11.6550783"><ele>5.0</ele><time>2026-05-01T09:41:55.384Z</time></trkpt><trkpt lat="45.1615983" lon="11.6550267"><ele>5.0</ele><time>2026-05-01T09:41:56.388Z</time></trkpt><trkpt lat="45.1615433" lon="11.654975"><ele>5.0</ele><time>2026-05-01T09:41:57.385Z</time></trkpt><trkpt lat="45.1614883" lon="11.65492"><ele>5.0</ele><time>2026-05-01T09:41:58.38Z</time></trkpt><trkpt lat="45.1614333" lon="11.6548683"><ele>5.0</ele><time>2026-05-01T09:41:59.387Z</time></trkpt><trkpt lat="45.1613783" lon="11.6548167"><ele>5.0</ele><time>2026-05-01T09:42:00.38Z</time></trkpt><trkpt lat="45.1613217" lon="11.654765"><ele>5.0</ele><time>2026-05-01T09:42:01.383Z</time></trkpt><trkpt lat="45.161265" lon="11.6547167"><ele>5.0</ele><time>2026-05-01T09:42:02.389Z</time></trkpt><trkpt lat="45.1612117" lon="11.6546683"><ele>5.0</ele><time>2026-05-01T09:42:03.383Z</time></trkpt><trkpt lat="45.1611583" lon="11.6546183"><ele>5.0</ele><time>2026-05-01T09:42:04.378Z</time></trkpt><trkpt lat="45.161105" lon="11.6545683"><ele>5.0</ele><time>2026-05-01T09:42:05.388Z</time></trkpt><trkpt lat="45.1610517" lon="11.6545183"><ele>5.0</ele><time>2026-05-01T09:42:06.378Z</time></trkpt><trkpt lat="45.1609983" lon="11.6544667"><ele>5.0</ele><time>2026-05-01T09:42:07.384Z</time></trkpt><trkpt lat="45.1609433" lon="11.6544117"><ele>5.0</ele><time>2026-05-01T09:42:08.385Z</time></trkpt><trkpt lat="45.16089" lon="11.6543583"><ele>5.0</ele><time>2026-05-01T09:42:09.391Z</time></trkpt><trkpt lat="45.1608333" lon="11.6543067"><ele>5.0</ele><time>2026-05-01T09:42:10.491Z</time></trkpt><trkpt lat="45.1607733" lon="11.654265"><ele>5.0</ele><time>2026-05-01T09:42:11.442Z</time></trkpt><trkpt lat="45.1607167" lon="11.654215"><ele>5.0</ele><time>2026-05-01T09:42:12.453Z</time></trkpt><trkpt lat="45.1606617" lon="11.654155"><ele>5.0</ele><time>2026-05-01T09:42:13.386Z</time></trkpt><trkpt lat="45.1606117" lon="11.65409"><ele>5.0</ele><time>2026-05-01T09:42:14.385Z</time></trkpt><trkpt lat="45.1605633" lon="11.654025"><ele>5.0</ele><time>2026-05-01T09:42:15.387Z</time></trkpt><trkpt lat="45.1604717" lon="11.6538983"><ele>5.0</ele><time>2026-05-01T09:42:17.392Z</time></trkpt><trkpt lat="45.1604217" lon="11.65384"><ele>5.0</ele><time>2026-05-01T09:42:18.438Z</time></trkpt><trkpt lat="45.160375" lon="11.6537767"><ele>5.0</ele><time>2026-05-01T09:42:19.384Z</time></trkpt><trkpt lat="45.160325" lon="11.653715"><ele>5.0</ele><time>2026-05-01T09:42:20.386Z</time></trkpt><trkpt lat="45.1602767" lon="11.6536517"><ele>5.0</ele><time>2026-05-01T09:42:21.38Z</time></trkpt><trkpt lat="45.1602267" lon="11.6535917"><ele>5.0</ele><time>2026-05-01T09:42:22.386Z</time></trkpt><trkpt lat="45.1601733" lon="11.65353"><ele>5.0</ele><time>2026-05-01T09:42:23.386Z</time></trkpt><trkpt lat="45.16012" lon="11.6534667"><ele>5.0</ele><time>2026-05-01T09:42:24.388Z</time></trkpt><trkpt lat="45.1600683" lon="11.653405"><ele>5.0</ele><time>2026-05-01T09:42:25.385Z</time></trkpt><trkpt lat="45.1600183" lon="11.6533417"><ele>5.0</ele><time>2026-05-01T09:42:26.387Z</time></trkpt><trkpt lat="45.1599683" lon="11.6532767"><ele>5.0</ele><time>2026-05-01T09:42:27.386Z</time></trkpt><trkpt lat="45.1599217" lon="11.65321"><ele>5.0</ele><time>2026-05-01T09:42:28.434Z</time></trkpt><trkpt lat="45.1598733" lon="11.6531467"><ele>5.0</ele><time>2026-05-01T09:42:29.495Z</time></trkpt><trkpt lat="45.1598233" lon="11.6530883"><ele>5.0</ele><time>2026-05-01T09:42:30.437Z</time></trkpt><trkpt lat="45.1597683" lon="11.6530283"><ele>5.0</ele><time>2026-05-01T09:42:31.438Z</time></trkpt><trkpt lat="45.159685" lon="11.6529033"><ele>5.0</ele><time>2026-05-01T09:42:33.388Z</time></trkpt><trkpt lat="45.1596167" lon="11.65278"><ele>5.0</ele><time>2026-05-01T09:42:35.409Z</time></trkpt><trkpt lat="45.1595567" lon="11.65264"><ele>5.0</ele><time>2026-05-01T09:42:37.389Z</time></trkpt><trkpt lat="45.1594967" lon="11.6525033"><ele>5.0</ele><time>2026-05-01T09:42:39.377Z</time></trkpt><trkpt lat="45.1594367" lon="11.652365"><ele>5.0</ele><time>2026-05-01T09:42:41.383Z</time></trkpt><trkpt lat="45.1593817" lon="11.65222"><ele>5.0</ele><time>2026-05-01T09:42:43.412Z</time></trkpt><trkpt lat="45.1593267" lon="11.65207"><ele>5.0</ele><time>2026-05-01T09:42:45.381Z</time></trkpt><trkpt lat="45.159275" lon="11.65192"><ele>5.0</ele><time>2026-05-01T09:42:47.385Z</time></trkpt><trkpt lat="45.1592233" lon="11.65177"><ele>5.0</ele><time>2026-05-01T09:42:49.383Z</time></trkpt><trkpt lat="45.159175" lon="11.6516283"><ele>5.0</ele><time>2026-05-01T09:42:51.383Z</time></trkpt><trkpt lat="45.1591267" lon="11.6514883"><ele>5.0</ele><time>2026-05-01T09:42:53.389Z</time></trkpt><trkpt lat="45.1590733" lon="11.65135"><ele>5.0</ele><time>2026-05-01T09:42:55.385Z</time></trkpt><trkpt lat="45.1590267" lon="11.6512133"><ele>5.0</ele><time>2026-05-01T09:42:57.386Z</time></trkpt><trkpt lat="45.15898" lon="11.6510783"><ele>5.0</ele><time>2026-05-01T09:42:59.426Z</time></trkpt><trkpt lat="45.15894" lon="11.6509517"><ele>5.0</ele><time>2026-05-01T09:43:01.438Z</time></trkpt><trkpt lat="45.1588933" lon="11.6508217"><ele>5.0</ele><time>2026-05-01T09:43:03.385Z</time></trkpt><trkpt lat="45.1588417" lon="11.6506883"><ele>5.25</ele><time>2026-05-01T09:43:05.381Z</time></trkpt><trkpt lat="45.15879" lon="11.650545"><ele>5.5</ele><time>2026-05-01T09:43:07.386Z</time></trkpt><trkpt lat="45.1587417" lon="11.650405"><ele>5.75</ele><time>2026-05-01T09:43:09.424Z</time></trkpt><trkpt lat="45.1586867" lon="11.6502633"><ele>6.0</ele><time>2026-05-01T09:43:11.447Z</time></trkpt><trkpt lat="45.1586333" lon="11.650115"><ele>6.166666666666667</ele><time>2026-05-01T09:43:13.457Z</time></trkpt><trkpt lat="45.158595" lon="11.6499533"><ele>6.333333333333334</ele><time>2026-05-01T09:43:15.382Z</time></trkpt><trkpt lat="45.1585783" lon="11.6497717"><ele>6.5</ele><time>2026-05-01T09:43:17.384Z</time></trkpt><trkpt lat="45.1585683" lon="11.6496767"><ele>6.666666666666667</ele><time>2026-05-01T09:43:18.386Z</time></trkpt><trkpt lat="45.1585583" lon="11.6495883"><ele>6.833333333333334</ele><time>2026-05-01T09:43:19.385Z</time></trkpt><trkpt lat="45.1585483" lon="11.6494983"><ele>7.0</ele><time>2026-05-01T09:43:20.399Z</time></trkpt><trkpt lat="45.15854" lon="11.6494083"><ele>7.0</ele><time>2026-05-01T09:43:21.4Z</time></trkpt><trkpt lat="45.1585283" lon="11.64932"><ele>6.999999999999999</ele><time>2026-05-01T09:43:22.402Z</time></trkpt><trkpt lat="45.1585" lon="11.64916"><ele>6.999999999999999</ele><time>2026-05-01T09:43:24.415Z</time></trkpt><trkpt lat="45.1584733" lon="11.6489983"><ele>7.0</ele><time>2026-05-01T09:43:26.429Z</time></trkpt><trkpt lat="45.158455" lon="11.6488367"><ele>7.0</ele><time>2026-05-01T09:43:28.423Z</time></trkpt><trkpt lat="45.15843" lon="11.6486717"><ele>7.0</ele><time>2026-05-01T09:43:30.423Z</time></trkpt><trkpt lat="45.1583883" lon="11.6485183"><ele>6.999999999999999</ele><time>2026-05-01T09:43:32.421Z</time></trkpt><trkpt lat="45.15833" lon="11.6483633"><ele>6.999999999999999</ele><time>2026-05-01T09:43:34.383Z</time></trkpt><trkpt lat="45.1582967" lon="11.6482867"><ele>7.0</ele><time>2026-05-01T09:43:35.384Z</time></trkpt><trkpt lat="45.158225" lon="11.64814"><ele>7.0</ele><time>2026-05-01T09:43:37.382Z</time></trkpt><trkpt lat="45.1581867" lon="11.6480683"><ele>7.0</ele><time>2026-05-01T09:43:38.386Z</time></trkpt><trkpt lat="45.1581133" lon="11.6479317"><ele>7.0</ele><time>2026-05-01T09:43:40.384Z</time></trkpt><trkpt lat="45.1580417" lon="11.64779"><ele>7.0</ele><time>2026-05-01T09:43:42.421Z</time></trkpt><trkpt lat="45.1579633" lon="11.6476517"><ele>7.0</ele><time>2026-05-01T09:43:44.387Z</time></trkpt><trkpt lat="45.1578817" lon="11.6475167"><ele>7.0</ele><time>2026-05-01T09:43:46.385Z</time></trkpt><trkpt lat="45.1578367" lon="11.64745"><ele>7.0</ele><time>2026-05-01T09:43:47.385Z</time></trkpt><trkpt lat="45.1577917" lon="11.6473867"><ele>7.0</ele><time>2026-05-01T09:43:48.384Z</time></trkpt><trkpt lat="45.1577467" lon="11.6473183"><ele>7.0</ele><time>2026-05-01T09:43:49.385Z</time></trkpt><trkpt lat="45.1577017" lon="11.64725"><ele>7.0</ele><time>2026-05-01T09:43:50.413Z</time></trkpt><trkpt lat="45.1576567" lon="11.6471867"><ele>7.0</ele><time>2026-05-01T09:43:51.425Z</time></trkpt><trkpt lat="45.15761" lon="11.647125"><ele>7.0</ele><time>2026-05-01T09:43:52.427Z</time></trkpt><trkpt lat="45.15756" lon="11.6470667"><ele>7.000000000000001</ele><time>2026-05-01T09:43:53.427Z</time></trkpt><trkpt lat="45.157455" lon="11.6469667"><ele>7.0</ele><time>2026-05-01T09:43:55.434Z</time></trkpt><trkpt lat="45.1573983" lon="11.6469233"><ele>7.0</ele><time>2026-05-01T09:43:56.43Z</time></trkpt><trkpt lat="45.15734" lon="11.6468833"><ele>7.0</ele><time>2026-05-01T09:43:57.431Z</time></trkpt><trkpt lat="45.15728" lon="11.6468467"><ele>7.000000000000001</ele><time>2026-05-01T09:43:58.422Z</time></trkpt><trkpt lat="45.1572183" lon="11.64681"><ele>7.0</ele><time>2026-05-01T09:43:59.424Z</time></trkpt><trkpt lat="45.1571533" lon="11.6467783"><ele>6.857142857142857</ele><time>2026-05-01T09:44:00.418Z</time></trkpt><trkpt lat="45.1570867" lon="11.646745"><ele>6.714285714285714</ele><time>2026-05-01T09:44:01.396Z</time></trkpt><trkpt lat="45.15702" lon="11.6467183"><ele>6.571428571428571</ele><time>2026-05-01T09:44:02.418Z</time></trkpt><trkpt lat="45.1569533" lon="11.6466967"><ele>6.428571428571429</ele><time>2026-05-01T09:44:03.406Z</time></trkpt><trkpt lat="45.156885" lon="11.6466783"><ele>6.285714285714286</ele><time>2026-05-01T09:44:04.417Z</time></trkpt><trkpt lat="45.15682" lon="11.6466633"><ele>6.142857142857142</ele><time>2026-05-01T09:44:05.422Z</time></trkpt><trkpt lat="45.1567533" lon="11.6466533"><ele>6.0</ele><time>2026-05-01T09:44:06.433Z</time></trkpt><trkpt lat="45.1566867" lon="11.646645"><ele>5.999999999999999</ele><time>2026-05-01T09:44:07.414Z</time></trkpt><trkpt lat="45.1566217" lon="11.64664"><ele>6.0</ele><time>2026-05-01T09:44:08.429Z</time></trkpt><trkpt lat="45.1565533" lon="11.6466367"><ele>6.0</ele><time>2026-05-01T09:44:09.421Z</time></trkpt><trkpt lat="45.1564867" lon="11.6466383"><ele>6.0</ele><time>2026-05-01T09:44:10.38Z</time></trkpt><trkpt lat="45.1564183" lon="11.64664"><ele>6.0</ele><time>2026-05-01T09:44:11.383Z</time></trkpt><trkpt lat="45.15635" lon="11.6466417"><ele>5.999999999999999</ele><time>2026-05-01T09:44:12.384Z</time></trkpt><trkpt lat="45.1562817" lon="11.6466417"><ele>6.0</ele><time>2026-05-01T09:44:13.387Z</time></trkpt><trkpt lat="45.1562117" lon="11.646645"><ele>5.857142857142857</ele><time>2026-05-01T09:44:14.385Z</time></trkpt><trkpt lat="45.1561417" lon="11.6466467"><ele>5.714285714285714</ele><time>2026-05-01T09:44:15.386Z</time></trkpt><trkpt lat="45.1560717" lon="11.64665"><ele>5.571428571428571</ele><time>2026-05-01T09:44:16.435Z</time></trkpt><trkpt lat="45.1560017" lon="11.6466533"><ele>5.428571428571429</ele><time>2026-05-01T09:44:17.402Z</time></trkpt><trkpt lat="45.1559333" lon="11.646655"><ele>5.285714285714286</ele><time>2026-05-01T09:44:18.378Z</time></trkpt><trkpt lat="45.155865" lon="11.6466567"><ele>5.142857142857142</ele><time>2026-05-01T09:44:19.383Z</time></trkpt><trkpt lat="45.1557983" lon="11.64666"><ele>5.0</ele><time>2026-05-01T09:44:20.38Z</time></trkpt><trkpt lat="45.1557317" lon="11.646665"><ele>4.857142857142857</ele><time>2026-05-01T09:44:21.383Z</time></trkpt><trkpt lat="45.1556667" lon="11.64667"><ele>4.714285714285714</ele><time>2026-05-01T09:44:22.38Z</time></trkpt><trkpt lat="45.1556" lon="11.6466717"><ele>4.571428571428571</ele><time>2026-05-01T09:44:23.422Z</time></trkpt><trkpt lat="45.1555317" lon="11.64667"><ele>4.428571428571429</ele><time>2026-05-01T09:44:24.406Z</time></trkpt><trkpt lat="45.1554617" lon="11.64667"><ele>4.285714285714286</ele><time>2026-05-01T09:44:25.384Z</time></trkpt><trkpt lat="45.155395" lon="11.6466683"><ele>4.142857142857142</ele><time>2026-05-01T09:44:26.393Z</time></trkpt><trkpt lat="45.1553267" lon="11.646665"><ele>4.0</ele><time>2026-05-01T09:44:27.387Z</time></trkpt><trkpt lat="45.1552567" lon="11.6466583"><ele>3.9999999999999996</ele><time>2026-05-01T09:44:28.383Z</time></trkpt><trkpt lat="45.1551917" lon="11.6466533"><ele>4.0</ele><time>2026-05-01T09:44:29.383Z</time></trkpt><trkpt lat="45.155125" lon="11.6466433"><ele>4.0</ele><time>2026-05-01T09:44:30.38Z</time></trkpt><trkpt lat="45.1550617" lon="11.646635"><ele>4.0</ele><time>2026-05-01T09:44:31.384Z</time></trkpt><trkpt lat="45.1549967" lon="11.6466233"><ele>3.9999999999999996</ele><time>2026-05-01T09:44:32.387Z</time></trkpt><trkpt lat="45.1549317" lon="11.64661"><ele>4.0</ele><time>2026-05-01T09:44:33.388Z</time></trkpt><trkpt lat="45.1548083" lon="11.6465817"><ele>4.285714285714286</ele><time>2026-05-01T09:44:35.386Z</time></trkpt><trkpt lat="45.154745" lon="11.646565"><ele>4.571428571428571</ele><time>2026-05-01T09:44:36.381Z</time></trkpt><trkpt lat="45.1546833" lon="11.6465467"><ele>4.857142857142857</ele><time>2026-05-01T09:44:37.383Z</time></trkpt><trkpt lat="45.15462" lon="11.6465267"><ele>5.142857142857142</ele><time>2026-05-01T09:44:38.385Z</time></trkpt><trkpt lat="45.1545567" lon="11.646505"><ele>5.428571428571429</ele><time>2026-05-01T09:44:39.382Z</time></trkpt><trkpt lat="45.1544933" lon="11.646485"><ele>5.7142857142857135</ele><time>2026-05-01T09:44:40.405Z</time></trkpt><trkpt lat="45.15443" lon="11.6464667"><ele>6.0</ele><time>2026-05-01T09:44:41.382Z</time></trkpt><trkpt lat="45.154365" lon="11.6464467"><ele>5.999999999999999</ele><time>2026-05-01T09:44:42.385Z</time></trkpt><trkpt lat="45.1543017" lon="11.6464217"><ele>6.0</ele><time>2026-05-01T09:44:43.381Z</time></trkpt><trkpt lat="45.1542383" lon="11.6463967"><ele>6.0</ele><time>2026-05-01T09:44:44.381Z</time></trkpt><trkpt lat="45.1541717" lon="11.6463717"><ele>6.0</ele><time>2026-05-01T09:44:45.383Z</time></trkpt><trkpt lat="45.1541067" lon="11.6463483"><ele>6.0</ele><time>2026-05-01T09:44:46.394Z</time></trkpt><trkpt lat="45.1540417" lon="11.6463283"><ele>5.999999999999999</ele><time>2026-05-01T09:44:47.383Z</time></trkpt><trkpt lat="45.1539783" lon="11.6463067"><ele>6.0</ele><time>2026-05-01T09:44:48.381Z</time></trkpt><trkpt lat="45.15386" lon="11.6462683"><ele>6.142857142857142</ele><time>2026-05-01T09:44:50.384Z</time></trkpt><trkpt lat="45.1537983" lon="11.6462467"><ele>6.285714285714286</ele><time>2026-05-01T09:44:51.381Z</time></trkpt><trkpt lat="45.1537367" lon="11.646225"><ele>6.428571428571429</ele><time>2026-05-01T09:44:52.393Z</time></trkpt><trkpt lat="45.153675" lon="11.6462033"><ele>6.571428571428571</ele><time>2026-05-01T09:44:53.379Z</time></trkpt><trkpt lat="45.15361" lon="11.64618"><ele>6.714285714285714</ele><time>2026-05-01T09:44:54.385Z</time></trkpt><trkpt lat="45.1535467" lon="11.6461583"><ele>6.857142857142857</ele><time>2026-05-01T09:44:55.378Z</time></trkpt><trkpt lat="45.1534833" lon="11.646135"><ele>7.0</ele><time>2026-05-01T09:44:56.384Z</time></trkpt><trkpt lat="45.15342" lon="11.6461133"><ele>7.166666666666667</ele><time>2026-05-01T09:44:57.384Z</time></trkpt><trkpt lat="45.1533583" lon="11.6460917"><ele>7.333333333333334</ele><time>2026-05-01T09:44:58.385Z</time></trkpt><trkpt lat="45.1532383" lon="11.6460517"><ele>7.5</ele><time>2026-05-01T09:45:00.43Z</time></trkpt><trkpt lat="45.1531133" lon="11.646015"><ele>7.666666666666666</ele><time>2026-05-01T09:45:02.429Z</time></trkpt><trkpt lat="45.1530483" lon="11.6459933"><ele>7.833333333333333</ele><time>2026-05-01T09:45:03.427Z</time></trkpt><trkpt lat="45.1529833" lon="11.6459717"><ele>8.0</ele><time>2026-05-01T09:45:04.4Z</time></trkpt><trkpt lat="45.1529167" lon="11.64595"><ele>8.0</ele><time>2026-05-01T09:45:05.381Z</time></trkpt><trkpt lat="45.15285" lon="11.6459317"><ele>7.999999999999999</ele><time>2026-05-01T09:45:06.384Z</time></trkpt><trkpt lat="45.152785" lon="11.6459117"><ele>8.0</ele><time>2026-05-01T09:45:07.383Z</time></trkpt><trkpt lat="45.15272" lon="11.6458883"><ele>8.0</ele><time>2026-05-01T09:45:08.383Z</time></trkpt><trkpt lat="45.152655" lon="11.6458667"><ele>7.999999999999999</ele><time>2026-05-01T09:45:09.383Z</time></trkpt><trkpt lat="45.15259" lon="11.6458483"><ele>8.0</ele><time>2026-05-01T09:45:10.408Z</time></trkpt><trkpt lat="45.1525283" lon="11.6458283"><ele>8.0</ele><time>2026-05-01T09:45:11.384Z</time></trkpt><trkpt lat="45.1524667" lon="11.6458083"><ele>8.0</ele><time>2026-05-01T09:45:12.385Z</time></trkpt><trkpt lat="45.1524033" lon="11.64579"><ele>7.999999999999999</ele><time>2026-05-01T09:45:13.423Z</time></trkpt><trkpt lat="45.15234" lon="11.64577"><ele>8.0</ele><time>2026-05-01T09:45:14.412Z</time></trkpt><trkpt lat="45.1522733" lon="11.64575"><ele>8.0</ele><time>2026-05-01T09:45:15.399Z</time></trkpt><trkpt lat="45.1522083" lon="11.6457267"><ele>7.999999999999999</ele><time>2026-05-01T09:45:16.409Z</time></trkpt><trkpt lat="45.1521433" lon="11.645705"><ele>8.0</ele><time>2026-05-01T09:45:17.384Z</time></trkpt><trkpt lat="45.1520783" lon="11.645685"><ele>8.0</ele><time>2026-05-01T09:45:18.38Z</time></trkpt><trkpt lat="45.152015" lon="11.645665"><ele>8.0</ele><time>2026-05-01T09:45:19.389Z</time></trkpt><trkpt lat="45.15195" lon="11.645645"><ele>7.999999999999999</ele><time>2026-05-01T09:45:20.398Z</time></trkpt><trkpt lat="45.1518867" lon="11.6456233"><ele>8.0</ele><time>2026-05-01T09:45:21.387Z</time></trkpt><trkpt lat="45.15182" lon="11.6456"><ele>8.0</ele><time>2026-05-01T09:45:22.382Z</time></trkpt><trkpt lat="45.1517533" lon="11.6455783"><ele>7.999999999999999</ele><time>2026-05-01T09:45:23.381Z</time></trkpt><trkpt lat="45.15169" lon="11.6455567"><ele>8.0</ele><time>2026-05-01T09:45:24.385Z</time></trkpt><trkpt lat="45.151625" lon="11.6455333"><ele>8.0</ele><time>2026-05-01T09:45:25.383Z</time></trkpt><trkpt lat="45.1515617" lon="11.6455117"><ele>8.0</ele><time>2026-05-01T09:45:26.41Z</time></trkpt><trkpt lat="45.1514933" lon="11.6454933"><ele>7.999999999999999</ele><time>2026-05-01T09:45:27.401Z</time></trkpt><trkpt lat="45.1514283" lon="11.645475"><ele>8.0</ele><time>2026-05-01T09:45:28.383Z</time></trkpt><trkpt lat="45.1513617" lon="11.64546"><ele>8.0</ele><time>2026-05-01T09:45:29.389Z</time></trkpt><trkpt lat="45.1512967" lon="11.645445"><ele>7.999999999999999</ele><time>2026-05-01T09:45:30.385Z</time></trkpt><trkpt lat="45.1512283" lon="11.64543"><ele>8.0</ele><time>2026-05-01T09:45:31.383Z</time></trkpt><trkpt lat="45.1511617" lon="11.6454167"><ele>8.0</ele><time>2026-05-01T09:45:32.384Z</time></trkpt><trkpt lat="45.1510983" lon="11.6454033"><ele>8.0</ele><time>2026-05-01T09:45:33.384Z</time></trkpt><trkpt lat="45.1510317" lon="11.64539"><ele>7.999999999999999</ele><time>2026-05-01T09:45:34.381Z</time></trkpt><trkpt lat="45.1509633" lon="11.6453767"><ele>8.0</ele><time>2026-05-01T09:45:35.397Z</time></trkpt><trkpt lat="45.150895" lon="11.6453667"><ele>8.0</ele><time>2026-05-01T09:45:36.383Z</time></trkpt><trkpt lat="45.1508283" lon="11.645355"><ele>7.999999999999999</ele><time>2026-05-01T09:45:37.382Z</time></trkpt><trkpt lat="45.1507617" lon="11.6453467"><ele>8.0</ele><time>2026-05-01T09:45:38.389Z</time></trkpt><trkpt lat="45.150695" lon="11.64534"><ele>8.0</ele><time>2026-05-01T09:45:39.397Z</time></trkpt><trkpt lat="45.1506267" lon="11.6453317"><ele>7.857142857142857</ele><time>2026-05-01T09:45:40.407Z</time></trkpt><trkpt lat="45.1505583" lon="11.6453183"><ele>7.7142857142857135</ele><time>2026-05-01T09:45:41.386Z</time></trkpt><trkpt lat="45.15049" lon="11.6453067"><ele>7.571428571428571</ele><time>2026-05-01T09:45:42.383Z</time></trkpt><trkpt lat="45.150425" lon="11.645295"><ele>7.428571428571429</ele><time>2026-05-01T09:45:43.383Z</time></trkpt><trkpt lat="45.15036" lon="11.6452833"><ele>7.285714285714286</ele><time>2026-05-01T09:45:44.381Z</time></trkpt><trkpt lat="45.150295" lon="11.6452717"><ele>7.142857142857142</ele><time>2026-05-01T09:45:45.383Z</time></trkpt><trkpt lat="45.15023" lon="11.64526"><ele>7.0</ele><time>2026-05-01T09:45:46.384Z</time></trkpt><trkpt lat="45.150165" lon="11.64525"><ele>7.0</ele><time>2026-05-01T09:45:47.417Z</time></trkpt><trkpt lat="45.1500983" lon="11.6452367"><ele>7.0</ele><time>2026-05-01T09:45:48.395Z</time></trkpt><trkpt lat="45.15003" lon="11.645225"><ele>7.0</ele><time>2026-05-01T09:45:49.394Z</time></trkpt><trkpt lat="45.14996" lon="11.6452133"><ele>7.0</ele><time>2026-05-01T09:45:50.376Z</time></trkpt><trkpt lat="45.1498933" lon="11.6452033"><ele>7.0</ele><time>2026-05-01T09:45:51.389Z</time></trkpt><trkpt lat="45.149825" lon="11.6451917"><ele>7.0</ele><time>2026-05-01T09:45:52.379Z</time></trkpt><trkpt lat="45.1497583" lon="11.64518"><ele>7.0</ele><time>2026-05-01T09:45:53.384Z</time></trkpt><trkpt lat="45.14969" lon="11.6451667"><ele>6.714285714285714</ele><time>2026-05-01T09:45:54.384Z</time></trkpt><trkpt lat="45.1496233" lon="11.6451533"><ele>6.428571428571429</ele><time>2026-05-01T09:45:55.386Z</time></trkpt><trkpt lat="45.149555" lon="11.645145"><ele>6.142857142857142</ele><time>2026-05-01T09:45:56.378Z</time></trkpt><trkpt lat="45.1494883" lon="11.645135"><ele>5.857142857142858</ele><time>2026-05-01T09:45:57.383Z</time></trkpt><trkpt lat="45.1494233" lon="11.6451233"><ele>5.571428571428571</ele><time>2026-05-01T09:45:58.396Z</time></trkpt><trkpt lat="45.1493583" lon="11.6451117"><ele>5.285714285714286</ele><time>2026-05-01T09:45:59.405Z</time></trkpt><trkpt lat="45.1492933" lon="11.6450983"><ele>5.0</ele><time>2026-05-01T09:46:00.406Z</time></trkpt><trkpt lat="45.1491667" lon="11.6450717"><ele>5.0</ele><time>2026-05-01T09:46:02.391Z</time></trkpt><trkpt lat="45.1491033" lon="11.64506"><ele>5.0</ele><time>2026-05-01T09:46:03.389Z</time></trkpt><trkpt lat="45.14904" lon="11.64505"><ele>5.0</ele><time>2026-05-01T09:46:04.384Z</time></trkpt><trkpt lat="45.1489767" lon="11.64504"><ele>5.0</ele><time>2026-05-01T09:46:05.396Z</time></trkpt><trkpt lat="45.1489133" lon="11.6450317"><ele>5.0</ele><time>2026-05-01T09:46:06.386Z</time></trkpt><trkpt lat="45.14885" lon="11.6450217"><ele>5.0</ele><time>2026-05-01T09:46:07.39Z</time></trkpt><trkpt lat="45.1487283" lon="11.645"><ele>5.0</ele><time>2026-05-01T09:46:09.424Z</time></trkpt><trkpt lat="45.148665" lon="11.64499"><ele>5.142857142857142</ele><time>2026-05-01T09:46:10.41Z</time></trkpt><trkpt lat="45.1486" lon="11.64498"><ele>5.285714285714286</ele><time>2026-05-01T09:46:11.424Z</time></trkpt><trkpt lat="45.1485367" lon="11.64497"><ele>5.428571428571429</ele><time>2026-05-01T09:46:12.4Z</time></trkpt><trkpt lat="45.1484733" lon="11.64496"><ele>5.571428571428571</ele><time>2026-05-01T09:46:13.416Z</time></trkpt><trkpt lat="45.14841" lon="11.6449517"><ele>5.714285714285714</ele><time>2026-05-01T09:46:14.434Z</time></trkpt><trkpt lat="45.148345" lon="11.6449383"><ele>5.857142857142857</ele><time>2026-05-01T09:46:15.435Z</time></trkpt><trkpt lat="45.1482767" lon="11.6449267"><ele>6.0</ele><time>2026-05-01T09:46:16.435Z</time></trkpt><trkpt lat="45.1482133" lon="11.644915"><ele>6.0</ele><time>2026-05-01T09:46:17.423Z</time></trkpt><trkpt lat="45.14815" lon="11.6449"><ele>6.0</ele><time>2026-05-01T09:46:18.42Z</time></trkpt><trkpt lat="45.1480283" lon="11.644875"><ele>6.0</ele><time>2026-05-01T09:46:20.393Z</time></trkpt><trkpt lat="45.1479033" lon="11.6448567"><ele>6.0</ele><time>2026-05-01T09:46:22.425Z</time></trkpt><trkpt lat="45.1478383" lon="11.6448467"><ele>6.0</ele><time>2026-05-01T09:46:23.425Z</time></trkpt><trkpt lat="45.14772" lon="11.6448267"><ele>6.0</ele><time>2026-05-01T09:46:25.428Z</time></trkpt><trkpt lat="45.1475983" lon="11.6448067"><ele>6.0</ele><time>2026-05-01T09:46:27.416Z</time></trkpt><trkpt lat="45.1474817" lon="11.64478"><ele>6.0</ele><time>2026-05-01T09:46:29.418Z</time></trkpt><trkpt lat="45.1473683" lon="11.644755"><ele>6.0</ele><time>2026-05-01T09:46:31.419Z</time></trkpt><trkpt lat="45.14726" lon="11.64474"><ele>6.5</ele><time>2026-05-01T09:46:33.428Z</time></trkpt><trkpt lat="45.1471467" lon="11.6447217"><ele>7.0</ele><time>2026-05-01T09:46:35.427Z</time></trkpt><trkpt lat="45.14703" lon="11.6447033"><ele>7.5</ele><time>2026-05-01T09:46:37.42Z</time></trkpt><trkpt lat="45.14691" lon="11.6446767"><ele>8.0</ele><time>2026-05-01T09:46:39.42Z</time></trkpt><trkpt lat="45.14679" lon="11.6446583"><ele>8.0</ele><time>2026-05-01T09:46:41.424Z</time></trkpt><trkpt lat="45.1466733" lon="11.6446367"><ele>8.0</ele><time>2026-05-01T09:46:43.428Z</time></trkpt><trkpt lat="45.1465583" lon="11.6446183"><ele>8.0</ele><time>2026-05-01T09:46:45.432Z</time></trkpt><trkpt lat="45.146435" lon="11.644595"><ele>8.0</ele><time>2026-05-01T09:46:47.419Z</time></trkpt><trkpt lat="45.146315" lon="11.6445733"><ele>7.6000000000000005</ele><time>2026-05-01T09:46:49.419Z</time></trkpt><trkpt lat="45.1461933" lon="11.6445533"><ele>7.200000000000001</ele><time>2026-05-01T09:46:51.422Z</time></trkpt><trkpt lat="45.1460683" lon="11.64454"><ele>6.8</ele><time>2026-05-01T09:46:53.417Z</time></trkpt><trkpt lat="45.146005" lon="11.644535"><ele>6.4</ele><time>2026-05-01T09:46:54.429Z</time></trkpt><trkpt lat="45.14588" lon="11.644525"><ele>6.0</ele><time>2026-05-01T09:46:56.441Z</time></trkpt><trkpt lat="45.1458167" lon="11.6445167"><ele>6.0</ele><time>2026-05-01T09:46:57.428Z</time></trkpt><trkpt lat="45.1457533" lon="11.6445067"><ele>6.0</ele><time>2026-05-01T09:46:58.425Z</time></trkpt><trkpt lat="45.14569" lon="11.644495"><ele>6.0</ele><time>2026-05-01T09:46:59.426Z</time></trkpt><trkpt lat="45.1455683" lon="11.6444717"><ele>6.0</ele><time>2026-05-01T09:47:01.416Z</time></trkpt><trkpt lat="45.145455" lon="11.64445"><ele>6.0</ele><time>2026-05-01T09:47:03.428Z</time></trkpt><trkpt lat="45.1453483" lon="11.6444267"><ele>6.0</ele><time>2026-05-01T09:47:05.428Z</time></trkpt><trkpt lat="45.145245" lon="11.6444017"><ele>6.0</ele><time>2026-05-01T09:47:07.405Z</time></trkpt><trkpt lat="45.145145" lon="11.6443717"><ele>6.0</ele><time>2026-05-01T09:47:09.413Z</time></trkpt><trkpt lat="45.14505" lon="11.64433"><ele>6.0</ele><time>2026-05-01T09:47:11.409Z</time></trkpt><trkpt lat="45.1449567" lon="11.6442917"><ele>6.0</ele><time>2026-05-01T09:47:13.429Z</time></trkpt><trkpt lat="45.1448567" lon="11.6442467"><ele>5.8</ele><time>2026-05-01T09:47:15.432Z</time></trkpt><trkpt lat="45.144755" lon="11.6441967"><ele>5.6</ele><time>2026-05-01T09:47:17.417Z</time></trkpt><trkpt lat="45.1446517" lon="11.6441433"><ele>5.4</ele><time>2026-05-01T09:47:19.428Z</time></trkpt><trkpt lat="45.1445433" lon="11.644085"><ele>5.2</ele><time>2026-05-01T09:47:21.426Z</time></trkpt><trkpt lat="45.1444367" lon="11.6440333"><ele>5.0</ele><time>2026-05-01T09:47:23.403Z</time></trkpt><trkpt lat="45.1443317" lon="11.6439783"><ele>5.0</ele><time>2026-05-01T09:47:25.428Z</time></trkpt><trkpt lat="45.1442233" lon="11.643925"><ele>5.0</ele><time>2026-05-01T09:47:27.422Z</time></trkpt><trkpt lat="45.1441117" lon="11.6438633"><ele>5.0</ele><time>2026-05-01T09:47:29.428Z</time></trkpt><trkpt lat="45.1440017" lon="11.6438017"><ele>5.0</ele><time>2026-05-01T09:47:31.428Z</time></trkpt><trkpt lat="45.1438883" lon="11.643745"><ele>5.0</ele><time>2026-05-01T09:47:33.398Z</time></trkpt><trkpt lat="45.14378" lon="11.6436883"><ele>5.0</ele><time>2026-05-01T09:47:35.403Z</time></trkpt><trkpt lat="45.1436667" lon="11.643635"><ele>5.0</ele><time>2026-05-01T09:47:37.412Z</time></trkpt><trkpt lat="45.1435567" lon="11.6435767"><ele>5.0</ele><time>2026-05-01T09:47:39.426Z</time></trkpt><trkpt lat="45.1434467" lon="11.643525"><ele>5.2</ele><time>2026-05-01T09:47:41.428Z</time></trkpt><trkpt lat="45.143335" lon="11.6434733"><ele>5.4</ele><time>2026-05-01T09:47:43.428Z</time></trkpt><trkpt lat="45.14322" lon="11.6434167"><ele>5.6</ele><time>2026-05-01T09:47:45.416Z</time></trkpt><trkpt lat="45.1431017" lon="11.6433567"><ele>5.8</ele><time>2026-05-01T09:47:47.43Z</time></trkpt><trkpt lat="45.14304" lon="11.643325"><ele>6.0</ele><time>2026-05-01T09:47:48.404Z</time></trkpt><trkpt lat="45.1429783" lon="11.6432933"><ele>6.0</ele><time>2026-05-01T09:47:49.42Z</time></trkpt><trkpt lat="45.1429183" lon="11.64326"><ele>6.0</ele><time>2026-05-01T09:47:50.429Z</time></trkpt><trkpt lat="45.1427983" lon="11.6431917"><ele>6.0</ele><time>2026-05-01T09:47:52.407Z</time></trkpt><trkpt lat="45.142735" lon="11.64316"><ele>6.0</ele><time>2026-05-01T09:47:53.411Z</time></trkpt><trkpt lat="45.142675" lon="11.6431267"><ele>6.0</ele><time>2026-05-01T09:47:54.419Z</time></trkpt><trkpt lat="45.1426133" lon="11.6430917"><ele>6.0</ele><time>2026-05-01T09:47:55.429Z</time></trkpt><trkpt lat="45.14255" lon="11.64306"><ele>6.0</ele><time>2026-05-01T09:47:56.429Z</time></trkpt><trkpt lat="45.1424867" lon="11.6430333"><ele>6.0</ele><time>2026-05-01T09:47:57.428Z</time></trkpt><trkpt lat="45.1424233" lon="11.6430117"><ele>6.0</ele><time>2026-05-01T09:47:58.414Z</time></trkpt><trkpt lat="45.1423033" lon="11.6429667"><ele>6.0</ele><time>2026-05-01T09:48:00.43Z</time></trkpt><trkpt lat="45.14219" lon="11.6429033"><ele>6.0</ele><time>2026-05-01T09:48:02.433Z</time></trkpt><trkpt lat="45.142085" lon="11.6428467"><ele>5.75</ele><time>2026-05-01T09:48:04.404Z</time></trkpt><trkpt lat="45.1419733" lon="11.64278"><ele>5.5</ele><time>2026-05-01T09:48:06.427Z</time></trkpt><trkpt lat="45.1418633" lon="11.6427"><ele>5.25</ele><time>2026-05-01T09:48:08.427Z</time></trkpt><trkpt lat="45.1417517" lon="11.6426317"><ele>5.0</ele><time>2026-05-01T09:48:10.417Z</time></trkpt><trkpt lat="45.1416383" lon="11.642615"><ele>5.0</ele><time>2026-05-01T09:48:12.427Z</time></trkpt><trkpt lat="45.141525" lon="11.6426667"><ele>5.0</ele><time>2026-05-01T09:48:14.432Z</time></trkpt><trkpt lat="45.1414667" lon="11.642705"><ele>5.0</ele><time>2026-05-01T09:48:15.427Z</time></trkpt><trkpt lat="45.1414033" lon="11.6427383"><ele>5.0</ele><time>2026-05-01T09:48:16.43Z</time></trkpt><trkpt lat="45.14128" lon="11.6427883"><ele>5.0</ele><time>2026-05-01T09:48:18.42Z</time></trkpt><trkpt lat="45.1412167" lon="11.6428133"><ele>5.0</ele><time>2026-05-01T09:48:19.428Z</time></trkpt><trkpt lat="45.1411533" lon="11.6428383"><ele>5.142857142857142</ele><time>2026-05-01T09:48:20.407Z</time></trkpt><trkpt lat="45.1410883" lon="11.6428633"><ele>5.285714285714286</ele><time>2026-05-01T09:48:21.436Z</time></trkpt><trkpt lat="45.1410267" lon="11.64289"><ele>5.428571428571429</ele><time>2026-05-01T09:48:22.429Z</time></trkpt><trkpt lat="45.140965" lon="11.6429233"><ele>5.571428571428571</ele><time>2026-05-01T09:48:23.429Z</time></trkpt><trkpt lat="45.1409067" lon="11.6429583"><ele>5.714285714285714</ele><time>2026-05-01T09:48:24.423Z</time></trkpt><trkpt lat="45.1408483" lon="11.6429983"><ele>5.857142857142857</ele><time>2026-05-01T09:48:25.431Z</time></trkpt><trkpt lat="45.1407883" lon="11.64304"><ele>6.0</ele><time>2026-05-01T09:48:26.424Z</time></trkpt><trkpt lat="45.14073" lon="11.6430833"><ele>5.8</ele><time>2026-05-01T09:48:27.43Z</time></trkpt><trkpt lat="45.1406733" lon="11.6431283"><ele>5.6</ele><time>2026-05-01T09:48:28.412Z</time></trkpt><trkpt lat="45.1406167" lon="11.6431717"><ele>5.4</ele><time>2026-05-01T09:48:29.423Z</time></trkpt><trkpt lat="45.1405083" lon="11.6432567"><ele>5.2</ele><time>2026-05-01T09:48:31.424Z</time></trkpt><trkpt lat="45.1403967" lon="11.6433367"><ele>5.0</ele><time>2026-05-01T09:48:33.426Z</time></trkpt><trkpt lat="45.1402767" lon="11.6433933"><ele>5.0</ele><time>2026-05-01T09:48:35.425Z</time></trkpt><trkpt lat="45.1402133" lon="11.6434133"><ele>5.0</ele><time>2026-05-01T09:48:36.405Z</time></trkpt><trkpt lat="45.14009" lon="11.6434283"><ele>5.0</ele><time>2026-05-01T09:48:38.431Z</time></trkpt><trkpt lat="45.1400233" lon="11.6434267"><ele>5.0</ele><time>2026-05-01T09:48:39.432Z</time></trkpt><trkpt lat="45.13996" lon="11.6434267"><ele>5.0</ele><time>2026-05-01T09:48:40.427Z</time></trkpt><trkpt lat="45.1398933" lon="11.6434283"><ele>5.0</ele><time>2026-05-01T09:48:41.433Z</time></trkpt><trkpt lat="45.1398283" lon="11.6434317"><ele>5.125</ele><time>2026-05-01T09:48:42.428Z</time></trkpt><trkpt lat="45.139765" lon="11.6434367"><ele>5.25</ele><time>2026-05-01T09:48:43.433Z</time></trkpt><trkpt lat="45.1397" lon="11.6434383"><ele>5.375</ele><time>2026-05-01T09:48:44.422Z</time></trkpt><trkpt lat="45.1396367" lon="11.6434433"><ele>5.5</ele><time>2026-05-01T09:48:45.423Z</time></trkpt><trkpt lat="45.1395733" lon="11.64345"><ele>5.625</ele><time>2026-05-01T09:48:46.43Z</time></trkpt><trkpt lat="45.13951" lon="11.6434567"><ele>5.75</ele><time>2026-05-01T09:48:47.422Z</time></trkpt><trkpt lat="45.139445" lon="11.643465"><ele>5.875</ele><time>2026-05-01T09:48:48.431Z</time></trkpt><trkpt lat="45.1393817" lon="11.6434767"><ele>6.0</ele><time>2026-05-01T09:48:49.428Z</time></trkpt><trkpt lat="45.1393167" lon="11.6434933"><ele>6.0</ele><time>2026-05-01T09:48:50.43Z</time></trkpt><trkpt lat="45.1392533" lon="11.6435117"><ele>6.0</ele><time>2026-05-01T09:48:51.429Z</time></trkpt><trkpt lat="45.13919" lon="11.64353"><ele>6.0</ele><time>2026-05-01T09:48:52.4Z</time></trkpt><trkpt lat="45.1391267" lon="11.6435517"><ele>6.0</ele><time>2026-05-01T09:48:53.395Z</time></trkpt><trkpt lat="45.1390633" lon="11.6435767"><ele>6.0</ele><time>2026-05-01T09:48:54.431Z</time></trkpt><trkpt lat="45.1389467" lon="11.6436267"><ele>6.0</ele><time>2026-05-01T09:48:56.402Z</time></trkpt><trkpt lat="45.1388317" lon="11.6436783"><ele>5.857142857142857</ele><time>2026-05-01T09:48:58.394Z</time></trkpt><trkpt lat="45.13877" lon="11.6437067"><ele>5.714285714285714</ele><time>2026-05-01T09:48:59.423Z</time></trkpt><trkpt lat="45.13871" lon="11.6437383"><ele>5.571428571428571</ele><time>2026-05-01T09:49:00.418Z</time></trkpt><trkpt lat="45.1386483" lon="11.6437633"><ele>5.428571428571429</ele><time>2026-05-01T09:49:01.407Z</time></trkpt><trkpt lat="45.138585" lon="11.64379"><ele>5.285714285714286</ele><time>2026-05-01T09:49:02.413Z</time></trkpt><trkpt lat="45.13852" lon="11.6438133"><ele>5.142857142857142</ele><time>2026-05-01T09:49:03.425Z</time></trkpt><trkpt lat="45.138455" lon="11.64383"><ele>5.0</ele><time>2026-05-01T09:49:04.404Z</time></trkpt><trkpt lat="45.1383917" lon="11.6438367"><ele>5.0</ele><time>2026-05-01T09:49:05.43Z</time></trkpt><trkpt lat="45.1383267" lon="11.6438417"><ele>5.0</ele><time>2026-05-01T09:49:06.42Z</time></trkpt><trkpt lat="45.1382633" lon="11.643845"><ele>5.0</ele><time>2026-05-01T09:49:07.438Z</time></trkpt><trkpt lat="45.1381967" lon="11.6438467"><ele>5.0</ele><time>2026-05-01T09:49:08.409Z</time></trkpt><trkpt lat="45.13813" lon="11.643845"><ele>5.0</ele><time>2026-05-01T09:49:09.453Z</time></trkpt><trkpt lat="45.138065" lon="11.6438417"><ele>5.0</ele><time>2026-05-01T09:49:10.422Z</time></trkpt><trkpt lat="45.138" lon="11.64384"><ele>5.0</ele><time>2026-05-01T09:49:11.43Z</time></trkpt><trkpt lat="45.1379333" lon="11.643835"><ele>4.833333333333334</ele><time>2026-05-01T09:49:12.433Z</time></trkpt><trkpt lat="45.1378667" lon="11.64383"><ele>4.666666666666667</ele><time>2026-05-01T09:49:13.429Z</time></trkpt><trkpt lat="45.1378033" lon="11.6438267"><ele>4.5</ele><time>2026-05-01T09:49:14.396Z</time></trkpt><trkpt lat="45.13768" lon="11.64382"><ele>4.333333333333333</ele><time>2026-05-01T09:49:16.436Z</time></trkpt><trkpt lat="45.1375533" lon="11.64382"><ele>4.166666666666666</ele><time>2026-05-01T09:49:18.422Z</time></trkpt><trkpt lat="45.13749" lon="11.6438183"><ele>4.0</ele><time>2026-05-01T09:49:19.428Z</time></trkpt><trkpt lat="45.1374267" lon="11.6438167"><ele>3.8571428571428568</ele><time>2026-05-01T09:49:20.427Z</time></trkpt><trkpt lat="45.1373633" lon="11.6438183"><ele>3.714285714285714</ele><time>2026-05-01T09:49:21.43Z</time></trkpt><trkpt lat="45.1372983" lon="11.6438167"><ele>3.571428571428571</ele><time>2026-05-01T09:49:22.399Z</time></trkpt><trkpt lat="45.137235" lon="11.643815"><ele>3.4285714285714284</ele><time>2026-05-01T09:49:23.422Z</time></trkpt><trkpt lat="45.13717" lon="11.643815"><ele>3.2857142857142856</ele><time>2026-05-01T09:49:24.41Z</time></trkpt><trkpt lat="45.1371067" lon="11.6438217"><ele>3.1428571428571423</ele><time>2026-05-01T09:49:25.438Z</time></trkpt><trkpt lat="45.1370433" lon="11.64383"><ele>3.0</ele><time>2026-05-01T09:49:26.43Z</time></trkpt><trkpt lat="45.1369233" lon="11.64385"><ele>3.0</ele><time>2026-05-01T09:49:28.427Z</time></trkpt><trkpt lat="45.1368033" lon="11.6438783"><ele>3.0</ele><time>2026-05-01T09:49:30.425Z</time></trkpt><trkpt lat="45.1367417" lon="11.6438967"><ele>3.0</ele><time>2026-05-01T09:49:31.392Z</time></trkpt><trkpt lat="45.13668" lon="11.6439167"><ele>3.0</ele><time>2026-05-01T09:49:32.431Z</time></trkpt><trkpt lat="45.1366183" lon="11.6439467"><ele>3.0</ele><time>2026-05-01T09:49:33.43Z</time></trkpt><trkpt lat="45.1365583" lon="11.6439783"><ele>3.0</ele><time>2026-05-01T09:49:34.429Z</time></trkpt><trkpt lat="45.1364417" lon="11.6440467"><ele>3.25</ele><time>2026-05-01T09:49:36.433Z</time></trkpt><trkpt lat="45.1363283" lon="11.644125"><ele>3.5</ele><time>2026-05-01T09:49:38.431Z</time></trkpt><trkpt lat="45.13622" lon="11.64421"><ele>3.75</ele><time>2026-05-01T09:49:40.402Z</time></trkpt><trkpt lat="45.13612" lon="11.64431"><ele>4.0</ele><time>2026-05-01T09:49:42.432Z</time></trkpt><trkpt lat="45.136025" lon="11.6444083"><ele>4.0</ele><time>2026-05-01T09:49:44.428Z</time></trkpt><trkpt lat="45.1359383" lon="11.64451"><ele>4.0</ele><time>2026-05-01T09:49:46.431Z</time></trkpt><trkpt lat="45.135855" lon="11.6446233"><ele>4.0</ele><time>2026-05-01T09:49:48.432Z</time></trkpt><trkpt lat="45.1357733" lon="11.6447533"><ele>4.0</ele><time>2026-05-01T09:49:50.454Z</time></trkpt><trkpt lat="45.1357317" lon="11.644825"><ele>4.0</ele><time>2026-05-01T09:49:51.444Z</time></trkpt><trkpt lat="45.1356883" lon="11.6448983"><ele>4.2</ele><time>2026-05-01T09:49:52.419Z</time></trkpt><trkpt lat="45.135645" lon="11.6449717"><ele>4.4</ele><time>2026-05-01T09:49:53.428Z</time></trkpt><trkpt lat="45.1356033" lon="11.6450417"><ele>4.6</ele><time>2026-05-01T09:49:54.43Z</time></trkpt><trkpt lat="45.1355283" lon="11.645175"><ele>4.8</ele><time>2026-05-01T09:49:56.404Z</time></trkpt><trkpt lat="45.1354517" lon="11.6453117"><ele>5.0</ele><time>2026-05-01T09:49:58.424Z</time></trkpt><trkpt lat="45.1353767" lon="11.6454467"><ele>5.0</ele><time>2026-05-01T09:50:00.404Z</time></trkpt><trkpt lat="45.1353017" lon="11.6455867"><ele>5.0</ele><time>2026-05-01T09:50:02.401Z</time></trkpt><trkpt lat="45.1352633" lon="11.6456583"><ele>5.0</ele><time>2026-05-01T09:50:03.437Z</time></trkpt><trkpt lat="45.135185" lon="11.6457817"><ele>5.0</ele><time>2026-05-01T09:50:05.465Z</time></trkpt><trkpt lat="45.1351533" lon="11.6458633"><ele>5.0</ele><time>2026-05-01T09:50:06.462Z</time></trkpt><trkpt lat="45.13512" lon="11.64594"><ele>5.0</ele><time>2026-05-01T09:50:07.44Z</time></trkpt><trkpt lat="45.1350817" lon="11.6460117"><ele>5.0</ele><time>2026-05-01T09:50:08.401Z</time></trkpt><trkpt lat="45.1350433" lon="11.646085"><ele>5.0</ele><time>2026-05-01T09:50:09.389Z</time></trkpt><trkpt lat="45.13498" lon="11.6462117"><ele>5.0</ele><time>2026-05-01T09:50:11.392Z</time></trkpt><trkpt lat="45.1349283" lon="11.6463583"><ele>5.0</ele><time>2026-05-01T09:50:13.394Z</time></trkpt><trkpt lat="45.1348883" lon="11.6465133"><ele>5.0</ele><time>2026-05-01T09:50:15.395Z</time></trkpt><trkpt lat="45.13486" lon="11.6466683"><ele>5.25</ele><time>2026-05-01T09:50:17.382Z</time></trkpt><trkpt lat="45.134825" lon="11.6468267"><ele>5.5</ele><time>2026-05-01T09:50:19.412Z</time></trkpt><trkpt lat="45.1347983" lon="11.6469867"><ele>5.75</ele><time>2026-05-01T09:50:21.395Z</time></trkpt><trkpt lat="45.1347683" lon="11.6471467"><ele>6.0</ele><time>2026-05-01T09:50:23.396Z</time></trkpt><trkpt lat="45.1347333" lon="11.6473167"><ele>6.0</ele><time>2026-05-01T09:50:25.395Z</time></trkpt><trkpt lat="45.1347033" lon="11.647485"><ele>6.0</ele><time>2026-05-01T09:50:27.397Z</time></trkpt><trkpt lat="45.13467" lon="11.6476433"><ele>6.0</ele><time>2026-05-01T09:50:29.426Z</time></trkpt><trkpt lat="45.1346233" lon="11.6478033"><ele>6.0</ele><time>2026-05-01T09:50:31.385Z</time></trkpt><trkpt lat="45.134555" lon="11.6479517"><ele>5.75</ele><time>2026-05-01T09:50:33.396Z</time></trkpt><trkpt lat="45.1344867" lon="11.6480917"><ele>5.5</ele><time>2026-05-01T09:50:35.391Z</time></trkpt><trkpt lat="45.1344133" lon="11.6482183"><ele>5.25</ele><time>2026-05-01T09:50:37.385Z</time></trkpt><trkpt lat="45.134335" lon="11.6483417"><ele>5.0</ele><time>2026-05-01T09:50:39.403Z</time></trkpt><trkpt lat="45.1342533" lon="11.64846"><ele>5.0</ele><time>2026-05-01T09:50:41.383Z</time></trkpt><trkpt lat="45.13418" lon="11.64859"><ele>5.0</ele><time>2026-05-01T09:50:43.389Z</time></trkpt><trkpt lat="45.1341133" lon="11.648715"><ele>5.0</ele><time>2026-05-01T09:50:45.396Z</time></trkpt><trkpt lat="45.134045" lon="11.6488367"><ele>5.0</ele><time>2026-05-01T09:50:47.394Z</time></trkpt><trkpt lat="45.1339917" lon="11.6489567"><ele>5.0</ele><time>2026-05-01T09:50:49.388Z</time></trkpt><trkpt lat="45.1339383" lon="11.6490683"><ele>5.0</ele><time>2026-05-01T09:50:51.387Z</time></trkpt><trkpt lat="45.13389" lon="11.6491733"><ele>5.0</ele><time>2026-05-01T09:50:53.38Z</time></trkpt><trkpt lat="45.1338433" lon="11.6492733"><ele>5.0</ele><time>2026-05-01T09:50:55.385Z</time></trkpt><trkpt lat="45.1337933" lon="11.6493667"><ele>5.0</ele><time>2026-05-01T09:50:57.385Z</time></trkpt><trkpt lat="45.13374" lon="11.6494517"><ele>5.0</ele><time>2026-05-01T09:50:59.38Z</time></trkpt><trkpt lat="45.1336817" lon="11.6495183"><ele>5.0</ele><time>2026-05-01T09:51:01.386Z</time></trkpt><trkpt lat="45.1336117" lon="11.6495683"><ele>5.0</ele><time>2026-05-01T09:51:03.425Z</time></trkpt><trkpt lat="45.1335333" lon="11.6495983"><ele>5.0</ele><time>2026-05-01T09:51:05.397Z</time></trkpt><trkpt lat="45.1334567" lon="11.649615"><ele>5.0</ele><time>2026-05-01T09:51:07.393Z</time></trkpt><trkpt lat="45.1333883" lon="11.6496117"><ele>5.0</ele><time>2026-05-01T09:51:09.402Z</time></trkpt><trkpt lat="45.133315" lon="11.6495967"><ele>5.0</ele><time>2026-05-01T09:51:11.378Z</time></trkpt><trkpt lat="45.1332433" lon="11.6495883"><ele>5.0</ele><time>2026-05-01T09:51:13.384Z</time></trkpt><trkpt lat="45.1331617" lon="11.64956"><ele>5.0</ele><time>2026-05-01T09:51:15.408Z</time></trkpt><trkpt lat="45.1330683" lon="11.6495383"><ele>5.0</ele><time>2026-05-01T09:51:17.412Z</time></trkpt><trkpt lat="45.1329717" lon="11.64951"><ele>5.0</ele><time>2026-05-01T09:51:19.388Z</time></trkpt><trkpt lat="45.1328683" lon="11.6494783"><ele>5.0</ele><time>2026-05-01T09:51:21.382Z</time></trkpt><trkpt lat="45.1327633" lon="11.6494483"><ele>5.0</ele><time>2026-05-01T09:51:23.383Z</time></trkpt><trkpt lat="45.13266" lon="11.6494217"><ele>5.166666666666667</ele><time>2026-05-01T09:51:25.426Z</time></trkpt><trkpt lat="45.1325567" lon="11.64939"><ele>5.333333333333334</ele><time>2026-05-01T09:51:27.4Z</time></trkpt><trkpt lat="45.1324583" lon="11.6494033"><ele>5.5</ele><time>2026-05-01T09:51:29.436Z</time></trkpt><trkpt lat="45.1323483" lon="11.6493783"><ele>5.666666666666667</ele><time>2026-05-01T09:51:31.393Z</time></trkpt><trkpt lat="45.132285" lon="11.649355"><ele>5.833333333333333</ele><time>2026-05-01T09:51:32.388Z</time></trkpt><trkpt lat="45.1322233" lon="11.649335"><ele>6.0</ele><time>2026-05-01T09:51:33.385Z</time></trkpt><trkpt lat="45.1321617" lon="11.649315"><ele>5.571428571428571</ele><time>2026-05-01T09:51:34.384Z</time></trkpt><trkpt lat="45.1320983" lon="11.649295"><ele>5.142857142857142</ele><time>2026-05-01T09:51:35.383Z</time></trkpt><trkpt lat="45.1320333" lon="11.649275"><ele>4.7142857142857135</ele><time>2026-05-01T09:51:36.384Z</time></trkpt><trkpt lat="45.131965" lon="11.649255"><ele>4.285714285714286</ele><time>2026-05-01T09:51:37.423Z</time></trkpt><trkpt lat="45.1318967" lon="11.649235"><ele>3.8571428571428568</ele><time>2026-05-01T09:51:38.436Z</time></trkpt><trkpt lat="45.1318283" lon="11.649215"><ele>3.4285714285714284</ele><time>2026-05-01T09:51:39.431Z</time></trkpt><trkpt lat="45.13176" lon="11.6491967"><ele>3.0</ele><time>2026-05-01T09:51:40.428Z</time></trkpt><trkpt lat="45.13169" lon="11.6491767"><ele>2.9999999999999996</ele><time>2026-05-01T09:51:41.422Z</time></trkpt><trkpt lat="45.13162" lon="11.649155"><ele>3.0</ele><time>2026-05-01T09:51:42.432Z</time></trkpt><trkpt lat="45.13155" lon="11.6491367"><ele>3.0</ele><time>2026-05-01T09:51:43.429Z</time></trkpt><trkpt lat="45.1314783" lon="11.6491183"><ele>3.0</ele><time>2026-05-01T09:51:44.434Z</time></trkpt><trkpt lat="45.131405" lon="11.6490983"><ele>3.0</ele><time>2026-05-01T09:51:45.416Z</time></trkpt><trkpt lat="45.131335" lon="11.6490767"><ele>2.9999999999999996</ele><time>2026-05-01T09:51:46.43Z</time></trkpt><trkpt lat="45.131265" lon="11.6490567"><ele>3.0</ele><time>2026-05-01T09:51:47.398Z</time></trkpt><trkpt lat="45.1311933" lon="11.6490367"><ele>3.1428571428571423</ele><time>2026-05-01T09:51:48.42Z</time></trkpt><trkpt lat="45.1311217" lon="11.6490167"><ele>3.2857142857142856</ele><time>2026-05-01T09:51:49.427Z</time></trkpt><trkpt lat="45.1310483" lon="11.6489967"><ele>3.4285714285714284</ele><time>2026-05-01T09:51:50.425Z</time></trkpt><trkpt lat="45.130975" lon="11.648975"><ele>3.571428571428571</ele><time>2026-05-01T09:51:51.402Z</time></trkpt><trkpt lat="45.1309033" lon="11.6489533"><ele>3.714285714285714</ele><time>2026-05-01T09:51:52.396Z</time></trkpt><trkpt lat="45.1308317" lon="11.6489333"><ele>3.8571428571428568</ele><time>2026-05-01T09:51:53.379Z</time></trkpt><trkpt lat="45.1307583" lon="11.648915"><ele>4.0</ele><time>2026-05-01T09:51:54.464Z</time></trkpt><trkpt lat="45.1306833" lon="11.648905"><ele>3.9999999999999996</ele><time>2026-05-01T09:51:55.485Z</time></trkpt><trkpt lat="45.1306183" lon="11.6488967"><ele>4.0</ele><time>2026-05-01T09:51:56.433Z</time></trkpt><trkpt lat="45.13055" lon="11.64888"><ele>4.0</ele><time>2026-05-01T09:51:57.472Z</time></trkpt><trkpt lat="45.13048" lon="11.6488517"><ele>4.0</ele><time>2026-05-01T09:51:58.378Z</time></trkpt><trkpt lat="45.13041" lon="11.6488267"><ele>3.9999999999999996</ele><time>2026-05-01T09:51:59.392Z</time></trkpt><trkpt lat="45.1303467" lon="11.6488183"><ele>4.0</ele><time>2026-05-01T09:52:00.391Z</time></trkpt><trkpt lat="45.1302283" lon="11.6487817"><ele>4.0</ele><time>2026-05-01T09:52:02.392Z</time></trkpt><trkpt lat="45.1301167" lon="11.6487433"><ele>4.0</ele><time>2026-05-01T09:52:04.391Z</time></trkpt><trkpt lat="45.1300083" lon="11.64871"><ele>4.0</ele><time>2026-05-01T09:52:06.407Z</time></trkpt><trkpt lat="45.1298867" lon="11.6486783"><ele>4.0</ele><time>2026-05-01T09:52:08.393Z</time></trkpt><trkpt lat="45.1297683" lon="11.6486467"><ele>4.0</ele><time>2026-05-01T09:52:10.385Z</time></trkpt><trkpt lat="45.1296533" lon="11.6486167"><ele>4.0</ele><time>2026-05-01T09:52:12.382Z</time></trkpt><trkpt lat="45.1295333" lon="11.64858"><ele>4.0</ele><time>2026-05-01T09:52:14.397Z</time></trkpt><trkpt lat="45.1294183" lon="11.648545"><ele>4.0</ele><time>2026-05-01T09:52:16.398Z</time></trkpt><trkpt lat="45.1293033" lon="11.648515"><ele>4.0</ele><time>2026-05-01T09:52:18.381Z</time></trkpt><trkpt lat="45.12919" lon="11.6484917"><ele>4.0</ele><time>2026-05-01T09:52:20.38Z</time></trkpt><trkpt lat="45.1290817" lon="11.6484717"><ele>4.0</ele><time>2026-05-01T09:52:22.383Z</time></trkpt><trkpt lat="45.128975" lon="11.6484617"><ele>4.0</ele><time>2026-05-01T09:52:24.379Z</time></trkpt><trkpt lat="45.1288717" lon="11.64846"><ele>4.0</ele><time>2026-05-01T09:52:26.378Z</time></trkpt><trkpt lat="45.1287717" lon="11.6484467"><ele>5.0</ele><time>2026-05-01T09:52:28.382Z</time></trkpt><trkpt lat="45.128675" lon="11.64841"><ele>6.0</ele><time>2026-05-01T09:52:30.382Z</time></trkpt><trkpt lat="45.1285883" lon="11.64835"><ele>7.0</ele><time>2026-05-01T09:52:32.385Z</time></trkpt><trkpt lat="45.1285117" lon="11.6482683"><ele>8.0</ele><time>2026-05-01T09:52:34.384Z</time></trkpt><trkpt lat="45.1284433" lon="11.6481717"><ele>9.0</ele><time>2026-05-01T09:52:36.377Z</time></trkpt><trkpt lat="45.1283917" lon="11.648055"><ele>9.0</ele><time>2026-05-01T09:52:38.43Z</time></trkpt><trkpt lat="45.1283483" lon="11.6479333"><ele>9.0</ele><time>2026-05-01T09:52:40.403Z</time></trkpt><trkpt lat="45.12831" lon="11.647795"><ele>9.0</ele><time>2026-05-01T09:52:42.415Z</time></trkpt><trkpt lat="45.1282683" lon="11.647645"><ele>9.0</ele><time>2026-05-01T09:52:44.383Z</time></trkpt><trkpt lat="45.1282217" lon="11.6474983"><ele>9.0</ele><time>2026-05-01T09:52:46.382Z</time></trkpt><trkpt lat="45.128175" lon="11.6473533"><ele>8.5</ele><time>2026-05-01T09:52:48.383Z</time></trkpt><trkpt lat="45.128125" lon="11.6472083"><ele>8.0</ele><time>2026-05-01T09:52:50.384Z</time></trkpt><trkpt lat="45.128065" lon="11.647075"><ele>7.5</ele><time>2026-05-01T09:52:52.38Z</time></trkpt><trkpt lat="45.1279917" lon="11.6469583"><ele>7.0</ele><time>2026-05-01T09:52:54.39Z</time></trkpt><trkpt lat="45.1279017" lon="11.646855"><ele>7.0</ele><time>2026-05-01T09:52:56.383Z</time></trkpt><trkpt lat="45.1278" lon="11.6467717"><ele>6.999999999999999</ele><time>2026-05-01T09:52:58.386Z</time></trkpt><trkpt lat="45.12769" lon="11.6467133"><ele>6.999999999999999</ele><time>2026-05-01T09:53:00.382Z</time></trkpt><trkpt lat="45.1275867" lon="11.646675"><ele>7.0</ele><time>2026-05-01T09:53:02.388Z</time></trkpt><trkpt lat="45.1274883" lon="11.6466533"><ele>7.0</ele><time>2026-05-01T09:53:04.384Z</time></trkpt><trkpt lat="45.127385" lon="11.64664"><ele>6.8</ele><time>2026-05-01T09:53:06.384Z</time></trkpt><trkpt lat="45.12728" lon="11.6466383"><ele>6.6</ele><time>2026-05-01T09:53:08.384Z</time></trkpt><trkpt lat="45.1271717" lon="11.6466317"><ele>6.3999999999999995</ele><time>2026-05-01T09:53:10.383Z</time></trkpt><trkpt lat="45.12706" lon="11.6466183"><ele>6.199999999999999</ele><time>2026-05-01T09:53:12.384Z</time></trkpt><trkpt lat="45.1269517" lon="11.6465967"><ele>6.0</ele><time>2026-05-01T09:53:14.389Z</time></trkpt><trkpt lat="45.126845" lon="11.6465567"><ele>6.0</ele><time>2026-05-01T09:53:16.43Z</time></trkpt><trkpt lat="45.1267467" lon="11.6465"><ele>6.0</ele><time>2026-05-01T09:53:18.426Z</time></trkpt><trkpt lat="45.1266533" lon="11.6464367"><ele>6.0</ele><time>2026-05-01T09:53:20.401Z</time></trkpt><trkpt lat="45.1265667" lon="11.6463833"><ele>6.0</ele><time>2026-05-01T09:53:22.405Z</time></trkpt><trkpt lat="45.1264767" lon="11.646345"><ele>6.0</ele><time>2026-05-01T09:53:24.422Z</time></trkpt><trkpt lat="45.12639" lon="11.646325"><ele>6.199999999999999</ele><time>2026-05-01T09:53:26.43Z</time></trkpt><trkpt lat="45.1263033" lon="11.64631"><ele>6.3999999999999995</ele><time>2026-05-01T09:53:28.429Z</time></trkpt><trkpt lat="45.1262133" lon="11.6462933"><ele>6.6</ele><time>2026-05-01T09:53:30.395Z</time></trkpt><trkpt lat="45.1261167" lon="11.6462617"><ele>6.8</ele><time>2026-05-01T09:53:32.425Z</time></trkpt><trkpt lat="45.126025" lon="11.6462433"><ele>7.0</ele><time>2026-05-01T09:53:34.444Z</time></trkpt><trkpt lat="45.1259217" lon="11.64626"><ele>7.0</ele><time>2026-05-01T09:53:36.393Z</time></trkpt><trkpt lat="45.1258283" lon="11.646295"><ele>6.999999999999999</ele><time>2026-05-01T09:53:38.394Z</time></trkpt><trkpt lat="45.1257283" lon="11.6463533"><ele>6.999999999999999</ele><time>2026-05-01T09:53:40.396Z</time></trkpt><trkpt lat="45.12562" lon="11.646415"><ele>7.0</ele><time>2026-05-01T09:53:42.399Z</time></trkpt><trkpt lat="45.1255233" lon="11.6464767"><ele>7.0</ele><time>2026-05-01T09:53:44.435Z</time></trkpt><trkpt lat="45.1254167" lon="11.64653"><ele>7.0</ele><time>2026-05-01T09:53:46.426Z</time></trkpt><trkpt lat="45.12531" lon="11.6465917"><ele>7.0</ele><time>2026-05-01T09:53:48.426Z</time></trkpt><trkpt lat="45.1252067" lon="11.646655"><ele>7.0</ele><time>2026-05-01T09:53:50.427Z</time></trkpt><trkpt lat="45.1251" lon="11.6467167"><ele>7.0</ele><time>2026-05-01T09:53:52.419Z</time></trkpt><trkpt lat="45.1249933" lon="11.6467717"><ele>6.75</ele><time>2026-05-01T09:53:54.405Z</time></trkpt><trkpt lat="45.1248883" lon="11.6468267"><ele>6.5</ele><time>2026-05-01T09:53:56.429Z</time></trkpt><trkpt lat="45.1247783" lon="11.6468783"><ele>6.25</ele><time>2026-05-01T09:53:58.428Z</time></trkpt><trkpt lat="45.124665" lon="11.6469217"><ele>6.0</ele><time>2026-05-01T09:54:00.414Z</time></trkpt><trkpt lat="45.124555" lon="11.6469617"><ele>5.75</ele><time>2026-05-01T09:54:02.425Z</time></trkpt><trkpt lat="45.1244433" lon="11.647005"><ele>5.5</ele><time>2026-05-01T09:54:04.391Z</time></trkpt><trkpt lat="45.1243333" lon="11.6470433"><ele>5.25</ele><time>2026-05-01T09:54:06.435Z</time></trkpt><trkpt lat="45.1242233" lon="11.6470783"><ele>5.0</ele><time>2026-05-01T09:54:08.419Z</time></trkpt><trkpt lat="45.1241133" lon="11.6471133"><ele>5.25</ele><time>2026-05-01T09:54:10.392Z</time></trkpt><trkpt lat="45.124" lon="11.6471483"><ele>5.5</ele><time>2026-05-01T09:54:12.429Z</time></trkpt><trkpt lat="45.1238933" lon="11.6471833"><ele>5.75</ele><time>2026-05-01T09:54:14.416Z</time></trkpt><trkpt lat="45.1237833" lon="11.647215"><ele>6.0</ele><time>2026-05-01T09:54:16.426Z</time></trkpt><trkpt lat="45.1236717" lon="11.6472417"><ele>6.0</ele><time>2026-05-01T09:54:18.402Z</time></trkpt><trkpt lat="45.123555" lon="11.6472683"><ele>6.0</ele><time>2026-05-01T09:54:20.419Z</time></trkpt><trkpt lat="45.1234383" lon="11.6472967"><ele>6.0</ele><time>2026-05-01T09:54:22.427Z</time></trkpt><trkpt lat="45.1233217" lon="11.6473117"><ele>6.0</ele><time>2026-05-01T09:54:24.425Z</time></trkpt><trkpt lat="45.123205" lon="11.6473367"><ele>6.199999999999999</ele><time>2026-05-01T09:54:26.394Z</time></trkpt><trkpt lat="45.1230883" lon="11.647355"><ele>6.3999999999999995</ele><time>2026-05-01T09:54:28.428Z</time></trkpt><trkpt lat="45.122975" lon="11.64738"><ele>6.6</ele><time>2026-05-01T09:54:30.406Z</time></trkpt><trkpt lat="45.1228667" lon="11.6474033"><ele>6.8</ele><time>2026-05-01T09:54:32.432Z</time></trkpt><trkpt lat="45.122765" lon="11.647435"><ele>7.0</ele><time>2026-05-01T09:54:34.432Z</time></trkpt><trkpt lat="45.1226617" lon="11.6474667"><ele>7.0</ele><time>2026-05-01T09:54:36.432Z</time></trkpt><trkpt lat="45.122555" lon="11.6475067"><ele>6.999999999999999</ele><time>2026-05-01T09:54:38.431Z</time></trkpt><trkpt lat="45.1224467" lon="11.647545"><ele>6.999999999999999</ele><time>2026-05-01T09:54:40.419Z</time></trkpt><trkpt lat="45.1223383" lon="11.64759"><ele>7.0</ele><time>2026-05-01T09:54:42.395Z</time></trkpt><trkpt lat="45.1222317" lon="11.6476417"><ele>7.0</ele><time>2026-05-01T09:54:44.434Z</time></trkpt><trkpt lat="45.1221267" lon="11.6476933"><ele>6.75</ele><time>2026-05-01T09:54:46.433Z</time></trkpt><trkpt lat="45.1220217" lon="11.6477433"><ele>6.5</ele><time>2026-05-01T09:54:48.425Z</time></trkpt><trkpt lat="45.1219133" lon="11.6477967"><ele>6.25</ele><time>2026-05-01T09:54:50.411Z</time></trkpt><trkpt lat="45.1218117" lon="11.6478617"><ele>6.0</ele><time>2026-05-01T09:54:52.43Z</time></trkpt><trkpt lat="45.1217067" lon="11.647925"><ele>6.0</ele><time>2026-05-01T09:54:54.405Z</time></trkpt><trkpt lat="45.1215983" lon="11.647995"><ele>6.0</ele><time>2026-05-01T09:54:56.422Z</time></trkpt><trkpt lat="45.12149" lon="11.648065"><ele>6.0</ele><time>2026-05-01T09:54:58.408Z</time></trkpt><trkpt lat="45.12138" lon="11.6481333"><ele>6.0</ele><time>2026-05-01T09:55:00.43Z</time></trkpt><trkpt lat="45.12127" lon="11.648195"><ele>6.0</ele><time>2026-05-01T09:55:02.432Z</time></trkpt><trkpt lat="45.12116" lon="11.6482517"><ele>6.0</ele><time>2026-05-01T09:55:04.425Z</time></trkpt><trkpt lat="45.1210467" lon="11.6482983"><ele>6.0</ele><time>2026-05-01T09:55:06.427Z</time></trkpt><trkpt lat="45.1209317" lon="11.6483317"><ele>6.0</ele><time>2026-05-01T09:55:08.431Z</time></trkpt><trkpt lat="45.1208167" lon="11.6483533"><ele>5.75</ele><time>2026-05-01T09:55:10.422Z</time></trkpt><trkpt lat="45.1207083" lon="11.6483767"><ele>5.5</ele><time>2026-05-01T09:55:12.414Z</time></trkpt><trkpt lat="45.1205883" lon="11.6484117"><ele>5.25</ele><time>2026-05-01T09:55:14.402Z</time></trkpt><trkpt lat="45.1204733" lon="11.6484533"><ele>5.0</ele><time>2026-05-01T09:55:16.396Z</time></trkpt><trkpt lat="45.12036" lon="11.6485067"><ele>5.0</ele><time>2026-05-01T09:55:18.409Z</time></trkpt><trkpt lat="45.1202517" lon="11.6485783"><ele>5.0</ele><time>2026-05-01T09:55:20.393Z</time></trkpt><trkpt lat="45.1201483" lon="11.648665"><ele>5.0</ele><time>2026-05-01T09:55:22.399Z</time></trkpt><trkpt lat="45.12005" lon="11.6487683"><ele>5.0</ele><time>2026-05-01T09:55:24.403Z</time></trkpt><trkpt lat="45.1199583" lon="11.6488683"><ele>5.2</ele><time>2026-05-01T09:55:26.399Z</time></trkpt><trkpt lat="45.1198617" lon="11.6489583"><ele>5.4</ele><time>2026-05-01T09:55:28.398Z</time></trkpt><trkpt lat="45.1197667" lon="11.649045"><ele>5.6</ele><time>2026-05-01T09:55:30.439Z</time></trkpt><trkpt lat="45.1196783" lon="11.64913"><ele>5.8</ele><time>2026-05-01T09:55:32.403Z</time></trkpt><trkpt lat="45.1196" lon="11.6492217"><ele>6.0</ele><time>2026-05-01T09:55:34.404Z</time></trkpt><trkpt lat="45.1195167" lon="11.6493367"><ele>6.0</ele><time>2026-05-01T09:55:36.411Z</time></trkpt><trkpt lat="45.1194417" lon="11.6494633"><ele>6.0</ele><time>2026-05-01T09:55:38.445Z</time></trkpt><trkpt lat="45.1193783" lon="11.6496033"><ele>6.0</ele><time>2026-05-01T09:55:40.4Z</time></trkpt><trkpt lat="45.1193117" lon="11.64974"><ele>6.0</ele><time>2026-05-01T09:55:42.402Z</time></trkpt><trkpt lat="45.1192517" lon="11.6498767"><ele>6.0</ele><time>2026-05-01T09:55:44.391Z</time></trkpt><trkpt lat="45.1191983" lon="11.650015"><ele>6.0</ele><time>2026-05-01T09:55:46.411Z</time></trkpt><trkpt lat="45.1191517" lon="11.65016"><ele>6.0</ele><time>2026-05-01T09:55:48.4Z</time></trkpt><trkpt lat="45.1191167" lon="11.6503133"><ele>6.0</ele><time>2026-05-01T09:55:50.391Z</time></trkpt><trkpt lat="45.1190933" lon="11.65047"><ele>6.4</ele><time>2026-05-01T09:55:52.404Z</time></trkpt><trkpt lat="45.11907" lon="11.6506183"><ele>6.8</ele><time>2026-05-01T09:55:54.39Z</time></trkpt><trkpt lat="45.1190417" lon="11.650765"><ele>7.200000000000001</ele><time>2026-05-01T09:55:56.39Z</time></trkpt><trkpt lat="45.119015" lon="11.6509083"><ele>7.6000000000000005</ele><time>2026-05-01T09:55:58.393Z</time></trkpt><trkpt lat="45.1189983" lon="11.6510583"><ele>8.0</ele><time>2026-05-01T09:56:00.392Z</time></trkpt><trkpt lat="45.1189683" lon="11.651225"><ele>8.0</ele><time>2026-05-01T09:56:02.396Z</time></trkpt><trkpt lat="45.118935" lon="11.6513933"><ele>8.0</ele><time>2026-05-01T09:56:04.389Z</time></trkpt><trkpt lat="45.1188933" lon="11.65156"><ele>8.0</ele><time>2026-05-01T09:56:06.407Z</time></trkpt><trkpt lat="45.1188567" lon="11.651725"><ele>8.0</ele><time>2026-05-01T09:56:08.398Z</time></trkpt><trkpt lat="45.1188183" lon="11.65189"><ele>7.5</ele><time>2026-05-01T09:56:10.402Z</time></trkpt><trkpt lat="45.11878" lon="11.6520467"><ele>7.0</ele><time>2026-05-01T09:56:12.39Z</time></trkpt><trkpt lat="45.118735" lon="11.6522"><ele>6.5</ele><time>2026-05-01T09:56:14.392Z</time></trkpt><trkpt lat="45.1186817" lon="11.6523417"><ele>6.0</ele><time>2026-05-01T09:56:16.411Z</time></trkpt><trkpt lat="45.1186233" lon="11.6524733"><ele>6.0</ele><time>2026-05-01T09:56:18.426Z</time></trkpt><trkpt lat="45.118545" lon="11.6525967"><ele>6.0</ele><time>2026-05-01T09:56:20.403Z</time></trkpt><trkpt lat="45.11845" lon="11.6526933"><ele>6.0</ele><time>2026-05-01T09:56:22.417Z</time></trkpt><trkpt lat="45.1183467" lon="11.6527583"><ele>6.0</ele><time>2026-05-01T09:56:24.423Z</time></trkpt><trkpt lat="45.11824" lon="11.6527833"><ele>6.199999999999999</ele><time>2026-05-01T09:56:26.43Z</time></trkpt><trkpt lat="45.1181283" lon="11.6527883"><ele>6.3999999999999995</ele><time>2026-05-01T09:56:28.403Z</time></trkpt><trkpt lat="45.1180233" lon="11.6527867"><ele>6.6</ele><time>2026-05-01T09:56:30.41Z</time></trkpt><trkpt lat="45.1179133" lon="11.65278"><ele>6.8</ele><time>2026-05-01T09:56:32.423Z</time></trkpt><trkpt lat="45.1178017" lon="11.652775"><ele>7.0</ele><time>2026-05-01T09:56:34.42Z</time></trkpt><trkpt lat="45.117685" lon="11.6527717"><ele>7.0</ele><time>2026-05-01T09:56:36.415Z</time></trkpt><trkpt lat="45.1175683" lon="11.6527767"><ele>7.0</ele><time>2026-05-01T09:56:38.425Z</time></trkpt><trkpt lat="45.117455" lon="11.6527867"><ele>7.0</ele><time>2026-05-01T09:56:40.429Z</time></trkpt><trkpt lat="45.1173417" lon="11.65279"><ele>7.0</ele><time>2026-05-01T09:56:42.43Z</time></trkpt><trkpt lat="45.1172283" lon="11.652785"><ele>7.0</ele><time>2026-05-01T09:56:44.43Z</time></trkpt><trkpt lat="45.1171133" lon="11.6527667"><ele>7.0</ele><time>2026-05-01T09:56:46.437Z</time></trkpt><trkpt lat="45.1170083" lon="11.6527167"><ele>7.0</ele><time>2026-05-01T09:56:48.423Z</time></trkpt><trkpt lat="45.1168983" lon="11.6526633"><ele>7.0</ele><time>2026-05-01T09:56:50.426Z</time></trkpt><trkpt lat="45.1167883" lon="11.652595"><ele>7.000000000000001</ele><time>2026-05-01T09:56:52.408Z</time></trkpt><trkpt lat="45.11668" lon="11.6525217"><ele>7.0</ele><time>2026-05-01T09:56:54.428Z</time></trkpt><trkpt lat="45.11657" lon="11.6524417"><ele>7.0</ele><time>2026-05-01T09:56:56.417Z</time></trkpt><trkpt lat="45.116515" lon="11.6523967"><ele>7.0</ele><time>2026-05-01T09:56:57.42Z</time></trkpt><trkpt lat="45.1164583" lon="11.652355"><ele>7.000000000000001</ele><time>2026-05-01T09:56:58.407Z</time></trkpt><trkpt lat="45.1164017" lon="11.6523117"><ele>7.0</ele><time>2026-05-01T09:56:59.398Z</time></trkpt><trkpt lat="45.11629" lon="11.6522333"><ele>7.000000000000001</ele><time>2026-05-01T09:57:01.416Z</time></trkpt><trkpt lat="45.1162317" lon="11.6521917"><ele>7.0</ele><time>2026-05-01T09:57:02.418Z</time></trkpt><trkpt lat="45.1161733" lon="11.6521517"><ele>7.0</ele><time>2026-05-01T09:57:03.423Z</time></trkpt><trkpt lat="45.1161167" lon="11.65211"><ele>7.0</ele><time>2026-05-01T09:57:04.416Z</time></trkpt><trkpt lat="45.116005" lon="11.6520333"><ele>7.000000000000001</ele><time>2026-05-01T09:57:06.393Z</time></trkpt><trkpt lat="45.1159467" lon="11.6519983"><ele>7.0</ele><time>2026-05-01T09:57:07.404Z</time></trkpt><trkpt lat="45.1158383" lon="11.6519183"><ele>6.8</ele><time>2026-05-01T09:57:09.424Z</time></trkpt><trkpt lat="45.1157233" lon="11.6518467"><ele>6.6</ele><time>2026-05-01T09:57:11.427Z</time></trkpt><trkpt lat="45.115665" lon="11.6518067"><ele>6.3999999999999995</ele><time>2026-05-01T09:57:12.402Z</time></trkpt><trkpt lat="45.115605" lon="11.6517733"><ele>6.199999999999999</ele><time>2026-05-01T09:57:13.419Z</time></trkpt><trkpt lat="45.1154917" lon="11.651705"><ele>6.0</ele><time>2026-05-01T09:57:15.407Z</time></trkpt><trkpt lat="45.115375" lon="11.6516383"><ele>5.999999999999999</ele><time>2026-05-01T09:57:17.431Z</time></trkpt><trkpt lat="45.115315" lon="11.651605"><ele>6.0</ele><time>2026-05-01T09:57:18.423Z</time></trkpt><trkpt lat="45.1152533" lon="11.6515717"><ele>6.0</ele><time>2026-05-01T09:57:19.422Z</time></trkpt><trkpt lat="45.1151933" lon="11.6515383"><ele>6.0</ele><time>2026-05-01T09:57:20.426Z</time></trkpt><trkpt lat="45.1151317" lon="11.651505"><ele>6.0</ele><time>2026-05-01T09:57:21.43Z</time></trkpt><trkpt lat="45.1150717" lon="11.6514733"><ele>5.999999999999999</ele><time>2026-05-01T09:57:22.43Z</time></trkpt><trkpt lat="45.11501" lon="11.6514383"><ele>6.0</ele><time>2026-05-01T09:57:23.411Z</time></trkpt><trkpt lat="45.11495" lon="11.6514033"><ele>5.857142857142857</ele><time>2026-05-01T09:57:24.423Z</time></trkpt><trkpt lat="45.1148917" lon="11.6513667"><ele>5.714285714285714</ele><time>2026-05-01T09:57:25.402Z</time></trkpt><trkpt lat="45.1148317" lon="11.6513283"><ele>5.571428571428571</ele><time>2026-05-01T09:57:26.425Z</time></trkpt><trkpt lat="45.1147733" lon="11.65129"><ele>5.428571428571429</ele><time>2026-05-01T09:57:27.43Z</time></trkpt><trkpt lat="45.1147133" lon="11.65125"><ele>5.285714285714286</ele><time>2026-05-01T09:57:28.427Z</time></trkpt><trkpt lat="45.114655" lon="11.6512117"><ele>5.142857142857142</ele><time>2026-05-01T09:57:29.419Z</time></trkpt><trkpt lat="45.114595" lon="11.6511783"><ele>5.0</ele><time>2026-05-01T09:57:30.433Z</time></trkpt><trkpt lat="45.1145317" lon="11.6511567"><ele>5.0</ele><time>2026-05-01T09:57:31.43Z</time></trkpt><trkpt lat="45.1144667" lon="11.651155"><ele>5.0</ele><time>2026-05-01T09:57:32.428Z</time></trkpt><trkpt lat="45.1143583" lon="11.651245"><ele>5.0</ele><time>2026-05-01T09:57:34.428Z</time></trkpt><trkpt lat="45.1143217" lon="11.6513183"><ele>5.0</ele><time>2026-05-01T09:57:35.418Z</time></trkpt><trkpt lat="45.1142933" lon="11.6514017"><ele>5.0</ele><time>2026-05-01T09:57:36.419Z</time></trkpt><trkpt lat="45.1142683" lon="11.65149"><ele>5.0</ele><time>2026-05-01T09:57:37.428Z</time></trkpt><trkpt lat="45.1142433" lon="11.651575"><ele>5.0</ele><time>2026-05-01T09:57:38.422Z</time></trkpt><trkpt lat="45.11422" lon="11.65166"><ele>5.0</ele><time>2026-05-01T09:57:39.396Z</time></trkpt><trkpt lat="45.114195" lon="11.6517433"><ele>5.0</ele><time>2026-05-01T09:57:40.423Z</time></trkpt><trkpt lat="45.1141417" lon="11.6519067"><ele>5.0</ele><time>2026-05-01T09:57:42.391Z</time></trkpt><trkpt lat="45.1140933" lon="11.6520683"><ele>5.0</ele><time>2026-05-01T09:57:44.42Z</time></trkpt><trkpt lat="45.1140483" lon="11.6522233"><ele>5.0</ele><time>2026-05-01T09:57:46.428Z</time></trkpt><trkpt lat="45.114005" lon="11.6523867"><ele>5.0</ele><time>2026-05-01T09:57:48.416Z</time></trkpt><trkpt lat="45.1139817" lon="11.6524717"><ele>5.0</ele><time>2026-05-01T09:57:49.419Z</time></trkpt><trkpt lat="45.1139583" lon="11.652555"><ele>5.0</ele><time>2026-05-01T09:57:50.416Z</time></trkpt><trkpt lat="45.1139367" lon="11.65264"><ele>5.0</ele><time>2026-05-01T09:57:51.412Z</time></trkpt><trkpt lat="45.1139133" lon="11.6527267"><ele>5.0</ele><time>2026-05-01T09:57:52.423Z</time></trkpt><trkpt lat="45.11389" lon="11.6528117"><ele>5.0</ele><time>2026-05-01T09:57:53.435Z</time></trkpt><trkpt lat="45.113865" lon="11.652895"><ele>4.833333333333334</ele><time>2026-05-01T09:57:54.424Z</time></trkpt><trkpt lat="45.1138417" lon="11.6529783"><ele>4.666666666666667</ele><time>2026-05-01T09:57:55.408Z</time></trkpt><trkpt lat="45.1138183" lon="11.6530617"><ele>4.5</ele><time>2026-05-01T09:57:56.424Z</time></trkpt><trkpt lat="45.113795" lon="11.653145"><ele>4.333333333333333</ele><time>2026-05-01T09:57:57.424Z</time></trkpt><trkpt lat="45.1137717" lon="11.6532283"><ele>4.166666666666666</ele><time>2026-05-01T09:57:58.427Z</time></trkpt><trkpt lat="45.1137267" lon="11.6533933"><ele>4.0</ele><time>2026-05-01T09:58:00.428Z</time></trkpt><trkpt lat="45.113685" lon="11.653555"><ele>4.0</ele><time>2026-05-01T09:58:02.419Z</time></trkpt><trkpt lat="45.1136367" lon="11.653715"><ele>4.0</ele><time>2026-05-01T09:58:04.426Z</time></trkpt><trkpt lat="45.1135883" lon="11.6538767"><ele>4.0</ele><time>2026-05-01T09:58:06.43Z</time></trkpt><trkpt lat="45.1135417" lon="11.654035"><ele>4.0</ele><time>2026-05-01T09:58:08.42Z</time></trkpt><trkpt lat="45.1134967" lon="11.6541917"><ele>4.0</ele><time>2026-05-01T09:58:10.434Z</time></trkpt><trkpt lat="45.1134517" lon="11.654345"><ele>4.0</ele><time>2026-05-01T09:58:12.42Z</time></trkpt><trkpt lat="45.1134117" lon="11.654495"><ele>4.0</ele><time>2026-05-01T09:58:14.418Z</time></trkpt><trkpt lat="45.11338" lon="11.6546417"><ele>4.0</ele><time>2026-05-01T09:58:16.409Z</time></trkpt><trkpt lat="45.1133483" lon="11.65478"><ele>4.0</ele><time>2026-05-01T09:58:18.426Z</time></trkpt><trkpt lat="45.1132933" lon="11.654905"><ele>4.0</ele><time>2026-05-01T09:58:20.429Z</time></trkpt><trkpt lat="45.1132033" lon="11.6549583"><ele>4.0</ele><time>2026-05-01T09:58:22.424Z</time></trkpt><trkpt lat="45.1131067" lon="11.654935"><ele>4.0</ele><time>2026-05-01T09:58:24.411Z</time></trkpt><trkpt lat="45.1130083" lon="11.6549033"><ele>4.0</ele><time>2026-05-01T09:58:26.427Z</time></trkpt><trkpt lat="45.1129067" lon="11.654855"><ele>4.0</ele><time>2026-05-01T09:58:28.421Z</time></trkpt><trkpt lat="45.1127983" lon="11.65482"><ele>4.0</ele><time>2026-05-01T09:58:30.435Z</time></trkpt><trkpt lat="45.1126867" lon="11.6547867"><ele>4.0</ele><time>2026-05-01T09:58:32.429Z</time></trkpt><trkpt lat="45.1125767" lon="11.6547517"><ele>4.0</ele><time>2026-05-01T09:58:34.423Z</time></trkpt><trkpt lat="45.1124683" lon="11.6547167"><ele>4.0</ele><time>2026-05-01T09:58:36.426Z</time></trkpt><trkpt lat="45.1123567" lon="11.6546783"><ele>3.5</ele><time>2026-05-01T09:58:38.421Z</time></trkpt><trkpt lat="45.1122483" lon="11.6546367"><ele>3.0</ele><time>2026-05-01T09:58:40.423Z</time></trkpt><trkpt lat="45.1121383" lon="11.654595"><ele>2.5</ele><time>2026-05-01T09:58:42.427Z</time></trkpt><trkpt lat="45.1120233" lon="11.65456"><ele>2.0</ele><time>2026-05-01T09:58:44.441Z</time></trkpt><trkpt lat="45.1119133" lon="11.6545267"><ele>2.0</ele><time>2026-05-01T09:58:46.43Z</time></trkpt><trkpt lat="45.1118017" lon="11.6544917"><ele>2.0</ele><time>2026-05-01T09:58:48.396Z</time></trkpt><trkpt lat="45.1116917" lon="11.6544567"><ele>2.0</ele><time>2026-05-01T09:58:50.419Z</time></trkpt><trkpt lat="45.1115867" lon="11.6544317"><ele>2.0</ele><time>2026-05-01T09:58:52.423Z</time></trkpt><trkpt lat="45.1114833" lon="11.6544033"><ele>2.0</ele><time>2026-05-01T09:58:54.435Z</time></trkpt><trkpt lat="45.11138" lon="11.65437"><ele>2.2</ele><time>2026-05-01T09:58:56.428Z</time></trkpt><trkpt lat="45.1112733" lon="11.654335"><ele>2.4000000000000004</ele><time>2026-05-01T09:58:58.406Z</time></trkpt><trkpt lat="45.111165" lon="11.6543017"><ele>2.5999999999999996</ele><time>2026-05-01T09:59:00.429Z</time></trkpt><trkpt lat="45.111055" lon="11.65427"><ele>2.8</ele><time>2026-05-01T09:59:02.424Z</time></trkpt><trkpt lat="45.1109467" lon="11.6542417"><ele>3.0</ele><time>2026-05-01T09:59:04.434Z</time></trkpt><trkpt lat="45.110835" lon="11.6542067"><ele>3.2</ele><time>2026-05-01T09:59:06.43Z</time></trkpt><trkpt lat="45.1107233" lon="11.6541717"><ele>3.4</ele><time>2026-05-01T09:59:08.429Z</time></trkpt><trkpt lat="45.1106133" lon="11.65414"><ele>3.6000000000000005</ele><time>2026-05-01T09:59:10.421Z</time></trkpt><trkpt lat="45.1105067" lon="11.6541067"><ele>3.8000000000000003</ele><time>2026-05-01T09:59:12.396Z</time></trkpt><trkpt lat="45.1103983" lon="11.6540733"><ele>4.0</ele><time>2026-05-01T09:59:14.424Z</time></trkpt><trkpt lat="45.1102933" lon="11.654045"><ele>4.0</ele><time>2026-05-01T09:59:16.421Z</time></trkpt><trkpt lat="45.1101917" lon="11.65402"><ele>4.0</ele><time>2026-05-01T09:59:18.43Z</time></trkpt><trkpt lat="45.11009" lon="11.65399"><ele>4.0</ele><time>2026-05-01T09:59:20.416Z</time></trkpt><trkpt lat="45.1100017" lon="11.6539317"><ele>4.0</ele><time>2026-05-01T09:59:22.427Z</time></trkpt><trkpt lat="45.10995" lon="11.6538183"><ele>4.0</ele><time>2026-05-01T09:59:24.432Z</time></trkpt><trkpt lat="45.1099433" lon="11.6536683"><ele>4.2</ele><time>2026-05-01T09:59:26.422Z</time></trkpt><trkpt lat="45.1099367" lon="11.6535183"><ele>4.4</ele><time>2026-05-01T09:59:28.43Z</time></trkpt><trkpt lat="45.10992" lon="11.6533683"><ele>4.6</ele><time>2026-05-01T09:59:30.431Z</time></trkpt><trkpt lat="45.1098867" lon="11.653225"><ele>4.8</ele><time>2026-05-01T09:59:32.414Z</time></trkpt><trkpt lat="45.10983" lon="11.6530983"><ele>5.0</ele><time>2026-05-01T09:59:34.427Z</time></trkpt><trkpt lat="45.1097567" lon="11.6529933"><ele>5.2</ele><time>2026-05-01T09:59:36.406Z</time></trkpt><trkpt lat="45.1096733" lon="11.6529"><ele>5.4</ele><time>2026-05-01T09:59:38.425Z</time></trkpt><trkpt lat="45.10959" lon="11.6528133"><ele>5.6</ele><time>2026-05-01T09:59:40.428Z</time></trkpt><trkpt lat="45.1095083" lon="11.6527283"><ele>5.8</ele><time>2026-05-01T09:59:42.43Z</time></trkpt><trkpt lat="45.10943" lon="11.6526417"><ele>6.0</ele><time>2026-05-01T09:59:44.423Z</time></trkpt><trkpt lat="45.10935" lon="11.6525667"><ele>6.333333333333333</ele><time>2026-05-01T09:59:46.429Z</time></trkpt><trkpt lat="45.1092733" lon="11.652495"><ele>6.666666666666666</ele><time>2026-05-01T09:59:48.443Z</time></trkpt><trkpt lat="45.1091917" lon="11.6524617"><ele>7.0</ele><time>2026-05-01T09:59:50.464Z</time></trkpt><trkpt lat="45.109115" lon="11.6525033"><ele>7.333333333333333</ele><time>2026-05-01T09:59:52.388Z</time></trkpt><trkpt lat="45.1090633" lon="11.6525733"><ele>7.666666666666666</ele><time>2026-05-01T09:59:54.401Z</time></trkpt><trkpt lat="45.109005" lon="11.6526683"><ele>8.0</ele><time>2026-05-01T09:59:56.402Z</time></trkpt><trkpt lat="45.108945" lon="11.65277"><ele>8.166666666666666</ele><time>2026-05-01T09:59:58.41Z</time></trkpt><trkpt lat="45.1088733" lon="11.6528383"><ele>8.333333333333332</ele><time>2026-05-01T10:00:00.42Z</time></trkpt><trkpt lat="45.1087983" lon="11.65289"><ele>8.5</ele><time>2026-05-01T10:00:02.428Z</time></trkpt><trkpt lat="45.10872" lon="11.6529383"><ele>8.666666666666666</ele><time>2026-05-01T10:00:04.415Z</time></trkpt><trkpt lat="45.108645" lon="11.6529917"><ele>8.833333333333334</ele><time>2026-05-01T10:00:06.432Z</time></trkpt><trkpt lat="45.1085733" lon="11.6530483"><ele>9.0</ele><time>2026-05-01T10:00:08.419Z</time></trkpt><trkpt lat="45.1085067" lon="11.653115"><ele>9.0</ele><time>2026-05-01T10:00:10.385Z</time></trkpt><trkpt lat="45.1084417" lon="11.6531867"><ele>9.0</ele><time>2026-05-01T10:00:12.429Z</time></trkpt><trkpt lat="45.1083833" lon="11.65326"><ele>9.0</ele><time>2026-05-01T10:00:14.426Z</time></trkpt><trkpt lat="45.108325" lon="11.6533267"><ele>9.0</ele><time>2026-05-01T10:00:16.428Z</time></trkpt><trkpt lat="45.108265" lon="11.6533883"><ele>9.0</ele><time>2026-05-01T10:00:18.432Z</time></trkpt><trkpt lat="45.108205" lon="11.65345"><ele>9.0</ele><time>2026-05-01T10:00:20.419Z</time></trkpt><trkpt lat="45.1081517" lon="11.6535067"><ele>9.0</ele><time>2026-05-01T10:00:22.422Z</time></trkpt><trkpt lat="45.10807" lon="11.6535567"><ele>9.0</ele><time>2026-05-01T10:00:25.398Z</time></trkpt><trkpt lat="45.1080033" lon="11.6535683"><ele>9.0</ele><time>2026-05-01T10:00:27.408Z</time></trkpt><trkpt lat="45.1079333" lon="11.6536083"><ele>9.0</ele><time>2026-05-01T10:00:29.424Z</time></trkpt><trkpt lat="45.1078717" lon="11.6536717"><ele>9.0</ele><time>2026-05-01T10:00:31.394Z</time></trkpt><trkpt lat="45.1078083" lon="11.65374"><ele>9.0</ele><time>2026-05-01T10:00:33.418Z</time></trkpt><trkpt lat="45.1077417" lon="11.6538133"><ele>9.0</ele><time>2026-05-01T10:00:35.421Z</time></trkpt><trkpt lat="45.1076767" lon="11.65389"><ele>9.0</ele><time>2026-05-01T10:00:37.42Z</time></trkpt><trkpt lat="45.10761" lon="11.6539633"><ele>9.0</ele><time>2026-05-01T10:00:39.426Z</time></trkpt><trkpt lat="45.1075417" lon="11.6540417"><ele>9.0</ele><time>2026-05-01T10:00:41.42Z</time></trkpt><trkpt lat="45.107475" lon="11.6541183"><ele>9.0</ele><time>2026-05-01T10:00:43.423Z</time></trkpt><trkpt lat="45.1074033" lon="11.6541967"><ele>9.0</ele><time>2026-05-01T10:00:45.431Z</time></trkpt><trkpt lat="45.1073333" lon="11.6542767"><ele>8.833333333333334</ele><time>2026-05-01T10:00:47.393Z</time></trkpt><trkpt lat="45.1072633" lon="11.6543567"><ele>8.666666666666666</ele><time>2026-05-01T10:00:49.423Z</time></trkpt><trkpt lat="45.1071917" lon="11.65444"><ele>8.5</ele><time>2026-05-01T10:00:51.413Z</time></trkpt><trkpt lat="45.1071217" lon="11.6545233"><ele>8.333333333333332</ele><time>2026-05-01T10:00:53.4Z</time></trkpt><trkpt lat="45.1070567" lon="11.6546"><ele>8.166666666666666</ele><time>2026-05-01T10:00:55.426Z</time></trkpt><trkpt lat="45.106995" lon="11.654675"><ele>8.0</ele><time>2026-05-01T10:00:57.405Z</time></trkpt><trkpt lat="45.1069317" lon="11.6547533"><ele>7.800000000000001</ele><time>2026-05-01T10:00:59.423Z</time></trkpt><trkpt lat="45.106865" lon="11.6548383"><ele>7.6000000000000005</ele><time>2026-05-01T10:01:01.42Z</time></trkpt><trkpt lat="45.1067967" lon="11.6549267"><ele>7.3999999999999995</ele><time>2026-05-01T10:01:03.424Z</time></trkpt><trkpt lat="45.1067267" lon="11.65502"><ele>7.199999999999999</ele><time>2026-05-01T10:01:05.427Z</time></trkpt><trkpt lat="45.1066567" lon="11.6551167"><ele>7.0</ele><time>2026-05-01T10:01:07.425Z</time></trkpt><trkpt lat="45.10659" lon="11.65521"><ele>7.3999999999999995</ele><time>2026-05-01T10:01:09.389Z</time></trkpt><trkpt lat="45.1065267" lon="11.655305"><ele>7.799999999999999</ele><time>2026-05-01T10:01:11.428Z</time></trkpt><trkpt lat="45.1064667" lon="11.6554"><ele>8.2</ele><time>2026-05-01T10:01:13.423Z</time></trkpt><trkpt lat="45.1064067" lon="11.6555017"><ele>8.6</ele><time>2026-05-01T10:01:15.419Z</time></trkpt><trkpt lat="45.10635" lon="11.65561"><ele>9.0</ele><time>2026-05-01T10:01:17.422Z</time></trkpt><trkpt lat="45.1063" lon="11.655725"><ele>9.0</ele><time>2026-05-01T10:01:19.412Z</time></trkpt><trkpt lat="45.1062567" lon="11.6558383"><ele>9.0</ele><time>2026-05-01T10:01:21.417Z</time></trkpt><trkpt lat="45.1062217" lon="11.6559533"><ele>9.0</ele><time>2026-05-01T10:01:23.421Z</time></trkpt><trkpt lat="45.1061983" lon="11.6560767"><ele>9.0</ele><time>2026-05-01T10:01:25.402Z</time></trkpt><trkpt lat="45.10618" lon="11.6562083"><ele>9.0</ele><time>2026-05-01T10:01:27.425Z</time></trkpt><trkpt lat="45.1061733" lon="11.6563467"><ele>9.0</ele><time>2026-05-01T10:01:29.423Z</time></trkpt><trkpt lat="45.1061717" lon="11.656495"><ele>9.0</ele><time>2026-05-01T10:01:31.417Z</time></trkpt><trkpt lat="45.1061767" lon="11.6566433"><ele>9.0</ele><time>2026-05-01T10:01:33.421Z</time></trkpt><trkpt lat="45.106185" lon="11.656795"><ele>9.0</ele><time>2026-05-01T10:01:35.423Z</time></trkpt><trkpt lat="45.1061917" lon="11.6569433"><ele>9.0</ele><time>2026-05-01T10:01:37.425Z</time></trkpt><trkpt lat="45.1062" lon="11.6570967"><ele>9.0</ele><time>2026-05-01T10:01:39.429Z</time></trkpt><trkpt lat="45.1062033" lon="11.6572483"><ele>9.0</ele><time>2026-05-01T10:01:41.41Z</time></trkpt><trkpt lat="45.1062067" lon="11.6573983"><ele>9.0</ele><time>2026-05-01T10:01:43.422Z</time></trkpt><trkpt lat="45.106205" lon="11.6575467"><ele>9.0</ele><time>2026-05-01T10:01:45.43Z</time></trkpt><trkpt lat="45.1061983" lon="11.6577"><ele>9.0</ele><time>2026-05-01T10:01:47.424Z</time></trkpt><trkpt lat="45.1061917" lon="11.65785"><ele>9.0</ele><time>2026-05-01T10:01:49.426Z</time></trkpt><trkpt lat="45.10618" lon="11.6579967"><ele>9.0</ele><time>2026-05-01T10:01:51.417Z</time></trkpt><trkpt lat="45.10616" lon="11.6581367"><ele>9.0</ele><time>2026-05-01T10:01:53.425Z</time></trkpt><trkpt lat="45.106135" lon="11.658275"><ele>9.0</ele><time>2026-05-01T10:01:55.425Z</time></trkpt><trkpt lat="45.1061067" lon="11.6584133"><ele>9.0</ele><time>2026-05-01T10:01:57.398Z</time></trkpt><trkpt lat="45.1060733" lon="11.6585467"><ele>8.6</ele><time>2026-05-01T10:01:59.424Z</time></trkpt><trkpt lat="45.10604" lon="11.658675"><ele>8.2</ele><time>2026-05-01T10:02:01.429Z</time></trkpt><trkpt lat="45.1060033" lon="11.6588083"><ele>7.799999999999999</ele><time>2026-05-01T10:02:03.427Z</time></trkpt><trkpt lat="45.1059617" lon="11.6589483"><ele>7.3999999999999995</ele><time>2026-05-01T10:02:05.431Z</time></trkpt><trkpt lat="45.1059217" lon="11.6590883"><ele>7.0</ele><time>2026-05-01T10:02:07.417Z</time></trkpt><trkpt lat="45.10588" lon="11.6592283"><ele>7.0</ele><time>2026-05-01T10:02:09.398Z</time></trkpt><trkpt lat="45.10584" lon="11.6593667"><ele>6.999999999999999</ele><time>2026-05-01T10:02:11.418Z</time></trkpt><trkpt lat="45.1058017" lon="11.6594967"><ele>6.999999999999999</ele><time>2026-05-01T10:02:13.409Z</time></trkpt><trkpt lat="45.1057633" lon="11.6596133"><ele>7.0</ele><time>2026-05-01T10:02:15.417Z</time></trkpt><trkpt lat="45.1056983" lon="11.6596933"><ele>7.0</ele><time>2026-05-01T10:02:17.418Z</time></trkpt><trkpt lat="45.1056117" lon="11.6596667"><ele>7.166666666666667</ele><time>2026-05-01T10:02:19.407Z</time></trkpt><trkpt lat="45.1055217" lon="11.659625"><ele>7.333333333333334</ele><time>2026-05-01T10:02:21.395Z</time></trkpt><trkpt lat="45.10543" lon="11.6595867"><ele>7.5</ele><time>2026-05-01T10:02:23.432Z</time></trkpt><trkpt lat="45.1053483" lon="11.6595517"><ele>7.666666666666666</ele><time>2026-05-01T10:02:25.429Z</time></trkpt><trkpt lat="45.1052683" lon="11.6595167"><ele>7.833333333333333</ele><time>2026-05-01T10:02:27.428Z</time></trkpt><trkpt lat="45.1051883" lon="11.6594767"><ele>8.0</ele><time>2026-05-01T10:02:29.418Z</time></trkpt><trkpt lat="45.1051117" lon="11.6594367"><ele>7.666666666666666</ele><time>2026-05-01T10:02:31.427Z</time></trkpt><trkpt lat="45.1050317" lon="11.6594033"><ele>7.333333333333333</ele><time>2026-05-01T10:02:33.423Z</time></trkpt><trkpt lat="45.1049517" lon="11.6593767"><ele>7.0</ele><time>2026-05-01T10:02:35.421Z</time></trkpt><trkpt lat="45.1048717" lon="11.6593433"><ele>6.666666666666666</ele><time>2026-05-01T10:02:37.458Z</time></trkpt><trkpt lat="45.1047983" lon="11.65932"><ele>6.333333333333333</ele><time>2026-05-01T10:02:39.4Z</time></trkpt><trkpt lat="45.10471" lon="11.6592833"><ele>6.0</ele><time>2026-05-01T10:02:41.4Z</time></trkpt><trkpt lat="45.1046233" lon="11.6592483"><ele>6.833333333333333</ele><time>2026-05-01T10:02:43.412Z</time></trkpt><trkpt lat="45.10455" lon="11.659205"><ele>7.666666666666666</ele><time>2026-05-01T10:02:45.405Z</time></trkpt><trkpt lat="45.104455" lon="11.659185"><ele>8.5</ele><time>2026-05-01T10:02:47.393Z</time></trkpt><trkpt lat="45.1043817" lon="11.6591417"><ele>9.333333333333332</ele><time>2026-05-01T10:02:49.423Z</time></trkpt><trkpt lat="45.10431" lon="11.6591"><ele>10.166666666666666</ele><time>2026-05-01T10:02:51.419Z</time></trkpt><trkpt lat="45.1042283" lon="11.6590617"><ele>11.0</ele><time>2026-05-01T10:02:53.422Z</time></trkpt><trkpt lat="45.104145" lon="11.6590583"><ele>11.0</ele><time>2026-05-01T10:02:55.428Z</time></trkpt><trkpt lat="45.1040867" lon="11.659135"><ele>11.0</ele><time>2026-05-01T10:02:57.422Z</time></trkpt><trkpt lat="45.1040483" lon="11.65925"><ele>11.0</ele><time>2026-05-01T10:02:59.423Z</time></trkpt><trkpt lat="45.1040183" lon="11.6593833"><ele>11.0</ele><time>2026-05-01T10:03:01.409Z</time></trkpt><trkpt lat="45.10398" lon="11.6595267"><ele>11.0</ele><time>2026-05-01T10:03:03.422Z</time></trkpt><trkpt lat="45.1039317" lon="11.6596733"><ele>10.5</ele><time>2026-05-01T10:03:05.425Z</time></trkpt><trkpt lat="45.10387" lon="11.659815"><ele>10.0</ele><time>2026-05-01T10:03:07.427Z</time></trkpt><trkpt lat="45.1038" lon="11.6599417"><ele>9.5</ele><time>2026-05-01T10:03:09.428Z</time></trkpt><trkpt lat="45.1037267" lon="11.66006"><ele>9.0</ele><time>2026-05-01T10:03:11.406Z</time></trkpt><trkpt lat="45.1036517" lon="11.6601783"><ele>9.5</ele><time>2026-05-01T10:03:13.426Z</time></trkpt><trkpt lat="45.1035683" lon="11.660295"><ele>10.0</ele><time>2026-05-01T10:03:15.425Z</time></trkpt><trkpt lat="45.10349" lon="11.6604167"><ele>10.5</ele><time>2026-05-01T10:03:17.425Z</time></trkpt><trkpt lat="45.1034117" lon="11.660535"><ele>11.0</ele><time>2026-05-01T10:03:19.426Z</time></trkpt><trkpt lat="45.10333" lon="11.6606483"><ele>11.0</ele><time>2026-05-01T10:03:21.424Z</time></trkpt><trkpt lat="45.10325" lon="11.6607683"><ele>11.0</ele><time>2026-05-01T10:03:23.405Z</time></trkpt><trkpt lat="45.1031683" lon="11.6608933"><ele>11.0</ele><time>2026-05-01T10:03:25.389Z</time></trkpt><trkpt lat="45.10308" lon="11.661015"><ele>11.0</ele><time>2026-05-01T10:03:27.428Z</time></trkpt><trkpt lat="45.1030317" lon="11.661075"><ele>11.0</ele><time>2026-05-01T10:03:28.421Z</time></trkpt><trkpt lat="45.1029317" lon="11.6611717"><ele>10.333333333333332</ele><time>2026-05-01T10:03:30.414Z</time></trkpt><trkpt lat="45.102825" lon="11.66126"><ele>9.666666666666666</ele><time>2026-05-01T10:03:32.423Z</time></trkpt><trkpt lat="45.1027683" lon="11.661305"><ele>9.0</ele><time>2026-05-01T10:03:33.422Z</time></trkpt><trkpt lat="45.10271" lon="11.6613483"><ele>8.333333333333334</ele><time>2026-05-01T10:03:34.425Z</time></trkpt><trkpt lat="45.1026483" lon="11.661385"><ele>7.666666666666667</ele><time>2026-05-01T10:03:35.417Z</time></trkpt><trkpt lat="45.1025883" lon="11.6614167"><ele>7.0</ele><time>2026-05-01T10:03:36.422Z</time></trkpt><trkpt lat="45.1024767" lon="11.6614883"><ele>7.199999999999999</ele><time>2026-05-01T10:03:38.429Z</time></trkpt><trkpt lat="45.1023717" lon="11.661585"><ele>7.3999999999999995</ele><time>2026-05-01T10:03:40.427Z</time></trkpt><trkpt lat="45.102315" lon="11.6616317"><ele>7.6000000000000005</ele><time>2026-05-01T10:03:41.427Z</time></trkpt><trkpt lat="45.10221" lon="11.6617117"><ele>7.800000000000001</ele><time>2026-05-01T10:03:43.399Z</time></trkpt><trkpt lat="45.1021083" lon="11.6617833"><ele>8.0</ele><time>2026-05-01T10:03:45.426Z</time></trkpt><trkpt lat="45.1020067" lon="11.6618583"><ele>8.0</ele><time>2026-05-01T10:03:47.427Z</time></trkpt><trkpt lat="45.1019067" lon="11.661925"><ele>8.0</ele><time>2026-05-01T10:03:49.42Z</time></trkpt><trkpt lat="45.1018067" lon="11.6619933"><ele>8.0</ele><time>2026-05-01T10:03:51.423Z</time></trkpt><trkpt lat="45.1017033" lon="11.66207"><ele>8.0</ele><time>2026-05-01T10:03:53.426Z</time></trkpt><trkpt lat="45.1016017" lon="11.662145"><ele>8.200000000000001</ele><time>2026-05-01T10:03:55.414Z</time></trkpt><trkpt lat="45.1014983" lon="11.66223"><ele>8.4</ele><time>2026-05-01T10:03:57.427Z</time></trkpt><trkpt lat="45.1014033" lon="11.6623033"><ele>8.600000000000001</ele><time>2026-05-01T10:03:59.424Z</time></trkpt><trkpt lat="45.1013167" lon="11.662375"><ele>8.8</ele><time>2026-05-01T10:04:01.43Z</time></trkpt><trkpt lat="45.10123" lon="11.662455"><ele>9.0</ele><time>2026-05-01T10:04:03.426Z</time></trkpt><trkpt lat="45.1011433" lon="11.6625317"><ele>9.0</ele><time>2026-05-01T10:04:05.5Z</time></trkpt><trkpt lat="45.1010733" lon="11.6626217"><ele>9.0</ele><time>2026-05-01T10:04:07.468Z</time></trkpt><trkpt lat="45.1009883" lon="11.662685"><ele>9.0</ele><time>2026-05-01T10:04:09.381Z</time></trkpt><trkpt lat="45.1008867" lon="11.6627333"><ele>9.0</ele><time>2026-05-01T10:04:11.397Z</time></trkpt><trkpt lat="45.1007983" lon="11.6628033"><ele>9.0</ele><time>2026-05-01T10:04:13.407Z</time></trkpt><trkpt lat="45.100715" lon="11.662845"><ele>8.833333333333334</ele><time>2026-05-01T10:04:15.404Z</time></trkpt><trkpt lat="45.100615" lon="11.6627717"><ele>8.666666666666666</ele><time>2026-05-01T10:04:18.409Z</time></trkpt><trkpt lat="45.1005783" lon="11.662665"><ele>8.5</ele><time>2026-05-01T10:04:20.411Z</time></trkpt><trkpt lat="45.1005367" lon="11.6625767"><ele>8.333333333333332</ele><time>2026-05-01T10:04:22.416Z</time></trkpt><trkpt lat="45.1004667" lon="11.6625567"><ele>8.166666666666666</ele><time>2026-05-01T10:04:24.425Z</time></trkpt><trkpt lat="45.10039" lon="11.662595"><ele>8.0</ele><time>2026-05-01T10:04:26.42Z</time></trkpt><trkpt lat="45.1003117" lon="11.6626483"><ele>8.0</ele><time>2026-05-01T10:04:28.424Z</time></trkpt><trkpt lat="45.1002333" lon="11.6627083"><ele>8.0</ele><time>2026-05-01T10:04:30.407Z</time></trkpt><trkpt lat="45.1001517" lon="11.6627117"><ele>8.0</ele><time>2026-05-01T10:04:32.424Z</time></trkpt><trkpt lat="45.1000917" lon="11.6626267"><ele>8.0</ele><time>2026-05-01T10:04:34.426Z</time></trkpt><trkpt lat="45.1000533" lon="11.6624917"><ele>8.0</ele><time>2026-05-01T10:04:36.399Z</time></trkpt><trkpt lat="45.100015" lon="11.6623517"><ele>8.0</ele><time>2026-05-01T10:04:38.428Z</time></trkpt><trkpt lat="45.09998" lon="11.6622117"><ele>8.0</ele><time>2026-05-01T10:04:40.418Z</time></trkpt><trkpt lat="45.0999333" lon="11.6620717"><ele>8.0</ele><time>2026-05-01T10:04:42.429Z</time></trkpt><trkpt lat="45.0998867" lon="11.6619233"><ele>8.0</ele><time>2026-05-01T10:04:44.429Z</time></trkpt><trkpt lat="45.09984" lon="11.6617733"><ele>8.0</ele><time>2026-05-01T10:04:46.43Z</time></trkpt><trkpt lat="45.0998017" lon="11.6616233"><ele>7.800000000000001</ele><time>2026-05-01T10:04:48.428Z</time></trkpt><trkpt lat="45.0997617" lon="11.66148"><ele>7.6000000000000005</ele><time>2026-05-01T10:04:50.427Z</time></trkpt><trkpt lat="45.0997183" lon="11.66134"><ele>7.3999999999999995</ele><time>2026-05-01T10:04:52.396Z</time></trkpt><trkpt lat="45.0996767" lon="11.6612017"><ele>7.199999999999999</ele><time>2026-05-01T10:04:54.423Z</time></trkpt><trkpt lat="45.099635" lon="11.6610717"><ele>7.0</ele><time>2026-05-01T10:04:56.426Z</time></trkpt><trkpt lat="45.0995867" lon="11.6609517"><ele>7.0</ele><time>2026-05-01T10:04:58.423Z</time></trkpt><trkpt lat="45.0995083" lon="11.660875"><ele>6.999999999999999</ele><time>2026-05-01T10:05:00.428Z</time></trkpt><trkpt lat="45.09941" lon="11.6609033"><ele>6.999999999999999</ele><time>2026-05-01T10:05:02.426Z</time></trkpt><trkpt lat="45.0993183" lon="11.6609667"><ele>7.0</ele><time>2026-05-01T10:05:04.427Z</time></trkpt><trkpt lat="45.0992267" lon="11.6610267"><ele>7.0</ele><time>2026-05-01T10:05:06.42Z</time></trkpt><trkpt lat="45.0991333" lon="11.6610767"><ele>6.8</ele><time>2026-05-01T10:05:08.4Z</time></trkpt><trkpt lat="45.0990433" lon="11.6611283"><ele>6.6</ele><time>2026-05-01T10:05:10.417Z</time></trkpt><trkpt lat="45.0989467" lon="11.6611767"><ele>6.3999999999999995</ele><time>2026-05-01T10:05:12.422Z</time></trkpt><trkpt lat="45.098845" lon="11.6611933"><ele>6.199999999999999</ele><time>2026-05-01T10:05:14.427Z</time></trkpt><trkpt lat="45.0987483" lon="11.66113"><ele>6.0</ele><time>2026-05-01T10:05:16.4Z</time></trkpt><trkpt lat="45.098665" lon="11.661025"><ele>5.8</ele><time>2026-05-01T10:05:18.427Z</time></trkpt><trkpt lat="45.0985883" lon="11.6609167"><ele>5.6</ele><time>2026-05-01T10:05:20.421Z</time></trkpt><trkpt lat="45.098515" lon="11.6608133"><ele>5.4</ele><time>2026-05-01T10:05:22.432Z</time></trkpt><trkpt lat="45.0984317" lon="11.6607417"><ele>5.2</ele><time>2026-05-01T10:05:24.417Z</time></trkpt><trkpt lat="45.0983333" lon="11.6607633"><ele>5.0</ele><time>2026-05-01T10:05:26.428Z</time></trkpt><trkpt lat="45.0982417" lon="11.660855"><ele>5.0</ele><time>2026-05-01T10:05:28.43Z</time></trkpt><trkpt lat="45.0981467" lon="11.66095"><ele>5.0</ele><time>2026-05-01T10:05:30.422Z</time></trkpt><trkpt lat="45.0980533" lon="11.6610433"><ele>5.0</ele><time>2026-05-01T10:05:32.43Z</time></trkpt><trkpt lat="45.0979633" lon="11.66113"><ele>5.0</ele><time>2026-05-01T10:05:34.429Z</time></trkpt><trkpt lat="45.0978767" lon="11.661205"><ele>5.0</ele><time>2026-05-01T10:05:36.421Z</time></trkpt><trkpt lat="45.0978133" lon="11.6612567"><ele>5.0</ele><time>2026-05-01T10:05:38.424Z</time></trkpt><trkpt lat="45.09775" lon="11.6613217"><ele>5.0</ele><time>2026-05-01T10:05:40.406Z</time></trkpt><trkpt lat="45.0976983" lon="11.6614217"><ele>5.0</ele><time>2026-05-01T10:05:42.426Z</time></trkpt><trkpt lat="45.09766" lon="11.661545"><ele>5.0</ele><time>2026-05-01T10:05:44.43Z</time></trkpt><trkpt lat="45.097615" lon="11.661675"><ele>5.0</ele><time>2026-05-01T10:05:46.414Z</time></trkpt><trkpt lat="45.097575" lon="11.6618067"><ele>5.0</ele><time>2026-05-01T10:05:48.414Z</time></trkpt><trkpt lat="45.0975317" lon="11.6619367"><ele>5.0</ele><time>2026-05-01T10:05:50.423Z</time></trkpt><trkpt lat="45.09749" lon="11.6620683"><ele>5.0</ele><time>2026-05-01T10:05:52.422Z</time></trkpt><trkpt lat="45.097445" lon="11.6622017"><ele>5.0</ele><time>2026-05-01T10:05:54.431Z</time></trkpt><trkpt lat="45.0973983" lon="11.6623317"><ele>5.0</ele><time>2026-05-01T10:05:56.403Z</time></trkpt><trkpt lat="45.0973533" lon="11.6624533"><ele>5.2</ele><time>2026-05-01T10:05:58.464Z</time></trkpt><trkpt lat="45.0973283" lon="11.6625767"><ele>5.4</ele><time>2026-05-01T10:06:00.417Z</time></trkpt><trkpt lat="45.097275" lon="11.6627067"><ele>5.6</ele><time>2026-05-01T10:06:02.386Z</time></trkpt><trkpt lat="45.0972283" lon="11.6628467"><ele>5.8</ele><time>2026-05-01T10:06:04.401Z</time></trkpt><trkpt lat="45.0971767" lon="11.6629633"><ele>6.0</ele><time>2026-05-01T10:06:06.397Z</time></trkpt><trkpt lat="45.0971283" lon="11.6630867"><ele>6.0</ele><time>2026-05-01T10:06:08.409Z</time></trkpt><trkpt lat="45.0970817" lon="11.6632217"><ele>6.0</ele><time>2026-05-01T10:06:10.425Z</time></trkpt><trkpt lat="45.0970333" lon="11.6633633"><ele>6.0</ele><time>2026-05-01T10:06:12.403Z</time></trkpt><trkpt lat="45.09699" lon="11.6635117"><ele>6.0</ele><time>2026-05-01T10:06:14.427Z</time></trkpt><trkpt lat="45.0969533" lon="11.6636483"><ele>6.0</ele><time>2026-05-01T10:06:16.419Z</time></trkpt><trkpt lat="45.0969217" lon="11.6637817"><ele>6.0</ele><time>2026-05-01T10:06:18.411Z</time></trkpt><trkpt lat="45.096885" lon="11.6639167"><ele>6.0</ele><time>2026-05-01T10:06:20.402Z</time></trkpt><trkpt lat="45.0968417" lon="11.6640483"><ele>6.0</ele><time>2026-05-01T10:06:22.424Z</time></trkpt><trkpt lat="45.0968067" lon="11.6641783"><ele>6.0</ele><time>2026-05-01T10:06:24.417Z</time></trkpt><trkpt lat="45.0967567" lon="11.6642833"><ele>6.0</ele><time>2026-05-01T10:06:26.415Z</time></trkpt><trkpt lat="45.0967033" lon="11.664375"><ele>6.0</ele><time>2026-05-01T10:06:28.414Z</time></trkpt><trkpt lat="45.09664" lon="11.6644367"><ele>6.0</ele><time>2026-05-01T10:06:30.425Z</time></trkpt><trkpt lat="45.0965583" lon="11.6644733"><ele>6.0</ele><time>2026-05-01T10:06:32.419Z</time></trkpt><trkpt lat="45.0964617" lon="11.6644767"><ele>6.0</ele><time>2026-05-01T10:06:34.403Z</time></trkpt><trkpt lat="45.0963667" lon="11.66443"><ele>6.0</ele><time>2026-05-01T10:06:36.424Z</time></trkpt><trkpt lat="45.09627" lon="11.6643767"><ele>5.8</ele><time>2026-05-01T10:06:38.431Z</time></trkpt><trkpt lat="45.0961717" lon="11.6643117"><ele>5.6</ele><time>2026-05-01T10:06:40.421Z</time></trkpt><trkpt lat="45.0960767" lon="11.6642433"><ele>5.4</ele><time>2026-05-01T10:06:42.419Z</time></trkpt><trkpt lat="45.0959867" lon="11.6641833"><ele>5.2</ele><time>2026-05-01T10:06:44.405Z</time></trkpt><trkpt lat="45.0958983" lon="11.6641267"><ele>5.0</ele><time>2026-05-01T10:06:46.43Z</time></trkpt><trkpt lat="45.0958" lon="11.6640617"><ele>4.8</ele><time>2026-05-01T10:06:48.429Z</time></trkpt><trkpt lat="45.0957033" lon="11.6639917"><ele>4.6</ele><time>2026-05-01T10:06:50.433Z</time></trkpt><trkpt lat="45.0956067" lon="11.6639217"><ele>4.4</ele><time>2026-05-01T10:06:52.428Z</time></trkpt><trkpt lat="45.0955133" lon="11.663855"><ele>4.2</ele><time>2026-05-01T10:06:54.398Z</time></trkpt><trkpt lat="45.0954167" lon="11.6637867"><ele>4.0</ele><time>2026-05-01T10:06:56.429Z</time></trkpt><trkpt lat="45.0953167" lon="11.663715"><ele>4.0</ele><time>2026-05-01T10:06:58.43Z</time></trkpt><trkpt lat="45.095215" lon="11.6636467"><ele>4.0</ele><time>2026-05-01T10:07:00.405Z</time></trkpt><trkpt lat="45.095105" lon="11.66357"><ele>4.0</ele><time>2026-05-01T10:07:02.438Z</time></trkpt><trkpt lat="45.0949983" lon="11.6634967"><ele>4.0</ele><time>2026-05-01T10:07:04.409Z</time></trkpt><trkpt lat="45.094895" lon="11.663425"><ele>4.25</ele><time>2026-05-01T10:07:06.424Z</time></trkpt><trkpt lat="45.0947883" lon="11.6633517"><ele>4.5</ele><time>2026-05-01T10:07:08.433Z</time></trkpt><trkpt lat="45.09468" lon="11.6632733"><ele>4.75</ele><time>2026-05-01T10:07:10.4Z</time></trkpt><trkpt lat="45.09457" lon="11.663195"><ele>5.0</ele><time>2026-05-01T10:07:12.426Z</time></trkpt><trkpt lat="45.094465" lon="11.6631133"><ele>5.0</ele><time>2026-05-01T10:07:14.43Z</time></trkpt><trkpt lat="45.0944083" lon="11.6630733"><ele>5.0</ele><time>2026-05-01T10:07:15.427Z</time></trkpt><trkpt lat="45.0943" lon="11.6630033"><ele>5.0</ele><time>2026-05-01T10:07:17.404Z</time></trkpt><trkpt lat="45.0941917" lon="11.6629267"><ele>5.0</ele><time>2026-05-01T10:07:19.424Z</time></trkpt><trkpt lat="45.0940817" lon="11.66285"><ele>5.0</ele><time>2026-05-01T10:07:21.419Z</time></trkpt><trkpt lat="45.09397" lon="11.6627717"><ele>5.0</ele><time>2026-05-01T10:07:23.422Z</time></trkpt><trkpt lat="45.0938567" lon="11.6626967"><ele>5.0</ele><time>2026-05-01T10:07:25.428Z</time></trkpt><trkpt lat="45.0937467" lon="11.66262"><ele>5.0</ele><time>2026-05-01T10:07:27.424Z</time></trkpt><trkpt lat="45.093635" lon="11.6625433"><ele>5.0</ele><time>2026-05-01T10:07:29.431Z</time></trkpt><trkpt lat="45.0935267" lon="11.6624617"><ele>5.0</ele><time>2026-05-01T10:07:31.394Z</time></trkpt><trkpt lat="45.0934183" lon="11.6623917"><ele>5.0</ele><time>2026-05-01T10:07:33.431Z</time></trkpt><trkpt lat="45.0933083" lon="11.662315"><ele>5.0</ele><time>2026-05-01T10:07:35.427Z</time></trkpt><trkpt lat="45.0932517" lon="11.6622733"><ele>5.0</ele><time>2026-05-01T10:07:36.426Z</time></trkpt><trkpt lat="45.0931933" lon="11.6622317"><ele>5.0</ele><time>2026-05-01T10:07:37.429Z</time></trkpt><trkpt lat="45.09313" lon="11.6621867"><ele>5.0</ele><time>2026-05-01T10:07:38.429Z</time></trkpt><trkpt lat="45.093065" lon="11.66214"><ele>4.857142857142857</ele><time>2026-05-01T10:07:39.431Z</time></trkpt><trkpt lat="45.093" lon="11.6620917"><ele>4.714285714285714</ele><time>2026-05-01T10:07:40.43Z</time></trkpt><trkpt lat="45.0929367" lon="11.6620483"><ele>4.571428571428571</ele><time>2026-05-01T10:07:41.432Z</time></trkpt><trkpt lat="45.092875" lon="11.662005"><ele>4.428571428571429</ele><time>2026-05-01T10:07:42.43Z</time></trkpt><trkpt lat="45.0928117" lon="11.6619617"><ele>4.285714285714286</ele><time>2026-05-01T10:07:43.429Z</time></trkpt><trkpt lat="45.0927483" lon="11.661915"><ele>4.142857142857142</ele><time>2026-05-01T10:07:44.429Z</time></trkpt><trkpt lat="45.092685" lon="11.66187"><ele>4.0</ele><time>2026-05-01T10:07:45.432Z</time></trkpt><trkpt lat="45.0926233" lon="11.661825"><ele>3.9999999999999996</ele><time>2026-05-01T10:07:46.415Z</time></trkpt><trkpt lat="45.0925617" lon="11.66178"><ele>4.0</ele><time>2026-05-01T10:07:47.403Z</time></trkpt><trkpt lat="45.0924417" lon="11.6617167"><ele>4.0</ele><time>2026-05-01T10:07:49.394Z</time></trkpt><trkpt lat="45.0923767" lon="11.66167"><ele>4.0</ele><time>2026-05-01T10:07:50.397Z</time></trkpt><trkpt lat="45.0923133" lon="11.6616217"><ele>3.9999999999999996</ele><time>2026-05-01T10:07:51.413Z</time></trkpt><trkpt lat="45.092245" lon="11.6615717"><ele>4.0</ele><time>2026-05-01T10:07:52.408Z</time></trkpt><trkpt lat="45.0921767" lon="11.661525"><ele>4.0</ele><time>2026-05-01T10:07:53.471Z</time></trkpt><trkpt lat="45.0921083" lon="11.6614817"><ele>3.9999999999999996</ele><time>2026-05-01T10:07:54.416Z</time></trkpt><trkpt lat="45.0920467" lon="11.6614333"><ele>4.0</ele><time>2026-05-01T10:07:55.399Z</time></trkpt><trkpt lat="45.0919833" lon="11.6613933"><ele>4.0</ele><time>2026-05-01T10:07:56.408Z</time></trkpt><trkpt lat="45.0919133" lon="11.6613483"><ele>3.9999999999999996</ele><time>2026-05-01T10:07:57.418Z</time></trkpt><trkpt lat="45.0918467" lon="11.661305"><ele>4.0</ele><time>2026-05-01T10:07:58.418Z</time></trkpt><trkpt lat="45.0917817" lon="11.66126"><ele>4.0</ele><time>2026-05-01T10:07:59.415Z</time></trkpt><trkpt lat="45.0917183" lon="11.6612183"><ele>3.9999999999999996</ele><time>2026-05-01T10:08:00.47Z</time></trkpt><trkpt lat="45.0916567" lon="11.6611867"><ele>4.0</ele><time>2026-05-01T10:08:01.468Z</time></trkpt><trkpt lat="45.091545" lon="11.661095"><ele>4.0</ele><time>2026-05-01T10:08:03.44Z</time></trkpt><trkpt lat="45.0914733" lon="11.661035"><ele>4.0</ele><time>2026-05-01T10:08:04.391Z</time></trkpt><trkpt lat="45.0914083" lon="11.6609933"><ele>3.9999999999999996</ele><time>2026-05-01T10:08:05.397Z</time></trkpt><trkpt lat="45.0913417" lon="11.6609417"><ele>4.0</ele><time>2026-05-01T10:08:06.406Z</time></trkpt><trkpt lat="45.0912783" lon="11.66089"><ele>4.166666666666666</ele><time>2026-05-01T10:08:07.393Z</time></trkpt><trkpt lat="45.0912083" lon="11.6608467"><ele>4.333333333333333</ele><time>2026-05-01T10:08:08.389Z</time></trkpt><trkpt lat="45.09114" lon="11.6608067"><ele>4.5</ele><time>2026-05-01T10:08:09.389Z</time></trkpt><trkpt lat="45.0910633" lon="11.660755"><ele>4.666666666666667</ele><time>2026-05-01T10:08:10.387Z</time></trkpt><trkpt lat="45.0909867" lon="11.6607"><ele>4.833333333333334</ele><time>2026-05-01T10:08:11.386Z</time></trkpt><trkpt lat="45.090915" lon="11.6606483"><ele>5.0</ele><time>2026-05-01T10:08:12.409Z</time></trkpt><trkpt lat="45.0908467" lon="11.6605983"><ele>5.0</ele><time>2026-05-01T10:08:13.384Z</time></trkpt><trkpt lat="45.0907767" lon="11.6605467"><ele>5.0</ele><time>2026-05-01T10:08:14.383Z</time></trkpt><trkpt lat="45.0907117" lon="11.6604967"><ele>5.0</ele><time>2026-05-01T10:08:15.384Z</time></trkpt><trkpt lat="45.0906433" lon="11.66045"><ele>5.0</ele><time>2026-05-01T10:08:16.398Z</time></trkpt><trkpt lat="45.0905783" lon="11.660405"><ele>5.0</ele><time>2026-05-01T10:08:17.383Z</time></trkpt><trkpt lat="45.09051" lon="11.6603583"><ele>5.0</ele><time>2026-05-01T10:08:18.394Z</time></trkpt><trkpt lat="45.0904433" lon="11.660315"><ele>5.0</ele><time>2026-05-01T10:08:19.38Z</time></trkpt><trkpt lat="45.090375" lon="11.6602733"><ele>5.0</ele><time>2026-05-01T10:08:20.386Z</time></trkpt><trkpt lat="45.0903083" lon="11.6602333"><ele>5.0</ele><time>2026-05-01T10:08:21.38Z</time></trkpt><trkpt lat="45.09024" lon="11.6601983"><ele>5.0</ele><time>2026-05-01T10:08:22.397Z</time></trkpt><trkpt lat="45.09017" lon="11.6601683"><ele>5.0</ele><time>2026-05-01T10:08:23.39Z</time></trkpt><trkpt lat="45.0901017" lon="11.66014"><ele>5.0</ele><time>2026-05-01T10:08:24.384Z</time></trkpt><trkpt lat="45.0900333" lon="11.6601133"><ele>5.0</ele><time>2026-05-01T10:08:25.383Z</time></trkpt><trkpt lat="45.0899633" lon="11.6600883"><ele>5.0</ele><time>2026-05-01T10:08:26.385Z</time></trkpt><trkpt lat="45.0898917" lon="11.660065"><ele>5.0</ele><time>2026-05-01T10:08:27.386Z</time></trkpt><trkpt lat="45.08982" lon="11.66004"><ele>5.0</ele><time>2026-05-01T10:08:28.381Z</time></trkpt><trkpt lat="45.08975" lon="11.6600183"><ele>5.0</ele><time>2026-05-01T10:08:29.408Z</time></trkpt><trkpt lat="45.0896817" lon="11.6600017"><ele>5.0</ele><time>2026-05-01T10:08:30.405Z</time></trkpt><trkpt lat="45.0896117" lon="11.6599833"><ele>5.0</ele><time>2026-05-01T10:08:31.402Z</time></trkpt><trkpt lat="45.0895433" lon="11.65998"><ele>5.0</ele><time>2026-05-01T10:08:32.383Z</time></trkpt><trkpt lat="45.08947" lon="11.6599667"><ele>5.0</ele><time>2026-05-01T10:08:33.396Z</time></trkpt><trkpt lat="45.089395" lon="11.6599583"><ele>5.0</ele><time>2026-05-01T10:08:34.384Z</time></trkpt><trkpt lat="45.0893233" lon="11.65995"><ele>5.0</ele><time>2026-05-01T10:08:35.386Z</time></trkpt><trkpt lat="45.0892517" lon="11.6599467"><ele>5.0</ele><time>2026-05-01T10:08:36.383Z</time></trkpt><trkpt lat="45.0891833" lon="11.6599417"><ele>5.0</ele><time>2026-05-01T10:08:37.39Z</time></trkpt><trkpt lat="45.089115" lon="11.6599383"><ele>5.0</ele><time>2026-05-01T10:08:38.384Z</time></trkpt><trkpt lat="45.0890467" lon="11.6599367"><ele>5.0</ele><time>2026-05-01T10:08:39.384Z</time></trkpt><trkpt lat="45.0889783" lon="11.6599333"><ele>4.857142857142857</ele><time>2026-05-01T10:08:40.379Z</time></trkpt><trkpt lat="45.08891" lon="11.6599283"><ele>4.714285714285714</ele><time>2026-05-01T10:08:41.384Z</time></trkpt><trkpt lat="45.08884" lon="11.659925"><ele>4.571428571428571</ele><time>2026-05-01T10:08:42.386Z</time></trkpt><trkpt lat="45.0887717" lon="11.6599217"><ele>4.428571428571429</ele><time>2026-05-01T10:08:43.38Z</time></trkpt><trkpt lat="45.088705" lon="11.65992"><ele>4.285714285714286</ele><time>2026-05-01T10:08:44.381Z</time></trkpt><trkpt lat="45.0886383" lon="11.65992"><ele>4.142857142857142</ele><time>2026-05-01T10:08:45.398Z</time></trkpt><trkpt lat="45.0885683" lon="11.6599183"><ele>4.0</ele><time>2026-05-01T10:08:46.384Z</time></trkpt><trkpt lat="45.0884983" lon="11.659915"><ele>4.0</ele><time>2026-05-01T10:08:47.395Z</time></trkpt><trkpt lat="45.08843" lon="11.6599117"><ele>3.9999999999999996</ele><time>2026-05-01T10:08:48.384Z</time></trkpt><trkpt lat="45.0883633" lon="11.65991"><ele>4.0</ele><time>2026-05-01T10:08:49.382Z</time></trkpt><trkpt lat="45.0882967" lon="11.65991"><ele>4.0</ele><time>2026-05-01T10:08:50.384Z</time></trkpt><trkpt lat="45.0882283" lon="11.6599067"><ele>3.9999999999999996</ele><time>2026-05-01T10:08:51.383Z</time></trkpt><trkpt lat="45.08816" lon="11.659905"><ele>4.0</ele><time>2026-05-01T10:08:52.386Z</time></trkpt><trkpt lat="45.0880933" lon="11.6599"><ele>4.0</ele><time>2026-05-01T10:08:53.391Z</time></trkpt><trkpt lat="45.0880267" lon="11.659895"><ele>4.142857142857142</ele><time>2026-05-01T10:08:54.382Z</time></trkpt><trkpt lat="45.08796" lon="11.65989"><ele>4.285714285714286</ele><time>2026-05-01T10:08:55.396Z</time></trkpt><trkpt lat="45.0878917" lon="11.6598883"><ele>4.428571428571429</ele><time>2026-05-01T10:08:56.376Z</time></trkpt><trkpt lat="45.0878217" lon="11.659885"><ele>4.571428571428571</ele><time>2026-05-01T10:08:57.387Z</time></trkpt><trkpt lat="45.0877517" lon="11.6598833"><ele>4.714285714285714</ele><time>2026-05-01T10:08:58.386Z</time></trkpt><trkpt lat="45.0876817" lon="11.65988"><ele>4.857142857142857</ele><time>2026-05-01T10:08:59.383Z</time></trkpt><trkpt lat="45.0876133" lon="11.6598783"><ele>5.0</ele><time>2026-05-01T10:09:00.385Z</time></trkpt><trkpt lat="45.087545" lon="11.6598783"><ele>5.0</ele><time>2026-05-01T10:09:01.393Z</time></trkpt><trkpt lat="45.0874767" lon="11.6598767"><ele>5.0</ele><time>2026-05-01T10:09:02.379Z</time></trkpt><trkpt lat="45.0874083" lon="11.659875"><ele>5.0</ele><time>2026-05-01T10:09:03.38Z</time></trkpt><trkpt lat="45.0873383" lon="11.6598717"><ele>5.0</ele><time>2026-05-01T10:09:04.405Z</time></trkpt><trkpt lat="45.08727" lon="11.65987"><ele>5.0</ele><time>2026-05-01T10:09:05.396Z</time></trkpt><trkpt lat="45.0872033" lon="11.65987"><ele>5.0</ele><time>2026-05-01T10:09:06.381Z</time></trkpt><trkpt lat="45.0871333" lon="11.6598717"><ele>5.0</ele><time>2026-05-01T10:09:07.383Z</time></trkpt><trkpt lat="45.0870633" lon="11.65987"><ele>5.0</ele><time>2026-05-01T10:09:08.408Z</time></trkpt><trkpt lat="45.086995" lon="11.6598683"><ele>5.0</ele><time>2026-05-01T10:09:09.447Z</time></trkpt><trkpt lat="45.086925" lon="11.6598683"><ele>5.0</ele><time>2026-05-01T10:09:10.504Z</time></trkpt><trkpt lat="45.0868567" lon="11.659875"><ele>5.0</ele><time>2026-05-01T10:09:11.508Z</time></trkpt><trkpt lat="45.0867867" lon="11.6598733"><ele>5.0</ele><time>2026-05-01T10:09:12.497Z</time></trkpt><trkpt lat="45.0866483" lon="11.6598667"><ele>5.0</ele><time>2026-05-01T10:09:14.389Z</time></trkpt><trkpt lat="45.0865717" lon="11.659865"><ele>4.857142857142857</ele><time>2026-05-01T10:09:15.385Z</time></trkpt><trkpt lat="45.0865017" lon="11.6598567"><ele>4.714285714285714</ele><time>2026-05-01T10:09:16.384Z</time></trkpt><trkpt lat="45.0864233" lon="11.6598667"><ele>4.571428571428571</ele><time>2026-05-01T10:09:17.384Z</time></trkpt><trkpt lat="45.0863483" lon="11.6598817"><ele>4.428571428571429</ele><time>2026-05-01T10:09:18.384Z</time></trkpt><trkpt lat="45.08628" lon="11.6598783"><ele>4.285714285714286</ele><time>2026-05-01T10:09:19.406Z</time></trkpt><trkpt lat="45.0862083" lon="11.6598667"><ele>4.142857142857142</ele><time>2026-05-01T10:09:20.394Z</time></trkpt><trkpt lat="45.0861383" lon="11.6598583"><ele>4.0</ele><time>2026-05-01T10:09:21.383Z</time></trkpt><trkpt lat="45.08606" lon="11.6598417"><ele>4.0</ele><time>2026-05-01T10:09:22.387Z</time></trkpt><trkpt lat="45.085985" lon="11.6598417"><ele>3.9999999999999996</ele><time>2026-05-01T10:09:23.382Z</time></trkpt><trkpt lat="45.0859117" lon="11.65984"><ele>4.0</ele><time>2026-05-01T10:09:24.43Z</time></trkpt><trkpt lat="45.0858383" lon="11.6598383"><ele>4.0</ele><time>2026-05-01T10:09:25.382Z</time></trkpt><trkpt lat="45.0857667" lon="11.6598367"><ele>3.9999999999999996</ele><time>2026-05-01T10:09:26.394Z</time></trkpt><trkpt lat="45.085695" lon="11.659835"><ele>4.0</ele><time>2026-05-01T10:09:27.392Z</time></trkpt><trkpt lat="45.0856217" lon="11.6598333"><ele>4.0</ele><time>2026-05-01T10:09:28.377Z</time></trkpt><trkpt lat="45.08555" lon="11.65983"><ele>4.142857142857142</ele><time>2026-05-01T10:09:29.397Z</time></trkpt><trkpt lat="45.0854767" lon="11.6598283"><ele>4.285714285714286</ele><time>2026-05-01T10:09:30.384Z</time></trkpt><trkpt lat="45.0854017" lon="11.659825"><ele>4.428571428571429</ele><time>2026-05-01T10:09:31.389Z</time></trkpt><trkpt lat="45.0853283" lon="11.6598233"><ele>4.571428571428571</ele><time>2026-05-01T10:09:32.389Z</time></trkpt><trkpt lat="45.0852533" lon="11.6598217"><ele>4.714285714285714</ele><time>2026-05-01T10:09:33.423Z</time></trkpt><trkpt lat="45.0851783" lon="11.659825"><ele>4.857142857142857</ele><time>2026-05-01T10:09:34.432Z</time></trkpt><trkpt lat="45.0851033" lon="11.6598317"><ele>5.0</ele><time>2026-05-01T10:09:35.421Z</time></trkpt><trkpt lat="45.08503" lon="11.6598467"><ele>5.0</ele><time>2026-05-01T10:09:36.417Z</time></trkpt><trkpt lat="45.0849533" lon="11.6598667"><ele>5.0</ele><time>2026-05-01T10:09:37.419Z</time></trkpt><trkpt lat="45.0848783" lon="11.659885"><ele>5.0</ele><time>2026-05-01T10:09:38.425Z</time></trkpt><trkpt lat="45.0848033" lon="11.65991"><ele>5.0</ele><time>2026-05-01T10:09:39.408Z</time></trkpt><trkpt lat="45.08473" lon="11.6599283"><ele>5.0</ele><time>2026-05-01T10:09:40.434Z</time></trkpt><trkpt lat="45.08466" lon="11.65995"><ele>5.0</ele><time>2026-05-01T10:09:41.407Z</time></trkpt><trkpt lat="45.0845883" lon="11.6599717"><ele>4.714285714285714</ele><time>2026-05-01T10:09:42.423Z</time></trkpt><trkpt lat="45.0845167" lon="11.65999"><ele>4.428571428571429</ele><time>2026-05-01T10:09:43.476Z</time></trkpt><trkpt lat="45.08445" lon="11.660015"><ele>4.142857142857142</ele><time>2026-05-01T10:09:44.442Z</time></trkpt><trkpt lat="45.0843783" lon="11.6600367"><ele>3.8571428571428568</ele><time>2026-05-01T10:09:45.502Z</time></trkpt><trkpt lat="45.0843033" lon="11.66005"><ele>3.571428571428571</ele><time>2026-05-01T10:09:46.405Z</time></trkpt><trkpt lat="45.0842367" lon="11.660085"><ele>3.2857142857142856</ele><time>2026-05-01T10:09:47.383Z</time></trkpt><trkpt lat="45.0841667" lon="11.66011"><ele>3.0</ele><time>2026-05-01T10:09:48.376Z</time></trkpt><trkpt lat="45.0840933" lon="11.6601333"><ele>2.9999999999999996</ele><time>2026-05-01T10:09:49.376Z</time></trkpt><trkpt lat="45.084025" lon="11.6601583"><ele>3.0</ele><time>2026-05-01T10:09:50.393Z</time></trkpt><trkpt lat="45.08395" lon="11.6601767"><ele>3.0</ele><time>2026-05-01T10:09:51.385Z</time></trkpt><trkpt lat="45.0838783" lon="11.6601983"><ele>3.0</ele><time>2026-05-01T10:09:52.387Z</time></trkpt><trkpt lat="45.0838067" lon="11.6602183"><ele>3.0</ele><time>2026-05-01T10:09:53.381Z</time></trkpt><trkpt lat="45.083735" lon="11.6602383"><ele>2.9999999999999996</ele><time>2026-05-01T10:09:54.384Z</time></trkpt><trkpt lat="45.0836633" lon="11.6602583"><ele>3.0</ele><time>2026-05-01T10:09:55.389Z</time></trkpt><trkpt lat="45.0835933" lon="11.66028"><ele>3.1428571428571423</ele><time>2026-05-01T10:09:56.382Z</time></trkpt><trkpt lat="45.08352" lon="11.6603"><ele>3.2857142857142856</ele><time>2026-05-01T10:09:57.384Z</time></trkpt><trkpt lat="45.08345" lon="11.66032"><ele>3.4285714285714284</ele><time>2026-05-01T10:09:58.385Z</time></trkpt><trkpt lat="45.0833767" lon="11.6603417"><ele>3.571428571428571</ele><time>2026-05-01T10:09:59.385Z</time></trkpt><trkpt lat="45.0833067" lon="11.6603617"><ele>3.714285714285714</ele><time>2026-05-01T10:10:00.387Z</time></trkpt><trkpt lat="45.083235" lon="11.6603783"><ele>3.8571428571428568</ele><time>2026-05-01T10:10:01.385Z</time></trkpt><trkpt lat="45.0831617" lon="11.660395"><ele>4.0</ele><time>2026-05-01T10:10:02.385Z</time></trkpt><trkpt lat="45.0830883" lon="11.6604117"><ele>4.142857142857142</ele><time>2026-05-01T10:10:03.392Z</time></trkpt><trkpt lat="45.0830167" lon="11.6604267"><ele>4.285714285714286</ele><time>2026-05-01T10:10:04.391Z</time></trkpt><trkpt lat="45.082945" lon="11.66044"><ele>4.428571428571429</ele><time>2026-05-01T10:10:05.395Z</time></trkpt><trkpt lat="45.0828733" lon="11.66045"><ele>4.571428571428571</ele><time>2026-05-01T10:10:06.382Z</time></trkpt><trkpt lat="45.0828017" lon="11.66046"><ele>4.714285714285714</ele><time>2026-05-01T10:10:07.379Z</time></trkpt><trkpt lat="45.08273" lon="11.660465"><ele>4.857142857142857</ele><time>2026-05-01T10:10:08.383Z</time></trkpt><trkpt lat="45.0826583" lon="11.6604683"><ele>5.0</ele><time>2026-05-01T10:10:09.386Z</time></trkpt><trkpt lat="45.0825867" lon="11.6604683"><ele>5.0</ele><time>2026-05-01T10:10:10.39Z</time></trkpt><trkpt lat="45.082515" lon="11.6604683"><ele>5.0</ele><time>2026-05-01T10:10:11.379Z</time></trkpt><trkpt lat="45.0824417" lon="11.6604667"><ele>5.0</ele><time>2026-05-01T10:10:12.381Z</time></trkpt><trkpt lat="45.0823667" lon="11.660465"><ele>5.0</ele><time>2026-05-01T10:10:13.401Z</time></trkpt><trkpt lat="45.0822917" lon="11.66046"><ele>5.0</ele><time>2026-05-01T10:10:14.395Z</time></trkpt><trkpt lat="45.08222" lon="11.6604517"><ele>5.0</ele><time>2026-05-01T10:10:15.378Z</time></trkpt><trkpt lat="45.0821483" lon="11.66044"><ele>5.0</ele><time>2026-05-01T10:10:16.393Z</time></trkpt><trkpt lat="45.082075" lon="11.6604233"><ele>5.0</ele><time>2026-05-01T10:10:17.423Z</time></trkpt><trkpt lat="45.082" lon="11.6604067"><ele>5.0</ele><time>2026-05-01T10:10:18.391Z</time></trkpt><trkpt lat="45.0819283" lon="11.66039"><ele>5.0</ele><time>2026-05-01T10:10:19.396Z</time></trkpt><trkpt lat="45.0818567" lon="11.66037"><ele>5.0</ele><time>2026-05-01T10:10:20.381Z</time></trkpt><trkpt lat="45.0817883" lon="11.6603483"><ele>5.0</ele><time>2026-05-01T10:10:21.383Z</time></trkpt><trkpt lat="45.0817183" lon="11.6603267"><ele>5.0</ele><time>2026-05-01T10:10:22.381Z</time></trkpt><trkpt lat="45.0816467" lon="11.6603033"><ele>5.0</ele><time>2026-05-01T10:10:23.399Z</time></trkpt><trkpt lat="45.0815733" lon="11.66028"><ele>4.857142857142857</ele><time>2026-05-01T10:10:24.412Z</time></trkpt><trkpt lat="45.0815033" lon="11.6602533"><ele>4.714285714285714</ele><time>2026-05-01T10:10:25.391Z</time></trkpt><trkpt lat="45.081435" lon="11.6602233"><ele>4.571428571428571</ele><time>2026-05-01T10:10:26.408Z</time></trkpt><trkpt lat="45.081365" lon="11.6601933"><ele>4.428571428571429</ele><time>2026-05-01T10:10:27.387Z</time></trkpt><trkpt lat="45.0812983" lon="11.66016"><ele>4.285714285714286</ele><time>2026-05-01T10:10:28.389Z</time></trkpt><trkpt lat="45.08123" lon="11.6601233"><ele>4.142857142857142</ele><time>2026-05-01T10:10:29.385Z</time></trkpt><trkpt lat="45.0811617" lon="11.6600867"><ele>4.0</ele><time>2026-05-01T10:10:30.387Z</time></trkpt><trkpt lat="45.0810933" lon="11.6600517"><ele>4.0</ele><time>2026-05-01T10:10:31.393Z</time></trkpt><trkpt lat="45.081025" lon="11.6600167"><ele>3.9999999999999996</ele><time>2026-05-01T10:10:32.386Z</time></trkpt><trkpt lat="45.080955" lon="11.65998"><ele>4.0</ele><time>2026-05-01T10:10:33.391Z</time></trkpt><trkpt lat="45.0808867" lon="11.6599433"><ele>4.0</ele><time>2026-05-01T10:10:34.385Z</time></trkpt><trkpt lat="45.0808167" lon="11.6599083"><ele>3.9999999999999996</ele><time>2026-05-01T10:10:35.397Z</time></trkpt><trkpt lat="45.0807483" lon="11.65987"><ele>4.0</ele><time>2026-05-01T10:10:36.391Z</time></trkpt><trkpt lat="45.0806783" lon="11.65983"><ele>4.0</ele><time>2026-05-01T10:10:37.376Z</time></trkpt><trkpt lat="45.08061" lon="11.6597917"><ele>4.0</ele><time>2026-05-01T10:10:38.382Z</time></trkpt><trkpt lat="45.0805417" lon="11.6597517"><ele>3.9999999999999996</ele><time>2026-05-01T10:10:39.383Z</time></trkpt><trkpt lat="45.0804767" lon="11.6597083"><ele>4.0</ele><time>2026-05-01T10:10:40.398Z</time></trkpt><trkpt lat="45.0804117" lon="11.6596617"><ele>4.0</ele><time>2026-05-01T10:10:41.397Z</time></trkpt><trkpt lat="45.080345" lon="11.6596133"><ele>3.9999999999999996</ele><time>2026-05-01T10:10:42.384Z</time></trkpt><trkpt lat="45.0802817" lon="11.6595633"><ele>4.0</ele><time>2026-05-01T10:10:43.393Z</time></trkpt><trkpt lat="45.0802167" lon="11.6595117"><ele>4.0</ele><time>2026-05-01T10:10:44.385Z</time></trkpt><trkpt lat="45.080155" lon="11.6594533"><ele>4.0</ele><time>2026-05-01T10:10:45.389Z</time></trkpt><trkpt lat="45.080095" lon="11.6593917"><ele>3.9999999999999996</ele><time>2026-05-01T10:10:46.386Z</time></trkpt><trkpt lat="45.0800333" lon="11.65933"><ele>4.0</ele><time>2026-05-01T10:10:47.385Z</time></trkpt><trkpt lat="45.079975" lon="11.6592667"><ele>4.0</ele><time>2026-05-01T10:10:48.388Z</time></trkpt><trkpt lat="45.0799183" lon="11.6592"><ele>3.9999999999999996</ele><time>2026-05-01T10:10:49.386Z</time></trkpt><trkpt lat="45.0798617" lon="11.6591317"><ele>4.0</ele><time>2026-05-01T10:10:50.387Z</time></trkpt><trkpt lat="45.079805" lon="11.65906"><ele>4.0</ele><time>2026-05-01T10:10:51.383Z</time></trkpt><trkpt lat="45.0797533" lon="11.6589867"><ele>3.9999999999999996</ele><time>2026-05-01T10:10:52.383Z</time></trkpt><trkpt lat="45.0797" lon="11.6589117"><ele>4.0</ele><time>2026-05-01T10:10:53.387Z</time></trkpt><trkpt lat="45.0796483" lon="11.6588333"><ele>4.0</ele><time>2026-05-01T10:10:54.388Z</time></trkpt><trkpt lat="45.0795967" lon="11.658755"><ele>4.0</ele><time>2026-05-01T10:10:55.388Z</time></trkpt><trkpt lat="45.0795483" lon="11.6586717"><ele>3.9999999999999996</ele><time>2026-05-01T10:10:56.402Z</time></trkpt><trkpt lat="45.0795017" lon="11.65859"><ele>4.0</ele><time>2026-05-01T10:10:57.386Z</time></trkpt><trkpt lat="45.0794567" lon="11.6585083"><ele>3.714285714285714</ele><time>2026-05-01T10:10:58.389Z</time></trkpt><trkpt lat="45.07941" lon="11.6584283"><ele>3.428571428571428</ele><time>2026-05-01T10:10:59.424Z</time></trkpt><trkpt lat="45.0793633" lon="11.6583483"><ele>3.142857142857143</ele><time>2026-05-01T10:11:00.389Z</time></trkpt><trkpt lat="45.0793167" lon="11.6582667"><ele>2.8571428571428568</ele><time>2026-05-01T10:11:01.399Z</time></trkpt><trkpt lat="45.07927" lon="11.6581833"><ele>2.571428571428571</ele><time>2026-05-01T10:11:02.385Z</time></trkpt><trkpt lat="45.07922" lon="11.6580983"><ele>2.2857142857142856</ele><time>2026-05-01T10:11:03.396Z</time></trkpt><trkpt lat="45.0791717" lon="11.6580167"><ele>2.0</ele><time>2026-05-01T10:11:04.388Z</time></trkpt><trkpt lat="45.079125" lon="11.657935"><ele>1.8333333333333333</ele><time>2026-05-01T10:11:05.383Z</time></trkpt><trkpt lat="45.0790767" lon="11.65785"><ele>1.6666666666666665</ele><time>2026-05-01T10:11:06.383Z</time></trkpt><trkpt lat="45.0790283" lon="11.657765"><ele>1.5</ele><time>2026-05-01T10:11:07.389Z</time></trkpt><trkpt lat="45.07898" lon="11.65768"><ele>1.3333333333333333</ele><time>2026-05-01T10:11:08.383Z</time></trkpt><trkpt lat="45.07893" lon="11.657595"><ele>1.1666666666666665</ele><time>2026-05-01T10:11:09.389Z</time></trkpt><trkpt lat="45.0788833" lon="11.65751"><ele>1.0</ele><time>2026-05-01T10:11:10.385Z</time></trkpt><trkpt lat="45.078835" lon="11.6574267"><ele>0.9999999999999999</ele><time>2026-05-01T10:11:11.385Z</time></trkpt><trkpt lat="45.0787867" lon="11.6573417"><ele>1.0</ele><time>2026-05-01T10:11:12.393Z</time></trkpt><trkpt lat="45.07874" lon="11.657255"><ele>1.0</ele><time>2026-05-01T10:11:13.386Z</time></trkpt><trkpt lat="45.07869" lon="11.65717"><ele>1.0</ele><time>2026-05-01T10:11:14.381Z</time></trkpt><trkpt lat="45.0786383" lon="11.657085"><ele>0.9999999999999999</ele><time>2026-05-01T10:11:15.384Z</time></trkpt><trkpt lat="45.0785883" lon="11.6569983"><ele>1.0</ele><time>2026-05-01T10:11:16.382Z</time></trkpt><trkpt lat="45.0785367" lon="11.6569133"><ele>1.1666666666666665</ele><time>2026-05-01T10:11:17.382Z</time></trkpt><trkpt lat="45.0784867" lon="11.6568267"><ele>1.3333333333333333</ele><time>2026-05-01T10:11:18.396Z</time></trkpt><trkpt lat="45.0784367" lon="11.65674"><ele>1.5</ele><time>2026-05-01T10:11:19.389Z</time></trkpt><trkpt lat="45.0783833" lon="11.6566567"><ele>1.6666666666666665</ele><time>2026-05-01T10:11:20.397Z</time></trkpt><trkpt lat="45.07833" lon="11.65657"><ele>1.8333333333333333</ele><time>2026-05-01T10:11:21.38Z</time></trkpt><trkpt lat="45.0782767" lon="11.6564833"><ele>2.0</ele><time>2026-05-01T10:11:22.388Z</time></trkpt><trkpt lat="45.0782233" lon="11.6564"><ele>2.1666666666666665</ele><time>2026-05-01T10:11:23.382Z</time></trkpt><trkpt lat="45.0781683" lon="11.65632"><ele>2.333333333333333</ele><time>2026-05-01T10:11:24.389Z</time></trkpt><trkpt lat="45.0781117" lon="11.6562433"><ele>2.5</ele><time>2026-05-01T10:11:25.385Z</time></trkpt><trkpt lat="45.0780533" lon="11.6561667"><ele>2.6666666666666665</ele><time>2026-05-01T10:11:26.386Z</time></trkpt><trkpt lat="45.0779967" lon="11.656095"><ele>2.8333333333333335</ele><time>2026-05-01T10:11:27.382Z</time></trkpt><trkpt lat="45.0779367" lon="11.6560233"><ele>3.0</ele><time>2026-05-01T10:11:28.377Z</time></trkpt><trkpt lat="45.077875" lon="11.655955"><ele>3.1666666666666665</ele><time>2026-05-01T10:11:29.387Z</time></trkpt><trkpt lat="45.0778133" lon="11.6558883"><ele>3.333333333333333</ele><time>2026-05-01T10:11:30.407Z</time></trkpt><trkpt lat="45.0777483" lon="11.6558233"><ele>3.5</ele><time>2026-05-01T10:11:31.402Z</time></trkpt><trkpt lat="45.077685" lon="11.6557617"><ele>3.6666666666666665</ele><time>2026-05-01T10:11:32.382Z</time></trkpt><trkpt lat="45.0776183" lon="11.655705"><ele>3.833333333333333</ele><time>2026-05-01T10:11:33.387Z</time></trkpt><trkpt lat="45.0775517" lon="11.65565"><ele>4.0</ele><time>2026-05-01T10:11:34.385Z</time></trkpt><trkpt lat="45.077485" lon="11.6555967"><ele>4.166666666666666</ele><time>2026-05-01T10:11:35.405Z</time></trkpt><trkpt lat="45.0774167" lon="11.655545"><ele>4.333333333333333</ele><time>2026-05-01T10:11:36.451Z</time></trkpt><trkpt lat="45.0773483" lon="11.6554967"><ele>4.5</ele><time>2026-05-01T10:11:37.449Z</time></trkpt><trkpt lat="45.0772767" lon="11.655455"><ele>4.666666666666667</ele><time>2026-05-01T10:11:38.419Z</time></trkpt><trkpt lat="45.0772033" lon="11.655415"><ele>4.833333333333334</ele><time>2026-05-01T10:11:39.51Z</time></trkpt><trkpt lat="45.07713" lon="11.6553783"><ele>5.0</ele><time>2026-05-01T10:11:40.435Z</time></trkpt><trkpt lat="45.0770583" lon="11.6553433"><ele>5.0</ele><time>2026-05-01T10:11:41.448Z</time></trkpt><trkpt lat="45.076985" lon="11.6553117"><ele>5.0</ele><time>2026-05-01T10:11:42.433Z</time></trkpt><trkpt lat="45.0769133" lon="11.6552817"><ele>5.0</ele><time>2026-05-01T10:11:43.433Z</time></trkpt><trkpt lat="45.0768417" lon="11.6552567"><ele>5.0</ele><time>2026-05-01T10:11:44.402Z</time></trkpt><trkpt lat="45.0767667" lon="11.6552317"><ele>5.0</ele><time>2026-05-01T10:11:45.407Z</time></trkpt><trkpt lat="45.0766917" lon="11.65521"><ele>5.0</ele><time>2026-05-01T10:11:46.413Z</time></trkpt><trkpt lat="45.076615" lon="11.6551867"><ele>4.75</ele><time>2026-05-01T10:11:47.439Z</time></trkpt><trkpt lat="45.0765417" lon="11.6551633"><ele>4.5</ele><time>2026-05-01T10:11:48.461Z</time></trkpt><trkpt lat="45.0763167" lon="11.655105"><ele>4.25</ele><time>2026-05-01T10:11:51.474Z</time></trkpt><trkpt lat="45.07624" lon="11.655085"><ele>4.0</ele><time>2026-05-01T10:11:52.519Z</time></trkpt><trkpt lat="45.076165" lon="11.6550733"><ele>4.0</ele><time>2026-05-01T10:11:53.42Z</time></trkpt><trkpt lat="45.076095" lon="11.6550583"><ele>4.0</ele><time>2026-05-01T10:11:54.669Z</time></trkpt><trkpt lat="45.0759617" lon="11.6550033"><ele>4.0</ele><time>2026-05-01T10:11:56.479Z</time></trkpt><trkpt lat="45.0758983" lon="11.6549633"><ele>4.0</ele><time>2026-05-01T10:11:57.41Z</time></trkpt><trkpt lat="45.07577" lon="11.6548517"><ele>4.0</ele><time>2026-05-01T10:11:59.513Z</time></trkpt><trkpt lat="45.0757033" lon="11.654805"><ele>3.8571428571428568</ele><time>2026-05-01T10:12:00.468Z</time></trkpt><trkpt lat="45.0756333" lon="11.654775"><ele>3.714285714285714</ele><time>2026-05-01T10:12:01.409Z</time></trkpt><trkpt lat="45.0755583" lon="11.6547683"><ele>3.571428571428571</ele><time>2026-05-01T10:12:02.4Z</time></trkpt><trkpt lat="45.0754833" lon="11.6547867"><ele>3.4285714285714284</ele><time>2026-05-01T10:12:03.391Z</time></trkpt><trkpt lat="45.0754117" lon="11.654815"><ele>3.2857142857142856</ele><time>2026-05-01T10:12:04.396Z</time></trkpt><trkpt lat="45.07534" lon="11.65484"><ele>3.1428571428571423</ele><time>2026-05-01T10:12:05.389Z</time></trkpt><trkpt lat="45.0752683" lon="11.65486"><ele>3.0</ele><time>2026-05-01T10:12:06.395Z</time></trkpt><trkpt lat="45.0751967" lon="11.6548683"><ele>2.9999999999999996</ele><time>2026-05-01T10:12:07.391Z</time></trkpt><trkpt lat="45.075125" lon="11.654865"><ele>3.0</ele><time>2026-05-01T10:12:08.399Z</time></trkpt><trkpt lat="45.075055" lon="11.6548567"><ele>3.0</ele><time>2026-05-01T10:12:09.41Z</time></trkpt><trkpt lat="45.0749833" lon="11.654845"><ele>3.0</ele><time>2026-05-01T10:12:10.401Z</time></trkpt><trkpt lat="45.0749117" lon="11.6548283"><ele>3.0</ele><time>2026-05-01T10:12:11.407Z</time></trkpt><trkpt lat="45.07484" lon="11.6548067"><ele>2.9999999999999996</ele><time>2026-05-01T10:12:12.404Z</time></trkpt><trkpt lat="45.0747683" lon="11.6547833"><ele>3.0</ele><time>2026-05-01T10:12:13.405Z</time></trkpt><trkpt lat="45.074695" lon="11.654765"><ele>2.9999999999999996</ele><time>2026-05-01T10:12:14.396Z</time></trkpt><trkpt lat="45.0746217" lon="11.65475"><ele>3.0</ele><time>2026-05-01T10:12:15.397Z</time></trkpt><trkpt lat="45.07455" lon="11.6547383"><ele>3.0</ele><time>2026-05-01T10:12:16.404Z</time></trkpt><trkpt lat="45.074475" lon="11.6547267"><ele>3.0</ele><time>2026-05-01T10:12:17.413Z</time></trkpt><trkpt lat="45.0744" lon="11.6547117"><ele>3.0</ele><time>2026-05-01T10:12:18.382Z</time></trkpt><trkpt lat="45.0743267" lon="11.6547"><ele>2.9999999999999996</ele><time>2026-05-01T10:12:19.459Z</time></trkpt><trkpt lat="45.0742617" lon="11.6546717"><ele>3.0</ele><time>2026-05-01T10:12:20.442Z</time></trkpt><trkpt lat="45.0741317" lon="11.6546467"><ele>2.8333333333333335</ele><time>2026-05-01T10:12:22.507Z</time></trkpt><trkpt lat="45.0739967" lon="11.6546317"><ele>2.6666666666666665</ele><time>2026-05-01T10:12:24.387Z</time></trkpt><trkpt lat="45.07393" lon="11.6546217"><ele>2.5</ele><time>2026-05-01T10:12:25.41Z</time></trkpt><trkpt lat="45.073865" lon="11.6546117"><ele>2.333333333333333</ele><time>2026-05-01T10:12:26.398Z</time></trkpt><trkpt lat="45.0737983" lon="11.6545983"><ele>2.1666666666666665</ele><time>2026-05-01T10:12:27.392Z</time></trkpt><trkpt lat="45.0737267" lon="11.65458"><ele>2.0</ele><time>2026-05-01T10:12:28.391Z</time></trkpt><trkpt lat="45.0736583" lon="11.6545817"><ele>1.9999999999999998</ele><time>2026-05-01T10:12:29.398Z</time></trkpt><trkpt lat="45.0735933" lon="11.6545817"><ele>2.0</ele><time>2026-05-01T10:12:30.424Z</time></trkpt><trkpt lat="45.07353" lon="11.65458"><ele>2.0</ele><time>2026-05-01T10:12:31.422Z</time></trkpt><trkpt lat="45.073465" lon="11.654575"><ele>2.0</ele><time>2026-05-01T10:12:32.426Z</time></trkpt><trkpt lat="45.0733383" lon="11.6545583"><ele>1.9999999999999998</ele><time>2026-05-01T10:12:34.429Z</time></trkpt><trkpt lat="45.0732733" lon="11.6545533"><ele>2.0</ele><time>2026-05-01T10:12:35.425Z</time></trkpt><trkpt lat="45.0732067" lon="11.6545483"><ele>1.857142857142857</ele><time>2026-05-01T10:12:36.39Z</time></trkpt><trkpt lat="45.07314" lon="11.6545417"><ele>1.714285714285714</ele><time>2026-05-01T10:12:37.418Z</time></trkpt><trkpt lat="45.0730733" lon="11.6545333"><ele>1.5714285714285714</ele><time>2026-05-01T10:12:38.43Z</time></trkpt><trkpt lat="45.0730033" lon="11.654525"><ele>1.4285714285714284</ele><time>2026-05-01T10:12:39.433Z</time></trkpt><trkpt lat="45.07294" lon="11.6545183"><ele>1.2857142857142856</ele><time>2026-05-01T10:12:40.426Z</time></trkpt><trkpt lat="45.0728767" lon="11.65451"><ele>1.1428571428571428</ele><time>2026-05-01T10:12:41.425Z</time></trkpt><trkpt lat="45.0728133" lon="11.6544983"><ele>1.0</ele><time>2026-05-01T10:12:42.424Z</time></trkpt><trkpt lat="45.07275" lon="11.6544883"><ele>1.0</ele><time>2026-05-01T10:12:43.41Z</time></trkpt><trkpt lat="45.072685" lon="11.6544817"><ele>0.9999999999999999</ele><time>2026-05-01T10:12:44.381Z</time></trkpt><trkpt lat="45.0726217" lon="11.6544733"><ele>1.0</ele><time>2026-05-01T10:12:45.383Z</time></trkpt><trkpt lat="45.0725567" lon="11.654465"><ele>1.0</ele><time>2026-05-01T10:12:46.385Z</time></trkpt><trkpt lat="45.0724933" lon="11.6544567"><ele>0.9999999999999999</ele><time>2026-05-01T10:12:47.38Z</time></trkpt><trkpt lat="45.07243" lon="11.654445"><ele>1.0</ele><time>2026-05-01T10:12:48.383Z</time></trkpt><trkpt lat="45.072365" lon="11.654435"><ele>1.0</ele><time>2026-05-01T10:12:49.422Z</time></trkpt><trkpt lat="45.0723017" lon="11.654425"><ele>1.2857142857142856</ele><time>2026-05-01T10:12:50.424Z</time></trkpt><trkpt lat="45.0722383" lon="11.654415"><ele>1.5714285714285712</ele><time>2026-05-01T10:12:51.422Z</time></trkpt><trkpt lat="45.0721133" lon="11.654395"><ele>1.857142857142857</ele><time>2026-05-01T10:12:53.423Z</time></trkpt><trkpt lat="45.0720483" lon="11.6543867"><ele>2.142857142857143</ele><time>2026-05-01T10:12:54.424Z</time></trkpt><trkpt lat="45.071985" lon="11.6543733"><ele>2.4285714285714284</ele><time>2026-05-01T10:12:55.42Z</time></trkpt><trkpt lat="45.07192" lon="11.6543583"><ele>2.714285714285714</ele><time>2026-05-01T10:12:56.406Z</time></trkpt><trkpt lat="45.0718567" lon="11.6543433"><ele>3.0</ele><time>2026-05-01T10:12:57.418Z</time></trkpt><trkpt lat="45.0717933" lon="11.654325"><ele>2.9999999999999996</ele><time>2026-05-01T10:12:58.405Z</time></trkpt><trkpt lat="45.0717317" lon="11.6543033"><ele>3.0</ele><time>2026-05-01T10:12:59.414Z</time></trkpt><trkpt lat="45.0716683" lon="11.65428"><ele>3.0</ele><time>2026-05-01T10:13:00.4Z</time></trkpt><trkpt lat="45.071605" lon="11.6542567"><ele>3.0</ele><time>2026-05-01T10:13:01.386Z</time></trkpt><trkpt lat="45.0715433" lon="11.6542317"><ele>3.0</ele><time>2026-05-01T10:13:02.387Z</time></trkpt><trkpt lat="45.07148" lon="11.65421"><ele>2.9999999999999996</ele><time>2026-05-01T10:13:03.387Z</time></trkpt><trkpt lat="45.0714167" lon="11.6541883"><ele>3.0</ele><time>2026-05-01T10:13:04.398Z</time></trkpt><trkpt lat="45.0713533" lon="11.6541633"><ele>3.0</ele><time>2026-05-01T10:13:05.393Z</time></trkpt><trkpt lat="45.0712917" lon="11.65414"><ele>3.0</ele><time>2026-05-01T10:13:06.404Z</time></trkpt><trkpt lat="45.0712283" lon="11.6541167"><ele>3.0</ele><time>2026-05-01T10:13:07.385Z</time></trkpt><trkpt lat="45.071105" lon="11.6540683"><ele>3.0</ele><time>2026-05-01T10:13:09.386Z</time></trkpt><trkpt lat="45.0710417" lon="11.6540417"><ele>3.0</ele><time>2026-05-01T10:13:10.394Z</time></trkpt><trkpt lat="45.0709767" lon="11.6540167"><ele>3.0</ele><time>2026-05-01T10:13:11.385Z</time></trkpt><trkpt lat="45.0709117" lon="11.653995"><ele>2.9999999999999996</ele><time>2026-05-01T10:13:12.386Z</time></trkpt><trkpt lat="45.0708467" lon="11.65397"><ele>3.0</ele><time>2026-05-01T10:13:13.386Z</time></trkpt><trkpt lat="45.0707833" lon="11.6539467"><ele>3.0</ele><time>2026-05-01T10:13:14.389Z</time></trkpt><trkpt lat="45.0707183" lon="11.6539233"><ele>3.0</ele><time>2026-05-01T10:13:15.385Z</time></trkpt><trkpt lat="45.070655" lon="11.6538967"><ele>3.0</ele><time>2026-05-01T10:13:16.386Z</time></trkpt><trkpt lat="45.0705917" lon="11.65387"><ele>2.9999999999999996</ele><time>2026-05-01T10:13:17.383Z</time></trkpt><trkpt lat="45.07053" lon="11.6538383"><ele>3.0</ele><time>2026-05-01T10:13:18.418Z</time></trkpt><trkpt lat="45.0704717" lon="11.6537967"><ele>3.2857142857142856</ele><time>2026-05-01T10:13:19.387Z</time></trkpt><trkpt lat="45.0704133" lon="11.6537483"><ele>3.571428571428571</ele><time>2026-05-01T10:13:20.383Z</time></trkpt><trkpt lat="45.070355" lon="11.6536967"><ele>3.8571428571428568</ele><time>2026-05-01T10:13:21.428Z</time></trkpt><trkpt lat="45.0703" lon="11.6536533"><ele>4.142857142857142</ele><time>2026-05-01T10:13:22.457Z</time></trkpt><trkpt lat="45.0702483" lon="11.6536"><ele>4.428571428571429</ele><time>2026-05-01T10:13:23.39Z</time></trkpt><trkpt lat="45.0701983" lon="11.653535"><ele>4.714285714285714</ele><time>2026-05-01T10:13:24.402Z</time></trkpt><trkpt lat="45.0701383" lon="11.6534617"><ele>5.0</ele><time>2026-05-01T10:13:25.396Z</time></trkpt><trkpt lat="45.0700883" lon="11.6533983"><ele>5.0</ele><time>2026-05-01T10:13:26.415Z</time></trkpt><trkpt lat="45.0700383" lon="11.6533417"><ele>5.0</ele><time>2026-05-01T10:13:27.405Z</time></trkpt><trkpt lat="45.0699417" lon="11.653245"><ele>5.0</ele><time>2026-05-01T10:13:29.411Z</time></trkpt><trkpt lat="45.0698333" lon="11.653175"><ele>5.0</ele><time>2026-05-01T10:13:31.393Z</time></trkpt><trkpt lat="45.0697717" lon="11.6531317"><ele>5.0</ele><time>2026-05-01T10:13:32.391Z</time></trkpt><trkpt lat="45.0697017" lon="11.65309"><ele>5.0</ele><time>2026-05-01T10:13:33.408Z</time></trkpt><trkpt lat="45.06964" lon="11.6530517"><ele>5.0</ele><time>2026-05-01T10:13:34.426Z</time></trkpt><trkpt lat="45.0695767" lon="11.6530083"><ele>5.0</ele><time>2026-05-01T10:13:35.412Z</time></trkpt><trkpt lat="45.0695133" lon="11.6529683"><ele>5.0</ele><time>2026-05-01T10:13:36.42Z</time></trkpt><trkpt lat="45.0694517" lon="11.6529267"><ele>5.0</ele><time>2026-05-01T10:13:37.42Z</time></trkpt><trkpt lat="45.0693883" lon="11.6528833"><ele>5.0</ele><time>2026-05-01T10:13:38.423Z</time></trkpt><trkpt lat="45.069325" lon="11.6528433"><ele>5.0</ele><time>2026-05-01T10:13:39.43Z</time></trkpt><trkpt lat="45.06926" lon="11.6528067"><ele>5.0</ele><time>2026-05-01T10:13:40.428Z</time></trkpt><trkpt lat="45.069195" lon="11.6527717"><ele>5.0</ele><time>2026-05-01T10:13:41.429Z</time></trkpt><trkpt lat="45.0691267" lon="11.65274"><ele>5.0</ele><time>2026-05-01T10:13:42.403Z</time></trkpt><trkpt lat="45.0690583" lon="11.6527133"><ele>5.0</ele><time>2026-05-01T10:13:43.424Z</time></trkpt><trkpt lat="45.0689867" lon="11.65269"><ele>5.0</ele><time>2026-05-01T10:13:44.424Z</time></trkpt><trkpt lat="45.0689183" lon="11.6526667"><ele>5.0</ele><time>2026-05-01T10:13:45.424Z</time></trkpt><trkpt lat="45.0688517" lon="11.65264"><ele>5.0</ele><time>2026-05-01T10:13:46.426Z</time></trkpt><trkpt lat="45.0687883" lon="11.652615"><ele>5.0</ele><time>2026-05-01T10:13:47.432Z</time></trkpt><trkpt lat="45.0686717" lon="11.6525733"><ele>5.0</ele><time>2026-05-01T10:13:49.43Z</time></trkpt><trkpt lat="45.06858" lon="11.6525367"><ele>5.0</ele><time>2026-05-01T10:13:51.403Z</time></trkpt><trkpt lat="45.0684867" lon="11.6525017"><ele>5.0</ele><time>2026-05-01T10:13:53.391Z</time></trkpt><trkpt lat="45.0683917" lon="11.6524717"><ele>5.0</ele><time>2026-05-01T10:13:55.423Z</time></trkpt><trkpt lat="45.068295" lon="11.6524367"><ele>5.0</ele><time>2026-05-01T10:13:57.402Z</time></trkpt><trkpt lat="45.0681883" lon="11.6524017"><ele>4.75</ele><time>2026-05-01T10:13:59.394Z</time></trkpt><trkpt lat="45.06807" lon="11.65236"><ele>4.5</ele><time>2026-05-01T10:14:01.395Z</time></trkpt><trkpt lat="45.067955" lon="11.6523217"><ele>4.25</ele><time>2026-05-01T10:14:03.389Z</time></trkpt><trkpt lat="45.0678417" lon="11.652285"><ele>4.0</ele><time>2026-05-01T10:14:05.386Z</time></trkpt><trkpt lat="45.0677283" lon="11.6522417"><ele>4.0</ele><time>2026-05-01T10:14:07.384Z</time></trkpt><trkpt lat="45.0676117" lon="11.65219"><ele>4.0</ele><time>2026-05-01T10:14:09.394Z</time></trkpt><trkpt lat="45.0674983" lon="11.6521317"><ele>4.0</ele><time>2026-05-01T10:14:11.386Z</time></trkpt><trkpt lat="45.06738" lon="11.6520733"><ele>4.0</ele><time>2026-05-01T10:14:13.385Z</time></trkpt><trkpt lat="45.06726" lon="11.6520233"><ele>4.0</ele><time>2026-05-01T10:14:15.487Z</time></trkpt><trkpt lat="45.0671383" lon="11.6519867"><ele>4.0</ele><time>2026-05-01T10:14:17.443Z</time></trkpt><trkpt lat="45.0670767" lon="11.6519633"><ele>4.0</ele><time>2026-05-01T10:14:18.439Z</time></trkpt><trkpt lat="45.0670117" lon="11.65195"><ele>4.0</ele><time>2026-05-01T10:14:19.382Z</time></trkpt><trkpt lat="45.0668917" lon="11.651925"><ele>4.0</ele><time>2026-05-01T10:14:21.411Z</time></trkpt><trkpt lat="45.0667717" lon="11.6518917"><ele>4.0</ele><time>2026-05-01T10:14:23.406Z</time></trkpt><trkpt lat="45.06666" lon="11.6518783"><ele>4.0</ele><time>2026-05-01T10:14:25.404Z</time></trkpt><trkpt lat="45.0665683" lon="11.65189"><ele>4.0</ele><time>2026-05-01T10:14:27.398Z</time></trkpt><trkpt lat="45.0664683" lon="11.651885"><ele>4.0</ele><time>2026-05-01T10:14:29.425Z</time></trkpt><trkpt lat="45.0663533" lon="11.651895"><ele>4.0</ele><time>2026-05-01T10:14:31.412Z</time></trkpt><trkpt lat="45.066235" lon="11.65191"><ele>3.75</ele><time>2026-05-01T10:14:33.404Z</time></trkpt><trkpt lat="45.0661167" lon="11.6519367"><ele>3.5</ele><time>2026-05-01T10:14:35.425Z</time></trkpt><trkpt lat="45.066" lon="11.6519717"><ele>3.25</ele><time>2026-05-01T10:14:37.427Z</time></trkpt><trkpt lat="45.0658883" lon="11.6520117"><ele>3.0</ele><time>2026-05-01T10:14:39.426Z</time></trkpt><trkpt lat="45.0657867" lon="11.6520533"><ele>3.0</ele><time>2026-05-01T10:14:41.467Z</time></trkpt><trkpt lat="45.0656867" lon="11.652105"><ele>3.0</ele><time>2026-05-01T10:14:43.474Z</time></trkpt><trkpt lat="45.06558" lon="11.6521417"><ele>3.0</ele><time>2026-05-01T10:14:45.393Z</time></trkpt><trkpt lat="45.0654933" lon="11.6521817"><ele>3.0</ele><time>2026-05-01T10:14:47.396Z</time></trkpt><trkpt lat="45.0654" lon="11.652215"><ele>3.0</ele><time>2026-05-01T10:14:49.396Z</time></trkpt><trkpt lat="45.0653067" lon="11.6522167"><ele>3.0</ele><time>2026-05-01T10:14:51.408Z</time></trkpt><trkpt lat="45.065235" lon="11.6521783"><ele>3.0</ele><time>2026-05-01T10:14:53.407Z</time></trkpt><trkpt lat="45.065165" lon="11.65213"><ele>3.0</ele><time>2026-05-01T10:14:56.435Z</time></trkpt><trkpt lat="45.065085" lon="11.65215"><ele>3.0</ele><time>2026-05-01T10:15:19.419Z</time></trkpt><trkpt lat="45.0649883" lon="11.6521633"><ele>3.0</ele><time>2026-05-01T10:15:22.426Z</time></trkpt><trkpt lat="45.0649117" lon="11.6521717"><ele>3.0</ele><time>2026-05-01T10:15:24.428Z</time></trkpt><trkpt lat="45.0648333" lon="11.6521717"><ele>3.0</ele><time>2026-05-01T10:15:26.409Z</time></trkpt><trkpt lat="45.064745" lon="11.652175"><ele>3.0</ele><time>2026-05-01T10:15:28.424Z</time></trkpt><trkpt lat="45.0646483" lon="11.6521733"><ele>3.0</ele><time>2026-05-01T10:15:30.416Z</time></trkpt><trkpt lat="45.064545" lon="11.6521667"><ele>3.0</ele><time>2026-05-01T10:15:32.416Z</time></trkpt><trkpt lat="45.0644383" lon="11.6521633"><ele>3.0</ele><time>2026-05-01T10:15:34.431Z</time></trkpt><trkpt lat="45.064335" lon="11.65215"><ele>3.0</ele><time>2026-05-01T10:15:36.434Z</time></trkpt><trkpt lat="45.064235" lon="11.65213"><ele>3.0</ele><time>2026-05-01T10:15:38.389Z</time></trkpt><trkpt lat="45.06413" lon="11.65211"><ele>3.0</ele><time>2026-05-01T10:15:40.415Z</time></trkpt><trkpt lat="45.0640267" lon="11.65207"><ele>3.0</ele><time>2026-05-01T10:15:42.386Z</time></trkpt><trkpt lat="45.0639267" lon="11.65202"><ele>3.0</ele><time>2026-05-01T10:15:44.385Z</time></trkpt><trkpt lat="45.0638217" lon="11.65196"><ele>3.0</ele><time>2026-05-01T10:15:46.388Z</time></trkpt><trkpt lat="45.06372" lon="11.6518783"><ele>3.0</ele><time>2026-05-01T10:15:48.419Z</time></trkpt><trkpt lat="45.0636283" lon="11.6517717"><ele>3.0</ele><time>2026-05-01T10:15:50.426Z</time></trkpt><trkpt lat="45.0635467" lon="11.65166"><ele>3.0</ele><time>2026-05-01T10:15:52.427Z</time></trkpt><trkpt lat="45.0634667" lon="11.65154"><ele>3.0</ele><time>2026-05-01T10:15:54.416Z</time></trkpt><trkpt lat="45.063385" lon="11.6514167"><ele>3.0</ele><time>2026-05-01T10:15:56.416Z</time></trkpt><trkpt lat="45.063305" lon="11.6512933"><ele>3.0</ele><time>2026-05-01T10:15:58.444Z</time></trkpt><trkpt lat="45.0632217" lon="11.651175"><ele>3.0</ele><time>2026-05-01T10:16:00.438Z</time></trkpt><trkpt lat="45.06313" lon="11.6510517"><ele>3.0</ele><time>2026-05-01T10:16:02.38Z</time></trkpt><trkpt lat="45.0630417" lon="11.65094"><ele>3.0</ele><time>2026-05-01T10:16:04.397Z</time></trkpt><trkpt lat="45.0629583" lon="11.6508367"><ele>3.0</ele><time>2026-05-01T10:16:06.395Z</time></trkpt><trkpt lat="45.06288" lon="11.6507383"><ele>3.0</ele><time>2026-05-01T10:16:08.432Z</time></trkpt><trkpt lat="45.0628117" lon="11.6506267"><ele>3.0</ele><time>2026-05-01T10:16:10.397Z</time></trkpt><trkpt lat="45.0627317" lon="11.6505117"><ele>3.0</ele><time>2026-05-01T10:16:12.43Z</time></trkpt><trkpt lat="45.0626517" lon="11.6504017"><ele>3.0</ele><time>2026-05-01T10:16:14.424Z</time></trkpt><trkpt lat="45.0625767" lon="11.6502967"><ele>3.0</ele><time>2026-05-01T10:16:16.488Z</time></trkpt><trkpt lat="45.062505" lon="11.6501833"><ele>3.0</ele><time>2026-05-01T10:16:18.394Z</time></trkpt><trkpt lat="45.06246" lon="11.65012"><ele>3.0</ele><time>2026-05-01T10:16:19.41Z</time></trkpt><trkpt lat="45.0623783" lon="11.6500033"><ele>3.2</ele><time>2026-05-01T10:16:21.391Z</time></trkpt><trkpt lat="45.0622967" lon="11.64988"><ele>3.4</ele><time>2026-05-01T10:16:23.414Z</time></trkpt><trkpt lat="45.06225" lon="11.64982"><ele>3.6000000000000005</ele><time>2026-05-01T10:16:24.41Z</time></trkpt><trkpt lat="45.0621683" lon="11.6497067"><ele>3.8000000000000003</ele><time>2026-05-01T10:16:26.407Z</time></trkpt><trkpt lat="45.0620817" lon="11.6495917"><ele>4.0</ele><time>2026-05-01T10:16:28.399Z</time></trkpt><trkpt lat="45.0619983" lon="11.6494883"><ele>4.0</ele><time>2026-05-01T10:16:30.392Z</time></trkpt><trkpt lat="45.0619167" lon="11.6493767"><ele>4.0</ele><time>2026-05-01T10:16:32.42Z</time></trkpt><trkpt lat="45.06183" lon="11.649265"><ele>4.0</ele><time>2026-05-01T10:16:34.427Z</time></trkpt><trkpt lat="45.0617517" lon="11.6491583"><ele>4.0</ele><time>2026-05-01T10:16:36.427Z</time></trkpt><trkpt lat="45.0616733" lon="11.6490533"><ele>4.0</ele><time>2026-05-01T10:16:38.429Z</time></trkpt><trkpt lat="45.0615917" lon="11.6489483"><ele>4.5</ele><time>2026-05-01T10:16:40.43Z</time></trkpt><trkpt lat="45.0615117" lon="11.6488333"><ele>5.0</ele><time>2026-05-01T10:16:42.428Z</time></trkpt><trkpt lat="45.0614317" lon="11.6487233"><ele>5.5</ele><time>2026-05-01T10:16:44.421Z</time></trkpt><trkpt lat="45.0613533" lon="11.6486117"><ele>6.0</ele><time>2026-05-01T10:16:46.427Z</time></trkpt><trkpt lat="45.0612667" lon="11.6485033"><ele>6.0</ele><time>2026-05-01T10:16:48.38Z</time></trkpt><trkpt lat="45.0611867" lon="11.64839"><ele>6.0</ele><time>2026-05-01T10:16:50.385Z</time></trkpt><trkpt lat="45.061105" lon="11.648275"><ele>6.0</ele><time>2026-05-01T10:16:52.384Z</time></trkpt><trkpt lat="45.0610217" lon="11.648165"><ele>6.0</ele><time>2026-05-01T10:16:54.418Z</time></trkpt><trkpt lat="45.0609417" lon="11.64805"><ele>6.0</ele><time>2026-05-01T10:16:56.401Z</time></trkpt><trkpt lat="45.060865" lon="11.6479367"><ele>6.0</ele><time>2026-05-01T10:16:58.426Z</time></trkpt><trkpt lat="45.060785" lon="11.647825"><ele>6.0</ele><time>2026-05-01T10:17:00.391Z</time></trkpt><trkpt lat="45.0607067" lon="11.6477217"><ele>6.0</ele><time>2026-05-01T10:17:02.414Z</time></trkpt><trkpt lat="45.0606233" lon="11.6476083"><ele>6.0</ele><time>2026-05-01T10:17:04.408Z</time></trkpt><trkpt lat="45.060545" lon="11.6474933"><ele>5.75</ele><time>2026-05-01T10:17:06.42Z</time></trkpt><trkpt lat="45.060465" lon="11.647375"><ele>5.5</ele><time>2026-05-01T10:17:08.422Z</time></trkpt><trkpt lat="45.0603833" lon="11.6472583"><ele>5.25</ele><time>2026-05-01T10:17:10.429Z</time></trkpt><trkpt lat="45.060305" lon="11.6471483"><ele>5.0</ele><time>2026-05-01T10:17:12.426Z</time></trkpt><trkpt lat="45.0602267" lon="11.6470383"><ele>5.0</ele><time>2026-05-01T10:17:14.429Z</time></trkpt><trkpt lat="45.0601533" lon="11.6469267"><ele>5.0</ele><time>2026-05-01T10:17:16.426Z</time></trkpt><trkpt lat="45.06008" lon="11.6468033"><ele>5.0</ele><time>2026-05-01T10:17:18.429Z</time></trkpt><trkpt lat="45.06" lon="11.64669"><ele>5.0</ele><time>2026-05-01T10:17:20.399Z</time></trkpt><trkpt lat="45.05992" lon="11.6465767"><ele>5.0</ele><time>2026-05-01T10:17:22.43Z</time></trkpt><trkpt lat="45.0598417" lon="11.6464667"><ele>5.0</ele><time>2026-05-01T10:17:24.395Z</time></trkpt><trkpt lat="45.0597633" lon="11.64636"><ele>5.0</ele><time>2026-05-01T10:17:26.409Z</time></trkpt><trkpt lat="45.0596867" lon="11.64625"><ele>5.0</ele><time>2026-05-01T10:17:28.423Z</time></trkpt><trkpt lat="45.0596133" lon="11.64614"><ele>5.0</ele><time>2026-05-01T10:17:30.434Z</time></trkpt><trkpt lat="45.0595367" lon="11.6460333"><ele>5.0</ele><time>2026-05-01T10:17:32.43Z</time></trkpt><trkpt lat="45.05946" lon="11.6459267"><ele>5.0</ele><time>2026-05-01T10:17:34.416Z</time></trkpt><trkpt lat="45.0593833" lon="11.6458167"><ele>5.0</ele><time>2026-05-01T10:17:36.394Z</time></trkpt><trkpt lat="45.0593033" lon="11.6457083"><ele>5.0</ele><time>2026-05-01T10:17:38.425Z</time></trkpt><trkpt lat="45.0592233" lon="11.6456017"><ele>5.0</ele><time>2026-05-01T10:17:40.422Z</time></trkpt><trkpt lat="45.0591467" lon="11.6454917"><ele>5.0</ele><time>2026-05-01T10:17:42.424Z</time></trkpt><trkpt lat="45.0590667" lon="11.6453883"><ele>5.0</ele><time>2026-05-01T10:17:44.431Z</time></trkpt><trkpt lat="45.058985" lon="11.6452767"><ele>5.0</ele><time>2026-05-01T10:17:46.42Z</time></trkpt><trkpt lat="45.0589033" lon="11.6451667"><ele>5.0</ele><time>2026-05-01T10:17:48.424Z</time></trkpt><trkpt lat="45.0588217" lon="11.6450567"><ele>5.0</ele><time>2026-05-01T10:17:50.422Z</time></trkpt><trkpt lat="45.0587383" lon="11.6449517"><ele>5.0</ele><time>2026-05-01T10:17:52.394Z</time></trkpt><trkpt lat="45.0586517" lon="11.6448517"><ele>5.0</ele><time>2026-05-01T10:17:54.428Z</time></trkpt><trkpt lat="45.0585667" lon="11.6447533"><ele>5.0</ele><time>2026-05-01T10:17:56.429Z</time></trkpt><trkpt lat="45.05848" lon="11.6446533"><ele>5.0</ele><time>2026-05-01T10:17:58.426Z</time></trkpt><trkpt lat="45.0583917" lon="11.6445583"><ele>5.0</ele><time>2026-05-01T10:18:00.425Z</time></trkpt><trkpt lat="45.0583" lon="11.6444683"><ele>5.0</ele><time>2026-05-01T10:18:02.417Z</time></trkpt><trkpt lat="45.0582167" lon="11.6443783"><ele>5.0</ele><time>2026-05-01T10:18:04.421Z</time></trkpt><trkpt lat="45.0581317" lon="11.6442883"><ele>5.0</ele><time>2026-05-01T10:18:06.427Z</time></trkpt><trkpt lat="45.0580417" lon="11.6441933"><ele>5.0</ele><time>2026-05-01T10:18:08.401Z</time></trkpt><trkpt lat="45.05795" lon="11.6440883"><ele>5.0</ele><time>2026-05-01T10:18:10.429Z</time></trkpt><trkpt lat="45.0578617" lon="11.6439917"><ele>5.0</ele><time>2026-05-01T10:18:12.42Z</time></trkpt><trkpt lat="45.0577733" lon="11.643895"><ele>5.0</ele><time>2026-05-01T10:18:14.435Z</time></trkpt><trkpt lat="45.0576917" lon="11.643795"><ele>5.0</ele><time>2026-05-01T10:18:16.415Z</time></trkpt><trkpt lat="45.0576117" lon="11.6436967"><ele>5.0</ele><time>2026-05-01T10:18:18.427Z</time></trkpt><trkpt lat="45.0575283" lon="11.6436033"><ele>5.0</ele><time>2026-05-01T10:18:20.422Z</time></trkpt><trkpt lat="45.057445" lon="11.6435117"><ele>5.5</ele><time>2026-05-01T10:18:22.429Z</time></trkpt><trkpt lat="45.05737" lon="11.6434217"><ele>6.0</ele><time>2026-05-01T10:18:24.403Z</time></trkpt><trkpt lat="45.0572967" lon="11.6433383"><ele>6.5</ele><time>2026-05-01T10:18:26.406Z</time></trkpt><trkpt lat="45.05724" lon="11.6432567"><ele>7.0</ele><time>2026-05-01T10:18:28.414Z</time></trkpt><trkpt lat="45.0571933" lon="11.6431867"><ele>7.499999999999999</ele><time>2026-05-01T10:18:30.396Z</time></trkpt><trkpt lat="45.0571333" lon="11.6431317"><ele>8.0</ele><time>2026-05-01T10:18:33.432Z</time></trkpt><trkpt lat="45.0570467" lon="11.6431433"><ele>7.999999999999999</ele><time>2026-05-01T10:18:36.432Z</time></trkpt><trkpt lat="45.0570033" lon="11.6432083"><ele>8.0</ele><time>2026-05-01T10:18:38.43Z</time></trkpt><trkpt lat="45.0569433" lon="11.6432833"><ele>8.0</ele><time>2026-05-01T10:18:40.405Z</time></trkpt><trkpt lat="45.056875" lon="11.6433683"><ele>8.0</ele><time>2026-05-01T10:18:42.431Z</time></trkpt><trkpt lat="45.0568033" lon="11.6434633"><ele>7.999999999999999</ele><time>2026-05-01T10:18:44.429Z</time></trkpt><trkpt lat="45.0567283" lon="11.6435567"><ele>8.0</ele><time>2026-05-01T10:18:46.38Z</time></trkpt><trkpt lat="45.0566483" lon="11.643645"><ele>8.200000000000001</ele><time>2026-05-01T10:18:48.384Z</time></trkpt><trkpt lat="45.0565633" lon="11.643735"><ele>8.4</ele><time>2026-05-01T10:18:50.387Z</time></trkpt><trkpt lat="45.0564767" lon="11.643825"><ele>8.600000000000001</ele><time>2026-05-01T10:18:52.428Z</time></trkpt><trkpt lat="45.056385" lon="11.6439067"><ele>8.8</ele><time>2026-05-01T10:18:54.422Z</time></trkpt><trkpt lat="45.05629" lon="11.6439767"><ele>9.0</ele><time>2026-05-01T10:18:56.411Z</time></trkpt><trkpt lat="45.056195" lon="11.6440417"><ele>9.0</ele><time>2026-05-01T10:18:58.433Z</time></trkpt><trkpt lat="45.0561033" lon="11.6441067"><ele>9.0</ele><time>2026-05-01T10:19:00.43Z</time></trkpt><trkpt lat="45.0560083" lon="11.644165"><ele>9.0</ele><time>2026-05-01T10:19:02.42Z</time></trkpt><trkpt lat="45.055915" lon="11.644225"><ele>9.0</ele><time>2026-05-01T10:19:04.423Z</time></trkpt><trkpt lat="45.055815" lon="11.6442833"><ele>9.0</ele><time>2026-05-01T10:19:06.42Z</time></trkpt><trkpt lat="45.055725" lon="11.64433"><ele>9.0</ele><time>2026-05-01T10:19:08.423Z</time></trkpt><trkpt lat="45.0556367" lon="11.6443733"><ele>9.0</ele><time>2026-05-01T10:19:10.426Z</time></trkpt><trkpt lat="45.0555467" lon="11.6444233"><ele>9.0</ele><time>2026-05-01T10:19:12.41Z</time></trkpt><trkpt lat="45.0554567" lon="11.644475"><ele>9.0</ele><time>2026-05-01T10:19:14.42Z</time></trkpt><trkpt lat="45.0553633" lon="11.6445283"><ele>9.0</ele><time>2026-05-01T10:19:16.438Z</time></trkpt><trkpt lat="45.05526" lon="11.6445933"><ele>9.0</ele><time>2026-05-01T10:19:18.378Z</time></trkpt><trkpt lat="45.055175" lon="11.6446533"><ele>9.0</ele><time>2026-05-01T10:19:20.397Z</time></trkpt><trkpt lat="45.0550667" lon="11.6447083"><ele>9.0</ele><time>2026-05-01T10:19:22.398Z</time></trkpt><trkpt lat="45.055005" lon="11.644735"><ele>9.0</ele><time>2026-05-01T10:19:23.413Z</time></trkpt><trkpt lat="45.054895" lon="11.6447867"><ele>9.0</ele><time>2026-05-01T10:19:25.427Z</time></trkpt><trkpt lat="45.0547917" lon="11.6448417"><ele>9.0</ele><time>2026-05-01T10:19:27.426Z</time></trkpt><trkpt lat="45.05469" lon="11.6448967"><ele>9.0</ele><time>2026-05-01T10:19:29.426Z</time></trkpt><trkpt lat="45.0545883" lon="11.64495"><ele>9.0</ele><time>2026-05-01T10:19:31.408Z</time></trkpt><trkpt lat="45.054495" lon="11.6449967"><ele>9.0</ele><time>2026-05-01T10:19:33.426Z</time></trkpt><trkpt lat="45.054405" lon="11.64504"><ele>9.0</ele><time>2026-05-01T10:19:35.418Z</time></trkpt><trkpt lat="45.054305" lon="11.64508"><ele>9.0</ele><time>2026-05-01T10:19:37.43Z</time></trkpt><trkpt lat="45.0542083" lon="11.6451233"><ele>9.0</ele><time>2026-05-01T10:19:39.426Z</time></trkpt><trkpt lat="45.0541133" lon="11.6451733"><ele>9.0</ele><time>2026-05-01T10:19:41.422Z</time></trkpt><trkpt lat="45.0540233" lon="11.6452267"><ele>9.0</ele><time>2026-05-01T10:19:43.427Z</time></trkpt><trkpt lat="45.05393" lon="11.6452767"><ele>9.0</ele><time>2026-05-01T10:19:45.433Z</time></trkpt><trkpt lat="45.053835" lon="11.6453233"><ele>8.6</ele><time>2026-05-01T10:19:47.43Z</time></trkpt><trkpt lat="45.0537417" lon="11.645375"><ele>8.2</ele><time>2026-05-01T10:19:49.415Z</time></trkpt><trkpt lat="45.0536533" lon="11.64543"><ele>7.799999999999999</ele><time>2026-05-01T10:19:51.424Z</time></trkpt><trkpt lat="45.0535667" lon="11.645485"><ele>7.3999999999999995</ele><time>2026-05-01T10:19:53.422Z</time></trkpt><trkpt lat="45.05348" lon="11.6455433"><ele>7.0</ele><time>2026-05-01T10:19:55.427Z</time></trkpt><trkpt lat="45.0533867" lon="11.6455983"><ele>7.0</ele><time>2026-05-01T10:19:57.425Z</time></trkpt><trkpt lat="45.0533" lon="11.6456567"><ele>6.999999999999999</ele><time>2026-05-01T10:19:59.418Z</time></trkpt><trkpt lat="45.0532117" lon="11.64573"><ele>6.999999999999999</ele><time>2026-05-01T10:20:01.425Z</time></trkpt><trkpt lat="45.0531267" lon="11.6458283"><ele>7.0</ele><time>2026-05-01T10:20:03.432Z</time></trkpt><trkpt lat="45.05305" lon="11.645935"><ele>7.0</ele><time>2026-05-01T10:20:05.423Z</time></trkpt><trkpt lat="45.05298" lon="11.6460417"><ele>7.3999999999999995</ele><time>2026-05-01T10:20:07.43Z</time></trkpt><trkpt lat="45.0529233" lon="11.64615"><ele>7.799999999999999</ele><time>2026-05-01T10:20:09.429Z</time></trkpt><trkpt lat="45.052865" lon="11.64625"><ele>8.2</ele><time>2026-05-01T10:20:11.394Z</time></trkpt><trkpt lat="45.0528067" lon="11.64635"><ele>8.6</ele><time>2026-05-01T10:20:13.431Z</time></trkpt><trkpt lat="45.0527483" lon="11.6464533"><ele>9.0</ele><time>2026-05-01T10:20:15.415Z</time></trkpt><trkpt lat="45.0526967" lon="11.6465517"><ele>9.0</ele><time>2026-05-01T10:20:17.42Z</time></trkpt><trkpt lat="45.0526433" lon="11.64663"><ele>9.0</ele><time>2026-05-01T10:20:19.404Z</time></trkpt><trkpt lat="45.0525633" lon="11.646665"><ele>9.0</ele><time>2026-05-01T10:20:21.419Z</time></trkpt><trkpt lat="45.0524817" lon="11.6466633"><ele>9.0</ele><time>2026-05-01T10:20:23.417Z</time></trkpt><trkpt lat="45.0524017" lon="11.646625"><ele>9.0</ele><time>2026-05-01T10:20:25.41Z</time></trkpt><trkpt lat="45.0523317" lon="11.646555"><ele>9.0</ele><time>2026-05-01T10:20:27.406Z</time></trkpt><trkpt lat="45.05227" lon="11.6464783"><ele>9.0</ele><time>2026-05-01T10:20:29.385Z</time></trkpt><trkpt lat="45.0522067" lon="11.6464083"><ele>9.0</ele><time>2026-05-01T10:20:31.385Z</time></trkpt><trkpt lat="45.0521417" lon="11.6463417"><ele>9.0</ele><time>2026-05-01T10:20:33.426Z</time></trkpt><trkpt lat="45.05208" lon="11.646265"><ele>9.0</ele><time>2026-05-01T10:20:35.425Z</time></trkpt><trkpt lat="45.05202" lon="11.646185"><ele>9.0</ele><time>2026-05-01T10:20:37.421Z</time></trkpt><trkpt lat="45.051965" lon="11.6460867"><ele>9.0</ele><time>2026-05-01T10:20:39.428Z</time></trkpt><trkpt lat="45.0519083" lon="11.6459717"><ele>9.0</ele><time>2026-05-01T10:20:41.417Z</time></trkpt><trkpt lat="45.0518533" lon="11.645855"><ele>9.0</ele><time>2026-05-01T10:20:43.426Z</time></trkpt><trkpt lat="45.0517917" lon="11.6457367"><ele>9.0</ele><time>2026-05-01T10:20:45.43Z</time></trkpt><trkpt lat="45.0517367" lon="11.6456167"><ele>9.0</ele><time>2026-05-01T10:20:47.419Z</time></trkpt><trkpt lat="45.0516867" lon="11.6454967"><ele>9.0</ele><time>2026-05-01T10:20:49.421Z</time></trkpt><trkpt lat="45.0516433" lon="11.6453767"><ele>9.0</ele><time>2026-05-01T10:20:51.42Z</time></trkpt><trkpt lat="45.0516017" lon="11.6452567"><ele>9.0</ele><time>2026-05-01T10:20:53.426Z</time></trkpt><trkpt lat="45.0515783" lon="11.645145"><ele>9.0</ele><time>2026-05-01T10:20:55.425Z</time></trkpt><trkpt lat="45.0515" lon="11.645055"><ele>9.0</ele><time>2026-05-01T10:23:25.438Z</time></trkpt><trkpt lat="45.0514383" lon="11.6450117"><ele>9.0</ele><time>2026-05-01T10:23:27.402Z</time></trkpt><trkpt lat="45.0513283" lon="11.6449183"><ele>9.0</ele><time>2026-05-01T10:23:30.482Z</time></trkpt><trkpt lat="45.0512333" lon="11.6448767"><ele>9.0</ele><time>2026-05-01T10:23:34.731Z</time></trkpt><trkpt lat="45.05086" lon="11.64485"><ele>8.6</ele><time>2026-05-01T10:23:40.247Z</time></trkpt><trkpt lat="45.0507617" lon="11.6448783"><ele>8.2</ele><time>2026-05-01T10:23:41.43Z</time></trkpt><trkpt lat="45.05065" lon="11.6448983"><ele>7.799999999999999</ele><time>2026-05-01T10:23:43.429Z</time></trkpt><trkpt lat="45.0505367" lon="11.6449283"><ele>7.3999999999999995</ele><time>2026-05-01T10:23:45.39Z</time></trkpt><trkpt lat="45.0504217" lon="11.64496"><ele>7.0</ele><time>2026-05-01T10:23:47.435Z</time></trkpt><trkpt lat="45.0502467" lon="11.6450067"><ele>7.0</ele><time>2026-05-01T10:23:50.43Z</time></trkpt><trkpt lat="45.05013" lon="11.6450383"><ele>6.999999999999999</ele><time>2026-05-01T10:23:52.392Z</time></trkpt><trkpt lat="45.0500117" lon="11.645075"><ele>6.999999999999999</ele><time>2026-05-01T10:23:54.408Z</time></trkpt><trkpt lat="45.04995" lon="11.6450983"><ele>7.0</ele><time>2026-05-01T10:23:55.448Z</time></trkpt><trkpt lat="45.04985" lon="11.6451367"><ele>7.0</ele><time>2026-05-01T10:23:57.41Z</time></trkpt><trkpt lat="45.0497883" lon="11.6451567"><ele>7.0</ele><time>2026-05-01T10:23:58.418Z</time></trkpt><trkpt lat="45.049685" lon="11.645205"><ele>6.999999999999999</ele><time>2026-05-01T10:24:00.424Z</time></trkpt><trkpt lat="45.0495733" lon="11.645255"><ele>6.999999999999999</ele><time>2026-05-01T10:24:02.409Z</time></trkpt><trkpt lat="45.0494717" lon="11.64531"><ele>7.0</ele><time>2026-05-01T10:24:04.41Z</time></trkpt><trkpt lat="45.049365" lon="11.6453667"><ele>7.0</ele><time>2026-05-01T10:24:06.389Z</time></trkpt><trkpt lat="45.0492583" lon="11.645425"><ele>7.199999999999999</ele><time>2026-05-01T10:24:08.508Z</time></trkpt><trkpt lat="45.0491533" lon="11.6454933"><ele>7.3999999999999995</ele><time>2026-05-01T10:24:10.485Z</time></trkpt><trkpt lat="45.0490933" lon="11.6455433"><ele>7.6000000000000005</ele><time>2026-05-01T10:24:11.459Z</time></trkpt><trkpt lat="45.0490333" lon="11.64559"><ele>7.800000000000001</ele><time>2026-05-01T10:24:12.453Z</time></trkpt><trkpt lat="45.0489267" lon="11.645655"><ele>8.0</ele><time>2026-05-01T10:24:14.43Z</time></trkpt><trkpt lat="45.0488133" lon="11.6457183"><ele>8.0</ele><time>2026-05-01T10:24:16.423Z</time></trkpt><trkpt lat="45.048715" lon="11.64579"><ele>8.0</ele><time>2026-05-01T10:24:18.404Z</time></trkpt><trkpt lat="45.0486333" lon="11.6458667"><ele>8.0</ele><time>2026-05-01T10:24:20.406Z</time></trkpt><trkpt lat="45.048585" lon="11.64595"><ele>8.0</ele><time>2026-05-01T10:24:22.379Z</time></trkpt><trkpt lat="45.0484967" lon="11.6460317"><ele>8.0</ele><time>2026-05-01T10:24:24.385Z</time></trkpt><trkpt lat="45.0484033" lon="11.6461233"><ele>7.800000000000001</ele><time>2026-05-01T10:24:26.391Z</time></trkpt><trkpt lat="45.0483133" lon="11.646205"><ele>7.6000000000000005</ele><time>2026-05-01T10:24:28.386Z</time></trkpt><trkpt lat="45.0482183" lon="11.6462917"><ele>7.3999999999999995</ele><time>2026-05-01T10:24:30.386Z</time></trkpt><trkpt lat="45.0481233" lon="11.6463783"><ele>7.199999999999999</ele><time>2026-05-01T10:24:32.387Z</time></trkpt><trkpt lat="45.0480267" lon="11.6464583"><ele>7.0</ele><time>2026-05-01T10:24:34.383Z</time></trkpt><trkpt lat="45.0479283" lon="11.6465367"><ele>7.0</ele><time>2026-05-01T10:24:36.419Z</time></trkpt><trkpt lat="45.04783" lon="11.646615"><ele>7.0</ele><time>2026-05-01T10:24:38.385Z</time></trkpt><trkpt lat="45.0477283" lon="11.64669"><ele>7.0</ele><time>2026-05-01T10:24:40.38Z</time></trkpt><trkpt lat="45.0476283" lon="11.6467667"><ele>7.0</ele><time>2026-05-01T10:24:42.377Z</time></trkpt><trkpt lat="45.047525" lon="11.6468367"><ele>7.0</ele><time>2026-05-01T10:24:44.384Z</time></trkpt><trkpt lat="45.0474233" lon="11.6469067"><ele>6.999999999999999</ele><time>2026-05-01T10:24:46.385Z</time></trkpt><trkpt lat="45.0473267" lon="11.6469717"><ele>6.999999999999999</ele><time>2026-05-01T10:24:48.382Z</time></trkpt><trkpt lat="45.0472267" lon="11.6470383"><ele>7.0</ele><time>2026-05-01T10:24:50.424Z</time></trkpt><trkpt lat="45.0471233" lon="11.6470983"><ele>7.0</ele><time>2026-05-01T10:24:52.419Z</time></trkpt><trkpt lat="45.047015" lon="11.6471533"><ele>6.75</ele><time>2026-05-01T10:24:54.405Z</time></trkpt><trkpt lat="45.0469033" lon="11.64718"><ele>6.5</ele><time>2026-05-01T10:24:56.415Z</time></trkpt><trkpt lat="45.04679" lon="11.6471667"><ele>6.25</ele><time>2026-05-01T10:24:58.432Z</time></trkpt><trkpt lat="45.0466767" lon="11.647145"><ele>6.0</ele><time>2026-05-01T10:25:00.394Z</time></trkpt><trkpt lat="45.046565" lon="11.64714"><ele>6.0</ele><time>2026-05-01T10:25:02.389Z</time></trkpt><trkpt lat="45.04646" lon="11.6471467"><ele>6.0</ele><time>2026-05-01T10:25:04.384Z</time></trkpt><trkpt lat="45.04636" lon="11.6471667"><ele>6.0</ele><time>2026-05-01T10:25:06.384Z</time></trkpt><trkpt lat="45.04626" lon="11.647205"><ele>6.0</ele><time>2026-05-01T10:25:08.385Z</time></trkpt><trkpt lat="45.0461633" lon="11.647255"><ele>6.0</ele><time>2026-05-01T10:25:10.391Z</time></trkpt><trkpt lat="45.04607" lon="11.647315"><ele>6.0</ele><time>2026-05-01T10:25:12.409Z</time></trkpt><trkpt lat="45.045975" lon="11.6473817"><ele>6.0</ele><time>2026-05-01T10:25:14.387Z</time></trkpt><trkpt lat="45.0458817" lon="11.6474517"><ele>6.0</ele><time>2026-05-01T10:25:16.381Z</time></trkpt><trkpt lat="45.04579" lon="11.6475217"><ele>6.0</ele><time>2026-05-01T10:25:18.412Z</time></trkpt><trkpt lat="45.0456967" lon="11.6475867"><ele>6.0</ele><time>2026-05-01T10:25:20.423Z</time></trkpt><trkpt lat="45.0456067" lon="11.6476567"><ele>6.199999999999999</ele><time>2026-05-01T10:25:22.389Z</time></trkpt><trkpt lat="45.045515" lon="11.647725"><ele>6.3999999999999995</ele><time>2026-05-01T10:25:24.419Z</time></trkpt><trkpt lat="45.0454233" lon="11.6477967"><ele>6.6</ele><time>2026-05-01T10:25:26.43Z</time></trkpt><trkpt lat="45.0453333" lon="11.6478683"><ele>6.8</ele><time>2026-05-01T10:25:28.402Z</time></trkpt><trkpt lat="45.04524" lon="11.6479367"><ele>7.0</ele><time>2026-05-01T10:25:30.419Z</time></trkpt><trkpt lat="45.0451467" lon="11.6479967"><ele>6.6</ele><time>2026-05-01T10:25:32.415Z</time></trkpt><trkpt lat="45.0450483" lon="11.6480567"><ele>6.199999999999999</ele><time>2026-05-01T10:25:34.412Z</time></trkpt><trkpt lat="45.0449483" lon="11.648115"><ele>5.8</ele><time>2026-05-01T10:25:36.421Z</time></trkpt><trkpt lat="45.04485" lon="11.6481717"><ele>5.4</ele><time>2026-05-01T10:25:38.425Z</time></trkpt><trkpt lat="45.0447533" lon="11.6482233"><ele>5.0</ele><time>2026-05-01T10:25:40.418Z</time></trkpt><trkpt lat="45.044655" lon="11.6482667"><ele>5.0</ele><time>2026-05-01T10:25:42.418Z</time></trkpt><trkpt lat="45.0445567" lon="11.6483067"><ele>5.0</ele><time>2026-05-01T10:25:44.405Z</time></trkpt><trkpt lat="45.04446" lon="11.6483283"><ele>5.0</ele><time>2026-05-01T10:25:46.427Z</time></trkpt><trkpt lat="45.044355" lon="11.6483317"><ele>5.0</ele><time>2026-05-01T10:25:48.428Z</time></trkpt><trkpt lat="45.0442583" lon="11.648315"><ele>5.0</ele><time>2026-05-01T10:25:50.418Z</time></trkpt><trkpt lat="45.0441567" lon="11.6482733"><ele>4.8</ele><time>2026-05-01T10:25:52.399Z</time></trkpt><trkpt lat="45.044055" lon="11.6482083"><ele>4.6</ele><time>2026-05-01T10:25:54.407Z</time></trkpt><trkpt lat="45.0439567" lon="11.6481233"><ele>4.4</ele><time>2026-05-01T10:25:56.429Z</time></trkpt><trkpt lat="45.0438667" lon="11.64803"><ele>4.2</ele><time>2026-05-01T10:25:58.418Z</time></trkpt><trkpt lat="45.0437833" lon="11.64794"><ele>4.0</ele><time>2026-05-01T10:26:00.398Z</time></trkpt><trkpt lat="45.0437033" lon="11.647845"><ele>4.0</ele><time>2026-05-01T10:26:02.428Z</time></trkpt><trkpt lat="45.043625" lon="11.647735"><ele>4.0</ele><time>2026-05-01T10:26:04.415Z</time></trkpt><trkpt lat="45.0435333" lon="11.6476317"><ele>4.0</ele><time>2026-05-01T10:26:06.426Z</time></trkpt><trkpt lat="45.0434533" lon="11.64753"><ele>4.0</ele><time>2026-05-01T10:26:08.403Z</time></trkpt><trkpt lat="45.0433733" lon="11.6474333"><ele>4.0</ele><time>2026-05-01T10:26:10.402Z</time></trkpt><trkpt lat="45.04329" lon="11.6473317"><ele>4.0</ele><time>2026-05-01T10:26:12.42Z</time></trkpt><trkpt lat="45.0432033" lon="11.6472283"><ele>4.0</ele><time>2026-05-01T10:26:14.411Z</time></trkpt><trkpt lat="45.0431117" lon="11.6471233"><ele>4.0</ele><time>2026-05-01T10:26:16.391Z</time></trkpt><trkpt lat="45.043015" lon="11.6470383"><ele>4.0</ele><time>2026-05-01T10:26:18.422Z</time></trkpt><trkpt lat="45.0429117" lon="11.6469733"><ele>4.4</ele><time>2026-05-01T10:26:20.423Z</time></trkpt><trkpt lat="45.0428033" lon="11.64693"><ele>4.800000000000001</ele><time>2026-05-01T10:26:22.428Z</time></trkpt><trkpt lat="45.0427" lon="11.646905"><ele>5.199999999999999</ele><time>2026-05-01T10:26:24.429Z</time></trkpt><trkpt lat="45.0426" lon="11.6468883"><ele>5.6</ele><time>2026-05-01T10:26:26.427Z</time></trkpt><trkpt lat="45.0424983" lon="11.6468683"><ele>6.0</ele><time>2026-05-01T10:26:28.424Z</time></trkpt><trkpt lat="45.042395" lon="11.6468517"><ele>6.0</ele><time>2026-05-01T10:26:30.405Z</time></trkpt><trkpt lat="45.0422933" lon="11.64683"><ele>6.0</ele><time>2026-05-01T10:26:32.399Z</time></trkpt><trkpt lat="45.04219" lon="11.6468167"><ele>6.0</ele><time>2026-05-01T10:26:34.428Z</time></trkpt><trkpt lat="45.0420833" lon="11.6467983"><ele>6.0</ele><time>2026-05-01T10:26:36.414Z</time></trkpt><trkpt lat="45.041975" lon="11.646785"><ele>6.0</ele><time>2026-05-01T10:26:38.427Z</time></trkpt><trkpt lat="45.0418633" lon="11.6467733"><ele>6.0</ele><time>2026-05-01T10:26:40.424Z</time></trkpt><trkpt lat="45.041755" lon="11.64676"><ele>6.0</ele><time>2026-05-01T10:26:42.387Z</time></trkpt><trkpt lat="45.041645" lon="11.6467517"><ele>6.0</ele><time>2026-05-01T10:26:44.385Z</time></trkpt><trkpt lat="45.04153" lon="11.64674"><ele>6.0</ele><time>2026-05-01T10:26:46.383Z</time></trkpt><trkpt lat="45.0414167" lon="11.6467267"><ele>6.0</ele><time>2026-05-01T10:26:48.391Z</time></trkpt><trkpt lat="45.0413033" lon="11.6467067"><ele>5.75</ele><time>2026-05-01T10:26:50.425Z</time></trkpt><trkpt lat="45.0411883" lon="11.646685"><ele>5.5</ele><time>2026-05-01T10:26:52.417Z</time></trkpt><trkpt lat="45.0410767" lon="11.64666"><ele>5.25</ele><time>2026-05-01T10:26:54.42Z</time></trkpt><trkpt lat="45.0409683" lon="11.6466283"><ele>5.0</ele><time>2026-05-01T10:26:56.405Z</time></trkpt><trkpt lat="45.0408583" lon="11.6465983"><ele>5.2</ele><time>2026-05-01T10:26:58.415Z</time></trkpt><trkpt lat="45.0407517" lon="11.6465683"><ele>5.4</ele><time>2026-05-01T10:27:00.413Z</time></trkpt><trkpt lat="45.0406417" lon="11.646545"><ele>5.6</ele><time>2026-05-01T10:27:02.429Z</time></trkpt><trkpt lat="45.0405317" lon="11.6465233"><ele>5.8</ele><time>2026-05-01T10:27:04.393Z</time></trkpt><trkpt lat="45.040425" lon="11.6464933"><ele>6.0</ele><time>2026-05-01T10:27:06.423Z</time></trkpt><trkpt lat="45.0403167" lon="11.6464733"><ele>6.0</ele><time>2026-05-01T10:27:08.421Z</time></trkpt><trkpt lat="45.0402083" lon="11.646455"><ele>6.0</ele><time>2026-05-01T10:27:10.426Z</time></trkpt><trkpt lat="45.0401" lon="11.6464333"><ele>6.0</ele><time>2026-05-01T10:27:12.427Z</time></trkpt><trkpt lat="45.039985" lon="11.6464133"><ele>6.0</ele><time>2026-05-01T10:27:14.418Z</time></trkpt><trkpt lat="45.039875" lon="11.646395"><ele>6.0</ele><time>2026-05-01T10:27:16.462Z</time></trkpt><trkpt lat="45.0397683" lon="11.646395"><ele>5.8</ele><time>2026-05-01T10:27:18.441Z</time></trkpt><trkpt lat="45.0396517" lon="11.64635"><ele>5.6</ele><time>2026-05-01T10:27:20.385Z</time></trkpt><trkpt lat="45.0395633" lon="11.6463433"><ele>5.4</ele><time>2026-05-01T10:27:22.39Z</time></trkpt><trkpt lat="45.0394467" lon="11.6463133"><ele>5.2</ele><time>2026-05-01T10:27:24.406Z</time></trkpt><trkpt lat="45.0393367" lon="11.646295"><ele>5.0</ele><time>2026-05-01T10:27:26.411Z</time></trkpt><trkpt lat="45.0392217" lon="11.6462717"><ele>4.8</ele><time>2026-05-01T10:27:28.419Z</time></trkpt><trkpt lat="45.03911" lon="11.6462467"><ele>4.6</ele><time>2026-05-01T10:27:30.425Z</time></trkpt><trkpt lat="45.039" lon="11.6462233"><ele>4.4</ele><time>2026-05-01T10:27:32.405Z</time></trkpt><trkpt lat="45.0388917" lon="11.6461983"><ele>4.2</ele><time>2026-05-01T10:27:34.418Z</time></trkpt><trkpt lat="45.0387817" lon="11.6461683"><ele>4.0</ele><time>2026-05-01T10:27:36.421Z</time></trkpt><trkpt lat="45.0386783" lon="11.6461383"><ele>4.4</ele><time>2026-05-01T10:27:38.424Z</time></trkpt><trkpt lat="45.038575" lon="11.6460867"><ele>4.800000000000001</ele><time>2026-05-01T10:27:40.396Z</time></trkpt><trkpt lat="45.0384783" lon="11.6460117"><ele>5.199999999999999</ele><time>2026-05-01T10:27:42.429Z</time></trkpt><trkpt lat="45.038395" lon="11.6459083"><ele>5.6</ele><time>2026-05-01T10:27:44.425Z</time></trkpt><trkpt lat="45.0383283" lon="11.6457867"><ele>6.0</ele><time>2026-05-01T10:27:46.402Z</time></trkpt><trkpt lat="45.0382767" lon="11.64565"><ele>6.199999999999999</ele><time>2026-05-01T10:27:48.418Z</time></trkpt><trkpt lat="45.0382367" lon="11.6455083"><ele>6.3999999999999995</ele><time>2026-05-01T10:27:50.415Z</time></trkpt><trkpt lat="45.0382" lon="11.6453583"><ele>6.6</ele><time>2026-05-01T10:27:52.41Z</time></trkpt><trkpt lat="45.0381633" lon="11.6452133"><ele>6.8</ele><time>2026-05-01T10:27:54.422Z</time></trkpt><trkpt lat="45.0381267" lon="11.6450717"><ele>7.0</ele><time>2026-05-01T10:27:56.418Z</time></trkpt><trkpt lat="45.03809" lon="11.644935"><ele>6.8</ele><time>2026-05-01T10:27:58.417Z</time></trkpt><trkpt lat="45.0380583" lon="11.6448067"><ele>6.6</ele><time>2026-05-01T10:28:00.408Z</time></trkpt><trkpt lat="45.0380333" lon="11.6446883"><ele>6.3999999999999995</ele><time>2026-05-01T10:28:02.419Z</time></trkpt><trkpt lat="45.0380133" lon="11.6445733"><ele>6.199999999999999</ele><time>2026-05-01T10:28:04.429Z</time></trkpt><trkpt lat="45.0379933" lon="11.64444"><ele>6.0</ele><time>2026-05-01T10:28:06.426Z</time></trkpt><trkpt lat="45.0379867" lon="11.6442967"><ele>6.0</ele><time>2026-05-01T10:28:08.42Z</time></trkpt><trkpt lat="45.0379867" lon="11.64415"><ele>6.0</ele><time>2026-05-01T10:28:10.431Z</time></trkpt><trkpt lat="45.0379967" lon="11.6440067"><ele>6.0</ele><time>2026-05-01T10:28:12.43Z</time></trkpt><trkpt lat="45.0380117" lon="11.643865"><ele>6.0</ele><time>2026-05-01T10:28:14.425Z</time></trkpt><trkpt lat="45.038025" lon="11.6437333"><ele>6.0</ele><time>2026-05-01T10:28:16.428Z</time></trkpt><trkpt lat="45.03805" lon="11.6435983"><ele>6.0</ele><time>2026-05-01T10:28:18.386Z</time></trkpt><trkpt lat="45.03807" lon="11.64346"><ele>6.0</ele><time>2026-05-01T10:28:20.424Z</time></trkpt><trkpt lat="45.0380867" lon="11.6433233"><ele>6.0</ele><time>2026-05-01T10:28:22.426Z</time></trkpt><trkpt lat="45.0381033" lon="11.6431883"><ele>6.0</ele><time>2026-05-01T10:28:24.426Z</time></trkpt><trkpt lat="45.0381217" lon="11.643055"><ele>6.0</ele><time>2026-05-01T10:28:26.423Z</time></trkpt><trkpt lat="45.0381367" lon="11.642915"><ele>5.8</ele><time>2026-05-01T10:28:28.424Z</time></trkpt><trkpt lat="45.0381467" lon="11.6427667"><ele>5.6</ele><time>2026-05-01T10:28:30.427Z</time></trkpt><trkpt lat="45.0381517" lon="11.6426267"><ele>5.4</ele><time>2026-05-01T10:28:32.429Z</time></trkpt><trkpt lat="45.0381367" lon="11.6424983"><ele>5.2</ele><time>2026-05-01T10:28:34.425Z</time></trkpt><trkpt lat="45.038105" lon="11.6423783"><ele>5.0</ele><time>2026-05-01T10:28:36.398Z</time></trkpt><trkpt lat="45.0380567" lon="11.6422683"><ele>5.0</ele><time>2026-05-01T10:28:38.421Z</time></trkpt><trkpt lat="45.0379933" lon="11.6421667"><ele>5.0</ele><time>2026-05-01T10:28:40.423Z</time></trkpt><trkpt lat="45.0379217" lon="11.6420733"><ele>5.0</ele><time>2026-05-01T10:28:42.415Z</time></trkpt><trkpt lat="45.0378367" lon="11.64199"><ele>5.0</ele><time>2026-05-01T10:28:44.422Z</time></trkpt><trkpt lat="45.037755" lon="11.6419083"><ele>5.0</ele><time>2026-05-01T10:28:46.426Z</time></trkpt><trkpt lat="45.0376733" lon="11.6418333"><ele>5.6</ele><time>2026-05-01T10:28:48.418Z</time></trkpt><trkpt lat="45.0375933" lon="11.6417733"><ele>6.2</ele><time>2026-05-01T10:28:50.403Z</time></trkpt><trkpt lat="45.0375067" lon="11.6417333"><ele>6.800000000000001</ele><time>2026-05-01T10:28:52.417Z</time></trkpt><trkpt lat="45.0374083" lon="11.6417017"><ele>7.4</ele><time>2026-05-01T10:28:54.428Z</time></trkpt><trkpt lat="45.0373133" lon="11.6416833"><ele>8.0</ele><time>2026-05-01T10:28:56.419Z</time></trkpt><trkpt lat="45.0372133" lon="11.6416667"><ele>8.200000000000001</ele><time>2026-05-01T10:28:58.415Z</time></trkpt><trkpt lat="45.0371133" lon="11.6416517"><ele>8.4</ele><time>2026-05-01T10:29:00.419Z</time></trkpt><trkpt lat="45.037005" lon="11.641645"><ele>8.600000000000001</ele><time>2026-05-01T10:29:02.414Z</time></trkpt><trkpt lat="45.03689" lon="11.6416417"><ele>8.8</ele><time>2026-05-01T10:29:04.418Z</time></trkpt><trkpt lat="45.0367833" lon="11.64164"><ele>9.0</ele><time>2026-05-01T10:29:06.423Z</time></trkpt><trkpt lat="45.0366783" lon="11.641635"><ele>9.2</ele><time>2026-05-01T10:29:08.414Z</time></trkpt><trkpt lat="45.0365783" lon="11.64163"><ele>9.4</ele><time>2026-05-01T10:29:10.417Z</time></trkpt><trkpt lat="45.0364783" lon="11.6416217"><ele>9.6</ele><time>2026-05-01T10:29:12.421Z</time></trkpt><trkpt lat="45.0363767" lon="11.6416133"><ele>9.8</ele><time>2026-05-01T10:29:14.426Z</time></trkpt><trkpt lat="45.0362783" lon="11.6416083"><ele>10.0</ele><time>2026-05-01T10:29:16.426Z</time></trkpt><trkpt lat="45.0361817" lon="11.6416"><ele>10.0</ele><time>2026-05-01T10:29:18.426Z</time></trkpt><trkpt lat="45.0360883" lon="11.641585"><ele>10.0</ele><time>2026-05-01T10:29:20.42Z</time></trkpt><trkpt lat="45.03599" lon="11.641565"><ele>10.0</ele><time>2026-05-01T10:29:22.399Z</time></trkpt><trkpt lat="45.0358967" lon="11.6415583"><ele>10.0</ele><time>2026-05-01T10:29:24.422Z</time></trkpt><trkpt lat="45.0358033" lon="11.6415433"><ele>10.0</ele><time>2026-05-01T10:29:26.41Z</time></trkpt><trkpt lat="45.0357017" lon="11.6415267"><ele>9.8</ele><time>2026-05-01T10:29:28.424Z</time></trkpt><trkpt lat="45.0355933" lon="11.641515"><ele>9.6</ele><time>2026-05-01T10:29:30.427Z</time></trkpt><trkpt lat="45.0354817" lon="11.6415067"><ele>9.4</ele><time>2026-05-01T10:29:32.429Z</time></trkpt><trkpt lat="45.0353717" lon="11.6414933"><ele>9.2</ele><time>2026-05-01T10:29:34.424Z</time></trkpt><trkpt lat="45.03526" lon="11.6414817"><ele>9.0</ele><time>2026-05-01T10:29:36.423Z</time></trkpt><trkpt lat="45.035145" lon="11.64147"><ele>9.0</ele><time>2026-05-01T10:29:38.429Z</time></trkpt><trkpt lat="45.0350383" lon="11.6414583"><ele>9.0</ele><time>2026-05-01T10:29:40.419Z</time></trkpt><trkpt lat="45.0349317" lon="11.64145"><ele>9.0</ele><time>2026-05-01T10:29:42.424Z</time></trkpt><trkpt lat="45.03482" lon="11.6414417"><ele>9.0</ele><time>2026-05-01T10:29:44.416Z</time></trkpt><trkpt lat="45.03471" lon="11.6414317"><ele>9.0</ele><time>2026-05-01T10:29:46.416Z</time></trkpt><trkpt lat="45.0345983" lon="11.6414217"><ele>8.8</ele><time>2026-05-01T10:29:48.427Z</time></trkpt><trkpt lat="45.0344883" lon="11.6414183"><ele>8.600000000000001</ele><time>2026-05-01T10:29:50.419Z</time></trkpt><trkpt lat="45.0343783" lon="11.6414017"><ele>8.4</ele><time>2026-05-01T10:29:52.423Z</time></trkpt><trkpt lat="45.0342683" lon="11.6413867"><ele>8.200000000000001</ele><time>2026-05-01T10:29:54.4Z</time></trkpt><trkpt lat="45.0341567" lon="11.641375"><ele>8.0</ele><time>2026-05-01T10:29:56.399Z</time></trkpt><trkpt lat="45.0340483" lon="11.6413617"><ele>8.0</ele><time>2026-05-01T10:29:58.395Z</time></trkpt><trkpt lat="45.0339367" lon="11.641355"><ele>8.0</ele><time>2026-05-01T10:30:00.395Z</time></trkpt><trkpt lat="45.033825" lon="11.6413433"><ele>8.0</ele><time>2026-05-01T10:30:02.395Z</time></trkpt><trkpt lat="45.0337133" lon="11.6413333"><ele>8.0</ele><time>2026-05-01T10:30:04.401Z</time></trkpt><trkpt lat="45.033595" lon="11.6413217"><ele>8.0</ele><time>2026-05-01T10:30:06.389Z</time></trkpt><trkpt lat="45.0334783" lon="11.641325"><ele>8.0</ele><time>2026-05-01T10:30:08.419Z</time></trkpt><trkpt lat="45.0333783" lon="11.6413467"><ele>8.0</ele><time>2026-05-01T10:30:10.463Z</time></trkpt><trkpt lat="45.033275" lon="11.64138"><ele>8.0</ele><time>2026-05-01T10:30:12.604Z</time></trkpt><trkpt lat="45.0331767" lon="11.6414017"><ele>8.0</ele><time>2026-05-01T10:30:14.477Z</time></trkpt><trkpt lat="45.0330683" lon="11.64143"><ele>8.200000000000001</ele><time>2026-05-01T10:30:16.402Z</time></trkpt><trkpt lat="45.032965" lon="11.641455"><ele>8.4</ele><time>2026-05-01T10:30:18.429Z</time></trkpt><trkpt lat="45.0328583" lon="11.6415133"><ele>8.600000000000001</ele><time>2026-05-01T10:30:20.417Z</time></trkpt><trkpt lat="45.0327783" lon="11.6415417"><ele>8.8</ele><time>2026-05-01T10:30:22.418Z</time></trkpt><trkpt lat="45.0326867" lon="11.64154"><ele>9.0</ele><time>2026-05-01T10:30:24.415Z</time></trkpt><trkpt lat="45.03258" lon="11.64152"><ele>9.0</ele><time>2026-05-01T10:30:26.425Z</time></trkpt><trkpt lat="45.032485" lon="11.641505"><ele>9.0</ele><time>2026-05-01T10:30:28.422Z</time></trkpt><trkpt lat="45.0323833" lon="11.64148"><ele>9.0</ele><time>2026-05-01T10:30:30.402Z</time></trkpt><trkpt lat="45.0322867" lon="11.6414483"><ele>9.0</ele><time>2026-05-01T10:30:32.399Z</time></trkpt><trkpt lat="45.0321867" lon="11.6414133"><ele>9.0</ele><time>2026-05-01T10:30:34.42Z</time></trkpt><trkpt lat="45.0320883" lon="11.6413867"><ele>9.166666666666666</ele><time>2026-05-01T10:30:36.425Z</time></trkpt><trkpt lat="45.0319983" lon="11.6413567"><ele>9.333333333333334</ele><time>2026-05-01T10:30:38.421Z</time></trkpt><trkpt lat="45.0319067" lon="11.641325"><ele>9.5</ele><time>2026-05-01T10:30:40.426Z</time></trkpt><trkpt lat="45.0318283" lon="11.641295"><ele>9.666666666666668</ele><time>2026-05-01T10:30:42.422Z</time></trkpt><trkpt lat="45.03175" lon="11.6412767"><ele>9.833333333333334</ele><time>2026-05-01T10:30:44.433Z</time></trkpt><trkpt lat="45.031655" lon="11.6412667"><ele>10.0</ele><time>2026-05-01T10:30:46.421Z</time></trkpt><trkpt lat="45.031555" lon="11.6412633"><ele>10.0</ele><time>2026-05-01T10:30:48.405Z</time></trkpt><trkpt lat="45.0314617" lon="11.6412567"><ele>10.0</ele><time>2026-05-01T10:30:50.42Z</time></trkpt><trkpt lat="45.0313667" lon="11.6412467"><ele>10.0</ele><time>2026-05-01T10:30:52.415Z</time></trkpt><trkpt lat="45.031275" lon="11.6412267"><ele>10.0</ele><time>2026-05-01T10:30:54.427Z</time></trkpt><trkpt lat="45.0311817" lon="11.6412083"><ele>10.0</ele><time>2026-05-01T10:30:56.424Z</time></trkpt><trkpt lat="45.0310867" lon="11.6411817"><ele>10.0</ele><time>2026-05-01T10:30:58.397Z</time></trkpt><trkpt lat="45.0309883" lon="11.641165"><ele>10.0</ele><time>2026-05-01T10:31:00.412Z</time></trkpt><trkpt lat="45.0309017" lon="11.6411583"><ele>10.0</ele><time>2026-05-01T10:31:02.419Z</time></trkpt><trkpt lat="45.0308117" lon="11.64115"><ele>10.0</ele><time>2026-05-01T10:31:04.407Z</time></trkpt><trkpt lat="45.03072" lon="11.6411333"><ele>10.0</ele><time>2026-05-01T10:31:06.397Z</time></trkpt><trkpt lat="45.030635" lon="11.6411217"><ele>10.0</ele><time>2026-05-01T10:31:08.417Z</time></trkpt><trkpt lat="45.0305433" lon="11.6411167"><ele>10.0</ele><time>2026-05-01T10:31:10.419Z</time></trkpt><trkpt lat="45.0304467" lon="11.641125"><ele>10.0</ele><time>2026-05-01T10:31:12.421Z</time></trkpt><trkpt lat="45.0303533" lon="11.64115"><ele>10.0</ele><time>2026-05-01T10:31:14.403Z</time></trkpt><trkpt lat="45.0302517" lon="11.6411817"><ele>10.0</ele><time>2026-05-01T10:31:16.422Z</time></trkpt><trkpt lat="45.0301533" lon="11.6412233"><ele>10.0</ele><time>2026-05-01T10:31:18.428Z</time></trkpt><trkpt lat="45.030065" lon="11.64129"><ele>10.0</ele><time>2026-05-01T10:31:20.398Z</time></trkpt><trkpt lat="45.02998" lon="11.6413633"><ele>10.0</ele><time>2026-05-01T10:31:22.423Z</time></trkpt><trkpt lat="45.029895" lon="11.6414567"><ele>10.0</ele><time>2026-05-01T10:31:24.425Z</time></trkpt><trkpt lat="45.0298067" lon="11.6415533"><ele>10.0</ele><time>2026-05-01T10:31:26.427Z</time></trkpt><trkpt lat="45.02971" lon="11.6416417"><ele>10.0</ele><time>2026-05-01T10:31:28.417Z</time></trkpt><trkpt lat="45.0296067" lon="11.64172"><ele>10.0</ele><time>2026-05-01T10:31:30.416Z</time></trkpt><trkpt lat="45.0295017" lon="11.6417867"><ele>10.0</ele><time>2026-05-01T10:31:32.416Z</time></trkpt><trkpt lat="45.0293933" lon="11.6418317"><ele>10.0</ele><time>2026-05-01T10:31:34.421Z</time></trkpt><trkpt lat="45.0292883" lon="11.641865"><ele>10.0</ele><time>2026-05-01T10:31:36.406Z</time></trkpt><trkpt lat="45.0291883" lon="11.6418717"><ele>10.0</ele><time>2026-05-01T10:31:38.421Z</time></trkpt><trkpt lat="45.0290833" lon="11.6418783"><ele>10.0</ele><time>2026-05-01T10:31:40.419Z</time></trkpt><trkpt lat="45.0289783" lon="11.6418717"><ele>10.0</ele><time>2026-05-01T10:31:42.424Z</time></trkpt><trkpt lat="45.0288667" lon="11.6418683"><ele>10.0</ele><time>2026-05-01T10:31:44.429Z</time></trkpt><trkpt lat="45.0287533" lon="11.64186"><ele>9.75</ele><time>2026-05-01T10:31:46.416Z</time></trkpt><trkpt lat="45.0286433" lon="11.6418517"><ele>9.5</ele><time>2026-05-01T10:31:48.422Z</time></trkpt><trkpt lat="45.02852" lon="11.6418417"><ele>9.25</ele><time>2026-05-01T10:31:50.424Z</time></trkpt><trkpt lat="45.0284033" lon="11.6418317"><ele>9.0</ele><time>2026-05-01T10:31:52.396Z</time></trkpt><trkpt lat="45.0282917" lon="11.6418167"><ele>9.0</ele><time>2026-05-01T10:31:54.388Z</time></trkpt><trkpt lat="45.0281767" lon="11.6417967"><ele>9.0</ele><time>2026-05-01T10:31:56.423Z</time></trkpt><trkpt lat="45.0280633" lon="11.6417717"><ele>9.0</ele><time>2026-05-01T10:31:58.409Z</time></trkpt><trkpt lat="45.0279583" lon="11.6417383"><ele>9.0</ele><time>2026-05-01T10:32:00.424Z</time></trkpt><trkpt lat="45.02786" lon="11.64169"><ele>9.0</ele><time>2026-05-01T10:32:02.424Z</time></trkpt><trkpt lat="45.0277683" lon="11.64163"><ele>9.0</ele><time>2026-05-01T10:32:04.424Z</time></trkpt><trkpt lat="45.0276883" lon="11.641565"><ele>9.0</ele><time>2026-05-01T10:32:06.416Z</time></trkpt><trkpt lat="45.0276133" lon="11.641495"><ele>9.0</ele><time>2026-05-01T10:32:08.396Z</time></trkpt><trkpt lat="45.0275467" lon="11.6414233"><ele>9.0</ele><time>2026-05-01T10:32:10.419Z</time></trkpt><trkpt lat="45.0274817" lon="11.64135"><ele>9.0</ele><time>2026-05-01T10:32:12.423Z</time></trkpt><trkpt lat="45.02742" lon="11.641275"><ele>9.0</ele><time>2026-05-01T10:32:14.418Z</time></trkpt><trkpt lat="45.0273617" lon="11.641205"><ele>8.833333333333334</ele><time>2026-05-01T10:32:16.426Z</time></trkpt><trkpt lat="45.027315" lon="11.6411383"><ele>8.666666666666666</ele><time>2026-05-01T10:32:18.443Z</time></trkpt><trkpt lat="45.0272667" lon="11.6410733"><ele>8.5</ele><time>2026-05-01T10:32:20.465Z</time></trkpt><trkpt lat="45.027195" lon="11.6410133"><ele>8.333333333333332</ele><time>2026-05-01T10:32:22.381Z</time></trkpt><trkpt lat="45.0271083" lon="11.6409517"><ele>8.166666666666666</ele><time>2026-05-01T10:32:24.394Z</time></trkpt><trkpt lat="45.027005" lon="11.6408833"><ele>8.0</ele><time>2026-05-01T10:32:26.393Z</time></trkpt><trkpt lat="45.0269267" lon="11.640795"><ele>8.0</ele><time>2026-05-01T10:32:28.424Z</time></trkpt><trkpt lat="45.0268483" lon="11.6407183"><ele>8.0</ele><time>2026-05-01T10:32:30.422Z</time></trkpt><trkpt lat="45.0267733" lon="11.6406433"><ele>8.0</ele><time>2026-05-01T10:32:32.413Z</time></trkpt><trkpt lat="45.0266967" lon="11.640565"><ele>8.0</ele><time>2026-05-01T10:32:34.417Z</time></trkpt><trkpt lat="45.0266133" lon="11.640495"><ele>8.0</ele><time>2026-05-01T10:32:36.425Z</time></trkpt><trkpt lat="45.0265283" lon="11.640435"><ele>8.0</ele><time>2026-05-01T10:32:38.419Z</time></trkpt><trkpt lat="45.0264417" lon="11.6403833"><ele>8.0</ele><time>2026-05-01T10:32:40.393Z</time></trkpt><trkpt lat="45.0263533" lon="11.6403333"><ele>8.0</ele><time>2026-05-01T10:32:42.427Z</time></trkpt><trkpt lat="45.02626" lon="11.64029"><ele>8.0</ele><time>2026-05-01T10:32:44.421Z</time></trkpt><trkpt lat="45.0261633" lon="11.64025"><ele>8.0</ele><time>2026-05-01T10:32:46.429Z</time></trkpt><trkpt lat="45.026065" lon="11.6402183"><ele>7.800000000000001</ele><time>2026-05-01T10:32:48.424Z</time></trkpt><trkpt lat="45.0259683" lon="11.64019"><ele>7.6000000000000005</ele><time>2026-05-01T10:32:50.426Z</time></trkpt><trkpt lat="45.0258767" lon="11.6401717"><ele>7.3999999999999995</ele><time>2026-05-01T10:32:52.425Z</time></trkpt><trkpt lat="45.02578" lon="11.640165"><ele>7.199999999999999</ele><time>2026-05-01T10:32:54.414Z</time></trkpt><trkpt lat="45.02568" lon="11.6401667"><ele>7.0</ele><time>2026-05-01T10:32:56.405Z</time></trkpt><trkpt lat="45.02558" lon="11.6401867"><ele>7.0</ele><time>2026-05-01T10:32:58.381Z</time></trkpt><trkpt lat="45.0254883" lon="11.6402183"><ele>6.999999999999999</ele><time>2026-05-01T10:33:00.409Z</time></trkpt><trkpt lat="45.0254" lon="11.6402633"><ele>6.999999999999999</ele><time>2026-05-01T10:33:02.424Z</time></trkpt><trkpt lat="45.02532" lon="11.64032"><ele>7.0</ele><time>2026-05-01T10:33:04.407Z</time></trkpt><trkpt lat="45.0252467" lon="11.64039"><ele>7.0</ele><time>2026-05-01T10:33:06.414Z</time></trkpt><trkpt lat="45.0251817" lon="11.6404683"><ele>7.000000000000001</ele><time>2026-05-01T10:33:08.416Z</time></trkpt><trkpt lat="45.0251233" lon="11.6405367"><ele>7.0</ele><time>2026-05-01T10:33:10.426Z</time></trkpt><trkpt lat="45.0250667" lon="11.6405883"><ele>7.0</ele><time>2026-05-01T10:33:12.415Z</time></trkpt><trkpt lat="45.0250133" lon="11.640645"><ele>7.0</ele><time>2026-05-01T10:33:15.428Z</time></trkpt><trkpt lat="45.02508" lon="11.640685"><ele>7.000000000000001</ele><time>2026-05-01T10:34:29.449Z</time></trkpt><trkpt lat="45.0251617" lon="11.6406667"><ele>7.0</ele><time>2026-05-01T10:34:34.395Z</time></trkpt><trkpt lat="45.025115" lon="11.6405667"><ele>7.000000000000001</ele><time>2026-05-01T10:34:40.395Z</time></trkpt><trkpt lat="45.0250517" lon="11.64059"><ele>7.0</ele><time>2026-05-01T10:34:55.393Z</time></trkpt><trkpt lat="45.0250533" lon="11.6406933"><ele>7.0</ele><time>2026-05-01T10:35:12.4Z</time></trkpt><trkpt lat="45.0250183" lon="11.6407833"><ele>7.0</ele><time>2026-05-01T10:35:19.388Z</time></trkpt><trkpt lat="45.02496" lon="11.64083"><ele>7.000000000000001</ele><time>2026-05-01T10:35:20.412Z</time></trkpt><trkpt lat="45.024895" lon="11.6409033"><ele>7.0</ele><time>2026-05-01T10:35:26.399Z</time></trkpt><trkpt lat="45.0248567" lon="11.6410267"><ele>7.000000000000001</ele><time>2026-05-01T10:35:29.377Z</time></trkpt><trkpt lat="45.0247517" lon="11.6409917"><ele>7.0</ele><time>2026-05-01T10:35:32.385Z</time></trkpt><trkpt lat="45.024845" lon="11.64097"><ele>7.0</ele><time>2026-05-01T10:35:35.399Z</time></trkpt><trkpt lat="45.0248583" lon="11.64088"><ele>7.0</ele><time>2026-05-01T10:35:38.39Z</time></trkpt><trkpt lat="45.0248717" lon="11.640765"><ele>7.000000000000001</ele><time>2026-05-01T10:35:39.412Z</time></trkpt><trkpt lat="45.0248467" lon="11.6408867"><ele>7.0</ele><time>2026-05-01T10:35:45.407Z</time></trkpt><trkpt lat="45.0249833" lon="11.6407183"><ele>7.0</ele><time>2026-05-01T10:35:48.398Z</time></trkpt><trkpt lat="45.025095" lon="11.64071"><ele>6.999999999999999</ele><time>2026-05-01T10:35:50.384Z</time></trkpt><trkpt lat="45.02518" lon="11.6407283"><ele>6.999999999999999</ele><time>2026-05-01T10:35:53.381Z</time></trkpt><trkpt lat="45.02513" lon="11.6406667"><ele>7.0</ele><time>2026-05-01T10:36:34.398Z</time></trkpt><trkpt lat="45.02512" lon="11.6407667"><ele>7.0</ele><time>2026-05-01T10:36:57.39Z</time></trkpt><trkpt lat="45.0252317" lon="11.6406867"><ele>7.0</ele><time>2026-05-01T10:37:19.402Z</time></trkpt></trkseg></trk></gpx>